<?xml version='1.0' encoding='UTF-8'?><gpx version="1.1" creator="JPX - https://github.com/jenetics/jpx" xmlns="http://www.topografix.com/GPX/1/1"><trk><trkseg><trkpt lat="44.4848654" lon="11.2249045"><ele>80.0</ele><time>2026-04-04T09:07:25.375Z</time></trkpt><trkpt lat="44.4848801" lon="11.2249934"><ele>80.0</ele><time>2026-04-04T09:07:29.384Z</time></trkpt><trkpt lat="44.4848075" lon="11.2250484"><ele>80.0</ele><time>2026-04-04T09:07:34.365Z</time></trkpt><trkpt lat="44.484713" lon="11.2250258"><ele>80.0</ele><time>2026-04-04T09:07:37.362Z</time></trkpt><trkpt lat="44.4846396" lon="11.2250037"><ele>80.0</ele><time>2026-04-04T09:07:39.361Z</time></trkpt><trkpt lat="44.4845618" lon="11.2249835"><ele>80.0</ele><time>2026-04-04T09:07:41.371Z</time></trkpt><trkpt lat="44.4844801" lon="11.2249643"><ele>79.6</ele><time>2026-04-04T09:07:43.369Z</time></trkpt><trkpt lat="44.4843921" lon="11.2249454"><ele>79.2</ele><time>2026-04-04T09:07:45.366Z</time></trkpt><trkpt lat="44.4842939" lon="11.2249212"><ele>78.8</ele><time>2026-04-04T09:07:47.367Z</time></trkpt><trkpt lat="44.4841947" lon="11.2248944"><ele>78.4</ele><time>2026-04-04T09:07:49.39Z</time></trkpt><trkpt lat="44.4840903" lon="11.2248661"><ele>78.0</ele><time>2026-04-04T09:07:51.384Z</time></trkpt><trkpt lat="44.4839871" lon="11.2248345"><ele>78.2</ele><time>2026-04-04T09:07:53.38Z</time></trkpt><trkpt lat="44.48388" lon="11.2248054"><ele>78.4</ele><time>2026-04-04T09:07:55.368Z</time></trkpt><trkpt lat="44.4837788" lon="11.2247744"><ele>78.60000000000001</ele><time>2026-04-04T09:07:57.369Z</time></trkpt><trkpt lat="44.4836769" lon="11.2247473"><ele>78.8</ele><time>2026-04-04T09:07:59.371Z</time></trkpt><trkpt lat="44.4835723" lon="11.2247184"><ele>79.0</ele><time>2026-04-04T09:08:01.377Z</time></trkpt><trkpt lat="44.483463" lon="11.2246879"><ele>79.0</ele><time>2026-04-04T09:08:03.369Z</time></trkpt><trkpt lat="44.4833524" lon="11.2246549"><ele>79.0</ele><time>2026-04-04T09:08:05.375Z</time></trkpt><trkpt lat="44.4832384" lon="11.2246219"><ele>79.0</ele><time>2026-04-04T09:08:07.371Z</time></trkpt><trkpt lat="44.4831218" lon="11.2245889"><ele>79.0</ele><time>2026-04-04T09:08:09.369Z</time></trkpt><trkpt lat="44.4830044" lon="11.2245547"><ele>79.5</ele><time>2026-04-04T09:08:11.375Z</time></trkpt><trkpt lat="44.4828883" lon="11.2245197"><ele>80.0</ele><time>2026-04-04T09:08:13.375Z</time></trkpt><trkpt lat="44.482771" lon="11.2244891"><ele>80.5</ele><time>2026-04-04T09:08:15.385Z</time></trkpt><trkpt lat="44.4826537" lon="11.2244576"><ele>81.0</ele><time>2026-04-04T09:08:17.374Z</time></trkpt><trkpt lat="44.4825383" lon="11.2244215"><ele>81.0</ele><time>2026-04-04T09:08:19.373Z</time></trkpt><trkpt lat="44.4824242" lon="11.2243857"><ele>81.0</ele><time>2026-04-04T09:08:21.371Z</time></trkpt><trkpt lat="44.4823058" lon="11.2243502"><ele>81.0</ele><time>2026-04-04T09:08:23.37Z</time></trkpt><trkpt lat="44.4821867" lon="11.2243121"><ele>81.0</ele><time>2026-04-04T09:08:25.364Z</time></trkpt><trkpt lat="44.4821243" lon="11.2242979"><ele>81.0</ele><time>2026-04-04T09:08:26.367Z</time></trkpt><trkpt lat="44.4820049" lon="11.2242641"><ele>81.4</ele><time>2026-04-04T09:08:28.373Z</time></trkpt><trkpt lat="44.4818861" lon="11.2242318"><ele>81.8</ele><time>2026-04-04T09:08:30.381Z</time></trkpt><trkpt lat="44.4817691" lon="11.2242006"><ele>82.2</ele><time>2026-04-04T09:08:32.376Z</time></trkpt><trkpt lat="44.4817061" lon="11.2241841"><ele>82.60000000000001</ele><time>2026-04-04T09:08:33.379Z</time></trkpt><trkpt lat="44.4815846" lon="11.2241476"><ele>83.0</ele><time>2026-04-04T09:08:35.371Z</time></trkpt><trkpt lat="44.4815202" lon="11.2241305"><ele>83.0</ele><time>2026-04-04T09:08:36.368Z</time></trkpt><trkpt lat="44.4814576" lon="11.2241144"><ele>83.0</ele><time>2026-04-04T09:08:37.374Z</time></trkpt><trkpt lat="44.4813935" lon="11.2240966"><ele>83.0</ele><time>2026-04-04T09:08:38.374Z</time></trkpt><trkpt lat="44.481271" lon="11.2240644"><ele>83.0</ele><time>2026-04-04T09:08:40.372Z</time></trkpt><trkpt lat="44.4811492" lon="11.2240245"><ele>83.0</ele><time>2026-04-04T09:08:42.373Z</time></trkpt><trkpt lat="44.4810259" lon="11.2239875"><ele>82.5</ele><time>2026-04-04T09:08:44.371Z</time></trkpt><trkpt lat="44.4809046" lon="11.2239484"><ele>82.0</ele><time>2026-04-04T09:08:46.38Z</time></trkpt><trkpt lat="44.4807835" lon="11.2239121"><ele>81.5</ele><time>2026-04-04T09:08:48.377Z</time></trkpt><trkpt lat="44.4806606" lon="11.2238736"><ele>81.0</ele><time>2026-04-04T09:08:50.372Z</time></trkpt><trkpt lat="44.4805409" lon="11.2238367"><ele>81.16666666666667</ele><time>2026-04-04T09:08:52.373Z</time></trkpt><trkpt lat="44.4804238" lon="11.2237992"><ele>81.33333333333333</ele><time>2026-04-04T09:08:54.372Z</time></trkpt><trkpt lat="44.4803604" lon="11.2237815"><ele>81.5</ele><time>2026-04-04T09:08:55.388Z</time></trkpt><trkpt lat="44.4802942" lon="11.2237606"><ele>81.66666666666666</ele><time>2026-04-04T09:08:56.365Z</time></trkpt><trkpt lat="44.4801682" lon="11.2237234"><ele>81.83333333333333</ele><time>2026-04-04T09:08:58.377Z</time></trkpt><trkpt lat="44.4801054" lon="11.2237073"><ele>82.0</ele><time>2026-04-04T09:08:59.366Z</time></trkpt><trkpt lat="44.4800403" lon="11.2236904"><ele>81.99999999999999</ele><time>2026-04-04T09:09:00.363Z</time></trkpt><trkpt lat="44.4799724" lon="11.2236695"><ele>82.0</ele><time>2026-04-04T09:09:01.375Z</time></trkpt><trkpt lat="44.4799091" lon="11.2236494"><ele>82.0</ele><time>2026-04-04T09:09:02.372Z</time></trkpt><trkpt lat="44.4798447" lon="11.2236292"><ele>82.0</ele><time>2026-04-04T09:09:03.381Z</time></trkpt><trkpt lat="44.4797823" lon="11.2236102"><ele>82.0</ele><time>2026-04-04T09:09:04.368Z</time></trkpt><trkpt lat="44.4797191" lon="11.2235915"><ele>81.99999999999999</ele><time>2026-04-04T09:09:05.373Z</time></trkpt><trkpt lat="44.4796013" lon="11.2235569"><ele>82.0</ele><time>2026-04-04T09:09:07.376Z</time></trkpt><trkpt lat="44.4794832" lon="11.223526"><ele>83.0</ele><time>2026-04-04T09:09:09.375Z</time></trkpt><trkpt lat="44.4793628" lon="11.2234905"><ele>84.0</ele><time>2026-04-04T09:09:11.378Z</time></trkpt><trkpt lat="44.4792426" lon="11.2234588"><ele>85.0</ele><time>2026-04-04T09:09:13.38Z</time></trkpt><trkpt lat="44.479128" lon="11.22342"><ele>86.0</ele><time>2026-04-04T09:09:15.372Z</time></trkpt><trkpt lat="44.4790106" lon="11.2233832"><ele>86.0</ele><time>2026-04-04T09:09:17.369Z</time></trkpt><trkpt lat="44.4788958" lon="11.2233461"><ele>86.0</ele><time>2026-04-04T09:09:19.36Z</time></trkpt><trkpt lat="44.4787822" lon="11.2233037"><ele>86.0</ele><time>2026-04-04T09:09:21.374Z</time></trkpt><trkpt lat="44.4786702" lon="11.2232506"><ele>86.0</ele><time>2026-04-04T09:09:23.367Z</time></trkpt><trkpt lat="44.4785639" lon="11.2231877"><ele>86.0</ele><time>2026-04-04T09:09:25.371Z</time></trkpt><trkpt lat="44.47846" lon="11.2231134"><ele>86.0</ele><time>2026-04-04T09:09:27.368Z</time></trkpt><trkpt lat="44.4783614" lon="11.2230274"><ele>86.0</ele><time>2026-04-04T09:09:29.364Z</time></trkpt><trkpt lat="44.4782689" lon="11.2229347"><ele>86.0</ele><time>2026-04-04T09:09:31.368Z</time></trkpt><trkpt lat="44.4781831" lon="11.2228362"><ele>86.0</ele><time>2026-04-04T09:09:33.374Z</time></trkpt><trkpt lat="44.4780989" lon="11.2227255"><ele>86.0</ele><time>2026-04-04T09:09:35.366Z</time></trkpt><trkpt lat="44.4780211" lon="11.2226056"><ele>86.0</ele><time>2026-04-04T09:09:37.369Z</time></trkpt><trkpt lat="44.4779518" lon="11.2224814"><ele>86.0</ele><time>2026-04-04T09:09:39.374Z</time></trkpt><trkpt lat="44.477888" lon="11.2223492"><ele>87.75</ele><time>2026-04-04T09:09:41.377Z</time></trkpt><trkpt lat="44.4778319" lon="11.2222092"><ele>89.5</ele><time>2026-04-04T09:09:43.373Z</time></trkpt><trkpt lat="44.4777815" lon="11.2220602"><ele>91.25</ele><time>2026-04-04T09:09:45.373Z</time></trkpt><trkpt lat="44.4777371" lon="11.2219043"><ele>93.0</ele><time>2026-04-04T09:09:47.371Z</time></trkpt><trkpt lat="44.4776977" lon="11.2217437"><ele>93.0</ele><time>2026-04-04T09:09:49.371Z</time></trkpt><trkpt lat="44.4776632" lon="11.2215819"><ele>93.0</ele><time>2026-04-04T09:09:51.368Z</time></trkpt><trkpt lat="44.4776272" lon="11.2214164"><ele>93.0</ele><time>2026-04-04T09:09:53.369Z</time></trkpt><trkpt lat="44.4776074" lon="11.221332"><ele>93.0</ele><time>2026-04-04T09:09:54.369Z</time></trkpt><trkpt lat="44.4775658" lon="11.2211655"><ele>93.0</ele><time>2026-04-04T09:09:56.372Z</time></trkpt><trkpt lat="44.4775133" lon="11.221004"><ele>92.85714285714286</ele><time>2026-04-04T09:09:58.369Z</time></trkpt><trkpt lat="44.4774853" lon="11.2209244"><ele>92.71428571428572</ele><time>2026-04-04T09:09:59.368Z</time></trkpt><trkpt lat="44.4774243" lon="11.2207706"><ele>92.57142857142858</ele><time>2026-04-04T09:10:01.376Z</time></trkpt><trkpt lat="44.4773901" lon="11.2206927"><ele>92.42857142857143</ele><time>2026-04-04T09:10:02.363Z</time></trkpt><trkpt lat="44.4773532" lon="11.2206176"><ele>92.28571428571428</ele><time>2026-04-04T09:10:03.376Z</time></trkpt><trkpt lat="44.4773143" lon="11.2205461"><ele>92.14285714285715</ele><time>2026-04-04T09:10:04.368Z</time></trkpt><trkpt lat="44.4772742" lon="11.2204747"><ele>92.0</ele><time>2026-04-04T09:10:05.371Z</time></trkpt><trkpt lat="44.4772328" lon="11.2204036"><ele>91.85714285714286</ele><time>2026-04-04T09:10:06.373Z</time></trkpt><trkpt lat="44.4771901" lon="11.2203363"><ele>91.71428571428571</ele><time>2026-04-04T09:10:07.375Z</time></trkpt><trkpt lat="44.4771479" lon="11.2202669"><ele>91.57142857142857</ele><time>2026-04-04T09:10:08.381Z</time></trkpt><trkpt lat="44.4771084" lon="11.220196"><ele>91.42857142857143</ele><time>2026-04-04T09:10:09.374Z</time></trkpt><trkpt lat="44.4770687" lon="11.2201245"><ele>91.28571428571428</ele><time>2026-04-04T09:10:10.38Z</time></trkpt><trkpt lat="44.4770282" lon="11.2200544"><ele>91.14285714285714</ele><time>2026-04-04T09:10:11.371Z</time></trkpt><trkpt lat="44.4769875" lon="11.219985"><ele>91.0</ele><time>2026-04-04T09:10:12.363Z</time></trkpt><trkpt lat="44.4769471" lon="11.2199152"><ele>91.28571428571429</ele><time>2026-04-04T09:10:13.373Z</time></trkpt><trkpt lat="44.4769069" lon="11.2198451"><ele>91.57142857142857</ele><time>2026-04-04T09:10:14.383Z</time></trkpt><trkpt lat="44.4768659" lon="11.2197765"><ele>91.85714285714286</ele><time>2026-04-04T09:10:15.367Z</time></trkpt><trkpt lat="44.4768246" lon="11.2197056"><ele>92.14285714285714</ele><time>2026-04-04T09:10:16.368Z</time></trkpt><trkpt lat="44.4767839" lon="11.2196338"><ele>92.42857142857143</ele><time>2026-04-04T09:10:17.37Z</time></trkpt><trkpt lat="44.4767434" lon="11.2195618"><ele>92.71428571428572</ele><time>2026-04-04T09:10:18.378Z</time></trkpt><trkpt lat="44.4767024" lon="11.2194898"><ele>93.0</ele><time>2026-04-04T09:10:19.366Z</time></trkpt><trkpt lat="44.4766622" lon="11.2194176"><ele>92.28571428571429</ele><time>2026-04-04T09:10:20.367Z</time></trkpt><trkpt lat="44.4766216" lon="11.2193446"><ele>91.57142857142857</ele><time>2026-04-04T09:10:21.37Z</time></trkpt><trkpt lat="44.4765799" lon="11.2192714"><ele>90.85714285714286</ele><time>2026-04-04T09:10:22.364Z</time></trkpt><trkpt lat="44.4765383" lon="11.2191958"><ele>90.14285714285714</ele><time>2026-04-04T09:10:23.374Z</time></trkpt><trkpt lat="44.4764957" lon="11.21912"><ele>89.42857142857143</ele><time>2026-04-04T09:10:24.376Z</time></trkpt><trkpt lat="44.4764538" lon="11.2190453"><ele>88.71428571428572</ele><time>2026-04-04T09:10:25.369Z</time></trkpt><trkpt lat="44.4764113" lon="11.2189702"><ele>88.0</ele><time>2026-04-04T09:10:26.379Z</time></trkpt><trkpt lat="44.4763687" lon="11.218894"><ele>88.0</ele><time>2026-04-04T09:10:27.37Z</time></trkpt><trkpt lat="44.4763257" lon="11.2188166"><ele>88.0</ele><time>2026-04-04T09:10:28.369Z</time></trkpt><trkpt lat="44.4762828" lon="11.2187383"><ele>88.0</ele><time>2026-04-04T09:10:29.362Z</time></trkpt><trkpt lat="44.4762378" lon="11.2186621"><ele>88.0</ele><time>2026-04-04T09:10:30.379Z</time></trkpt><trkpt lat="44.4761947" lon="11.2185834"><ele>88.0</ele><time>2026-04-04T09:10:31.362Z</time></trkpt><trkpt lat="44.4761515" lon="11.2185058"><ele>88.0</ele><time>2026-04-04T09:10:32.384Z</time></trkpt><trkpt lat="44.4761082" lon="11.2184275"><ele>88.0</ele><time>2026-04-04T09:10:33.375Z</time></trkpt><trkpt lat="44.4760661" lon="11.21835"><ele>88.0</ele><time>2026-04-04T09:10:34.374Z</time></trkpt><trkpt lat="44.4760241" lon="11.2182713"><ele>88.0</ele><time>2026-04-04T09:10:35.374Z</time></trkpt><trkpt lat="44.4759842" lon="11.2181917"><ele>88.0</ele><time>2026-04-04T09:10:36.375Z</time></trkpt><trkpt lat="44.4759453" lon="11.2181101"><ele>88.0</ele><time>2026-04-04T09:10:37.377Z</time></trkpt><trkpt lat="44.4759077" lon="11.2180271"><ele>88.0</ele><time>2026-04-04T09:10:38.366Z</time></trkpt><trkpt lat="44.4758708" lon="11.2179443"><ele>88.0</ele><time>2026-04-04T09:10:39.376Z</time></trkpt><trkpt lat="44.475835" lon="11.2178599"><ele>88.0</ele><time>2026-04-04T09:10:40.374Z</time></trkpt><trkpt lat="44.4757992" lon="11.2177768"><ele>87.71428571428572</ele><time>2026-04-04T09:10:41.378Z</time></trkpt><trkpt lat="44.4757652" lon="11.2176915"><ele>87.42857142857143</ele><time>2026-04-04T09:10:42.373Z</time></trkpt><trkpt lat="44.4757322" lon="11.2176064"><ele>87.14285714285714</ele><time>2026-04-04T09:10:43.373Z</time></trkpt><trkpt lat="44.4757006" lon="11.2175216"><ele>86.85714285714286</ele><time>2026-04-04T09:10:44.372Z</time></trkpt><trkpt lat="44.4756694" lon="11.2174364"><ele>86.57142857142857</ele><time>2026-04-04T09:10:45.376Z</time></trkpt><trkpt lat="44.4756387" lon="11.2173522"><ele>86.28571428571429</ele><time>2026-04-04T09:10:46.373Z</time></trkpt><trkpt lat="44.475609" lon="11.2172671"><ele>86.0</ele><time>2026-04-04T09:10:47.371Z</time></trkpt><trkpt lat="44.4755799" lon="11.2171821"><ele>85.85714285714286</ele><time>2026-04-04T09:10:48.361Z</time></trkpt><trkpt lat="44.4755511" lon="11.2170973"><ele>85.71428571428572</ele><time>2026-04-04T09:10:49.362Z</time></trkpt><trkpt lat="44.4755228" lon="11.2170118"><ele>85.57142857142858</ele><time>2026-04-04T09:10:50.367Z</time></trkpt><trkpt lat="44.4754956" lon="11.2169266"><ele>85.42857142857143</ele><time>2026-04-04T09:10:51.365Z</time></trkpt><trkpt lat="44.4754677" lon="11.2168419"><ele>85.28571428571428</ele><time>2026-04-04T09:10:52.366Z</time></trkpt><trkpt lat="44.4754414" lon="11.2167559"><ele>85.14285714285715</ele><time>2026-04-04T09:10:53.35Z</time></trkpt><trkpt lat="44.4754158" lon="11.2166693"><ele>85.0</ele><time>2026-04-04T09:10:54.372Z</time></trkpt><trkpt lat="44.4753904" lon="11.2165827"><ele>85.85714285714286</ele><time>2026-04-04T09:10:55.367Z</time></trkpt><trkpt lat="44.4753668" lon="11.216494"><ele>86.71428571428571</ele><time>2026-04-04T09:10:56.369Z</time></trkpt><trkpt lat="44.4753443" lon="11.2164059"><ele>87.57142857142857</ele><time>2026-04-04T09:10:57.381Z</time></trkpt><trkpt lat="44.4753236" lon="11.2163164"><ele>88.42857142857143</ele><time>2026-04-04T09:10:58.373Z</time></trkpt><trkpt lat="44.4753053" lon="11.2162258"><ele>89.28571428571428</ele><time>2026-04-04T09:10:59.385Z</time></trkpt><trkpt lat="44.4752864" lon="11.216137"><ele>90.14285714285714</ele><time>2026-04-04T09:11:00.366Z</time></trkpt><trkpt lat="44.4752683" lon="11.2160502"><ele>91.0</ele><time>2026-04-04T09:11:01.363Z</time></trkpt><trkpt lat="44.4752431" lon="11.2158773"><ele>91.4</ele><time>2026-04-04T09:11:03.364Z</time></trkpt><trkpt lat="44.4752294" lon="11.2157861"><ele>91.8</ele><time>2026-04-04T09:11:04.373Z</time></trkpt><trkpt lat="44.4752199" lon="11.2156973"><ele>92.2</ele><time>2026-04-04T09:11:05.363Z</time></trkpt><trkpt lat="44.4751964" lon="11.2155273"><ele>92.60000000000001</ele><time>2026-04-04T09:11:07.373Z</time></trkpt><trkpt lat="44.4751741" lon="11.2153623"><ele>93.0</ele><time>2026-04-04T09:11:09.375Z</time></trkpt><trkpt lat="44.4751478" lon="11.2152017"><ele>93.5</ele><time>2026-04-04T09:11:11.375Z</time></trkpt><trkpt lat="44.4751168" lon="11.2150392"><ele>94.0</ele><time>2026-04-04T09:11:13.369Z</time></trkpt><trkpt lat="44.4750777" lon="11.2148799"><ele>94.5</ele><time>2026-04-04T09:11:15.374Z</time></trkpt><trkpt lat="44.4750282" lon="11.2147245"><ele>95.0</ele><time>2026-04-04T09:11:17.37Z</time></trkpt><trkpt lat="44.4749694" lon="11.2145744"><ele>95.0</ele><time>2026-04-04T09:11:19.374Z</time></trkpt><trkpt lat="44.4749043" lon="11.2144292"><ele>95.0</ele><time>2026-04-04T09:11:21.37Z</time></trkpt><trkpt lat="44.4748281" lon="11.2142968"><ele>95.0</ele><time>2026-04-04T09:11:23.372Z</time></trkpt><trkpt lat="44.4747477" lon="11.2141705"><ele>95.0</ele><time>2026-04-04T09:11:25.38Z</time></trkpt><trkpt lat="44.4746632" lon="11.2140519"><ele>95.25</ele><time>2026-04-04T09:11:27.374Z</time></trkpt><trkpt lat="44.4745786" lon="11.2139343"><ele>95.5</ele><time>2026-04-04T09:11:29.361Z</time></trkpt><trkpt lat="44.4744918" lon="11.213817"><ele>95.75</ele><time>2026-04-04T09:11:31.368Z</time></trkpt><trkpt lat="44.474403" lon="11.2136976"><ele>96.0</ele><time>2026-04-04T09:11:33.357Z</time></trkpt><trkpt lat="44.4743136" lon="11.2135776"><ele>95.99999999999999</ele><time>2026-04-04T09:11:35.375Z</time></trkpt><trkpt lat="44.474225" lon="11.2134568"><ele>96.0</ele><time>2026-04-04T09:11:37.366Z</time></trkpt><trkpt lat="44.474181" lon="11.2133932"><ele>96.0</ele><time>2026-04-04T09:11:38.369Z</time></trkpt><trkpt lat="44.4741384" lon="11.2133267"><ele>96.0</ele><time>2026-04-04T09:11:39.371Z</time></trkpt><trkpt lat="44.474096" lon="11.2132598"><ele>96.0</ele><time>2026-04-04T09:11:40.375Z</time></trkpt><trkpt lat="44.4740551" lon="11.21319"><ele>95.99999999999999</ele><time>2026-04-04T09:11:41.365Z</time></trkpt><trkpt lat="44.4740156" lon="11.2131179"><ele>96.0</ele><time>2026-04-04T09:11:42.378Z</time></trkpt><trkpt lat="44.4739787" lon="11.2130432"><ele>96.66666666666667</ele><time>2026-04-04T09:11:43.373Z</time></trkpt><trkpt lat="44.4739446" lon="11.2129676"><ele>97.33333333333334</ele><time>2026-04-04T09:11:44.367Z</time></trkpt><trkpt lat="44.4739118" lon="11.2128914"><ele>98.0</ele><time>2026-04-04T09:11:45.36Z</time></trkpt><trkpt lat="44.4738787" lon="11.2128163"><ele>98.66666666666667</ele><time>2026-04-04T09:11:46.381Z</time></trkpt><trkpt lat="44.4738204" lon="11.2126646"><ele>99.33333333333334</ele><time>2026-04-04T09:11:48.377Z</time></trkpt><trkpt lat="44.4737628" lon="11.2125185"><ele>100.0</ele><time>2026-04-04T09:11:50.377Z</time></trkpt><trkpt lat="44.4737075" lon="11.2123735"><ele>99.75</ele><time>2026-04-04T09:11:52.358Z</time></trkpt><trkpt lat="44.4736536" lon="11.212232"><ele>99.5</ele><time>2026-04-04T09:11:54.372Z</time></trkpt><trkpt lat="44.4735997" lon="11.212092"><ele>99.25</ele><time>2026-04-04T09:11:56.374Z</time></trkpt><trkpt lat="44.4735439" lon="11.2119501"><ele>99.0</ele><time>2026-04-04T09:11:58.377Z</time></trkpt><trkpt lat="44.4734848" lon="11.2118084"><ele>99.0</ele><time>2026-04-04T09:12:00.363Z</time></trkpt><trkpt lat="44.4734263" lon="11.2116625"><ele>99.0</ele><time>2026-04-04T09:12:02.363Z</time></trkpt><trkpt lat="44.4733629" lon="11.2115161"><ele>99.0</ele><time>2026-04-04T09:12:04.379Z</time></trkpt><trkpt lat="44.4732966" lon="11.2113725"><ele>99.0</ele><time>2026-04-04T09:12:06.373Z</time></trkpt><trkpt lat="44.4732292" lon="11.2112287"><ele>98.5</ele><time>2026-04-04T09:12:08.373Z</time></trkpt><trkpt lat="44.4731608" lon="11.2110872"><ele>98.0</ele><time>2026-04-04T09:12:10.377Z</time></trkpt><trkpt lat="44.4730899" lon="11.2109481"><ele>97.5</ele><time>2026-04-04T09:12:12.377Z</time></trkpt><trkpt lat="44.4730213" lon="11.2108062"><ele>97.0</ele><time>2026-04-04T09:12:14.38Z</time></trkpt><trkpt lat="44.4729531" lon="11.2106627"><ele>97.42857142857143</ele><time>2026-04-04T09:12:16.374Z</time></trkpt><trkpt lat="44.4728845" lon="11.2105181"><ele>97.85714285714286</ele><time>2026-04-04T09:12:18.367Z</time></trkpt><trkpt lat="44.4728503" lon="11.2104433"><ele>98.28571428571429</ele><time>2026-04-04T09:12:19.374Z</time></trkpt><trkpt lat="44.472816" lon="11.2103678"><ele>98.71428571428572</ele><time>2026-04-04T09:12:20.365Z</time></trkpt><trkpt lat="44.4727814" lon="11.2102917"><ele>99.14285714285714</ele><time>2026-04-04T09:12:21.369Z</time></trkpt><trkpt lat="44.4727479" lon="11.2102147"><ele>99.57142857142858</ele><time>2026-04-04T09:12:22.369Z</time></trkpt><trkpt lat="44.4727159" lon="11.2101356"><ele>100.0</ele><time>2026-04-04T09:12:23.378Z</time></trkpt><trkpt lat="44.4726845" lon="11.2100528"><ele>100.00000000000001</ele><time>2026-04-04T09:12:24.368Z</time></trkpt><trkpt lat="44.4726536" lon="11.2099705"><ele>100.0</ele><time>2026-04-04T09:12:25.382Z</time></trkpt><trkpt lat="44.4726216" lon="11.2098894"><ele>100.0</ele><time>2026-04-04T09:12:26.375Z</time></trkpt><trkpt lat="44.4725881" lon="11.20981"><ele>100.0</ele><time>2026-04-04T09:12:27.377Z</time></trkpt><trkpt lat="44.472556" lon="11.2097297"><ele>100.0</ele><time>2026-04-04T09:12:28.367Z</time></trkpt><trkpt lat="44.4725257" lon="11.2096473"><ele>100.00000000000001</ele><time>2026-04-04T09:12:29.378Z</time></trkpt><trkpt lat="44.4724974" lon="11.2095643"><ele>100.0</ele><time>2026-04-04T09:12:30.371Z</time></trkpt><trkpt lat="44.4724725" lon="11.2094773"><ele>100.00000000000001</ele><time>2026-04-04T09:12:31.375Z</time></trkpt><trkpt lat="44.4724517" lon="11.2093887"><ele>100.0</ele><time>2026-04-04T09:12:32.369Z</time></trkpt><trkpt lat="44.4724308" lon="11.209299"><ele>100.0</ele><time>2026-04-04T09:12:33.376Z</time></trkpt><trkpt lat="44.4724133" lon="11.2092085"><ele>100.0</ele><time>2026-04-04T09:12:34.376Z</time></trkpt><trkpt lat="44.4723982" lon="11.2091181"><ele>100.0</ele><time>2026-04-04T09:12:35.376Z</time></trkpt><trkpt lat="44.4723843" lon="11.2090276"><ele>100.00000000000001</ele><time>2026-04-04T09:12:36.388Z</time></trkpt><trkpt lat="44.4723724" lon="11.208937"><ele>100.0</ele><time>2026-04-04T09:12:37.371Z</time></trkpt><trkpt lat="44.4723621" lon="11.208847"><ele>100.16666666666667</ele><time>2026-04-04T09:12:38.373Z</time></trkpt><trkpt lat="44.4723522" lon="11.2087591"><ele>100.33333333333334</ele><time>2026-04-04T09:12:39.372Z</time></trkpt><trkpt lat="44.4723427" lon="11.2086707"><ele>100.5</ele><time>2026-04-04T09:12:40.369Z</time></trkpt><trkpt lat="44.4723335" lon="11.2085829"><ele>100.66666666666666</ele><time>2026-04-04T09:12:41.381Z</time></trkpt><trkpt lat="44.472316" lon="11.2084086"><ele>100.83333333333333</ele><time>2026-04-04T09:12:43.377Z</time></trkpt><trkpt lat="44.4722977" lon="11.2082363"><ele>101.0</ele><time>2026-04-04T09:12:45.38Z</time></trkpt><trkpt lat="44.472276" lon="11.208067"><ele>101.0</ele><time>2026-04-04T09:12:47.367Z</time></trkpt><trkpt lat="44.4722501" lon="11.2078997"><ele>101.0</ele><time>2026-04-04T09:12:49.369Z</time></trkpt><trkpt lat="44.4722179" lon="11.2077339"><ele>101.0</ele><time>2026-04-04T09:12:51.367Z</time></trkpt><trkpt lat="44.4721803" lon="11.2075699"><ele>101.0</ele><time>2026-04-04T09:12:53.37Z</time></trkpt><trkpt lat="44.4721388" lon="11.2074047"><ele>102.25</ele><time>2026-04-04T09:12:55.371Z</time></trkpt><trkpt lat="44.4720949" lon="11.2072433"><ele>103.5</ele><time>2026-04-04T09:12:57.369Z</time></trkpt><trkpt lat="44.4720466" lon="11.2070827"><ele>104.75</ele><time>2026-04-04T09:12:59.378Z</time></trkpt><trkpt lat="44.4719963" lon="11.2069218"><ele>106.0</ele><time>2026-04-04T09:13:01.373Z</time></trkpt><trkpt lat="44.4719427" lon="11.2067627"><ele>106.00000000000001</ele><time>2026-04-04T09:13:03.366Z</time></trkpt><trkpt lat="44.4719128" lon="11.2066844"><ele>106.0</ele><time>2026-04-04T09:13:04.372Z</time></trkpt><trkpt lat="44.4718821" lon="11.2066069"><ele>106.0</ele><time>2026-04-04T09:13:05.37Z</time></trkpt><trkpt lat="44.4718497" lon="11.2065308"><ele>106.0</ele><time>2026-04-04T09:13:06.369Z</time></trkpt><trkpt lat="44.4717836" lon="11.2063805"><ele>106.00000000000001</ele><time>2026-04-04T09:13:08.378Z</time></trkpt><trkpt lat="44.4717094" lon="11.2062406"><ele>106.0</ele><time>2026-04-04T09:13:10.381Z</time></trkpt><trkpt lat="44.4716311" lon="11.2061076"><ele>105.5</ele><time>2026-04-04T09:13:12.363Z</time></trkpt><trkpt lat="44.471549" lon="11.2059874"><ele>105.0</ele><time>2026-04-04T09:13:14.384Z</time></trkpt><trkpt lat="44.47146" lon="11.2058774"><ele>104.5</ele><time>2026-04-04T09:13:16.362Z</time></trkpt><trkpt lat="44.4713621" lon="11.205782"><ele>104.0</ele><time>2026-04-04T09:13:18.377Z</time></trkpt><trkpt lat="44.4712583" lon="11.2057055"><ele>105.5</ele><time>2026-04-04T09:13:20.365Z</time></trkpt><trkpt lat="44.4711557" lon="11.2056418"><ele>107.0</ele><time>2026-04-04T09:13:22.367Z</time></trkpt><trkpt lat="44.47105" lon="11.2055837"><ele>108.5</ele><time>2026-04-04T09:13:24.376Z</time></trkpt><trkpt lat="44.4709409" lon="11.2055233"><ele>110.0</ele><time>2026-04-04T09:13:26.381Z</time></trkpt><trkpt lat="44.470826" lon="11.2054645"><ele>109.99999999999999</ele><time>2026-04-04T09:13:28.384Z</time></trkpt><trkpt lat="44.4707099" lon="11.2053972"><ele>110.0</ele><time>2026-04-04T09:13:30.363Z</time></trkpt><trkpt lat="44.4706551" lon="11.205353"><ele>110.0</ele><time>2026-04-04T09:13:31.365Z</time></trkpt><trkpt lat="44.4705997" lon="11.2053102"><ele>110.0</ele><time>2026-04-04T09:13:32.37Z</time></trkpt><trkpt lat="44.4705431" lon="11.2052665"><ele>109.99999999999999</ele><time>2026-04-04T09:13:33.37Z</time></trkpt><trkpt lat="44.4704381" lon="11.2051749"><ele>110.0</ele><time>2026-04-04T09:13:35.367Z</time></trkpt><trkpt lat="44.4703348" lon="11.205081"><ele>109.8</ele><time>2026-04-04T09:13:37.363Z</time></trkpt><trkpt lat="44.4702843" lon="11.2050275"><ele>109.6</ele><time>2026-04-04T09:13:38.373Z</time></trkpt><trkpt lat="44.4701879" lon="11.2049236"><ele>109.4</ele><time>2026-04-04T09:13:40.361Z</time></trkpt><trkpt lat="44.4700983" lon="11.2048099"><ele>109.2</ele><time>2026-04-04T09:13:42.372Z</time></trkpt><trkpt lat="44.4700155" lon="11.2046895"><ele>109.0</ele><time>2026-04-04T09:13:44.371Z</time></trkpt><trkpt lat="44.469972" lon="11.204621"><ele>109.00000000000001</ele><time>2026-04-04T09:13:45.366Z</time></trkpt><trkpt lat="44.4698928" lon="11.2044887"><ele>109.0</ele><time>2026-04-04T09:13:47.373Z</time></trkpt><trkpt lat="44.4698528" lon="11.2044192"><ele>109.0</ele><time>2026-04-04T09:13:48.37Z</time></trkpt><trkpt lat="44.4698129" lon="11.2043483"><ele>109.0</ele><time>2026-04-04T09:13:49.368Z</time></trkpt><trkpt lat="44.4697361" lon="11.2042097"><ele>109.00000000000001</ele><time>2026-04-04T09:13:51.368Z</time></trkpt><trkpt lat="44.4696964" lon="11.2041397"><ele>109.0</ele><time>2026-04-04T09:13:52.381Z</time></trkpt><trkpt lat="44.4696569" lon="11.2040689"><ele>109.0</ele><time>2026-04-04T09:13:53.363Z</time></trkpt><trkpt lat="44.4696173" lon="11.2039968"><ele>109.0</ele><time>2026-04-04T09:13:54.358Z</time></trkpt><trkpt lat="44.4695776" lon="11.2039255"><ele>109.0</ele><time>2026-04-04T09:13:55.366Z</time></trkpt><trkpt lat="44.4695364" lon="11.2038546"><ele>109.0</ele><time>2026-04-04T09:13:56.36Z</time></trkpt><trkpt lat="44.4694959" lon="11.2037833"><ele>109.0</ele><time>2026-04-04T09:13:57.37Z</time></trkpt><trkpt lat="44.4694563" lon="11.2037121"><ele>109.0</ele><time>2026-04-04T09:13:58.363Z</time></trkpt><trkpt lat="44.4694166" lon="11.203642"><ele>109.0</ele><time>2026-04-04T09:13:59.362Z</time></trkpt><trkpt lat="44.4693755" lon="11.2035712"><ele>109.0</ele><time>2026-04-04T09:14:00.362Z</time></trkpt><trkpt lat="44.4693345" lon="11.2035008"><ele>109.0</ele><time>2026-04-04T09:14:01.37Z</time></trkpt><trkpt lat="44.4692937" lon="11.2034312"><ele>109.0</ele><time>2026-04-04T09:14:02.369Z</time></trkpt><trkpt lat="44.4692533" lon="11.2033623"><ele>109.0</ele><time>2026-04-04T09:14:03.362Z</time></trkpt><trkpt lat="44.4692111" lon="11.2032932"><ele>109.0</ele><time>2026-04-04T09:14:04.362Z</time></trkpt><trkpt lat="44.4691691" lon="11.2032246"><ele>109.0</ele><time>2026-04-04T09:14:05.357Z</time></trkpt><trkpt lat="44.469127" lon="11.2031559"><ele>109.0</ele><time>2026-04-04T09:14:06.362Z</time></trkpt><trkpt lat="44.4690847" lon="11.2030884"><ele>109.0</ele><time>2026-04-04T09:14:07.35Z</time></trkpt><trkpt lat="44.4690427" lon="11.2030205"><ele>109.0</ele><time>2026-04-04T09:14:08.362Z</time></trkpt><trkpt lat="44.4689582" lon="11.2028888"><ele>109.0</ele><time>2026-04-04T09:14:10.367Z</time></trkpt><trkpt lat="44.4689155" lon="11.2028231"><ele>109.0</ele><time>2026-04-04T09:14:11.365Z</time></trkpt><trkpt lat="44.4688708" lon="11.2027561"><ele>109.0</ele><time>2026-04-04T09:14:12.363Z</time></trkpt><trkpt lat="44.4688292" lon="11.2026885"><ele>109.0</ele><time>2026-04-04T09:14:13.369Z</time></trkpt><trkpt lat="44.4687878" lon="11.20262"><ele>109.0</ele><time>2026-04-04T09:14:14.362Z</time></trkpt><trkpt lat="44.4687065" lon="11.2024852"><ele>109.2</ele><time>2026-04-04T09:14:16.359Z</time></trkpt><trkpt lat="44.4686319" lon="11.2023507"><ele>109.4</ele><time>2026-04-04T09:14:18.37Z</time></trkpt><trkpt lat="44.4685612" lon="11.2022139"><ele>109.6</ele><time>2026-04-04T09:14:20.361Z</time></trkpt><trkpt lat="44.4684926" lon="11.202077"><ele>109.8</ele><time>2026-04-04T09:14:22.365Z</time></trkpt><trkpt lat="44.4684558" lon="11.2020039"><ele>110.0</ele><time>2026-04-04T09:14:23.368Z</time></trkpt><trkpt lat="44.4683751" lon="11.2018812"><ele>110.0</ele><time>2026-04-04T09:14:25.369Z</time></trkpt><trkpt lat="44.4682753" lon="11.2017875"><ele>110.0</ele><time>2026-04-04T09:14:27.366Z</time></trkpt><trkpt lat="44.4681584" lon="11.2017318"><ele>110.0</ele><time>2026-04-04T09:14:29.367Z</time></trkpt><trkpt lat="44.4680945" lon="11.2017088"><ele>110.0</ele><time>2026-04-04T09:14:30.356Z</time></trkpt><trkpt lat="44.4680236" lon="11.2017045"><ele>110.0</ele><time>2026-04-04T09:14:31.373Z</time></trkpt><trkpt lat="44.4679484" lon="11.2017019"><ele>108.99999999999999</ele><time>2026-04-04T09:14:32.378Z</time></trkpt><trkpt lat="44.4678716" lon="11.2017023"><ele>108.0</ele><time>2026-04-04T09:14:33.369Z</time></trkpt><trkpt lat="44.4677873" lon="11.2017119"><ele>107.0</ele><time>2026-04-04T09:14:34.382Z</time></trkpt><trkpt lat="44.4677004" lon="11.2017233"><ele>106.0</ele><time>2026-04-04T09:14:35.372Z</time></trkpt><trkpt lat="44.467612" lon="11.2017358"><ele>104.99999999999999</ele><time>2026-04-04T09:14:36.371Z</time></trkpt><trkpt lat="44.4675165" lon="11.201749"><ele>104.0</ele><time>2026-04-04T09:14:37.365Z</time></trkpt><trkpt lat="44.4674125" lon="11.2017646"><ele>104.0</ele><time>2026-04-04T09:14:38.367Z</time></trkpt><trkpt lat="44.4673108" lon="11.201778"><ele>104.0</ele><time>2026-04-04T09:14:39.366Z</time></trkpt><trkpt lat="44.4672037" lon="11.2017861"><ele>104.0</ele><time>2026-04-04T09:14:40.363Z</time></trkpt><trkpt lat="44.4670938" lon="11.2017783"><ele>104.0</ele><time>2026-04-04T09:14:41.372Z</time></trkpt><trkpt lat="44.4669813" lon="11.2017709"><ele>104.0</ele><time>2026-04-04T09:14:42.359Z</time></trkpt><trkpt lat="44.4668666" lon="11.2017461"><ele>104.25</ele><time>2026-04-04T09:14:43.366Z</time></trkpt><trkpt lat="44.4667537" lon="11.2017155"><ele>104.5</ele><time>2026-04-04T09:14:44.363Z</time></trkpt><trkpt lat="44.4666431" lon="11.2016831"><ele>104.75</ele><time>2026-04-04T09:14:45.369Z</time></trkpt><trkpt lat="44.4665355" lon="11.2016415"><ele>105.0</ele><time>2026-04-04T09:14:46.362Z</time></trkpt><trkpt lat="44.4664294" lon="11.2015838"><ele>105.0</ele><time>2026-04-04T09:14:47.377Z</time></trkpt><trkpt lat="44.4663258" lon="11.2015226"><ele>105.0</ele><time>2026-04-04T09:14:48.364Z</time></trkpt><trkpt lat="44.4662296" lon="11.2014649"><ele>105.0</ele><time>2026-04-04T09:14:49.365Z</time></trkpt><trkpt lat="44.466133" lon="11.2014085"><ele>105.0</ele><time>2026-04-04T09:14:50.366Z</time></trkpt><trkpt lat="44.4660367" lon="11.2013512"><ele>105.0</ele><time>2026-04-04T09:14:51.367Z</time></trkpt><trkpt lat="44.4659464" lon="11.201295"><ele>104.0</ele><time>2026-04-04T09:14:52.372Z</time></trkpt><trkpt lat="44.4658582" lon="11.2012379"><ele>103.0</ele><time>2026-04-04T09:14:53.363Z</time></trkpt><trkpt lat="44.4657744" lon="11.2011859"><ele>102.0</ele><time>2026-04-04T09:14:54.376Z</time></trkpt><trkpt lat="44.4656913" lon="11.2011339"><ele>101.0</ele><time>2026-04-04T09:14:55.372Z</time></trkpt><trkpt lat="44.4656119" lon="11.2010809"><ele>100.0</ele><time>2026-04-04T09:14:56.363Z</time></trkpt><trkpt lat="44.4655304" lon="11.2010262"><ele>100.00000000000001</ele><time>2026-04-04T09:14:57.361Z</time></trkpt><trkpt lat="44.4654505" lon="11.2009733"><ele>100.0</ele><time>2026-04-04T09:14:58.375Z</time></trkpt><trkpt lat="44.46537" lon="11.2009209"><ele>100.0</ele><time>2026-04-04T09:14:59.371Z</time></trkpt><trkpt lat="44.4652939" lon="11.2008689"><ele>100.0</ele><time>2026-04-04T09:15:00.361Z</time></trkpt><trkpt lat="44.4652172" lon="11.2008174"><ele>100.00000000000001</ele><time>2026-04-04T09:15:01.367Z</time></trkpt><trkpt lat="44.465143" lon="11.2007686"><ele>100.0</ele><time>2026-04-04T09:15:02.369Z</time></trkpt><trkpt lat="44.4650693" lon="11.2007214"><ele>100.50000000000001</ele><time>2026-04-04T09:15:03.366Z</time></trkpt><trkpt lat="44.4649963" lon="11.2006731"><ele>101.0</ele><time>2026-04-04T09:15:04.37Z</time></trkpt><trkpt lat="44.4649251" lon="11.2006271"><ele>101.5</ele><time>2026-04-04T09:15:05.373Z</time></trkpt><trkpt lat="44.4648558" lon="11.2005802"><ele>102.0</ele><time>2026-04-04T09:15:06.375Z</time></trkpt><trkpt lat="44.4647876" lon="11.2005321"><ele>102.50000000000001</ele><time>2026-04-04T09:15:07.372Z</time></trkpt><trkpt lat="44.4647207" lon="11.2004841"><ele>103.0</ele><time>2026-04-04T09:15:08.373Z</time></trkpt><trkpt lat="44.4646567" lon="11.2004371"><ele>102.99999999999999</ele><time>2026-04-04T09:15:09.368Z</time></trkpt><trkpt lat="44.4645943" lon="11.2003843"><ele>103.0</ele><time>2026-04-04T09:15:10.368Z</time></trkpt><trkpt lat="44.4645373" lon="11.2003229"><ele>103.0</ele><time>2026-04-04T09:15:11.37Z</time></trkpt><trkpt lat="44.4644872" lon="11.2002516"><ele>103.0</ele><time>2026-04-04T09:15:12.367Z</time></trkpt><trkpt lat="44.4644505" lon="11.2001668"><ele>103.0</ele><time>2026-04-04T09:15:13.369Z</time></trkpt><trkpt lat="44.4644343" lon="11.2000697"><ele>102.99999999999999</ele><time>2026-04-04T09:15:14.365Z</time></trkpt><trkpt lat="44.4644438" lon="11.1999699"><ele>103.0</ele><time>2026-04-04T09:15:15.371Z</time></trkpt><trkpt lat="44.4644704" lon="11.1998765"><ele>102.99999999999999</ele><time>2026-04-04T09:15:16.368Z</time></trkpt><trkpt lat="44.4644979" lon="11.1997833"><ele>103.0</ele><time>2026-04-04T09:15:17.381Z</time></trkpt><trkpt lat="44.4645227" lon="11.1996864"><ele>103.0</ele><time>2026-04-04T09:15:18.368Z</time></trkpt><trkpt lat="44.4645481" lon="11.199587"><ele>103.0</ele><time>2026-04-04T09:15:19.378Z</time></trkpt><trkpt lat="44.4645746" lon="11.1994881"><ele>103.0</ele><time>2026-04-04T09:15:20.368Z</time></trkpt><trkpt lat="44.4646037" lon="11.1993898"><ele>102.99999999999999</ele><time>2026-04-04T09:15:21.366Z</time></trkpt><trkpt lat="44.4646363" lon="11.1992931"><ele>103.0</ele><time>2026-04-04T09:15:22.374Z</time></trkpt><trkpt lat="44.4646669" lon="11.1991955"><ele>103.33333333333334</ele><time>2026-04-04T09:15:23.369Z</time></trkpt><trkpt lat="44.4646854" lon="11.1990929"><ele>103.66666666666667</ele><time>2026-04-04T09:15:24.365Z</time></trkpt><trkpt lat="44.4646776" lon="11.1989866"><ele>104.0</ele><time>2026-04-04T09:15:25.374Z</time></trkpt><trkpt lat="44.4646447" lon="11.1988933"><ele>104.33333333333334</ele><time>2026-04-04T09:15:26.369Z</time></trkpt><trkpt lat="44.4645956" lon="11.1988157"><ele>104.66666666666667</ele><time>2026-04-04T09:15:27.367Z</time></trkpt><trkpt lat="44.464532" lon="11.1987603"><ele>105.0</ele><time>2026-04-04T09:15:28.364Z</time></trkpt><trkpt lat="44.4644628" lon="11.1987164"><ele>105.83333333333333</ele><time>2026-04-04T09:15:29.363Z</time></trkpt><trkpt lat="44.4643915" lon="11.1986704"><ele>106.66666666666666</ele><time>2026-04-04T09:15:30.369Z</time></trkpt><trkpt lat="44.4643255" lon="11.1986138"><ele>107.5</ele><time>2026-04-04T09:15:31.369Z</time></trkpt><trkpt lat="44.4642572" lon="11.1985574"><ele>108.33333333333333</ele><time>2026-04-04T09:15:32.366Z</time></trkpt><trkpt lat="44.4641902" lon="11.1985025"><ele>109.16666666666666</ele><time>2026-04-04T09:15:33.363Z</time></trkpt><trkpt lat="44.4641169" lon="11.1984563"><ele>110.0</ele><time>2026-04-04T09:15:34.376Z</time></trkpt><trkpt lat="44.4640398" lon="11.1984207"><ele>109.99999999999999</ele><time>2026-04-04T09:15:35.369Z</time></trkpt><trkpt lat="44.4639632" lon="11.1983842"><ele>110.0</ele><time>2026-04-04T09:15:36.364Z</time></trkpt><trkpt lat="44.4638836" lon="11.1983505"><ele>110.0</ele><time>2026-04-04T09:15:37.374Z</time></trkpt><trkpt lat="44.4638024" lon="11.1983164"><ele>110.0</ele><time>2026-04-04T09:15:38.372Z</time></trkpt><trkpt lat="44.4637182" lon="11.1982945"><ele>109.99999999999999</ele><time>2026-04-04T09:15:39.377Z</time></trkpt><trkpt lat="44.4636367" lon="11.1982719"><ele>110.0</ele><time>2026-04-04T09:15:40.377Z</time></trkpt><trkpt lat="44.4635579" lon="11.1982564"><ele>109.83333333333333</ele><time>2026-04-04T09:15:41.371Z</time></trkpt><trkpt lat="44.4634778" lon="11.1982413"><ele>109.66666666666666</ele><time>2026-04-04T09:15:42.363Z</time></trkpt><trkpt lat="44.4634002" lon="11.1982337"><ele>109.5</ele><time>2026-04-04T09:15:43.37Z</time></trkpt><trkpt lat="44.4633189" lon="11.1982315"><ele>109.33333333333334</ele><time>2026-04-04T09:15:44.372Z</time></trkpt><trkpt lat="44.4632413" lon="11.1982299"><ele>109.16666666666667</ele><time>2026-04-04T09:15:45.361Z</time></trkpt><trkpt lat="44.463164" lon="11.1982339"><ele>109.0</ele><time>2026-04-04T09:15:46.359Z</time></trkpt><trkpt lat="44.4630849" lon="11.1982382"><ele>109.00000000000001</ele><time>2026-04-04T09:15:47.371Z</time></trkpt><trkpt lat="44.4630078" lon="11.1982452"><ele>109.0</ele><time>2026-04-04T09:15:48.364Z</time></trkpt><trkpt lat="44.4629285" lon="11.1982538"><ele>109.0</ele><time>2026-04-04T09:15:49.368Z</time></trkpt><trkpt lat="44.4628537" lon="11.1982661"><ele>109.0</ele><time>2026-04-04T09:15:50.366Z</time></trkpt><trkpt lat="44.4627788" lon="11.198281"><ele>109.00000000000001</ele><time>2026-04-04T09:15:51.364Z</time></trkpt><trkpt lat="44.4627055" lon="11.1982992"><ele>109.0</ele><time>2026-04-04T09:15:52.365Z</time></trkpt><trkpt lat="44.462634" lon="11.1983182"><ele>109.14285714285714</ele><time>2026-04-04T09:15:53.38Z</time></trkpt><trkpt lat="44.4625588" lon="11.1983371"><ele>109.28571428571429</ele><time>2026-04-04T09:15:54.365Z</time></trkpt><trkpt lat="44.4624821" lon="11.1983567"><ele>109.42857142857142</ele><time>2026-04-04T09:15:55.371Z</time></trkpt><trkpt lat="44.4624072" lon="11.1983757"><ele>109.57142857142857</ele><time>2026-04-04T09:15:56.369Z</time></trkpt><trkpt lat="44.462333" lon="11.1983945"><ele>109.71428571428571</ele><time>2026-04-04T09:15:57.371Z</time></trkpt><trkpt lat="44.4622636" lon="11.1984166"><ele>109.85714285714285</ele><time>2026-04-04T09:15:58.372Z</time></trkpt><trkpt lat="44.4621961" lon="11.1984361"><ele>110.0</ele><time>2026-04-04T09:15:59.37Z</time></trkpt><trkpt lat="44.4621232" lon="11.1984536"><ele>109.71428571428571</ele><time>2026-04-04T09:16:00.377Z</time></trkpt><trkpt lat="44.4620502" lon="11.1984667"><ele>109.42857142857143</ele><time>2026-04-04T09:16:01.367Z</time></trkpt><trkpt lat="44.461975" lon="11.1984769"><ele>109.14285714285714</ele><time>2026-04-04T09:16:02.365Z</time></trkpt><trkpt lat="44.4619061" lon="11.1984947"><ele>108.85714285714286</ele><time>2026-04-04T09:16:03.359Z</time></trkpt><trkpt lat="44.4618335" lon="11.1985132"><ele>108.57142857142857</ele><time>2026-04-04T09:16:04.373Z</time></trkpt><trkpt lat="44.4617611" lon="11.1985328"><ele>108.28571428571428</ele><time>2026-04-04T09:16:05.385Z</time></trkpt><trkpt lat="44.4616811" lon="11.1985554"><ele>108.0</ele><time>2026-04-04T09:16:06.367Z</time></trkpt><trkpt lat="44.4616079" lon="11.1985741"><ele>108.0</ele><time>2026-04-04T09:16:07.36Z</time></trkpt><trkpt lat="44.4615344" lon="11.1985925"><ele>108.0</ele><time>2026-04-04T09:16:08.366Z</time></trkpt><trkpt lat="44.4614614" lon="11.1986114"><ele>108.0</ele><time>2026-04-04T09:16:09.367Z</time></trkpt><trkpt lat="44.4613874" lon="11.198629"><ele>108.0</ele><time>2026-04-04T09:16:10.357Z</time></trkpt><trkpt lat="44.4613137" lon="11.198651"><ele>108.0</ele><time>2026-04-04T09:16:11.374Z</time></trkpt><trkpt lat="44.4612429" lon="11.1986753"><ele>108.0</ele><time>2026-04-04T09:16:12.362Z</time></trkpt><trkpt lat="44.4611727" lon="11.1987045"><ele>108.0</ele><time>2026-04-04T09:16:13.367Z</time></trkpt><trkpt lat="44.4611069" lon="11.1987342"><ele>108.14285714285714</ele><time>2026-04-04T09:16:14.362Z</time></trkpt><trkpt lat="44.46104" lon="11.1987712"><ele>108.28571428571428</ele><time>2026-04-04T09:16:15.364Z</time></trkpt><trkpt lat="44.4609779" lon="11.1988137"><ele>108.42857142857143</ele><time>2026-04-04T09:16:16.372Z</time></trkpt><trkpt lat="44.460917" lon="11.1988622"><ele>108.57142857142857</ele><time>2026-04-04T09:16:17.373Z</time></trkpt><trkpt lat="44.4608562" lon="11.1989089"><ele>108.71428571428572</ele><time>2026-04-04T09:16:18.368Z</time></trkpt><trkpt lat="44.4607946" lon="11.1989592"><ele>108.85714285714286</ele><time>2026-04-04T09:16:19.369Z</time></trkpt><trkpt lat="44.4607333" lon="11.1990138"><ele>109.0</ele><time>2026-04-04T09:16:20.38Z</time></trkpt><trkpt lat="44.4606688" lon="11.1990666"><ele>109.0</ele><time>2026-04-04T09:16:21.38Z</time></trkpt><trkpt lat="44.4606052" lon="11.1991203"><ele>109.0</ele><time>2026-04-04T09:16:22.381Z</time></trkpt><trkpt lat="44.4605418" lon="11.1991744"><ele>109.0</ele><time>2026-04-04T09:16:23.372Z</time></trkpt><trkpt lat="44.4604805" lon="11.1992256"><ele>109.0</ele><time>2026-04-04T09:16:24.365Z</time></trkpt><trkpt lat="44.4604191" lon="11.1992757"><ele>109.0</ele><time>2026-04-04T09:16:25.37Z</time></trkpt><trkpt lat="44.4603525" lon="11.1993197"><ele>109.0</ele><time>2026-04-04T09:16:26.36Z</time></trkpt><trkpt lat="44.4602868" lon="11.199364"><ele>109.0</ele><time>2026-04-04T09:16:27.373Z</time></trkpt><trkpt lat="44.4602186" lon="11.1994073"><ele>108.71428571428572</ele><time>2026-04-04T09:16:28.369Z</time></trkpt><trkpt lat="44.4601515" lon="11.1994492"><ele>108.42857142857143</ele><time>2026-04-04T09:16:29.37Z</time></trkpt><trkpt lat="44.4600826" lon="11.1994859"><ele>108.14285714285714</ele><time>2026-04-04T09:16:30.37Z</time></trkpt><trkpt lat="44.4600131" lon="11.1995185"><ele>107.85714285714286</ele><time>2026-04-04T09:16:31.362Z</time></trkpt><trkpt lat="44.4599452" lon="11.1995538"><ele>107.57142857142857</ele><time>2026-04-04T09:16:32.374Z</time></trkpt><trkpt lat="44.4598756" lon="11.1995861"><ele>107.28571428571429</ele><time>2026-04-04T09:16:33.368Z</time></trkpt><trkpt lat="44.4598091" lon="11.1996183"><ele>107.0</ele><time>2026-04-04T09:16:34.371Z</time></trkpt><trkpt lat="44.4597421" lon="11.1996516"><ele>107.00000000000001</ele><time>2026-04-04T09:16:35.373Z</time></trkpt><trkpt lat="44.4596753" lon="11.1996835"><ele>107.0</ele><time>2026-04-04T09:16:36.36Z</time></trkpt><trkpt lat="44.4596105" lon="11.1997151"><ele>107.0</ele><time>2026-04-04T09:16:37.366Z</time></trkpt><trkpt lat="44.459548" lon="11.1997452"><ele>107.0</ele><time>2026-04-04T09:16:38.374Z</time></trkpt><trkpt lat="44.4594834" lon="11.1997769"><ele>107.0</ele><time>2026-04-04T09:16:39.374Z</time></trkpt><trkpt lat="44.4594151" lon="11.1998089"><ele>107.00000000000001</ele><time>2026-04-04T09:16:40.382Z</time></trkpt><trkpt lat="44.4593495" lon="11.1998411"><ele>107.0</ele><time>2026-04-04T09:16:41.359Z</time></trkpt><trkpt lat="44.4592835" lon="11.1998722"><ele>107.57142857142858</ele><time>2026-04-04T09:16:42.368Z</time></trkpt><trkpt lat="44.4592178" lon="11.199902"><ele>108.14285714285714</ele><time>2026-04-04T09:16:43.376Z</time></trkpt><trkpt lat="44.4591527" lon="11.1999316"><ele>108.71428571428572</ele><time>2026-04-04T09:16:44.366Z</time></trkpt><trkpt lat="44.4590765" lon="11.1999517"><ele>109.28571428571429</ele><time>2026-04-04T09:16:45.36Z</time></trkpt><trkpt lat="44.4590048" lon="11.1999671"><ele>109.85714285714286</ele><time>2026-04-04T09:16:46.364Z</time></trkpt><trkpt lat="44.4589328" lon="11.1999724"><ele>110.42857142857143</ele><time>2026-04-04T09:16:47.357Z</time></trkpt><trkpt lat="44.4588602" lon="11.199981"><ele>111.0</ele><time>2026-04-04T09:16:48.37Z</time></trkpt><trkpt lat="44.4587914" lon="11.1999833"><ele>110.85714285714285</ele><time>2026-04-04T09:16:49.376Z</time></trkpt><trkpt lat="44.4587211" lon="11.1999784"><ele>110.71428571428572</ele><time>2026-04-04T09:16:50.375Z</time></trkpt><trkpt lat="44.4586549" lon="11.1999728"><ele>110.57142857142857</ele><time>2026-04-04T09:16:51.371Z</time></trkpt><trkpt lat="44.4585866" lon="11.1999675"><ele>110.42857142857142</ele><time>2026-04-04T09:16:52.37Z</time></trkpt><trkpt lat="44.4585183" lon="11.199962"><ele>110.28571428571428</ele><time>2026-04-04T09:16:53.364Z</time></trkpt><trkpt lat="44.4584524" lon="11.1999563"><ele>110.14285714285714</ele><time>2026-04-04T09:16:54.364Z</time></trkpt><trkpt lat="44.4583883" lon="11.1999536"><ele>110.0</ele><time>2026-04-04T09:16:55.357Z</time></trkpt><trkpt lat="44.4583209" lon="11.1999543"><ele>109.99999999999999</ele><time>2026-04-04T09:16:56.377Z</time></trkpt><trkpt lat="44.4582472" lon="11.1999456"><ele>110.0</ele><time>2026-04-04T09:16:57.36Z</time></trkpt><trkpt lat="44.4581776" lon="11.1999385"><ele>110.0</ele><time>2026-04-04T09:16:58.37Z</time></trkpt><trkpt lat="44.458109" lon="11.1999328"><ele>110.0</ele><time>2026-04-04T09:16:59.37Z</time></trkpt><trkpt lat="44.4580418" lon="11.199928"><ele>110.0</ele><time>2026-04-04T09:17:00.372Z</time></trkpt><trkpt lat="44.4579729" lon="11.1999263"><ele>109.99999999999999</ele><time>2026-04-04T09:17:01.374Z</time></trkpt><trkpt lat="44.457906" lon="11.1999233"><ele>110.0</ele><time>2026-04-04T09:17:02.376Z</time></trkpt><trkpt lat="44.4578376" lon="11.1999191"><ele>109.99999999999999</ele><time>2026-04-04T09:17:03.367Z</time></trkpt><trkpt lat="44.4577678" lon="11.1999151"><ele>110.0</ele><time>2026-04-04T09:17:04.356Z</time></trkpt><trkpt lat="44.4576972" lon="11.1999071"><ele>110.0</ele><time>2026-04-04T09:17:05.371Z</time></trkpt><trkpt lat="44.457627" lon="11.199902"><ele>110.0</ele><time>2026-04-04T09:17:06.368Z</time></trkpt><trkpt lat="44.4575593" lon="11.1998952"><ele>110.0</ele><time>2026-04-04T09:17:07.365Z</time></trkpt><trkpt lat="44.4574912" lon="11.199884"><ele>109.99999999999999</ele><time>2026-04-04T09:17:08.363Z</time></trkpt><trkpt lat="44.4574227" lon="11.199854"><ele>110.0</ele><time>2026-04-04T09:17:09.365Z</time></trkpt><trkpt lat="44.4573516" lon="11.1998151"><ele>110.42857142857142</ele><time>2026-04-04T09:17:10.375Z</time></trkpt><trkpt lat="44.4572897" lon="11.1997704"><ele>110.85714285714286</ele><time>2026-04-04T09:17:11.358Z</time></trkpt><trkpt lat="44.4572265" lon="11.199719"><ele>111.28571428571428</ele><time>2026-04-04T09:17:12.362Z</time></trkpt><trkpt lat="44.4571674" lon="11.1996633"><ele>111.71428571428571</ele><time>2026-04-04T09:17:13.367Z</time></trkpt><trkpt lat="44.4571089" lon="11.1996129"><ele>112.14285714285714</ele><time>2026-04-04T09:17:14.372Z</time></trkpt><trkpt lat="44.4570572" lon="11.199558"><ele>112.57142857142857</ele><time>2026-04-04T09:17:15.369Z</time></trkpt><trkpt lat="44.4569986" lon="11.1994964"><ele>113.0</ele><time>2026-04-04T09:17:16.367Z</time></trkpt><trkpt lat="44.4569432" lon="11.1994349"><ele>113.0</ele><time>2026-04-04T09:17:17.371Z</time></trkpt><trkpt lat="44.4568878" lon="11.1993771"><ele>113.0</ele><time>2026-04-04T09:17:18.373Z</time></trkpt><trkpt lat="44.4568344" lon="11.1993215"><ele>113.0</ele><time>2026-04-04T09:17:19.361Z</time></trkpt><trkpt lat="44.4567817" lon="11.1992684"><ele>113.0</ele><time>2026-04-04T09:17:20.374Z</time></trkpt><trkpt lat="44.456728" lon="11.1992177"><ele>113.0</ele><time>2026-04-04T09:17:21.371Z</time></trkpt><trkpt lat="44.4566705" lon="11.199169"><ele>113.0</ele><time>2026-04-04T09:17:22.368Z</time></trkpt><trkpt lat="44.4566065" lon="11.1991007"><ele>113.0</ele><time>2026-04-04T09:17:23.364Z</time></trkpt><trkpt lat="44.4565514" lon="11.1990427"><ele>113.14285714285714</ele><time>2026-04-04T09:17:24.381Z</time></trkpt><trkpt lat="44.456494" lon="11.1989865"><ele>113.28571428571428</ele><time>2026-04-04T09:17:25.363Z</time></trkpt><trkpt lat="44.4564372" lon="11.1989256"><ele>113.42857142857142</ele><time>2026-04-04T09:17:26.364Z</time></trkpt><trkpt lat="44.4563789" lon="11.1988632"><ele>113.57142857142857</ele><time>2026-04-04T09:17:27.376Z</time></trkpt><trkpt lat="44.4563217" lon="11.1988047"><ele>113.7142857142857</ele><time>2026-04-04T09:17:28.371Z</time></trkpt><trkpt lat="44.4562646" lon="11.1987471"><ele>113.85714285714285</ele><time>2026-04-04T09:17:29.365Z</time></trkpt><trkpt lat="44.4562076" lon="11.1986895"><ele>114.0</ele><time>2026-04-04T09:17:30.376Z</time></trkpt><trkpt lat="44.4561535" lon="11.1986344"><ele>114.0</ele><time>2026-04-04T09:17:31.38Z</time></trkpt><trkpt lat="44.4560993" lon="11.1985791"><ele>113.99999999999999</ele><time>2026-04-04T09:17:32.371Z</time></trkpt><trkpt lat="44.4560438" lon="11.1985243"><ele>114.0</ele><time>2026-04-04T09:17:33.368Z</time></trkpt><trkpt lat="44.4559898" lon="11.1984738"><ele>114.0</ele><time>2026-04-04T09:17:34.361Z</time></trkpt><trkpt lat="44.4559357" lon="11.1984173"><ele>113.99999999999999</ele><time>2026-04-04T09:17:35.367Z</time></trkpt><trkpt lat="44.4558794" lon="11.1983519"><ele>114.0</ele><time>2026-04-04T09:17:36.366Z</time></trkpt><trkpt lat="44.4558244" lon="11.1982944"><ele>114.0</ele><time>2026-04-04T09:17:37.374Z</time></trkpt><trkpt lat="44.4557684" lon="11.1982381"><ele>114.0</ele><time>2026-04-04T09:17:38.362Z</time></trkpt><trkpt lat="44.4557141" lon="11.1981802"><ele>113.99999999999999</ele><time>2026-04-04T09:17:39.368Z</time></trkpt><trkpt lat="44.4556608" lon="11.1981257"><ele>114.0</ele><time>2026-04-04T09:17:40.372Z</time></trkpt><trkpt lat="44.4556077" lon="11.1980694"><ele>114.0</ele><time>2026-04-04T09:17:41.376Z</time></trkpt><trkpt lat="44.4555554" lon="11.1980157"><ele>113.99999999999999</ele><time>2026-04-04T09:17:42.374Z</time></trkpt><trkpt lat="44.4555031" lon="11.1979579"><ele>114.0</ele><time>2026-04-04T09:17:43.375Z</time></trkpt><trkpt lat="44.4554513" lon="11.1979018"><ele>114.0</ele><time>2026-04-04T09:17:44.374Z</time></trkpt><trkpt lat="44.4553989" lon="11.1978465"><ele>114.28571428571428</ele><time>2026-04-04T09:17:45.363Z</time></trkpt><trkpt lat="44.4553457" lon="11.1977915"><ele>114.57142857142856</ele><time>2026-04-04T09:17:46.366Z</time></trkpt><trkpt lat="44.4552939" lon="11.197733"><ele>114.85714285714286</ele><time>2026-04-04T09:17:47.367Z</time></trkpt><trkpt lat="44.4552421" lon="11.1976776"><ele>115.14285714285714</ele><time>2026-04-04T09:17:48.371Z</time></trkpt><trkpt lat="44.4551889" lon="11.197623"><ele>115.42857142857143</ele><time>2026-04-04T09:17:49.362Z</time></trkpt><trkpt lat="44.4551353" lon="11.1975697"><ele>115.71428571428572</ele><time>2026-04-04T09:17:50.368Z</time></trkpt><trkpt lat="44.4550833" lon="11.197514"><ele>116.00000000000001</ele><time>2026-04-04T09:17:51.368Z</time></trkpt><trkpt lat="44.4550304" lon="11.1974605"><ele>116.00000000000001</ele><time>2026-04-04T09:17:52.374Z</time></trkpt><trkpt lat="44.4549778" lon="11.1974069"><ele>116.0</ele><time>2026-04-04T09:17:53.37Z</time></trkpt><trkpt lat="44.4549256" lon="11.1973541"><ele>116.00000000000001</ele><time>2026-04-04T09:17:54.367Z</time></trkpt><trkpt lat="44.4548741" lon="11.1972995"><ele>116.00000000000001</ele><time>2026-04-04T09:17:55.365Z</time></trkpt><trkpt lat="44.454822" lon="11.1972465"><ele>116.0</ele><time>2026-04-04T09:17:56.372Z</time></trkpt><trkpt lat="44.4547696" lon="11.1971909"><ele>116.00000000000001</ele><time>2026-04-04T09:17:57.38Z</time></trkpt><trkpt lat="44.4547184" lon="11.1971369"><ele>116.00000000000001</ele><time>2026-04-04T09:17:58.361Z</time></trkpt><trkpt lat="44.4546631" lon="11.1970837"><ele>116.33333333333333</ele><time>2026-04-04T09:17:59.368Z</time></trkpt><trkpt lat="44.4546063" lon="11.1970262"><ele>116.66666666666666</ele><time>2026-04-04T09:18:00.359Z</time></trkpt><trkpt lat="44.4545536" lon="11.1969727"><ele>117.0</ele><time>2026-04-04T09:18:01.362Z</time></trkpt><trkpt lat="44.4545025" lon="11.1969201"><ele>117.33333333333334</ele><time>2026-04-04T09:18:02.37Z</time></trkpt><trkpt lat="44.4544008" lon="11.1968227"><ele>117.66666666666667</ele><time>2026-04-04T09:18:04.361Z</time></trkpt><trkpt lat="44.4543084" lon="11.1967143"><ele>118.0</ele><time>2026-04-04T09:18:06.373Z</time></trkpt><trkpt lat="44.4542202" lon="11.1965889"><ele>118.0</ele><time>2026-04-04T09:18:08.378Z</time></trkpt><trkpt lat="44.4541716" lon="11.1965273"><ele>118.0</ele><time>2026-04-04T09:18:09.371Z</time></trkpt><trkpt lat="44.4541232" lon="11.196469"><ele>118.0</ele><time>2026-04-04T09:18:10.373Z</time></trkpt><trkpt lat="44.4540733" lon="11.1964133"><ele>118.0</ele><time>2026-04-04T09:18:11.359Z</time></trkpt><trkpt lat="44.4540234" lon="11.1963582"><ele>118.0</ele><time>2026-04-04T09:18:12.372Z</time></trkpt><trkpt lat="44.4539241" lon="11.1962498"><ele>118.0</ele><time>2026-04-04T09:18:14.37Z</time></trkpt><trkpt lat="44.4538714" lon="11.1961997"><ele>118.0</ele><time>2026-04-04T09:18:15.366Z</time></trkpt><trkpt lat="44.4537693" lon="11.1961008"><ele>119.0</ele><time>2026-04-04T09:18:17.37Z</time></trkpt><trkpt lat="44.4536666" lon="11.1960115"><ele>120.0</ele><time>2026-04-04T09:18:19.369Z</time></trkpt><trkpt lat="44.4535643" lon="11.1959284"><ele>121.0</ele><time>2026-04-04T09:18:21.364Z</time></trkpt><trkpt lat="44.4534616" lon="11.1958483"><ele>122.0</ele><time>2026-04-04T09:18:23.376Z</time></trkpt><trkpt lat="44.4533565" lon="11.1957692"><ele>122.0</ele><time>2026-04-04T09:18:25.362Z</time></trkpt><trkpt lat="44.4532556" lon="11.1956954"><ele>122.0</ele><time>2026-04-04T09:18:27.355Z</time></trkpt><trkpt lat="44.4531498" lon="11.1956259"><ele>122.0</ele><time>2026-04-04T09:18:29.368Z</time></trkpt><trkpt lat="44.4530389" lon="11.1955542"><ele>122.0</ele><time>2026-04-04T09:18:31.368Z</time></trkpt><trkpt lat="44.4529249" lon="11.1954825"><ele>122.57142857142856</ele><time>2026-04-04T09:18:33.369Z</time></trkpt><trkpt lat="44.4528681" lon="11.195439"><ele>123.14285714285714</ele><time>2026-04-04T09:18:34.369Z</time></trkpt><trkpt lat="44.4528103" lon="11.1954027"><ele>123.71428571428571</ele><time>2026-04-04T09:18:35.361Z</time></trkpt><trkpt lat="44.4527525" lon="11.1953647"><ele>124.28571428571428</ele><time>2026-04-04T09:18:36.368Z</time></trkpt><trkpt lat="44.4526908" lon="11.1953268"><ele>124.85714285714286</ele><time>2026-04-04T09:18:37.366Z</time></trkpt><trkpt lat="44.4526283" lon="11.1952878"><ele>125.42857142857143</ele><time>2026-04-04T09:18:38.37Z</time></trkpt><trkpt lat="44.4525695" lon="11.1952534"><ele>126.0</ele><time>2026-04-04T09:18:39.375Z</time></trkpt><trkpt lat="44.4525059" lon="11.1952146"><ele>126.0</ele><time>2026-04-04T09:18:40.368Z</time></trkpt><trkpt lat="44.4524427" lon="11.1951756"><ele>126.0</ele><time>2026-04-04T09:18:41.37Z</time></trkpt><trkpt lat="44.4523775" lon="11.1951358"><ele>126.0</ele><time>2026-04-04T09:18:42.366Z</time></trkpt><trkpt lat="44.4523152" lon="11.1950963"><ele>126.0</ele><time>2026-04-04T09:18:43.365Z</time></trkpt><trkpt lat="44.4522514" lon="11.1950589"><ele>126.0</ele><time>2026-04-04T09:18:44.371Z</time></trkpt><trkpt lat="44.4521862" lon="11.1950192"><ele>126.0</ele><time>2026-04-04T09:18:45.37Z</time></trkpt><trkpt lat="44.4521207" lon="11.194978"><ele>126.0</ele><time>2026-04-04T09:18:46.372Z</time></trkpt><trkpt lat="44.4520547" lon="11.194938"><ele>126.42857142857143</ele><time>2026-04-04T09:18:47.371Z</time></trkpt><trkpt lat="44.4519902" lon="11.194903"><ele>126.85714285714286</ele><time>2026-04-04T09:18:48.369Z</time></trkpt><trkpt lat="44.451925" lon="11.1948647"><ele>127.28571428571428</ele><time>2026-04-04T09:18:49.36Z</time></trkpt><trkpt lat="44.4518608" lon="11.1948256"><ele>127.71428571428571</ele><time>2026-04-04T09:18:50.375Z</time></trkpt><trkpt lat="44.4517983" lon="11.1947882"><ele>128.14285714285714</ele><time>2026-04-04T09:18:51.367Z</time></trkpt><trkpt lat="44.4517361" lon="11.194748"><ele>128.57142857142856</ele><time>2026-04-04T09:18:52.375Z</time></trkpt><trkpt lat="44.4516728" lon="11.1947088"><ele>129.0</ele><time>2026-04-04T09:18:53.372Z</time></trkpt><trkpt lat="44.4516121" lon="11.1946714"><ele>129.0</ele><time>2026-04-04T09:18:54.375Z</time></trkpt><trkpt lat="44.451551" lon="11.1946304"><ele>129.0</ele><time>2026-04-04T09:18:55.374Z</time></trkpt><trkpt lat="44.4514894" lon="11.1945917"><ele>129.0</ele><time>2026-04-04T09:18:56.373Z</time></trkpt><trkpt lat="44.4513723" lon="11.1945187"><ele>129.0</ele><time>2026-04-04T09:18:58.365Z</time></trkpt><trkpt lat="44.4513135" lon="11.1944762"><ele>129.0</ele><time>2026-04-04T09:18:59.363Z</time></trkpt><trkpt lat="44.4512559" lon="11.1944354"><ele>129.0</ele><time>2026-04-04T09:19:00.37Z</time></trkpt><trkpt lat="44.4511449" lon="11.1943625"><ele>128.25</ele><time>2026-04-04T09:19:02.371Z</time></trkpt><trkpt lat="44.4510369" lon="11.1942905"><ele>127.5</ele><time>2026-04-04T09:19:04.381Z</time></trkpt><trkpt lat="44.4509329" lon="11.1942265"><ele>126.75</ele><time>2026-04-04T09:19:06.371Z</time></trkpt><trkpt lat="44.4508277" lon="11.1941607"><ele>126.0</ele><time>2026-04-04T09:19:08.357Z</time></trkpt><trkpt lat="44.4507211" lon="11.1940949"><ele>126.0</ele><time>2026-04-04T09:19:10.36Z</time></trkpt><trkpt lat="44.4506115" lon="11.1940292"><ele>126.0</ele><time>2026-04-04T09:19:12.37Z</time></trkpt><trkpt lat="44.4504995" lon="11.1939616"><ele>126.0</ele><time>2026-04-04T09:19:14.376Z</time></trkpt><trkpt lat="44.4503914" lon="11.193893"><ele>126.0</ele><time>2026-04-04T09:19:16.363Z</time></trkpt><trkpt lat="44.450335" lon="11.1938534"><ele>126.0</ele><time>2026-04-04T09:19:17.373Z</time></trkpt><trkpt lat="44.4502214" lon="11.1937838"><ele>126.16666666666667</ele><time>2026-04-04T09:19:19.376Z</time></trkpt><trkpt lat="44.4501123" lon="11.1937044"><ele>126.33333333333334</ele><time>2026-04-04T09:19:21.367Z</time></trkpt><trkpt lat="44.4500537" lon="11.1936628"><ele>126.5</ele><time>2026-04-04T09:19:22.361Z</time></trkpt><trkpt lat="44.4499417" lon="11.1935777"><ele>126.66666666666667</ele><time>2026-04-04T09:19:24.356Z</time></trkpt><trkpt lat="44.4498846" lon="11.1935334"><ele>126.83333333333334</ele><time>2026-04-04T09:19:25.367Z</time></trkpt><trkpt lat="44.4498276" lon="11.1934908"><ele>127.0</ele><time>2026-04-04T09:19:26.364Z</time></trkpt><trkpt lat="44.4497697" lon="11.1934462"><ele>127.0</ele><time>2026-04-04T09:19:27.367Z</time></trkpt><trkpt lat="44.449714" lon="11.1934017"><ele>127.0</ele><time>2026-04-04T09:19:28.359Z</time></trkpt><trkpt lat="44.449656" lon="11.1933576"><ele>127.0</ele><time>2026-04-04T09:19:29.366Z</time></trkpt><trkpt lat="44.4495959" lon="11.1933122"><ele>127.0</ele><time>2026-04-04T09:19:30.371Z</time></trkpt><trkpt lat="44.4495393" lon="11.1932657"><ele>127.0</ele><time>2026-04-04T09:19:31.377Z</time></trkpt><trkpt lat="44.4494813" lon="11.1932161"><ele>127.0</ele><time>2026-04-04T09:19:32.368Z</time></trkpt><trkpt lat="44.4494247" lon="11.1931663"><ele>127.0</ele><time>2026-04-04T09:19:33.371Z</time></trkpt><trkpt lat="44.4493679" lon="11.1931169"><ele>127.42857142857143</ele><time>2026-04-04T09:19:34.372Z</time></trkpt><trkpt lat="44.44931" lon="11.1930694"><ele>127.85714285714286</ele><time>2026-04-04T09:19:35.367Z</time></trkpt><trkpt lat="44.4492536" lon="11.1930255"><ele>128.28571428571428</ele><time>2026-04-04T09:19:36.35Z</time></trkpt><trkpt lat="44.4491952" lon="11.1929814"><ele>128.71428571428572</ele><time>2026-04-04T09:19:37.367Z</time></trkpt><trkpt lat="44.4491377" lon="11.1929375"><ele>129.14285714285714</ele><time>2026-04-04T09:19:38.36Z</time></trkpt><trkpt lat="44.4490792" lon="11.1928941"><ele>129.57142857142858</ele><time>2026-04-04T09:19:39.367Z</time></trkpt><trkpt lat="44.4490206" lon="11.1928436"><ele>130.0</ele><time>2026-04-04T09:19:40.374Z</time></trkpt><trkpt lat="44.4489611" lon="11.1927962"><ele>130.00000000000003</ele><time>2026-04-04T09:19:41.376Z</time></trkpt><trkpt lat="44.4489019" lon="11.192753"><ele>130.0</ele><time>2026-04-04T09:19:42.374Z</time></trkpt><trkpt lat="44.4488452" lon="11.1927101"><ele>130.0</ele><time>2026-04-04T09:19:43.372Z</time></trkpt><trkpt lat="44.4487855" lon="11.1926669"><ele>130.0</ele><time>2026-04-04T09:19:44.366Z</time></trkpt><trkpt lat="44.4487254" lon="11.1926223"><ele>130.0</ele><time>2026-04-04T09:19:45.371Z</time></trkpt><trkpt lat="44.4486655" lon="11.1925727"><ele>130.00000000000003</ele><time>2026-04-04T09:19:46.37Z</time></trkpt><trkpt lat="44.4486048" lon="11.1925225"><ele>130.0</ele><time>2026-04-04T09:19:47.366Z</time></trkpt><trkpt lat="44.4485448" lon="11.1924753"><ele>129.57142857142858</ele><time>2026-04-04T09:19:48.368Z</time></trkpt><trkpt lat="44.4484879" lon="11.1924312"><ele>129.14285714285714</ele><time>2026-04-04T09:19:49.371Z</time></trkpt><trkpt lat="44.448431" lon="11.1923847"><ele>128.71428571428572</ele><time>2026-04-04T09:19:50.375Z</time></trkpt><trkpt lat="44.4483723" lon="11.1923396"><ele>128.28571428571428</ele><time>2026-04-04T09:19:51.364Z</time></trkpt><trkpt lat="44.4483107" lon="11.1922929"><ele>127.85714285714286</ele><time>2026-04-04T09:19:52.372Z</time></trkpt><trkpt lat="44.4482472" lon="11.1922451"><ele>127.42857142857143</ele><time>2026-04-04T09:19:53.363Z</time></trkpt><trkpt lat="44.4481907" lon="11.192197"><ele>127.0</ele><time>2026-04-04T09:19:54.368Z</time></trkpt><trkpt lat="44.4481338" lon="11.1921544"><ele>127.0</ele><time>2026-04-04T09:19:55.366Z</time></trkpt><trkpt lat="44.448074" lon="11.1921106"><ele>127.0</ele><time>2026-04-04T09:19:56.359Z</time></trkpt><trkpt lat="44.4480151" lon="11.1920686"><ele>127.0</ele><time>2026-04-04T09:19:57.369Z</time></trkpt><trkpt lat="44.4479579" lon="11.1920243"><ele>127.0</ele><time>2026-04-04T09:19:58.371Z</time></trkpt><trkpt lat="44.4478994" lon="11.1919804"><ele>127.0</ele><time>2026-04-04T09:19:59.364Z</time></trkpt><trkpt lat="44.4478434" lon="11.191934"><ele>127.0</ele><time>2026-04-04T09:20:00.373Z</time></trkpt><trkpt lat="44.4477847" lon="11.1918838"><ele>127.0</ele><time>2026-04-04T09:20:01.361Z</time></trkpt><trkpt lat="44.4477285" lon="11.1918327"><ele>127.0</ele><time>2026-04-04T09:20:02.37Z</time></trkpt><trkpt lat="44.4476727" lon="11.1917791"><ele>127.0</ele><time>2026-04-04T09:20:03.379Z</time></trkpt><trkpt lat="44.4476179" lon="11.1917167"><ele>127.0</ele><time>2026-04-04T09:20:04.365Z</time></trkpt><trkpt lat="44.447563" lon="11.1916532"><ele>127.0</ele><time>2026-04-04T09:20:05.364Z</time></trkpt><trkpt lat="44.4475127" lon="11.1915851"><ele>127.0</ele><time>2026-04-04T09:20:06.364Z</time></trkpt><trkpt lat="44.4474627" lon="11.191515"><ele>127.0</ele><time>2026-04-04T09:20:07.366Z</time></trkpt><trkpt lat="44.4474128" lon="11.1914446"><ele>127.0</ele><time>2026-04-04T09:20:08.359Z</time></trkpt><trkpt lat="44.4473643" lon="11.1913723"><ele>127.0</ele><time>2026-04-04T09:20:09.366Z</time></trkpt><trkpt lat="44.447316" lon="11.1913032"><ele>127.0</ele><time>2026-04-04T09:20:10.371Z</time></trkpt><trkpt lat="44.4472682" lon="11.1912325"><ele>127.0</ele><time>2026-04-04T09:20:11.366Z</time></trkpt><trkpt lat="44.4472203" lon="11.1911598"><ele>127.0</ele><time>2026-04-04T09:20:12.368Z</time></trkpt><trkpt lat="44.4471741" lon="11.1910882"><ele>127.0</ele><time>2026-04-04T09:20:13.356Z</time></trkpt><trkpt lat="44.4471251" lon="11.1910164"><ele>127.0</ele><time>2026-04-04T09:20:14.359Z</time></trkpt><trkpt lat="44.4470773" lon="11.1909447"><ele>127.0</ele><time>2026-04-04T09:20:15.357Z</time></trkpt><trkpt lat="44.4470279" lon="11.1908744"><ele>126.85714285714286</ele><time>2026-04-04T09:20:16.362Z</time></trkpt><trkpt lat="44.4469795" lon="11.1908041"><ele>126.71428571428571</ele><time>2026-04-04T09:20:17.371Z</time></trkpt><trkpt lat="44.4469333" lon="11.1907311"><ele>126.57142857142857</ele><time>2026-04-04T09:20:18.369Z</time></trkpt><trkpt lat="44.4468866" lon="11.1906581"><ele>126.42857142857143</ele><time>2026-04-04T09:20:19.372Z</time></trkpt><trkpt lat="44.4468404" lon="11.1905837"><ele>126.28571428571428</ele><time>2026-04-04T09:20:20.364Z</time></trkpt><trkpt lat="44.4467921" lon="11.1905127"><ele>126.14285714285714</ele><time>2026-04-04T09:20:21.359Z</time></trkpt><trkpt lat="44.4467452" lon="11.1904422"><ele>126.0</ele><time>2026-04-04T09:20:22.367Z</time></trkpt><trkpt lat="44.4466972" lon="11.1903705"><ele>126.0</ele><time>2026-04-04T09:20:23.371Z</time></trkpt><trkpt lat="44.4466506" lon="11.1903"><ele>126.0</ele><time>2026-04-04T09:20:24.377Z</time></trkpt><trkpt lat="44.446603" lon="11.1902296"><ele>126.0</ele><time>2026-04-04T09:20:25.375Z</time></trkpt><trkpt lat="44.4465556" lon="11.1901593"><ele>126.0</ele><time>2026-04-04T09:20:26.358Z</time></trkpt><trkpt lat="44.4465087" lon="11.1900903"><ele>126.0</ele><time>2026-04-04T09:20:27.367Z</time></trkpt><trkpt lat="44.4464617" lon="11.190019"><ele>126.0</ele><time>2026-04-04T09:20:28.363Z</time></trkpt><trkpt lat="44.4464129" lon="11.1899478"><ele>126.0</ele><time>2026-04-04T09:20:29.375Z</time></trkpt><trkpt lat="44.4463652" lon="11.1898771"><ele>126.0</ele><time>2026-04-04T09:20:30.363Z</time></trkpt><trkpt lat="44.4463177" lon="11.1898067"><ele>126.0</ele><time>2026-04-04T09:20:31.373Z</time></trkpt><trkpt lat="44.4462691" lon="11.1897379"><ele>126.0</ele><time>2026-04-04T09:20:32.37Z</time></trkpt><trkpt lat="44.4462205" lon="11.1896679"><ele>126.0</ele><time>2026-04-04T09:20:33.372Z</time></trkpt><trkpt lat="44.4461726" lon="11.1895972"><ele>126.0</ele><time>2026-04-04T09:20:34.367Z</time></trkpt><trkpt lat="44.4461248" lon="11.1895276"><ele>126.0</ele><time>2026-04-04T09:20:35.375Z</time></trkpt><trkpt lat="44.4460769" lon="11.189457"><ele>126.0</ele><time>2026-04-04T09:20:36.37Z</time></trkpt><trkpt lat="44.4460294" lon="11.1893883"><ele>126.0</ele><time>2026-04-04T09:20:37.373Z</time></trkpt><trkpt lat="44.4459827" lon="11.1893171"><ele>126.0</ele><time>2026-04-04T09:20:38.371Z</time></trkpt><trkpt lat="44.445936" lon="11.189247"><ele>126.0</ele><time>2026-04-04T09:20:39.365Z</time></trkpt><trkpt lat="44.4458879" lon="11.1891748"><ele>126.0</ele><time>2026-04-04T09:20:40.368Z</time></trkpt><trkpt lat="44.4458401" lon="11.189103"><ele>126.0</ele><time>2026-04-04T09:20:41.367Z</time></trkpt><trkpt lat="44.445792" lon="11.1890327"><ele>126.0</ele><time>2026-04-04T09:20:42.367Z</time></trkpt><trkpt lat="44.4457434" lon="11.188963"><ele>126.0</ele><time>2026-04-04T09:20:43.361Z</time></trkpt><trkpt lat="44.4456949" lon="11.1888936"><ele>126.14285714285714</ele><time>2026-04-04T09:20:44.369Z</time></trkpt><trkpt lat="44.4456466" lon="11.1888235"><ele>126.28571428571428</ele><time>2026-04-04T09:20:45.366Z</time></trkpt><trkpt lat="44.4456001" lon="11.188753"><ele>126.42857142857143</ele><time>2026-04-04T09:20:46.374Z</time></trkpt><trkpt lat="44.4455522" lon="11.1886819"><ele>126.57142857142857</ele><time>2026-04-04T09:20:47.367Z</time></trkpt><trkpt lat="44.4455037" lon="11.188614"><ele>126.71428571428571</ele><time>2026-04-04T09:20:48.363Z</time></trkpt><trkpt lat="44.445456" lon="11.1885422"><ele>126.85714285714286</ele><time>2026-04-04T09:20:49.365Z</time></trkpt><trkpt lat="44.4454086" lon="11.1884702"><ele>127.0</ele><time>2026-04-04T09:20:50.371Z</time></trkpt><trkpt lat="44.4453609" lon="11.1883975"><ele>127.0</ele><time>2026-04-04T09:20:51.384Z</time></trkpt><trkpt lat="44.4453124" lon="11.1883291"><ele>127.0</ele><time>2026-04-04T09:20:52.377Z</time></trkpt><trkpt lat="44.445264" lon="11.1882592"><ele>127.0</ele><time>2026-04-04T09:20:53.371Z</time></trkpt><trkpt lat="44.4452156" lon="11.1881883"><ele>127.0</ele><time>2026-04-04T09:20:54.368Z</time></trkpt><trkpt lat="44.4451675" lon="11.1881177"><ele>127.0</ele><time>2026-04-04T09:20:55.377Z</time></trkpt><trkpt lat="44.4451195" lon="11.1880452"><ele>127.0</ele><time>2026-04-04T09:20:56.366Z</time></trkpt><trkpt lat="44.4450715" lon="11.1879751"><ele>127.0</ele><time>2026-04-04T09:20:57.366Z</time></trkpt><trkpt lat="44.4450237" lon="11.1879044"><ele>127.0</ele><time>2026-04-04T09:20:58.366Z</time></trkpt><trkpt lat="44.4449745" lon="11.1878324"><ele>127.0</ele><time>2026-04-04T09:20:59.369Z</time></trkpt><trkpt lat="44.4449263" lon="11.1877616"><ele>127.0</ele><time>2026-04-04T09:21:00.37Z</time></trkpt><trkpt lat="44.4448778" lon="11.1876901"><ele>127.0</ele><time>2026-04-04T09:21:01.364Z</time></trkpt><trkpt lat="44.4448293" lon="11.1876193"><ele>127.0</ele><time>2026-04-04T09:21:02.371Z</time></trkpt><trkpt lat="44.4447813" lon="11.1875483"><ele>127.0</ele><time>2026-04-04T09:21:03.367Z</time></trkpt><trkpt lat="44.4447324" lon="11.1874776"><ele>127.0</ele><time>2026-04-04T09:21:04.373Z</time></trkpt><trkpt lat="44.4446831" lon="11.1874063"><ele>127.14285714285714</ele><time>2026-04-04T09:21:05.365Z</time></trkpt><trkpt lat="44.4446337" lon="11.1873343"><ele>127.28571428571428</ele><time>2026-04-04T09:21:06.378Z</time></trkpt><trkpt lat="44.4445838" lon="11.1872635"><ele>127.42857142857142</ele><time>2026-04-04T09:21:07.373Z</time></trkpt><trkpt lat="44.4445343" lon="11.1871916"><ele>127.57142857142857</ele><time>2026-04-04T09:21:08.369Z</time></trkpt><trkpt lat="44.4444852" lon="11.1871193"><ele>127.7142857142857</ele><time>2026-04-04T09:21:09.359Z</time></trkpt><trkpt lat="44.4444365" lon="11.1870472"><ele>127.85714285714285</ele><time>2026-04-04T09:21:10.359Z</time></trkpt><trkpt lat="44.4443883" lon="11.1869762"><ele>128.0</ele><time>2026-04-04T09:21:11.371Z</time></trkpt><trkpt lat="44.4443403" lon="11.1869055"><ele>128.0</ele><time>2026-04-04T09:21:12.363Z</time></trkpt><trkpt lat="44.4442925" lon="11.1868363"><ele>127.99999999999999</ele><time>2026-04-04T09:21:13.373Z</time></trkpt><trkpt lat="44.4442438" lon="11.1867659"><ele>128.0</ele><time>2026-04-04T09:21:14.366Z</time></trkpt><trkpt lat="44.4441941" lon="11.1866934"><ele>128.0</ele><time>2026-04-04T09:21:15.365Z</time></trkpt><trkpt lat="44.4441472" lon="11.1866221"><ele>127.99999999999999</ele><time>2026-04-04T09:21:16.361Z</time></trkpt><trkpt lat="44.4441021" lon="11.1865498"><ele>128.0</ele><time>2026-04-04T09:21:17.367Z</time></trkpt><trkpt lat="44.4440542" lon="11.1864781"><ele>128.0</ele><time>2026-04-04T09:21:18.368Z</time></trkpt><trkpt lat="44.444006" lon="11.1864059"><ele>128.0</ele><time>2026-04-04T09:21:19.376Z</time></trkpt><trkpt lat="44.4439579" lon="11.1863352"><ele>127.99999999999999</ele><time>2026-04-04T09:21:20.364Z</time></trkpt><trkpt lat="44.4439104" lon="11.1862641"><ele>128.0</ele><time>2026-04-04T09:21:21.372Z</time></trkpt><trkpt lat="44.4438648" lon="11.1861919"><ele>128.0</ele><time>2026-04-04T09:21:22.361Z</time></trkpt><trkpt lat="44.4438211" lon="11.1861215"><ele>127.99999999999999</ele><time>2026-04-04T09:21:23.373Z</time></trkpt><trkpt lat="44.4437744" lon="11.1860465"><ele>128.0</ele><time>2026-04-04T09:21:24.365Z</time></trkpt><trkpt lat="44.443729" lon="11.1859732"><ele>128.0</ele><time>2026-04-04T09:21:25.374Z</time></trkpt><trkpt lat="44.443684" lon="11.1858989"><ele>128.0</ele><time>2026-04-04T09:21:26.364Z</time></trkpt><trkpt lat="44.4436397" lon="11.1858259"><ele>127.99999999999999</ele><time>2026-04-04T09:21:27.373Z</time></trkpt><trkpt lat="44.4435967" lon="11.1857515"><ele>128.0</ele><time>2026-04-04T09:21:28.365Z</time></trkpt><trkpt lat="44.4435514" lon="11.1856773"><ele>128.0</ele><time>2026-04-04T09:21:29.375Z</time></trkpt><trkpt lat="44.4435063" lon="11.1856022"><ele>127.99999999999999</ele><time>2026-04-04T09:21:30.363Z</time></trkpt><trkpt lat="44.4434602" lon="11.1855255"><ele>128.0</ele><time>2026-04-04T09:21:31.37Z</time></trkpt><trkpt lat="44.4434146" lon="11.1854481"><ele>128.0</ele><time>2026-04-04T09:21:32.366Z</time></trkpt><trkpt lat="44.4433707" lon="11.1853739"><ele>128.0</ele><time>2026-04-04T09:21:33.369Z</time></trkpt><trkpt lat="44.4433273" lon="11.1852996"><ele>127.99999999999999</ele><time>2026-04-04T09:21:34.378Z</time></trkpt><trkpt lat="44.443283" lon="11.1852267"><ele>128.0</ele><time>2026-04-04T09:21:35.374Z</time></trkpt><trkpt lat="44.443239" lon="11.1851526"><ele>128.0</ele><time>2026-04-04T09:21:36.361Z</time></trkpt><trkpt lat="44.4431955" lon="11.185079"><ele>127.99999999999999</ele><time>2026-04-04T09:21:37.359Z</time></trkpt><trkpt lat="44.4431512" lon="11.1850049"><ele>128.0</ele><time>2026-04-04T09:21:38.371Z</time></trkpt><trkpt lat="44.4431076" lon="11.1849305"><ele>128.0</ele><time>2026-04-04T09:21:39.368Z</time></trkpt><trkpt lat="44.4430643" lon="11.1848564"><ele>128.28571428571428</ele><time>2026-04-04T09:21:40.366Z</time></trkpt><trkpt lat="44.4430205" lon="11.184783"><ele>128.57142857142856</ele><time>2026-04-04T09:21:41.373Z</time></trkpt><trkpt lat="44.4429756" lon="11.1847089"><ele>128.85714285714286</ele><time>2026-04-04T09:21:42.366Z</time></trkpt><trkpt lat="44.4429302" lon="11.1846343"><ele>129.14285714285714</ele><time>2026-04-04T09:21:43.366Z</time></trkpt><trkpt lat="44.442886" lon="11.1845588"><ele>129.42857142857144</ele><time>2026-04-04T09:21:44.366Z</time></trkpt><trkpt lat="44.4428414" lon="11.1844834"><ele>129.71428571428572</ele><time>2026-04-04T09:21:45.368Z</time></trkpt><trkpt lat="44.4427972" lon="11.1844086"><ele>130.0</ele><time>2026-04-04T09:21:46.372Z</time></trkpt><trkpt lat="44.4427526" lon="11.1843333"><ele>130.00000000000003</ele><time>2026-04-04T09:21:47.367Z</time></trkpt><trkpt lat="44.4427066" lon="11.184258"><ele>130.0</ele><time>2026-04-04T09:21:48.376Z</time></trkpt><trkpt lat="44.4426612" lon="11.1841826"><ele>130.0</ele><time>2026-04-04T09:21:49.377Z</time></trkpt><trkpt lat="44.4426168" lon="11.184106"><ele>130.0</ele><time>2026-04-04T09:21:50.369Z</time></trkpt><trkpt lat="44.4425719" lon="11.1840312"><ele>130.0</ele><time>2026-04-04T09:21:51.377Z</time></trkpt><trkpt lat="44.4425272" lon="11.1839551"><ele>130.00000000000003</ele><time>2026-04-04T09:21:52.373Z</time></trkpt><trkpt lat="44.442481" lon="11.1838809"><ele>130.0</ele><time>2026-04-04T09:21:53.373Z</time></trkpt><trkpt lat="44.4424349" lon="11.1838064"><ele>130.14285714285717</ele><time>2026-04-04T09:21:54.369Z</time></trkpt><trkpt lat="44.4423899" lon="11.1837314"><ele>130.28571428571428</ele><time>2026-04-04T09:21:55.373Z</time></trkpt><trkpt lat="44.442345" lon="11.1836565"><ele>130.42857142857144</ele><time>2026-04-04T09:21:56.37Z</time></trkpt><trkpt lat="44.4423003" lon="11.1835821"><ele>130.57142857142858</ele><time>2026-04-04T09:21:57.37Z</time></trkpt><trkpt lat="44.4422552" lon="11.1835091"><ele>130.71428571428572</ele><time>2026-04-04T09:21:58.368Z</time></trkpt><trkpt lat="44.4422105" lon="11.1834362"><ele>130.85714285714286</ele><time>2026-04-04T09:21:59.376Z</time></trkpt><trkpt lat="44.4421661" lon="11.1833631"><ele>131.0</ele><time>2026-04-04T09:22:00.374Z</time></trkpt><trkpt lat="44.4421209" lon="11.1832886"><ele>131.0</ele><time>2026-04-04T09:22:01.367Z</time></trkpt><trkpt lat="44.4420737" lon="11.1832165"><ele>131.0</ele><time>2026-04-04T09:22:02.365Z</time></trkpt><trkpt lat="44.4420266" lon="11.1831449"><ele>131.0</ele><time>2026-04-04T09:22:03.363Z</time></trkpt><trkpt lat="44.4419797" lon="11.1830734"><ele>131.0</ele><time>2026-04-04T09:22:04.369Z</time></trkpt><trkpt lat="44.4419314" lon="11.1830024"><ele>131.0</ele><time>2026-04-04T09:22:05.365Z</time></trkpt><trkpt lat="44.4418852" lon="11.1829315"><ele>131.0</ele><time>2026-04-04T09:22:06.366Z</time></trkpt><trkpt lat="44.4418385" lon="11.1828618"><ele>131.0</ele><time>2026-04-04T09:22:07.373Z</time></trkpt><trkpt lat="44.4417902" lon="11.1827934"><ele>131.71428571428572</ele><time>2026-04-04T09:22:08.373Z</time></trkpt><trkpt lat="44.4417415" lon="11.1827242"><ele>132.42857142857144</ele><time>2026-04-04T09:22:09.374Z</time></trkpt><trkpt lat="44.4416939" lon="11.182655"><ele>133.14285714285714</ele><time>2026-04-04T09:22:10.366Z</time></trkpt><trkpt lat="44.4416461" lon="11.182587"><ele>133.85714285714286</ele><time>2026-04-04T09:22:11.372Z</time></trkpt><trkpt lat="44.4415986" lon="11.1825186"><ele>134.57142857142856</ele><time>2026-04-04T09:22:12.375Z</time></trkpt><trkpt lat="44.4415504" lon="11.1824511"><ele>135.28571428571428</ele><time>2026-04-04T09:22:13.372Z</time></trkpt><trkpt lat="44.4415023" lon="11.182385"><ele>136.0</ele><time>2026-04-04T09:22:14.369Z</time></trkpt><trkpt lat="44.4414544" lon="11.1823177"><ele>135.7142857142857</ele><time>2026-04-04T09:22:15.371Z</time></trkpt><trkpt lat="44.4414063" lon="11.1822509"><ele>135.42857142857142</ele><time>2026-04-04T09:22:16.369Z</time></trkpt><trkpt lat="44.4413588" lon="11.182184"><ele>135.14285714285714</ele><time>2026-04-04T09:22:17.374Z</time></trkpt><trkpt lat="44.4413111" lon="11.1821161"><ele>134.85714285714283</ele><time>2026-04-04T09:22:18.359Z</time></trkpt><trkpt lat="44.4412634" lon="11.1820492"><ele>134.57142857142856</ele><time>2026-04-04T09:22:19.366Z</time></trkpt><trkpt lat="44.4412152" lon="11.1819831"><ele>134.28571428571428</ele><time>2026-04-04T09:22:20.365Z</time></trkpt><trkpt lat="44.4411678" lon="11.1819167"><ele>134.0</ele><time>2026-04-04T09:22:21.372Z</time></trkpt><trkpt lat="44.4411206" lon="11.181851"><ele>134.0</ele><time>2026-04-04T09:22:22.365Z</time></trkpt><trkpt lat="44.4410732" lon="11.1817853"><ele>134.0</ele><time>2026-04-04T09:22:23.372Z</time></trkpt><trkpt lat="44.4410256" lon="11.1817177"><ele>134.0</ele><time>2026-04-04T09:22:24.368Z</time></trkpt><trkpt lat="44.4409784" lon="11.1816517"><ele>134.0</ele><time>2026-04-04T09:22:25.369Z</time></trkpt><trkpt lat="44.4409312" lon="11.1815861"><ele>134.0</ele><time>2026-04-04T09:22:26.37Z</time></trkpt><trkpt lat="44.4408842" lon="11.1815207"><ele>134.0</ele><time>2026-04-04T09:22:27.366Z</time></trkpt><trkpt lat="44.440836" lon="11.1814569"><ele>134.0</ele><time>2026-04-04T09:22:28.37Z</time></trkpt><trkpt lat="44.4407865" lon="11.1813949"><ele>134.28571428571428</ele><time>2026-04-04T09:22:29.363Z</time></trkpt><trkpt lat="44.4407361" lon="11.1813347"><ele>134.57142857142856</ele><time>2026-04-04T09:22:30.369Z</time></trkpt><trkpt lat="44.4406853" lon="11.1812747"><ele>134.85714285714283</ele><time>2026-04-04T09:22:31.368Z</time></trkpt><trkpt lat="44.4406337" lon="11.1812169"><ele>135.14285714285714</ele><time>2026-04-04T09:22:32.371Z</time></trkpt><trkpt lat="44.4405783" lon="11.1811665"><ele>135.42857142857142</ele><time>2026-04-04T09:22:33.372Z</time></trkpt><trkpt lat="44.4405202" lon="11.1811244"><ele>135.7142857142857</ele><time>2026-04-04T09:22:34.372Z</time></trkpt><trkpt lat="44.4404606" lon="11.1810867"><ele>136.0</ele><time>2026-04-04T09:22:35.373Z</time></trkpt><trkpt lat="44.4404008" lon="11.1810495"><ele>135.99999999999997</ele><time>2026-04-04T09:22:36.368Z</time></trkpt><trkpt lat="44.4403396" lon="11.1810201"><ele>136.0</ele><time>2026-04-04T09:22:37.373Z</time></trkpt><trkpt lat="44.4402771" lon="11.1809916"><ele>136.0</ele><time>2026-04-04T09:22:38.367Z</time></trkpt><trkpt lat="44.4402133" lon="11.1809628"><ele>136.0</ele><time>2026-04-04T09:22:39.366Z</time></trkpt><trkpt lat="44.4401466" lon="11.1809396"><ele>136.0</ele><time>2026-04-04T09:22:40.371Z</time></trkpt><trkpt lat="44.4400807" lon="11.1809171"><ele>135.99999999999997</ele><time>2026-04-04T09:22:41.373Z</time></trkpt><trkpt lat="44.4400147" lon="11.180896"><ele>136.0</ele><time>2026-04-04T09:22:42.369Z</time></trkpt><trkpt lat="44.4399484" lon="11.1808777"><ele>135.99999999999997</ele><time>2026-04-04T09:22:43.376Z</time></trkpt><trkpt lat="44.439883" lon="11.1808583"><ele>136.0</ele><time>2026-04-04T09:22:44.379Z</time></trkpt><trkpt lat="44.4398181" lon="11.180839"><ele>136.0</ele><time>2026-04-04T09:22:45.37Z</time></trkpt><trkpt lat="44.4397528" lon="11.180821"><ele>136.0</ele><time>2026-04-04T09:22:46.382Z</time></trkpt><trkpt lat="44.4396857" lon="11.1808029"><ele>136.0</ele><time>2026-04-04T09:22:47.368Z</time></trkpt><trkpt lat="44.4396166" lon="11.180786"><ele>135.99999999999997</ele><time>2026-04-04T09:22:48.372Z</time></trkpt><trkpt lat="44.4395475" lon="11.1807691"><ele>136.0</ele><time>2026-04-04T09:22:49.386Z</time></trkpt><trkpt lat="44.4394801" lon="11.180752"><ele>135.7142857142857</ele><time>2026-04-04T09:22:50.375Z</time></trkpt><trkpt lat="44.4394124" lon="11.1807339"><ele>135.42857142857142</ele><time>2026-04-04T09:22:51.389Z</time></trkpt><trkpt lat="44.4393442" lon="11.1807171"><ele>135.14285714285714</ele><time>2026-04-04T09:22:52.386Z</time></trkpt><trkpt lat="44.4392759" lon="11.1807021"><ele>134.85714285714283</ele><time>2026-04-04T09:22:53.386Z</time></trkpt><trkpt lat="44.4392074" lon="11.1806867"><ele>134.57142857142856</ele><time>2026-04-04T09:22:54.369Z</time></trkpt><trkpt lat="44.4391384" lon="11.1806702"><ele>134.28571428571428</ele><time>2026-04-04T09:22:55.373Z</time></trkpt><trkpt lat="44.4390692" lon="11.1806545"><ele>134.0</ele><time>2026-04-04T09:22:56.367Z</time></trkpt><trkpt lat="44.4390006" lon="11.1806394"><ele>135.14285714285714</ele><time>2026-04-04T09:22:57.366Z</time></trkpt><trkpt lat="44.4389306" lon="11.1806246"><ele>136.28571428571428</ele><time>2026-04-04T09:22:58.365Z</time></trkpt><trkpt lat="44.4388617" lon="11.1806097"><ele>137.42857142857142</ele><time>2026-04-04T09:22:59.371Z</time></trkpt><trkpt lat="44.4387952" lon="11.1805976"><ele>138.57142857142856</ele><time>2026-04-04T09:23:00.364Z</time></trkpt><trkpt lat="44.4387228" lon="11.18058"><ele>139.7142857142857</ele><time>2026-04-04T09:23:01.371Z</time></trkpt><trkpt lat="44.4386565" lon="11.1805655"><ele>140.85714285714286</ele><time>2026-04-04T09:23:02.369Z</time></trkpt><trkpt lat="44.4385906" lon="11.1805519"><ele>142.0</ele><time>2026-04-04T09:23:03.372Z</time></trkpt><trkpt lat="44.4385243" lon="11.1805392"><ele>142.0</ele><time>2026-04-04T09:23:04.372Z</time></trkpt><trkpt lat="44.43846" lon="11.1805248"><ele>142.0</ele><time>2026-04-04T09:23:05.394Z</time></trkpt><trkpt lat="44.4383979" lon="11.1805092"><ele>142.0</ele><time>2026-04-04T09:23:06.368Z</time></trkpt><trkpt lat="44.4382734" lon="11.1804832"><ele>142.0</ele><time>2026-04-04T09:23:08.381Z</time></trkpt><trkpt lat="44.4382104" lon="11.1804663"><ele>142.0</ele><time>2026-04-04T09:23:09.367Z</time></trkpt><trkpt lat="44.4381472" lon="11.1804499"><ele>142.0</ele><time>2026-04-04T09:23:10.373Z</time></trkpt><trkpt lat="44.4380839" lon="11.1804351"><ele>142.0</ele><time>2026-04-04T09:23:11.38Z</time></trkpt><trkpt lat="44.4380172" lon="11.1804204"><ele>141.83333333333334</ele><time>2026-04-04T09:23:12.367Z</time></trkpt><trkpt lat="44.4379545" lon="11.1804083"><ele>141.66666666666669</ele><time>2026-04-04T09:23:13.377Z</time></trkpt><trkpt lat="44.4378898" lon="11.1803925"><ele>141.5</ele><time>2026-04-04T09:23:14.369Z</time></trkpt><trkpt lat="44.4378216" lon="11.1803772"><ele>141.33333333333334</ele><time>2026-04-04T09:23:15.373Z</time></trkpt><trkpt lat="44.4376983" lon="11.1803474"><ele>141.16666666666666</ele><time>2026-04-04T09:23:17.374Z</time></trkpt><trkpt lat="44.4375765" lon="11.1803142"><ele>141.0</ele><time>2026-04-04T09:23:19.369Z</time></trkpt><trkpt lat="44.4375137" lon="11.1802992"><ele>141.0</ele><time>2026-04-04T09:23:20.369Z</time></trkpt><trkpt lat="44.4374489" lon="11.1802834"><ele>141.0</ele><time>2026-04-04T09:23:21.366Z</time></trkpt><trkpt lat="44.4373864" lon="11.1802679"><ele>141.0</ele><time>2026-04-04T09:23:22.378Z</time></trkpt><trkpt lat="44.4372618" lon="11.1802364"><ele>141.0</ele><time>2026-04-04T09:23:24.363Z</time></trkpt><trkpt lat="44.4371974" lon="11.1802216"><ele>141.0</ele><time>2026-04-04T09:23:25.385Z</time></trkpt><trkpt lat="44.4371347" lon="11.1802062"><ele>141.0</ele><time>2026-04-04T09:23:26.387Z</time></trkpt><trkpt lat="44.4370124" lon="11.1801754"><ele>140.71428571428572</ele><time>2026-04-04T09:23:28.378Z</time></trkpt><trkpt lat="44.4369492" lon="11.1801596"><ele>140.42857142857142</ele><time>2026-04-04T09:23:29.37Z</time></trkpt><trkpt lat="44.4368866" lon="11.1801438"><ele>140.14285714285714</ele><time>2026-04-04T09:23:30.37Z</time></trkpt><trkpt lat="44.436824" lon="11.1801271"><ele>139.85714285714286</ele><time>2026-04-04T09:23:31.374Z</time></trkpt><trkpt lat="44.4367613" lon="11.1801085"><ele>139.57142857142858</ele><time>2026-04-04T09:23:32.375Z</time></trkpt><trkpt lat="44.4366981" lon="11.1800907"><ele>139.28571428571428</ele><time>2026-04-04T09:23:33.376Z</time></trkpt><trkpt lat="44.4365751" lon="11.1800528"><ele>139.0</ele><time>2026-04-04T09:23:35.37Z</time></trkpt><trkpt lat="44.4364593" lon="11.1800049"><ele>139.0</ele><time>2026-04-04T09:23:37.377Z</time></trkpt><trkpt lat="44.4363451" lon="11.1799524"><ele>139.0</ele><time>2026-04-04T09:23:39.364Z</time></trkpt><trkpt lat="44.4362316" lon="11.1798939"><ele>139.0</ele><time>2026-04-04T09:23:41.374Z</time></trkpt><trkpt lat="44.4361236" lon="11.1798346"><ele>139.0</ele><time>2026-04-04T09:23:43.366Z</time></trkpt><trkpt lat="44.4360124" lon="11.17978"><ele>141.25</ele><time>2026-04-04T09:23:45.379Z</time></trkpt><trkpt lat="44.4359024" lon="11.1797197"><ele>143.5</ele><time>2026-04-04T09:23:47.364Z</time></trkpt><trkpt lat="44.4357948" lon="11.1796602"><ele>145.75</ele><time>2026-04-04T09:23:49.37Z</time></trkpt><trkpt lat="44.4356847" lon="11.1795995"><ele>148.0</ele><time>2026-04-04T09:23:51.374Z</time></trkpt><trkpt lat="44.4355747" lon="11.1795427"><ele>147.0</ele><time>2026-04-04T09:23:53.371Z</time></trkpt><trkpt lat="44.4354673" lon="11.1794862"><ele>146.0</ele><time>2026-04-04T09:23:55.376Z</time></trkpt><trkpt lat="44.4353593" lon="11.1794283"><ele>145.0</ele><time>2026-04-04T09:23:57.377Z</time></trkpt><trkpt lat="44.43525" lon="11.1793697"><ele>144.0</ele><time>2026-04-04T09:23:59.356Z</time></trkpt><trkpt lat="44.4351409" lon="11.1793101"><ele>144.0</ele><time>2026-04-04T09:24:01.356Z</time></trkpt><trkpt lat="44.4350293" lon="11.1792514"><ele>144.0</ele><time>2026-04-04T09:24:03.376Z</time></trkpt><trkpt lat="44.4349157" lon="11.1791922"><ele>144.0</ele><time>2026-04-04T09:24:05.371Z</time></trkpt><trkpt lat="44.4348565" lon="11.1791599"><ele>144.0</ele><time>2026-04-04T09:24:06.361Z</time></trkpt><trkpt lat="44.4347406" lon="11.1790976"><ele>144.0</ele><time>2026-04-04T09:24:08.358Z</time></trkpt><trkpt lat="44.434624" lon="11.1790371"><ele>144.66666666666666</ele><time>2026-04-04T09:24:10.365Z</time></trkpt><trkpt lat="44.4345103" lon="11.1789733"><ele>145.33333333333334</ele><time>2026-04-04T09:24:12.374Z</time></trkpt><trkpt lat="44.4343927" lon="11.1789128"><ele>146.0</ele><time>2026-04-04T09:24:14.368Z</time></trkpt><trkpt lat="44.4343317" lon="11.1788802"><ele>146.66666666666669</ele><time>2026-04-04T09:24:15.361Z</time></trkpt><trkpt lat="44.4342686" lon="11.1788458"><ele>147.33333333333334</ele><time>2026-04-04T09:24:16.366Z</time></trkpt><trkpt lat="44.4342088" lon="11.1788119"><ele>148.0</ele><time>2026-04-04T09:24:17.373Z</time></trkpt><trkpt lat="44.4341476" lon="11.17878"><ele>148.0</ele><time>2026-04-04T09:24:18.37Z</time></trkpt><trkpt lat="44.4340842" lon="11.1787467"><ele>148.0</ele><time>2026-04-04T09:24:19.372Z</time></trkpt><trkpt lat="44.4340226" lon="11.1787152"><ele>148.0</ele><time>2026-04-04T09:24:20.367Z</time></trkpt><trkpt lat="44.4339602" lon="11.1786846"><ele>148.0</ele><time>2026-04-04T09:24:21.377Z</time></trkpt><trkpt lat="44.4338948" lon="11.1786494"><ele>148.0</ele><time>2026-04-04T09:24:22.372Z</time></trkpt><trkpt lat="44.433831" lon="11.1786172"><ele>148.0</ele><time>2026-04-04T09:24:23.364Z</time></trkpt><trkpt lat="44.4337662" lon="11.1785831"><ele>148.0</ele><time>2026-04-04T09:24:24.371Z</time></trkpt><trkpt lat="44.4337009" lon="11.1785474"><ele>147.28571428571428</ele><time>2026-04-04T09:24:25.367Z</time></trkpt><trkpt lat="44.4336341" lon="11.1785085"><ele>146.57142857142856</ele><time>2026-04-04T09:24:26.368Z</time></trkpt><trkpt lat="44.4335644" lon="11.178469"><ele>145.85714285714283</ele><time>2026-04-04T09:24:27.366Z</time></trkpt><trkpt lat="44.4334972" lon="11.1784304"><ele>145.14285714285714</ele><time>2026-04-04T09:24:28.364Z</time></trkpt><trkpt lat="44.4334316" lon="11.1783924"><ele>144.42857142857142</ele><time>2026-04-04T09:24:29.368Z</time></trkpt><trkpt lat="44.4333647" lon="11.1783558"><ele>143.7142857142857</ele><time>2026-04-04T09:24:30.368Z</time></trkpt><trkpt lat="44.4332981" lon="11.1783228"><ele>143.0</ele><time>2026-04-04T09:24:31.378Z</time></trkpt><trkpt lat="44.4332324" lon="11.1782863"><ele>142.99999999999997</ele><time>2026-04-04T09:24:32.375Z</time></trkpt><trkpt lat="44.4331657" lon="11.1782484"><ele>143.0</ele><time>2026-04-04T09:24:33.373Z</time></trkpt><trkpt lat="44.4330979" lon="11.1782098"><ele>143.0</ele><time>2026-04-04T09:24:34.365Z</time></trkpt><trkpt lat="44.4330302" lon="11.1781728"><ele>143.0</ele><time>2026-04-04T09:24:35.374Z</time></trkpt><trkpt lat="44.4329622" lon="11.1781352"><ele>143.0</ele><time>2026-04-04T09:24:36.384Z</time></trkpt><trkpt lat="44.4328937" lon="11.1780976"><ele>142.99999999999997</ele><time>2026-04-04T09:24:37.371Z</time></trkpt><trkpt lat="44.4328251" lon="11.1780603"><ele>143.0</ele><time>2026-04-04T09:24:38.371Z</time></trkpt><trkpt lat="44.4327567" lon="11.1780232"><ele>143.42857142857142</ele><time>2026-04-04T09:24:39.378Z</time></trkpt><trkpt lat="44.4326865" lon="11.1779816"><ele>143.85714285714286</ele><time>2026-04-04T09:24:40.366Z</time></trkpt><trkpt lat="44.4326169" lon="11.1779388"><ele>144.28571428571428</ele><time>2026-04-04T09:24:41.361Z</time></trkpt><trkpt lat="44.4325486" lon="11.1778974"><ele>144.71428571428572</ele><time>2026-04-04T09:24:42.367Z</time></trkpt><trkpt lat="44.4324831" lon="11.1778553"><ele>145.14285714285714</ele><time>2026-04-04T09:24:43.363Z</time></trkpt><trkpt lat="44.4324155" lon="11.1778165"><ele>145.57142857142856</ele><time>2026-04-04T09:24:44.364Z</time></trkpt><trkpt lat="44.4323499" lon="11.1777773"><ele>146.0</ele><time>2026-04-04T09:24:45.38Z</time></trkpt><trkpt lat="44.4322847" lon="11.1777392"><ele>146.0</ele><time>2026-04-04T09:24:46.355Z</time></trkpt><trkpt lat="44.4322212" lon="11.1777018"><ele>146.0</ele><time>2026-04-04T09:24:47.355Z</time></trkpt><trkpt lat="44.4321568" lon="11.1776647"><ele>146.0</ele><time>2026-04-04T09:24:48.361Z</time></trkpt><trkpt lat="44.4320942" lon="11.1776289"><ele>146.0</ele><time>2026-04-04T09:24:49.36Z</time></trkpt><trkpt lat="44.4320315" lon="11.1775941"><ele>146.0</ele><time>2026-04-04T09:24:50.371Z</time></trkpt><trkpt lat="44.4319689" lon="11.177557"><ele>146.0</ele><time>2026-04-04T09:24:51.366Z</time></trkpt><trkpt lat="44.4319066" lon="11.1775188"><ele>146.0</ele><time>2026-04-04T09:24:52.369Z</time></trkpt><trkpt lat="44.4318454" lon="11.1774813"><ele>145.85714285714286</ele><time>2026-04-04T09:24:53.367Z</time></trkpt><trkpt lat="44.4317848" lon="11.1774448"><ele>145.71428571428572</ele><time>2026-04-04T09:24:54.358Z</time></trkpt><trkpt lat="44.4317243" lon="11.1774078"><ele>145.57142857142858</ele><time>2026-04-04T09:24:55.38Z</time></trkpt><trkpt lat="44.4316639" lon="11.1773714"><ele>145.42857142857144</ele><time>2026-04-04T09:24:56.363Z</time></trkpt><trkpt lat="44.4316036" lon="11.177335"><ele>145.2857142857143</ele><time>2026-04-04T09:24:57.4Z</time></trkpt><trkpt lat="44.4315426" lon="11.1772984"><ele>145.14285714285714</ele><time>2026-04-04T09:24:58.376Z</time></trkpt><trkpt lat="44.4314819" lon="11.1772605"><ele>145.0</ele><time>2026-04-04T09:24:59.37Z</time></trkpt><trkpt lat="44.4314207" lon="11.1772238"><ele>145.42857142857144</ele><time>2026-04-04T09:25:00.374Z</time></trkpt><trkpt lat="44.4313593" lon="11.1771861"><ele>145.85714285714286</ele><time>2026-04-04T09:25:01.377Z</time></trkpt><trkpt lat="44.4312976" lon="11.1771493"><ele>146.28571428571428</ele><time>2026-04-04T09:25:02.377Z</time></trkpt><trkpt lat="44.431238" lon="11.1771136"><ele>146.71428571428572</ele><time>2026-04-04T09:25:03.372Z</time></trkpt><trkpt lat="44.431176" lon="11.1770756"><ele>147.14285714285714</ele><time>2026-04-04T09:25:04.358Z</time></trkpt><trkpt lat="44.4311132" lon="11.1770377"><ele>147.57142857142858</ele><time>2026-04-04T09:25:05.372Z</time></trkpt><trkpt lat="44.4310525" lon="11.177001"><ele>148.0</ele><time>2026-04-04T09:25:06.364Z</time></trkpt><trkpt lat="44.4309915" lon="11.1769642"><ele>148.0</ele><time>2026-04-04T09:25:07.376Z</time></trkpt><trkpt lat="44.4309299" lon="11.1769275"><ele>148.0</ele><time>2026-04-04T09:25:08.372Z</time></trkpt><trkpt lat="44.4308683" lon="11.1768932"><ele>148.0</ele><time>2026-04-04T09:25:09.366Z</time></trkpt><trkpt lat="44.4308063" lon="11.1768548"><ele>148.0</ele><time>2026-04-04T09:25:10.367Z</time></trkpt><trkpt lat="44.4307442" lon="11.1768182"><ele>148.0</ele><time>2026-04-04T09:25:11.365Z</time></trkpt><trkpt lat="44.4306811" lon="11.1767786"><ele>148.0</ele><time>2026-04-04T09:25:12.37Z</time></trkpt><trkpt lat="44.4306209" lon="11.17674"><ele>148.0</ele><time>2026-04-04T09:25:13.369Z</time></trkpt><trkpt lat="44.4305599" lon="11.176702"><ele>148.0</ele><time>2026-04-04T09:25:14.356Z</time></trkpt><trkpt lat="44.430499" lon="11.1766645"><ele>148.0</ele><time>2026-04-04T09:25:15.373Z</time></trkpt><trkpt lat="44.4304371" lon="11.1766272"><ele>148.0</ele><time>2026-04-04T09:25:16.366Z</time></trkpt><trkpt lat="44.4303756" lon="11.176591"><ele>148.0</ele><time>2026-04-04T09:25:17.366Z</time></trkpt><trkpt lat="44.4303143" lon="11.1765541"><ele>148.0</ele><time>2026-04-04T09:25:18.375Z</time></trkpt><trkpt lat="44.4302542" lon="11.1765206"><ele>148.0</ele><time>2026-04-04T09:25:19.366Z</time></trkpt><trkpt lat="44.4301937" lon="11.1764828"><ele>148.0</ele><time>2026-04-04T09:25:20.372Z</time></trkpt><trkpt lat="44.4301337" lon="11.1764466"><ele>148.85714285714286</ele><time>2026-04-04T09:25:21.374Z</time></trkpt><trkpt lat="44.4300709" lon="11.1764081"><ele>149.71428571428572</ele><time>2026-04-04T09:25:22.371Z</time></trkpt><trkpt lat="44.4300083" lon="11.1763718"><ele>150.57142857142856</ele><time>2026-04-04T09:25:23.377Z</time></trkpt><trkpt lat="44.4299443" lon="11.1763337"><ele>151.42857142857144</ele><time>2026-04-04T09:25:24.362Z</time></trkpt><trkpt lat="44.4298817" lon="11.1762989"><ele>152.28571428571428</ele><time>2026-04-04T09:25:25.371Z</time></trkpt><trkpt lat="44.4298193" lon="11.1762628"><ele>153.14285714285714</ele><time>2026-04-04T09:25:26.375Z</time></trkpt><trkpt lat="44.4297567" lon="11.1762253"><ele>154.0</ele><time>2026-04-04T09:25:27.376Z</time></trkpt><trkpt lat="44.4296946" lon="11.1761868"><ele>153.71428571428572</ele><time>2026-04-04T09:25:28.377Z</time></trkpt><trkpt lat="44.429633" lon="11.1761507"><ele>153.42857142857144</ele><time>2026-04-04T09:25:29.387Z</time></trkpt><trkpt lat="44.4295709" lon="11.1761143"><ele>153.14285714285714</ele><time>2026-04-04T09:25:30.371Z</time></trkpt><trkpt lat="44.4295093" lon="11.1760796"><ele>152.85714285714286</ele><time>2026-04-04T09:25:31.372Z</time></trkpt><trkpt lat="44.4294477" lon="11.176042"><ele>152.57142857142858</ele><time>2026-04-04T09:25:32.358Z</time></trkpt><trkpt lat="44.4293862" lon="11.1760085"><ele>152.28571428571428</ele><time>2026-04-04T09:25:33.369Z</time></trkpt><trkpt lat="44.4293236" lon="11.1759712"><ele>152.0</ele><time>2026-04-04T09:25:34.369Z</time></trkpt><trkpt lat="44.4292618" lon="11.1759352"><ele>152.0</ele><time>2026-04-04T09:25:35.365Z</time></trkpt><trkpt lat="44.4291988" lon="11.1758979"><ele>152.0</ele><time>2026-04-04T09:25:36.379Z</time></trkpt><trkpt lat="44.429136" lon="11.1758613"><ele>152.0</ele><time>2026-04-04T09:25:37.368Z</time></trkpt><trkpt lat="44.4290745" lon="11.1758256"><ele>152.0</ele><time>2026-04-04T09:25:38.367Z</time></trkpt><trkpt lat="44.429012" lon="11.1757842"><ele>152.0</ele><time>2026-04-04T09:25:39.364Z</time></trkpt><trkpt lat="44.4289508" lon="11.1757482"><ele>152.0</ele><time>2026-04-04T09:25:40.38Z</time></trkpt><trkpt lat="44.4288904" lon="11.1757118"><ele>152.0</ele><time>2026-04-04T09:25:41.371Z</time></trkpt><trkpt lat="44.4288304" lon="11.1756739"><ele>153.0</ele><time>2026-04-04T09:25:42.371Z</time></trkpt><trkpt lat="44.42877" lon="11.1756404"><ele>154.0</ele><time>2026-04-04T09:25:43.376Z</time></trkpt><trkpt lat="44.4287086" lon="11.1756073"><ele>155.0</ele><time>2026-04-04T09:25:44.373Z</time></trkpt><trkpt lat="44.4286482" lon="11.1755716"><ele>156.0</ele><time>2026-04-04T09:25:45.369Z</time></trkpt><trkpt lat="44.428588" lon="11.1755349"><ele>157.0</ele><time>2026-04-04T09:25:46.37Z</time></trkpt><trkpt lat="44.4285263" lon="11.1754993"><ele>158.0</ele><time>2026-04-04T09:25:47.36Z</time></trkpt><trkpt lat="44.4284654" lon="11.1754629"><ele>159.0</ele><time>2026-04-04T09:25:48.37Z</time></trkpt><trkpt lat="44.4284043" lon="11.1754256"><ele>159.0</ele><time>2026-04-04T09:25:49.371Z</time></trkpt><trkpt lat="44.4283428" lon="11.1753884"><ele>159.0</ele><time>2026-04-04T09:25:50.376Z</time></trkpt><trkpt lat="44.4282821" lon="11.175353"><ele>159.0</ele><time>2026-04-04T09:25:51.371Z</time></trkpt><trkpt lat="44.4282224" lon="11.1753167"><ele>159.0</ele><time>2026-04-04T09:25:52.364Z</time></trkpt><trkpt lat="44.4281629" lon="11.1752815"><ele>159.0</ele><time>2026-04-04T09:25:53.367Z</time></trkpt><trkpt lat="44.428103" lon="11.1752457"><ele>159.0</ele><time>2026-04-04T09:25:54.372Z</time></trkpt><trkpt lat="44.4280425" lon="11.1752093"><ele>159.0</ele><time>2026-04-04T09:25:55.367Z</time></trkpt><trkpt lat="44.4279825" lon="11.1751735"><ele>158.28571428571428</ele><time>2026-04-04T09:25:56.372Z</time></trkpt><trkpt lat="44.4279227" lon="11.1751368"><ele>157.57142857142858</ele><time>2026-04-04T09:25:57.372Z</time></trkpt><trkpt lat="44.4278622" lon="11.1751007"><ele>156.85714285714286</ele><time>2026-04-04T09:25:58.362Z</time></trkpt><trkpt lat="44.4278018" lon="11.1750634"><ele>156.14285714285714</ele><time>2026-04-04T09:25:59.365Z</time></trkpt><trkpt lat="44.4277408" lon="11.1750259"><ele>155.42857142857144</ele><time>2026-04-04T09:26:00.371Z</time></trkpt><trkpt lat="44.4276803" lon="11.1749882"><ele>154.71428571428572</ele><time>2026-04-04T09:26:01.376Z</time></trkpt><trkpt lat="44.4276191" lon="11.1749505"><ele>154.0</ele><time>2026-04-04T09:26:02.366Z</time></trkpt><trkpt lat="44.4275582" lon="11.1749125"><ele>154.0</ele><time>2026-04-04T09:26:03.37Z</time></trkpt><trkpt lat="44.4274976" lon="11.1748752"><ele>154.0</ele><time>2026-04-04T09:26:04.373Z</time></trkpt><trkpt lat="44.4274369" lon="11.1748383"><ele>154.0</ele><time>2026-04-04T09:26:05.371Z</time></trkpt><trkpt lat="44.427377" lon="11.1748029"><ele>154.0</ele><time>2026-04-04T09:26:06.367Z</time></trkpt><trkpt lat="44.4273148" lon="11.1747631"><ele>154.0</ele><time>2026-04-04T09:26:07.369Z</time></trkpt><trkpt lat="44.4272546" lon="11.1747237"><ele>154.0</ele><time>2026-04-04T09:26:08.369Z</time></trkpt><trkpt lat="44.4271914" lon="11.1746871"><ele>154.0</ele><time>2026-04-04T09:26:09.381Z</time></trkpt><trkpt lat="44.4271315" lon="11.1746529"><ele>154.16666666666669</ele><time>2026-04-04T09:26:10.378Z</time></trkpt><trkpt lat="44.4270728" lon="11.1746163"><ele>154.33333333333334</ele><time>2026-04-04T09:26:11.368Z</time></trkpt><trkpt lat="44.4270116" lon="11.1745776"><ele>154.5</ele><time>2026-04-04T09:26:12.369Z</time></trkpt><trkpt lat="44.4269527" lon="11.1745424"><ele>154.66666666666666</ele><time>2026-04-04T09:26:13.377Z</time></trkpt><trkpt lat="44.426893" lon="11.1745066"><ele>154.83333333333331</ele><time>2026-04-04T09:26:14.373Z</time></trkpt><trkpt lat="44.4268347" lon="11.1744712"><ele>155.0</ele><time>2026-04-04T09:26:15.371Z</time></trkpt><trkpt lat="44.4267159" lon="11.174404"><ele>155.0</ele><time>2026-04-04T09:26:17.373Z</time></trkpt><trkpt lat="44.4266002" lon="11.1743355"><ele>155.0</ele><time>2026-04-04T09:26:19.372Z</time></trkpt><trkpt lat="44.4265415" lon="11.1742997"><ele>155.0</ele><time>2026-04-04T09:26:20.369Z</time></trkpt><trkpt lat="44.4264831" lon="11.1742644"><ele>155.0</ele><time>2026-04-04T09:26:21.373Z</time></trkpt><trkpt lat="44.4263668" lon="11.1741926"><ele>155.0</ele><time>2026-04-04T09:26:23.369Z</time></trkpt><trkpt lat="44.426308" lon="11.1741557"><ele>155.0</ele><time>2026-04-04T09:26:24.384Z</time></trkpt><trkpt lat="44.4262484" lon="11.1741211"><ele>155.0</ele><time>2026-04-04T09:26:25.369Z</time></trkpt><trkpt lat="44.4261898" lon="11.1740867"><ele>155.0</ele><time>2026-04-04T09:26:26.365Z</time></trkpt><trkpt lat="44.4261317" lon="11.1740514"><ele>155.0</ele><time>2026-04-04T09:26:27.374Z</time></trkpt><trkpt lat="44.4260726" lon="11.1740152"><ele>155.0</ele><time>2026-04-04T09:26:28.372Z</time></trkpt><trkpt lat="44.4260127" lon="11.1739802"><ele>155.0</ele><time>2026-04-04T09:26:29.371Z</time></trkpt><trkpt lat="44.4259524" lon="11.1739466"><ele>155.0</ele><time>2026-04-04T09:26:30.373Z</time></trkpt><trkpt lat="44.4258914" lon="11.1739089"><ele>155.0</ele><time>2026-04-04T09:26:31.368Z</time></trkpt><trkpt lat="44.4258316" lon="11.1738711"><ele>155.16666666666666</ele><time>2026-04-04T09:26:32.369Z</time></trkpt><trkpt lat="44.4257714" lon="11.173834"><ele>155.33333333333331</ele><time>2026-04-04T09:26:33.373Z</time></trkpt><trkpt lat="44.4257116" lon="11.1737996"><ele>155.5</ele><time>2026-04-04T09:26:34.364Z</time></trkpt><trkpt lat="44.4256497" lon="11.1737675"><ele>155.66666666666666</ele><time>2026-04-04T09:26:35.371Z</time></trkpt><trkpt lat="44.4255316" lon="11.1737111"><ele>155.83333333333334</ele><time>2026-04-04T09:26:37.372Z</time></trkpt><trkpt lat="44.4254117" lon="11.1736683"><ele>156.0</ele><time>2026-04-04T09:26:39.37Z</time></trkpt><trkpt lat="44.425289" lon="11.1736416"><ele>156.0</ele><time>2026-04-04T09:26:41.369Z</time></trkpt><trkpt lat="44.4251649" lon="11.1736324"><ele>156.0</ele><time>2026-04-04T09:26:43.375Z</time></trkpt><trkpt lat="44.4251019" lon="11.173631"><ele>156.0</ele><time>2026-04-04T09:26:44.386Z</time></trkpt><trkpt lat="44.4250388" lon="11.1736313"><ele>156.0</ele><time>2026-04-04T09:26:45.375Z</time></trkpt><trkpt lat="44.4249134" lon="11.173648"><ele>156.0</ele><time>2026-04-04T09:26:47.364Z</time></trkpt><trkpt lat="44.4247913" lon="11.173666"><ele>156.0</ele><time>2026-04-04T09:26:49.366Z</time></trkpt><trkpt lat="44.4247286" lon="11.1736773"><ele>156.0</ele><time>2026-04-04T09:26:50.378Z</time></trkpt><trkpt lat="44.4246032" lon="11.1737"><ele>156.0</ele><time>2026-04-04T09:26:52.375Z</time></trkpt><trkpt lat="44.4244792" lon="11.1737205"><ele>156.0</ele><time>2026-04-04T09:26:54.379Z</time></trkpt><trkpt lat="44.4243591" lon="11.1737457"><ele>156.0</ele><time>2026-04-04T09:26:56.372Z</time></trkpt><trkpt lat="44.4242951" lon="11.1737559"><ele>156.2857142857143</ele><time>2026-04-04T09:26:57.376Z</time></trkpt><trkpt lat="44.42423" lon="11.1737649"><ele>156.57142857142856</ele><time>2026-04-04T09:26:58.377Z</time></trkpt><trkpt lat="44.4241659" lon="11.1737749"><ele>156.85714285714286</ele><time>2026-04-04T09:26:59.37Z</time></trkpt><trkpt lat="44.4241014" lon="11.1737844"><ele>157.14285714285717</ele><time>2026-04-04T09:27:00.375Z</time></trkpt><trkpt lat="44.4240388" lon="11.1737944"><ele>157.42857142857144</ele><time>2026-04-04T09:27:01.381Z</time></trkpt><trkpt lat="44.4239759" lon="11.1738034"><ele>157.71428571428572</ele><time>2026-04-04T09:27:02.371Z</time></trkpt><trkpt lat="44.4239119" lon="11.1738114"><ele>158.0</ele><time>2026-04-04T09:27:03.38Z</time></trkpt><trkpt lat="44.4237891" lon="11.1738293"><ele>158.5</ele><time>2026-04-04T09:27:05.373Z</time></trkpt><trkpt lat="44.4236695" lon="11.1738416"><ele>159.0</ele><time>2026-04-04T09:27:07.374Z</time></trkpt><trkpt lat="44.4235455" lon="11.1738438"><ele>159.5</ele><time>2026-04-04T09:27:09.373Z</time></trkpt><trkpt lat="44.4234188" lon="11.1738401"><ele>160.0</ele><time>2026-04-04T09:27:11.378Z</time></trkpt><trkpt lat="44.4232948" lon="11.1738173"><ele>160.0</ele><time>2026-04-04T09:27:13.371Z</time></trkpt><trkpt lat="44.4231766" lon="11.1737679"><ele>160.0</ele><time>2026-04-04T09:27:15.369Z</time></trkpt><trkpt lat="44.4230583" lon="11.1737186"><ele>160.0</ele><time>2026-04-04T09:27:17.371Z</time></trkpt><trkpt lat="44.4229381" lon="11.17367"><ele>160.0</ele><time>2026-04-04T09:27:19.371Z</time></trkpt><trkpt lat="44.4228776" lon="11.1736446"><ele>160.0</ele><time>2026-04-04T09:27:20.382Z</time></trkpt><trkpt lat="44.4227617" lon="11.1735923"><ele>159.83333333333334</ele><time>2026-04-04T09:27:22.387Z</time></trkpt><trkpt lat="44.422642" lon="11.1735313"><ele>159.66666666666669</ele><time>2026-04-04T09:27:24.374Z</time></trkpt><trkpt lat="44.4225802" lon="11.1735042"><ele>159.5</ele><time>2026-04-04T09:27:25.371Z</time></trkpt><trkpt lat="44.4225185" lon="11.1734766"><ele>159.33333333333334</ele><time>2026-04-04T09:27:26.379Z</time></trkpt><trkpt lat="44.4224575" lon="11.1734481"><ele>159.16666666666666</ele><time>2026-04-04T09:27:27.368Z</time></trkpt><trkpt lat="44.4223404" lon="11.1733925"><ele>159.0</ele><time>2026-04-04T09:27:29.372Z</time></trkpt><trkpt lat="44.4222786" lon="11.1733658"><ele>159.0</ele><time>2026-04-04T09:27:30.367Z</time></trkpt><trkpt lat="44.4222174" lon="11.1733397"><ele>159.0</ele><time>2026-04-04T09:27:31.371Z</time></trkpt><trkpt lat="44.422157" lon="11.1733125"><ele>159.0</ele><time>2026-04-04T09:27:32.368Z</time></trkpt><trkpt lat="44.4220939" lon="11.173287"><ele>159.0</ele><time>2026-04-04T09:27:33.371Z</time></trkpt><trkpt lat="44.4220323" lon="11.1732621"><ele>159.0</ele><time>2026-04-04T09:27:34.371Z</time></trkpt><trkpt lat="44.421972" lon="11.1732352"><ele>159.0</ele><time>2026-04-04T09:27:35.378Z</time></trkpt><trkpt lat="44.4218509" lon="11.1731819"><ele>159.0</ele><time>2026-04-04T09:27:37.376Z</time></trkpt><trkpt lat="44.4217902" lon="11.1731556"><ele>159.2</ele><time>2026-04-04T09:27:38.37Z</time></trkpt><trkpt lat="44.4216715" lon="11.1731061"><ele>159.4</ele><time>2026-04-04T09:27:40.372Z</time></trkpt><trkpt lat="44.4215504" lon="11.1730566"><ele>159.6</ele><time>2026-04-04T09:27:42.37Z</time></trkpt><trkpt lat="44.4214885" lon="11.1730317"><ele>159.8</ele><time>2026-04-04T09:27:43.366Z</time></trkpt><trkpt lat="44.4213666" lon="11.1729758"><ele>160.0</ele><time>2026-04-04T09:27:45.378Z</time></trkpt><trkpt lat="44.4213061" lon="11.1729467"><ele>160.16666666666669</ele><time>2026-04-04T09:27:46.372Z</time></trkpt><trkpt lat="44.4212418" lon="11.1729169"><ele>160.33333333333334</ele><time>2026-04-04T09:27:47.369Z</time></trkpt><trkpt lat="44.4211789" lon="11.1728879"><ele>160.5</ele><time>2026-04-04T09:27:48.372Z</time></trkpt><trkpt lat="44.4211183" lon="11.1728617"><ele>160.66666666666666</ele><time>2026-04-04T09:27:49.371Z</time></trkpt><trkpt lat="44.4210038" lon="11.172807"><ele>160.83333333333331</ele><time>2026-04-04T09:27:51.367Z</time></trkpt><trkpt lat="44.4208914" lon="11.1727591"><ele>161.0</ele><time>2026-04-04T09:27:53.369Z</time></trkpt><trkpt lat="44.4208303" lon="11.1727288"><ele>161.0</ele><time>2026-04-04T09:27:54.374Z</time></trkpt><trkpt lat="44.4207695" lon="11.1727012"><ele>161.0</ele><time>2026-04-04T09:27:55.371Z</time></trkpt><trkpt lat="44.4206515" lon="11.1726462"><ele>161.0</ele><time>2026-04-04T09:27:57.374Z</time></trkpt><trkpt lat="44.4205331" lon="11.1725934"><ele>161.0</ele><time>2026-04-04T09:27:59.373Z</time></trkpt><trkpt lat="44.4204706" lon="11.1725669"><ele>161.0</ele><time>2026-04-04T09:28:00.368Z</time></trkpt><trkpt lat="44.4204101" lon="11.1725393"><ele>161.0</ele><time>2026-04-04T09:28:01.37Z</time></trkpt><trkpt lat="44.4202922" lon="11.1724897"><ele>161.25</ele><time>2026-04-04T09:28:03.366Z</time></trkpt><trkpt lat="44.4201756" lon="11.1724401"><ele>161.5</ele><time>2026-04-04T09:28:05.369Z</time></trkpt><trkpt lat="44.4200578" lon="11.1723901"><ele>161.75</ele><time>2026-04-04T09:28:07.375Z</time></trkpt><trkpt lat="44.4199409" lon="11.172342"><ele>162.0</ele><time>2026-04-04T09:28:09.377Z</time></trkpt><trkpt lat="44.4198235" lon="11.1722943"><ele>162.2</ele><time>2026-04-04T09:28:11.375Z</time></trkpt><trkpt lat="44.4197044" lon="11.1722456"><ele>162.39999999999998</ele><time>2026-04-04T09:28:13.37Z</time></trkpt><trkpt lat="44.4196432" lon="11.172223"><ele>162.60000000000002</ele><time>2026-04-04T09:28:14.371Z</time></trkpt><trkpt lat="44.4195241" lon="11.1721785"><ele>162.8</ele><time>2026-04-04T09:28:16.377Z</time></trkpt><trkpt lat="44.4194054" lon="11.1721351"><ele>163.0</ele><time>2026-04-04T09:28:18.367Z</time></trkpt><trkpt lat="44.4192879" lon="11.1720874"><ele>163.8</ele><time>2026-04-04T09:28:20.373Z</time></trkpt><trkpt lat="44.4191666" lon="11.1720438"><ele>164.60000000000002</ele><time>2026-04-04T09:28:22.366Z</time></trkpt><trkpt lat="44.4190447" lon="11.1720056"><ele>165.39999999999998</ele><time>2026-04-04T09:28:24.372Z</time></trkpt><trkpt lat="44.4189802" lon="11.1719893"><ele>166.2</ele><time>2026-04-04T09:28:25.371Z</time></trkpt><trkpt lat="44.4188585" lon="11.171974"><ele>167.0</ele><time>2026-04-04T09:28:27.372Z</time></trkpt><trkpt lat="44.4187376" lon="11.1719783"><ele>167.28571428571428</ele><time>2026-04-04T09:28:29.374Z</time></trkpt><trkpt lat="44.4186732" lon="11.1719851"><ele>167.57142857142858</ele><time>2026-04-04T09:28:30.372Z</time></trkpt><trkpt lat="44.418553" lon="11.1720098"><ele>167.85714285714286</ele><time>2026-04-04T09:28:32.369Z</time></trkpt><trkpt lat="44.4184906" lon="11.172028"><ele>168.14285714285714</ele><time>2026-04-04T09:28:33.374Z</time></trkpt><trkpt lat="44.4184288" lon="11.1720525"><ele>168.42857142857142</ele><time>2026-04-04T09:28:34.368Z</time></trkpt><trkpt lat="44.4183664" lon="11.1720752"><ele>168.71428571428572</ele><time>2026-04-04T09:28:35.363Z</time></trkpt><trkpt lat="44.4183044" lon="11.1720986"><ele>169.0</ele><time>2026-04-04T09:28:36.364Z</time></trkpt><trkpt lat="44.4182426" lon="11.1721213"><ele>169.0</ele><time>2026-04-04T09:28:37.375Z</time></trkpt><trkpt lat="44.4181816" lon="11.1721453"><ele>169.0</ele><time>2026-04-04T09:28:38.371Z</time></trkpt><trkpt lat="44.418059" lon="11.1721916"><ele>169.0</ele><time>2026-04-04T09:28:40.371Z</time></trkpt><trkpt lat="44.4179978" lon="11.172215"><ele>169.0</ele><time>2026-04-04T09:28:41.372Z</time></trkpt><trkpt lat="44.4179366" lon="11.1722379"><ele>169.0</ele><time>2026-04-04T09:28:42.374Z</time></trkpt><trkpt lat="44.4178161" lon="11.172282"><ele>169.0</ele><time>2026-04-04T09:28:44.369Z</time></trkpt><trkpt lat="44.4176972" lon="11.1723259"><ele>168.6</ele><time>2026-04-04T09:28:46.37Z</time></trkpt><trkpt lat="44.4175772" lon="11.1723719"><ele>168.2</ele><time>2026-04-04T09:28:48.369Z</time></trkpt><trkpt lat="44.417516" lon="11.172395"><ele>167.79999999999998</ele><time>2026-04-04T09:28:49.36Z</time></trkpt><trkpt lat="44.4174026" lon="11.1724379"><ele>167.39999999999998</ele><time>2026-04-04T09:28:51.366Z</time></trkpt><trkpt lat="44.4172852" lon="11.1724842"><ele>167.0</ele><time>2026-04-04T09:28:53.367Z</time></trkpt><trkpt lat="44.4171635" lon="11.172526"><ele>167.42857142857142</ele><time>2026-04-04T09:28:55.365Z</time></trkpt><trkpt lat="44.4171001" lon="11.1725474"><ele>167.85714285714286</ele><time>2026-04-04T09:28:56.365Z</time></trkpt><trkpt lat="44.417035" lon="11.1725694"><ele>168.28571428571428</ele><time>2026-04-04T09:28:57.375Z</time></trkpt><trkpt lat="44.4169716" lon="11.1725919"><ele>168.71428571428572</ele><time>2026-04-04T09:28:58.369Z</time></trkpt><trkpt lat="44.4169093" lon="11.172614"><ele>169.14285714285714</ele><time>2026-04-04T09:28:59.367Z</time></trkpt><trkpt lat="44.4168449" lon="11.1726331"><ele>169.57142857142858</ele><time>2026-04-04T09:29:00.362Z</time></trkpt><trkpt lat="44.4167816" lon="11.1726534"><ele>170.0</ele><time>2026-04-04T09:29:01.374Z</time></trkpt><trkpt lat="44.416718" lon="11.1726673"><ele>170.0</ele><time>2026-04-04T09:29:02.374Z</time></trkpt><trkpt lat="44.416654" lon="11.1726765"><ele>170.0</ele><time>2026-04-04T09:29:03.365Z</time></trkpt><trkpt lat="44.4165901" lon="11.1726821"><ele>170.0</ele><time>2026-04-04T09:29:04.375Z</time></trkpt><trkpt lat="44.4165255" lon="11.1726785"><ele>170.0</ele><time>2026-04-04T09:29:05.368Z</time></trkpt><trkpt lat="44.4164011" lon="11.1726428"><ele>170.0</ele><time>2026-04-04T09:29:07.374Z</time></trkpt><trkpt lat="44.4163366" lon="11.1726231"><ele>170.0</ele><time>2026-04-04T09:29:08.365Z</time></trkpt><trkpt lat="44.4162758" lon="11.1725983"><ele>170.0</ele><time>2026-04-04T09:29:09.376Z</time></trkpt><trkpt lat="44.4162155" lon="11.1725723"><ele>170.0</ele><time>2026-04-04T09:29:10.367Z</time></trkpt><trkpt lat="44.4161002" lon="11.1725155"><ele>170.0</ele><time>2026-04-04T09:29:12.368Z</time></trkpt><trkpt lat="44.4159817" lon="11.1724582"><ele>170.0</ele><time>2026-04-04T09:29:14.372Z</time></trkpt><trkpt lat="44.41592" lon="11.172428"><ele>170.0</ele><time>2026-04-04T09:29:15.379Z</time></trkpt><trkpt lat="44.4158583" lon="11.1723967"><ele>170.0</ele><time>2026-04-04T09:29:16.365Z</time></trkpt><trkpt lat="44.4157962" lon="11.1723674"><ele>170.0</ele><time>2026-04-04T09:29:17.372Z</time></trkpt><trkpt lat="44.4157353" lon="11.1723367"><ele>170.42857142857144</ele><time>2026-04-04T09:29:18.367Z</time></trkpt><trkpt lat="44.4156768" lon="11.1723039"><ele>170.85714285714283</ele><time>2026-04-04T09:29:19.366Z</time></trkpt><trkpt lat="44.4156163" lon="11.1722697"><ele>171.28571428571428</ele><time>2026-04-04T09:29:20.37Z</time></trkpt><trkpt lat="44.415555" lon="11.1722365"><ele>171.71428571428572</ele><time>2026-04-04T09:29:21.36Z</time></trkpt><trkpt lat="44.4154935" lon="11.1722081"><ele>172.14285714285717</ele><time>2026-04-04T09:29:22.36Z</time></trkpt><trkpt lat="44.4154316" lon="11.1721806"><ele>172.57142857142856</ele><time>2026-04-04T09:29:23.377Z</time></trkpt><trkpt lat="44.4153713" lon="11.1721513"><ele>173.0</ele><time>2026-04-04T09:29:24.367Z</time></trkpt><trkpt lat="44.4152538" lon="11.1720961"><ele>173.2</ele><time>2026-04-04T09:29:26.361Z</time></trkpt><trkpt lat="44.4151399" lon="11.1720318"><ele>173.4</ele><time>2026-04-04T09:29:28.365Z</time></trkpt><trkpt lat="44.4150254" lon="11.1719743"><ele>173.6</ele><time>2026-04-04T09:29:30.378Z</time></trkpt><trkpt lat="44.4149056" lon="11.171921"><ele>173.79999999999998</ele><time>2026-04-04T09:29:32.368Z</time></trkpt><trkpt lat="44.414845" lon="11.1718915"><ele>174.0</ele><time>2026-04-04T09:29:33.365Z</time></trkpt><trkpt lat="44.4147306" lon="11.1718329"><ele>174.25</ele><time>2026-04-04T09:29:35.379Z</time></trkpt><trkpt lat="44.4146149" lon="11.1717761"><ele>174.5</ele><time>2026-04-04T09:29:37.367Z</time></trkpt><trkpt lat="44.4145023" lon="11.1717143"><ele>174.75</ele><time>2026-04-04T09:29:39.366Z</time></trkpt><trkpt lat="44.4143954" lon="11.1716387"><ele>175.0</ele><time>2026-04-04T09:29:41.373Z</time></trkpt><trkpt lat="44.4142959" lon="11.1715504"><ele>176.0</ele><time>2026-04-04T09:29:43.365Z</time></trkpt><trkpt lat="44.4142017" lon="11.1714448"><ele>177.0</ele><time>2026-04-04T09:29:45.364Z</time></trkpt><trkpt lat="44.4141275" lon="11.1713137"><ele>178.0</ele><time>2026-04-04T09:29:47.383Z</time></trkpt><trkpt lat="44.4140637" lon="11.1711704"><ele>179.0</ele><time>2026-04-04T09:29:49.381Z</time></trkpt><trkpt lat="44.4140007" lon="11.1710284"><ele>179.0</ele><time>2026-04-04T09:29:51.364Z</time></trkpt><trkpt lat="44.413942" lon="11.1708895"><ele>179.0</ele><time>2026-04-04T09:29:53.364Z</time></trkpt><trkpt lat="44.4138816" lon="11.1707475"><ele>179.0</ele><time>2026-04-04T09:29:55.364Z</time></trkpt><trkpt lat="44.4138237" lon="11.1706002"><ele>179.0</ele><time>2026-04-04T09:29:57.371Z</time></trkpt><trkpt lat="44.4137704" lon="11.1704448"><ele>178.75</ele><time>2026-04-04T09:29:59.375Z</time></trkpt><trkpt lat="44.4137178" lon="11.1702873"><ele>178.5</ele><time>2026-04-04T09:30:01.363Z</time></trkpt><trkpt lat="44.4136683" lon="11.1701293"><ele>178.25</ele><time>2026-04-04T09:30:03.365Z</time></trkpt><trkpt lat="44.4136216" lon="11.1699709"><ele>178.0</ele><time>2026-04-04T09:30:05.368Z</time></trkpt><trkpt lat="44.4135784" lon="11.1698097"><ele>178.60000000000002</ele><time>2026-04-04T09:30:07.365Z</time></trkpt><trkpt lat="44.4135338" lon="11.1696509"><ele>179.20000000000002</ele><time>2026-04-04T09:30:09.376Z</time></trkpt><trkpt lat="44.4134848" lon="11.169493"><ele>179.8</ele><time>2026-04-04T09:30:11.367Z</time></trkpt><trkpt lat="44.4134365" lon="11.1693406"><ele>180.4</ele><time>2026-04-04T09:30:13.37Z</time></trkpt><trkpt lat="44.4134002" lon="11.1692646"><ele>181.0</ele><time>2026-04-04T09:30:14.366Z</time></trkpt><trkpt lat="44.413327" lon="11.169126"><ele>181.16666666666669</ele><time>2026-04-04T09:30:16.374Z</time></trkpt><trkpt lat="44.413242" lon="11.1690009"><ele>181.33333333333334</ele><time>2026-04-04T09:30:18.371Z</time></trkpt><trkpt lat="44.4131538" lon="11.1688772"><ele>181.5</ele><time>2026-04-04T09:30:20.364Z</time></trkpt><trkpt lat="44.4131078" lon="11.1688159"><ele>181.66666666666666</ele><time>2026-04-04T09:30:21.371Z</time></trkpt><trkpt lat="44.4130612" lon="11.1687564"><ele>181.83333333333331</ele><time>2026-04-04T09:30:22.366Z</time></trkpt><trkpt lat="44.413014" lon="11.1686971"><ele>182.0</ele><time>2026-04-04T09:30:23.369Z</time></trkpt><trkpt lat="44.4129208" lon="11.1685815"><ele>182.0</ele><time>2026-04-04T09:30:25.377Z</time></trkpt><trkpt lat="44.412829" lon="11.1684664"><ele>182.0</ele><time>2026-04-04T09:30:27.372Z</time></trkpt><trkpt lat="44.4127387" lon="11.1683505"><ele>182.0</ele><time>2026-04-04T09:30:29.371Z</time></trkpt><trkpt lat="44.4126495" lon="11.1682391"><ele>182.0</ele><time>2026-04-04T09:30:31.371Z</time></trkpt><trkpt lat="44.4125605" lon="11.168128"><ele>183.5</ele><time>2026-04-04T09:30:33.374Z</time></trkpt><trkpt lat="44.4124738" lon="11.168017"><ele>185.0</ele><time>2026-04-04T09:30:35.367Z</time></trkpt><trkpt lat="44.4123867" lon="11.1679164"><ele>186.5</ele><time>2026-04-04T09:30:37.363Z</time></trkpt><trkpt lat="44.4122972" lon="11.167798"><ele>188.0</ele><time>2026-04-04T09:30:39.373Z</time></trkpt><trkpt lat="44.4122044" lon="11.1676823"><ele>187.60000000000002</ele><time>2026-04-04T09:30:41.37Z</time></trkpt><trkpt lat="44.4121136" lon="11.1675639"><ele>187.20000000000002</ele><time>2026-04-04T09:30:43.372Z</time></trkpt><trkpt lat="44.4120263" lon="11.1674541"><ele>186.8</ele><time>2026-04-04T09:30:45.365Z</time></trkpt><trkpt lat="44.4119404" lon="11.1673288"><ele>186.4</ele><time>2026-04-04T09:30:47.367Z</time></trkpt><trkpt lat="44.4118969" lon="11.1672624"><ele>186.0</ele><time>2026-04-04T09:30:48.37Z</time></trkpt><trkpt lat="44.411813" lon="11.16713"><ele>186.0</ele><time>2026-04-04T09:30:50.369Z</time></trkpt><trkpt lat="44.4117314" lon="11.1670005"><ele>186.0</ele><time>2026-04-04T09:30:52.37Z</time></trkpt><trkpt lat="44.4116523" lon="11.1668617"><ele>186.0</ele><time>2026-04-04T09:30:54.373Z</time></trkpt><trkpt lat="44.4116121" lon="11.1667923"><ele>186.0</ele><time>2026-04-04T09:30:55.368Z</time></trkpt><trkpt lat="44.4115371" lon="11.1666546"><ele>186.0</ele><time>2026-04-04T09:30:57.364Z</time></trkpt><trkpt lat="44.4114643" lon="11.1665173"><ele>185.75</ele><time>2026-04-04T09:30:59.372Z</time></trkpt><trkpt lat="44.4113913" lon="11.1663796"><ele>185.5</ele><time>2026-04-04T09:31:01.369Z</time></trkpt><trkpt lat="44.4113226" lon="11.1662406"><ele>185.25</ele><time>2026-04-04T09:31:03.356Z</time></trkpt><trkpt lat="44.4112566" lon="11.1660992"><ele>185.0</ele><time>2026-04-04T09:31:05.362Z</time></trkpt><trkpt lat="44.4111968" lon="11.1659532"><ele>185.0</ele><time>2026-04-04T09:31:07.37Z</time></trkpt><trkpt lat="44.4111449" lon="11.1658041"><ele>185.0</ele><time>2026-04-04T09:31:09.37Z</time></trkpt><trkpt lat="44.4110984" lon="11.1656505"><ele>185.0</ele><time>2026-04-04T09:31:11.368Z</time></trkpt><trkpt lat="44.4110582" lon="11.1654957"><ele>185.0</ele><time>2026-04-04T09:31:13.36Z</time></trkpt><trkpt lat="44.4110201" lon="11.1653376"><ele>185.25</ele><time>2026-04-04T09:31:15.372Z</time></trkpt><trkpt lat="44.4109872" lon="11.1651813"><ele>185.5</ele><time>2026-04-04T09:31:17.366Z</time></trkpt><trkpt lat="44.4109567" lon="11.1650299"><ele>185.75</ele><time>2026-04-04T09:31:19.371Z</time></trkpt><trkpt lat="44.4109306" lon="11.164873"><ele>186.0</ele><time>2026-04-04T09:31:21.372Z</time></trkpt><trkpt lat="44.4109062" lon="11.1647155"><ele>186.5</ele><time>2026-04-04T09:31:23.367Z</time></trkpt><trkpt lat="44.4108844" lon="11.164559"><ele>187.0</ele><time>2026-04-04T09:31:25.364Z</time></trkpt><trkpt lat="44.4108572" lon="11.1644034"><ele>187.5</ele><time>2026-04-04T09:31:27.364Z</time></trkpt><trkpt lat="44.4108337" lon="11.1642455"><ele>188.0</ele><time>2026-04-04T09:31:29.365Z</time></trkpt><trkpt lat="44.4108062" lon="11.1640874"><ele>187.8</ele><time>2026-04-04T09:31:31.374Z</time></trkpt><trkpt lat="44.4107824" lon="11.1639275"><ele>187.60000000000002</ele><time>2026-04-04T09:31:33.366Z</time></trkpt><trkpt lat="44.4107602" lon="11.1637699"><ele>187.39999999999998</ele><time>2026-04-04T09:31:35.367Z</time></trkpt><trkpt lat="44.4107358" lon="11.1636154"><ele>187.2</ele><time>2026-04-04T09:31:37.374Z</time></trkpt><trkpt lat="44.4107128" lon="11.1634759"><ele>187.0</ele><time>2026-04-04T09:31:39.365Z</time></trkpt><trkpt lat="44.4106888" lon="11.1633179"><ele>187.75</ele><time>2026-04-04T09:31:41.373Z</time></trkpt><trkpt lat="44.4106679" lon="11.1631567"><ele>188.5</ele><time>2026-04-04T09:31:43.372Z</time></trkpt><trkpt lat="44.4106437" lon="11.1629961"><ele>189.25</ele><time>2026-04-04T09:31:45.365Z</time></trkpt><trkpt lat="44.4106196" lon="11.1628379"><ele>190.0</ele><time>2026-04-04T09:31:47.368Z</time></trkpt><trkpt lat="44.4105937" lon="11.1626797"><ele>190.0</ele><time>2026-04-04T09:31:49.372Z</time></trkpt><trkpt lat="44.410574" lon="11.1625248"><ele>190.0</ele><time>2026-04-04T09:31:51.364Z</time></trkpt><trkpt lat="44.4105573" lon="11.1623715"><ele>190.0</ele><time>2026-04-04T09:31:53.371Z</time></trkpt><trkpt lat="44.4105428" lon="11.1622142"><ele>190.0</ele><time>2026-04-04T09:31:55.371Z</time></trkpt><trkpt lat="44.4105336" lon="11.1620557"><ele>191.2</ele><time>2026-04-04T09:31:57.361Z</time></trkpt><trkpt lat="44.4105322" lon="11.1618972"><ele>192.4</ele><time>2026-04-04T09:31:59.363Z</time></trkpt><trkpt lat="44.4105431" lon="11.1617429"><ele>193.60000000000002</ele><time>2026-04-04T09:32:01.368Z</time></trkpt><trkpt lat="44.4105501" lon="11.1615903"><ele>194.8</ele><time>2026-04-04T09:32:03.368Z</time></trkpt><trkpt lat="44.4105604" lon="11.1614328"><ele>196.0</ele><time>2026-04-04T09:32:05.369Z</time></trkpt><trkpt lat="44.4105697" lon="11.1612761"><ele>197.0</ele><time>2026-04-04T09:32:07.373Z</time></trkpt><trkpt lat="44.4105798" lon="11.1611173"><ele>198.0</ele><time>2026-04-04T09:32:09.37Z</time></trkpt><trkpt lat="44.4105865" lon="11.16096"><ele>199.0</ele><time>2026-04-04T09:32:11.371Z</time></trkpt><trkpt lat="44.4105901" lon="11.1607999"><ele>200.0</ele><time>2026-04-04T09:32:13.367Z</time></trkpt><trkpt lat="44.4105772" lon="11.1606411"><ele>200.4</ele><time>2026-04-04T09:32:15.368Z</time></trkpt><trkpt lat="44.4105464" lon="11.1604811"><ele>200.8</ele><time>2026-04-04T09:32:17.363Z</time></trkpt><trkpt lat="44.4104955" lon="11.1603269"><ele>201.2</ele><time>2026-04-04T09:32:19.365Z</time></trkpt><trkpt lat="44.4104234" lon="11.1601836"><ele>201.6</ele><time>2026-04-04T09:32:21.362Z</time></trkpt><trkpt lat="44.4103824" lon="11.1601167"><ele>202.0</ele><time>2026-04-04T09:32:22.378Z</time></trkpt><trkpt lat="44.4103411" lon="11.1600475"><ele>201.0</ele><time>2026-04-04T09:32:23.363Z</time></trkpt><trkpt lat="44.410297" lon="11.1599758"><ele>200.0</ele><time>2026-04-04T09:32:24.367Z</time></trkpt><trkpt lat="44.4102549" lon="11.1599063"><ele>199.0</ele><time>2026-04-04T09:32:25.368Z</time></trkpt><trkpt lat="44.4102133" lon="11.159836"><ele>198.0</ele><time>2026-04-04T09:32:26.375Z</time></trkpt><trkpt lat="44.4101711" lon="11.1597658"><ele>197.0</ele><time>2026-04-04T09:32:27.362Z</time></trkpt><trkpt lat="44.4101285" lon="11.1596954"><ele>196.0</ele><time>2026-04-04T09:32:28.364Z</time></trkpt><trkpt lat="44.4100874" lon="11.159625"><ele>195.0</ele><time>2026-04-04T09:32:29.372Z</time></trkpt><trkpt lat="44.4100448" lon="11.1595561"><ele>195.0</ele><time>2026-04-04T09:32:30.37Z</time></trkpt><trkpt lat="44.410006" lon="11.1594861"><ele>195.0</ele><time>2026-04-04T09:32:31.365Z</time></trkpt><trkpt lat="44.4099644" lon="11.1594141"><ele>195.0</ele><time>2026-04-04T09:32:32.366Z</time></trkpt><trkpt lat="44.4099218" lon="11.159345"><ele>195.0</ele><time>2026-04-04T09:32:33.365Z</time></trkpt><trkpt lat="44.4098791" lon="11.1592758"><ele>195.0</ele><time>2026-04-04T09:32:34.36Z</time></trkpt><trkpt lat="44.4098357" lon="11.1592106"><ele>195.0</ele><time>2026-04-04T09:32:35.371Z</time></trkpt><trkpt lat="44.4097949" lon="11.1591427"><ele>195.0</ele><time>2026-04-04T09:32:36.363Z</time></trkpt><trkpt lat="44.4097155" lon="11.1590156"><ele>194.25</ele><time>2026-04-04T09:32:38.366Z</time></trkpt><trkpt lat="44.4096361" lon="11.1588901"><ele>193.5</ele><time>2026-04-04T09:32:40.373Z</time></trkpt><trkpt lat="44.4095534" lon="11.1587587"><ele>192.75</ele><time>2026-04-04T09:32:42.374Z</time></trkpt><trkpt lat="44.4094749" lon="11.1586286"><ele>192.0</ele><time>2026-04-04T09:32:44.372Z</time></trkpt><trkpt lat="44.4093949" lon="11.1584972"><ele>192.0</ele><time>2026-04-04T09:32:46.366Z</time></trkpt><trkpt lat="44.4093144" lon="11.1583614"><ele>192.0</ele><time>2026-04-04T09:32:48.372Z</time></trkpt><trkpt lat="44.4092743" lon="11.1582929"><ele>192.0</ele><time>2026-04-04T09:32:49.359Z</time></trkpt><trkpt lat="44.4092333" lon="11.1582232"><ele>192.0</ele><time>2026-04-04T09:32:50.371Z</time></trkpt><trkpt lat="44.4091551" lon="11.1580863"><ele>192.0</ele><time>2026-04-04T09:32:52.371Z</time></trkpt><trkpt lat="44.4091179" lon="11.158014"><ele>192.0</ele><time>2026-04-04T09:32:53.364Z</time></trkpt><trkpt lat="44.4090817" lon="11.157941"><ele>192.57142857142856</ele><time>2026-04-04T09:32:54.368Z</time></trkpt><trkpt lat="44.4090465" lon="11.1578678"><ele>193.14285714285714</ele><time>2026-04-04T09:32:55.368Z</time></trkpt><trkpt lat="44.408985" lon="11.1577151"><ele>193.71428571428572</ele><time>2026-04-04T09:32:57.376Z</time></trkpt><trkpt lat="44.4089579" lon="11.1576355"><ele>194.28571428571428</ele><time>2026-04-04T09:32:58.364Z</time></trkpt><trkpt lat="44.4089333" lon="11.1575504"><ele>194.85714285714286</ele><time>2026-04-04T09:32:59.368Z</time></trkpt><trkpt lat="44.4089152" lon="11.1574651"><ele>195.42857142857142</ele><time>2026-04-04T09:33:00.374Z</time></trkpt><trkpt lat="44.408897" lon="11.1573802"><ele>196.0</ele><time>2026-04-04T09:33:01.37Z</time></trkpt><trkpt lat="44.4088703" lon="11.1572108"><ele>196.60000000000002</ele><time>2026-04-04T09:33:03.372Z</time></trkpt><trkpt lat="44.4088582" lon="11.157037"><ele>197.2</ele><time>2026-04-04T09:33:05.374Z</time></trkpt><trkpt lat="44.4088516" lon="11.156862"><ele>197.8</ele><time>2026-04-04T09:33:07.366Z</time></trkpt><trkpt lat="44.4088479" lon="11.156774"><ele>198.39999999999998</ele><time>2026-04-04T09:33:08.373Z</time></trkpt><trkpt lat="44.408842" lon="11.1565991"><ele>199.0</ele><time>2026-04-04T09:33:10.364Z</time></trkpt><trkpt lat="44.4088401" lon="11.1565107"><ele>199.625</ele><time>2026-04-04T09:33:11.365Z</time></trkpt><trkpt lat="44.4088388" lon="11.1564224"><ele>200.25</ele><time>2026-04-04T09:33:12.366Z</time></trkpt><trkpt lat="44.4088387" lon="11.1563341"><ele>200.875</ele><time>2026-04-04T09:33:13.383Z</time></trkpt><trkpt lat="44.4088433" lon="11.1562449"><ele>201.5</ele><time>2026-04-04T09:33:14.357Z</time></trkpt><trkpt lat="44.4088479" lon="11.1561562"><ele>202.125</ele><time>2026-04-04T09:33:15.364Z</time></trkpt><trkpt lat="44.4088585" lon="11.156068"><ele>202.75</ele><time>2026-04-04T09:33:16.358Z</time></trkpt><trkpt lat="44.4088713" lon="11.1559788"><ele>203.375</ele><time>2026-04-04T09:33:17.375Z</time></trkpt><trkpt lat="44.4088884" lon="11.155893"><ele>204.0</ele><time>2026-04-04T09:33:18.368Z</time></trkpt><trkpt lat="44.408929" lon="11.1557276"><ele>202.75</ele><time>2026-04-04T09:33:20.371Z</time></trkpt><trkpt lat="44.4089756" lon="11.155568"><ele>201.5</ele><time>2026-04-04T09:33:22.373Z</time></trkpt><trkpt lat="44.4090201" lon="11.1554108"><ele>200.25</ele><time>2026-04-04T09:33:24.373Z</time></trkpt><trkpt lat="44.4090603" lon="11.1552528"><ele>199.0</ele><time>2026-04-04T09:33:26.372Z</time></trkpt><trkpt lat="44.4090912" lon="11.1550851"><ele>199.0</ele><time>2026-04-04T09:33:28.366Z</time></trkpt><trkpt lat="44.4091079" lon="11.1549135"><ele>199.0</ele><time>2026-04-04T09:33:30.373Z</time></trkpt><trkpt lat="44.4091087" lon="11.1547414"><ele>199.0</ele><time>2026-04-04T09:33:32.368Z</time></trkpt><trkpt lat="44.4090998" lon="11.1545661"><ele>199.0</ele><time>2026-04-04T09:33:34.367Z</time></trkpt><trkpt lat="44.4090942" lon="11.1544777"><ele>199.0</ele><time>2026-04-04T09:33:35.37Z</time></trkpt><trkpt lat="44.4090795" lon="11.1543029"><ele>199.25</ele><time>2026-04-04T09:33:37.365Z</time></trkpt><trkpt lat="44.409063" lon="11.1541295"><ele>199.5</ele><time>2026-04-04T09:33:39.373Z</time></trkpt><trkpt lat="44.409044" lon="11.1539582"><ele>199.75</ele><time>2026-04-04T09:33:41.364Z</time></trkpt><trkpt lat="44.4090272" lon="11.1537871"><ele>200.0</ele><time>2026-04-04T09:33:43.365Z</time></trkpt><trkpt lat="44.409009" lon="11.1536152"><ele>200.5</ele><time>2026-04-04T09:33:45.367Z</time></trkpt><trkpt lat="44.4089911" lon="11.1534441"><ele>201.0</ele><time>2026-04-04T09:33:47.376Z</time></trkpt><trkpt lat="44.4089741" lon="11.1532729"><ele>201.5</ele><time>2026-04-04T09:33:49.365Z</time></trkpt><trkpt lat="44.4089588" lon="11.1531015"><ele>202.0</ele><time>2026-04-04T09:33:51.363Z</time></trkpt><trkpt lat="44.4089415" lon="11.1529308"><ele>202.0</ele><time>2026-04-04T09:33:53.373Z</time></trkpt><trkpt lat="44.4089248" lon="11.152762"><ele>202.0</ele><time>2026-04-04T09:33:55.376Z</time></trkpt><trkpt lat="44.4089068" lon="11.1525925"><ele>202.0</ele><time>2026-04-04T09:33:57.368Z</time></trkpt><trkpt lat="44.4088906" lon="11.152423"><ele>202.0</ele><time>2026-04-04T09:33:59.37Z</time></trkpt><trkpt lat="44.4088737" lon="11.1522555"><ele>202.0</ele><time>2026-04-04T09:34:01.366Z</time></trkpt><trkpt lat="44.4088583" lon="11.1520899"><ele>202.0</ele><time>2026-04-04T09:34:03.373Z</time></trkpt><trkpt lat="44.4088403" lon="11.1519251"><ele>202.0</ele><time>2026-04-04T09:34:05.375Z</time></trkpt><trkpt lat="44.4088271" lon="11.151758"><ele>202.0</ele><time>2026-04-04T09:34:07.358Z</time></trkpt><trkpt lat="44.4088197" lon="11.151589"><ele>203.25</ele><time>2026-04-04T09:34:09.381Z</time></trkpt><trkpt lat="44.4088229" lon="11.1514188"><ele>204.5</ele><time>2026-04-04T09:34:11.385Z</time></trkpt><trkpt lat="44.4088319" lon="11.151249"><ele>205.75</ele><time>2026-04-04T09:34:13.366Z</time></trkpt><trkpt lat="44.4088532" lon="11.1510813"><ele>207.0</ele><time>2026-04-04T09:34:15.373Z</time></trkpt><trkpt lat="44.4088723" lon="11.1509151"><ele>207.25</ele><time>2026-04-04T09:34:17.367Z</time></trkpt><trkpt lat="44.4088914" lon="11.1507523"><ele>207.5</ele><time>2026-04-04T09:34:19.369Z</time></trkpt><trkpt lat="44.4089122" lon="11.1505891"><ele>207.75</ele><time>2026-04-04T09:34:21.37Z</time></trkpt><trkpt lat="44.4089323" lon="11.1504252"><ele>208.0</ele><time>2026-04-04T09:34:23.377Z</time></trkpt><trkpt lat="44.4089515" lon="11.1502656"><ele>208.0</ele><time>2026-04-04T09:34:25.388Z</time></trkpt><trkpt lat="44.4089756" lon="11.1501051"><ele>208.0</ele><time>2026-04-04T09:34:27.372Z</time></trkpt><trkpt lat="44.409002" lon="11.1499472"><ele>208.0</ele><time>2026-04-04T09:34:29.365Z</time></trkpt><trkpt lat="44.4090398" lon="11.149793"><ele>208.0</ele><time>2026-04-04T09:34:31.37Z</time></trkpt><trkpt lat="44.4090828" lon="11.1496455"><ele>207.0</ele><time>2026-04-04T09:34:33.368Z</time></trkpt><trkpt lat="44.4091373" lon="11.149503"><ele>206.0</ele><time>2026-04-04T09:34:35.363Z</time></trkpt><trkpt lat="44.4091962" lon="11.1493609"><ele>205.0</ele><time>2026-04-04T09:34:37.372Z</time></trkpt><trkpt lat="44.4092651" lon="11.1492302"><ele>204.0</ele><time>2026-04-04T09:34:39.378Z</time></trkpt><trkpt lat="44.4093347" lon="11.1490943"><ele>204.0</ele><time>2026-04-04T09:34:41.362Z</time></trkpt><trkpt lat="44.4094031" lon="11.1489583"><ele>204.0</ele><time>2026-04-04T09:34:43.368Z</time></trkpt><trkpt lat="44.4094713" lon="11.148822"><ele>204.0</ele><time>2026-04-04T09:34:45.364Z</time></trkpt><trkpt lat="44.4095369" lon="11.1486836"><ele>204.0</ele><time>2026-04-04T09:34:47.365Z</time></trkpt><trkpt lat="44.4095982" lon="11.1485404"><ele>204.0</ele><time>2026-04-04T09:34:49.369Z</time></trkpt><trkpt lat="44.4096555" lon="11.1483918"><ele>204.0</ele><time>2026-04-04T09:34:51.372Z</time></trkpt><trkpt lat="44.4097088" lon="11.1482389"><ele>204.0</ele><time>2026-04-04T09:34:53.372Z</time></trkpt><trkpt lat="44.4097603" lon="11.1480857"><ele>204.0</ele><time>2026-04-04T09:34:55.375Z</time></trkpt><trkpt lat="44.4098085" lon="11.1479319"><ele>204.5</ele><time>2026-04-04T09:34:57.368Z</time></trkpt><trkpt lat="44.4098564" lon="11.1477789"><ele>205.0</ele><time>2026-04-04T09:34:59.376Z</time></trkpt><trkpt lat="44.4099017" lon="11.1476275"><ele>205.5</ele><time>2026-04-04T09:35:01.374Z</time></trkpt><trkpt lat="44.4099448" lon="11.1474749"><ele>206.0</ele><time>2026-04-04T09:35:03.366Z</time></trkpt><trkpt lat="44.4099881" lon="11.1473189"><ele>206.0</ele><time>2026-04-04T09:35:05.365Z</time></trkpt><trkpt lat="44.4100284" lon="11.1471662"><ele>206.0</ele><time>2026-04-04T09:35:07.38Z</time></trkpt><trkpt lat="44.4100702" lon="11.1470133"><ele>206.0</ele><time>2026-04-04T09:35:09.364Z</time></trkpt><trkpt lat="44.4101103" lon="11.1468577"><ele>206.0</ele><time>2026-04-04T09:35:11.37Z</time></trkpt><trkpt lat="44.4101456" lon="11.1466985"><ele>205.8</ele><time>2026-04-04T09:35:13.376Z</time></trkpt><trkpt lat="44.4101786" lon="11.1465342"><ele>205.60000000000002</ele><time>2026-04-04T09:35:15.362Z</time></trkpt><trkpt lat="44.4102075" lon="11.1463665"><ele>205.4</ele><time>2026-04-04T09:35:17.372Z</time></trkpt><trkpt lat="44.4102334" lon="11.1461972"><ele>205.2</ele><time>2026-04-04T09:35:19.365Z</time></trkpt><trkpt lat="44.4102469" lon="11.1461105"><ele>205.0</ele><time>2026-04-04T09:35:20.378Z</time></trkpt><trkpt lat="44.4102604" lon="11.1460238"><ele>205.0</ele><time>2026-04-04T09:35:21.368Z</time></trkpt><trkpt lat="44.4102725" lon="11.1459364"><ele>205.0</ele><time>2026-04-04T09:35:22.373Z</time></trkpt><trkpt lat="44.4102944" lon="11.1457653"><ele>205.0</ele><time>2026-04-04T09:35:24.377Z</time></trkpt><trkpt lat="44.4103175" lon="11.1455972"><ele>205.0</ele><time>2026-04-04T09:35:26.367Z</time></trkpt><trkpt lat="44.410343" lon="11.1454284"><ele>205.0</ele><time>2026-04-04T09:35:28.365Z</time></trkpt><trkpt lat="44.410367" lon="11.1452601"><ele>206.0</ele><time>2026-04-04T09:35:30.369Z</time></trkpt><trkpt lat="44.4103892" lon="11.1450935"><ele>207.0</ele><time>2026-04-04T09:35:32.361Z</time></trkpt><trkpt lat="44.4104134" lon="11.1449301"><ele>208.0</ele><time>2026-04-04T09:35:34.364Z</time></trkpt><trkpt lat="44.4104366" lon="11.1447641"><ele>209.0</ele><time>2026-04-04T09:35:36.375Z</time></trkpt><trkpt lat="44.4104593" lon="11.1445965"><ele>209.0</ele><time>2026-04-04T09:35:38.376Z</time></trkpt><trkpt lat="44.4104828" lon="11.1444301"><ele>209.0</ele><time>2026-04-04T09:35:40.369Z</time></trkpt><trkpt lat="44.4105059" lon="11.1442651"><ele>209.0</ele><time>2026-04-04T09:35:42.374Z</time></trkpt><trkpt lat="44.4105304" lon="11.1441004"><ele>209.0</ele><time>2026-04-04T09:35:44.373Z</time></trkpt><trkpt lat="44.4105535" lon="11.143937"><ele>210.0</ele><time>2026-04-04T09:35:46.375Z</time></trkpt><trkpt lat="44.4105793" lon="11.1437744"><ele>211.0</ele><time>2026-04-04T09:35:48.372Z</time></trkpt><trkpt lat="44.4106041" lon="11.1436123"><ele>212.0</ele><time>2026-04-04T09:35:50.365Z</time></trkpt><trkpt lat="44.4106299" lon="11.1434487"><ele>213.0</ele><time>2026-04-04T09:35:52.374Z</time></trkpt><trkpt lat="44.4106516" lon="11.1432908"><ele>213.0</ele><time>2026-04-04T09:35:54.372Z</time></trkpt><trkpt lat="44.410676" lon="11.1431304"><ele>213.0</ele><time>2026-04-04T09:35:56.366Z</time></trkpt><trkpt lat="44.4107035" lon="11.1429727"><ele>213.0</ele><time>2026-04-04T09:35:58.364Z</time></trkpt><trkpt lat="44.4107298" lon="11.1428118"><ele>213.0</ele><time>2026-04-04T09:36:00.371Z</time></trkpt><trkpt lat="44.4107555" lon="11.1426501"><ele>213.0</ele><time>2026-04-04T09:36:02.371Z</time></trkpt><trkpt lat="44.4107814" lon="11.1424863"><ele>213.0</ele><time>2026-04-04T09:36:04.372Z</time></trkpt><trkpt lat="44.4108095" lon="11.1423227"><ele>213.0</ele><time>2026-04-04T09:36:06.376Z</time></trkpt><trkpt lat="44.4108355" lon="11.1421634"><ele>213.0</ele><time>2026-04-04T09:36:08.368Z</time></trkpt><trkpt lat="44.4108622" lon="11.1420045"><ele>213.25</ele><time>2026-04-04T09:36:10.368Z</time></trkpt><trkpt lat="44.4108905" lon="11.1418464"><ele>213.5</ele><time>2026-04-04T09:36:12.38Z</time></trkpt><trkpt lat="44.4109174" lon="11.1416849"><ele>213.75</ele><time>2026-04-04T09:36:14.373Z</time></trkpt><trkpt lat="44.4109437" lon="11.1415278"><ele>214.0</ele><time>2026-04-04T09:36:16.365Z</time></trkpt><trkpt lat="44.4109688" lon="11.1413715"><ele>214.25</ele><time>2026-04-04T09:36:18.369Z</time></trkpt><trkpt lat="44.4109944" lon="11.141214"><ele>214.5</ele><time>2026-04-04T09:36:20.368Z</time></trkpt><trkpt lat="44.4110179" lon="11.141055"><ele>214.75</ele><time>2026-04-04T09:36:22.366Z</time></trkpt><trkpt lat="44.4110445" lon="11.1408954"><ele>215.0</ele><time>2026-04-04T09:36:24.366Z</time></trkpt><trkpt lat="44.4110679" lon="11.1407336"><ele>215.25</ele><time>2026-04-04T09:36:26.369Z</time></trkpt><trkpt lat="44.4110921" lon="11.1405759"><ele>215.5</ele><time>2026-04-04T09:36:28.366Z</time></trkpt><trkpt lat="44.4111184" lon="11.1404191"><ele>215.75</ele><time>2026-04-04T09:36:30.372Z</time></trkpt><trkpt lat="44.4111447" lon="11.1402598"><ele>216.0</ele><time>2026-04-04T09:36:32.367Z</time></trkpt><trkpt lat="44.4111678" lon="11.1400982"><ele>216.0</ele><time>2026-04-04T09:36:34.368Z</time></trkpt><trkpt lat="44.4111924" lon="11.1399291"><ele>216.0</ele><time>2026-04-04T09:36:36.37Z</time></trkpt><trkpt lat="44.4112169" lon="11.1397641"><ele>216.0</ele><time>2026-04-04T09:36:38.361Z</time></trkpt><trkpt lat="44.4112424" lon="11.1396018"><ele>216.0</ele><time>2026-04-04T09:36:40.372Z</time></trkpt><trkpt lat="44.411267" lon="11.1394423"><ele>216.25</ele><time>2026-04-04T09:36:42.361Z</time></trkpt><trkpt lat="44.4112891" lon="11.1392841"><ele>216.5</ele><time>2026-04-04T09:36:44.36Z</time></trkpt><trkpt lat="44.4113115" lon="11.1391262"><ele>216.75</ele><time>2026-04-04T09:36:46.364Z</time></trkpt><trkpt lat="44.411333" lon="11.1389676"><ele>217.0</ele><time>2026-04-04T09:36:48.37Z</time></trkpt><trkpt lat="44.4113539" lon="11.138808"><ele>217.75</ele><time>2026-04-04T09:36:50.364Z</time></trkpt><trkpt lat="44.4113715" lon="11.1386517"><ele>218.5</ele><time>2026-04-04T09:36:52.369Z</time></trkpt><trkpt lat="44.411389" lon="11.1384959"><ele>219.25</ele><time>2026-04-04T09:36:54.378Z</time></trkpt><trkpt lat="44.4114034" lon="11.1383328"><ele>220.0</ele><time>2026-04-04T09:36:56.381Z</time></trkpt><trkpt lat="44.4114089" lon="11.1381707"><ele>220.5</ele><time>2026-04-04T09:36:58.369Z</time></trkpt><trkpt lat="44.4114088" lon="11.1380066"><ele>221.0</ele><time>2026-04-04T09:37:00.367Z</time></trkpt><trkpt lat="44.4114012" lon="11.1378423"><ele>221.5</ele><time>2026-04-04T09:37:02.372Z</time></trkpt><trkpt lat="44.4113879" lon="11.137675"><ele>222.0</ele><time>2026-04-04T09:37:04.364Z</time></trkpt><trkpt lat="44.4113712" lon="11.1375074"><ele>221.75</ele><time>2026-04-04T09:37:06.362Z</time></trkpt><trkpt lat="44.4113539" lon="11.13735"><ele>221.5</ele><time>2026-04-04T09:37:08.367Z</time></trkpt><trkpt lat="44.4113344" lon="11.1371912"><ele>221.25</ele><time>2026-04-04T09:37:10.372Z</time></trkpt><trkpt lat="44.4113154" lon="11.1370349"><ele>221.0</ele><time>2026-04-04T09:37:12.363Z</time></trkpt><trkpt lat="44.4112956" lon="11.136879"><ele>220.75</ele><time>2026-04-04T09:37:14.362Z</time></trkpt><trkpt lat="44.4112729" lon="11.1367151"><ele>220.5</ele><time>2026-04-04T09:37:16.359Z</time></trkpt><trkpt lat="44.4112417" lon="11.1365601"><ele>220.25</ele><time>2026-04-04T09:37:18.371Z</time></trkpt><trkpt lat="44.4112064" lon="11.1364063"><ele>220.0</ele><time>2026-04-04T09:37:20.364Z</time></trkpt><trkpt lat="44.4111668" lon="11.1362509"><ele>220.0</ele><time>2026-04-04T09:37:22.371Z</time></trkpt><trkpt lat="44.4111247" lon="11.1361013"><ele>220.0</ele><time>2026-04-04T09:37:24.375Z</time></trkpt><trkpt lat="44.4110745" lon="11.1359589"><ele>220.0</ele><time>2026-04-04T09:37:26.371Z</time></trkpt><trkpt lat="44.4110232" lon="11.1358155"><ele>220.0</ele><time>2026-04-04T09:37:28.37Z</time></trkpt><trkpt lat="44.4109698" lon="11.135671"><ele>220.5</ele><time>2026-04-04T09:37:30.37Z</time></trkpt><trkpt lat="44.4109126" lon="11.1355313"><ele>221.0</ele><time>2026-04-04T09:37:32.381Z</time></trkpt><trkpt lat="44.4108555" lon="11.135387"><ele>221.5</ele><time>2026-04-04T09:37:34.37Z</time></trkpt><trkpt lat="44.4107991" lon="11.1352432"><ele>222.0</ele><time>2026-04-04T09:37:36.372Z</time></trkpt><trkpt lat="44.4107424" lon="11.1351024"><ele>222.0</ele><time>2026-04-04T09:37:38.373Z</time></trkpt><trkpt lat="44.4106858" lon="11.1349582"><ele>222.0</ele><time>2026-04-04T09:37:40.375Z</time></trkpt><trkpt lat="44.4106298" lon="11.1348138"><ele>222.0</ele><time>2026-04-04T09:37:42.374Z</time></trkpt><trkpt lat="44.4105727" lon="11.1346723"><ele>222.0</ele><time>2026-04-04T09:37:44.369Z</time></trkpt><trkpt lat="44.4105179" lon="11.1345278"><ele>222.0</ele><time>2026-04-04T09:37:46.371Z</time></trkpt><trkpt lat="44.4104607" lon="11.1343843"><ele>222.0</ele><time>2026-04-04T09:37:48.37Z</time></trkpt><trkpt lat="44.4104046" lon="11.1342399"><ele>222.0</ele><time>2026-04-04T09:37:50.373Z</time></trkpt><trkpt lat="44.4103471" lon="11.1340958"><ele>222.0</ele><time>2026-04-04T09:37:52.37Z</time></trkpt><trkpt lat="44.4102903" lon="11.1339517"><ele>222.25</ele><time>2026-04-04T09:37:54.373Z</time></trkpt><trkpt lat="44.4102355" lon="11.1338076"><ele>222.5</ele><time>2026-04-04T09:37:56.36Z</time></trkpt><trkpt lat="44.4101784" lon="11.1336642"><ele>222.75</ele><time>2026-04-04T09:37:58.363Z</time></trkpt><trkpt lat="44.4101209" lon="11.133522"><ele>223.0</ele><time>2026-04-04T09:38:00.375Z</time></trkpt><trkpt lat="44.4100642" lon="11.1333753"><ele>223.0</ele><time>2026-04-04T09:38:02.37Z</time></trkpt><trkpt lat="44.4100075" lon="11.1332274"><ele>223.0</ele><time>2026-04-04T09:38:04.373Z</time></trkpt><trkpt lat="44.4099491" lon="11.1330777"><ele>223.0</ele><time>2026-04-04T09:38:06.375Z</time></trkpt><trkpt lat="44.4098924" lon="11.1329299"><ele>223.0</ele><time>2026-04-04T09:38:08.364Z</time></trkpt><trkpt lat="44.4098356" lon="11.1327852"><ele>223.75</ele><time>2026-04-04T09:38:10.369Z</time></trkpt><trkpt lat="44.4097793" lon="11.1326413"><ele>224.5</ele><time>2026-04-04T09:38:12.371Z</time></trkpt><trkpt lat="44.4097234" lon="11.1324984"><ele>225.25</ele><time>2026-04-04T09:38:14.369Z</time></trkpt><trkpt lat="44.4096678" lon="11.1323549"><ele>226.0</ele><time>2026-04-04T09:38:16.369Z</time></trkpt><trkpt lat="44.4096115" lon="11.1322141"><ele>226.5</ele><time>2026-04-04T09:38:18.372Z</time></trkpt><trkpt lat="44.4095557" lon="11.1320705"><ele>227.0</ele><time>2026-04-04T09:38:20.372Z</time></trkpt><trkpt lat="44.4094983" lon="11.1319265"><ele>227.5</ele><time>2026-04-04T09:38:22.365Z</time></trkpt><trkpt lat="44.4094417" lon="11.1317809"><ele>228.0</ele><time>2026-04-04T09:38:24.367Z</time></trkpt><trkpt lat="44.4093856" lon="11.131638"><ele>227.5</ele><time>2026-04-04T09:38:26.369Z</time></trkpt><trkpt lat="44.4093292" lon="11.1314915"><ele>227.0</ele><time>2026-04-04T09:38:28.379Z</time></trkpt><trkpt lat="44.4092722" lon="11.1313465"><ele>226.5</ele><time>2026-04-04T09:38:30.37Z</time></trkpt><trkpt lat="44.4092163" lon="11.1312033"><ele>226.0</ele><time>2026-04-04T09:38:32.367Z</time></trkpt><trkpt lat="44.4091616" lon="11.1310606"><ele>226.0</ele><time>2026-04-04T09:38:34.372Z</time></trkpt><trkpt lat="44.4091052" lon="11.1309195"><ele>226.0</ele><time>2026-04-04T09:38:36.381Z</time></trkpt><trkpt lat="44.4090488" lon="11.130778"><ele>226.0</ele><time>2026-04-04T09:38:38.364Z</time></trkpt><trkpt lat="44.4089928" lon="11.1306364"><ele>226.0</ele><time>2026-04-04T09:38:40.365Z</time></trkpt><trkpt lat="44.4089367" lon="11.1304945"><ele>227.0</ele><time>2026-04-04T09:38:42.374Z</time></trkpt><trkpt lat="44.4088803" lon="11.1303524"><ele>228.0</ele><time>2026-04-04T09:38:44.372Z</time></trkpt><trkpt lat="44.4088251" lon="11.1302106"><ele>229.0</ele><time>2026-04-04T09:38:46.372Z</time></trkpt><trkpt lat="44.4087685" lon="11.130068"><ele>230.0</ele><time>2026-04-04T09:38:48.366Z</time></trkpt><trkpt lat="44.4087133" lon="11.1299236"><ele>230.5</ele><time>2026-04-04T09:38:50.377Z</time></trkpt><trkpt lat="44.4086577" lon="11.1297815"><ele>231.0</ele><time>2026-04-04T09:38:52.36Z</time></trkpt><trkpt lat="44.4086035" lon="11.1296386"><ele>231.5</ele><time>2026-04-04T09:38:54.366Z</time></trkpt><trkpt lat="44.4085488" lon="11.1294974"><ele>232.0</ele><time>2026-04-04T09:38:56.375Z</time></trkpt><trkpt lat="44.4084935" lon="11.1293575"><ele>232.0</ele><time>2026-04-04T09:38:58.37Z</time></trkpt><trkpt lat="44.4084379" lon="11.1292161"><ele>232.0</ele><time>2026-04-04T09:39:00.366Z</time></trkpt><trkpt lat="44.4083832" lon="11.1290742"><ele>232.0</ele><time>2026-04-04T09:39:02.37Z</time></trkpt><trkpt lat="44.4083272" lon="11.1289309"><ele>232.0</ele><time>2026-04-04T09:39:04.372Z</time></trkpt><trkpt lat="44.4082713" lon="11.1287868"><ele>233.0</ele><time>2026-04-04T09:39:06.372Z</time></trkpt><trkpt lat="44.4082158" lon="11.128644"><ele>234.0</ele><time>2026-04-04T09:39:08.383Z</time></trkpt><trkpt lat="44.4081591" lon="11.1284999"><ele>235.0</ele><time>2026-04-04T09:39:10.369Z</time></trkpt><trkpt lat="44.4081029" lon="11.1283572"><ele>236.0</ele><time>2026-04-04T09:39:12.376Z</time></trkpt><trkpt lat="44.4080481" lon="11.1282172"><ele>236.25</ele><time>2026-04-04T09:39:14.374Z</time></trkpt><trkpt lat="44.4079937" lon="11.1280766"><ele>236.5</ele><time>2026-04-04T09:39:16.368Z</time></trkpt><trkpt lat="44.4079365" lon="11.1279356"><ele>236.75</ele><time>2026-04-04T09:39:18.369Z</time></trkpt><trkpt lat="44.4078803" lon="11.1277943"><ele>237.0</ele><time>2026-04-04T09:39:20.375Z</time></trkpt><trkpt lat="44.4078208" lon="11.1276529"><ele>237.25</ele><time>2026-04-04T09:39:22.373Z</time></trkpt><trkpt lat="44.4077647" lon="11.1275066"><ele>237.5</ele><time>2026-04-04T09:39:24.379Z</time></trkpt><trkpt lat="44.4077114" lon="11.1273591"><ele>237.75</ele><time>2026-04-04T09:39:26.383Z</time></trkpt><trkpt lat="44.4076545" lon="11.1272179"><ele>238.0</ele><time>2026-04-04T09:39:28.385Z</time></trkpt><trkpt lat="44.4075941" lon="11.1270808"><ele>238.0</ele><time>2026-04-04T09:39:30.372Z</time></trkpt><trkpt lat="44.4075303" lon="11.1269497"><ele>238.0</ele><time>2026-04-04T09:39:32.369Z</time></trkpt><trkpt lat="44.4074568" lon="11.1268332"><ele>238.0</ele><time>2026-04-04T09:39:34.363Z</time></trkpt><trkpt lat="44.4073792" lon="11.126724"><ele>238.0</ele><time>2026-04-04T09:39:36.349Z</time></trkpt><trkpt lat="44.4072994" lon="11.1266192"><ele>238.0</ele><time>2026-04-04T09:39:38.386Z</time></trkpt><trkpt lat="44.4072133" lon="11.1265288"><ele>239.5</ele><time>2026-04-04T09:39:40.372Z</time></trkpt><trkpt lat="44.4071237" lon="11.1264478"><ele>241.0</ele><time>2026-04-04T09:39:42.366Z</time></trkpt><trkpt lat="44.4070242" lon="11.1263619"><ele>242.5</ele><time>2026-04-04T09:39:44.371Z</time></trkpt><trkpt lat="44.4069263" lon="11.1262794"><ele>244.0</ele><time>2026-04-04T09:39:46.381Z</time></trkpt><trkpt lat="44.4068247" lon="11.1261912"><ele>244.0</ele><time>2026-04-04T09:39:48.355Z</time></trkpt><trkpt lat="44.4067202" lon="11.1261001"><ele>244.0</ele><time>2026-04-04T09:39:50.368Z</time></trkpt><trkpt lat="44.4066157" lon="11.1260091"><ele>244.0</ele><time>2026-04-04T09:39:52.369Z</time></trkpt><trkpt lat="44.4065128" lon="11.125921"><ele>244.0</ele><time>2026-04-04T09:39:54.368Z</time></trkpt><trkpt lat="44.4064124" lon="11.125838"><ele>242.5</ele><time>2026-04-04T09:39:56.376Z</time></trkpt><trkpt lat="44.4063096" lon="11.1257501"><ele>241.0</ele><time>2026-04-04T09:39:58.364Z</time></trkpt><trkpt lat="44.4062062" lon="11.125665"><ele>239.5</ele><time>2026-04-04T09:40:00.367Z</time></trkpt><trkpt lat="44.4061048" lon="11.1255705"><ele>238.0</ele><time>2026-04-04T09:40:02.373Z</time></trkpt><trkpt lat="44.4060041" lon="11.1254836"><ele>238.0</ele><time>2026-04-04T09:40:04.375Z</time></trkpt><trkpt lat="44.405905" lon="11.1254035"><ele>238.0</ele><time>2026-04-04T09:40:06.38Z</time></trkpt><trkpt lat="44.4058027" lon="11.1253197"><ele>238.0</ele><time>2026-04-04T09:40:08.369Z</time></trkpt><trkpt lat="44.4057056" lon="11.1252345"><ele>238.0</ele><time>2026-04-04T09:40:10.372Z</time></trkpt><trkpt lat="44.4056089" lon="11.125151"><ele>238.0</ele><time>2026-04-04T09:40:12.377Z</time></trkpt><trkpt lat="44.4055093" lon="11.1250684"><ele>238.0</ele><time>2026-04-04T09:40:14.374Z</time></trkpt><trkpt lat="44.4054122" lon="11.124986"><ele>238.0</ele><time>2026-04-04T09:40:16.372Z</time></trkpt><trkpt lat="44.4053141" lon="11.1249094"><ele>238.0</ele><time>2026-04-04T09:40:18.37Z</time></trkpt><trkpt lat="44.4052162" lon="11.1248399"><ele>239.75</ele><time>2026-04-04T09:40:20.367Z</time></trkpt><trkpt lat="44.4051189" lon="11.1247859"><ele>241.5</ele><time>2026-04-04T09:40:22.37Z</time></trkpt><trkpt lat="44.4050078" lon="11.1247325"><ele>243.25</ele><time>2026-04-04T09:40:24.371Z</time></trkpt><trkpt lat="44.404895" lon="11.1246821"><ele>245.0</ele><time>2026-04-04T09:40:26.377Z</time></trkpt><trkpt lat="44.4047844" lon="11.1246426"><ele>245.0</ele><time>2026-04-04T09:40:28.373Z</time></trkpt><trkpt lat="44.4046649" lon="11.124606"><ele>245.0</ele><time>2026-04-04T09:40:30.372Z</time></trkpt><trkpt lat="44.4045515" lon="11.1245713"><ele>245.0</ele><time>2026-04-04T09:40:32.372Z</time></trkpt><trkpt lat="44.4044355" lon="11.1245375"><ele>245.0</ele><time>2026-04-04T09:40:34.365Z</time></trkpt><trkpt lat="44.4043219" lon="11.124502"><ele>244.75</ele><time>2026-04-04T09:40:36.366Z</time></trkpt><trkpt lat="44.404209" lon="11.1244653"><ele>244.5</ele><time>2026-04-04T09:40:38.378Z</time></trkpt><trkpt lat="44.4040981" lon="11.1244313"><ele>244.25</ele><time>2026-04-04T09:40:40.375Z</time></trkpt><trkpt lat="44.4039872" lon="11.1243983"><ele>244.0</ele><time>2026-04-04T09:40:42.377Z</time></trkpt><trkpt lat="44.4038757" lon="11.1243661"><ele>244.25</ele><time>2026-04-04T09:40:44.379Z</time></trkpt><trkpt lat="44.4037708" lon="11.1243372"><ele>244.5</ele><time>2026-04-04T09:40:46.369Z</time></trkpt><trkpt lat="44.403663" lon="11.1243049"><ele>244.75</ele><time>2026-04-04T09:40:48.367Z</time></trkpt><trkpt lat="44.4035481" lon="11.1242707"><ele>245.0</ele><time>2026-04-04T09:40:50.373Z</time></trkpt><trkpt lat="44.4034354" lon="11.1242332"><ele>245.0</ele><time>2026-04-04T09:40:52.367Z</time></trkpt><trkpt lat="44.4033241" lon="11.1241957"><ele>245.0</ele><time>2026-04-04T09:40:54.362Z</time></trkpt><trkpt lat="44.4032175" lon="11.1241582"><ele>245.0</ele><time>2026-04-04T09:40:56.385Z</time></trkpt><trkpt lat="44.4031083" lon="11.1241148"><ele>245.0</ele><time>2026-04-04T09:40:58.365Z</time></trkpt><trkpt lat="44.4029973" lon="11.1240692"><ele>245.6</ele><time>2026-04-04T09:41:00.382Z</time></trkpt><trkpt lat="44.4028892" lon="11.124021"><ele>246.2</ele><time>2026-04-04T09:41:02.379Z</time></trkpt><trkpt lat="44.4027845" lon="11.1239718"><ele>246.8</ele><time>2026-04-04T09:41:04.369Z</time></trkpt><trkpt lat="44.402681" lon="11.1239261"><ele>247.4</ele><time>2026-04-04T09:41:06.379Z</time></trkpt><trkpt lat="44.4025811" lon="11.12388"><ele>248.0</ele><time>2026-04-04T09:41:08.371Z</time></trkpt><trkpt lat="44.4024753" lon="11.1238268"><ele>248.0</ele><time>2026-04-04T09:41:10.372Z</time></trkpt><trkpt lat="44.4023722" lon="11.123777"><ele>248.0</ele><time>2026-04-04T09:41:12.373Z</time></trkpt><trkpt lat="44.4022693" lon="11.1237262"><ele>248.0</ele><time>2026-04-04T09:41:14.365Z</time></trkpt><trkpt lat="44.4021691" lon="11.1236798"><ele>248.0</ele><time>2026-04-04T09:41:16.371Z</time></trkpt><trkpt lat="44.402071" lon="11.1236337"><ele>248.0</ele><time>2026-04-04T09:41:18.373Z</time></trkpt><trkpt lat="44.4019655" lon="11.1235824"><ele>248.0</ele><time>2026-04-04T09:41:20.376Z</time></trkpt><trkpt lat="44.401861" lon="11.1235337"><ele>248.0</ele><time>2026-04-04T09:41:22.379Z</time></trkpt><trkpt lat="44.4017589" lon="11.1234835"><ele>248.0</ele><time>2026-04-04T09:41:24.376Z</time></trkpt><trkpt lat="44.4016529" lon="11.1234316"><ele>248.0</ele><time>2026-04-04T09:41:26.366Z</time></trkpt><trkpt lat="44.4015466" lon="11.12338"><ele>248.0</ele><time>2026-04-04T09:41:28.375Z</time></trkpt><trkpt lat="44.4014446" lon="11.1233289"><ele>248.0</ele><time>2026-04-04T09:41:30.37Z</time></trkpt><trkpt lat="44.4013434" lon="11.123282"><ele>248.0</ele><time>2026-04-04T09:41:32.374Z</time></trkpt><trkpt lat="44.4012404" lon="11.1232379"><ele>248.0</ele><time>2026-04-04T09:41:34.372Z</time></trkpt><trkpt lat="44.401135" lon="11.1232009"><ele>248.0</ele><time>2026-04-04T09:41:36.374Z</time></trkpt><trkpt lat="44.4010314" lon="11.1231654"><ele>248.0</ele><time>2026-04-04T09:41:38.373Z</time></trkpt><trkpt lat="44.400928" lon="11.1231355"><ele>249.8</ele><time>2026-04-04T09:41:40.374Z</time></trkpt><trkpt lat="44.4008155" lon="11.1231031"><ele>251.60000000000002</ele><time>2026-04-04T09:41:42.368Z</time></trkpt><trkpt lat="44.4007077" lon="11.1230692"><ele>253.39999999999998</ele><time>2026-04-04T09:41:44.361Z</time></trkpt><trkpt lat="44.4006043" lon="11.1230401"><ele>255.2</ele><time>2026-04-04T09:41:46.37Z</time></trkpt><trkpt lat="44.4004923" lon="11.123007"><ele>257.0</ele><time>2026-04-04T09:41:48.365Z</time></trkpt><trkpt lat="44.4003935" lon="11.12298"><ele>257.0</ele><time>2026-04-04T09:41:50.372Z</time></trkpt><trkpt lat="44.4002972" lon="11.1229521"><ele>257.0</ele><time>2026-04-04T09:41:52.367Z</time></trkpt><trkpt lat="44.4001993" lon="11.1229262"><ele>257.0</ele><time>2026-04-04T09:41:54.381Z</time></trkpt><trkpt lat="44.4000997" lon="11.1228954"><ele>257.0</ele><time>2026-04-04T09:41:56.365Z</time></trkpt><trkpt lat="44.3999982" lon="11.1228647"><ele>257.0</ele><time>2026-04-04T09:41:58.367Z</time></trkpt><trkpt lat="44.3998968" lon="11.1228299"><ele>257.0</ele><time>2026-04-04T09:42:00.364Z</time></trkpt><trkpt lat="44.3997964" lon="11.1227996"><ele>257.0</ele><time>2026-04-04T09:42:02.37Z</time></trkpt><trkpt lat="44.3996946" lon="11.1227675"><ele>257.0</ele><time>2026-04-04T09:42:04.369Z</time></trkpt><trkpt lat="44.3995848" lon="11.1227417"><ele>257.0</ele><time>2026-04-04T09:42:06.378Z</time></trkpt><trkpt lat="44.3994804" lon="11.1227243"><ele>257.0</ele><time>2026-04-04T09:42:08.366Z</time></trkpt><trkpt lat="44.3993753" lon="11.1227116"><ele>257.2</ele><time>2026-04-04T09:42:10.371Z</time></trkpt><trkpt lat="44.3992628" lon="11.1227076"><ele>257.4</ele><time>2026-04-04T09:42:12.367Z</time></trkpt><trkpt lat="44.3991499" lon="11.1227193"><ele>257.6</ele><time>2026-04-04T09:42:14.368Z</time></trkpt><trkpt lat="44.3990387" lon="11.1227454"><ele>257.8</ele><time>2026-04-04T09:42:16.369Z</time></trkpt><trkpt lat="44.3989319" lon="11.1227848"><ele>258.0</ele><time>2026-04-04T09:42:18.377Z</time></trkpt><trkpt lat="44.3988285" lon="11.1228407"><ele>259.2</ele><time>2026-04-04T09:42:20.366Z</time></trkpt><trkpt lat="44.398731" lon="11.1229053"><ele>260.4</ele><time>2026-04-04T09:42:22.376Z</time></trkpt><trkpt lat="44.3986422" lon="11.1229848"><ele>261.59999999999997</ele><time>2026-04-04T09:42:24.38Z</time></trkpt><trkpt lat="44.3985555" lon="11.1230655"><ele>262.8</ele><time>2026-04-04T09:42:26.372Z</time></trkpt><trkpt lat="44.3984673" lon="11.1231497"><ele>264.0</ele><time>2026-04-04T09:42:28.371Z</time></trkpt><trkpt lat="44.3983805" lon="11.1232375"><ele>264.0</ele><time>2026-04-04T09:42:30.378Z</time></trkpt><trkpt lat="44.3982949" lon="11.1233242"><ele>264.0</ele><time>2026-04-04T09:42:32.374Z</time></trkpt><trkpt lat="44.3982183" lon="11.123411"><ele>264.0</ele><time>2026-04-04T09:42:34.371Z</time></trkpt><trkpt lat="44.3981464" lon="11.1234971"><ele>264.0</ele><time>2026-04-04T09:42:36.371Z</time></trkpt><trkpt lat="44.398053" lon="11.1235837"><ele>264.0</ele><time>2026-04-04T09:42:38.378Z</time></trkpt><trkpt lat="44.3979714" lon="11.1236747"><ele>264.8</ele><time>2026-04-04T09:42:40.366Z</time></trkpt><trkpt lat="44.397882" lon="11.1237641"><ele>265.59999999999997</ele><time>2026-04-04T09:42:42.372Z</time></trkpt><trkpt lat="44.397798" lon="11.1238489"><ele>266.4</ele><time>2026-04-04T09:42:44.371Z</time></trkpt><trkpt lat="44.3977071" lon="11.1239313"><ele>267.2</ele><time>2026-04-04T09:42:46.365Z</time></trkpt><trkpt lat="44.3976184" lon="11.1240064"><ele>268.0</ele><time>2026-04-04T09:42:48.38Z</time></trkpt><trkpt lat="44.3975216" lon="11.1240744"><ele>268.0</ele><time>2026-04-04T09:42:50.37Z</time></trkpt><trkpt lat="44.3974107" lon="11.1241246"><ele>268.0</ele><time>2026-04-04T09:42:52.375Z</time></trkpt><trkpt lat="44.3973477" lon="11.1241437"><ele>268.0</ele><time>2026-04-04T09:42:53.368Z</time></trkpt><trkpt lat="44.3972312" lon="11.1241613"><ele>268.0</ele><time>2026-04-04T09:42:55.366Z</time></trkpt><trkpt lat="44.3971141" lon="11.1241605"><ele>268.0</ele><time>2026-04-04T09:42:57.369Z</time></trkpt><trkpt lat="44.3969956" lon="11.1241378"><ele>268.5</ele><time>2026-04-04T09:42:59.369Z</time></trkpt><trkpt lat="44.3968819" lon="11.1240925"><ele>269.0</ele><time>2026-04-04T09:43:01.383Z</time></trkpt><trkpt lat="44.396771" lon="11.1240357"><ele>269.5</ele><time>2026-04-04T09:43:03.361Z</time></trkpt><trkpt lat="44.3966692" lon="11.1239847"><ele>270.0</ele><time>2026-04-04T09:43:05.374Z</time></trkpt><trkpt lat="44.3965674" lon="11.1239367"><ele>270.8</ele><time>2026-04-04T09:43:07.367Z</time></trkpt><trkpt lat="44.3964638" lon="11.1238894"><ele>271.6</ele><time>2026-04-04T09:43:09.37Z</time></trkpt><trkpt lat="44.3963566" lon="11.1238403"><ele>272.4</ele><time>2026-04-04T09:43:11.373Z</time></trkpt><trkpt lat="44.3962472" lon="11.123803"><ele>273.2</ele><time>2026-04-04T09:43:13.37Z</time></trkpt><trkpt lat="44.396136" lon="11.1237788"><ele>274.0</ele><time>2026-04-04T09:43:15.37Z</time></trkpt><trkpt lat="44.3960332" lon="11.1237662"><ele>274.0</ele><time>2026-04-04T09:43:17.369Z</time></trkpt><trkpt lat="44.3959299" lon="11.1237584"><ele>274.0</ele><time>2026-04-04T09:43:19.367Z</time></trkpt><trkpt lat="44.395821" lon="11.123756"><ele>274.0</ele><time>2026-04-04T09:43:21.371Z</time></trkpt><trkpt lat="44.3957098" lon="11.1237545"><ele>274.0</ele><time>2026-04-04T09:43:23.364Z</time></trkpt><trkpt lat="44.395605" lon="11.1237562"><ele>274.0</ele><time>2026-04-04T09:43:25.364Z</time></trkpt><trkpt lat="44.3955019" lon="11.1237605"><ele>274.4</ele><time>2026-04-04T09:43:27.369Z</time></trkpt><trkpt lat="44.3954028" lon="11.1237732"><ele>274.79999999999995</ele><time>2026-04-04T09:43:29.376Z</time></trkpt><trkpt lat="44.3953066" lon="11.1237947"><ele>275.20000000000005</ele><time>2026-04-04T09:43:31.381Z</time></trkpt><trkpt lat="44.3952019" lon="11.1238139"><ele>275.6</ele><time>2026-04-04T09:43:33.38Z</time></trkpt><trkpt lat="44.3951018" lon="11.1238491"><ele>276.0</ele><time>2026-04-04T09:43:35.368Z</time></trkpt><trkpt lat="44.394996" lon="11.1238832"><ele>276.0</ele><time>2026-04-04T09:43:37.373Z</time></trkpt><trkpt lat="44.3948919" lon="11.1239188"><ele>276.0</ele><time>2026-04-04T09:43:39.377Z</time></trkpt><trkpt lat="44.394792" lon="11.1239673"><ele>276.0</ele><time>2026-04-04T09:43:41.366Z</time></trkpt><trkpt lat="44.3946915" lon="11.1240128"><ele>276.0</ele><time>2026-04-04T09:43:43.375Z</time></trkpt><trkpt lat="44.3945932" lon="11.1240615"><ele>276.0</ele><time>2026-04-04T09:43:45.374Z</time></trkpt><trkpt lat="44.3944915" lon="11.1241056"><ele>275.40000000000003</ele><time>2026-04-04T09:43:47.373Z</time></trkpt><trkpt lat="44.394396" lon="11.12415"><ele>274.8</ele><time>2026-04-04T09:43:49.376Z</time></trkpt><trkpt lat="44.3943005" lon="11.1241964"><ele>274.20000000000005</ele><time>2026-04-04T09:43:51.381Z</time></trkpt><trkpt lat="44.3942068" lon="11.1242443"><ele>273.6</ele><time>2026-04-04T09:43:53.385Z</time></trkpt><trkpt lat="44.3941148" lon="11.1242923"><ele>273.0</ele><time>2026-04-04T09:43:55.376Z</time></trkpt><trkpt lat="44.3940315" lon="11.1243341"><ele>273.0</ele><time>2026-04-04T09:43:57.375Z</time></trkpt><trkpt lat="44.3939403" lon="11.1243795"><ele>273.0</ele><time>2026-04-04T09:43:59.368Z</time></trkpt><trkpt lat="44.3938522" lon="11.1244302"><ele>273.0</ele><time>2026-04-04T09:44:01.375Z</time></trkpt><trkpt lat="44.3937708" lon="11.1244726"><ele>273.0</ele><time>2026-04-04T09:44:03.359Z</time></trkpt><trkpt lat="44.3937007" lon="11.1245118"><ele>273.0</ele><time>2026-04-04T09:44:05.389Z</time></trkpt><trkpt lat="44.3936253" lon="11.1245494"><ele>273.0</ele><time>2026-04-04T09:44:07.366Z</time></trkpt><trkpt lat="44.3935598" lon="11.124592"><ele>273.85714285714283</ele><time>2026-04-04T09:44:09.373Z</time></trkpt><trkpt lat="44.3934925" lon="11.1246314"><ele>274.7142857142857</ele><time>2026-04-04T09:44:11.376Z</time></trkpt><trkpt lat="44.3934207" lon="11.1246674"><ele>275.57142857142856</ele><time>2026-04-04T09:44:13.368Z</time></trkpt><trkpt lat="44.3933457" lon="11.1246926"><ele>276.42857142857144</ele><time>2026-04-04T09:44:15.364Z</time></trkpt><trkpt lat="44.3932729" lon="11.1247172"><ele>277.2857142857143</ele><time>2026-04-04T09:44:17.369Z</time></trkpt><trkpt lat="44.3931982" lon="11.1247081"><ele>278.1428571428571</ele><time>2026-04-04T09:44:19.367Z</time></trkpt><trkpt lat="44.393141" lon="11.1246679"><ele>279.0</ele><time>2026-04-04T09:44:21.371Z</time></trkpt><trkpt lat="44.3930827" lon="11.124601"><ele>278.99999999999994</ele><time>2026-04-04T09:44:24.378Z</time></trkpt><trkpt lat="44.3930357" lon="11.1245366"><ele>279.0</ele><time>2026-04-04T09:44:28.367Z</time></trkpt><trkpt lat="44.3929938" lon="11.1244443"><ele>279.0</ele><time>2026-04-04T09:44:31.366Z</time></trkpt><trkpt lat="44.3929639" lon="11.1243633"><ele>279.0</ele><time>2026-04-04T09:47:35.384Z</time></trkpt><trkpt lat="44.3929221" lon="11.1242836"><ele>279.0</ele><time>2026-04-04T09:47:41.367Z</time></trkpt><trkpt lat="44.3928826" lon="11.1242031"><ele>278.99999999999994</ele><time>2026-04-04T09:47:45.384Z</time></trkpt><trkpt lat="44.3928469" lon="11.1241071"><ele>279.0</ele><time>2026-04-04T09:47:49.37Z</time></trkpt><trkpt lat="44.3928155" lon="11.1240195"><ele>279.57142857142856</ele><time>2026-04-04T09:47:52.365Z</time></trkpt><trkpt lat="44.3927744" lon="11.1239342"><ele>280.1428571428571</ele><time>2026-04-04T09:47:55.373Z</time></trkpt><trkpt lat="44.3927445" lon="11.1238387"><ele>280.7142857142857</ele><time>2026-04-04T09:47:58.368Z</time></trkpt><trkpt lat="44.392712" lon="11.1237347"><ele>281.2857142857143</ele><time>2026-04-04T09:48:01.366Z</time></trkpt><trkpt lat="44.3926821" lon="11.1236388"><ele>281.8571428571429</ele><time>2026-04-04T09:48:04.371Z</time></trkpt><trkpt lat="44.3926437" lon="11.123553"><ele>282.42857142857144</ele><time>2026-04-04T09:48:07.374Z</time></trkpt><trkpt lat="44.3925987" lon="11.1234761"><ele>283.0</ele><time>2026-04-04T09:48:10.373Z</time></trkpt><trkpt lat="44.3925395" lon="11.1233962"><ele>283.0</ele><time>2026-04-04T09:48:13.369Z</time></trkpt><trkpt lat="44.3924792" lon="11.1233217"><ele>283.0</ele><time>2026-04-04T09:48:16.366Z</time></trkpt><trkpt lat="44.3924099" lon="11.1232494"><ele>283.0</ele><time>2026-04-04T09:48:19.368Z</time></trkpt><trkpt lat="44.3923492" lon="11.1231812"><ele>283.0</ele><time>2026-04-04T09:48:22.367Z</time></trkpt><trkpt lat="44.3922864" lon="11.1231105"><ele>283.0</ele><time>2026-04-04T09:48:25.365Z</time></trkpt><trkpt lat="44.3922326" lon="11.1230331"><ele>283.0</ele><time>2026-04-04T09:48:28.371Z</time></trkpt><trkpt lat="44.3921719" lon="11.1229605"><ele>284.3333333333333</ele><time>2026-04-04T09:48:31.369Z</time></trkpt><trkpt lat="44.3921137" lon="11.12289"><ele>285.66666666666663</ele><time>2026-04-04T09:48:34.37Z</time></trkpt><trkpt lat="44.3920555" lon="11.1228069"><ele>287.0</ele><time>2026-04-04T09:48:37.367Z</time></trkpt><trkpt lat="44.3919896" lon="11.1227287"><ele>288.3333333333333</ele><time>2026-04-04T09:48:40.367Z</time></trkpt><trkpt lat="44.3919217" lon="11.1226677"><ele>289.6666666666667</ele><time>2026-04-04T09:48:43.375Z</time></trkpt><trkpt lat="44.3918438" lon="11.1226506"><ele>291.0</ele><time>2026-04-04T09:48:46.361Z</time></trkpt><trkpt lat="44.3917623" lon="11.1226499"><ele>291.0</ele><time>2026-04-04T09:48:50.369Z</time></trkpt><trkpt lat="44.3916844" lon="11.1226434"><ele>291.0</ele><time>2026-04-04T09:48:54.373Z</time></trkpt><trkpt lat="44.3916191" lon="11.122625"><ele>291.0</ele><time>2026-04-04T09:48:57.363Z</time></trkpt><trkpt lat="44.3915424" lon="11.1225825"><ele>291.0</ele><time>2026-04-04T09:49:02.374Z</time></trkpt><trkpt lat="44.3914872" lon="11.1225269"><ele>291.0</ele><time>2026-04-04T09:49:06.361Z</time></trkpt><trkpt lat="44.3914401" lon="11.1224509"><ele>291.0</ele><time>2026-04-04T09:49:10.374Z</time></trkpt><trkpt lat="44.3913984" lon="11.1223546"><ele>291.0</ele><time>2026-04-04T09:49:14.369Z</time></trkpt><trkpt lat="44.3913578" lon="11.122266"><ele>293.1428571428571</ele><time>2026-04-04T09:49:18.372Z</time></trkpt><trkpt lat="44.39132" lon="11.1221828"><ele>295.2857142857143</ele><time>2026-04-04T09:49:22.374Z</time></trkpt><trkpt lat="44.3912786" lon="11.1220984"><ele>297.42857142857144</ele><time>2026-04-04T09:49:27.367Z</time></trkpt><trkpt lat="44.3912424" lon="11.1220148"><ele>299.57142857142856</ele><time>2026-04-04T09:49:31.367Z</time></trkpt><trkpt lat="44.3912042" lon="11.1219251"><ele>301.7142857142857</ele><time>2026-04-04T09:49:35.366Z</time></trkpt><trkpt lat="44.3911552" lon="11.121841"><ele>303.85714285714283</ele><time>2026-04-04T09:49:40.367Z</time></trkpt><trkpt lat="44.3911128" lon="11.1217642"><ele>306.0</ele><time>2026-04-04T09:49:44.363Z</time></trkpt><trkpt lat="44.3910759" lon="11.1216805"><ele>306.0</ele><time>2026-04-04T09:49:48.372Z</time></trkpt><trkpt lat="44.3910246" lon="11.1216017"><ele>306.0</ele><time>2026-04-04T09:49:53.378Z</time></trkpt><trkpt lat="44.3909781" lon="11.1215313"><ele>306.0</ele><time>2026-04-04T09:49:57.374Z</time></trkpt><trkpt lat="44.3909304" lon="11.1214665"><ele>306.0</ele><time>2026-04-04T09:50:01.377Z</time></trkpt><trkpt lat="44.3908835" lon="11.1213999"><ele>306.0</ele><time>2026-04-04T09:50:05.371Z</time></trkpt><trkpt lat="44.3908348" lon="11.1213262"><ele>306.0</ele><time>2026-04-04T09:50:09.374Z</time></trkpt><trkpt lat="44.3907897" lon="11.1212588"><ele>306.0</ele><time>2026-04-04T09:50:13.375Z</time></trkpt><trkpt lat="44.3907423" lon="11.1211986"><ele>306.2857142857143</ele><time>2026-04-04T09:50:17.373Z</time></trkpt><trkpt lat="44.3906958" lon="11.1211332"><ele>306.57142857142856</ele><time>2026-04-04T09:50:21.385Z</time></trkpt><trkpt lat="44.3906563" lon="11.1210529"><ele>306.8571428571429</ele><time>2026-04-04T09:50:25.376Z</time></trkpt><trkpt lat="44.3906077" lon="11.1209724"><ele>307.1428571428571</ele><time>2026-04-04T09:50:30.372Z</time></trkpt><trkpt lat="44.390571" lon="11.1208965"><ele>307.42857142857144</ele><time>2026-04-04T09:50:34.372Z</time></trkpt><trkpt lat="44.3905309" lon="11.1208257"><ele>307.7142857142857</ele><time>2026-04-04T09:50:38.366Z</time></trkpt><trkpt lat="44.3904831" lon="11.1207491"><ele>308.0</ele><time>2026-04-04T09:50:43.364Z</time></trkpt><trkpt lat="44.3904317" lon="11.1206655"><ele>310.0</ele><time>2026-04-04T09:50:48.371Z</time></trkpt><trkpt lat="44.3903634" lon="11.1206156"><ele>312.0</ele><time>2026-04-04T09:50:53.371Z</time></trkpt><trkpt lat="44.3903023" lon="11.1205934"><ele>314.0</ele><time>2026-04-04T09:50:58.37Z</time></trkpt><trkpt lat="44.3902393" lon="11.1206343"><ele>316.0</ele><time>2026-04-04T09:51:03.367Z</time></trkpt><trkpt lat="44.3901805" lon="11.1206689"><ele>318.0</ele><time>2026-04-04T09:51:07.369Z</time></trkpt><trkpt lat="44.3901153" lon="11.1207158"><ele>320.0</ele><time>2026-04-04T09:51:11.361Z</time></trkpt><trkpt lat="44.3900454" lon="11.1207713"><ele>322.0</ele><time>2026-04-04T09:51:15.369Z</time></trkpt><trkpt lat="44.3899823" lon="11.1208363"><ele>322.0</ele><time>2026-04-04T09:51:19.364Z</time></trkpt><trkpt lat="44.3899293" lon="11.1208863"><ele>322.0</ele><time>2026-04-04T09:51:22.365Z</time></trkpt><trkpt lat="44.3898746" lon="11.1209349"><ele>322.0</ele><time>2026-04-04T09:51:25.376Z</time></trkpt><trkpt lat="44.3898163" lon="11.1209857"><ele>322.0</ele><time>2026-04-04T09:51:28.376Z</time></trkpt><trkpt lat="44.3897434" lon="11.121042"><ele>322.0</ele><time>2026-04-04T09:51:32.367Z</time></trkpt><trkpt lat="44.3896877" lon="11.1210867"><ele>322.0</ele><time>2026-04-04T09:51:35.371Z</time></trkpt><trkpt lat="44.3896229" lon="11.1211318"><ele>322.0</ele><time>2026-04-04T09:51:38.367Z</time></trkpt><trkpt lat="44.389555" lon="11.1211596"><ele>323.57142857142856</ele><time>2026-04-04T09:51:41.358Z</time></trkpt><trkpt lat="44.3894932" lon="11.121177"><ele>325.1428571428571</ele><time>2026-04-04T09:51:44.376Z</time></trkpt><trkpt lat="44.3894154" lon="11.1211827"><ele>326.7142857142857</ele><time>2026-04-04T09:51:48.374Z</time></trkpt><trkpt lat="44.389339" lon="11.1211668"><ele>328.2857142857143</ele><time>2026-04-04T09:51:52.367Z</time></trkpt><trkpt lat="44.3892717" lon="11.1211321"><ele>329.85714285714283</ele><time>2026-04-04T09:51:56.367Z</time></trkpt><trkpt lat="44.3892126" lon="11.1210948"><ele>331.42857142857144</ele><time>2026-04-04T09:52:00.378Z</time></trkpt><trkpt lat="44.3891546" lon="11.1210488"><ele>333.0</ele><time>2026-04-04T09:52:04.357Z</time></trkpt><trkpt lat="44.3890959" lon="11.1209938"><ele>333.0</ele><time>2026-04-04T09:52:08.366Z</time></trkpt><trkpt lat="44.3890266" lon="11.1209294"><ele>333.0</ele><time>2026-04-04T09:52:12.369Z</time></trkpt><trkpt lat="44.3889687" lon="11.1208728"><ele>333.0</ele><time>2026-04-04T09:52:16.365Z</time></trkpt><trkpt lat="44.3889192" lon="11.1208053"><ele>333.0</ele><time>2026-04-04T09:52:20.358Z</time></trkpt><trkpt lat="44.3888686" lon="11.1207235"><ele>333.0</ele><time>2026-04-04T09:52:24.368Z</time></trkpt><trkpt lat="44.388816" lon="11.1206329"><ele>333.0</ele><time>2026-04-04T09:52:28.369Z</time></trkpt><trkpt lat="44.3887653" lon="11.1205507"><ele>334.5714285714286</ele><time>2026-04-04T09:52:32.361Z</time></trkpt><trkpt lat="44.388705" lon="11.1204771"><ele>336.1428571428571</ele><time>2026-04-04T09:52:36.369Z</time></trkpt><trkpt lat="44.3886553" lon="11.1204225"><ele>337.7142857142857</ele><time>2026-04-04T09:52:40.366Z</time></trkpt><trkpt lat="44.3886016" lon="11.1203496"><ele>339.28571428571433</ele><time>2026-04-04T09:52:44.358Z</time></trkpt><trkpt lat="44.3885422" lon="11.1202712"><ele>340.8571428571429</ele><time>2026-04-04T09:52:48.362Z</time></trkpt><trkpt lat="44.3884913" lon="11.1202189"><ele>342.42857142857144</ele><time>2026-04-04T09:52:51.377Z</time></trkpt><trkpt lat="44.3884289" lon="11.1201499"><ele>344.0</ele><time>2026-04-04T09:52:55.375Z</time></trkpt><trkpt lat="44.3883609" lon="11.1200834"><ele>344.0</ele><time>2026-04-04T09:52:59.363Z</time></trkpt><trkpt lat="44.3882902" lon="11.1200276"><ele>344.0</ele><time>2026-04-04T09:53:03.355Z</time></trkpt><trkpt lat="44.3882135" lon="11.1199951"><ele>344.0</ele><time>2026-04-04T09:53:07.374Z</time></trkpt><trkpt lat="44.3881493" lon="11.1199706"><ele>344.0</ele><time>2026-04-04T09:53:10.37Z</time></trkpt><trkpt lat="44.3880813" lon="11.1199382"><ele>344.0</ele><time>2026-04-04T09:53:14.375Z</time></trkpt><trkpt lat="44.3880005" lon="11.1198989"><ele>344.0</ele><time>2026-04-04T09:53:18.368Z</time></trkpt><trkpt lat="44.3879333" lon="11.1198667"><ele>345.5714285714286</ele><time>2026-04-04T09:53:22.371Z</time></trkpt><trkpt lat="44.3878655" lon="11.1198127"><ele>347.14285714285717</ele><time>2026-04-04T09:53:26.369Z</time></trkpt><trkpt lat="44.3878092" lon="11.119762"><ele>348.7142857142857</ele><time>2026-04-04T09:53:29.377Z</time></trkpt><trkpt lat="44.3877489" lon="11.1196889"><ele>350.28571428571433</ele><time>2026-04-04T09:53:33.368Z</time></trkpt><trkpt lat="44.3876907" lon="11.1196224"><ele>351.8571428571429</ele><time>2026-04-04T09:53:37.357Z</time></trkpt><trkpt lat="44.3876386" lon="11.1195596"><ele>353.42857142857144</ele><time>2026-04-04T09:53:41.368Z</time></trkpt><trkpt lat="44.3875848" lon="11.1194877"><ele>355.0</ele><time>2026-04-04T09:53:45.37Z</time></trkpt><trkpt lat="44.3875378" lon="11.1194211"><ele>355.0</ele><time>2026-04-04T09:53:48.366Z</time></trkpt><trkpt lat="44.3874868" lon="11.1193303"><ele>355.0</ele><time>2026-04-04T09:53:52.358Z</time></trkpt><trkpt lat="44.3874454" lon="11.1192584"><ele>355.0</ele><time>2026-04-04T09:53:55.368Z</time></trkpt><trkpt lat="44.3874092" lon="11.1191652"><ele>355.0</ele><time>2026-04-04T09:53:59.366Z</time></trkpt><trkpt lat="44.3873896" lon="11.1190623"><ele>355.0</ele><time>2026-04-04T09:54:03.376Z</time></trkpt><trkpt lat="44.3873622" lon="11.1189728"><ele>355.0</ele><time>2026-04-04T09:54:07.36Z</time></trkpt><trkpt lat="44.3873294" lon="11.1188819"><ele>355.0</ele><time>2026-04-04T09:54:11.367Z</time></trkpt><trkpt lat="44.3872927" lon="11.1187785"><ele>355.8333333333333</ele><time>2026-04-04T09:54:15.376Z</time></trkpt><trkpt lat="44.3872627" lon="11.1186719"><ele>356.66666666666663</ele><time>2026-04-04T09:54:19.358Z</time></trkpt><trkpt lat="44.3872271" lon="11.1185697"><ele>357.5</ele><time>2026-04-04T09:54:23.373Z</time></trkpt><trkpt lat="44.3872028" lon="11.1184626"><ele>358.3333333333333</ele><time>2026-04-04T09:54:27.373Z</time></trkpt><trkpt lat="44.3871803" lon="11.1183609"><ele>359.1666666666667</ele><time>2026-04-04T09:54:31.368Z</time></trkpt><trkpt lat="44.3871585" lon="11.1182677"><ele>360.0</ele><time>2026-04-04T09:54:35.368Z</time></trkpt><trkpt lat="44.3871375" lon="11.1181845"><ele>362.2857142857143</ele><time>2026-04-04T09:54:38.375Z</time></trkpt><trkpt lat="44.3871095" lon="11.1180864"><ele>364.5714285714286</ele><time>2026-04-04T09:54:42.369Z</time></trkpt><trkpt lat="44.3870758" lon="11.117977"><ele>366.8571428571429</ele><time>2026-04-04T09:54:46.374Z</time></trkpt><trkpt lat="44.3870485" lon="11.1178874"><ele>369.1428571428571</ele><time>2026-04-04T09:54:50.374Z</time></trkpt><trkpt lat="44.3870114" lon="11.1178033"><ele>371.42857142857144</ele><time>2026-04-04T09:54:54.378Z</time></trkpt><trkpt lat="44.3869642" lon="11.1177229"><ele>373.7142857142857</ele><time>2026-04-04T09:54:58.354Z</time></trkpt><trkpt lat="44.3869186" lon="11.117661"><ele>376.0</ele><time>2026-04-04T09:55:01.359Z</time></trkpt><trkpt lat="44.3868633" lon="11.117579"><ele>376.0</ele><time>2026-04-04T09:55:05.375Z</time></trkpt><trkpt lat="44.3868005" lon="11.1175099"><ele>376.0</ele><time>2026-04-04T09:55:09.376Z</time></trkpt><trkpt lat="44.3867454" lon="11.1174395"><ele>376.0</ele><time>2026-04-04T09:55:13.375Z</time></trkpt><trkpt lat="44.386703" lon="11.1173536"><ele>376.0</ele><time>2026-04-04T09:55:17.366Z</time></trkpt><trkpt lat="44.3866594" lon="11.1172741"><ele>376.0</ele><time>2026-04-04T09:55:21.369Z</time></trkpt><trkpt lat="44.386613" lon="11.117179"><ele>376.0</ele><time>2026-04-04T09:55:25.375Z</time></trkpt><trkpt lat="44.3865726" lon="11.1170886"><ele>375.85714285714283</ele><time>2026-04-04T09:55:29.369Z</time></trkpt><trkpt lat="44.3865235" lon="11.1169991"><ele>375.71428571428567</ele><time>2026-04-04T09:55:33.371Z</time></trkpt><trkpt lat="44.3864747" lon="11.1169279"><ele>375.57142857142856</ele><time>2026-04-04T09:55:37.382Z</time></trkpt><trkpt lat="44.3864236" lon="11.1168586"><ele>375.42857142857144</ele><time>2026-04-04T09:55:41.369Z</time></trkpt><trkpt lat="44.3863662" lon="11.1167969"><ele>375.2857142857143</ele><time>2026-04-04T09:55:45.37Z</time></trkpt><trkpt lat="44.3863096" lon="11.1167509"><ele>375.14285714285717</ele><time>2026-04-04T09:55:49.373Z</time></trkpt><trkpt lat="44.3862606" lon="11.1166932"><ele>375.0</ele><time>2026-04-04T09:55:54.372Z</time></trkpt><trkpt lat="44.3862153" lon="11.1166291"><ele>376.42857142857144</ele><time>2026-04-04T09:55:58.369Z</time></trkpt><trkpt lat="44.3861623" lon="11.1165767"><ele>377.85714285714283</ele><time>2026-04-04T09:56:02.373Z</time></trkpt><trkpt lat="44.3861029" lon="11.1165405"><ele>379.2857142857143</ele><time>2026-04-04T09:56:06.375Z</time></trkpt><trkpt lat="44.3860292" lon="11.1165165"><ele>380.7142857142857</ele><time>2026-04-04T09:56:09.366Z</time></trkpt><trkpt lat="44.3859456" lon="11.1164778"><ele>382.1428571428571</ele><time>2026-04-04T09:56:12.381Z</time></trkpt><trkpt lat="44.3858667" lon="11.1164492"><ele>383.57142857142856</ele><time>2026-04-04T09:56:15.375Z</time></trkpt><trkpt lat="44.3857957" lon="11.1164256"><ele>385.0</ele><time>2026-04-04T09:56:18.382Z</time></trkpt><trkpt lat="44.3857213" lon="11.1163957"><ele>385.0</ele><time>2026-04-04T09:56:21.37Z</time></trkpt><trkpt lat="44.3856559" lon="11.1163633"><ele>385.0</ele><time>2026-04-04T09:56:24.372Z</time></trkpt><trkpt lat="44.3855918" lon="11.1163263"><ele>385.0</ele><time>2026-04-04T09:56:27.365Z</time></trkpt><trkpt lat="44.3855278" lon="11.1162962"><ele>385.0</ele><time>2026-04-04T09:56:30.375Z</time></trkpt><trkpt lat="44.3854663" lon="11.1162561"><ele>385.0</ele><time>2026-04-04T09:56:33.369Z</time></trkpt><trkpt lat="44.3853897" lon="11.1162121"><ele>385.0</ele><time>2026-04-04T09:56:37.374Z</time></trkpt><trkpt lat="44.3853305" lon="11.1161784"><ele>385.0</ele><time>2026-04-04T09:56:40.362Z</time></trkpt><trkpt lat="44.3852692" lon="11.1161443"><ele>386.14285714285717</ele><time>2026-04-04T09:56:43.374Z</time></trkpt><trkpt lat="44.3852062" lon="11.1161109"><ele>387.2857142857143</ele><time>2026-04-04T09:56:46.375Z</time></trkpt><trkpt lat="44.3851305" lon="11.1160658"><ele>388.42857142857144</ele><time>2026-04-04T09:56:50.378Z</time></trkpt><trkpt lat="44.3850653" lon="11.1160346"><ele>389.57142857142856</ele><time>2026-04-04T09:56:53.371Z</time></trkpt><trkpt lat="44.3849994" lon="11.1160031"><ele>390.7142857142857</ele><time>2026-04-04T09:56:56.371Z</time></trkpt><trkpt lat="44.3849146" lon="11.1159753"><ele>391.8571428571429</ele><time>2026-04-04T09:57:00.37Z</time></trkpt><trkpt lat="44.3848525" lon="11.1159282"><ele>393.0</ele><time>2026-04-04T09:57:03.376Z</time></trkpt><trkpt lat="44.3847878" lon="11.1158898"><ele>393.00000000000006</ele><time>2026-04-04T09:57:06.368Z</time></trkpt><trkpt lat="44.3847218" lon="11.1158509"><ele>393.0</ele><time>2026-04-04T09:57:09.372Z</time></trkpt><trkpt lat="44.3846538" lon="11.1158223"><ele>393.0</ele><time>2026-04-04T09:57:12.372Z</time></trkpt><trkpt lat="44.3845926" lon="11.1157877"><ele>393.0</ele><time>2026-04-04T09:57:15.371Z</time></trkpt><trkpt lat="44.3845327" lon="11.1157476"><ele>393.0</ele><time>2026-04-04T09:57:18.373Z</time></trkpt><trkpt lat="44.3844761" lon="11.1157075"><ele>393.00000000000006</ele><time>2026-04-04T09:57:21.365Z</time></trkpt><trkpt lat="44.3844151" lon="11.1156687"><ele>393.0</ele><time>2026-04-04T09:57:24.37Z</time></trkpt><trkpt lat="44.3843549" lon="11.1156151"><ele>393.5714285714286</ele><time>2026-04-04T09:57:27.36Z</time></trkpt><trkpt lat="44.3842894" lon="11.1155763"><ele>394.14285714285717</ele><time>2026-04-04T09:57:30.37Z</time></trkpt><trkpt lat="44.3842238" lon="11.1155371"><ele>394.7142857142857</ele><time>2026-04-04T09:57:33.367Z</time></trkpt><trkpt lat="44.3841645" lon="11.1155041"><ele>395.28571428571433</ele><time>2026-04-04T09:57:36.373Z</time></trkpt><trkpt lat="44.3840884" lon="11.1154657"><ele>395.85714285714283</ele><time>2026-04-04T09:57:40.378Z</time></trkpt><trkpt lat="44.3840223" lon="11.1154308"><ele>396.42857142857144</ele><time>2026-04-04T09:57:43.376Z</time></trkpt><trkpt lat="44.3839553" lon="11.1153953"><ele>397.0</ele><time>2026-04-04T09:57:46.377Z</time></trkpt><trkpt lat="44.3845327" lon="11.1157476"><ele>397.57142857142856</ele><time>2026-04-04T09:57:18.373Z</time></trkpt><trkpt lat="44.3844761" lon="11.1157075"><ele>398.1428571428571</ele><time>2026-04-04T09:57:21.365Z</time></trkpt><trkpt lat="44.3844151" lon="11.1156687"><ele>398.7142857142857</ele><time>2026-04-04T09:57:24.37Z</time></trkpt><trkpt lat="44.3843549" lon="11.1156151"><ele>399.2857142857143</ele><time>2026-04-04T09:57:27.36Z</time></trkpt><trkpt lat="44.3842894" lon="11.1155763"><ele>399.8571428571429</ele><time>2026-04-04T09:57:30.37Z</time></trkpt><trkpt lat="44.3842238" lon="11.1155371"><ele>400.42857142857144</ele><time>2026-04-04T09:57:33.367Z</time></trkpt><trkpt lat="44.3841645" lon="11.1155041"><ele>401.0</ele><time>2026-04-04T09:57:36.373Z</time></trkpt><trkpt lat="44.3840884" lon="11.1154657"><ele>401.0</ele><time>2026-04-04T09:57:40.378Z</time></trkpt><trkpt lat="44.3840223" lon="11.1154308"><ele>401.0</ele><time>2026-04-04T09:57:43.376Z</time></trkpt><trkpt lat="44.3839553" lon="11.1153953"><ele>401.0</ele><time>2026-04-04T09:57:46.377Z</time></trkpt><trkpt lat="44.3838942" lon="11.1153636"><ele>401.0</ele><time>2026-04-04T09:57:49.377Z</time></trkpt><trkpt lat="44.3838256" lon="11.1153285"><ele>401.0</ele><time>2026-04-04T09:57:52.374Z</time></trkpt><trkpt lat="44.3837527" lon="11.1152986"><ele>401.0</ele><time>2026-04-04T09:57:55.366Z</time></trkpt><trkpt lat="44.3836901" lon="11.1152657"><ele>401.0</ele><time>2026-04-04T09:57:58.37Z</time></trkpt><trkpt lat="44.3836197" lon="11.1152373"><ele>402.0</ele><time>2026-04-04T09:58:01.371Z</time></trkpt><trkpt lat="44.3835506" lon="11.115202"><ele>403.0</ele><time>2026-04-04T09:58:04.368Z</time></trkpt><trkpt lat="44.3834815" lon="11.1151646"><ele>404.0</ele><time>2026-04-04T09:58:07.376Z</time></trkpt><trkpt lat="44.3834111" lon="11.1151246"><ele>405.0</ele><time>2026-04-04T09:58:10.365Z</time></trkpt><trkpt lat="44.3833457" lon="11.1150809"><ele>406.0</ele><time>2026-04-04T09:58:13.375Z</time></trkpt><trkpt lat="44.3832858" lon="11.115034"><ele>407.0</ele><time>2026-04-04T09:58:16.372Z</time></trkpt><trkpt lat="44.3832246" lon="11.1149716"><ele>408.0</ele><time>2026-04-04T09:58:19.373Z</time></trkpt><trkpt lat="44.3831681" lon="11.114908"><ele>408.57142857142856</ele><time>2026-04-04T09:58:22.368Z</time></trkpt><trkpt lat="44.3831111" lon="11.1148556"><ele>409.14285714285717</ele><time>2026-04-04T09:58:25.366Z</time></trkpt><trkpt lat="44.3830574" lon="11.1147952"><ele>409.71428571428567</ele><time>2026-04-04T09:58:28.371Z</time></trkpt><trkpt lat="44.3830036" lon="11.1147311"><ele>410.2857142857143</ele><time>2026-04-04T09:58:31.37Z</time></trkpt><trkpt lat="44.3829524" lon="11.1146564"><ele>410.85714285714283</ele><time>2026-04-04T09:58:34.364Z</time></trkpt><trkpt lat="44.3829088" lon="11.1145699"><ele>411.4285714285714</ele><time>2026-04-04T09:58:37.365Z</time></trkpt><trkpt lat="44.3828569" lon="11.1144922"><ele>412.0</ele><time>2026-04-04T09:58:40.374Z</time></trkpt><trkpt lat="44.382814" lon="11.1144041"><ele>413.00000000000006</ele><time>2026-04-04T09:58:43.371Z</time></trkpt><trkpt lat="44.3827793" lon="11.1143159"><ele>414.0</ele><time>2026-04-04T09:58:46.377Z</time></trkpt><trkpt lat="44.3827523" lon="11.114211"><ele>415.0</ele><time>2026-04-04T09:58:49.36Z</time></trkpt><trkpt lat="44.3827424" lon="11.1141029"><ele>416.0</ele><time>2026-04-04T09:58:52.376Z</time></trkpt><trkpt lat="44.3827558" lon="11.1139969"><ele>417.00000000000006</ele><time>2026-04-04T09:58:55.373Z</time></trkpt><trkpt lat="44.3827682" lon="11.1138964"><ele>418.0</ele><time>2026-04-04T09:58:58.373Z</time></trkpt><trkpt lat="44.382783" lon="11.1137975"><ele>418.85714285714283</ele><time>2026-04-04T09:59:01.366Z</time></trkpt><trkpt lat="44.3828021" lon="11.113704"><ele>419.71428571428567</ele><time>2026-04-04T09:59:04.367Z</time></trkpt><trkpt lat="44.3828186" lon="11.1136093"><ele>420.57142857142856</ele><time>2026-04-04T09:59:07.374Z</time></trkpt><trkpt lat="44.3828355" lon="11.1135188"><ele>421.42857142857144</ele><time>2026-04-04T09:59:10.368Z</time></trkpt><trkpt lat="44.3828514" lon="11.1134276"><ele>422.2857142857143</ele><time>2026-04-04T09:59:13.373Z</time></trkpt><trkpt lat="44.3828688" lon="11.1133349"><ele>423.14285714285717</ele><time>2026-04-04T09:59:16.376Z</time></trkpt><trkpt lat="44.3828856" lon="11.1132435"><ele>424.0</ele><time>2026-04-04T09:59:19.365Z</time></trkpt><trkpt lat="44.3829015" lon="11.1131498"><ele>424.5714285714286</ele><time>2026-04-04T09:59:22.365Z</time></trkpt><trkpt lat="44.3829206" lon="11.1130346"><ele>425.1428571428571</ele><time>2026-04-04T09:59:26.363Z</time></trkpt><trkpt lat="44.3829339" lon="11.1129407"><ele>425.7142857142857</ele><time>2026-04-04T09:59:29.366Z</time></trkpt><trkpt lat="44.3829467" lon="11.1128496"><ele>426.28571428571433</ele><time>2026-04-04T09:59:32.367Z</time></trkpt><trkpt lat="44.3829678" lon="11.1127357"><ele>426.8571428571429</ele><time>2026-04-04T09:59:36.382Z</time></trkpt><trkpt lat="44.3829827" lon="11.112639"><ele>427.42857142857144</ele><time>2026-04-04T09:59:39.366Z</time></trkpt><trkpt lat="44.3829929" lon="11.1125407"><ele>428.0</ele><time>2026-04-04T09:59:42.369Z</time></trkpt><trkpt lat="44.383016" lon="11.1124453"><ele>429.28571428571433</ele><time>2026-04-04T09:59:45.376Z</time></trkpt><trkpt lat="44.3830303" lon="11.1123483"><ele>430.57142857142856</ele><time>2026-04-04T09:59:48.372Z</time></trkpt><trkpt lat="44.3830477" lon="11.1122544"><ele>431.8571428571429</ele><time>2026-04-04T09:59:51.373Z</time></trkpt><trkpt lat="44.3830668" lon="11.1121643"><ele>433.14285714285717</ele><time>2026-04-04T09:59:54.37Z</time></trkpt><trkpt lat="44.3830843" lon="11.1120718"><ele>434.42857142857144</ele><time>2026-04-04T09:59:57.367Z</time></trkpt><trkpt lat="44.3831018" lon="11.1119818"><ele>435.7142857142857</ele><time>2026-04-04T10:00:00.372Z</time></trkpt><trkpt lat="44.3831248" lon="11.1118948"><ele>437.0</ele><time>2026-04-04T10:00:03.36Z</time></trkpt><trkpt lat="44.3831538" lon="11.111811"><ele>437.0</ele><time>2026-04-04T10:00:06.373Z</time></trkpt><trkpt lat="44.3832116" lon="11.1117436"><ele>437.0</ele><time>2026-04-04T10:00:09.375Z</time></trkpt><trkpt lat="44.3832758" lon="11.1116999"><ele>437.0</ele><time>2026-04-04T10:00:12.366Z</time></trkpt><trkpt lat="44.3833474" lon="11.1116686"><ele>437.0</ele><time>2026-04-04T10:00:15.364Z</time></trkpt><trkpt lat="44.3834196" lon="11.111647"><ele>437.0</ele><time>2026-04-04T10:00:18.369Z</time></trkpt><trkpt lat="44.3834934" lon="11.1116354"><ele>437.0</ele><time>2026-04-04T10:00:21.36Z</time></trkpt><trkpt lat="44.3835693" lon="11.1116285"><ele>437.0</ele><time>2026-04-04T10:00:24.369Z</time></trkpt><trkpt lat="44.3836529" lon="11.1116256"><ele>437.0</ele><time>2026-04-04T10:00:27.374Z</time></trkpt><trkpt lat="44.3837279" lon="11.1116535"><ele>437.0</ele><time>2026-04-04T10:00:30.368Z</time></trkpt><trkpt lat="44.3837911" lon="11.1117"><ele>437.0</ele><time>2026-04-04T10:00:33.374Z</time></trkpt><trkpt lat="44.3838563" lon="11.1117392"><ele>437.0</ele><time>2026-04-04T10:00:36.372Z</time></trkpt><trkpt lat="44.3839304" lon="11.1117739"><ele>437.0</ele><time>2026-04-04T10:00:40.37Z</time></trkpt><trkpt lat="44.3839903" lon="11.1118069"><ele>437.0</ele><time>2026-04-04T10:00:43.368Z</time></trkpt><trkpt lat="44.3840645" lon="11.1118156"><ele>437.0</ele><time>2026-04-04T10:00:46.375Z</time></trkpt><trkpt lat="44.384133" lon="11.11181"><ele>437.85714285714283</ele><time>2026-04-04T10:00:49.37Z</time></trkpt><trkpt lat="44.3841952" lon="11.1117925"><ele>438.7142857142857</ele><time>2026-04-04T10:00:52.376Z</time></trkpt><trkpt lat="44.3842607" lon="11.1117612"><ele>439.57142857142856</ele><time>2026-04-04T10:00:55.372Z</time></trkpt><trkpt lat="44.3843234" lon="11.1117197"><ele>440.42857142857144</ele><time>2026-04-04T10:00:58.373Z</time></trkpt><trkpt lat="44.3843859" lon="11.1116731"><ele>441.28571428571433</ele><time>2026-04-04T10:01:01.371Z</time></trkpt><trkpt lat="44.3844413" lon="11.1116173"><ele>442.14285714285717</ele><time>2026-04-04T10:01:04.366Z</time></trkpt><trkpt lat="44.3844998" lon="11.1115638"><ele>443.0</ele><time>2026-04-04T10:01:07.366Z</time></trkpt><trkpt lat="44.3845527" lon="11.1114979"><ele>444.0</ele><time>2026-04-04T10:01:10.365Z</time></trkpt><trkpt lat="44.3845993" lon="11.1114153"><ele>445.0</ele><time>2026-04-04T10:01:13.372Z</time></trkpt><trkpt lat="44.3846463" lon="11.1113425"><ele>446.0</ele><time>2026-04-04T10:01:16.358Z</time></trkpt><trkpt lat="44.3846848" lon="11.111259"><ele>447.0</ele><time>2026-04-04T10:01:19.374Z</time></trkpt><trkpt lat="44.3847236" lon="11.1111798"><ele>448.0</ele><time>2026-04-04T10:01:22.367Z</time></trkpt><trkpt lat="44.3847637" lon="11.1110939"><ele>449.00000000000006</ele><time>2026-04-04T10:01:25.368Z</time></trkpt><trkpt lat="44.3848017" lon="11.1110052"><ele>450.00000000000006</ele><time>2026-04-04T10:01:28.372Z</time></trkpt><trkpt lat="44.3848461" lon="11.1109214"><ele>450.00000000000006</ele><time>2026-04-04T10:01:31.369Z</time></trkpt><trkpt lat="44.3849023" lon="11.1108496"><ele>450.0</ele><time>2026-04-04T10:01:34.377Z</time></trkpt><trkpt lat="44.3849593" lon="11.1107806"><ele>450.00000000000006</ele><time>2026-04-04T10:01:37.366Z</time></trkpt><trkpt lat="44.3850309" lon="11.1107489"><ele>450.00000000000006</ele><time>2026-04-04T10:01:40.371Z</time></trkpt><trkpt lat="44.385105" lon="11.1107386"><ele>450.0</ele><time>2026-04-04T10:01:43.364Z</time></trkpt><trkpt lat="44.3851736" lon="11.1107534"><ele>450.00000000000006</ele><time>2026-04-04T10:01:46.372Z</time></trkpt><trkpt lat="44.3852446" lon="11.1107835"><ele>450.00000000000006</ele><time>2026-04-04T10:01:49.389Z</time></trkpt><trkpt lat="44.3853108" lon="11.1108175"><ele>450.00000000000006</ele><time>2026-04-04T10:01:52.365Z</time></trkpt><trkpt lat="44.3853794" lon="11.1108607"><ele>450.0</ele><time>2026-04-04T10:01:55.363Z</time></trkpt><trkpt lat="44.3854373" lon="11.1108969"><ele>450.00000000000006</ele><time>2026-04-04T10:01:58.376Z</time></trkpt><trkpt lat="44.3855078" lon="11.110939"><ele>450.00000000000006</ele><time>2026-04-04T10:02:02.37Z</time></trkpt><trkpt lat="44.3855691" lon="11.1109792"><ele>450.0</ele><time>2026-04-04T10:02:05.38Z</time></trkpt><trkpt lat="44.3856315" lon="11.1110213"><ele>450.00000000000006</ele><time>2026-04-04T10:02:08.363Z</time></trkpt><trkpt lat="44.3856961" lon="11.1110562"><ele>450.00000000000006</ele><time>2026-04-04T10:02:11.365Z</time></trkpt><trkpt lat="44.3857598" lon="11.1110725"><ele>451.4285714285715</ele><time>2026-04-04T10:02:14.367Z</time></trkpt><trkpt lat="44.3858299" lon="11.1110924"><ele>452.8571428571429</ele><time>2026-04-04T10:02:17.355Z</time></trkpt><trkpt lat="44.3859042" lon="11.1111234"><ele>454.2857142857143</ele><time>2026-04-04T10:02:21.373Z</time></trkpt><trkpt lat="44.3859692" lon="11.1111468"><ele>455.7142857142857</ele><time>2026-04-04T10:02:24.37Z</time></trkpt><trkpt lat="44.386033" lon="11.1111657"><ele>457.1428571428571</ele><time>2026-04-04T10:02:27.368Z</time></trkpt><trkpt lat="44.3860983" lon="11.1111732"><ele>458.5714285714285</ele><time>2026-04-04T10:02:30.363Z</time></trkpt><trkpt lat="44.3861738" lon="11.111194"><ele>459.99999999999994</ele><time>2026-04-04T10:02:33.366Z</time></trkpt><trkpt lat="44.3862415" lon="11.111206"><ele>459.99999999999994</ele><time>2026-04-04T10:02:36.373Z</time></trkpt><trkpt lat="44.3863106" lon="11.1112143"><ele>460.0</ele><time>2026-04-04T10:02:39.372Z</time></trkpt><trkpt lat="44.3863865" lon="11.1112193"><ele>459.99999999999994</ele><time>2026-04-04T10:02:43.379Z</time></trkpt><trkpt lat="44.3864578" lon="11.1112124"><ele>459.99999999999994</ele><time>2026-04-04T10:02:47.371Z</time></trkpt><trkpt lat="44.386521" lon="11.1112006"><ele>460.0</ele><time>2026-04-04T10:02:50.37Z</time></trkpt><trkpt lat="44.3865874" lon="11.1111976"><ele>459.99999999999994</ele><time>2026-04-04T10:02:53.362Z</time></trkpt><trkpt lat="44.3866521" lon="11.1111909"><ele>459.99999999999994</ele><time>2026-04-04T10:02:56.367Z</time></trkpt><trkpt lat="44.3867208" lon="11.1111862"><ele>462.1428571428571</ele><time>2026-04-04T10:02:59.36Z</time></trkpt><trkpt lat="44.3867839" lon="11.1111767"><ele>464.2857142857143</ele><time>2026-04-04T10:03:02.377Z</time></trkpt><trkpt lat="44.3868629" lon="11.1111544"><ele>466.42857142857144</ele><time>2026-04-04T10:03:06.361Z</time></trkpt><trkpt lat="44.386927" lon="11.111136"><ele>468.57142857142856</ele><time>2026-04-04T10:03:09.372Z</time></trkpt><trkpt lat="44.3869905" lon="11.1111198"><ele>470.7142857142858</ele><time>2026-04-04T10:03:12.367Z</time></trkpt><trkpt lat="44.3870715" lon="11.1111057"><ele>472.8571428571429</ele><time>2026-04-04T10:03:16.359Z</time></trkpt><trkpt lat="44.3871401" lon="11.111095"><ele>475.0</ele><time>2026-04-04T10:03:20.358Z</time></trkpt><trkpt lat="44.3872156" lon="11.1110823"><ele>477.14285714285717</ele><time>2026-04-04T10:03:24.368Z</time></trkpt><trkpt lat="44.387298" lon="11.1110662"><ele>479.28571428571433</ele><time>2026-04-04T10:03:28.368Z</time></trkpt><trkpt lat="44.3873619" lon="11.1110578"><ele>481.42857142857144</ele><time>2026-04-04T10:03:31.371Z</time></trkpt><trkpt lat="44.3874359" lon="11.111057"><ele>483.57142857142856</ele><time>2026-04-04T10:03:35.365Z</time></trkpt><trkpt lat="44.3875022" lon="11.1110631"><ele>485.7142857142857</ele><time>2026-04-04T10:03:38.361Z</time></trkpt><trkpt lat="44.3875685" lon="11.1110771"><ele>487.8571428571429</ele><time>2026-04-04T10:03:41.354Z</time></trkpt><trkpt lat="44.3876306" lon="11.1111117"><ele>490.0</ele><time>2026-04-04T10:03:44.368Z</time></trkpt><trkpt lat="44.3877" lon="11.1111656"><ele>490.0</ele><time>2026-04-04T10:03:48.374Z</time></trkpt><trkpt lat="44.3877646" lon="11.1112099"><ele>490.0</ele><time>2026-04-04T10:03:51.371Z</time></trkpt><trkpt lat="44.3878235" lon="11.1112504"><ele>490.0</ele><time>2026-04-04T10:03:54.356Z</time></trkpt><trkpt lat="44.3878798" lon="11.111298"><ele>490.0</ele><time>2026-04-04T10:03:57.369Z</time></trkpt><trkpt lat="44.3879377" lon="11.1113478"><ele>490.0</ele><time>2026-04-04T10:04:00.373Z</time></trkpt><trkpt lat="44.388006" lon="11.1113915"><ele>490.0</ele><time>2026-04-04T10:04:03.371Z</time></trkpt><trkpt lat="44.3880648" lon="11.1114246"><ele>490.0</ele><time>2026-04-04T10:04:06.372Z</time></trkpt><trkpt lat="44.3881327" lon="11.1114535"><ele>489.33333333333337</ele><time>2026-04-04T10:04:09.373Z</time></trkpt><trkpt lat="44.3882151" lon="11.1114308"><ele>488.6666666666667</ele><time>2026-04-04T10:04:12.369Z</time></trkpt><trkpt lat="44.3882772" lon="11.1113689"><ele>488.0</ele><time>2026-04-04T10:04:15.363Z</time></trkpt><trkpt lat="44.3883234" lon="11.1112954"><ele>487.33333333333337</ele><time>2026-04-04T10:04:18.365Z</time></trkpt><trkpt lat="44.3883587" lon="11.1112029"><ele>486.6666666666667</ele><time>2026-04-04T10:04:21.365Z</time></trkpt><trkpt lat="44.3883916" lon="11.1111005"><ele>486.0</ele><time>2026-04-04T10:04:24.367Z</time></trkpt><trkpt lat="44.3884228" lon="11.1109901"><ele>486.0</ele><time>2026-04-04T10:04:27.37Z</time></trkpt><trkpt lat="44.3884481" lon="11.1108758"><ele>486.0</ele><time>2026-04-04T10:04:30.377Z</time></trkpt><trkpt lat="44.3884669" lon="11.1107869"><ele>486.0</ele><time>2026-04-04T10:04:32.366Z</time></trkpt><trkpt lat="44.3884874" lon="11.1106622"><ele>486.0</ele><time>2026-04-04T10:04:35.362Z</time></trkpt><trkpt lat="44.3885135" lon="11.1105374"><ele>486.0</ele><time>2026-04-04T10:04:38.364Z</time></trkpt><trkpt lat="44.3885446" lon="11.1104126"><ele>486.0</ele><time>2026-04-04T10:04:41.365Z</time></trkpt><trkpt lat="44.38857" lon="11.1102889"><ele>487.2857142857143</ele><time>2026-04-04T10:04:44.373Z</time></trkpt><trkpt lat="44.3885953" lon="11.1102061"><ele>488.57142857142856</ele><time>2026-04-04T10:04:46.368Z</time></trkpt><trkpt lat="44.3886193" lon="11.1101176"><ele>489.85714285714283</ele><time>2026-04-04T10:04:48.37Z</time></trkpt><trkpt lat="44.3886473" lon="11.1100293"><ele>491.1428571428571</ele><time>2026-04-04T10:04:50.362Z</time></trkpt><trkpt lat="44.3886776" lon="11.1099396"><ele>492.42857142857144</ele><time>2026-04-04T10:04:52.367Z</time></trkpt><trkpt lat="44.3887093" lon="11.1098494"><ele>493.71428571428567</ele><time>2026-04-04T10:04:54.385Z</time></trkpt><trkpt lat="44.3887372" lon="11.1097584"><ele>494.99999999999994</ele><time>2026-04-04T10:04:56.368Z</time></trkpt><trkpt lat="44.388771" lon="11.1096701"><ele>493.8571428571428</ele><time>2026-04-04T10:04:58.368Z</time></trkpt><trkpt lat="44.388808" lon="11.1095808"><ele>492.71428571428567</ele><time>2026-04-04T10:05:00.372Z</time></trkpt><trkpt lat="44.3888461" lon="11.1094905"><ele>491.57142857142856</ele><time>2026-04-04T10:05:02.368Z</time></trkpt><trkpt lat="44.3888905" lon="11.1094079"><ele>490.4285714285714</ele><time>2026-04-04T10:05:04.37Z</time></trkpt><trkpt lat="44.3889388" lon="11.1093351"><ele>489.2857142857142</ele><time>2026-04-04T10:05:06.365Z</time></trkpt><trkpt lat="44.3889907" lon="11.1092721"><ele>488.14285714285717</ele><time>2026-04-04T10:05:08.374Z</time></trkpt><trkpt lat="44.3890423" lon="11.1092096"><ele>487.0</ele><time>2026-04-04T10:05:10.366Z</time></trkpt><trkpt lat="44.3890925" lon="11.1091466"><ele>489.40000000000003</ele><time>2026-04-04T10:05:12.37Z</time></trkpt><trkpt lat="44.3891599" lon="11.1090585"><ele>491.80000000000007</ele><time>2026-04-04T10:05:15.369Z</time></trkpt><trkpt lat="44.3892278" lon="11.1089676"><ele>494.2</ele><time>2026-04-04T10:05:18.36Z</time></trkpt><trkpt lat="44.3892862" lon="11.1088672"><ele>496.6</ele><time>2026-04-04T10:05:21.371Z</time></trkpt><trkpt lat="44.3893441" lon="11.1087765"><ele>499.0</ele><time>2026-04-04T10:05:24.355Z</time></trkpt><trkpt lat="44.3894097" lon="11.1086831"><ele>499.00000000000006</ele><time>2026-04-04T10:05:27.361Z</time></trkpt><trkpt lat="44.3894536" lon="11.1086187"><ele>499.0</ele><time>2026-04-04T10:05:29.366Z</time></trkpt><trkpt lat="44.3895124" lon="11.1085429"><ele>499.00000000000006</ele><time>2026-04-04T10:05:32.36Z</time></trkpt><trkpt lat="44.3895675" lon="11.1084648"><ele>499.00000000000006</ele><time>2026-04-04T10:05:35.365Z</time></trkpt><trkpt lat="44.3896143" lon="11.1083898"><ele>499.0</ele><time>2026-04-04T10:05:37.371Z</time></trkpt><trkpt lat="44.3896561" lon="11.1083139"><ele>499.00000000000006</ele><time>2026-04-04T10:05:39.37Z</time></trkpt><trkpt lat="44.3896975" lon="11.1082451"><ele>499.00000000000006</ele><time>2026-04-04T10:05:41.367Z</time></trkpt><trkpt lat="44.3897534" lon="11.1081365"><ele>498.33333333333337</ele><time>2026-04-04T10:05:44.369Z</time></trkpt><trkpt lat="44.3897884" lon="11.1080607"><ele>497.6666666666667</ele><time>2026-04-04T10:05:46.372Z</time></trkpt><trkpt lat="44.3898316" lon="11.1079492"><ele>497.0</ele><time>2026-04-04T10:05:49.372Z</time></trkpt><trkpt lat="44.3898704" lon="11.1078349"><ele>496.33333333333337</ele><time>2026-04-04T10:05:52.365Z</time></trkpt><trkpt lat="44.389898" lon="11.1077144"><ele>495.6666666666667</ele><time>2026-04-04T10:05:55.367Z</time></trkpt><trkpt lat="44.3899154" lon="11.1075885"><ele>495.0</ele><time>2026-04-04T10:05:58.367Z</time></trkpt><trkpt lat="44.3899187" lon="11.1074624"><ele>494.3333333333333</ele><time>2026-04-04T10:06:01.366Z</time></trkpt><trkpt lat="44.3899116" lon="11.1073373"><ele>493.66666666666663</ele><time>2026-04-04T10:06:04.382Z</time></trkpt><trkpt lat="44.3898802" lon="11.1072179"><ele>493.0</ele><time>2026-04-04T10:06:07.364Z</time></trkpt><trkpt lat="44.3898215" lon="11.1071197"><ele>492.3333333333333</ele><time>2026-04-04T10:06:10.372Z</time></trkpt><trkpt lat="44.3897342" lon="11.1070727"><ele>491.66666666666663</ele><time>2026-04-04T10:06:13.367Z</time></trkpt><trkpt lat="44.3896698" lon="11.1070768"><ele>491.0</ele><time>2026-04-04T10:06:15.369Z</time></trkpt><trkpt lat="44.3895748" lon="11.1070947"><ele>492.2857142857143</ele><time>2026-04-04T10:06:18.37Z</time></trkpt><trkpt lat="44.3894924" lon="11.1071124"><ele>493.57142857142856</ele><time>2026-04-04T10:06:21.377Z</time></trkpt><trkpt lat="44.3894295" lon="11.1071189"><ele>494.85714285714283</ele><time>2026-04-04T10:06:24.377Z</time></trkpt><trkpt lat="44.3893486" lon="11.1071318"><ele>496.1428571428571</ele><time>2026-04-04T10:06:27.358Z</time></trkpt><trkpt lat="44.3892797" lon="11.1071307"><ele>497.42857142857144</ele><time>2026-04-04T10:06:30.373Z</time></trkpt><trkpt lat="44.3892135" lon="11.1071256"><ele>498.71428571428567</ele><time>2026-04-04T10:06:33.365Z</time></trkpt><trkpt lat="44.389143" lon="11.1071211"><ele>500.0</ele><time>2026-04-04T10:06:36.365Z</time></trkpt><trkpt lat="44.3890814" lon="11.1070887"><ele>499.99999999999994</ele><time>2026-04-04T10:06:39.366Z</time></trkpt><trkpt lat="44.3890218" lon="11.1070417"><ele>500.0</ele><time>2026-04-04T10:06:42.361Z</time></trkpt><trkpt lat="44.3889264" lon="11.1069792"><ele>500.0</ele><time>2026-04-04T10:06:45.384Z</time></trkpt><trkpt lat="44.3888739" lon="11.1069179"><ele>500.0</ele><time>2026-04-04T10:06:47.368Z</time></trkpt><trkpt lat="44.3888169" lon="11.1068291"><ele>499.99999999999994</ele><time>2026-04-04T10:06:50.371Z</time></trkpt><trkpt lat="44.3887623" lon="11.106728"><ele>500.0</ele><time>2026-04-04T10:06:53.363Z</time></trkpt><trkpt lat="44.3887273" lon="11.1066332"><ele>500.49999999999994</ele><time>2026-04-04T10:06:56.368Z</time></trkpt><trkpt lat="44.3886796" lon="11.1065347"><ele>501.0</ele><time>2026-04-04T10:06:59.373Z</time></trkpt><trkpt lat="44.3886294" lon="11.1064427"><ele>501.5</ele><time>2026-04-04T10:07:02.372Z</time></trkpt><trkpt lat="44.3885693" lon="11.1063718"><ele>502.0</ele><time>2026-04-04T10:07:05.363Z</time></trkpt><trkpt lat="44.3885055" lon="11.1063189"><ele>502.49999999999994</ele><time>2026-04-04T10:07:08.367Z</time></trkpt><trkpt lat="44.3884427" lon="11.1062827"><ele>503.0</ele><time>2026-04-04T10:07:11.369Z</time></trkpt><trkpt lat="44.388371" lon="11.106251"><ele>502.99999999999994</ele><time>2026-04-04T10:07:14.367Z</time></trkpt><trkpt lat="44.3883053" lon="11.1062114"><ele>503.0</ele><time>2026-04-04T10:07:17.365Z</time></trkpt><trkpt lat="44.3882409" lon="11.1061897"><ele>503.0</ele><time>2026-04-04T10:07:20.372Z</time></trkpt><trkpt lat="44.3881627" lon="11.1061778"><ele>503.0</ele><time>2026-04-04T10:07:24.363Z</time></trkpt><trkpt lat="44.3880758" lon="11.1061625"><ele>502.99999999999994</ele><time>2026-04-04T10:07:28.356Z</time></trkpt><trkpt lat="44.3879987" lon="11.1061364"><ele>503.0</ele><time>2026-04-04T10:07:31.373Z</time></trkpt><trkpt lat="44.3879241" lon="11.1060869"><ele>504.3333333333333</ele><time>2026-04-04T10:07:34.374Z</time></trkpt><trkpt lat="44.3878538" lon="11.1060289"><ele>505.66666666666663</ele><time>2026-04-04T10:07:37.37Z</time></trkpt><trkpt lat="44.3877865" lon="11.1059742"><ele>507.0</ele><time>2026-04-04T10:07:40.366Z</time></trkpt><trkpt lat="44.3877257" lon="11.1059189"><ele>508.33333333333337</ele><time>2026-04-04T10:07:43.382Z</time></trkpt><trkpt lat="44.3876591" lon="11.105861"><ele>509.6666666666667</ele><time>2026-04-04T10:07:46.373Z</time></trkpt><trkpt lat="44.3875964" lon="11.105798"><ele>511.0</ele><time>2026-04-04T10:07:49.372Z</time></trkpt><trkpt lat="44.3875269" lon="11.1057145"><ele>511.00000000000006</ele><time>2026-04-04T10:07:53.364Z</time></trkpt><trkpt lat="44.3874731" lon="11.1056602"><ele>511.0</ele><time>2026-04-04T10:07:55.374Z</time></trkpt><trkpt lat="44.3874258" lon="11.1055948"><ele>511.0</ele><time>2026-04-04T10:07:57.363Z</time></trkpt><trkpt lat="44.3873666" lon="11.1054998"><ele>511.0</ele><time>2026-04-04T10:08:00.372Z</time></trkpt><trkpt lat="44.3873082" lon="11.1054096"><ele>511.00000000000006</ele><time>2026-04-04T10:08:03.368Z</time></trkpt><trkpt lat="44.3872724" lon="11.1053"><ele>511.0</ele><time>2026-04-04T10:08:06.372Z</time></trkpt><trkpt lat="44.3872313" lon="11.1052133"><ele>511.0</ele><time>2026-04-04T10:08:09.367Z</time></trkpt><trkpt lat="44.3871949" lon="11.1051346"><ele>511.0</ele><time>2026-04-04T10:08:11.376Z</time></trkpt><trkpt lat="44.3871652" lon="11.1050539"><ele>511.0</ele><time>2026-04-04T10:08:13.369Z</time></trkpt><trkpt lat="44.3871316" lon="11.1049789"><ele>511.0</ele><time>2026-04-04T10:08:15.363Z</time></trkpt><trkpt lat="44.3870957" lon="11.1048927"><ele>511.0</ele><time>2026-04-04T10:08:17.356Z</time></trkpt><trkpt lat="44.3870573" lon="11.1048017"><ele>511.0</ele><time>2026-04-04T10:08:19.359Z</time></trkpt><trkpt lat="44.3870132" lon="11.104707"><ele>511.0</ele><time>2026-04-04T10:08:21.365Z</time></trkpt><trkpt lat="44.3869542" lon="11.1046198"><ele>513.6</ele><time>2026-04-04T10:08:23.37Z</time></trkpt><trkpt lat="44.3868883" lon="11.1045207"><ele>516.2</ele><time>2026-04-04T10:08:25.374Z</time></trkpt><trkpt lat="44.3868136" lon="11.1044235"><ele>518.8</ele><time>2026-04-04T10:08:27.379Z</time></trkpt><trkpt lat="44.3867225" lon="11.1043307"><ele>521.4</ele><time>2026-04-04T10:08:29.36Z</time></trkpt><trkpt lat="44.386639" lon="11.1042448"><ele>524.0</ele><time>2026-04-04T10:08:31.372Z</time></trkpt><trkpt lat="44.3865573" lon="11.1041531"><ele>522.6</ele><time>2026-04-04T10:08:33.374Z</time></trkpt><trkpt lat="44.3864802" lon="11.104054"><ele>521.2</ele><time>2026-04-04T10:08:35.363Z</time></trkpt><trkpt lat="44.3864291" lon="11.10393"><ele>519.8000000000001</ele><time>2026-04-04T10:08:37.368Z</time></trkpt><trkpt lat="44.3864101" lon="11.1037836"><ele>518.4</ele><time>2026-04-04T10:08:39.366Z</time></trkpt><trkpt lat="44.3864207" lon="11.1036345"><ele>517.0</ele><time>2026-04-04T10:08:41.37Z</time></trkpt><trkpt lat="44.3864477" lon="11.1034822"><ele>517.0</ele><time>2026-04-04T10:08:43.36Z</time></trkpt><trkpt lat="44.3864677" lon="11.1033315"><ele>517.0</ele><time>2026-04-04T10:08:45.381Z</time></trkpt><trkpt lat="44.3864411" lon="11.1031686"><ele>517.0</ele><time>2026-04-04T10:08:47.371Z</time></trkpt><trkpt lat="44.3863905" lon="11.1030137"><ele>517.0</ele><time>2026-04-04T10:08:49.362Z</time></trkpt><trkpt lat="44.3863558" lon="11.1029382"><ele>517.0</ele><time>2026-04-04T10:08:50.365Z</time></trkpt><trkpt lat="44.3863209" lon="11.1028612"><ele>519.1666666666667</ele><time>2026-04-04T10:08:51.373Z</time></trkpt><trkpt lat="44.3862837" lon="11.1027867"><ele>521.3333333333334</ele><time>2026-04-04T10:08:52.362Z</time></trkpt><trkpt lat="44.386248" lon="11.1027132"><ele>523.5</ele><time>2026-04-04T10:08:53.373Z</time></trkpt><trkpt lat="44.3861771" lon="11.102565"><ele>525.6666666666666</ele><time>2026-04-04T10:08:55.361Z</time></trkpt><trkpt lat="44.3861407" lon="11.1024835"><ele>527.8333333333333</ele><time>2026-04-04T10:08:56.362Z</time></trkpt><trkpt lat="44.3861137" lon="11.1023942"><ele>530.0</ele><time>2026-04-04T10:08:57.376Z</time></trkpt><trkpt lat="44.3861006" lon="11.1023036"><ele>529.9999999999999</ele><time>2026-04-04T10:08:58.362Z</time></trkpt><trkpt lat="44.3860982" lon="11.1022039"><ele>530.0</ele><time>2026-04-04T10:08:59.361Z</time></trkpt><trkpt lat="44.3861032" lon="11.1021102"><ele>530.0</ele><time>2026-04-04T10:09:00.365Z</time></trkpt><trkpt lat="44.3861115" lon="11.1020186"><ele>530.0</ele><time>2026-04-04T10:09:01.369Z</time></trkpt><trkpt lat="44.3861255" lon="11.1019225"><ele>530.0</ele><time>2026-04-04T10:09:02.376Z</time></trkpt><trkpt lat="44.3861372" lon="11.1018277"><ele>529.9999999999999</ele><time>2026-04-04T10:09:03.386Z</time></trkpt><trkpt lat="44.3861498" lon="11.1017385"><ele>530.0</ele><time>2026-04-04T10:09:04.365Z</time></trkpt><trkpt lat="44.3861715" lon="11.1015779"><ele>531.2</ele><time>2026-04-04T10:09:06.364Z</time></trkpt><trkpt lat="44.386196" lon="11.1014273"><ele>532.4</ele><time>2026-04-04T10:09:08.37Z</time></trkpt><trkpt lat="44.3862229" lon="11.1012784"><ele>533.6</ele><time>2026-04-04T10:09:10.358Z</time></trkpt><trkpt lat="44.3862442" lon="11.1011296"><ele>534.8</ele><time>2026-04-04T10:09:12.362Z</time></trkpt><trkpt lat="44.3862595" lon="11.1009853"><ele>536.0</ele><time>2026-04-04T10:09:14.371Z</time></trkpt><trkpt lat="44.3862727" lon="11.1008494"><ele>537.0</ele><time>2026-04-04T10:09:16.378Z</time></trkpt><trkpt lat="44.3862846" lon="11.1007163"><ele>538.0</ele><time>2026-04-04T10:09:18.36Z</time></trkpt><trkpt lat="44.3863016" lon="11.1005883"><ele>539.0</ele><time>2026-04-04T10:09:20.363Z</time></trkpt><trkpt lat="44.3863286" lon="11.1004602"><ele>540.0</ele><time>2026-04-04T10:09:22.361Z</time></trkpt><trkpt lat="44.3863499" lon="11.1003289"><ele>541.0</ele><time>2026-04-04T10:09:24.362Z</time></trkpt><trkpt lat="44.3863664" lon="11.100205"><ele>535.8</ele><time>2026-04-04T10:09:26.363Z</time></trkpt><trkpt lat="44.3863794" lon="11.1000758"><ele>530.6</ele><time>2026-04-04T10:09:28.363Z</time></trkpt><trkpt lat="44.3863874" lon="11.0999526"><ele>525.4</ele><time>2026-04-04T10:09:30.356Z</time></trkpt><trkpt lat="44.3863845" lon="11.0998267"><ele>520.2</ele><time>2026-04-04T10:09:32.366Z</time></trkpt><trkpt lat="44.3863699" lon="11.0996868"><ele>515.0</ele><time>2026-04-04T10:09:34.36Z</time></trkpt><trkpt lat="44.3863483" lon="11.0995268"><ele>516.0</ele><time>2026-04-04T10:09:36.361Z</time></trkpt><trkpt lat="44.3863323" lon="11.099432"><ele>517.0</ele><time>2026-04-04T10:09:37.367Z</time></trkpt><trkpt lat="44.38631" lon="11.0993359"><ele>518.0</ele><time>2026-04-04T10:09:38.364Z</time></trkpt><trkpt lat="44.3862881" lon="11.0992341"><ele>519.0</ele><time>2026-04-04T10:09:39.379Z</time></trkpt><trkpt lat="44.3862625" lon="11.0991295"><ele>520.0</ele><time>2026-04-04T10:09:40.371Z</time></trkpt><trkpt lat="44.3862311" lon="11.0990199"><ele>521.0</ele><time>2026-04-04T10:09:41.364Z</time></trkpt><trkpt lat="44.3861941" lon="11.0989133"><ele>521.0</ele><time>2026-04-04T10:09:42.372Z</time></trkpt><trkpt lat="44.3861474" lon="11.0988157"><ele>521.0</ele><time>2026-04-04T10:09:43.37Z</time></trkpt><trkpt lat="44.3860922" lon="11.0987316"><ele>521.0</ele><time>2026-04-04T10:09:44.367Z</time></trkpt><trkpt lat="44.3860336" lon="11.0986616"><ele>521.0</ele><time>2026-04-04T10:09:45.361Z</time></trkpt><trkpt lat="44.385976" lon="11.0985962"><ele>521.0</ele><time>2026-04-04T10:09:46.372Z</time></trkpt><trkpt lat="44.3859172" lon="11.0985448"><ele>521.0</ele><time>2026-04-04T10:09:47.378Z</time></trkpt><trkpt lat="44.3858625" lon="11.0984992"><ele>521.0</ele><time>2026-04-04T10:09:48.376Z</time></trkpt><trkpt lat="44.3857746" lon="11.0984096"><ele>521.0</ele><time>2026-04-04T10:09:50.382Z</time></trkpt><trkpt lat="44.3857109" lon="11.0983282"><ele>521.0</ele><time>2026-04-04T10:09:52.362Z</time></trkpt><trkpt lat="44.3856656" lon="11.0982612"><ele>521.0</ele><time>2026-04-04T10:09:54.384Z</time></trkpt><trkpt lat="44.3856115" lon="11.0981823"><ele>521.0</ele><time>2026-04-04T10:09:57.378Z</time></trkpt><trkpt lat="44.3855717" lon="11.0980974"><ele>521.0</ele><time>2026-04-04T10:10:00.371Z</time></trkpt><trkpt lat="44.3855311" lon="11.0979949"><ele>523.6666666666666</ele><time>2026-04-04T10:10:02.393Z</time></trkpt><trkpt lat="44.3854818" lon="11.0979039"><ele>526.3333333333333</ele><time>2026-04-04T10:10:04.373Z</time></trkpt><trkpt lat="44.3854369" lon="11.0978251"><ele>529.0</ele><time>2026-04-04T10:10:06.363Z</time></trkpt><trkpt lat="44.3854013" lon="11.0977229"><ele>531.6666666666666</ele><time>2026-04-04T10:10:08.37Z</time></trkpt><trkpt lat="44.3853798" lon="11.0976201"><ele>534.3333333333334</ele><time>2026-04-04T10:10:10.367Z</time></trkpt><trkpt lat="44.3853623" lon="11.0975271"><ele>537.0</ele><time>2026-04-04T10:10:12.359Z</time></trkpt><trkpt lat="44.3853446" lon="11.0974283"><ele>535.1666666666666</ele><time>2026-04-04T10:10:14.369Z</time></trkpt><trkpt lat="44.3853303" lon="11.0973412"><ele>533.3333333333334</ele><time>2026-04-04T10:10:16.374Z</time></trkpt><trkpt lat="44.3853156" lon="11.0972539"><ele>531.5</ele><time>2026-04-04T10:10:18.372Z</time></trkpt><trkpt lat="44.3852955" lon="11.0971304"><ele>529.6666666666667</ele><time>2026-04-04T10:10:21.376Z</time></trkpt><trkpt lat="44.3852808" lon="11.0970087"><ele>527.8333333333334</ele><time>2026-04-04T10:10:24.373Z</time></trkpt><trkpt lat="44.3852569" lon="11.0969093"><ele>526.0</ele><time>2026-04-04T10:10:27.378Z</time></trkpt><trkpt lat="44.3852155" lon="11.0968272"><ele>526.0</ele><time>2026-04-04T10:10:30.378Z</time></trkpt><trkpt lat="44.3851446" lon="11.0967743"><ele>526.0</ele><time>2026-04-04T10:10:34.358Z</time></trkpt><trkpt lat="44.3850782" lon="11.0967673"><ele>526.0</ele><time>2026-04-04T10:10:38.374Z</time></trkpt><trkpt lat="44.3850204" lon="11.0968188"><ele>526.0</ele><time>2026-04-04T10:10:41.365Z</time></trkpt><trkpt lat="44.3849616" lon="11.0969037"><ele>526.0</ele><time>2026-04-04T10:10:45.366Z</time></trkpt><trkpt lat="44.3849121" lon="11.0969972"><ele>526.0</ele><time>2026-04-04T10:10:49.349Z</time></trkpt><trkpt lat="44.3848757" lon="11.0970736"><ele>526.0</ele><time>2026-04-04T10:10:52.362Z</time></trkpt><trkpt lat="44.384846" lon="11.0971737"><ele>526.0</ele><time>2026-04-04T10:10:56.365Z</time></trkpt><trkpt lat="44.3848482" lon="11.0972651"><ele>526.0</ele><time>2026-04-04T10:11:01.384Z</time></trkpt><trkpt lat="44.3849054" lon="11.0973402"><ele>526.0</ele><time>2026-04-04T10:11:05.37Z</time></trkpt><trkpt lat="44.3849309" lon="11.0974267"><ele>526.0</ele><time>2026-04-04T10:11:08.372Z</time></trkpt><trkpt lat="44.3849671" lon="11.0975323"><ele>526.0</ele><time>2026-04-04T10:11:12.362Z</time></trkpt><trkpt lat="44.3850234" lon="11.0975921"><ele>526.0</ele><time>2026-04-04T10:11:18.366Z</time></trkpt><trkpt lat="44.3849973" lon="11.0974981"><ele>526.0</ele><time>2026-04-04T10:11:24.355Z</time></trkpt><trkpt lat="44.3849344" lon="11.0974638"><ele>526.0</ele><time>2026-04-04T10:12:57.369Z</time></trkpt><trkpt lat="44.3848946" lon="11.0973949"><ele>526.0</ele><time>2026-04-04T10:13:00.375Z</time></trkpt><trkpt lat="44.3848437" lon="11.0973304"><ele>526.0</ele><time>2026-04-04T10:13:03.383Z</time></trkpt><trkpt lat="44.3848391" lon="11.0971937"><ele>526.0</ele><time>2026-04-04T10:13:06.378Z</time></trkpt><trkpt lat="44.3849103" lon="11.0970628"><ele>526.0</ele><time>2026-04-04T10:13:08.372Z</time></trkpt><trkpt lat="44.3849511" lon="11.0969918"><ele>526.0</ele><time>2026-04-04T10:13:09.367Z</time></trkpt><trkpt lat="44.3850213" lon="11.0968711"><ele>526.0</ele><time>2026-04-04T10:13:11.371Z</time></trkpt><trkpt lat="44.385083" lon="11.0967785"><ele>526.0</ele><time>2026-04-04T10:13:13.367Z</time></trkpt><trkpt lat="44.385143" lon="11.0966777"><ele>526.0</ele><time>2026-04-04T10:13:15.364Z</time></trkpt><trkpt lat="44.3852063" lon="11.0965594"><ele>526.0</ele><time>2026-04-04T10:13:17.371Z</time></trkpt><trkpt lat="44.3852729" lon="11.096431"><ele>526.0</ele><time>2026-04-04T10:13:19.366Z</time></trkpt><trkpt lat="44.3853424" lon="11.0962923"><ele>523.4</ele><time>2026-04-04T10:13:21.368Z</time></trkpt><trkpt lat="44.3854179" lon="11.0961449"><ele>520.8</ele><time>2026-04-04T10:13:23.345Z</time></trkpt><trkpt lat="44.3854603" lon="11.0960693"><ele>518.1999999999999</ele><time>2026-04-04T10:13:24.369Z</time></trkpt><trkpt lat="44.3855012" lon="11.0959922"><ele>515.6</ele><time>2026-04-04T10:13:25.363Z</time></trkpt><trkpt lat="44.385542" lon="11.0959191"><ele>513.0</ele><time>2026-04-04T10:13:26.37Z</time></trkpt><trkpt lat="44.3856133" lon="11.0957783"><ele>510.0</ele><time>2026-04-04T10:13:28.368Z</time></trkpt><trkpt lat="44.3857175" lon="11.0956851"><ele>506.99999999999994</ele><time>2026-04-04T10:13:30.374Z</time></trkpt><trkpt lat="44.3857795" lon="11.095655"><ele>503.99999999999994</ele><time>2026-04-04T10:13:31.367Z</time></trkpt><trkpt lat="44.3858414" lon="11.0956371"><ele>501.0</ele><time>2026-04-04T10:13:32.38Z</time></trkpt><trkpt lat="44.385941" lon="11.095574"><ele>498.0</ele><time>2026-04-04T10:13:34.365Z</time></trkpt><trkpt lat="44.3859988" lon="11.0954527"><ele>498.0</ele><time>2026-04-04T10:13:36.376Z</time></trkpt><trkpt lat="44.3859978" lon="11.0952976"><ele>498.0</ele><time>2026-04-04T10:13:38.367Z</time></trkpt><trkpt lat="44.3859528" lon="11.0951566"><ele>498.0</ele><time>2026-04-04T10:13:40.364Z</time></trkpt><trkpt lat="44.3858919" lon="11.0950182"><ele>498.0</ele><time>2026-04-04T10:13:42.365Z</time></trkpt><trkpt lat="44.3858237" lon="11.0948747"><ele>495.57142857142856</ele><time>2026-04-04T10:13:44.375Z</time></trkpt><trkpt lat="44.3857871" lon="11.094799"><ele>493.1428571428571</ele><time>2026-04-04T10:13:45.364Z</time></trkpt><trkpt lat="44.385749" lon="11.0947178"><ele>490.71428571428567</ele><time>2026-04-04T10:13:46.371Z</time></trkpt><trkpt lat="44.3857067" lon="11.0946331"><ele>488.2857142857142</ele><time>2026-04-04T10:13:47.371Z</time></trkpt><trkpt lat="44.385665" lon="11.0945448"><ele>485.85714285714283</ele><time>2026-04-04T10:13:48.363Z</time></trkpt><trkpt lat="44.3856256" lon="11.0944554"><ele>483.42857142857133</ele><time>2026-04-04T10:13:49.374Z</time></trkpt><trkpt lat="44.3855859" lon="11.0943642"><ele>480.99999999999994</ele><time>2026-04-04T10:13:50.37Z</time></trkpt><trkpt lat="44.3855484" lon="11.0942721"><ele>480.99999999999994</ele><time>2026-04-04T10:13:51.361Z</time></trkpt><trkpt lat="44.3855132" lon="11.0941782"><ele>481.0</ele><time>2026-04-04T10:13:52.365Z</time></trkpt><trkpt lat="44.3854777" lon="11.0940839"><ele>480.99999999999994</ele><time>2026-04-04T10:13:53.374Z</time></trkpt><trkpt lat="44.3854436" lon="11.0939927"><ele>480.99999999999994</ele><time>2026-04-04T10:13:54.369Z</time></trkpt><trkpt lat="44.3854092" lon="11.0939048"><ele>481.0</ele><time>2026-04-04T10:13:55.368Z</time></trkpt><trkpt lat="44.3853757" lon="11.0938163"><ele>480.99999999999994</ele><time>2026-04-04T10:13:56.368Z</time></trkpt><trkpt lat="44.3853418" lon="11.0937297"><ele>480.99999999999994</ele><time>2026-04-04T10:13:57.368Z</time></trkpt><trkpt lat="44.3853086" lon="11.0936416"><ele>480.71428571428567</ele><time>2026-04-04T10:13:58.368Z</time></trkpt><trkpt lat="44.3852757" lon="11.0935562"><ele>480.42857142857144</ele><time>2026-04-04T10:13:59.373Z</time></trkpt><trkpt lat="44.3852454" lon="11.0934734"><ele>480.1428571428571</ele><time>2026-04-04T10:14:00.374Z</time></trkpt><trkpt lat="44.3852206" lon="11.093387"><ele>479.85714285714283</ele><time>2026-04-04T10:14:01.373Z</time></trkpt><trkpt lat="44.3852048" lon="11.0932974"><ele>479.57142857142856</ele><time>2026-04-04T10:14:02.369Z</time></trkpt><trkpt lat="44.3852055" lon="11.0932071"><ele>479.2857142857143</ele><time>2026-04-04T10:14:03.383Z</time></trkpt><trkpt lat="44.3852259" lon="11.0931155"><ele>479.0</ele><time>2026-04-04T10:14:04.366Z</time></trkpt><trkpt lat="44.3852588" lon="11.0930251"><ele>476.6</ele><time>2026-04-04T10:14:05.368Z</time></trkpt><trkpt lat="44.3852871" lon="11.0929415"><ele>474.2</ele><time>2026-04-04T10:14:06.371Z</time></trkpt><trkpt lat="44.3853109" lon="11.0927757"><ele>471.80000000000007</ele><time>2026-04-04T10:14:08.38Z</time></trkpt><trkpt lat="44.3852826" lon="11.0926138"><ele>469.40000000000003</ele><time>2026-04-04T10:14:10.368Z</time></trkpt><trkpt lat="44.3852135" lon="11.0924804"><ele>467.0</ele><time>2026-04-04T10:14:12.384Z</time></trkpt><trkpt lat="44.3851759" lon="11.0924049"><ele>465.71428571428567</ele><time>2026-04-04T10:14:13.371Z</time></trkpt><trkpt lat="44.3851381" lon="11.0923264"><ele>464.42857142857144</ele><time>2026-04-04T10:14:14.374Z</time></trkpt><trkpt lat="44.3851098" lon="11.0922372"><ele>463.1428571428571</ele><time>2026-04-04T10:14:15.368Z</time></trkpt><trkpt lat="44.3851062" lon="11.0921403"><ele>461.85714285714283</ele><time>2026-04-04T10:14:16.373Z</time></trkpt><trkpt lat="44.385116" lon="11.0920421"><ele>460.57142857142856</ele><time>2026-04-04T10:14:17.37Z</time></trkpt><trkpt lat="44.3851249" lon="11.0919484"><ele>459.2857142857143</ele><time>2026-04-04T10:14:18.368Z</time></trkpt><trkpt lat="44.3851286" lon="11.0918597"><ele>458.0</ele><time>2026-04-04T10:14:19.368Z</time></trkpt><trkpt lat="44.3850912" lon="11.0917001"><ele>457.99999999999994</ele><time>2026-04-04T10:14:21.374Z</time></trkpt><trkpt lat="44.3849906" lon="11.0916107"><ele>458.0</ele><time>2026-04-04T10:14:23.359Z</time></trkpt><trkpt lat="44.3849236" lon="11.0915936"><ele>458.0</ele><time>2026-04-04T10:14:24.363Z</time></trkpt><trkpt lat="44.3848565" lon="11.091577"><ele>458.0</ele><time>2026-04-04T10:14:25.377Z</time></trkpt><trkpt lat="44.3847894" lon="11.091558"><ele>457.99999999999994</ele><time>2026-04-04T10:14:26.363Z</time></trkpt><trkpt lat="44.3847321" lon="11.0915172"><ele>458.0</ele><time>2026-04-04T10:14:27.367Z</time></trkpt><trkpt lat="44.3846885" lon="11.0914476"><ele>455.99999999999994</ele><time>2026-04-04T10:14:28.363Z</time></trkpt><trkpt lat="44.3846639" lon="11.0913605"><ele>454.0</ele><time>2026-04-04T10:14:29.387Z</time></trkpt><trkpt lat="44.3846867" lon="11.0912757"><ele>452.0</ele><time>2026-04-04T10:14:30.364Z</time></trkpt><trkpt lat="44.3847132" lon="11.091185"><ele>450.0</ele><time>2026-04-04T10:14:31.368Z</time></trkpt><trkpt lat="44.3847735" lon="11.0911061"><ele>447.99999999999994</ele><time>2026-04-04T10:14:32.366Z</time></trkpt><trkpt lat="44.3848438" lon="11.0910298"><ele>446.0</ele><time>2026-04-04T10:14:33.37Z</time></trkpt><trkpt lat="44.3849111" lon="11.0909504"><ele>445.99999999999994</ele><time>2026-04-04T10:14:34.362Z</time></trkpt><trkpt lat="44.3849756" lon="11.0908776"><ele>446.0</ele><time>2026-04-04T10:14:35.37Z</time></trkpt><trkpt lat="44.3850396" lon="11.0908079"><ele>446.0</ele><time>2026-04-04T10:14:36.366Z</time></trkpt><trkpt lat="44.3851005" lon="11.0907539"><ele>446.0</ele><time>2026-04-04T10:14:37.371Z</time></trkpt><trkpt lat="44.3851604" lon="11.0907201"><ele>445.99999999999994</ele><time>2026-04-04T10:14:38.374Z</time></trkpt><trkpt lat="44.3852833" lon="11.0907002"><ele>446.0</ele><time>2026-04-04T10:14:40.373Z</time></trkpt><trkpt lat="44.3853821" lon="11.090601"><ele>442.6</ele><time>2026-04-04T10:14:42.378Z</time></trkpt><trkpt lat="44.3854138" lon="11.0904444"><ele>439.20000000000005</ele><time>2026-04-04T10:14:44.374Z</time></trkpt><trkpt lat="44.3854475" lon="11.0902913"><ele>435.79999999999995</ele><time>2026-04-04T10:14:46.377Z</time></trkpt><trkpt lat="44.3855399" lon="11.0901784"><ele>432.4</ele><time>2026-04-04T10:14:48.371Z</time></trkpt><trkpt lat="44.3856045" lon="11.090138"><ele>429.0</ele><time>2026-04-04T10:14:49.362Z</time></trkpt><trkpt lat="44.3856714" lon="11.0901089"><ele>427.3333333333333</ele><time>2026-04-04T10:14:50.372Z</time></trkpt><trkpt lat="44.3857376" lon="11.0900833"><ele>425.66666666666663</ele><time>2026-04-04T10:14:51.372Z</time></trkpt><trkpt lat="44.3858318" lon="11.0900006"><ele>424.0</ele><time>2026-04-04T10:14:53.367Z</time></trkpt><trkpt lat="44.3858631" lon="11.0898853"><ele>422.3333333333333</ele><time>2026-04-04T10:14:55.367Z</time></trkpt><trkpt lat="44.3858365" lon="11.0897719"><ele>420.66666666666663</ele><time>2026-04-04T10:14:57.368Z</time></trkpt><trkpt lat="44.3857657" lon="11.0897011"><ele>419.0</ele><time>2026-04-04T10:14:59.377Z</time></trkpt><trkpt lat="44.3856758" lon="11.0896865"><ele>417.99999999999994</ele><time>2026-04-04T10:15:01.37Z</time></trkpt><trkpt lat="44.3855658" lon="11.0897362"><ele>417.0</ele><time>2026-04-04T10:15:03.371Z</time></trkpt><trkpt lat="44.3854464" lon="11.0897845"><ele>416.0</ele><time>2026-04-04T10:15:05.372Z</time></trkpt><trkpt lat="44.3853817" lon="11.0898014"><ele>415.0</ele><time>2026-04-04T10:15:06.362Z</time></trkpt><trkpt lat="44.3853163" lon="11.0897991"><ele>413.99999999999994</ele><time>2026-04-04T10:15:07.37Z</time></trkpt><trkpt lat="44.3852474" lon="11.0897854"><ele>413.0</ele><time>2026-04-04T10:15:08.379Z</time></trkpt><trkpt lat="44.3851489" lon="11.0896894"><ele>413.0</ele><time>2026-04-04T10:15:10.369Z</time></trkpt><trkpt lat="44.3851335" lon="11.0895281"><ele>413.0</ele><time>2026-04-04T10:15:12.368Z</time></trkpt><trkpt lat="44.3852427" lon="11.0894106"><ele>413.0</ele><time>2026-04-04T10:15:14.37Z</time></trkpt><trkpt lat="44.3853082" lon="11.0894"><ele>413.0</ele><time>2026-04-04T10:15:15.391Z</time></trkpt><trkpt lat="44.3853752" lon="11.0894195"><ele>413.0</ele><time>2026-04-04T10:15:16.367Z</time></trkpt><trkpt lat="44.3854443" lon="11.0894432"><ele>412.2857142857143</ele><time>2026-04-04T10:15:17.367Z</time></trkpt><trkpt lat="44.3855125" lon="11.0894402"><ele>411.57142857142856</ele><time>2026-04-04T10:15:18.366Z</time></trkpt><trkpt lat="44.3855819" lon="11.0894015"><ele>410.8571428571429</ele><time>2026-04-04T10:15:19.366Z</time></trkpt><trkpt lat="44.3856399" lon="11.0893337"><ele>410.1428571428571</ele><time>2026-04-04T10:15:20.37Z</time></trkpt><trkpt lat="44.3856886" lon="11.0892556"><ele>409.42857142857144</ele><time>2026-04-04T10:15:21.371Z</time></trkpt><trkpt lat="44.3857362" lon="11.0891807"><ele>408.7142857142857</ele><time>2026-04-04T10:15:22.364Z</time></trkpt><trkpt lat="44.3857921" lon="11.089115"><ele>408.0</ele><time>2026-04-04T10:15:23.361Z</time></trkpt><trkpt lat="44.3858621" lon="11.0890824"><ele>408.0</ele><time>2026-04-04T10:15:24.365Z</time></trkpt><trkpt lat="44.3859419" lon="11.0890922"><ele>408.0</ele><time>2026-04-04T10:15:25.365Z</time></trkpt><trkpt lat="44.3860196" lon="11.0891076"><ele>408.0</ele><time>2026-04-04T10:15:26.36Z</time></trkpt><trkpt lat="44.3860886" lon="11.0891481"><ele>408.0</ele><time>2026-04-04T10:15:27.376Z</time></trkpt><trkpt lat="44.3861531" lon="11.0891863"><ele>408.0</ele><time>2026-04-04T10:15:28.379Z</time></trkpt><trkpt lat="44.3862763" lon="11.0892125"><ele>408.0</ele><time>2026-04-04T10:15:30.377Z</time></trkpt><trkpt lat="44.3863776" lon="11.0891161"><ele>405.6666666666667</ele><time>2026-04-04T10:15:32.355Z</time></trkpt><trkpt lat="44.3863593" lon="11.0889399"><ele>403.33333333333337</ele><time>2026-04-04T10:15:34.378Z</time></trkpt><trkpt lat="44.3863158" lon="11.0888614"><ele>401.0</ele><time>2026-04-04T10:15:35.365Z</time></trkpt><trkpt lat="44.3862633" lon="11.0887791"><ele>398.6666666666667</ele><time>2026-04-04T10:15:36.366Z</time></trkpt><trkpt lat="44.3862099" lon="11.0887023"><ele>396.33333333333337</ele><time>2026-04-04T10:15:37.364Z</time></trkpt><trkpt lat="44.3861476" lon="11.0886243"><ele>394.0</ele><time>2026-04-04T10:15:38.374Z</time></trkpt><trkpt lat="44.386089" lon="11.0885475"><ele>394.00000000000006</ele><time>2026-04-04T10:15:39.38Z</time></trkpt><trkpt lat="44.386033" lon="11.0884678"><ele>394.0</ele><time>2026-04-04T10:15:40.372Z</time></trkpt><trkpt lat="44.3859812" lon="11.0883873"><ele>394.0</ele><time>2026-04-04T10:15:41.373Z</time></trkpt><trkpt lat="44.3859294" lon="11.0883046"><ele>394.0</ele><time>2026-04-04T10:15:42.37Z</time></trkpt><trkpt lat="44.3858779" lon="11.0882218"><ele>394.00000000000006</ele><time>2026-04-04T10:15:43.375Z</time></trkpt><trkpt lat="44.3858403" lon="11.0881165"><ele>394.0</ele><time>2026-04-04T10:15:44.367Z</time></trkpt><trkpt lat="44.3858009" lon="11.0879994"><ele>392.00000000000006</ele><time>2026-04-04T10:15:45.363Z</time></trkpt><trkpt lat="44.3857627" lon="11.0878793"><ele>390.0</ele><time>2026-04-04T10:15:46.367Z</time></trkpt><trkpt lat="44.385729" lon="11.0877603"><ele>388.0</ele><time>2026-04-04T10:15:47.377Z</time></trkpt><trkpt lat="44.385697" lon="11.0876476"><ele>386.0</ele><time>2026-04-04T10:15:48.379Z</time></trkpt><trkpt lat="44.3856666" lon="11.0875373"><ele>384.0</ele><time>2026-04-04T10:15:49.379Z</time></trkpt><trkpt lat="44.3856394" lon="11.0874327"><ele>382.0</ele><time>2026-04-04T10:15:50.369Z</time></trkpt><trkpt lat="44.3856235" lon="11.0873249"><ele>380.40000000000003</ele><time>2026-04-04T10:15:51.359Z</time></trkpt><trkpt lat="44.3856298" lon="11.0872094"><ele>378.8</ele><time>2026-04-04T10:15:52.381Z</time></trkpt><trkpt lat="44.3856652" lon="11.0870873"><ele>377.2</ele><time>2026-04-04T10:15:53.381Z</time></trkpt><trkpt lat="44.3857209" lon="11.0869696"><ele>375.6</ele><time>2026-04-04T10:15:54.381Z</time></trkpt><trkpt lat="44.3857779" lon="11.0868503"><ele>374.0</ele><time>2026-04-04T10:15:55.362Z</time></trkpt><trkpt lat="44.3858314" lon="11.0867407"><ele>374.0</ele><time>2026-04-04T10:15:56.377Z</time></trkpt><trkpt lat="44.3858788" lon="11.0866333"><ele>374.0</ele><time>2026-04-04T10:15:57.376Z</time></trkpt><trkpt lat="44.3859284" lon="11.0865214"><ele>374.0</ele><time>2026-04-04T10:15:58.381Z</time></trkpt><trkpt lat="44.3859782" lon="11.0864159"><ele>374.0</ele><time>2026-04-04T10:15:59.376Z</time></trkpt><trkpt lat="44.3860227" lon="11.0863129"><ele>374.0</ele><time>2026-04-04T10:16:00.381Z</time></trkpt><trkpt lat="44.3860628" lon="11.086211"><ele>374.0</ele><time>2026-04-04T10:16:01.373Z</time></trkpt><trkpt lat="44.3860915" lon="11.086107"><ele>372.1666666666667</ele><time>2026-04-04T10:16:02.374Z</time></trkpt><trkpt lat="44.3861038" lon="11.0859974"><ele>370.33333333333337</ele><time>2026-04-04T10:16:03.361Z</time></trkpt><trkpt lat="44.3861166" lon="11.0858784"><ele>368.5</ele><time>2026-04-04T10:16:04.376Z</time></trkpt><trkpt lat="44.3861084" lon="11.085749"><ele>366.6666666666667</ele><time>2026-04-04T10:16:05.366Z</time></trkpt><trkpt lat="44.3860902" lon="11.0856174"><ele>364.8333333333333</ele><time>2026-04-04T10:16:06.376Z</time></trkpt><trkpt lat="44.3860679" lon="11.0854889"><ele>363.0</ele><time>2026-04-04T10:16:07.37Z</time></trkpt><trkpt lat="44.3860493" lon="11.0853706"><ele>362.2857142857143</ele><time>2026-04-04T10:16:08.38Z</time></trkpt><trkpt lat="44.3860383" lon="11.0852608"><ele>361.57142857142856</ele><time>2026-04-04T10:16:09.368Z</time></trkpt><trkpt lat="44.3860524" lon="11.0851551"><ele>360.8571428571429</ele><time>2026-04-04T10:16:10.366Z</time></trkpt><trkpt lat="44.3861078" lon="11.0850869"><ele>360.1428571428571</ele><time>2026-04-04T10:16:11.372Z</time></trkpt><trkpt lat="44.3861619" lon="11.0850205"><ele>359.42857142857144</ele><time>2026-04-04T10:16:12.374Z</time></trkpt><trkpt lat="44.3862266" lon="11.0849806"><ele>358.7142857142857</ele><time>2026-04-04T10:16:13.373Z</time></trkpt><trkpt lat="44.3862966" lon="11.0849397"><ele>358.0</ele><time>2026-04-04T10:16:14.376Z</time></trkpt><trkpt lat="44.3863607" lon="11.0848997"><ele>356.8571428571429</ele><time>2026-04-04T10:16:15.375Z</time></trkpt><trkpt lat="44.3864238" lon="11.0848597"><ele>355.7142857142857</ele><time>2026-04-04T10:16:16.372Z</time></trkpt><trkpt lat="44.3864875" lon="11.0848183"><ele>354.57142857142856</ele><time>2026-04-04T10:16:17.372Z</time></trkpt><trkpt lat="44.3865515" lon="11.0847767"><ele>353.42857142857144</ele><time>2026-04-04T10:16:18.374Z</time></trkpt><trkpt lat="44.3866139" lon="11.0847348"><ele>352.2857142857143</ele><time>2026-04-04T10:16:19.368Z</time></trkpt><trkpt lat="44.3866755" lon="11.084691"><ele>351.14285714285717</ele><time>2026-04-04T10:16:20.39Z</time></trkpt><trkpt lat="44.3867367" lon="11.0846419"><ele>350.0</ele><time>2026-04-04T10:16:21.373Z</time></trkpt><trkpt lat="44.386799" lon="11.0845898"><ele>350.0</ele><time>2026-04-04T10:16:22.373Z</time></trkpt><trkpt lat="44.3868624" lon="11.0845384"><ele>350.0</ele><time>2026-04-04T10:16:23.364Z</time></trkpt><trkpt lat="44.3869278" lon="11.0844872"><ele>350.0</ele><time>2026-04-04T10:16:24.371Z</time></trkpt><trkpt lat="44.3870009" lon="11.0844436"><ele>350.0</ele><time>2026-04-04T10:16:25.365Z</time></trkpt><trkpt lat="44.3870787" lon="11.0844072"><ele>350.0</ele><time>2026-04-04T10:16:26.373Z</time></trkpt><trkpt lat="44.3871572" lon="11.0843806"><ele>350.0</ele><time>2026-04-04T10:16:27.367Z</time></trkpt><trkpt lat="44.3872395" lon="11.0843565"><ele>350.2857142857143</ele><time>2026-04-04T10:16:28.375Z</time></trkpt><trkpt lat="44.387322" lon="11.0843357"><ele>350.57142857142856</ele><time>2026-04-04T10:16:29.365Z</time></trkpt><trkpt lat="44.3874066" lon="11.0843181"><ele>350.8571428571429</ele><time>2026-04-04T10:16:30.37Z</time></trkpt><trkpt lat="44.3874837" lon="11.0843012"><ele>351.1428571428571</ele><time>2026-04-04T10:16:31.363Z</time></trkpt><trkpt lat="44.3875547" lon="11.0842905"><ele>351.42857142857144</ele><time>2026-04-04T10:16:32.376Z</time></trkpt><trkpt lat="44.387619" lon="11.084272"><ele>351.7142857142857</ele><time>2026-04-04T10:16:33.373Z</time></trkpt><trkpt lat="44.387682" lon="11.0842564"><ele>352.0</ele><time>2026-04-04T10:16:34.371Z</time></trkpt><trkpt lat="44.387798" lon="11.0841973"><ele>352.0</ele><time>2026-04-04T10:16:36.372Z</time></trkpt><trkpt lat="44.3878597" lon="11.0841572"><ele>352.0</ele><time>2026-04-04T10:16:37.366Z</time></trkpt><trkpt lat="44.3879319" lon="11.0841093"><ele>352.0</ele><time>2026-04-04T10:16:38.368Z</time></trkpt><trkpt lat="44.3880111" lon="11.0840578"><ele>352.0</ele><time>2026-04-04T10:16:39.369Z</time></trkpt><trkpt lat="44.3880899" lon="11.0840033"><ele>352.0</ele><time>2026-04-04T10:16:40.368Z</time></trkpt><trkpt lat="44.3881649" lon="11.0839491"><ele>352.0</ele><time>2026-04-04T10:16:41.363Z</time></trkpt><trkpt lat="44.3882445" lon="11.0838916"><ele>349.40000000000003</ele><time>2026-04-04T10:16:42.366Z</time></trkpt><trkpt lat="44.3883248" lon="11.0838326"><ele>346.8</ele><time>2026-04-04T10:16:43.368Z</time></trkpt><trkpt lat="44.3884076" lon="11.0837567"><ele>344.2</ele><time>2026-04-04T10:16:44.365Z</time></trkpt><trkpt lat="44.38849" lon="11.0836769"><ele>341.6</ele><time>2026-04-04T10:16:45.366Z</time></trkpt><trkpt lat="44.3885774" lon="11.0836033"><ele>339.0</ele><time>2026-04-04T10:16:46.37Z</time></trkpt><trkpt lat="44.3886614" lon="11.0835314"><ele>339.0</ele><time>2026-04-04T10:16:47.363Z</time></trkpt><trkpt lat="44.3887518" lon="11.0834812"><ele>339.0</ele><time>2026-04-04T10:16:48.369Z</time></trkpt><trkpt lat="44.3888348" lon="11.0834326"><ele>339.0</ele><time>2026-04-04T10:16:49.377Z</time></trkpt><trkpt lat="44.3889232" lon="11.0833993"><ele>339.0</ele><time>2026-04-04T10:16:50.364Z</time></trkpt><trkpt lat="44.3890065" lon="11.0833554"><ele>339.0</ele><time>2026-04-04T10:16:51.373Z</time></trkpt><trkpt lat="44.3890948" lon="11.0833112"><ele>337.0</ele><time>2026-04-04T10:16:52.376Z</time></trkpt><trkpt lat="44.389183" lon="11.0832413"><ele>335.0</ele><time>2026-04-04T10:16:53.373Z</time></trkpt><trkpt lat="44.3892723" lon="11.083165"><ele>333.0</ele><time>2026-04-04T10:16:54.368Z</time></trkpt><trkpt lat="44.3893595" lon="11.0830786"><ele>331.0</ele><time>2026-04-04T10:16:55.372Z</time></trkpt><trkpt lat="44.3894483" lon="11.0829947"><ele>329.0</ele><time>2026-04-04T10:16:56.371Z</time></trkpt><trkpt lat="44.3895404" lon="11.0829077"><ele>329.0</ele><time>2026-04-04T10:16:57.378Z</time></trkpt><trkpt lat="44.3896315" lon="11.082817"><ele>329.0</ele><time>2026-04-04T10:16:58.371Z</time></trkpt><trkpt lat="44.3897167" lon="11.0827199"><ele>329.0</ele><time>2026-04-04T10:16:59.374Z</time></trkpt><trkpt lat="44.3898037" lon="11.0826326"><ele>329.0</ele><time>2026-04-04T10:17:00.378Z</time></trkpt><trkpt lat="44.3898949" lon="11.0825501"><ele>329.0</ele><time>2026-04-04T10:17:01.368Z</time></trkpt><trkpt lat="44.3899917" lon="11.0824689"><ele>326.2</ele><time>2026-04-04T10:17:02.369Z</time></trkpt><trkpt lat="44.3900914" lon="11.0824004"><ele>323.4</ele><time>2026-04-04T10:17:03.372Z</time></trkpt><trkpt lat="44.3901903" lon="11.0823312"><ele>320.6</ele><time>2026-04-04T10:17:04.369Z</time></trkpt><trkpt lat="44.3902869" lon="11.0822612"><ele>317.8</ele><time>2026-04-04T10:17:05.367Z</time></trkpt><trkpt lat="44.3903766" lon="11.0821774"><ele>315.0</ele><time>2026-04-04T10:17:06.396Z</time></trkpt><trkpt lat="44.3904585" lon="11.0820892"><ele>315.2</ele><time>2026-04-04T10:17:07.381Z</time></trkpt><trkpt lat="44.3905453" lon="11.082002"><ele>315.4</ele><time>2026-04-04T10:17:08.375Z</time></trkpt><trkpt lat="44.3906302" lon="11.0819147"><ele>315.6</ele><time>2026-04-04T10:17:09.361Z</time></trkpt><trkpt lat="44.3907143" lon="11.0818366"><ele>315.8</ele><time>2026-04-04T10:17:10.371Z</time></trkpt><trkpt lat="44.3907908" lon="11.0817672"><ele>316.0</ele><time>2026-04-04T10:17:11.369Z</time></trkpt><trkpt lat="44.3908555" lon="11.0817076"><ele>316.0</ele><time>2026-04-04T10:17:12.363Z</time></trkpt><trkpt lat="44.3909123" lon="11.0816549"><ele>316.0</ele><time>2026-04-04T10:17:13.366Z</time></trkpt><trkpt lat="44.3909838" lon="11.0815529"><ele>316.0</ele><time>2026-04-04T10:17:15.373Z</time></trkpt><trkpt lat="44.3909485" lon="11.0814138"><ele>316.0</ele><time>2026-04-04T10:17:17.377Z</time></trkpt><trkpt lat="44.3908952" lon="11.0813597"><ele>316.0</ele><time>2026-04-04T10:17:18.364Z</time></trkpt><trkpt lat="44.3908292" lon="11.0813213"><ele>316.0</ele><time>2026-04-04T10:17:19.371Z</time></trkpt><trkpt lat="44.3907566" lon="11.0812803"><ele>314.66666666666663</ele><time>2026-04-04T10:17:20.373Z</time></trkpt><trkpt lat="44.3906776" lon="11.0812366"><ele>313.3333333333333</ele><time>2026-04-04T10:17:21.366Z</time></trkpt><trkpt lat="44.3905927" lon="11.0811919"><ele>312.0</ele><time>2026-04-04T10:17:22.377Z</time></trkpt><trkpt lat="44.3905135" lon="11.0811444"><ele>310.6666666666667</ele><time>2026-04-04T10:17:23.368Z</time></trkpt><trkpt lat="44.3904374" lon="11.0810962"><ele>309.33333333333337</ele><time>2026-04-04T10:17:24.369Z</time></trkpt><trkpt lat="44.3903693" lon="11.0810359"><ele>308.0</ele><time>2026-04-04T10:17:25.377Z</time></trkpt><trkpt lat="44.3903093" lon="11.0809608"><ele>307.85714285714283</ele><time>2026-04-04T10:17:26.373Z</time></trkpt><trkpt lat="44.3902585" lon="11.080878"><ele>307.7142857142857</ele><time>2026-04-04T10:17:27.37Z</time></trkpt><trkpt lat="44.3902109" lon="11.0807966"><ele>307.57142857142856</ele><time>2026-04-04T10:17:28.368Z</time></trkpt><trkpt lat="44.3901645" lon="11.0807174"><ele>307.42857142857144</ele><time>2026-04-04T10:17:29.369Z</time></trkpt><trkpt lat="44.3901174" lon="11.080636"><ele>307.2857142857143</ele><time>2026-04-04T10:17:30.375Z</time></trkpt><trkpt lat="44.3900731" lon="11.0805566"><ele>307.1428571428571</ele><time>2026-04-04T10:17:31.368Z</time></trkpt><trkpt lat="44.3900288" lon="11.080478"><ele>307.0</ele><time>2026-04-04T10:17:32.36Z</time></trkpt><trkpt lat="44.3899877" lon="11.0804016"><ele>305.8333333333333</ele><time>2026-04-04T10:17:33.378Z</time></trkpt><trkpt lat="44.3899403" lon="11.0803329"><ele>304.66666666666663</ele><time>2026-04-04T10:17:34.363Z</time></trkpt><trkpt lat="44.3898834" lon="11.0802804"><ele>303.5</ele><time>2026-04-04T10:17:35.373Z</time></trkpt><trkpt lat="44.3898245" lon="11.0802281"><ele>302.3333333333333</ele><time>2026-04-04T10:17:36.37Z</time></trkpt><trkpt lat="44.3897542" lon="11.0802127"><ele>301.1666666666667</ele><time>2026-04-04T10:17:37.365Z</time></trkpt><trkpt lat="44.3896395" lon="11.0802113"><ele>300.0</ele><time>2026-04-04T10:17:39.369Z</time></trkpt><trkpt lat="44.3895379" lon="11.0802188"><ele>300.0</ele><time>2026-04-04T10:17:41.364Z</time></trkpt><trkpt lat="44.3894629" lon="11.0801586"><ele>300.0</ele><time>2026-04-04T10:17:43.369Z</time></trkpt><trkpt lat="44.3895059" lon="11.0800281"><ele>300.0</ele><time>2026-04-04T10:17:45.366Z</time></trkpt><trkpt lat="44.3895685" lon="11.0799763"><ele>300.0</ele><time>2026-04-04T10:17:46.38Z</time></trkpt><trkpt lat="44.3896366" lon="11.0799194"><ele>300.0</ele><time>2026-04-04T10:17:47.364Z</time></trkpt><trkpt lat="44.389707" lon="11.0798561"><ele>300.0</ele><time>2026-04-04T10:17:48.36Z</time></trkpt><trkpt lat="44.3897703" lon="11.0797869"><ele>298.71428571428567</ele><time>2026-04-04T10:17:49.37Z</time></trkpt><trkpt lat="44.3898191" lon="11.0797024"><ele>297.42857142857144</ele><time>2026-04-04T10:17:50.365Z</time></trkpt><trkpt lat="44.3898357" lon="11.0796017"><ele>296.1428571428571</ele><time>2026-04-04T10:17:51.377Z</time></trkpt><trkpt lat="44.3898518" lon="11.0795028"><ele>294.85714285714283</ele><time>2026-04-04T10:17:52.359Z</time></trkpt><trkpt lat="44.3898504" lon="11.0794046"><ele>293.57142857142856</ele><time>2026-04-04T10:17:53.372Z</time></trkpt><trkpt lat="44.3898469" lon="11.0793089"><ele>292.2857142857143</ele><time>2026-04-04T10:17:54.362Z</time></trkpt><trkpt lat="44.3898495" lon="11.0792156"><ele>291.0</ele><time>2026-04-04T10:17:55.366Z</time></trkpt><trkpt lat="44.3898647" lon="11.0791185"><ele>290.1428571428571</ele><time>2026-04-04T10:17:56.365Z</time></trkpt><trkpt lat="44.389892" lon="11.0790332"><ele>289.2857142857143</ele><time>2026-04-04T10:17:57.363Z</time></trkpt><trkpt lat="44.3899339" lon="11.0789579"><ele>288.42857142857144</ele><time>2026-04-04T10:17:58.372Z</time></trkpt><trkpt lat="44.3899782" lon="11.0788825"><ele>287.57142857142856</ele><time>2026-04-04T10:17:59.366Z</time></trkpt><trkpt lat="44.3900208" lon="11.0787975"><ele>286.7142857142857</ele><time>2026-04-04T10:18:00.366Z</time></trkpt><trkpt lat="44.3900669" lon="11.0787051"><ele>285.85714285714283</ele><time>2026-04-04T10:18:01.364Z</time></trkpt><trkpt lat="44.3901086" lon="11.0786065"><ele>285.0</ele><time>2026-04-04T10:18:02.369Z</time></trkpt><trkpt lat="44.3901476" lon="11.0785046"><ele>285.0</ele><time>2026-04-04T10:18:03.363Z</time></trkpt><trkpt lat="44.3901817" lon="11.0783941"><ele>285.0</ele><time>2026-04-04T10:18:04.365Z</time></trkpt><trkpt lat="44.3902091" lon="11.0782683"><ele>285.0</ele><time>2026-04-04T10:18:05.362Z</time></trkpt><trkpt lat="44.3902247" lon="11.0781433"><ele>285.0</ele><time>2026-04-04T10:18:06.368Z</time></trkpt><trkpt lat="44.3902389" lon="11.0780106"><ele>285.0</ele><time>2026-04-04T10:18:07.366Z</time></trkpt><trkpt lat="44.3902539" lon="11.0778794"><ele>284.4</ele><time>2026-04-04T10:18:08.364Z</time></trkpt><trkpt lat="44.3902722" lon="11.0777471"><ele>283.8</ele><time>2026-04-04T10:18:09.372Z</time></trkpt><trkpt lat="44.3902903" lon="11.0776155"><ele>283.2</ele><time>2026-04-04T10:18:10.392Z</time></trkpt><trkpt lat="44.3903007" lon="11.0774874"><ele>282.6</ele><time>2026-04-04T10:18:11.373Z</time></trkpt><trkpt lat="44.3903098" lon="11.0773651"><ele>282.0</ele><time>2026-04-04T10:18:12.373Z</time></trkpt><trkpt lat="44.3903267" lon="11.0772518"><ele>281.5</ele><time>2026-04-04T10:18:13.366Z</time></trkpt><trkpt lat="44.390343" lon="11.0771417"><ele>281.0</ele><time>2026-04-04T10:18:14.374Z</time></trkpt><trkpt lat="44.3903675" lon="11.0770435"><ele>280.5</ele><time>2026-04-04T10:18:15.373Z</time></trkpt><trkpt lat="44.3903888" lon="11.0769571"><ele>280.0</ele><time>2026-04-04T10:18:16.371Z</time></trkpt><trkpt lat="44.3904128" lon="11.0768667"><ele>279.5</ele><time>2026-04-04T10:18:17.363Z</time></trkpt><trkpt lat="44.3904375" lon="11.0767818"><ele>279.0</ele><time>2026-04-04T10:18:18.362Z</time></trkpt><trkpt lat="44.3905024" lon="11.0766329"><ele>277.5</ele><time>2026-04-04T10:18:20.394Z</time></trkpt><trkpt lat="44.3905802" lon="11.0764956"><ele>276.0</ele><time>2026-04-04T10:18:22.375Z</time></trkpt><trkpt lat="44.3906236" lon="11.0764223"><ele>274.5</ele><time>2026-04-04T10:18:23.373Z</time></trkpt><trkpt lat="44.3906669" lon="11.0763486"><ele>273.0</ele><time>2026-04-04T10:18:24.368Z</time></trkpt><trkpt lat="44.3907176" lon="11.0762757"><ele>271.5</ele><time>2026-04-04T10:18:25.371Z</time></trkpt><trkpt lat="44.3907662" lon="11.0761922"><ele>270.0</ele><time>2026-04-04T10:18:26.372Z</time></trkpt><trkpt lat="44.3908145" lon="11.0761111"><ele>270.0</ele><time>2026-04-04T10:18:27.367Z</time></trkpt><trkpt lat="44.3908616" lon="11.0760314"><ele>270.0</ele><time>2026-04-04T10:18:28.377Z</time></trkpt><trkpt lat="44.3909077" lon="11.0759562"><ele>270.0</ele><time>2026-04-04T10:18:29.371Z</time></trkpt><trkpt lat="44.3909486" lon="11.0758857"><ele>270.0</ele><time>2026-04-04T10:18:30.371Z</time></trkpt><trkpt lat="44.3909885" lon="11.0758139"><ele>270.0</ele><time>2026-04-04T10:18:31.372Z</time></trkpt><trkpt lat="44.3910645" lon="11.0756892"><ele>270.0</ele><time>2026-04-04T10:18:33.363Z</time></trkpt><trkpt lat="44.3911262" lon="11.0755938"><ele>269.4</ele><time>2026-04-04T10:18:35.369Z</time></trkpt><trkpt lat="44.3911937" lon="11.07552"><ele>268.8</ele><time>2026-04-04T10:18:38.359Z</time></trkpt><trkpt lat="44.3912568" lon="11.0754127"><ele>268.2</ele><time>2026-04-04T10:18:40.374Z</time></trkpt><trkpt lat="44.3913264" lon="11.0753184"><ele>267.6</ele><time>2026-04-04T10:18:42.365Z</time></trkpt><trkpt lat="44.391395" lon="11.0752134"><ele>267.0</ele><time>2026-04-04T10:18:44.376Z</time></trkpt><trkpt lat="44.3914639" lon="11.0751022"><ele>266.5</ele><time>2026-04-04T10:18:46.371Z</time></trkpt><trkpt lat="44.3915372" lon="11.0749994"><ele>266.0</ele><time>2026-04-04T10:18:48.363Z</time></trkpt><trkpt lat="44.3915983" lon="11.0748956"><ele>265.5</ele><time>2026-04-04T10:18:50.369Z</time></trkpt><trkpt lat="44.3916567" lon="11.0748042"><ele>265.0</ele><time>2026-04-04T10:18:52.367Z</time></trkpt><trkpt lat="44.391704" lon="11.0747281"><ele>264.5</ele><time>2026-04-04T10:18:54.366Z</time></trkpt><trkpt lat="44.3916855" lon="11.0746192"><ele>264.0</ele><time>2026-04-04T10:18:58.367Z</time></trkpt><trkpt lat="44.3916275" lon="11.074578"><ele>263.8</ele><time>2026-04-04T10:19:00.369Z</time></trkpt><trkpt lat="44.3915517" lon="11.074538"><ele>263.59999999999997</ele><time>2026-04-04T10:19:02.365Z</time></trkpt><trkpt lat="44.3914727" lon="11.0745"><ele>263.4</ele><time>2026-04-04T10:19:04.365Z</time></trkpt><trkpt lat="44.3913906" lon="11.0744616"><ele>263.2</ele><time>2026-04-04T10:19:06.367Z</time></trkpt><trkpt lat="44.3913045" lon="11.0744254"><ele>263.0</ele><time>2026-04-04T10:19:08.376Z</time></trkpt><trkpt lat="44.3911862" lon="11.0743645"><ele>263.33333333333337</ele><time>2026-04-04T10:19:11.357Z</time></trkpt><trkpt lat="44.3910913" lon="11.0743196"><ele>263.6666666666667</ele><time>2026-04-04T10:19:13.365Z</time></trkpt><trkpt lat="44.3910251" lon="11.0742908"><ele>264.0</ele><time>2026-04-04T10:19:15.369Z</time></trkpt><trkpt lat="44.3909353" lon="11.0742674"><ele>264.3333333333333</ele><time>2026-04-04T10:19:18.367Z</time></trkpt><trkpt lat="44.390868" lon="11.074259"><ele>264.66666666666663</ele><time>2026-04-04T10:19:20.364Z</time></trkpt><trkpt lat="44.3907975" lon="11.0742351"><ele>265.0</ele><time>2026-04-04T10:19:22.364Z</time></trkpt><trkpt lat="44.3907284" lon="11.0742043"><ele>265.0</ele><time>2026-04-04T10:19:24.366Z</time></trkpt><trkpt lat="44.3906549" lon="11.0741727"><ele>265.0</ele><time>2026-04-04T10:19:26.362Z</time></trkpt><trkpt lat="44.3905833" lon="11.0741471"><ele>265.0</ele><time>2026-04-04T10:19:28.363Z</time></trkpt><trkpt lat="44.390514" lon="11.0741228"><ele>265.0</ele><time>2026-04-04T10:19:30.368Z</time></trkpt><trkpt lat="44.3904381" lon="11.0741002"><ele>265.0</ele><time>2026-04-04T10:19:32.365Z</time></trkpt><trkpt lat="44.3903717" lon="11.0740753"><ele>265.0</ele><time>2026-04-04T10:19:34.366Z</time></trkpt><trkpt lat="44.3902855" lon="11.0740217"><ele>264.5</ele><time>2026-04-04T10:19:37.368Z</time></trkpt><trkpt lat="44.3902199" lon="11.0739916"><ele>264.0</ele><time>2026-04-04T10:19:39.377Z</time></trkpt><trkpt lat="44.3901541" lon="11.0739599"><ele>263.5</ele><time>2026-04-04T10:19:41.381Z</time></trkpt><trkpt lat="44.3900829" lon="11.0739365"><ele>263.0</ele><time>2026-04-04T10:19:44.362Z</time></trkpt><trkpt lat="44.3900204" lon="11.0739114"><ele>262.5</ele><time>2026-04-04T10:19:46.38Z</time></trkpt><trkpt lat="44.389924" lon="11.0738731"><ele>262.0</ele><time>2026-04-04T10:19:49.37Z</time></trkpt><trkpt lat="44.3898486" lon="11.0738502"><ele>262.0</ele><time>2026-04-04T10:19:51.363Z</time></trkpt><trkpt lat="44.3897696" lon="11.0738202"><ele>262.0</ele><time>2026-04-04T10:19:53.363Z</time></trkpt><trkpt lat="44.3896924" lon="11.0737811"><ele>262.0</ele><time>2026-04-04T10:19:55.368Z</time></trkpt><trkpt lat="44.3896157" lon="11.0737388"><ele>262.0</ele><time>2026-04-04T10:19:57.367Z</time></trkpt><trkpt lat="44.3895363" lon="11.0737016"><ele>262.0</ele><time>2026-04-04T10:19:59.36Z</time></trkpt><trkpt lat="44.3894622" lon="11.0736431"><ele>262.0</ele><time>2026-04-04T10:20:01.366Z</time></trkpt><trkpt lat="44.3893704" lon="11.0735576"><ele>262.0</ele><time>2026-04-04T10:20:03.379Z</time></trkpt><trkpt lat="44.3892886" lon="11.0734976"><ele>262.0</ele><time>2026-04-04T10:20:05.368Z</time></trkpt><trkpt lat="44.3892334" lon="11.0734183"><ele>262.0</ele><time>2026-04-04T10:20:07.374Z</time></trkpt><trkpt lat="44.3891808" lon="11.0733447"><ele>262.0</ele><time>2026-04-04T10:20:09.367Z</time></trkpt><trkpt lat="44.3891325" lon="11.0732852"><ele>262.0</ele><time>2026-04-04T10:20:11.369Z</time></trkpt><trkpt lat="44.3890482" lon="11.0732701"><ele>262.0</ele><time>2026-04-04T10:20:14.36Z</time></trkpt><trkpt lat="44.3889882" lon="11.0732978"><ele>262.42857142857144</ele><time>2026-04-04T10:20:16.365Z</time></trkpt><trkpt lat="44.3889003" lon="11.0733365"><ele>262.8571428571429</ele><time>2026-04-04T10:20:19.365Z</time></trkpt><trkpt lat="44.3888254" lon="11.0733475"><ele>263.2857142857143</ele><time>2026-04-04T10:20:22.374Z</time></trkpt><trkpt lat="44.388753" lon="11.0733398"><ele>263.7142857142857</ele><time>2026-04-04T10:20:27.367Z</time></trkpt><trkpt lat="44.3886991" lon="11.073292"><ele>264.1428571428571</ele><time>2026-04-04T10:20:31.378Z</time></trkpt><trkpt lat="44.3886195" lon="11.0732968"><ele>264.57142857142856</ele><time>2026-04-04T10:20:35.368Z</time></trkpt><trkpt lat="44.3885583" lon="11.0733277"><ele>265.0</ele><time>2026-04-04T10:20:38.372Z</time></trkpt><trkpt lat="44.3884808" lon="11.0733457"><ele>265.1428571428571</ele><time>2026-04-04T10:20:42.373Z</time></trkpt><trkpt lat="44.3884133" lon="11.0733223"><ele>265.2857142857143</ele><time>2026-04-04T10:21:38.368Z</time></trkpt><trkpt lat="44.3884801" lon="11.0732612"><ele>265.42857142857144</ele><time>2026-04-04T10:21:43.362Z</time></trkpt><trkpt lat="44.3885389" lon="11.0732285"><ele>265.57142857142856</ele><time>2026-04-04T10:21:46.351Z</time></trkpt><trkpt lat="44.3886094" lon="11.0731894"><ele>265.7142857142857</ele><time>2026-04-04T10:21:49.373Z</time></trkpt><trkpt lat="44.3886102" lon="11.0731004"><ele>265.85714285714283</ele><time>2026-04-04T10:21:54.376Z</time></trkpt><trkpt lat="44.3885324" lon="11.0731321"><ele>266.0</ele><time>2026-04-04T10:21:57.384Z</time></trkpt><trkpt lat="44.3884443" lon="11.0731769"><ele>265.6666666666667</ele><time>2026-04-04T10:22:00.368Z</time></trkpt><trkpt lat="44.388382" lon="11.0731971"><ele>265.33333333333337</ele><time>2026-04-04T10:22:02.362Z</time></trkpt><trkpt lat="44.3882929" lon="11.0732169"><ele>265.0</ele><time>2026-04-04T10:22:05.373Z</time></trkpt><trkpt lat="44.3882235" lon="11.0732306"><ele>264.6666666666667</ele><time>2026-04-04T10:22:07.372Z</time></trkpt><trkpt lat="44.3881526" lon="11.0732399"><ele>264.3333333333333</ele><time>2026-04-04T10:22:09.372Z</time></trkpt><trkpt lat="44.3880768" lon="11.0732471"><ele>264.0</ele><time>2026-04-04T10:22:11.378Z</time></trkpt><trkpt lat="44.3879853" lon="11.0732397"><ele>264.0</ele><time>2026-04-04T10:22:13.374Z</time></trkpt><trkpt lat="44.3878952" lon="11.0732393"><ele>264.0</ele><time>2026-04-04T10:22:15.369Z</time></trkpt><trkpt lat="44.3878099" lon="11.0732476"><ele>264.0</ele><time>2026-04-04T10:22:17.375Z</time></trkpt><trkpt lat="44.3877168" lon="11.0732657"><ele>264.0</ele><time>2026-04-04T10:22:19.374Z</time></trkpt><trkpt lat="44.3876213" lon="11.07328"><ele>264.0</ele><time>2026-04-04T10:22:21.368Z</time></trkpt><trkpt lat="44.3875253" lon="11.0732958"><ele>264.4</ele><time>2026-04-04T10:22:23.387Z</time></trkpt><trkpt lat="44.3874282" lon="11.0733114"><ele>264.79999999999995</ele><time>2026-04-04T10:22:25.372Z</time></trkpt><trkpt lat="44.3873371" lon="11.0733277"><ele>265.20000000000005</ele><time>2026-04-04T10:22:27.373Z</time></trkpt><trkpt lat="44.3872389" lon="11.0733369"><ele>265.6</ele><time>2026-04-04T10:22:29.376Z</time></trkpt><trkpt lat="44.3871408" lon="11.0733338"><ele>266.0</ele><time>2026-04-04T10:22:31.377Z</time></trkpt><trkpt lat="44.3870441" lon="11.0733338"><ele>266.2</ele><time>2026-04-04T10:22:33.367Z</time></trkpt><trkpt lat="44.3869507" lon="11.0733424"><ele>266.40000000000003</ele><time>2026-04-04T10:22:35.369Z</time></trkpt><trkpt lat="44.3868588" lon="11.0733558"><ele>266.6</ele><time>2026-04-04T10:22:37.377Z</time></trkpt><trkpt lat="44.3867667" lon="11.0733662"><ele>266.8</ele><time>2026-04-04T10:22:39.377Z</time></trkpt><trkpt lat="44.3866722" lon="11.0733765"><ele>267.0</ele><time>2026-04-04T10:22:41.366Z</time></trkpt><trkpt lat="44.3865754" lon="11.0733887"><ele>267.0</ele><time>2026-04-04T10:22:43.387Z</time></trkpt><trkpt lat="44.3864779" lon="11.0733976"><ele>267.0</ele><time>2026-04-04T10:22:45.368Z</time></trkpt><trkpt lat="44.386381" lon="11.0734078"><ele>267.0</ele><time>2026-04-04T10:22:47.374Z</time></trkpt><trkpt lat="44.3862868" lon="11.0734181"><ele>267.0</ele><time>2026-04-04T10:22:49.383Z</time></trkpt><trkpt lat="44.3861926" lon="11.0734295"><ele>267.0</ele><time>2026-04-04T10:22:51.376Z</time></trkpt><trkpt lat="44.386098" lon="11.0734387"><ele>267.2</ele><time>2026-04-04T10:22:53.364Z</time></trkpt><trkpt lat="44.3860048" lon="11.0734462"><ele>267.4</ele><time>2026-04-04T10:22:55.363Z</time></trkpt><trkpt lat="44.3859163" lon="11.0734564"><ele>267.6</ele><time>2026-04-04T10:22:57.372Z</time></trkpt><trkpt lat="44.3858207" lon="11.0734691"><ele>267.8</ele><time>2026-04-04T10:22:59.368Z</time></trkpt><trkpt lat="44.3857259" lon="11.0734792"><ele>268.0</ele><time>2026-04-04T10:23:01.373Z</time></trkpt><trkpt lat="44.385633" lon="11.0734904"><ele>268.0</ele><time>2026-04-04T10:23:03.366Z</time></trkpt><trkpt lat="44.3855425" lon="11.0735016"><ele>268.0</ele><time>2026-04-04T10:23:05.358Z</time></trkpt><trkpt lat="44.3854484" lon="11.0735119"><ele>268.0</ele><time>2026-04-04T10:23:07.375Z</time></trkpt><trkpt lat="44.3853516" lon="11.0735175"><ele>268.0</ele><time>2026-04-04T10:23:09.364Z</time></trkpt><trkpt lat="44.3852568" lon="11.0735307"><ele>268.0</ele><time>2026-04-04T10:23:11.37Z</time></trkpt><trkpt lat="44.3851636" lon="11.0735358"><ele>268.4</ele><time>2026-04-04T10:23:13.374Z</time></trkpt><trkpt lat="44.3850665" lon="11.073541"><ele>268.8</ele><time>2026-04-04T10:23:15.365Z</time></trkpt><trkpt lat="44.3849728" lon="11.0735489"><ele>269.2</ele><time>2026-04-04T10:23:17.363Z</time></trkpt><trkpt lat="44.3848783" lon="11.073556"><ele>269.6</ele><time>2026-04-04T10:23:19.374Z</time></trkpt><trkpt lat="44.3847816" lon="11.0735676"><ele>270.0</ele><time>2026-04-04T10:23:21.37Z</time></trkpt><trkpt lat="44.3846886" lon="11.0735809"><ele>270.2</ele><time>2026-04-04T10:23:23.368Z</time></trkpt><trkpt lat="44.3845918" lon="11.0735881"><ele>270.4</ele><time>2026-04-04T10:23:25.369Z</time></trkpt><trkpt lat="44.38449" lon="11.0735949"><ele>270.6</ele><time>2026-04-04T10:23:27.358Z</time></trkpt><trkpt lat="44.3843885" lon="11.0736047"><ele>270.8</ele><time>2026-04-04T10:23:29.374Z</time></trkpt><trkpt lat="44.3842896" lon="11.0736204"><ele>271.0</ele><time>2026-04-04T10:23:31.361Z</time></trkpt><trkpt lat="44.3841938" lon="11.0736296"><ele>271.0</ele><time>2026-04-04T10:23:33.37Z</time></trkpt><trkpt lat="44.3840986" lon="11.0736356"><ele>271.0</ele><time>2026-04-04T10:23:35.37Z</time></trkpt><trkpt lat="44.3840003" lon="11.0736436"><ele>271.0</ele><time>2026-04-04T10:23:37.372Z</time></trkpt><trkpt lat="44.383902" lon="11.073646"><ele>271.0</ele><time>2026-04-04T10:23:39.374Z</time></trkpt><trkpt lat="44.3838077" lon="11.0736437"><ele>271.0</ele><time>2026-04-04T10:23:41.373Z</time></trkpt><trkpt lat="44.3837112" lon="11.0736384"><ele>271.6</ele><time>2026-04-04T10:23:43.375Z</time></trkpt><trkpt lat="44.383612" lon="11.0736382"><ele>272.20000000000005</ele><time>2026-04-04T10:23:45.369Z</time></trkpt><trkpt lat="44.3835143" lon="11.0736289"><ele>272.79999999999995</ele><time>2026-04-04T10:23:47.375Z</time></trkpt><trkpt lat="44.3834169" lon="11.073612"><ele>273.4</ele><time>2026-04-04T10:23:49.374Z</time></trkpt><trkpt lat="44.3833174" lon="11.0735898"><ele>274.0</ele><time>2026-04-04T10:23:51.36Z</time></trkpt><trkpt lat="44.3832227" lon="11.0735647"><ele>274.0</ele><time>2026-04-04T10:23:53.358Z</time></trkpt><trkpt lat="44.3831262" lon="11.0735369"><ele>274.0</ele><time>2026-04-04T10:23:55.37Z</time></trkpt><trkpt lat="44.3830285" lon="11.0735095"><ele>274.0</ele><time>2026-04-04T10:23:57.37Z</time></trkpt><trkpt lat="44.3829285" lon="11.0734748"><ele>274.0</ele><time>2026-04-04T10:23:59.364Z</time></trkpt><trkpt lat="44.3828302" lon="11.0734394"><ele>274.0</ele><time>2026-04-04T10:24:01.375Z</time></trkpt><trkpt lat="44.382735" lon="11.0734048"><ele>274.0</ele><time>2026-04-04T10:24:03.363Z</time></trkpt><trkpt lat="44.3826444" lon="11.073365"><ele>274.0</ele><time>2026-04-04T10:24:05.371Z</time></trkpt><trkpt lat="44.3825529" lon="11.0733256"><ele>274.0</ele><time>2026-04-04T10:24:07.37Z</time></trkpt><trkpt lat="44.382461" lon="11.0732754"><ele>274.0</ele><time>2026-04-04T10:24:09.37Z</time></trkpt><trkpt lat="44.3823728" lon="11.0732102"><ele>274.0</ele><time>2026-04-04T10:24:11.372Z</time></trkpt><trkpt lat="44.3822854" lon="11.0731524"><ele>274.0</ele><time>2026-04-04T10:24:13.369Z</time></trkpt><trkpt lat="44.3821982" lon="11.0730949"><ele>274.0</ele><time>2026-04-04T10:24:15.376Z</time></trkpt><trkpt lat="44.3821073" lon="11.0730319"><ele>274.0</ele><time>2026-04-04T10:24:17.372Z</time></trkpt><trkpt lat="44.3820155" lon="11.0729709"><ele>274.0</ele><time>2026-04-04T10:24:19.37Z</time></trkpt><trkpt lat="44.3819255" lon="11.0729117"><ele>274.0</ele><time>2026-04-04T10:24:21.369Z</time></trkpt><trkpt lat="44.381836" lon="11.0728488"><ele>274.4</ele><time>2026-04-04T10:24:23.373Z</time></trkpt><trkpt lat="44.381743" lon="11.0727874"><ele>274.79999999999995</ele><time>2026-04-04T10:24:25.373Z</time></trkpt><trkpt lat="44.3816521" lon="11.0727249"><ele>275.20000000000005</ele><time>2026-04-04T10:24:27.36Z</time></trkpt><trkpt lat="44.3815639" lon="11.0726642"><ele>275.6</ele><time>2026-04-04T10:24:29.383Z</time></trkpt><trkpt lat="44.3814727" lon="11.0726043"><ele>276.0</ele><time>2026-04-04T10:24:31.373Z</time></trkpt><trkpt lat="44.3813796" lon="11.0725452"><ele>276.40000000000003</ele><time>2026-04-04T10:24:33.369Z</time></trkpt><trkpt lat="44.3812875" lon="11.0724864"><ele>276.8</ele><time>2026-04-04T10:24:35.368Z</time></trkpt><trkpt lat="44.3811914" lon="11.0724266"><ele>277.20000000000005</ele><time>2026-04-04T10:24:37.37Z</time></trkpt><trkpt lat="44.3810951" lon="11.0723652"><ele>277.6</ele><time>2026-04-04T10:24:39.367Z</time></trkpt><trkpt lat="44.3810011" lon="11.0723027"><ele>278.0</ele><time>2026-04-04T10:24:41.367Z</time></trkpt><trkpt lat="44.3809125" lon="11.072248"><ele>278.0</ele><time>2026-04-04T10:24:43.367Z</time></trkpt><trkpt lat="44.3808169" lon="11.0721888"><ele>278.0</ele><time>2026-04-04T10:24:45.364Z</time></trkpt><trkpt lat="44.3807289" lon="11.0721342"><ele>278.0</ele><time>2026-04-04T10:24:47.365Z</time></trkpt><trkpt lat="44.3806405" lon="11.0720757"><ele>278.0</ele><time>2026-04-04T10:24:49.371Z</time></trkpt><trkpt lat="44.3805518" lon="11.0720178"><ele>278.0</ele><time>2026-04-04T10:24:51.366Z</time></trkpt><trkpt lat="44.3804607" lon="11.0719585"><ele>279.0</ele><time>2026-04-04T10:24:53.36Z</time></trkpt><trkpt lat="44.3803711" lon="11.0719023"><ele>280.0</ele><time>2026-04-04T10:24:55.372Z</time></trkpt><trkpt lat="44.3802826" lon="11.0718505"><ele>281.0</ele><time>2026-04-04T10:24:57.36Z</time></trkpt><trkpt lat="44.3801914" lon="11.0717937"><ele>282.0</ele><time>2026-04-04T10:24:59.36Z</time></trkpt><trkpt lat="44.380099" lon="11.0717355"><ele>283.0</ele><time>2026-04-04T10:25:01.369Z</time></trkpt><trkpt lat="44.3800097" lon="11.0716763"><ele>283.0</ele><time>2026-04-04T10:25:03.368Z</time></trkpt><trkpt lat="44.3799191" lon="11.0716214"><ele>283.0</ele><time>2026-04-04T10:25:05.376Z</time></trkpt><trkpt lat="44.3798256" lon="11.0715683"><ele>283.0</ele><time>2026-04-04T10:25:07.368Z</time></trkpt><trkpt lat="44.3797364" lon="11.0715033"><ele>283.0</ele><time>2026-04-04T10:25:09.371Z</time></trkpt><trkpt lat="44.379646" lon="11.0714389"><ele>283.0</ele><time>2026-04-04T10:25:11.369Z</time></trkpt><trkpt lat="44.3795548" lon="11.0713779"><ele>282.8</ele><time>2026-04-04T10:25:13.371Z</time></trkpt><trkpt lat="44.3794642" lon="11.0713072"><ele>282.6</ele><time>2026-04-04T10:25:15.376Z</time></trkpt><trkpt lat="44.3793739" lon="11.071239"><ele>282.4</ele><time>2026-04-04T10:25:17.373Z</time></trkpt><trkpt lat="44.3792839" lon="11.0711644"><ele>282.2</ele><time>2026-04-04T10:25:19.379Z</time></trkpt><trkpt lat="44.3791912" lon="11.0710929"><ele>282.0</ele><time>2026-04-04T10:25:21.374Z</time></trkpt><trkpt lat="44.3791069" lon="11.0710267"><ele>282.0</ele><time>2026-04-04T10:25:23.374Z</time></trkpt><trkpt lat="44.379017" lon="11.0709462"><ele>282.0</ele><time>2026-04-04T10:25:25.377Z</time></trkpt><trkpt lat="44.3789354" lon="11.0708695"><ele>282.0</ele><time>2026-04-04T10:25:27.366Z</time></trkpt><trkpt lat="44.3788512" lon="11.0707919"><ele>282.0</ele><time>2026-04-04T10:25:29.37Z</time></trkpt><trkpt lat="44.3787692" lon="11.0707024"><ele>282.0</ele><time>2026-04-04T10:25:31.372Z</time></trkpt><trkpt lat="44.3786853" lon="11.0706159"><ele>282.8</ele><time>2026-04-04T10:25:33.373Z</time></trkpt><trkpt lat="44.3786023" lon="11.0705329"><ele>283.6</ele><time>2026-04-04T10:25:35.352Z</time></trkpt><trkpt lat="44.3785186" lon="11.0704505"><ele>284.40000000000003</ele><time>2026-04-04T10:25:37.372Z</time></trkpt><trkpt lat="44.3784372" lon="11.0703619"><ele>285.2</ele><time>2026-04-04T10:25:39.368Z</time></trkpt><trkpt lat="44.3783495" lon="11.0702806"><ele>286.0</ele><time>2026-04-04T10:25:41.363Z</time></trkpt><trkpt lat="44.3782678" lon="11.0702036"><ele>286.0</ele><time>2026-04-04T10:25:43.366Z</time></trkpt><trkpt lat="44.3781868" lon="11.0701275"><ele>286.0</ele><time>2026-04-04T10:25:45.39Z</time></trkpt><trkpt lat="44.3781043" lon="11.0700433"><ele>286.0</ele><time>2026-04-04T10:25:47.365Z</time></trkpt><trkpt lat="44.3780155" lon="11.0699546"><ele>286.0</ele><time>2026-04-04T10:25:49.376Z</time></trkpt><trkpt lat="44.3779319" lon="11.0698681"><ele>286.0</ele><time>2026-04-04T10:25:51.37Z</time></trkpt><trkpt lat="44.3778473" lon="11.0697791"><ele>287.40000000000003</ele><time>2026-04-04T10:25:53.372Z</time></trkpt><trkpt lat="44.3777583" lon="11.0696897"><ele>288.8</ele><time>2026-04-04T10:25:55.375Z</time></trkpt><trkpt lat="44.3776769" lon="11.0696064"><ele>290.20000000000005</ele><time>2026-04-04T10:25:57.367Z</time></trkpt><trkpt lat="44.3775951" lon="11.0695236"><ele>291.6</ele><time>2026-04-04T10:25:59.366Z</time></trkpt><trkpt lat="44.3775164" lon="11.0694436"><ele>293.0</ele><time>2026-04-04T10:26:01.364Z</time></trkpt><trkpt lat="44.3774355" lon="11.0693625"><ele>293.0</ele><time>2026-04-04T10:26:03.381Z</time></trkpt><trkpt lat="44.3773556" lon="11.0692812"><ele>293.0</ele><time>2026-04-04T10:26:05.374Z</time></trkpt><trkpt lat="44.3772697" lon="11.0692026"><ele>293.0</ele><time>2026-04-04T10:26:07.371Z</time></trkpt><trkpt lat="44.3771893" lon="11.0691226"><ele>293.0</ele><time>2026-04-04T10:26:09.374Z</time></trkpt><trkpt lat="44.3771061" lon="11.069038"><ele>293.0</ele><time>2026-04-04T10:26:11.37Z</time></trkpt><trkpt lat="44.3770194" lon="11.0689542"><ele>292.8</ele><time>2026-04-04T10:26:13.368Z</time></trkpt><trkpt lat="44.3769365" lon="11.0688734"><ele>292.6</ele><time>2026-04-04T10:26:15.375Z</time></trkpt><trkpt lat="44.3768571" lon="11.0687955"><ele>292.4</ele><time>2026-04-04T10:26:17.378Z</time></trkpt><trkpt lat="44.3767775" lon="11.068719"><ele>292.2</ele><time>2026-04-04T10:26:19.371Z</time></trkpt><trkpt lat="44.3767057" lon="11.0686422"><ele>292.0</ele><time>2026-04-04T10:26:21.371Z</time></trkpt><trkpt lat="44.3766351" lon="11.0685663"><ele>292.0</ele><time>2026-04-04T10:26:23.366Z</time></trkpt><trkpt lat="44.3765555" lon="11.0684795"><ele>292.0</ele><time>2026-04-04T10:26:25.367Z</time></trkpt><trkpt lat="44.376483" lon="11.0684044"><ele>292.0</ele><time>2026-04-04T10:26:27.371Z</time></trkpt><trkpt lat="44.376408" lon="11.0683301"><ele>292.0</ele><time>2026-04-04T10:26:29.38Z</time></trkpt><trkpt lat="44.3763354" lon="11.068258"><ele>292.0</ele><time>2026-04-04T10:26:31.369Z</time></trkpt><trkpt lat="44.3762698" lon="11.0681786"><ele>292.8333333333333</ele><time>2026-04-04T10:26:33.374Z</time></trkpt><trkpt lat="44.3762025" lon="11.0681054"><ele>293.66666666666663</ele><time>2026-04-04T10:26:35.37Z</time></trkpt><trkpt lat="44.3761379" lon="11.0680245"><ele>294.5</ele><time>2026-04-04T10:26:37.366Z</time></trkpt><trkpt lat="44.3760803" lon="11.06793"><ele>295.3333333333333</ele><time>2026-04-04T10:26:39.373Z</time></trkpt><trkpt lat="44.3760559" lon="11.0678183"><ele>296.1666666666667</ele><time>2026-04-04T10:26:41.37Z</time></trkpt><trkpt lat="44.3760532" lon="11.0677136"><ele>297.0</ele><time>2026-04-04T10:26:43.37Z</time></trkpt><trkpt lat="44.376081" lon="11.0676166"><ele>297.0</ele><time>2026-04-04T10:26:45.382Z</time></trkpt><trkpt lat="44.3761209" lon="11.0675171"><ele>297.0</ele><time>2026-04-04T10:26:47.369Z</time></trkpt><trkpt lat="44.3761554" lon="11.0674141"><ele>297.0</ele><time>2026-04-04T10:26:49.363Z</time></trkpt><trkpt lat="44.3761908" lon="11.0673104"><ele>297.0</ele><time>2026-04-04T10:26:51.374Z</time></trkpt><trkpt lat="44.3762285" lon="11.0671992"><ele>297.0</ele><time>2026-04-04T10:26:53.37Z</time></trkpt><trkpt lat="44.3762657" lon="11.0670975"><ele>297.0</ele><time>2026-04-04T10:26:55.373Z</time></trkpt><trkpt lat="44.376302" lon="11.0669871"><ele>297.8333333333333</ele><time>2026-04-04T10:26:57.357Z</time></trkpt><trkpt lat="44.3763445" lon="11.0668739"><ele>298.6666666666667</ele><time>2026-04-04T10:26:59.374Z</time></trkpt><trkpt lat="44.3764251" lon="11.0668038"><ele>299.5</ele><time>2026-04-04T10:27:01.369Z</time></trkpt><trkpt lat="44.3765407" lon="11.0668083"><ele>300.33333333333337</ele><time>2026-04-04T10:27:03.381Z</time></trkpt><trkpt lat="44.3766063" lon="11.0668228"><ele>301.1666666666667</ele><time>2026-04-04T10:27:04.378Z</time></trkpt><trkpt lat="44.3766776" lon="11.0668452"><ele>302.0</ele><time>2026-04-04T10:27:05.37Z</time></trkpt><trkpt lat="44.3767461" lon="11.0668732"><ele>302.6666666666667</ele><time>2026-04-04T10:27:06.368Z</time></trkpt><trkpt lat="44.3768155" lon="11.066903"><ele>303.33333333333337</ele><time>2026-04-04T10:27:07.375Z</time></trkpt><trkpt lat="44.3768812" lon="11.0669331"><ele>304.0</ele><time>2026-04-04T10:27:08.372Z</time></trkpt><trkpt lat="44.37695" lon="11.066964"><ele>304.6666666666667</ele><time>2026-04-04T10:27:09.371Z</time></trkpt><trkpt lat="44.3770168" lon="11.0669962"><ele>305.3333333333333</ele><time>2026-04-04T10:27:10.362Z</time></trkpt><trkpt lat="44.3770795" lon="11.0670265"><ele>306.0</ele><time>2026-04-04T10:27:11.373Z</time></trkpt><trkpt lat="44.3771932" lon="11.0670888"><ele>307.6</ele><time>2026-04-04T10:27:13.371Z</time></trkpt><trkpt lat="44.3773009" lon="11.0671433"><ele>309.20000000000005</ele><time>2026-04-04T10:27:15.366Z</time></trkpt><trkpt lat="44.3773963" lon="11.0672001"><ele>310.79999999999995</ele><time>2026-04-04T10:27:17.364Z</time></trkpt><trkpt lat="44.3774867" lon="11.0672666"><ele>312.4</ele><time>2026-04-04T10:27:19.364Z</time></trkpt><trkpt lat="44.3775792" lon="11.0673368"><ele>314.0</ele><time>2026-04-04T10:27:21.374Z</time></trkpt><trkpt lat="44.3776648" lon="11.0674097"><ele>313.2</ele><time>2026-04-04T10:27:23.377Z</time></trkpt><trkpt lat="44.3777547" lon="11.0674886"><ele>312.4</ele><time>2026-04-04T10:27:25.367Z</time></trkpt><trkpt lat="44.377841" lon="11.0675601"><ele>311.6</ele><time>2026-04-04T10:27:27.377Z</time></trkpt><trkpt lat="44.3779256" lon="11.0676337"><ele>310.8</ele><time>2026-04-04T10:27:29.372Z</time></trkpt><trkpt lat="44.3780097" lon="11.0677072"><ele>310.0</ele><time>2026-04-04T10:27:31.371Z</time></trkpt><trkpt lat="44.3780973" lon="11.0677695"><ele>310.0</ele><time>2026-04-04T10:27:33.368Z</time></trkpt><trkpt lat="44.3781859" lon="11.0678313"><ele>310.0</ele><time>2026-04-04T10:27:35.37Z</time></trkpt><trkpt lat="44.3782714" lon="11.0678936"><ele>310.0</ele><time>2026-04-04T10:27:37.368Z</time></trkpt><trkpt lat="44.3783621" lon="11.067957"><ele>310.0</ele><time>2026-04-04T10:27:39.367Z</time></trkpt><trkpt lat="44.3784505" lon="11.068008"><ele>310.0</ele><time>2026-04-04T10:27:41.375Z</time></trkpt><trkpt lat="44.3785395" lon="11.0680498"><ele>310.0</ele><time>2026-04-04T10:27:43.376Z</time></trkpt><trkpt lat="44.3786233" lon="11.0680925"><ele>310.0</ele><time>2026-04-04T10:27:45.377Z</time></trkpt><trkpt lat="44.3787111" lon="11.0681448"><ele>310.0</ele><time>2026-04-04T10:27:47.37Z</time></trkpt><trkpt lat="44.3787975" lon="11.0681997"><ele>310.0</ele><time>2026-04-04T10:27:49.373Z</time></trkpt><trkpt lat="44.3788806" lon="11.0682505"><ele>310.0</ele><time>2026-04-04T10:27:51.364Z</time></trkpt><trkpt lat="44.3789633" lon="11.0682997"><ele>308.5</ele><time>2026-04-04T10:27:53.386Z</time></trkpt><trkpt lat="44.3790443" lon="11.0683423"><ele>307.0</ele><time>2026-04-04T10:27:55.376Z</time></trkpt><trkpt lat="44.3791218" lon="11.0683843"><ele>305.5</ele><time>2026-04-04T10:27:57.363Z</time></trkpt><trkpt lat="44.3791965" lon="11.0684219"><ele>304.0</ele><time>2026-04-04T10:27:59.364Z</time></trkpt><trkpt lat="44.3792715" lon="11.0684615"><ele>302.5</ele><time>2026-04-04T10:28:01.383Z</time></trkpt><trkpt lat="44.3793459" lon="11.0684989"><ele>301.0</ele><time>2026-04-04T10:28:03.375Z</time></trkpt><trkpt lat="44.3794138" lon="11.0685313"><ele>301.0</ele><time>2026-04-04T10:28:05.364Z</time></trkpt><trkpt lat="44.3794744" lon="11.0685606"><ele>301.0</ele><time>2026-04-04T10:28:07.368Z</time></trkpt><trkpt lat="44.3795415" lon="11.0685848"><ele>301.0</ele><time>2026-04-04T10:28:09.365Z</time></trkpt><trkpt lat="44.379611" lon="11.0685923"><ele>301.0</ele><time>2026-04-04T10:28:11.364Z</time></trkpt><trkpt lat="44.3796723" lon="11.0685524"><ele>301.0</ele><time>2026-04-04T10:28:13.368Z</time></trkpt><trkpt lat="44.3797196" lon="11.0684887"><ele>301.0</ele><time>2026-04-04T10:28:15.374Z</time></trkpt><trkpt lat="44.3797432" lon="11.0684006"><ele>301.0</ele><time>2026-04-04T10:28:17.374Z</time></trkpt><trkpt lat="44.3797641" lon="11.0683042"><ele>301.16666666666663</ele><time>2026-04-04T10:28:19.371Z</time></trkpt><trkpt lat="44.3797811" lon="11.0682008"><ele>301.3333333333333</ele><time>2026-04-04T10:28:21.36Z</time></trkpt><trkpt lat="44.3797898" lon="11.0680914"><ele>301.5</ele><time>2026-04-04T10:28:23.371Z</time></trkpt><trkpt lat="44.3797984" lon="11.0679785"><ele>301.6666666666667</ele><time>2026-04-04T10:28:25.382Z</time></trkpt><trkpt lat="44.3798079" lon="11.0678702"><ele>301.83333333333337</ele><time>2026-04-04T10:28:27.368Z</time></trkpt><trkpt lat="44.3798212" lon="11.0677723"><ele>302.0</ele><time>2026-04-04T10:28:29.361Z</time></trkpt><trkpt lat="44.3798342" lon="11.0676635"><ele>302.0</ele><time>2026-04-04T10:28:31.369Z</time></trkpt><trkpt lat="44.379845" lon="11.0675572"><ele>302.0</ele><time>2026-04-04T10:28:33.358Z</time></trkpt><trkpt lat="44.3798546" lon="11.0674433"><ele>302.0</ele><time>2026-04-04T10:28:35.374Z</time></trkpt><trkpt lat="44.3798639" lon="11.0673306"><ele>302.0</ele><time>2026-04-04T10:28:37.374Z</time></trkpt><trkpt lat="44.3798723" lon="11.0672195"><ele>302.0</ele><time>2026-04-04T10:28:39.37Z</time></trkpt><trkpt lat="44.3798831" lon="11.0671052"><ele>302.0</ele><time>2026-04-04T10:28:41.359Z</time></trkpt><trkpt lat="44.3798932" lon="11.066989"><ele>302.83333333333337</ele><time>2026-04-04T10:28:43.374Z</time></trkpt><trkpt lat="44.3799023" lon="11.0668744"><ele>303.6666666666667</ele><time>2026-04-04T10:28:45.372Z</time></trkpt><trkpt lat="44.3799115" lon="11.0667618"><ele>304.5</ele><time>2026-04-04T10:28:47.37Z</time></trkpt><trkpt lat="44.3799195" lon="11.0666436"><ele>305.3333333333333</ele><time>2026-04-04T10:28:49.361Z</time></trkpt><trkpt lat="44.3799258" lon="11.0665208"><ele>306.16666666666663</ele><time>2026-04-04T10:28:51.369Z</time></trkpt><trkpt lat="44.379925" lon="11.0664001"><ele>307.0</ele><time>2026-04-04T10:28:53.366Z</time></trkpt><trkpt lat="44.3799207" lon="11.0662869"><ele>307.16666666666663</ele><time>2026-04-04T10:28:55.369Z</time></trkpt><trkpt lat="44.3799188" lon="11.0661767"><ele>307.3333333333333</ele><time>2026-04-04T10:28:57.373Z</time></trkpt><trkpt lat="44.3799141" lon="11.0660663"><ele>307.5</ele><time>2026-04-04T10:28:59.363Z</time></trkpt><trkpt lat="44.3799075" lon="11.0659613"><ele>307.6666666666667</ele><time>2026-04-04T10:29:01.37Z</time></trkpt><trkpt lat="44.379897" lon="11.0658533"><ele>307.83333333333337</ele><time>2026-04-04T10:29:03.376Z</time></trkpt><trkpt lat="44.3798802" lon="11.0657444"><ele>308.0</ele><time>2026-04-04T10:29:05.371Z</time></trkpt><trkpt lat="44.3798521" lon="11.0656386"><ele>308.0</ele><time>2026-04-04T10:29:07.364Z</time></trkpt><trkpt lat="44.3798071" lon="11.0655319"><ele>308.0</ele><time>2026-04-04T10:29:09.367Z</time></trkpt><trkpt lat="44.3797524" lon="11.0654442"><ele>308.0</ele><time>2026-04-04T10:29:11.374Z</time></trkpt><trkpt lat="44.3796907" lon="11.0653611"><ele>308.0</ele><time>2026-04-04T10:29:13.382Z</time></trkpt><trkpt lat="44.3796255" lon="11.0652867"><ele>308.0</ele><time>2026-04-04T10:29:15.359Z</time></trkpt><trkpt lat="44.3795527" lon="11.0652251"><ele>308.0</ele><time>2026-04-04T10:29:17.369Z</time></trkpt><trkpt lat="44.3794808" lon="11.0651648"><ele>309.5</ele><time>2026-04-04T10:29:19.371Z</time></trkpt><trkpt lat="44.3794097" lon="11.0651032"><ele>311.0</ele><time>2026-04-04T10:29:21.372Z</time></trkpt><trkpt lat="44.3793387" lon="11.0650347"><ele>312.5</ele><time>2026-04-04T10:29:23.374Z</time></trkpt><trkpt lat="44.3792911" lon="11.0649242"><ele>314.0</ele><time>2026-04-04T10:29:25.377Z</time></trkpt><trkpt lat="44.3792586" lon="11.0648089"><ele>315.5</ele><time>2026-04-04T10:29:27.367Z</time></trkpt><trkpt lat="44.3792345" lon="11.0646999"><ele>317.0</ele><time>2026-04-04T10:29:29.363Z</time></trkpt><trkpt lat="44.3792212" lon="11.0645957"><ele>317.14285714285717</ele><time>2026-04-04T10:29:31.375Z</time></trkpt><trkpt lat="44.3792079" lon="11.0644954"><ele>317.2857142857143</ele><time>2026-04-04T10:29:33.36Z</time></trkpt><trkpt lat="44.3792022" lon="11.0643958"><ele>317.42857142857144</ele><time>2026-04-04T10:29:35.377Z</time></trkpt><trkpt lat="44.379225" lon="11.0643123"><ele>317.57142857142856</ele><time>2026-04-04T10:29:37.369Z</time></trkpt><trkpt lat="44.3792827" lon="11.0642484"><ele>317.7142857142857</ele><time>2026-04-04T10:29:40.37Z</time></trkpt><trkpt lat="44.379306" lon="11.064164"><ele>317.85714285714283</ele><time>2026-04-04T10:31:49.368Z</time></trkpt><trkpt lat="44.3793644" lon="11.0641221"><ele>318.0</ele><time>2026-04-04T10:31:53.37Z</time></trkpt><trkpt lat="44.3794391" lon="11.0641098"><ele>318.0</ele><time>2026-04-04T10:31:56.369Z</time></trkpt><trkpt lat="44.379532" lon="11.0641258"><ele>318.0</ele><time>2026-04-04T10:31:59.361Z</time></trkpt><trkpt lat="44.3795975" lon="11.0641394"><ele>318.0</ele><time>2026-04-04T10:32:01.369Z</time></trkpt><trkpt lat="44.3796695" lon="11.0641571"><ele>318.0</ele><time>2026-04-04T10:32:03.381Z</time></trkpt><trkpt lat="44.3797403" lon="11.0641712"><ele>318.0</ele><time>2026-04-04T10:32:05.374Z</time></trkpt><trkpt lat="44.3798337" lon="11.0641531"><ele>318.0</ele><time>2026-04-04T10:32:08.373Z</time></trkpt><trkpt lat="44.3798969" lon="11.0641072"><ele>319.1428571428571</ele><time>2026-04-04T10:32:10.365Z</time></trkpt><trkpt lat="44.3799524" lon="11.064036"><ele>320.28571428571433</ele><time>2026-04-04T10:32:12.369Z</time></trkpt><trkpt lat="44.3800085" lon="11.0639577"><ele>321.42857142857144</ele><time>2026-04-04T10:32:14.371Z</time></trkpt><trkpt lat="44.3800608" lon="11.0638911"><ele>322.57142857142856</ele><time>2026-04-04T10:32:16.376Z</time></trkpt><trkpt lat="44.3801137" lon="11.0638269"><ele>323.71428571428567</ele><time>2026-04-04T10:32:18.374Z</time></trkpt><trkpt lat="44.380176" lon="11.0637717"><ele>324.8571428571429</ele><time>2026-04-04T10:32:20.371Z</time></trkpt><trkpt lat="44.3802396" lon="11.0637229"><ele>326.0</ele><time>2026-04-04T10:32:22.371Z</time></trkpt><trkpt lat="44.3803073" lon="11.0636884"><ele>326.0</ele><time>2026-04-04T10:32:24.375Z</time></trkpt><trkpt lat="44.3803804" lon="11.0636469"><ele>326.0</ele><time>2026-04-04T10:32:26.381Z</time></trkpt><trkpt lat="44.3804518" lon="11.0636053"><ele>326.0</ele><time>2026-04-04T10:32:28.37Z</time></trkpt><trkpt lat="44.3805207" lon="11.0635628"><ele>326.0</ele><time>2026-04-04T10:32:30.359Z</time></trkpt><trkpt lat="44.3805858" lon="11.0635242"><ele>326.0</ele><time>2026-04-04T10:32:32.375Z</time></trkpt><trkpt lat="44.3806536" lon="11.0634754"><ele>326.0</ele><time>2026-04-04T10:32:34.374Z</time></trkpt><trkpt lat="44.3807138" lon="11.0634155"><ele>326.0</ele><time>2026-04-04T10:32:36.376Z</time></trkpt><trkpt lat="44.3807621" lon="11.0633438"><ele>326.0</ele><time>2026-04-04T10:32:38.381Z</time></trkpt><trkpt lat="44.3808027" lon="11.0632607"><ele>326.0</ele><time>2026-04-04T10:32:40.375Z</time></trkpt><trkpt lat="44.3808244" lon="11.0631736"><ele>326.0</ele><time>2026-04-04T10:32:42.379Z</time></trkpt><trkpt lat="44.3808371" lon="11.0630868"><ele>326.0</ele><time>2026-04-04T10:32:44.375Z</time></trkpt><trkpt lat="44.3808496" lon="11.0629723"><ele>326.0</ele><time>2026-04-04T10:32:47.368Z</time></trkpt><trkpt lat="44.3808617" lon="11.0628539"><ele>326.0</ele><time>2026-04-04T10:32:50.38Z</time></trkpt><trkpt lat="44.380873" lon="11.0627364"><ele>326.0</ele><time>2026-04-04T10:32:53.367Z</time></trkpt><trkpt lat="44.3808753" lon="11.0626216"><ele>326.0</ele><time>2026-04-04T10:32:56.368Z</time></trkpt><trkpt lat="44.3808776" lon="11.0625119"><ele>326.0</ele><time>2026-04-04T10:32:59.367Z</time></trkpt><trkpt lat="44.3808801" lon="11.0623916"><ele>326.0</ele><time>2026-04-04T10:33:02.38Z</time></trkpt><trkpt lat="44.3808844" lon="11.0622737"><ele>326.0</ele><time>2026-04-04T10:33:05.372Z</time></trkpt><trkpt lat="44.3808871" lon="11.0621794"><ele>326.0</ele><time>2026-04-04T10:33:08.364Z</time></trkpt><trkpt lat="44.3808909" lon="11.0620799"><ele>327.5</ele><time>2026-04-04T10:33:11.373Z</time></trkpt><trkpt lat="44.3808916" lon="11.0619549"><ele>329.0</ele><time>2026-04-04T10:33:15.379Z</time></trkpt><trkpt lat="44.380883" lon="11.0618198"><ele>330.5</ele><time>2026-04-04T10:33:18.368Z</time></trkpt><trkpt lat="44.3808778" lon="11.0617277"><ele>332.0</ele><time>2026-04-04T10:33:20.367Z</time></trkpt><trkpt lat="44.3808618" lon="11.0616096"><ele>333.5</ele><time>2026-04-04T10:33:23.372Z</time></trkpt><trkpt lat="44.380836" lon="11.0615015"><ele>335.0</ele><time>2026-04-04T10:33:26.377Z</time></trkpt><trkpt lat="44.3807854" lon="11.0614369"><ele>336.1428571428571</ele><time>2026-04-04T10:33:29.378Z</time></trkpt><trkpt lat="44.3807334" lon="11.0613811"><ele>337.2857142857143</ele><time>2026-04-04T10:33:32.373Z</time></trkpt><trkpt lat="44.3806618" lon="11.0613813"><ele>338.42857142857144</ele><time>2026-04-04T10:33:36.373Z</time></trkpt><trkpt lat="44.380594" lon="11.0614226"><ele>339.57142857142856</ele><time>2026-04-04T10:33:39.378Z</time></trkpt><trkpt lat="44.3805395" lon="11.0614934"><ele>340.7142857142857</ele><time>2026-04-04T10:33:42.369Z</time></trkpt><trkpt lat="44.3804873" lon="11.0615731"><ele>341.85714285714283</ele><time>2026-04-04T10:33:45.38Z</time></trkpt><trkpt lat="44.3804395" lon="11.0616434"><ele>343.0</ele><time>2026-04-04T10:33:48.365Z</time></trkpt><trkpt lat="44.38039" lon="11.0617219"><ele>343.14285714285717</ele><time>2026-04-04T10:33:51.376Z</time></trkpt><trkpt lat="44.3803419" lon="11.0618013"><ele>343.2857142857143</ele><time>2026-04-04T10:33:54.372Z</time></trkpt><trkpt lat="44.3802933" lon="11.0618676"><ele>343.42857142857144</ele><time>2026-04-04T10:33:57.37Z</time></trkpt><trkpt lat="44.3802351" lon="11.0619319"><ele>343.57142857142856</ele><time>2026-04-04T10:34:00.377Z</time></trkpt><trkpt lat="44.3801647" lon="11.0619903"><ele>343.7142857142857</ele><time>2026-04-04T10:34:04.372Z</time></trkpt><trkpt lat="44.3800956" lon="11.0620228"><ele>343.8571428571429</ele><time>2026-04-04T10:34:08.376Z</time></trkpt><trkpt lat="44.3800326" lon="11.0620426"><ele>344.0</ele><time>2026-04-04T10:34:11.365Z</time></trkpt><trkpt lat="44.3799535" lon="11.062023"><ele>344.0</ele><time>2026-04-04T10:34:14.372Z</time></trkpt><trkpt lat="44.3799013" lon="11.0619503"><ele>344.0</ele><time>2026-04-04T10:34:17.364Z</time></trkpt><trkpt lat="44.3799018" lon="11.0618394"><ele>344.0</ele><time>2026-04-04T10:34:21.37Z</time></trkpt><trkpt lat="44.379938" lon="11.0617186"><ele>344.0</ele><time>2026-04-04T10:34:24.369Z</time></trkpt><trkpt lat="44.3799764" lon="11.061612"><ele>344.0</ele><time>2026-04-04T10:34:27.381Z</time></trkpt><trkpt lat="44.3800198" lon="11.0615177"><ele>344.0</ele><time>2026-04-04T10:34:30.376Z</time></trkpt><trkpt lat="44.3800668" lon="11.06143"><ele>345.6666666666667</ele><time>2026-04-04T10:34:33.362Z</time></trkpt><trkpt lat="44.3801148" lon="11.061348"><ele>347.33333333333337</ele><time>2026-04-04T10:34:36.384Z</time></trkpt><trkpt lat="44.3801689" lon="11.0612738"><ele>349.0</ele><time>2026-04-04T10:34:39.375Z</time></trkpt><trkpt lat="44.3802131" lon="11.0612019"><ele>350.6666666666667</ele><time>2026-04-04T10:34:42.372Z</time></trkpt><trkpt lat="44.3802464" lon="11.0611127"><ele>352.3333333333333</ele><time>2026-04-04T10:34:45.37Z</time></trkpt><trkpt lat="44.3802682" lon="11.0609976"><ele>354.0</ele><time>2026-04-04T10:34:48.378Z</time></trkpt><trkpt lat="44.3802782" lon="11.0608889"><ele>355.14285714285717</ele><time>2026-04-04T10:34:51.374Z</time></trkpt><trkpt lat="44.3802836" lon="11.0607824"><ele>356.2857142857143</ele><time>2026-04-04T10:34:54.369Z</time></trkpt><trkpt lat="44.3802931" lon="11.0606834"><ele>357.42857142857144</ele><time>2026-04-04T10:34:57.369Z</time></trkpt><trkpt lat="44.3803024" lon="11.0605856"><ele>358.57142857142856</ele><time>2026-04-04T10:35:00.372Z</time></trkpt><trkpt lat="44.3803204" lon="11.0604835"><ele>359.71428571428567</ele><time>2026-04-04T10:35:04.374Z</time></trkpt><trkpt lat="44.3803229" lon="11.0603831"><ele>360.85714285714283</ele><time>2026-04-04T10:35:07.369Z</time></trkpt><trkpt lat="44.3803285" lon="11.0602711"><ele>362.0</ele><time>2026-04-04T10:35:11.38Z</time></trkpt><trkpt lat="44.3803379" lon="11.0601539"><ele>362.0</ele><time>2026-04-04T10:35:15.381Z</time></trkpt><trkpt lat="44.3803461" lon="11.0600318"><ele>362.0</ele><time>2026-04-04T10:35:20.369Z</time></trkpt><trkpt lat="44.3803497" lon="11.0599398"><ele>362.0</ele><time>2026-04-04T10:35:23.364Z</time></trkpt><trkpt lat="44.3803561" lon="11.0598179"><ele>362.0</ele><time>2026-04-04T10:35:26.372Z</time></trkpt><trkpt lat="44.3803697" lon="11.0596988"><ele>362.0</ele><time>2026-04-04T10:35:29.373Z</time></trkpt><trkpt lat="44.3803776" lon="11.0596017"><ele>362.0</ele><time>2026-04-04T10:35:32.372Z</time></trkpt><trkpt lat="44.3803886" lon="11.0594931"><ele>363.7142857142857</ele><time>2026-04-04T10:35:35.37Z</time></trkpt><trkpt lat="44.3804036" lon="11.0593973"><ele>365.42857142857144</ele><time>2026-04-04T10:35:38.376Z</time></trkpt><trkpt lat="44.3804176" lon="11.0593089"><ele>367.1428571428571</ele><time>2026-04-04T10:35:42.367Z</time></trkpt><trkpt lat="44.3804322" lon="11.059211"><ele>368.8571428571429</ele><time>2026-04-04T10:35:46.368Z</time></trkpt><trkpt lat="44.3804418" lon="11.0591129"><ele>370.5714285714286</ele><time>2026-04-04T10:35:50.367Z</time></trkpt><trkpt lat="44.3804534" lon="11.0590147"><ele>372.2857142857143</ele><time>2026-04-04T10:35:53.366Z</time></trkpt><trkpt lat="44.3804599" lon="11.0588962"><ele>374.0</ele><time>2026-04-04T10:35:56.378Z</time></trkpt><trkpt lat="44.3804719" lon="11.0587754"><ele>373.6666666666667</ele><time>2026-04-04T10:35:59.383Z</time></trkpt><trkpt lat="44.3804896" lon="11.0586722"><ele>373.33333333333337</ele><time>2026-04-04T10:36:02.371Z</time></trkpt><trkpt lat="44.3805071" lon="11.0585685"><ele>373.0</ele><time>2026-04-04T10:36:05.361Z</time></trkpt><trkpt lat="44.3805275" lon="11.058466"><ele>372.6666666666667</ele><time>2026-04-04T10:36:08.369Z</time></trkpt><trkpt lat="44.3805555" lon="11.0583681"><ele>372.3333333333333</ele><time>2026-04-04T10:36:11.374Z</time></trkpt><trkpt lat="44.380577" lon="11.0582611"><ele>372.0</ele><time>2026-04-04T10:36:14.365Z</time></trkpt><trkpt lat="44.3805952" lon="11.0581673"><ele>372.00000000000006</ele><time>2026-04-04T10:36:17.377Z</time></trkpt><trkpt lat="44.380615" lon="11.0580707"><ele>372.0</ele><time>2026-04-04T10:36:20.369Z</time></trkpt><trkpt lat="44.3806265" lon="11.0579744"><ele>372.0</ele><time>2026-04-04T10:36:23.374Z</time></trkpt><trkpt lat="44.380634" lon="11.057881"><ele>372.0</ele><time>2026-04-04T10:36:26.362Z</time></trkpt><trkpt lat="44.3806383" lon="11.0577828"><ele>372.0</ele><time>2026-04-04T10:36:29.367Z</time></trkpt><trkpt lat="44.3806466" lon="11.0576789"><ele>372.00000000000006</ele><time>2026-04-04T10:36:32.367Z</time></trkpt><trkpt lat="44.3806519" lon="11.057576"><ele>372.0</ele><time>2026-04-04T10:36:36.374Z</time></trkpt><trkpt lat="44.3806646" lon="11.0574789"><ele>373.8571428571429</ele><time>2026-04-04T10:36:39.372Z</time></trkpt><trkpt lat="44.3806766" lon="11.0573922"><ele>375.7142857142857</ele><time>2026-04-04T10:36:43.368Z</time></trkpt><trkpt lat="44.3806893" lon="11.0572934"><ele>377.57142857142856</ele><time>2026-04-04T10:36:46.371Z</time></trkpt><trkpt lat="44.3807089" lon="11.0572005"><ele>379.42857142857144</ele><time>2026-04-04T10:36:49.371Z</time></trkpt><trkpt lat="44.3807293" lon="11.0570986"><ele>381.2857142857143</ele><time>2026-04-04T10:36:53.367Z</time></trkpt><trkpt lat="44.3807506" lon="11.0570023"><ele>383.14285714285717</ele><time>2026-04-04T10:36:56.379Z</time></trkpt><trkpt lat="44.3807708" lon="11.0569185"><ele>385.0</ele><time>2026-04-04T10:36:59.366Z</time></trkpt><trkpt lat="44.3807963" lon="11.0568254"><ele>385.0</ele><time>2026-04-04T10:37:03.382Z</time></trkpt><trkpt lat="44.3808169" lon="11.0567348"><ele>385.0</ele><time>2026-04-04T10:37:06.376Z</time></trkpt><trkpt lat="44.3808579" lon="11.0566485"><ele>385.0</ele><time>2026-04-04T10:37:10.374Z</time></trkpt><trkpt lat="44.3808906" lon="11.0565604"><ele>385.0</ele><time>2026-04-04T10:37:13.38Z</time></trkpt><trkpt lat="44.3809259" lon="11.0564834"><ele>385.0</ele><time>2026-04-04T10:37:17.37Z</time></trkpt><trkpt lat="44.3809722" lon="11.0563934"><ele>385.0</ele><time>2026-04-04T10:37:21.366Z</time></trkpt><trkpt lat="44.3810125" lon="11.0563245"><ele>385.0</ele><time>2026-04-04T10:37:24.365Z</time></trkpt><trkpt lat="44.381051" lon="11.0562519"><ele>386.42857142857144</ele><time>2026-04-04T10:37:27.372Z</time></trkpt><trkpt lat="44.381098" lon="11.056156"><ele>387.8571428571429</ele><time>2026-04-04T10:37:31.369Z</time></trkpt><trkpt lat="44.3811287" lon="11.056059"><ele>389.2857142857143</ele><time>2026-04-04T10:37:35.369Z</time></trkpt><trkpt lat="44.3811165" lon="11.0559629"><ele>390.7142857142857</ele><time>2026-04-04T10:37:39.37Z</time></trkpt><trkpt lat="44.3810628" lon="11.055896"><ele>392.14285714285717</ele><time>2026-04-04T10:37:43.369Z</time></trkpt><trkpt lat="44.3809943" lon="11.0558579"><ele>393.57142857142856</ele><time>2026-04-04T10:37:47.368Z</time></trkpt><trkpt lat="44.3809293" lon="11.055871"><ele>395.0</ele><time>2026-04-04T10:37:51.369Z</time></trkpt><trkpt lat="44.3808587" lon="11.0559318"><ele>394.99999999999994</ele><time>2026-04-04T10:37:56.368Z</time></trkpt><trkpt lat="44.3807929" lon="11.0560055"><ele>395.0</ele><time>2026-04-04T10:38:00.37Z</time></trkpt><trkpt lat="44.3807435" lon="11.0560765"><ele>395.0</ele><time>2026-04-04T10:38:03.371Z</time></trkpt><trkpt lat="44.3806943" lon="11.0561604"><ele>395.0</ele><time>2026-04-04T10:38:06.367Z</time></trkpt><trkpt lat="44.3806479" lon="11.0562412"><ele>394.99999999999994</ele><time>2026-04-04T10:38:09.369Z</time></trkpt><trkpt lat="44.3806044" lon="11.0563175"><ele>395.0</ele><time>2026-04-04T10:38:12.371Z</time></trkpt><trkpt lat="44.3805541" lon="11.0563975"><ele>394.66666666666663</ele><time>2026-04-04T10:38:15.373Z</time></trkpt><trkpt lat="44.3805048" lon="11.0564655"><ele>394.3333333333333</ele><time>2026-04-04T10:38:18.367Z</time></trkpt><trkpt lat="44.3804435" lon="11.0565569"><ele>394.0</ele><time>2026-04-04T10:38:22.375Z</time></trkpt><trkpt lat="44.3803951" lon="11.056637"><ele>393.66666666666663</ele><time>2026-04-04T10:38:25.371Z</time></trkpt><trkpt lat="44.3803419" lon="11.0567253"><ele>393.3333333333333</ele><time>2026-04-04T10:38:28.368Z</time></trkpt><trkpt lat="44.3802952" lon="11.0568176"><ele>393.0</ele><time>2026-04-04T10:38:31.364Z</time></trkpt><trkpt lat="44.3802468" lon="11.0568998"><ele>393.0</ele><time>2026-04-04T10:38:34.372Z</time></trkpt><trkpt lat="44.3802018" lon="11.0569615"><ele>393.0</ele><time>2026-04-04T10:38:36.366Z</time></trkpt><trkpt lat="44.3801262" lon="11.0570234"><ele>393.0</ele><time>2026-04-04T10:38:38.371Z</time></trkpt><trkpt lat="44.3800295" lon="11.0570232"><ele>393.0</ele><time>2026-04-04T10:38:40.372Z</time></trkpt><trkpt lat="44.3799693" lon="11.0569626"><ele>393.0</ele><time>2026-04-04T10:38:42.368Z</time></trkpt><trkpt lat="44.3799621" lon="11.0568634"><ele>393.0</ele><time>2026-04-04T10:38:45.362Z</time></trkpt><trkpt lat="44.3799904" lon="11.0567627"><ele>393.00000000000006</ele><time>2026-04-04T10:38:48.375Z</time></trkpt><trkpt lat="44.3800277" lon="11.0566751"><ele>393.0</ele><time>2026-04-04T10:38:51.37Z</time></trkpt><trkpt lat="44.3800477" lon="11.0565858"><ele>393.0</ele><time>2026-04-04T10:38:54.373Z</time></trkpt><trkpt lat="44.3800712" lon="11.0564895"><ele>393.0</ele><time>2026-04-04T10:38:57.374Z</time></trkpt><trkpt lat="44.3800956" lon="11.05639"><ele>393.0</ele><time>2026-04-04T10:39:00.385Z</time></trkpt><trkpt lat="44.3801312" lon="11.0562957"><ele>393.00000000000006</ele><time>2026-04-04T10:39:03.374Z</time></trkpt><trkpt lat="44.3801592" lon="11.0562046"><ele>393.0</ele><time>2026-04-04T10:39:06.36Z</time></trkpt><trkpt lat="44.3801928" lon="11.0560998"><ele>393.8571428571429</ele><time>2026-04-04T10:39:10.371Z</time></trkpt><trkpt lat="44.3802305" lon="11.0560115"><ele>394.7142857142857</ele><time>2026-04-04T10:39:13.374Z</time></trkpt><trkpt lat="44.3802694" lon="11.0559315"><ele>395.57142857142856</ele><time>2026-04-04T10:39:16.38Z</time></trkpt><trkpt lat="44.3803046" lon="11.0558482"><ele>396.42857142857144</ele><time>2026-04-04T10:39:19.368Z</time></trkpt><trkpt lat="44.38034" lon="11.055753"><ele>397.2857142857143</ele><time>2026-04-04T10:39:23.377Z</time></trkpt><trkpt lat="44.3803769" lon="11.0556509"><ele>398.14285714285717</ele><time>2026-04-04T10:39:27.369Z</time></trkpt><trkpt lat="44.3804061" lon="11.0555598"><ele>399.0</ele><time>2026-04-04T10:39:30.377Z</time></trkpt><trkpt lat="44.3804283" lon="11.0554633"><ele>399.85714285714283</ele><time>2026-04-04T10:39:33.371Z</time></trkpt><trkpt lat="44.3804465" lon="11.0553674"><ele>400.7142857142857</ele><time>2026-04-04T10:39:36.375Z</time></trkpt><trkpt lat="44.3804586" lon="11.0552649"><ele>401.57142857142856</ele><time>2026-04-04T10:39:39.372Z</time></trkpt><trkpt lat="44.3804755" lon="11.0551736"><ele>402.42857142857144</ele><time>2026-04-04T10:39:42.371Z</time></trkpt><trkpt lat="44.3804985" lon="11.0550913"><ele>403.2857142857143</ele><time>2026-04-04T10:39:45.374Z</time></trkpt><trkpt lat="44.380541" lon="11.0550142"><ele>404.1428571428571</ele><time>2026-04-04T10:39:48.371Z</time></trkpt><trkpt lat="44.3805982" lon="11.0549285"><ele>405.0</ele><time>2026-04-04T10:39:51.371Z</time></trkpt><trkpt lat="44.3806513" lon="11.0548553"><ele>407.57142857142856</ele><time>2026-04-04T10:39:54.372Z</time></trkpt><trkpt lat="44.3807077" lon="11.0547896"><ele>410.1428571428571</ele><time>2026-04-04T10:39:57.362Z</time></trkpt><trkpt lat="44.3807675" lon="11.0547298"><ele>412.71428571428567</ele><time>2026-04-04T10:40:00.368Z</time></trkpt><trkpt lat="44.380819" lon="11.0546618"><ele>415.2857142857143</ele><time>2026-04-04T10:40:03.373Z</time></trkpt><trkpt lat="44.380866" lon="11.0546"><ele>417.8571428571429</ele><time>2026-04-04T10:40:06.378Z</time></trkpt><trkpt lat="44.3809315" lon="11.0545293"><ele>420.4285714285714</ele><time>2026-04-04T10:40:10.374Z</time></trkpt><trkpt lat="44.38098" lon="11.0544714"><ele>423.0</ele><time>2026-04-04T10:40:13.376Z</time></trkpt><trkpt lat="44.3810301" lon="11.0544152"><ele>423.0</ele><time>2026-04-04T10:40:15.365Z</time></trkpt><trkpt lat="44.3810945" lon="11.0543504"><ele>423.0</ele><time>2026-04-04T10:40:18.376Z</time></trkpt><trkpt lat="44.3811579" lon="11.0542855"><ele>423.0</ele><time>2026-04-04T10:40:21.371Z</time></trkpt><trkpt lat="44.3812242" lon="11.0542248"><ele>423.0</ele><time>2026-04-04T10:40:24.366Z</time></trkpt><trkpt lat="44.3812906" lon="11.0541555"><ele>423.0</ele><time>2026-04-04T10:40:27.377Z</time></trkpt><trkpt lat="44.3813488" lon="11.0540851"><ele>423.0</ele><time>2026-04-04T10:40:30.376Z</time></trkpt><trkpt lat="44.3814031" lon="11.0540036"><ele>423.1428571428571</ele><time>2026-04-04T10:40:33.367Z</time></trkpt><trkpt lat="44.381453" lon="11.0539125"><ele>423.28571428571433</ele><time>2026-04-04T10:40:36.369Z</time></trkpt><trkpt lat="44.3814791" lon="11.0538303"><ele>423.42857142857144</ele><time>2026-04-04T10:40:39.37Z</time></trkpt><trkpt lat="44.3815031" lon="11.0537402"><ele>423.57142857142856</ele><time>2026-04-04T10:40:42.377Z</time></trkpt><trkpt lat="44.3815315" lon="11.0536366"><ele>423.71428571428567</ele><time>2026-04-04T10:40:45.367Z</time></trkpt><trkpt lat="44.3815578" lon="11.0535444"><ele>423.8571428571429</ele><time>2026-04-04T10:40:48.368Z</time></trkpt><trkpt lat="44.3815785" lon="11.053445"><ele>424.0</ele><time>2026-04-04T10:40:51.384Z</time></trkpt><trkpt lat="44.3816026" lon="11.0533449"><ele>424.83333333333337</ele><time>2026-04-04T10:40:54.368Z</time></trkpt><trkpt lat="44.3816277" lon="11.053256"><ele>425.6666666666667</ele><time>2026-04-04T10:40:57.368Z</time></trkpt><trkpt lat="44.3816534" lon="11.0531473"><ele>426.5</ele><time>2026-04-04T10:41:00.37Z</time></trkpt><trkpt lat="44.3816748" lon="11.0530379"><ele>427.33333333333337</ele><time>2026-04-04T10:41:03.363Z</time></trkpt><trkpt lat="44.3816913" lon="11.0529394"><ele>428.1666666666667</ele><time>2026-04-04T10:41:06.369Z</time></trkpt><trkpt lat="44.3817218" lon="11.0528306"><ele>429.0</ele><time>2026-04-04T10:41:09.363Z</time></trkpt><trkpt lat="44.381747" lon="11.0527472"><ele>429.0</ele><time>2026-04-04T10:41:11.369Z</time></trkpt><trkpt lat="44.3817689" lon="11.0526508"><ele>429.0</ele><time>2026-04-04T10:41:14.364Z</time></trkpt><trkpt lat="44.3817924" lon="11.0525395"><ele>429.0</ele><time>2026-04-04T10:41:18.366Z</time></trkpt><trkpt lat="44.3818076" lon="11.0524192"><ele>429.0</ele><time>2026-04-04T10:41:22.378Z</time></trkpt><trkpt lat="44.3818239" lon="11.0523201"><ele>429.0</ele><time>2026-04-04T10:41:25.375Z</time></trkpt><trkpt lat="44.3818434" lon="11.0522194"><ele>429.0</ele><time>2026-04-04T10:41:28.373Z</time></trkpt><trkpt lat="44.381856" lon="11.0521225"><ele>430.0</ele><time>2026-04-04T10:41:31.368Z</time></trkpt><trkpt lat="44.3818709" lon="11.0520161"><ele>431.0</ele><time>2026-04-04T10:41:34.37Z</time></trkpt><trkpt lat="44.3818746" lon="11.0519147"><ele>432.0</ele><time>2026-04-04T10:41:37.381Z</time></trkpt><trkpt lat="44.3818732" lon="11.0518106"><ele>433.0</ele><time>2026-04-04T10:41:40.371Z</time></trkpt><trkpt lat="44.3818684" lon="11.0517092"><ele>434.0</ele><time>2026-04-04T10:41:43.37Z</time></trkpt><trkpt lat="44.3818705" lon="11.0515985"><ele>435.0</ele><time>2026-04-04T10:41:46.372Z</time></trkpt><trkpt lat="44.3818677" lon="11.0514891"><ele>435.5714285714286</ele><time>2026-04-04T10:41:49.373Z</time></trkpt><trkpt lat="44.381867" lon="11.0513827"><ele>436.14285714285717</ele><time>2026-04-04T10:41:52.371Z</time></trkpt><trkpt lat="44.3818587" lon="11.0512844"><ele>436.7142857142857</ele><time>2026-04-04T10:41:55.369Z</time></trkpt><trkpt lat="44.3818478" lon="11.05119"><ele>437.28571428571433</ele><time>2026-04-04T10:41:58.36Z</time></trkpt><trkpt lat="44.3818424" lon="11.0510807"><ele>437.85714285714283</ele><time>2026-04-04T10:42:01.371Z</time></trkpt><trkpt lat="44.3818418" lon="11.0509772"><ele>438.42857142857144</ele><time>2026-04-04T10:42:04.353Z</time></trkpt><trkpt lat="44.3818432" lon="11.0508686"><ele>439.0</ele><time>2026-04-04T10:42:07.378Z</time></trkpt><trkpt lat="44.3818409" lon="11.0507487"><ele>440.33333333333337</ele><time>2026-04-04T10:42:10.376Z</time></trkpt><trkpt lat="44.3818086" lon="11.0506402"><ele>441.6666666666667</ele><time>2026-04-04T10:42:13.37Z</time></trkpt><trkpt lat="44.3817636" lon="11.0505498"><ele>443.0</ele><time>2026-04-04T10:42:16.367Z</time></trkpt><trkpt lat="44.3817083" lon="11.0504826"><ele>444.33333333333337</ele><time>2026-04-04T10:42:19.382Z</time></trkpt><trkpt lat="44.3816315" lon="11.0504478"><ele>445.6666666666667</ele><time>2026-04-04T10:42:22.372Z</time></trkpt><trkpt lat="44.3815497" lon="11.0504535"><ele>447.0</ele><time>2026-04-04T10:42:25.358Z</time></trkpt><trkpt lat="44.3814743" lon="11.0504822"><ele>447.0</ele><time>2026-04-04T10:42:28.368Z</time></trkpt><trkpt lat="44.3814003" lon="11.0505293"><ele>447.0</ele><time>2026-04-04T10:42:31.36Z</time></trkpt><trkpt lat="44.3813321" lon="11.0505986"><ele>447.0</ele><time>2026-04-04T10:42:35.373Z</time></trkpt><trkpt lat="44.3812794" lon="11.0506494"><ele>447.0</ele><time>2026-04-04T10:42:37.36Z</time></trkpt><trkpt lat="44.3812132" lon="11.0507236"><ele>447.0</ele><time>2026-04-04T10:42:40.371Z</time></trkpt><trkpt lat="44.3811553" lon="11.0508041"><ele>447.0</ele><time>2026-04-04T10:42:43.372Z</time></trkpt><trkpt lat="44.3810972" lon="11.0508831"><ele>446.1666666666667</ele><time>2026-04-04T10:42:46.375Z</time></trkpt><trkpt lat="44.3810296" lon="11.0509596"><ele>445.33333333333337</ele><time>2026-04-04T10:42:49.379Z</time></trkpt><trkpt lat="44.3809612" lon="11.0510317"><ele>444.5</ele><time>2026-04-04T10:42:52.369Z</time></trkpt><trkpt lat="44.3808901" lon="11.0510936"><ele>443.6666666666667</ele><time>2026-04-04T10:42:55.368Z</time></trkpt><trkpt lat="44.3808289" lon="11.0511166"><ele>442.83333333333337</ele><time>2026-04-04T10:42:57.369Z</time></trkpt><trkpt lat="44.3807421" lon="11.0511157"><ele>442.0</ele><time>2026-04-04T10:43:00.37Z</time></trkpt><trkpt lat="44.3806715" lon="11.0510569"><ele>442.00000000000006</ele><time>2026-04-04T10:43:03.361Z</time></trkpt><trkpt lat="44.3806347" lon="11.0509476"><ele>442.0</ele><time>2026-04-04T10:43:06.366Z</time></trkpt><trkpt lat="44.3806111" lon="11.0508313"><ele>442.0</ele><time>2026-04-04T10:43:09.359Z</time></trkpt><trkpt lat="44.380588" lon="11.0507214"><ele>442.0</ele><time>2026-04-04T10:43:12.376Z</time></trkpt><trkpt lat="44.3805636" lon="11.0506198"><ele>442.00000000000006</ele><time>2026-04-04T10:43:15.37Z</time></trkpt><trkpt lat="44.3805369" lon="11.0505101"><ele>442.0</ele><time>2026-04-04T10:43:18.379Z</time></trkpt><trkpt lat="44.3805137" lon="11.0504069"><ele>442.50000000000006</ele><time>2026-04-04T10:43:21.365Z</time></trkpt><trkpt lat="44.3804853" lon="11.0503045"><ele>443.0</ele><time>2026-04-04T10:43:24.371Z</time></trkpt><trkpt lat="44.3804576" lon="11.0502007"><ele>443.5</ele><time>2026-04-04T10:43:27.375Z</time></trkpt><trkpt lat="44.3804355" lon="11.0501037"><ele>444.0</ele><time>2026-04-04T10:43:30.366Z</time></trkpt><trkpt lat="44.3804082" lon="11.0500104"><ele>444.50000000000006</ele><time>2026-04-04T10:43:33.374Z</time></trkpt><trkpt lat="44.3803813" lon="11.0499149"><ele>445.0</ele><time>2026-04-04T10:43:36.373Z</time></trkpt><trkpt lat="44.3803574" lon="11.0498159"><ele>446.42857142857144</ele><time>2026-04-04T10:43:39.364Z</time></trkpt><trkpt lat="44.3803331" lon="11.0497219"><ele>447.85714285714283</ele><time>2026-04-04T10:43:42.375Z</time></trkpt><trkpt lat="44.380306" lon="11.0496304"><ele>449.2857142857143</ele><time>2026-04-04T10:43:45.366Z</time></trkpt><trkpt lat="44.380282" lon="11.0495368"><ele>450.7142857142857</ele><time>2026-04-04T10:43:48.366Z</time></trkpt><trkpt lat="44.3802711" lon="11.0494333"><ele>452.1428571428571</ele><time>2026-04-04T10:43:51.37Z</time></trkpt><trkpt lat="44.3802681" lon="11.0493344"><ele>453.57142857142856</ele><time>2026-04-04T10:43:54.37Z</time></trkpt><trkpt lat="44.3802908" lon="11.0492452"><ele>455.0</ele><time>2026-04-04T10:43:57.373Z</time></trkpt><trkpt lat="44.380324" lon="11.049165"><ele>456.1428571428571</ele><time>2026-04-04T10:44:00.374Z</time></trkpt><trkpt lat="44.3803751" lon="11.0490939"><ele>457.2857142857143</ele><time>2026-04-04T10:44:03.368Z</time></trkpt><trkpt lat="44.3804358" lon="11.0490352"><ele>458.42857142857144</ele><time>2026-04-04T10:44:06.364Z</time></trkpt><trkpt lat="44.3805014" lon="11.0489994"><ele>459.57142857142856</ele><time>2026-04-04T10:44:09.376Z</time></trkpt><trkpt lat="44.3805707" lon="11.0489655"><ele>460.71428571428567</ele><time>2026-04-04T10:44:12.366Z</time></trkpt><trkpt lat="44.3806364" lon="11.0489365"><ele>461.85714285714283</ele><time>2026-04-04T10:44:15.365Z</time></trkpt><trkpt lat="44.3807065" lon="11.0488986"><ele>463.0</ele><time>2026-04-04T10:44:18.368Z</time></trkpt><trkpt lat="44.3807792" lon="11.0488648"><ele>463.6666666666667</ele><time>2026-04-04T10:44:21.36Z</time></trkpt><trkpt lat="44.3808487" lon="11.0488305"><ele>464.33333333333337</ele><time>2026-04-04T10:44:24.375Z</time></trkpt><trkpt lat="44.3809228" lon="11.0487954"><ele>465.0</ele><time>2026-04-04T10:44:27.369Z</time></trkpt><trkpt lat="44.3809898" lon="11.0487657"><ele>465.66666666666663</ele><time>2026-04-04T10:44:30.374Z</time></trkpt><trkpt lat="44.3810699" lon="11.0487461"><ele>466.3333333333333</ele><time>2026-04-04T10:44:33.361Z</time></trkpt><trkpt lat="44.3811527" lon="11.0487415"><ele>467.0</ele><time>2026-04-04T10:44:36.366Z</time></trkpt><trkpt lat="44.3812357" lon="11.0487487"><ele>466.99999999999994</ele><time>2026-04-04T10:44:39.37Z</time></trkpt><trkpt lat="44.3813227" lon="11.0487554"><ele>467.0</ele><time>2026-04-04T10:44:42.368Z</time></trkpt><trkpt lat="44.3813984" lon="11.0487491"><ele>467.0</ele><time>2026-04-04T10:44:45.361Z</time></trkpt><trkpt lat="44.3814794" lon="11.0487431"><ele>467.0</ele><time>2026-04-04T10:44:48.365Z</time></trkpt><trkpt lat="44.3815445" lon="11.0487381"><ele>466.99999999999994</ele><time>2026-04-04T10:44:50.371Z</time></trkpt><trkpt lat="44.3816244" lon="11.0487243"><ele>467.0</ele><time>2026-04-04T10:44:53.376Z</time></trkpt><trkpt lat="44.3816904" lon="11.0487022"><ele>468.16666666666663</ele><time>2026-04-04T10:44:56.376Z</time></trkpt><trkpt lat="44.381769" lon="11.048685"><ele>469.3333333333333</ele><time>2026-04-04T10:44:59.371Z</time></trkpt><trkpt lat="44.3818467" lon="11.0486638"><ele>470.5</ele><time>2026-04-04T10:45:02.381Z</time></trkpt><trkpt lat="44.3819196" lon="11.0486425"><ele>471.66666666666663</ele><time>2026-04-04T10:45:05.374Z</time></trkpt><trkpt lat="44.3819928" lon="11.0486279"><ele>472.8333333333333</ele><time>2026-04-04T10:45:08.361Z</time></trkpt><trkpt lat="44.3820569" lon="11.0486279"><ele>474.0</ele><time>2026-04-04T10:45:10.375Z</time></trkpt><trkpt lat="44.3821369" lon="11.0486412"><ele>474.0</ele><time>2026-04-04T10:45:13.37Z</time></trkpt><trkpt lat="44.3822294" lon="11.0486309"><ele>474.0</ele><time>2026-04-04T10:45:16.369Z</time></trkpt><trkpt lat="44.382298" lon="11.0485613"><ele>474.0</ele><time>2026-04-04T10:45:19.371Z</time></trkpt><trkpt lat="44.382292" lon="11.0484613"><ele>474.0</ele><time>2026-04-04T10:45:23.371Z</time></trkpt><trkpt lat="44.3822265" lon="11.0484211"><ele>474.0</ele><time>2026-04-04T10:45:26.36Z</time></trkpt><trkpt lat="44.3821474" lon="11.0483989"><ele>474.0</ele><time>2026-04-04T10:45:29.377Z</time></trkpt><trkpt lat="44.3820661" lon="11.0483851"><ele>474.0</ele><time>2026-04-04T10:45:32.373Z</time></trkpt><trkpt lat="44.3819939" lon="11.0483821"><ele>474.0</ele><time>2026-04-04T10:45:36.361Z</time></trkpt><trkpt lat="44.3819293" lon="11.0483806"><ele>474.0</ele><time>2026-04-04T10:45:39.37Z</time></trkpt><trkpt lat="44.3818515" lon="11.0483757"><ele>474.0</ele><time>2026-04-04T10:45:42.377Z</time></trkpt><trkpt lat="44.3817844" lon="11.0483806"><ele>474.0</ele><time>2026-04-04T10:45:45.365Z</time></trkpt><trkpt lat="44.3816992" lon="11.0483672"><ele>474.0</ele><time>2026-04-04T10:45:48.36Z</time></trkpt><trkpt lat="44.3816126" lon="11.0483362"><ele>474.1666666666667</ele><time>2026-04-04T10:45:51.361Z</time></trkpt><trkpt lat="44.3815372" lon="11.0482766"><ele>474.33333333333337</ele><time>2026-04-04T10:45:54.371Z</time></trkpt><trkpt lat="44.3814692" lon="11.0482155"><ele>474.5</ele><time>2026-04-04T10:45:57.371Z</time></trkpt><trkpt lat="44.3814188" lon="11.0481553"><ele>474.6666666666667</ele><time>2026-04-04T10:45:59.371Z</time></trkpt><trkpt lat="44.3813624" lon="11.0480748"><ele>474.83333333333337</ele><time>2026-04-04T10:46:02.372Z</time></trkpt><trkpt lat="44.3813174" lon="11.0479845"><ele>475.0</ele><time>2026-04-04T10:46:05.382Z</time></trkpt><trkpt lat="44.3812624" lon="11.0478953"><ele>475.00000000000006</ele><time>2026-04-04T10:46:08.37Z</time></trkpt><trkpt lat="44.3812137" lon="11.0477967"><ele>475.0</ele><time>2026-04-04T10:46:11.363Z</time></trkpt><trkpt lat="44.3811681" lon="11.0476952"><ele>475.0</ele><time>2026-04-04T10:46:14.377Z</time></trkpt><trkpt lat="44.3811242" lon="11.0475975"><ele>475.0</ele><time>2026-04-04T10:46:17.369Z</time></trkpt><trkpt lat="44.3810914" lon="11.0475196"><ele>475.00000000000006</ele><time>2026-04-04T10:46:19.376Z</time></trkpt><trkpt lat="44.3810495" lon="11.0474046"><ele>475.0</ele><time>2026-04-04T10:46:22.377Z</time></trkpt><trkpt lat="44.3810135" lon="11.0472992"><ele>476.83333333333337</ele><time>2026-04-04T10:46:25.375Z</time></trkpt><trkpt lat="44.3809778" lon="11.0471988"><ele>478.6666666666667</ele><time>2026-04-04T10:46:28.372Z</time></trkpt><trkpt lat="44.3809325" lon="11.0470929"><ele>480.5</ele><time>2026-04-04T10:46:31.377Z</time></trkpt><trkpt lat="44.3808814" lon="11.0469964"><ele>482.33333333333337</ele><time>2026-04-04T10:46:34.368Z</time></trkpt><trkpt lat="44.3808239" lon="11.0469092"><ele>484.1666666666667</ele><time>2026-04-04T10:46:37.361Z</time></trkpt><trkpt lat="44.3807596" lon="11.046822"><ele>486.0</ele><time>2026-04-04T10:46:40.373Z</time></trkpt><trkpt lat="44.380709" lon="11.0467582"><ele>486.0</ele><time>2026-04-04T10:46:42.368Z</time></trkpt><trkpt lat="44.3806555" lon="11.0466985"><ele>486.0</ele><time>2026-04-04T10:46:44.384Z</time></trkpt><trkpt lat="44.380596" lon="11.0466465"><ele>486.0</ele><time>2026-04-04T10:46:46.37Z</time></trkpt><trkpt lat="44.3805353" lon="11.0466149"><ele>486.0</ele><time>2026-04-04T10:46:48.374Z</time></trkpt><trkpt lat="44.3804519" lon="11.046584"><ele>486.0</ele><time>2026-04-04T10:46:51.373Z</time></trkpt><trkpt lat="44.3803774" lon="11.0465736"><ele>486.0</ele><time>2026-04-04T10:46:54.369Z</time></trkpt><trkpt lat="44.3802963" lon="11.0465689"><ele>486.0</ele><time>2026-04-04T10:46:57.369Z</time></trkpt><trkpt lat="44.3802141" lon="11.0465609"><ele>488.5</ele><time>2026-04-04T10:47:00.374Z</time></trkpt><trkpt lat="44.3801303" lon="11.0465492"><ele>491.0</ele><time>2026-04-04T10:47:03.367Z</time></trkpt><trkpt lat="44.3800478" lon="11.0465404"><ele>493.5</ele><time>2026-04-04T10:47:06.378Z</time></trkpt><trkpt lat="44.3799649" lon="11.0465385"><ele>496.0</ele><time>2026-04-04T10:47:09.372Z</time></trkpt><trkpt lat="44.3798976" lon="11.0465307"><ele>498.5</ele><time>2026-04-04T10:47:12.367Z</time></trkpt><trkpt lat="44.3798293" lon="11.0465221"><ele>501.0</ele><time>2026-04-04T10:47:15.373Z</time></trkpt><trkpt lat="44.379765" lon="11.0465197"><ele>501.0</ele><time>2026-04-04T10:47:18.366Z</time></trkpt><trkpt lat="44.3796928" lon="11.046531"><ele>501.0</ele><time>2026-04-04T10:47:21.381Z</time></trkpt><trkpt lat="44.3796103" lon="11.0465232"><ele>501.0</ele><time>2026-04-04T10:47:24.378Z</time></trkpt><trkpt lat="44.3795472" lon="11.0465113"><ele>501.0</ele><time>2026-04-04T10:47:26.377Z</time></trkpt><trkpt lat="44.3794574" lon="11.0465049"><ele>501.0</ele><time>2026-04-04T10:47:29.378Z</time></trkpt><trkpt lat="44.3793764" lon="11.0464998"><ele>501.0</ele><time>2026-04-04T10:47:32.367Z</time></trkpt><trkpt lat="44.3792985" lon="11.046497"><ele>502.14285714285717</ele><time>2026-04-04T10:47:35.373Z</time></trkpt><trkpt lat="44.3792332" lon="11.0464956"><ele>503.2857142857142</ele><time>2026-04-04T10:47:38.374Z</time></trkpt><trkpt lat="44.3791698" lon="11.0464957"><ele>504.4285714285714</ele><time>2026-04-04T10:47:41.373Z</time></trkpt><trkpt lat="44.3791085" lon="11.0464513"><ele>505.57142857142856</ele><time>2026-04-04T10:47:44.377Z</time></trkpt><trkpt lat="44.3790662" lon="11.0463476"><ele>506.71428571428567</ele><time>2026-04-04T10:47:47.375Z</time></trkpt><trkpt lat="44.3791317" lon="11.0462914"><ele>507.8571428571428</ele><time>2026-04-04T10:47:53.376Z</time></trkpt><trkpt lat="44.3792169" lon="11.0462866"><ele>508.99999999999994</ele><time>2026-04-04T10:47:57.375Z</time></trkpt><trkpt lat="44.3793017" lon="11.0462612"><ele>508.99999999999994</ele><time>2026-04-04T10:48:00.365Z</time></trkpt><trkpt lat="44.3793818" lon="11.0462409"><ele>509.0</ele><time>2026-04-04T10:48:03.372Z</time></trkpt><trkpt lat="44.3794567" lon="11.046212"><ele>509.0</ele><time>2026-04-04T10:48:06.369Z</time></trkpt><trkpt lat="44.3795269" lon="11.0461549"><ele>509.0</ele><time>2026-04-04T10:48:09.38Z</time></trkpt><trkpt lat="44.3795902" lon="11.0460887"><ele>508.99999999999994</ele><time>2026-04-04T10:48:12.376Z</time></trkpt><trkpt lat="44.3796368" lon="11.0460123"><ele>509.0</ele><time>2026-04-04T10:48:15.37Z</time></trkpt><trkpt lat="44.3796705" lon="11.0459331"><ele>508.99999999999994</ele><time>2026-04-04T10:48:18.373Z</time></trkpt><trkpt lat="44.3797047" lon="11.0458493"><ele>509.0</ele><time>2026-04-04T10:48:21.374Z</time></trkpt><trkpt lat="44.3797428" lon="11.0457467"><ele>509.0</ele><time>2026-04-04T10:48:24.377Z</time></trkpt><trkpt lat="44.3797904" lon="11.0456453"><ele>509.0</ele><time>2026-04-04T10:48:27.37Z</time></trkpt><trkpt lat="44.3798402" lon="11.0455597"><ele>508.99999999999994</ele><time>2026-04-04T10:48:30.378Z</time></trkpt><trkpt lat="44.3799002" lon="11.0454839"><ele>509.0</ele><time>2026-04-04T10:48:33.37Z</time></trkpt><trkpt lat="44.3799484" lon="11.0454127"><ele>508.99999999999994</ele><time>2026-04-04T10:48:36.365Z</time></trkpt><trkpt lat="44.3799937" lon="11.0453397"><ele>509.0</ele><time>2026-04-04T10:48:39.374Z</time></trkpt><trkpt lat="44.3800387" lon="11.0452708"><ele>508.99999999999994</ele><time>2026-04-04T10:48:42.368Z</time></trkpt><trkpt lat="44.3800834" lon="11.0451977"><ele>508.99999999999994</ele><time>2026-04-04T10:48:45.367Z</time></trkpt><trkpt lat="44.3801271" lon="11.04513"><ele>509.0</ele><time>2026-04-04T10:48:48.364Z</time></trkpt><trkpt lat="44.3801743" lon="11.0450654"><ele>508.99999999999994</ele><time>2026-04-04T10:48:51.377Z</time></trkpt><trkpt lat="44.3802238" lon="11.0449969"><ele>508.99999999999994</ele><time>2026-04-04T10:48:54.371Z</time></trkpt><trkpt lat="44.3802775" lon="11.0449212"><ele>510.1428571428571</ele><time>2026-04-04T10:48:57.374Z</time></trkpt><trkpt lat="44.3803303" lon="11.044853"><ele>511.2857142857143</ele><time>2026-04-04T10:49:00.375Z</time></trkpt><trkpt lat="44.3803872" lon="11.0447782"><ele>512.4285714285714</ele><time>2026-04-04T10:49:03.366Z</time></trkpt><trkpt lat="44.3804325" lon="11.0447132"><ele>513.5714285714286</ele><time>2026-04-04T10:49:06.369Z</time></trkpt><trkpt lat="44.3804814" lon="11.0446423"><ele>514.7142857142858</ele><time>2026-04-04T10:49:09.369Z</time></trkpt><trkpt lat="44.380531" lon="11.0445626"><ele>515.8571428571429</ele><time>2026-04-04T10:49:12.374Z</time></trkpt><trkpt lat="44.3805788" lon="11.0444939"><ele>517.0</ele><time>2026-04-04T10:49:15.373Z</time></trkpt><trkpt lat="44.3806326" lon="11.0444095"><ele>518.0</ele><time>2026-04-04T10:49:19.376Z</time></trkpt><trkpt lat="44.3806778" lon="11.0443245"><ele>519.0</ele><time>2026-04-04T10:49:23.367Z</time></trkpt><trkpt lat="44.3807169" lon="11.0442548"><ele>520.0</ele><time>2026-04-04T10:49:26.369Z</time></trkpt><trkpt lat="44.3807669" lon="11.0441804"><ele>521.0</ele><time>2026-04-04T10:49:29.369Z</time></trkpt><trkpt lat="44.3808195" lon="11.0441178"><ele>522.0</ele><time>2026-04-04T10:49:32.372Z</time></trkpt><trkpt lat="44.3808895" lon="11.0440864"><ele>523.0</ele><time>2026-04-04T10:49:35.377Z</time></trkpt><trkpt lat="44.3809546" lon="11.0441055"><ele>524.0</ele><time>2026-04-04T10:49:38.374Z</time></trkpt><trkpt lat="44.3810213" lon="11.0441806"><ele>524.0</ele><time>2026-04-04T10:49:42.371Z</time></trkpt><trkpt lat="44.3810714" lon="11.0442569"><ele>524.0</ele><time>2026-04-04T10:49:45.371Z</time></trkpt><trkpt lat="44.3811133" lon="11.0443587"><ele>524.0</ele><time>2026-04-04T10:49:48.38Z</time></trkpt><trkpt lat="44.3811439" lon="11.0444813"><ele>524.0</ele><time>2026-04-04T10:49:51.37Z</time></trkpt><trkpt lat="44.3811615" lon="11.0445981"><ele>524.0</ele><time>2026-04-04T10:49:54.375Z</time></trkpt><trkpt lat="44.3811732" lon="11.0446943"><ele>524.0</ele><time>2026-04-04T10:49:57.38Z</time></trkpt><trkpt lat="44.3811785" lon="11.0447949"><ele>524.0</ele><time>2026-04-04T10:50:00.373Z</time></trkpt><trkpt lat="44.381194" lon="11.0448925"><ele>524.0</ele><time>2026-04-04T10:50:03.369Z</time></trkpt><trkpt lat="44.3812145" lon="11.0449932"><ele>524.0</ele><time>2026-04-04T10:50:06.359Z</time></trkpt><trkpt lat="44.38125" lon="11.0450919"><ele>524.0</ele><time>2026-04-04T10:50:09.371Z</time></trkpt><trkpt lat="44.3812966" lon="11.045173"><ele>524.0</ele><time>2026-04-04T10:50:12.378Z</time></trkpt><trkpt lat="44.3813509" lon="11.0452444"><ele>524.0</ele><time>2026-04-04T10:50:15.37Z</time></trkpt><trkpt lat="44.3814251" lon="11.045302"><ele>524.1666666666666</ele><time>2026-04-04T10:50:18.369Z</time></trkpt><trkpt lat="44.381491" lon="11.0453202"><ele>524.3333333333333</ele><time>2026-04-04T10:50:21.379Z</time></trkpt><trkpt lat="44.3815499" lon="11.0452593"><ele>524.5</ele><time>2026-04-04T10:50:24.375Z</time></trkpt><trkpt lat="44.3815854" lon="11.0451593"><ele>524.6666666666666</ele><time>2026-04-04T10:50:27.376Z</time></trkpt><trkpt lat="44.3815953" lon="11.0450472"><ele>524.8333333333334</ele><time>2026-04-04T10:50:30.377Z</time></trkpt><trkpt lat="44.3816069" lon="11.0449341"><ele>525.0</ele><time>2026-04-04T10:50:33.37Z</time></trkpt><trkpt lat="44.3816095" lon="11.0448268"><ele>526.5714285714286</ele><time>2026-04-04T10:50:36.372Z</time></trkpt><trkpt lat="44.3816058" lon="11.0447244"><ele>528.1428571428571</ele><time>2026-04-04T10:50:39.375Z</time></trkpt><trkpt lat="44.3815972" lon="11.0446288"><ele>529.7142857142858</ele><time>2026-04-04T10:50:42.368Z</time></trkpt><trkpt lat="44.3815918" lon="11.04452"><ele>531.2857142857142</ele><time>2026-04-04T10:50:45.371Z</time></trkpt><trkpt lat="44.3815793" lon="11.0444073"><ele>532.8571428571429</ele><time>2026-04-04T10:50:48.365Z</time></trkpt><trkpt lat="44.3815657" lon="11.044307"><ele>534.4285714285714</ele><time>2026-04-04T10:50:51.37Z</time></trkpt><trkpt lat="44.3815484" lon="11.0442053"><ele>536.0</ele><time>2026-04-04T10:50:54.381Z</time></trkpt><trkpt lat="44.3815189" lon="11.0441036"><ele>535.7142857142858</ele><time>2026-04-04T10:50:57.37Z</time></trkpt><trkpt lat="44.3814924" lon="11.0440119"><ele>535.4285714285714</ele><time>2026-04-04T10:51:00.371Z</time></trkpt><trkpt lat="44.3814578" lon="11.0439187"><ele>535.1428571428571</ele><time>2026-04-04T10:51:03.374Z</time></trkpt><trkpt lat="44.3814097" lon="11.0438193"><ele>534.8571428571429</ele><time>2026-04-04T10:51:07.364Z</time></trkpt><trkpt lat="44.3813742" lon="11.0437342"><ele>534.5714285714286</ele><time>2026-04-04T10:51:10.365Z</time></trkpt><trkpt lat="44.3813368" lon="11.0436555"><ele>534.2857142857143</ele><time>2026-04-04T10:51:13.369Z</time></trkpt><trkpt lat="44.3812965" lon="11.0435656"><ele>534.0</ele><time>2026-04-04T10:51:16.375Z</time></trkpt><trkpt lat="44.3812517" lon="11.0434707"><ele>534.0000000000001</ele><time>2026-04-04T10:51:19.374Z</time></trkpt><trkpt lat="44.3812131" lon="11.0433764"><ele>534.0</ele><time>2026-04-04T10:51:22.379Z</time></trkpt><trkpt lat="44.3811723" lon="11.0432986"><ele>534.0</ele><time>2026-04-04T10:51:25.376Z</time></trkpt><trkpt lat="44.3811277" lon="11.0432121"><ele>534.0</ele><time>2026-04-04T10:51:28.368Z</time></trkpt><trkpt lat="44.3810839" lon="11.0431391"><ele>534.0</ele><time>2026-04-04T10:51:31.376Z</time></trkpt><trkpt lat="44.3810359" lon="11.0430695"><ele>534.0000000000001</ele><time>2026-04-04T10:51:34.377Z</time></trkpt><trkpt lat="44.3809887" lon="11.0430028"><ele>534.0</ele><time>2026-04-04T10:51:37.376Z</time></trkpt><trkpt lat="44.3809536" lon="11.0429017"><ele>536.4285714285714</ele><time>2026-04-04T10:51:40.37Z</time></trkpt><trkpt lat="44.3809703" lon="11.0427868"><ele>538.8571428571429</ele><time>2026-04-04T10:51:43.377Z</time></trkpt><trkpt lat="44.3810483" lon="11.0427824"><ele>541.2857142857142</ele><time>2026-04-04T10:51:47.369Z</time></trkpt><trkpt lat="44.3811058" lon="11.0428289"><ele>543.7142857142858</ele><time>2026-04-04T10:51:50.37Z</time></trkpt><trkpt lat="44.381161" lon="11.0428774"><ele>546.1428571428571</ele><time>2026-04-04T10:51:53.369Z</time></trkpt><trkpt lat="44.3812185" lon="11.0429321"><ele>548.5714285714286</ele><time>2026-04-04T10:51:56.371Z</time></trkpt><trkpt lat="44.381279" lon="11.042983"><ele>551.0</ele><time>2026-04-04T10:51:59.369Z</time></trkpt><trkpt lat="44.3813467" lon="11.0430336"><ele>551.6666666666666</ele><time>2026-04-04T10:52:02.369Z</time></trkpt><trkpt lat="44.3814069" lon="11.0430871"><ele>552.3333333333333</ele><time>2026-04-04T10:52:05.37Z</time></trkpt><trkpt lat="44.3814828" lon="11.0431433"><ele>553.0</ele><time>2026-04-04T10:52:08.372Z</time></trkpt><trkpt lat="44.3815608" lon="11.0431902"><ele>553.6666666666666</ele><time>2026-04-04T10:52:11.374Z</time></trkpt><trkpt lat="44.3816316" lon="11.0432385"><ele>554.3333333333334</ele><time>2026-04-04T10:52:14.375Z</time></trkpt><trkpt lat="44.3817084" lon="11.0432792"><ele>555.0</ele><time>2026-04-04T10:52:17.368Z</time></trkpt><trkpt lat="44.3817941" lon="11.0433045"><ele>555.0000000000001</ele><time>2026-04-04T10:52:21.367Z</time></trkpt><trkpt lat="44.3818716" lon="11.0432928"><ele>555.0</ele><time>2026-04-04T10:52:24.371Z</time></trkpt><trkpt lat="44.3819387" lon="11.04325"><ele>555.0</ele><time>2026-04-04T10:52:27.369Z</time></trkpt><trkpt lat="44.3819807" lon="11.0431582"><ele>555.0</ele><time>2026-04-04T10:52:31.385Z</time></trkpt><trkpt lat="44.3819978" lon="11.0430629"><ele>555.0</ele><time>2026-04-04T10:52:34.372Z</time></trkpt><trkpt lat="44.3819759" lon="11.042976"><ele>555.0000000000001</ele><time>2026-04-04T10:52:38.37Z</time></trkpt><trkpt lat="44.3819324" lon="11.0429024"><ele>555.0</ele><time>2026-04-04T10:52:42.368Z</time></trkpt><trkpt lat="44.3819025" lon="11.0428208"><ele>555.0000000000001</ele><time>2026-04-04T10:52:45.375Z</time></trkpt><trkpt lat="44.3818645" lon="11.0427451"><ele>555.0</ele><time>2026-04-04T10:52:48.368Z</time></trkpt><trkpt lat="44.3818246" lon="11.0426724"><ele>555.0</ele><time>2026-04-04T10:52:52.367Z</time></trkpt><trkpt lat="44.381774" lon="11.0425804"><ele>555.0</ele><time>2026-04-04T10:52:56.363Z</time></trkpt><trkpt lat="44.3817197" lon="11.0425004"><ele>555.0</ele><time>2026-04-04T10:53:00.369Z</time></trkpt><trkpt lat="44.381676" lon="11.0424305"><ele>555.0000000000001</ele><time>2026-04-04T10:53:03.37Z</time></trkpt><trkpt lat="44.381636" lon="11.0423622"><ele>555.0</ele><time>2026-04-04T10:53:06.379Z</time></trkpt><trkpt lat="44.3815951" lon="11.0422883"><ele>556.8571428571429</ele><time>2026-04-04T10:53:09.388Z</time></trkpt><trkpt lat="44.3815435" lon="11.0422074"><ele>558.7142857142858</ele><time>2026-04-04T10:53:13.378Z</time></trkpt><trkpt lat="44.3814852" lon="11.0421422"><ele>560.5714285714286</ele><time>2026-04-04T10:53:17.378Z</time></trkpt><trkpt lat="44.3814268" lon="11.0420853"><ele>562.4285714285714</ele><time>2026-04-04T10:53:21.369Z</time></trkpt><trkpt lat="44.3813687" lon="11.0420341"><ele>564.2857142857142</ele><time>2026-04-04T10:53:24.372Z</time></trkpt><trkpt lat="44.3813027" lon="11.0419705"><ele>566.1428571428571</ele><time>2026-04-04T10:53:28.373Z</time></trkpt><trkpt lat="44.3812406" lon="11.0419219"><ele>568.0</ele><time>2026-04-04T10:53:32.375Z</time></trkpt><trkpt lat="44.3811713" lon="11.0418572"><ele>568.0</ele><time>2026-04-04T10:53:36.38Z</time></trkpt><trkpt lat="44.3810981" lon="11.0418014"><ele>568.0</ele><time>2026-04-04T10:53:40.38Z</time></trkpt><trkpt lat="44.3810243" lon="11.0417443"><ele>568.0</ele><time>2026-04-04T10:53:44.369Z</time></trkpt><trkpt lat="44.380967" lon="11.0416906"><ele>568.0</ele><time>2026-04-04T10:53:47.362Z</time></trkpt><trkpt lat="44.3809081" lon="11.0416353"><ele>568.0</ele><time>2026-04-04T10:53:50.379Z</time></trkpt><trkpt lat="44.3808338" lon="11.041573"><ele>568.0</ele><time>2026-04-04T10:53:54.38Z</time></trkpt><trkpt lat="44.3807801" lon="11.0415163"><ele>570.4285714285714</ele><time>2026-04-04T10:53:57.38Z</time></trkpt><trkpt lat="44.3807274" lon="11.0414577"><ele>572.8571428571428</ele><time>2026-04-04T10:54:00.359Z</time></trkpt><trkpt lat="44.3806732" lon="11.0414063"><ele>575.2857142857142</ele><time>2026-04-04T10:54:03.378Z</time></trkpt><trkpt lat="44.3806051" lon="11.0413549"><ele>577.7142857142857</ele><time>2026-04-04T10:54:07.38Z</time></trkpt><trkpt lat="44.3805444" lon="11.0413278"><ele>580.1428571428571</ele><time>2026-04-04T10:54:10.376Z</time></trkpt><trkpt lat="44.3804745" lon="11.0413033"><ele>582.5714285714286</ele><time>2026-04-04T10:54:15.378Z</time></trkpt><trkpt lat="44.3803995" lon="11.0412789"><ele>585.0</ele><time>2026-04-04T10:54:20.385Z</time></trkpt><trkpt lat="44.3803227" lon="11.0412506"><ele>585.0</ele><time>2026-04-04T10:54:24.366Z</time></trkpt><trkpt lat="44.3802657" lon="11.0412079"><ele>585.0</ele><time>2026-04-04T10:54:27.376Z</time></trkpt><trkpt lat="44.3802267" lon="11.0411111"><ele>585.0</ele><time>2026-04-04T10:54:31.365Z</time></trkpt><trkpt lat="44.3802476" lon="11.0410261"><ele>585.0</ele><time>2026-04-04T10:54:34.364Z</time></trkpt><trkpt lat="44.3803175" lon="11.0409703"><ele>585.0</ele><time>2026-04-04T10:54:38.374Z</time></trkpt><trkpt lat="44.3803924" lon="11.0409556"><ele>585.0</ele><time>2026-04-04T10:54:42.372Z</time></trkpt><trkpt lat="44.3804698" lon="11.0409537"><ele>585.0</ele><time>2026-04-04T10:54:46.373Z</time></trkpt><trkpt lat="44.3805438" lon="11.0409473"><ele>585.0</ele><time>2026-04-04T10:54:50.374Z</time></trkpt><trkpt lat="44.3806112" lon="11.0409343"><ele>585.0</ele><time>2026-04-04T10:54:53.374Z</time></trkpt><trkpt lat="44.3806941" lon="11.0409264"><ele>585.0</ele><time>2026-04-04T10:54:57.37Z</time></trkpt><trkpt lat="44.3807787" lon="11.0409247"><ele>585.0</ele><time>2026-04-04T10:55:01.372Z</time></trkpt><trkpt lat="44.380843" lon="11.0409229"><ele>585.0</ele><time>2026-04-04T10:55:04.379Z</time></trkpt><trkpt lat="44.3809122" lon="11.0409228"><ele>585.0</ele><time>2026-04-04T10:55:07.367Z</time></trkpt><trkpt lat="44.3809963" lon="11.0409236"><ele>585.0</ele><time>2026-04-04T10:55:10.367Z</time></trkpt><trkpt lat="44.3810611" lon="11.0409269"><ele>585.0</ele><time>2026-04-04T10:55:12.373Z</time></trkpt><trkpt lat="44.3811428" lon="11.0409267"><ele>585.0</ele><time>2026-04-04T10:55:15.372Z</time></trkpt><trkpt lat="44.3812266" lon="11.0409289"><ele>585.0</ele><time>2026-04-04T10:55:18.371Z</time></trkpt><trkpt lat="44.3813021" lon="11.0409331"><ele>585.0</ele><time>2026-04-04T10:55:21.374Z</time></trkpt><trkpt lat="44.3813764" lon="11.0409404"><ele>585.0</ele><time>2026-04-04T10:55:24.371Z</time></trkpt><trkpt lat="44.3814527" lon="11.0409507"><ele>585.6666666666666</ele><time>2026-04-04T10:55:27.382Z</time></trkpt><trkpt lat="44.3815298" lon="11.0409456"><ele>586.3333333333334</ele><time>2026-04-04T10:55:30.376Z</time></trkpt><trkpt lat="44.3816123" lon="11.0409072"><ele>587.0</ele><time>2026-04-04T10:55:33.375Z</time></trkpt><trkpt lat="44.3816752" lon="11.0408333"><ele>587.6666666666667</ele><time>2026-04-04T10:55:36.372Z</time></trkpt><trkpt lat="44.3816905" lon="11.0407143"><ele>588.3333333333334</ele><time>2026-04-04T10:55:39.373Z</time></trkpt><trkpt lat="44.3816491" lon="11.0406134"><ele>589.0</ele><time>2026-04-04T10:55:42.378Z</time></trkpt><trkpt lat="44.3815861" lon="11.0405716"><ele>590.6666666666667</ele><time>2026-04-04T10:55:45.374Z</time></trkpt><trkpt lat="44.3815164" lon="11.0405269"><ele>592.3333333333334</ele><time>2026-04-04T10:55:48.367Z</time></trkpt><trkpt lat="44.38144" lon="11.04049"><ele>594.0</ele><time>2026-04-04T10:55:51.382Z</time></trkpt><trkpt lat="44.3813631" lon="11.0404644"><ele>595.6666666666666</ele><time>2026-04-04T10:55:54.369Z</time></trkpt><trkpt lat="44.3812934" lon="11.0404291"><ele>597.3333333333333</ele><time>2026-04-04T10:55:57.373Z</time></trkpt><trkpt lat="44.3812271" lon="11.0403933"><ele>599.0</ele><time>2026-04-04T10:56:00.358Z</time></trkpt><trkpt lat="44.3811659" lon="11.0403484"><ele>599.0</ele><time>2026-04-04T10:56:03.373Z</time></trkpt><trkpt lat="44.3811095" lon="11.0403016"><ele>599.0</ele><time>2026-04-04T10:56:06.377Z</time></trkpt><trkpt lat="44.3810525" lon="11.0402563"><ele>599.0</ele><time>2026-04-04T10:56:09.371Z</time></trkpt><trkpt lat="44.3809865" lon="11.0401859"><ele>599.0</ele><time>2026-04-04T10:56:12.373Z</time></trkpt><trkpt lat="44.3809156" lon="11.0401042"><ele>599.0</ele><time>2026-04-04T10:56:15.37Z</time></trkpt><trkpt lat="44.3808519" lon="11.0400242"><ele>599.0</ele><time>2026-04-04T10:56:18.359Z</time></trkpt><trkpt lat="44.3807899" lon="11.0399731"><ele>600.8333333333333</ele><time>2026-04-04T10:56:21.361Z</time></trkpt><trkpt lat="44.380724" lon="11.0399355"><ele>602.6666666666666</ele><time>2026-04-04T10:56:24.384Z</time></trkpt><trkpt lat="44.3806389" lon="11.039902"><ele>604.5</ele><time>2026-04-04T10:56:27.377Z</time></trkpt><trkpt lat="44.3805568" lon="11.0398704"><ele>606.3333333333334</ele><time>2026-04-04T10:56:30.368Z</time></trkpt><trkpt lat="44.3804863" lon="11.0398539"><ele>608.1666666666667</ele><time>2026-04-04T10:56:33.37Z</time></trkpt><trkpt lat="44.3804208" lon="11.0398636"><ele>610.0</ele><time>2026-04-04T10:56:36.363Z</time></trkpt><trkpt lat="44.3803539" lon="11.0398811"><ele>611.3333333333334</ele><time>2026-04-04T10:56:39.37Z</time></trkpt><trkpt lat="44.3802907" lon="11.0399081"><ele>612.6666666666667</ele><time>2026-04-04T10:56:42.371Z</time></trkpt><trkpt lat="44.3802208" lon="11.0399302"><ele>614.0</ele><time>2026-04-04T10:56:45.374Z</time></trkpt><trkpt lat="44.3801459" lon="11.0399412"><ele>615.3333333333334</ele><time>2026-04-04T10:56:48.36Z</time></trkpt><trkpt lat="44.3800623" lon="11.039954"><ele>616.6666666666666</ele><time>2026-04-04T10:56:51.376Z</time></trkpt><trkpt lat="44.3799859" lon="11.0399643"><ele>618.0</ele><time>2026-04-04T10:56:54.381Z</time></trkpt><trkpt lat="44.37991" lon="11.0399491"><ele>618.0</ele><time>2026-04-04T10:56:57.373Z</time></trkpt><trkpt lat="44.3798339" lon="11.0398892"><ele>618.0</ele><time>2026-04-04T10:57:00.368Z</time></trkpt><trkpt lat="44.3797815" lon="11.039802"><ele>618.0</ele><time>2026-04-04T10:57:03.37Z</time></trkpt><trkpt lat="44.3797873" lon="11.0396994"><ele>618.0</ele><time>2026-04-04T10:57:06.38Z</time></trkpt><trkpt lat="44.3798377" lon="11.0396281"><ele>618.0</ele><time>2026-04-04T10:57:09.373Z</time></trkpt><trkpt lat="44.3799085" lon="11.0395887"><ele>618.0</ele><time>2026-04-04T10:57:12.378Z</time></trkpt><trkpt lat="44.3799783" lon="11.0395502"><ele>618.0</ele><time>2026-04-04T10:57:16.371Z</time></trkpt><trkpt lat="44.3800419" lon="11.0395206"><ele>618.0</ele><time>2026-04-04T10:57:19.372Z</time></trkpt><trkpt lat="44.3801158" lon="11.0394788"><ele>618.0</ele><time>2026-04-04T10:57:23.369Z</time></trkpt><trkpt lat="44.3801809" lon="11.0394515"><ele>618.0</ele><time>2026-04-04T10:57:26.366Z</time></trkpt><trkpt lat="44.3802515" lon="11.039403"><ele>618.0</ele><time>2026-04-04T10:57:29.369Z</time></trkpt><trkpt lat="44.3803219" lon="11.0393419"><ele>618.0</ele><time>2026-04-04T10:57:32.376Z</time></trkpt><trkpt lat="44.3803843" lon="11.0392706"><ele>618.0000000000001</ele><time>2026-04-04T10:57:35.371Z</time></trkpt><trkpt lat="44.3804333" lon="11.0391965"><ele>618.0</ele><time>2026-04-04T10:57:38.36Z</time></trkpt><trkpt lat="44.3804682" lon="11.0391024"><ele>618.0</ele><time>2026-04-04T10:57:41.368Z</time></trkpt><trkpt lat="44.3804801" lon="11.0390147"><ele>618.0</ele><time>2026-04-04T10:57:43.377Z</time></trkpt><trkpt lat="44.3804652" lon="11.0389116"><ele>618.0</ele><time>2026-04-04T10:57:46.368Z</time></trkpt><trkpt lat="44.3804192" lon="11.0388329"><ele>618.0000000000001</ele><time>2026-04-04T10:57:49.372Z</time></trkpt><trkpt lat="44.3803547" lon="11.038762"><ele>618.0</ele><time>2026-04-04T10:57:52.373Z</time></trkpt><trkpt lat="44.3802878" lon="11.0387036"><ele>617.2857142857143</ele><time>2026-04-04T10:57:55.378Z</time></trkpt><trkpt lat="44.3802207" lon="11.038655"><ele>616.5714285714286</ele><time>2026-04-04T10:57:58.363Z</time></trkpt><trkpt lat="44.3801537" lon="11.0386292"><ele>615.8571428571429</ele><time>2026-04-04T10:58:01.369Z</time></trkpt><trkpt lat="44.3800794" lon="11.0386122"><ele>615.1428571428571</ele><time>2026-04-04T10:58:04.377Z</time></trkpt><trkpt lat="44.3800085" lon="11.0385996"><ele>614.4285714285714</ele><time>2026-04-04T10:58:06.366Z</time></trkpt><trkpt lat="44.3799344" lon="11.0385846"><ele>613.7142857142858</ele><time>2026-04-04T10:58:09.369Z</time></trkpt><trkpt lat="44.3798694" lon="11.0385745"><ele>613.0</ele><time>2026-04-04T10:58:11.364Z</time></trkpt><trkpt lat="44.3797957" lon="11.0385572"><ele>613.0</ele><time>2026-04-04T10:58:13.374Z</time></trkpt><trkpt lat="44.3797326" lon="11.0385403"><ele>613.0</ele><time>2026-04-04T10:58:15.366Z</time></trkpt><trkpt lat="44.3796753" lon="11.038499"><ele>613.0</ele><time>2026-04-04T10:58:17.363Z</time></trkpt><trkpt lat="44.3796174" lon="11.0384643"><ele>613.0</ele><time>2026-04-04T10:58:19.374Z</time></trkpt><trkpt lat="44.379529" lon="11.0384136"><ele>613.0</ele><time>2026-04-04T10:58:23.364Z</time></trkpt><trkpt lat="44.3794625" lon="11.0383706"><ele>613.0</ele><time>2026-04-04T10:58:25.369Z</time></trkpt><trkpt lat="44.3793839" lon="11.0383341"><ele>613.0</ele><time>2026-04-04T10:58:27.368Z</time></trkpt><trkpt lat="44.3792958" lon="11.0383042"><ele>613.5</ele><time>2026-04-04T10:58:29.359Z</time></trkpt><trkpt lat="44.3792054" lon="11.0382457"><ele>614.0</ele><time>2026-04-04T10:58:31.379Z</time></trkpt><trkpt lat="44.3791376" lon="11.038175"><ele>614.5</ele><time>2026-04-04T10:58:33.371Z</time></trkpt><trkpt lat="44.3790917" lon="11.0380908"><ele>615.0</ele><time>2026-04-04T10:58:35.362Z</time></trkpt><trkpt lat="44.3790496" lon="11.037988"><ele>615.5</ele><time>2026-04-04T10:58:38.36Z</time></trkpt><trkpt lat="44.3790268" lon="11.0378761"><ele>616.0</ele><time>2026-04-04T10:58:41.371Z</time></trkpt><trkpt lat="44.3789928" lon="11.0377638"><ele>616.0</ele><time>2026-04-04T10:58:44.376Z</time></trkpt><trkpt lat="44.3789726" lon="11.0376494"><ele>616.0</ele><time>2026-04-04T10:58:46.369Z</time></trkpt><trkpt lat="44.3789533" lon="11.0375427"><ele>616.0</ele><time>2026-04-04T10:58:48.367Z</time></trkpt><trkpt lat="44.3789335" lon="11.0374246"><ele>616.0</ele><time>2026-04-04T10:58:51.366Z</time></trkpt><trkpt lat="44.3789062" lon="11.0373003"><ele>616.0</ele><time>2026-04-04T10:58:54.37Z</time></trkpt><trkpt lat="44.3788851" lon="11.0371993"><ele>616.0</ele><time>2026-04-04T10:58:56.374Z</time></trkpt><trkpt lat="44.3788643" lon="11.0370942"><ele>616.8333333333334</ele><time>2026-04-04T10:58:59.371Z</time></trkpt><trkpt lat="44.3788185" lon="11.0369664"><ele>617.6666666666667</ele><time>2026-04-04T10:59:02.371Z</time></trkpt><trkpt lat="44.3787778" lon="11.0368978"><ele>618.5</ele><time>2026-04-04T10:59:04.367Z</time></trkpt><trkpt lat="44.3787067" lon="11.0368457"><ele>619.3333333333334</ele><time>2026-04-04T10:59:07.367Z</time></trkpt><trkpt lat="44.3786335" lon="11.0368293"><ele>620.1666666666666</ele><time>2026-04-04T10:59:09.375Z</time></trkpt><trkpt lat="44.378564" lon="11.0368258"><ele>621.0</ele><time>2026-04-04T10:59:11.371Z</time></trkpt><trkpt lat="44.3784779" lon="11.0368801"><ele>621.0</ele><time>2026-04-04T10:59:14.367Z</time></trkpt><trkpt lat="44.3783989" lon="11.0369354"><ele>621.0</ele><time>2026-04-04T10:59:17.363Z</time></trkpt><trkpt lat="44.3783225" lon="11.0369898"><ele>621.0</ele><time>2026-04-04T10:59:20.367Z</time></trkpt><trkpt lat="44.3782465" lon="11.0370585"><ele>621.0</ele><time>2026-04-04T10:59:23.366Z</time></trkpt><trkpt lat="44.3781759" lon="11.0371176"><ele>621.0</ele><time>2026-04-04T10:59:26.365Z</time></trkpt><trkpt lat="44.3781077" lon="11.0371691"><ele>621.0</ele><time>2026-04-04T10:59:29.372Z</time></trkpt><trkpt lat="44.3780182" lon="11.0371982"><ele>622.1428571428571</ele><time>2026-04-04T10:59:32.371Z</time></trkpt><trkpt lat="44.3779547" lon="11.0372059"><ele>623.2857142857142</ele><time>2026-04-04T10:59:34.364Z</time></trkpt><trkpt lat="44.3778828" lon="11.0371924"><ele>624.4285714285713</ele><time>2026-04-04T10:59:36.354Z</time></trkpt><trkpt lat="44.3778173" lon="11.0371672"><ele>625.5714285714286</ele><time>2026-04-04T10:59:38.364Z</time></trkpt><trkpt lat="44.3777443" lon="11.0371181"><ele>626.7142857142858</ele><time>2026-04-04T10:59:41.374Z</time></trkpt><trkpt lat="44.377674" lon="11.0370668"><ele>627.8571428571428</ele><time>2026-04-04T10:59:44.378Z</time></trkpt><trkpt lat="44.3776028" lon="11.0370191"><ele>629.0</ele><time>2026-04-04T10:59:47.36Z</time></trkpt><trkpt lat="44.3775357" lon="11.0369754"><ele>629.0</ele><time>2026-04-04T10:59:50.363Z</time></trkpt><trkpt lat="44.3774555" lon="11.0369245"><ele>629.0</ele><time>2026-04-04T10:59:53.363Z</time></trkpt><trkpt lat="44.3773883" lon="11.0368866"><ele>629.0</ele><time>2026-04-04T10:59:55.374Z</time></trkpt><trkpt lat="44.3773305" lon="11.0368481"><ele>629.0</ele><time>2026-04-04T10:59:57.365Z</time></trkpt><trkpt lat="44.3772669" lon="11.0368054"><ele>629.0</ele><time>2026-04-04T10:59:59.369Z</time></trkpt><trkpt lat="44.3772113" lon="11.0367627"><ele>629.0</ele><time>2026-04-04T11:00:01.374Z</time></trkpt><trkpt lat="44.3771383" lon="11.0366947"><ele>629.0</ele><time>2026-04-04T11:00:04.362Z</time></trkpt><trkpt lat="44.3770585" lon="11.0366264"><ele>631.5</ele><time>2026-04-04T11:00:07.376Z</time></trkpt><trkpt lat="44.376999" lon="11.0365383"><ele>634.0</ele><time>2026-04-04T11:00:10.367Z</time></trkpt><trkpt lat="44.3769574" lon="11.0364251"><ele>636.5</ele><time>2026-04-04T11:00:13.359Z</time></trkpt><trkpt lat="44.3769369" lon="11.0363091"><ele>639.0</ele><time>2026-04-04T11:00:16.37Z</time></trkpt><trkpt lat="44.376942" lon="11.0361888"><ele>641.5</ele><time>2026-04-04T11:00:19.368Z</time></trkpt><trkpt lat="44.3769757" lon="11.0360856"><ele>644.0</ele><time>2026-04-04T11:00:22.358Z</time></trkpt><trkpt lat="44.3770248" lon="11.0359837"><ele>644.0</ele><time>2026-04-04T11:00:25.366Z</time></trkpt><trkpt lat="44.3770719" lon="11.035883"><ele>644.0</ele><time>2026-04-04T11:00:28.374Z</time></trkpt><trkpt lat="44.3771018" lon="11.0357752"><ele>644.0</ele><time>2026-04-04T11:00:31.378Z</time></trkpt><trkpt lat="44.3771025" lon="11.035663"><ele>644.0</ele><time>2026-04-04T11:00:34.372Z</time></trkpt><trkpt lat="44.3771091" lon="11.0355474"><ele>644.0</ele><time>2026-04-04T11:00:37.365Z</time></trkpt><trkpt lat="44.3771059" lon="11.0354579"><ele>644.0</ele><time>2026-04-04T11:00:39.373Z</time></trkpt><trkpt lat="44.3770946" lon="11.0353295"><ele>643.8333333333333</ele><time>2026-04-04T11:00:42.37Z</time></trkpt><trkpt lat="44.3770624" lon="11.0352261"><ele>643.6666666666666</ele><time>2026-04-04T11:00:45.377Z</time></trkpt><trkpt lat="44.3770066" lon="11.0351625"><ele>643.5</ele><time>2026-04-04T11:00:48.374Z</time></trkpt><trkpt lat="44.3769383" lon="11.0351186"><ele>643.3333333333334</ele><time>2026-04-04T11:00:51.373Z</time></trkpt><trkpt lat="44.3768546" lon="11.0350972"><ele>643.1666666666667</ele><time>2026-04-04T11:00:54.368Z</time></trkpt><trkpt lat="44.376791" lon="11.0350967"><ele>643.0</ele><time>2026-04-04T11:00:56.362Z</time></trkpt><trkpt lat="44.3767003" lon="11.0350726"><ele>643.0</ele><time>2026-04-04T11:00:59.374Z</time></trkpt><trkpt lat="44.3766242" lon="11.0350358"><ele>643.0</ele><time>2026-04-04T11:01:02.376Z</time></trkpt><trkpt lat="44.3765608" lon="11.0349952"><ele>643.0</ele><time>2026-04-04T11:01:04.368Z</time></trkpt><trkpt lat="44.3765184" lon="11.0349222"><ele>643.0</ele><time>2026-04-04T11:01:06.373Z</time></trkpt><trkpt lat="44.3764797" lon="11.0348115"><ele>643.0</ele><time>2026-04-04T11:01:09.361Z</time></trkpt><trkpt lat="44.3764617" lon="11.0347007"><ele>643.0</ele><time>2026-04-04T11:01:12.366Z</time></trkpt><trkpt lat="44.3764483" lon="11.0345736"><ele>643.3333333333334</ele><time>2026-04-04T11:01:15.374Z</time></trkpt><trkpt lat="44.3764424" lon="11.0344625"><ele>643.6666666666667</ele><time>2026-04-04T11:01:18.375Z</time></trkpt><trkpt lat="44.3764409" lon="11.03434"><ele>644.0</ele><time>2026-04-04T11:01:21.366Z</time></trkpt><trkpt lat="44.3764376" lon="11.0342407"><ele>644.3333333333334</ele><time>2026-04-04T11:01:24.398Z</time></trkpt><trkpt lat="44.3764312" lon="11.0341496"><ele>644.6666666666666</ele><time>2026-04-04T11:01:26.372Z</time></trkpt><trkpt lat="44.3764245" lon="11.0340239"><ele>645.0</ele><time>2026-04-04T11:01:29.379Z</time></trkpt><trkpt lat="44.3763916" lon="11.0339172"><ele>645.1666666666666</ele><time>2026-04-04T11:01:32.376Z</time></trkpt><trkpt lat="44.3763663" lon="11.0338322"><ele>645.3333333333334</ele><time>2026-04-04T11:01:34.368Z</time></trkpt><trkpt lat="44.3763293" lon="11.0337346"><ele>645.5</ele><time>2026-04-04T11:01:37.368Z</time></trkpt><trkpt lat="44.3762986" lon="11.0336363"><ele>645.6666666666667</ele><time>2026-04-04T11:01:40.383Z</time></trkpt><trkpt lat="44.3762982" lon="11.0335283"><ele>645.8333333333334</ele><time>2026-04-04T11:01:43.372Z</time></trkpt><trkpt lat="44.3763074" lon="11.0334"><ele>646.0</ele><time>2026-04-04T11:01:46.364Z</time></trkpt><trkpt lat="44.3763249" lon="11.0333038"><ele>648.1428571428572</ele><time>2026-04-04T11:01:48.377Z</time></trkpt><trkpt lat="44.3763355" lon="11.0332127"><ele>650.2857142857143</ele><time>2026-04-04T11:01:50.38Z</time></trkpt><trkpt lat="44.3763415" lon="11.0331131"><ele>652.4285714285714</ele><time>2026-04-04T11:01:52.376Z</time></trkpt><trkpt lat="44.3763448" lon="11.0330225"><ele>654.5714285714287</ele><time>2026-04-04T11:01:54.372Z</time></trkpt><trkpt lat="44.376331" lon="11.032918"><ele>656.7142857142858</ele><time>2026-04-04T11:01:56.37Z</time></trkpt><trkpt lat="44.376305" lon="11.032817"><ele>658.8571428571429</ele><time>2026-04-04T11:01:58.372Z</time></trkpt><trkpt lat="44.3762769" lon="11.0327315"><ele>661.0</ele><time>2026-04-04T11:02:00.384Z</time></trkpt><trkpt lat="44.3762414" lon="11.032654"><ele>661.0</ele><time>2026-04-04T11:02:02.366Z</time></trkpt><trkpt lat="44.3761995" lon="11.0325811"><ele>661.0</ele><time>2026-04-04T11:02:04.363Z</time></trkpt><trkpt lat="44.3761417" lon="11.0324868"><ele>661.0</ele><time>2026-04-04T11:02:07.359Z</time></trkpt><trkpt lat="44.3760815" lon="11.0324065"><ele>661.0</ele><time>2026-04-04T11:02:10.356Z</time></trkpt><trkpt lat="44.3760056" lon="11.0323391"><ele>661.0</ele><time>2026-04-04T11:02:13.377Z</time></trkpt><trkpt lat="44.37595" lon="11.0322965"><ele>661.0</ele><time>2026-04-04T11:02:16.371Z</time></trkpt><trkpt lat="44.3758742" lon="11.0322798"><ele>659.5714285714286</ele><time>2026-04-04T11:02:21.376Z</time></trkpt><trkpt lat="44.3758113" lon="11.032263"><ele>658.1428571428571</ele><time>2026-04-04T11:02:23.375Z</time></trkpt><trkpt lat="44.3757461" lon="11.0322439"><ele>656.7142857142858</ele><time>2026-04-04T11:02:25.366Z</time></trkpt><trkpt lat="44.3756611" lon="11.0322163"><ele>655.2857142857142</ele><time>2026-04-04T11:02:28.367Z</time></trkpt><trkpt lat="44.3755992" lon="11.0321783"><ele>653.8571428571429</ele><time>2026-04-04T11:02:30.377Z</time></trkpt><trkpt lat="44.3755427" lon="11.0321382"><ele>652.4285714285714</ele><time>2026-04-04T11:02:32.365Z</time></trkpt><trkpt lat="44.3754712" lon="11.0320765"><ele>651.0</ele><time>2026-04-04T11:02:34.367Z</time></trkpt><trkpt lat="44.3754085" lon="11.0320159"><ele>653.3333333333334</ele><time>2026-04-04T11:02:36.363Z</time></trkpt><trkpt lat="44.3753442" lon="11.0319247"><ele>655.6666666666666</ele><time>2026-04-04T11:02:39.365Z</time></trkpt><trkpt lat="44.3753061" lon="11.0318178"><ele>658.0</ele><time>2026-04-04T11:02:42.357Z</time></trkpt><trkpt lat="44.3752907" lon="11.0317021"><ele>660.3333333333333</ele><time>2026-04-04T11:02:45.363Z</time></trkpt><trkpt lat="44.3752933" lon="11.031607"><ele>662.6666666666666</ele><time>2026-04-04T11:02:47.37Z</time></trkpt><trkpt lat="44.3752931" lon="11.0315128"><ele>665.0</ele><time>2026-04-04T11:02:49.38Z</time></trkpt><trkpt lat="44.3752883" lon="11.0314074"><ele>665.0</ele><time>2026-04-04T11:02:51.385Z</time></trkpt><trkpt lat="44.3752599" lon="11.031317"><ele>665.0</ele><time>2026-04-04T11:02:53.367Z</time></trkpt><trkpt lat="44.3751898" lon="11.0312455"><ele>665.0</ele><time>2026-04-04T11:02:56.368Z</time></trkpt><trkpt lat="44.3751214" lon="11.0312197"><ele>665.0</ele><time>2026-04-04T11:02:59.365Z</time></trkpt><trkpt lat="44.3750281" lon="11.0311751"><ele>665.0</ele><time>2026-04-04T11:03:03.361Z</time></trkpt><trkpt lat="44.374936" lon="11.0311331"><ele>665.0</ele><time>2026-04-04T11:03:05.365Z</time></trkpt><trkpt lat="44.3748617" lon="11.0310671"><ele>665.0</ele><time>2026-04-04T11:03:07.374Z</time></trkpt><trkpt lat="44.374808" lon="11.0309825"><ele>665.0</ele><time>2026-04-04T11:03:09.367Z</time></trkpt><trkpt lat="44.3747779" lon="11.0308885"><ele>665.0</ele><time>2026-04-04T11:03:11.358Z</time></trkpt><trkpt lat="44.3747659" lon="11.0307908"><ele>665.0</ele><time>2026-04-04T11:03:13.374Z</time></trkpt><trkpt lat="44.374757" lon="11.0306657"><ele>665.0</ele><time>2026-04-04T11:03:16.368Z</time></trkpt><trkpt lat="44.3747488" lon="11.030521"><ele>665.0</ele><time>2026-04-04T11:03:19.364Z</time></trkpt><trkpt lat="44.3747513" lon="11.0303927"><ele>665.2857142857143</ele><time>2026-04-04T11:03:21.369Z</time></trkpt><trkpt lat="44.3747546" lon="11.0302825"><ele>665.5714285714286</ele><time>2026-04-04T11:03:23.365Z</time></trkpt><trkpt lat="44.3747543" lon="11.0301891"><ele>665.8571428571429</ele><time>2026-04-04T11:03:25.369Z</time></trkpt><trkpt lat="44.374751" lon="11.0300647"><ele>666.1428571428571</ele><time>2026-04-04T11:03:27.373Z</time></trkpt><trkpt lat="44.3747436" lon="11.0299538"><ele>666.4285714285714</ele><time>2026-04-04T11:03:29.37Z</time></trkpt><trkpt lat="44.3747368" lon="11.0298549"><ele>666.7142857142858</ele><time>2026-04-04T11:03:31.369Z</time></trkpt><trkpt lat="44.3747282" lon="11.0297659"><ele>667.0</ele><time>2026-04-04T11:03:33.369Z</time></trkpt><trkpt lat="44.3747204" lon="11.0296686"><ele>667.0</ele><time>2026-04-04T11:03:35.366Z</time></trkpt><trkpt lat="44.3747194" lon="11.0295369"><ele>667.0</ele><time>2026-04-04T11:03:38.366Z</time></trkpt><trkpt lat="44.3747273" lon="11.0294357"><ele>667.0</ele><time>2026-04-04T11:03:40.37Z</time></trkpt><trkpt lat="44.3747342" lon="11.0293385"><ele>667.0</ele><time>2026-04-04T11:03:42.373Z</time></trkpt><trkpt lat="44.3747425" lon="11.0292027"><ele>667.0</ele><time>2026-04-04T11:03:45.367Z</time></trkpt><trkpt lat="44.3747523" lon="11.029093"><ele>667.0</ele><time>2026-04-04T11:03:47.366Z</time></trkpt><trkpt lat="44.3747689" lon="11.0289885"><ele>668.0000000000001</ele><time>2026-04-04T11:03:49.367Z</time></trkpt><trkpt lat="44.3747921" lon="11.0288837"><ele>669.0</ele><time>2026-04-04T11:03:51.369Z</time></trkpt><trkpt lat="44.3748141" lon="11.0287926"><ele>670.0</ele><time>2026-04-04T11:03:53.369Z</time></trkpt><trkpt lat="44.3748279" lon="11.0287029"><ele>671.0</ele><time>2026-04-04T11:03:55.367Z</time></trkpt><trkpt lat="44.3748448" lon="11.0286009"><ele>672.0</ele><time>2026-04-04T11:03:57.377Z</time></trkpt><trkpt lat="44.3748727" lon="11.0284984"><ele>673.0000000000001</ele><time>2026-04-04T11:03:59.371Z</time></trkpt><trkpt lat="44.3749035" lon="11.0283975"><ele>674.0</ele><time>2026-04-04T11:04:01.373Z</time></trkpt><trkpt lat="44.3749456" lon="11.0282839"><ele>675.6666666666666</ele><time>2026-04-04T11:04:03.368Z</time></trkpt><trkpt lat="44.3749949" lon="11.0281829"><ele>677.3333333333333</ele><time>2026-04-04T11:04:05.373Z</time></trkpt><trkpt lat="44.3750451" lon="11.0280724"><ele>679.0</ele><time>2026-04-04T11:04:07.369Z</time></trkpt><trkpt lat="44.3750969" lon="11.0279749"><ele>680.6666666666666</ele><time>2026-04-04T11:04:09.381Z</time></trkpt><trkpt lat="44.3751504" lon="11.0278862"><ele>682.3333333333334</ele><time>2026-04-04T11:04:11.367Z</time></trkpt><trkpt lat="44.3752006" lon="11.0278054"><ele>684.0</ele><time>2026-04-04T11:04:13.372Z</time></trkpt><trkpt lat="44.3752415" lon="11.0277197"><ele>683.9999999999999</ele><time>2026-04-04T11:04:15.363Z</time></trkpt><trkpt lat="44.3752782" lon="11.0276323"><ele>684.0</ele><time>2026-04-04T11:04:17.368Z</time></trkpt><trkpt lat="44.3753134" lon="11.0275439"><ele>684.0</ele><time>2026-04-04T11:04:19.371Z</time></trkpt><trkpt lat="44.3753398" lon="11.0274568"><ele>684.0</ele><time>2026-04-04T11:04:21.367Z</time></trkpt><trkpt lat="44.3753664" lon="11.0273633"><ele>684.0</ele><time>2026-04-04T11:04:23.38Z</time></trkpt><trkpt lat="44.375398" lon="11.0272734"><ele>683.9999999999999</ele><time>2026-04-04T11:04:25.365Z</time></trkpt><trkpt lat="44.3754307" lon="11.0271805"><ele>684.0</ele><time>2026-04-04T11:04:27.368Z</time></trkpt><trkpt lat="44.375457" lon="11.0270866"><ele>685.3333333333334</ele><time>2026-04-04T11:04:29.374Z</time></trkpt><trkpt lat="44.3754879" lon="11.0269764"><ele>686.6666666666666</ele><time>2026-04-04T11:04:31.369Z</time></trkpt><trkpt lat="44.3755126" lon="11.0268789"><ele>688.0</ele><time>2026-04-04T11:04:33.372Z</time></trkpt><trkpt lat="44.375535" lon="11.0267926"><ele>689.3333333333333</ele><time>2026-04-04T11:04:35.372Z</time></trkpt><trkpt lat="44.3755566" lon="11.0266658"><ele>690.6666666666666</ele><time>2026-04-04T11:04:38.372Z</time></trkpt><trkpt lat="44.3755423" lon="11.0265628"><ele>692.0</ele><time>2026-04-04T11:04:40.37Z</time></trkpt><trkpt lat="44.3755144" lon="11.0264593"><ele>692.0</ele><time>2026-04-04T11:04:42.37Z</time></trkpt><trkpt lat="44.375476" lon="11.0263629"><ele>692.0</ele><time>2026-04-04T11:04:44.361Z</time></trkpt><trkpt lat="44.3754386" lon="11.0262557"><ele>692.0</ele><time>2026-04-04T11:04:46.379Z</time></trkpt><trkpt lat="44.3754082" lon="11.0261673"><ele>692.0</ele><time>2026-04-04T11:04:48.365Z</time></trkpt><trkpt lat="44.3753889" lon="11.0260641"><ele>692.0</ele><time>2026-04-04T11:04:50.369Z</time></trkpt><trkpt lat="44.3753791" lon="11.025955"><ele>692.0</ele><time>2026-04-04T11:04:52.374Z</time></trkpt><trkpt lat="44.3753897" lon="11.025846"><ele>693.8333333333333</ele><time>2026-04-04T11:04:54.386Z</time></trkpt><trkpt lat="44.3754222" lon="11.025723"><ele>695.6666666666666</ele><time>2026-04-04T11:04:56.368Z</time></trkpt><trkpt lat="44.3754761" lon="11.0256127"><ele>697.5</ele><time>2026-04-04T11:04:58.366Z</time></trkpt><trkpt lat="44.3755263" lon="11.0255184"><ele>699.3333333333334</ele><time>2026-04-04T11:05:00.365Z</time></trkpt><trkpt lat="44.3755747" lon="11.0254261"><ele>701.1666666666667</ele><time>2026-04-04T11:05:02.365Z</time></trkpt><trkpt lat="44.3756087" lon="11.0253455"><ele>703.0</ele><time>2026-04-04T11:05:04.372Z</time></trkpt><trkpt lat="44.3756398" lon="11.0252505"><ele>701.3333333333334</ele><time>2026-04-04T11:05:06.37Z</time></trkpt><trkpt lat="44.3756683" lon="11.0251429"><ele>699.6666666666667</ele><time>2026-04-04T11:05:08.352Z</time></trkpt><trkpt lat="44.3757127" lon="11.0250126"><ele>698.0</ele><time>2026-04-04T11:05:10.375Z</time></trkpt><trkpt lat="44.3757599" lon="11.0249068"><ele>696.3333333333334</ele><time>2026-04-04T11:05:12.377Z</time></trkpt><trkpt lat="44.3758023" lon="11.0248244"><ele>694.6666666666666</ele><time>2026-04-04T11:05:14.363Z</time></trkpt><trkpt lat="44.3758472" lon="11.0247379"><ele>693.0</ele><time>2026-04-04T11:05:16.37Z</time></trkpt><trkpt lat="44.3758924" lon="11.0246409"><ele>693.0</ele><time>2026-04-04T11:05:18.377Z</time></trkpt><trkpt lat="44.3759271" lon="11.0245623"><ele>693.0</ele><time>2026-04-04T11:05:20.369Z</time></trkpt><trkpt lat="44.3759575" lon="11.0244757"><ele>693.0</ele><time>2026-04-04T11:05:22.375Z</time></trkpt><trkpt lat="44.3759887" lon="11.0243674"><ele>693.0</ele><time>2026-04-04T11:05:24.374Z</time></trkpt><trkpt lat="44.3760143" lon="11.0242462"><ele>693.0</ele><time>2026-04-04T11:05:26.373Z</time></trkpt><trkpt lat="44.3760391" lon="11.024138"><ele>693.0</ele><time>2026-04-04T11:05:28.367Z</time></trkpt><trkpt lat="44.3760668" lon="11.024036"><ele>694.6666666666666</ele><time>2026-04-04T11:05:30.377Z</time></trkpt><trkpt lat="44.3760966" lon="11.0239366"><ele>696.3333333333334</ele><time>2026-04-04T11:05:32.381Z</time></trkpt><trkpt lat="44.3761268" lon="11.0238151"><ele>698.0</ele><time>2026-04-04T11:05:34.373Z</time></trkpt><trkpt lat="44.3761612" lon="11.0236884"><ele>699.6666666666667</ele><time>2026-04-04T11:05:36.38Z</time></trkpt><trkpt lat="44.3761901" lon="11.0235859"><ele>701.3333333333334</ele><time>2026-04-04T11:05:38.368Z</time></trkpt><trkpt lat="44.3762191" lon="11.0234799"><ele>703.0</ele><time>2026-04-04T11:05:40.372Z</time></trkpt><trkpt lat="44.3762536" lon="11.0233743"><ele>703.6666666666667</ele><time>2026-04-04T11:05:42.369Z</time></trkpt><trkpt lat="44.3762919" lon="11.0232732"><ele>704.3333333333334</ele><time>2026-04-04T11:05:44.357Z</time></trkpt><trkpt lat="44.3763424" lon="11.0231949"><ele>705.0</ele><time>2026-04-04T11:05:46.373Z</time></trkpt><trkpt lat="44.3763988" lon="11.0231465"><ele>705.6666666666666</ele><time>2026-04-04T11:05:48.377Z</time></trkpt><trkpt lat="44.3764794" lon="11.0231113"><ele>706.3333333333333</ele><time>2026-04-04T11:05:51.372Z</time></trkpt><trkpt lat="44.3765548" lon="11.023101"><ele>707.0</ele><time>2026-04-04T11:05:54.369Z</time></trkpt><trkpt lat="44.3766224" lon="11.023088"><ele>704.0</ele><time>2026-04-04T11:05:56.37Z</time></trkpt><trkpt lat="44.3766987" lon="11.0230468"><ele>701.0</ele><time>2026-04-04T11:05:58.37Z</time></trkpt><trkpt lat="44.3767573" lon="11.0229747"><ele>698.0</ele><time>2026-04-04T11:06:00.372Z</time></trkpt><trkpt lat="44.3767851" lon="11.0228436"><ele>695.0</ele><time>2026-04-04T11:06:03.365Z</time></trkpt><trkpt lat="44.3767671" lon="11.0227421"><ele>692.0</ele><time>2026-04-04T11:06:05.353Z</time></trkpt><trkpt lat="44.3767186" lon="11.0226207"><ele>689.0</ele><time>2026-04-04T11:06:08.381Z</time></trkpt><trkpt lat="44.3766799" lon="11.0225263"><ele>688.3333333333333</ele><time>2026-04-04T11:06:10.369Z</time></trkpt><trkpt lat="44.3766479" lon="11.0224301"><ele>687.6666666666666</ele><time>2026-04-04T11:06:12.374Z</time></trkpt><trkpt lat="44.3766185" lon="11.0223158"><ele>687.0</ele><time>2026-04-04T11:06:14.371Z</time></trkpt><trkpt lat="44.3765838" lon="11.0221959"><ele>686.3333333333334</ele><time>2026-04-04T11:06:16.369Z</time></trkpt><trkpt lat="44.3765491" lon="11.0220693"><ele>685.6666666666667</ele><time>2026-04-04T11:06:18.365Z</time></trkpt><trkpt lat="44.3765198" lon="11.0219445"><ele>685.0</ele><time>2026-04-04T11:06:20.376Z</time></trkpt><trkpt lat="44.3764937" lon="11.021826"><ele>685.0</ele><time>2026-04-04T11:06:22.368Z</time></trkpt><trkpt lat="44.3764652" lon="11.0217051"><ele>685.0</ele><time>2026-04-04T11:06:24.373Z</time></trkpt><trkpt lat="44.3764381" lon="11.0215886"><ele>685.0</ele><time>2026-04-04T11:06:26.368Z</time></trkpt><trkpt lat="44.3764209" lon="11.0214791"><ele>685.0</ele><time>2026-04-04T11:06:28.375Z</time></trkpt><trkpt lat="44.3764095" lon="11.0213639"><ele>685.0</ele><time>2026-04-04T11:06:30.38Z</time></trkpt><trkpt lat="44.3763975" lon="11.0212514"><ele>685.0</ele><time>2026-04-04T11:06:32.383Z</time></trkpt><trkpt lat="44.3763859" lon="11.0211451"><ele>685.3333333333334</ele><time>2026-04-04T11:06:34.37Z</time></trkpt><trkpt lat="44.376372" lon="11.0210255"><ele>685.6666666666667</ele><time>2026-04-04T11:06:36.371Z</time></trkpt><trkpt lat="44.3763532" lon="11.0209082"><ele>686.0</ele><time>2026-04-04T11:06:38.373Z</time></trkpt><trkpt lat="44.3763319" lon="11.0208039"><ele>686.3333333333334</ele><time>2026-04-04T11:06:40.375Z</time></trkpt><trkpt lat="44.3763036" lon="11.0206987"><ele>686.6666666666666</ele><time>2026-04-04T11:06:42.372Z</time></trkpt><trkpt lat="44.3762643" lon="11.0205771"><ele>687.0</ele><time>2026-04-04T11:06:44.378Z</time></trkpt><trkpt lat="44.3762268" lon="11.0204613"><ele>689.5</ele><time>2026-04-04T11:06:46.373Z</time></trkpt><trkpt lat="44.3761973" lon="11.0203524"><ele>692.0</ele><time>2026-04-04T11:06:48.371Z</time></trkpt><trkpt lat="44.3761754" lon="11.0202396"><ele>694.5</ele><time>2026-04-04T11:06:50.372Z</time></trkpt><trkpt lat="44.3761597" lon="11.0201332"><ele>697.0</ele><time>2026-04-04T11:06:52.371Z</time></trkpt><trkpt lat="44.37614" lon="11.0200338"><ele>699.5</ele><time>2026-04-04T11:06:54.364Z</time></trkpt><trkpt lat="44.3761258" lon="11.019934"><ele>702.0</ele><time>2026-04-04T11:06:56.363Z</time></trkpt><trkpt lat="44.3761117" lon="11.0198099"><ele>702.0</ele><time>2026-04-04T11:06:58.37Z</time></trkpt><trkpt lat="44.3760989" lon="11.0197038"><ele>702.0</ele><time>2026-04-04T11:07:00.369Z</time></trkpt><trkpt lat="44.3760912" lon="11.0195766"><ele>702.0</ele><time>2026-04-04T11:07:02.366Z</time></trkpt><trkpt lat="44.3760765" lon="11.0194383"><ele>702.0</ele><time>2026-04-04T11:07:04.376Z</time></trkpt><trkpt lat="44.3760554" lon="11.0192925"><ele>702.0</ele><time>2026-04-04T11:07:06.37Z</time></trkpt><trkpt lat="44.3760203" lon="11.0191378"><ele>700.8333333333334</ele><time>2026-04-04T11:07:08.379Z</time></trkpt><trkpt lat="44.3759829" lon="11.0189876"><ele>699.6666666666666</ele><time>2026-04-04T11:07:10.376Z</time></trkpt><trkpt lat="44.3759482" lon="11.0188539"><ele>698.5</ele><time>2026-04-04T11:07:12.367Z</time></trkpt><trkpt lat="44.375916" lon="11.0187317"><ele>697.3333333333333</ele><time>2026-04-04T11:07:14.371Z</time></trkpt><trkpt lat="44.3758803" lon="11.0186439"><ele>696.1666666666666</ele><time>2026-04-04T11:07:16.376Z</time></trkpt><trkpt lat="44.3758469" lon="11.0185688"><ele>695.0</ele><time>2026-04-04T11:07:18.379Z</time></trkpt><trkpt lat="44.3757944" lon="11.0184604"><ele>695.0</ele><time>2026-04-04T11:07:20.37Z</time></trkpt><trkpt lat="44.375745" lon="11.0183616"><ele>695.0</ele><time>2026-04-04T11:07:22.366Z</time></trkpt><trkpt lat="44.3756847" lon="11.0182679"><ele>695.0</ele><time>2026-04-04T11:07:24.376Z</time></trkpt><trkpt lat="44.3756266" lon="11.0181918"><ele>695.0</ele><time>2026-04-04T11:07:26.384Z</time></trkpt><trkpt lat="44.3755735" lon="11.0181123"><ele>695.0</ele><time>2026-04-04T11:07:28.376Z</time></trkpt><trkpt lat="44.375515" lon="11.0180281"><ele>695.0</ele><time>2026-04-04T11:07:30.373Z</time></trkpt><trkpt lat="44.3754659" lon="11.0179567"><ele>696.1666666666666</ele><time>2026-04-04T11:07:32.375Z</time></trkpt><trkpt lat="44.3754159" lon="11.017875"><ele>697.3333333333333</ele><time>2026-04-04T11:07:34.375Z</time></trkpt><trkpt lat="44.3753551" lon="11.0177814"><ele>698.5</ele><time>2026-04-04T11:07:36.363Z</time></trkpt><trkpt lat="44.3752992" lon="11.0176877"><ele>699.6666666666666</ele><time>2026-04-04T11:07:38.369Z</time></trkpt><trkpt lat="44.3752416" lon="11.0175765"><ele>700.8333333333334</ele><time>2026-04-04T11:07:40.365Z</time></trkpt><trkpt lat="44.3751955" lon="11.0174792"><ele>702.0</ele><time>2026-04-04T11:07:42.38Z</time></trkpt><trkpt lat="44.3751515" lon="11.0173798"><ele>702.0</ele><time>2026-04-04T11:07:44.368Z</time></trkpt><trkpt lat="44.3751205" lon="11.0172698"><ele>702.0</ele><time>2026-04-04T11:07:46.368Z</time></trkpt><trkpt lat="44.3750974" lon="11.0171529"><ele>702.0</ele><time>2026-04-04T11:07:48.368Z</time></trkpt><trkpt lat="44.3750692" lon="11.0170311"><ele>702.0</ele><time>2026-04-04T11:07:50.37Z</time></trkpt><trkpt lat="44.3750431" lon="11.016915"><ele>702.0</ele><time>2026-04-04T11:07:52.384Z</time></trkpt><trkpt lat="44.3750219" lon="11.0167969"><ele>702.0</ele><time>2026-04-04T11:07:54.375Z</time></trkpt><trkpt lat="44.3750002" lon="11.0166913"><ele>702.1666666666666</ele><time>2026-04-04T11:07:56.373Z</time></trkpt><trkpt lat="44.3749772" lon="11.0165823"><ele>702.3333333333334</ele><time>2026-04-04T11:07:58.378Z</time></trkpt><trkpt lat="44.3749599" lon="11.0164726"><ele>702.5</ele><time>2026-04-04T11:08:00.381Z</time></trkpt><trkpt lat="44.374955" lon="11.0163548"><ele>702.6666666666667</ele><time>2026-04-04T11:08:02.365Z</time></trkpt><trkpt lat="44.3749517" lon="11.0162377"><ele>702.8333333333334</ele><time>2026-04-04T11:08:04.372Z</time></trkpt><trkpt lat="44.374954" lon="11.016122"><ele>703.0</ele><time>2026-04-04T11:08:06.364Z</time></trkpt><trkpt lat="44.3749594" lon="11.0160132"><ele>703.0</ele><time>2026-04-04T11:08:08.377Z</time></trkpt><trkpt lat="44.3749729" lon="11.0159104"><ele>703.0</ele><time>2026-04-04T11:08:10.372Z</time></trkpt><trkpt lat="44.3749843" lon="11.0157978"><ele>703.0</ele><time>2026-04-04T11:08:12.369Z</time></trkpt><trkpt lat="44.3749943" lon="11.0156833"><ele>703.0</ele><time>2026-04-04T11:08:14.373Z</time></trkpt><trkpt lat="44.3750069" lon="11.0155824"><ele>703.0</ele><time>2026-04-04T11:08:16.38Z</time></trkpt><trkpt lat="44.3750244" lon="11.0154613"><ele>703.0</ele><time>2026-04-04T11:08:18.375Z</time></trkpt><trkpt lat="44.3750431" lon="11.0153488"><ele>703.8333333333334</ele><time>2026-04-04T11:08:20.37Z</time></trkpt><trkpt lat="44.3750605" lon="11.0152408"><ele>704.6666666666667</ele><time>2026-04-04T11:08:22.362Z</time></trkpt><trkpt lat="44.3750834" lon="11.0151283"><ele>705.5</ele><time>2026-04-04T11:08:24.368Z</time></trkpt><trkpt lat="44.3751109" lon="11.0150213"><ele>706.3333333333334</ele><time>2026-04-04T11:08:26.371Z</time></trkpt><trkpt lat="44.375141" lon="11.0149093"><ele>707.1666666666666</ele><time>2026-04-04T11:08:28.378Z</time></trkpt><trkpt lat="44.3751721" lon="11.0147947"><ele>708.0</ele><time>2026-04-04T11:08:30.371Z</time></trkpt><trkpt lat="44.3752083" lon="11.0146893"><ele>708.3333333333334</ele><time>2026-04-04T11:08:32.378Z</time></trkpt><trkpt lat="44.3752378" lon="11.0145953"><ele>708.6666666666666</ele><time>2026-04-04T11:08:34.368Z</time></trkpt><trkpt lat="44.3752751" lon="11.0145029"><ele>709.0</ele><time>2026-04-04T11:08:36.375Z</time></trkpt><trkpt lat="44.3753255" lon="11.014415"><ele>709.3333333333333</ele><time>2026-04-04T11:08:38.371Z</time></trkpt><trkpt lat="44.3753791" lon="11.0143311"><ele>709.6666666666666</ele><time>2026-04-04T11:08:40.365Z</time></trkpt><trkpt lat="44.3754395" lon="11.0142526"><ele>710.0</ele><time>2026-04-04T11:08:42.384Z</time></trkpt><trkpt lat="44.3755056" lon="11.0141718"><ele>709.8</ele><time>2026-04-04T11:08:44.371Z</time></trkpt><trkpt lat="44.3755456" lon="11.0140954"><ele>709.6</ele><time>2026-04-04T11:08:46.37Z</time></trkpt><trkpt lat="44.3755963" lon="11.0139805"><ele>709.4000000000001</ele><time>2026-04-04T11:08:49.375Z</time></trkpt><trkpt lat="44.3756431" lon="11.0138839"><ele>709.2</ele><time>2026-04-04T11:08:51.377Z</time></trkpt><trkpt lat="44.3756941" lon="11.0137606"><ele>709.0</ele><time>2026-04-04T11:08:53.371Z</time></trkpt><trkpt lat="44.3757408" lon="11.0136244"><ele>709.0</ele><time>2026-04-04T11:08:55.373Z</time></trkpt><trkpt lat="44.3757674" lon="11.0134774"><ele>709.0</ele><time>2026-04-04T11:08:57.377Z</time></trkpt><trkpt lat="44.3757852" lon="11.0133428"><ele>709.0</ele><time>2026-04-04T11:08:59.385Z</time></trkpt><trkpt lat="44.3757852" lon="11.0132116"><ele>709.0</ele><time>2026-04-04T11:09:01.374Z</time></trkpt><trkpt lat="44.3757723" lon="11.0130596"><ele>709.0</ele><time>2026-04-04T11:09:03.38Z</time></trkpt><trkpt lat="44.3757493" lon="11.012903"><ele>708.75</ele><time>2026-04-04T11:09:05.384Z</time></trkpt><trkpt lat="44.3757217" lon="11.0127523"><ele>708.5</ele><time>2026-04-04T11:09:07.37Z</time></trkpt><trkpt lat="44.375703" lon="11.0125952"><ele>708.25</ele><time>2026-04-04T11:09:09.369Z</time></trkpt><trkpt lat="44.3756883" lon="11.0124333"><ele>708.0</ele><time>2026-04-04T11:09:11.378Z</time></trkpt><trkpt lat="44.3756783" lon="11.0122731"><ele>708.0</ele><time>2026-04-04T11:09:13.37Z</time></trkpt><trkpt lat="44.3757007" lon="11.0121093"><ele>708.0</ele><time>2026-04-04T11:09:15.375Z</time></trkpt><trkpt lat="44.3757346" lon="11.0119453"><ele>708.0</ele><time>2026-04-04T11:09:17.372Z</time></trkpt><trkpt lat="44.3757599" lon="11.0118645"><ele>708.0</ele><time>2026-04-04T11:09:18.363Z</time></trkpt><trkpt lat="44.3758256" lon="11.0117132"><ele>708.0</ele><time>2026-04-04T11:09:20.367Z</time></trkpt><trkpt lat="44.3758673" lon="11.0116397"><ele>708.4</ele><time>2026-04-04T11:09:21.377Z</time></trkpt><trkpt lat="44.3759073" lon="11.0115672"><ele>708.8</ele><time>2026-04-04T11:09:22.369Z</time></trkpt><trkpt lat="44.3759462" lon="11.0114944"><ele>709.2</ele><time>2026-04-04T11:09:23.371Z</time></trkpt><trkpt lat="44.3760269" lon="11.0113614"><ele>709.6</ele><time>2026-04-04T11:09:25.37Z</time></trkpt><trkpt lat="44.3761148" lon="11.0112287"><ele>710.0</ele><time>2026-04-04T11:09:27.363Z</time></trkpt><trkpt lat="44.3761987" lon="11.0111134"><ele>710.0</ele><time>2026-04-04T11:09:29.379Z</time></trkpt><trkpt lat="44.3762842" lon="11.0110096"><ele>710.0</ele><time>2026-04-04T11:09:31.374Z</time></trkpt><trkpt lat="44.376367" lon="11.0109041"><ele>710.0</ele><time>2026-04-04T11:09:33.37Z</time></trkpt><trkpt lat="44.3764471" lon="11.0108222"><ele>710.0</ele><time>2026-04-04T11:09:35.379Z</time></trkpt><trkpt lat="44.3765228" lon="11.0107314"><ele>710.0</ele><time>2026-04-04T11:09:37.372Z</time></trkpt><trkpt lat="44.3766068" lon="11.0106516"><ele>709.0</ele><time>2026-04-04T11:09:39.372Z</time></trkpt><trkpt lat="44.3766372" lon="11.0105363"><ele>708.0</ele><time>2026-04-04T11:09:41.369Z</time></trkpt><trkpt lat="44.3766316" lon="11.0103905"><ele>707.0</ele><time>2026-04-04T11:09:43.377Z</time></trkpt><trkpt lat="44.3766233" lon="11.0102362"><ele>706.0</ele><time>2026-04-04T11:09:45.372Z</time></trkpt><trkpt lat="44.3766201" lon="11.0100767"><ele>705.0</ele><time>2026-04-04T11:09:47.368Z</time></trkpt><trkpt lat="44.3766155" lon="11.0099212"><ele>705.0</ele><time>2026-04-04T11:09:49.367Z</time></trkpt><trkpt lat="44.3766097" lon="11.0097875"><ele>705.0</ele><time>2026-04-04T11:09:51.368Z</time></trkpt><trkpt lat="44.3765992" lon="11.0096751"><ele>705.0</ele><time>2026-04-04T11:09:53.374Z</time></trkpt><trkpt lat="44.3765946" lon="11.0095827"><ele>705.0</ele><time>2026-04-04T11:09:55.371Z</time></trkpt><trkpt lat="44.3766214" lon="11.0094887"><ele>705.0</ele><time>2026-04-04T11:09:58.384Z</time></trkpt><trkpt lat="44.3766916" lon="11.0094001"><ele>705.0</ele><time>2026-04-04T11:10:01.37Z</time></trkpt><trkpt lat="44.3767558" lon="11.0093681"><ele>705.0</ele><time>2026-04-04T11:10:03.371Z</time></trkpt><trkpt lat="44.3768235" lon="11.0093371"><ele>705.0</ele><time>2026-04-04T11:10:05.37Z</time></trkpt><trkpt lat="44.3769029" lon="11.0093079"><ele>705.0</ele><time>2026-04-04T11:10:07.369Z</time></trkpt><trkpt lat="44.3770086" lon="11.0092773"><ele>705.0</ele><time>2026-04-04T11:10:09.375Z</time></trkpt><trkpt lat="44.3771264" lon="11.0092407"><ele>705.0</ele><time>2026-04-04T11:10:11.368Z</time></trkpt><trkpt lat="44.3771921" lon="11.0092184"><ele>704.4285714285713</ele><time>2026-04-04T11:10:12.379Z</time></trkpt><trkpt lat="44.3772605" lon="11.0091948"><ele>703.8571428571429</ele><time>2026-04-04T11:10:13.371Z</time></trkpt><trkpt lat="44.3773318" lon="11.0091738"><ele>703.2857142857142</ele><time>2026-04-04T11:10:14.364Z</time></trkpt><trkpt lat="44.3774033" lon="11.0091554"><ele>702.7142857142857</ele><time>2026-04-04T11:10:15.386Z</time></trkpt><trkpt lat="44.377478" lon="11.0091357"><ele>702.1428571428571</ele><time>2026-04-04T11:10:16.377Z</time></trkpt><trkpt lat="44.3775531" lon="11.0091194"><ele>701.5714285714286</ele><time>2026-04-04T11:10:17.384Z</time></trkpt><trkpt lat="44.3776306" lon="11.0091039"><ele>701.0</ele><time>2026-04-04T11:10:18.372Z</time></trkpt><trkpt lat="44.3777075" lon="11.0090885"><ele>701.1666666666666</ele><time>2026-04-04T11:10:19.366Z</time></trkpt><trkpt lat="44.3777814" lon="11.0090719"><ele>701.3333333333333</ele><time>2026-04-04T11:10:20.387Z</time></trkpt><trkpt lat="44.3778463" lon="11.0090393"><ele>701.5</ele><time>2026-04-04T11:10:21.361Z</time></trkpt><trkpt lat="44.3779266" lon="11.0089748"><ele>701.6666666666666</ele><time>2026-04-04T11:10:23.377Z</time></trkpt><trkpt lat="44.3779821" lon="11.0089023"><ele>701.8333333333334</ele><time>2026-04-04T11:10:25.384Z</time></trkpt><trkpt lat="44.3780227" lon="11.008831"><ele>702.0</ele><time>2026-04-04T11:10:27.366Z</time></trkpt><trkpt lat="44.3780728" lon="11.0087443"><ele>702.0000000000001</ele><time>2026-04-04T11:10:30.376Z</time></trkpt><trkpt lat="44.3781187" lon="11.0086714"><ele>702.0</ele><time>2026-04-04T11:10:33.381Z</time></trkpt><trkpt lat="44.3781539" lon="11.008587"><ele>702.0</ele><time>2026-04-04T11:10:36.374Z</time></trkpt><trkpt lat="44.3781806" lon="11.0084792"><ele>702.0</ele><time>2026-04-04T11:10:38.366Z</time></trkpt><trkpt lat="44.378215" lon="11.0083809"><ele>702.0</ele><time>2026-04-04T11:10:40.368Z</time></trkpt><trkpt lat="44.3782527" lon="11.0082832"><ele>702.0000000000001</ele><time>2026-04-04T11:10:42.369Z</time></trkpt><trkpt lat="44.378282" lon="11.0081973"><ele>702.0</ele><time>2026-04-04T11:10:44.37Z</time></trkpt><trkpt lat="44.3783087" lon="11.0081087"><ele>701.4285714285714</ele><time>2026-04-04T11:10:46.368Z</time></trkpt><trkpt lat="44.3783297" lon="11.008007"><ele>700.8571428571429</ele><time>2026-04-04T11:10:49.357Z</time></trkpt><trkpt lat="44.3783767" lon="11.0079391"><ele>700.2857142857142</ele><time>2026-04-04T11:10:52.37Z</time></trkpt><trkpt lat="44.3784546" lon="11.0079093"><ele>699.7142857142858</ele><time>2026-04-04T11:10:56.38Z</time></trkpt><trkpt lat="44.3784641" lon="11.0078209"><ele>699.1428571428571</ele><time>2026-04-04T11:11:00.364Z</time></trkpt><trkpt lat="44.3784044" lon="11.0077886"><ele>698.5714285714286</ele><time>2026-04-04T11:11:04.37Z</time></trkpt><trkpt lat="44.3783562" lon="11.0078818"><ele>698.0</ele><time>2026-04-04T11:11:07.38Z</time></trkpt><trkpt lat="44.3783171" lon="11.0079811"><ele>698.0</ele><time>2026-04-04T11:11:09.378Z</time></trkpt><trkpt lat="44.3782811" lon="11.0080931"><ele>698.0</ele><time>2026-04-04T11:11:11.37Z</time></trkpt><trkpt lat="44.3782429" lon="11.0082167"><ele>698.0</ele><time>2026-04-04T11:11:13.367Z</time></trkpt><trkpt lat="44.3782087" lon="11.0083465"><ele>698.0</ele><time>2026-04-04T11:11:15.377Z</time></trkpt><trkpt lat="44.3781766" lon="11.0084643"><ele>698.0</ele><time>2026-04-04T11:11:17.378Z</time></trkpt><trkpt lat="44.3781418" lon="11.0085597"><ele>697.6666666666666</ele><time>2026-04-04T11:11:19.381Z</time></trkpt><trkpt lat="44.3780875" lon="11.0086366"><ele>697.3333333333333</ele><time>2026-04-04T11:11:22.373Z</time></trkpt><trkpt lat="44.3780039" lon="11.0086293"><ele>697.0</ele><time>2026-04-04T11:11:26.367Z</time></trkpt><trkpt lat="44.377943" lon="11.0085836"><ele>696.6666666666666</ele><time>2026-04-04T11:11:29.371Z</time></trkpt><trkpt lat="44.3778912" lon="11.0085139"><ele>696.3333333333334</ele><time>2026-04-04T11:11:34.368Z</time></trkpt><trkpt lat="44.3778397" lon="11.0084251"><ele>696.0</ele><time>2026-04-04T11:11:37.358Z</time></trkpt><trkpt lat="44.3777867" lon="11.0083345"><ele>695.4285714285714</ele><time>2026-04-04T11:11:40.374Z</time></trkpt><trkpt lat="44.3777345" lon="11.0082434"><ele>694.8571428571429</ele><time>2026-04-04T11:11:43.383Z</time></trkpt><trkpt lat="44.3776871" lon="11.0081639"><ele>694.2857142857142</ele><time>2026-04-04T11:11:46.381Z</time></trkpt><trkpt lat="44.3776357" lon="11.0080947"><ele>693.7142857142858</ele><time>2026-04-04T11:11:49.366Z</time></trkpt><trkpt lat="44.3775758" lon="11.0080346"><ele>693.1428571428572</ele><time>2026-04-04T11:11:52.37Z</time></trkpt><trkpt lat="44.3775307" lon="11.0079634"><ele>692.5714285714286</ele><time>2026-04-04T11:13:39.373Z</time></trkpt><trkpt lat="44.3775876" lon="11.008031"><ele>692.0</ele><time>2026-04-04T11:13:54.373Z</time></trkpt><trkpt lat="44.3776511" lon="11.0080707"><ele>692.0</ele><time>2026-04-04T11:14:00.367Z</time></trkpt><trkpt lat="44.3777134" lon="11.0080948"><ele>692.0</ele><time>2026-04-04T11:14:05.373Z</time></trkpt><trkpt lat="44.3777711" lon="11.0081489"><ele>692.0</ele><time>2026-04-04T11:14:11.367Z</time></trkpt><trkpt lat="44.3777973" lon="11.0082346"><ele>692.0</ele><time>2026-04-04T11:14:15.372Z</time></trkpt><trkpt lat="44.3778155" lon="11.0083216"><ele>692.0</ele><time>2026-04-04T11:14:19.374Z</time></trkpt><trkpt lat="44.3778405" lon="11.0084051"><ele>692.0</ele><time>2026-04-04T11:14:24.359Z</time></trkpt><trkpt lat="44.3778789" lon="11.0084998"><ele>692.0</ele><time>2026-04-04T11:14:31.335Z</time></trkpt><trkpt lat="44.3779373" lon="11.0085461"><ele>692.5714285714286</ele><time>2026-04-04T11:17:02.363Z</time></trkpt><trkpt lat="44.3779967" lon="11.0086146"><ele>693.1428571428572</ele><time>2026-04-04T11:35:36.378Z</time></trkpt><trkpt lat="44.3780262" lon="11.0085271"><ele>693.7142857142858</ele><time>2026-04-04T11:37:28.337Z</time></trkpt><trkpt lat="44.378078" lon="11.0084674"><ele>694.2857142857142</ele><time>2026-04-04T11:37:45.359Z</time></trkpt><trkpt lat="44.3781284" lon="11.008402"><ele>694.8571428571429</ele><time>2026-04-04T11:37:53.331Z</time></trkpt><trkpt lat="44.3781762" lon="11.0083268"><ele>695.4285714285714</ele><time>2026-04-04T11:37:57.291Z</time></trkpt><trkpt lat="44.3782267" lon="11.0082693"><ele>696.0</ele><time>2026-04-04T11:38:02.277Z</time></trkpt><trkpt lat="44.378287" lon="11.0082406"><ele>696.3333333333334</ele><time>2026-04-04T11:38:07.318Z</time></trkpt><trkpt lat="44.3783195" lon="11.0081455"><ele>696.6666666666666</ele><time>2026-04-04T11:38:13.362Z</time></trkpt><trkpt lat="44.3783387" lon="11.0080559"><ele>697.0</ele><time>2026-04-04T11:38:19.38Z</time></trkpt><trkpt lat="44.3783458" lon="11.0079662"><ele>697.3333333333333</ele><time>2026-04-04T11:38:41.376Z</time></trkpt><trkpt lat="44.3783851" lon="11.00784"><ele>697.6666666666666</ele><time>2026-04-04T11:43:05.374Z</time></trkpt><trkpt lat="44.3783849" lon="11.0077494"><ele>698.0</ele><time>2026-04-04T11:43:21.377Z</time></trkpt><trkpt lat="44.3784134" lon="11.0076453"><ele>698.0</ele><time>2026-04-04T11:43:25.369Z</time></trkpt><trkpt lat="44.3784302" lon="11.0075546"><ele>698.0</ele><time>2026-04-04T11:43:28.377Z</time></trkpt><trkpt lat="44.378457" lon="11.0074561"><ele>698.0</ele><time>2026-04-04T11:43:31.382Z</time></trkpt><trkpt lat="44.3784784" lon="11.0073669"><ele>698.0</ele><time>2026-04-04T11:43:33.365Z</time></trkpt><trkpt lat="44.3785018" lon="11.0072698"><ele>698.0</ele><time>2026-04-04T11:43:35.38Z</time></trkpt><trkpt lat="44.3785253" lon="11.0071637"><ele>698.0</ele><time>2026-04-04T11:43:37.37Z</time></trkpt><trkpt lat="44.3785597" lon="11.007044"><ele>698.0</ele><time>2026-04-04T11:43:39.378Z</time></trkpt><trkpt lat="44.3785984" lon="11.0069223"><ele>698.0</ele><time>2026-04-04T11:43:41.376Z</time></trkpt><trkpt lat="44.3786357" lon="11.0067776"><ele>698.0</ele><time>2026-04-04T11:43:43.356Z</time></trkpt><trkpt lat="44.3786731" lon="11.0066243"><ele>698.0</ele><time>2026-04-04T11:43:45.374Z</time></trkpt><trkpt lat="44.3787118" lon="11.0064556"><ele>698.0</ele><time>2026-04-04T11:43:47.365Z</time></trkpt><trkpt lat="44.3787312" lon="11.0063676"><ele>698.0</ele><time>2026-04-04T11:43:48.373Z</time></trkpt><trkpt lat="44.3787685" lon="11.0061973"><ele>698.0</ele><time>2026-04-04T11:43:50.379Z</time></trkpt><trkpt lat="44.3787883" lon="11.0061097"><ele>698.0</ele><time>2026-04-04T11:43:51.38Z</time></trkpt><trkpt lat="44.378808" lon="11.0060192"><ele>698.0</ele><time>2026-04-04T11:43:52.37Z</time></trkpt><trkpt lat="44.3788287" lon="11.0059287"><ele>698.0</ele><time>2026-04-04T11:43:53.374Z</time></trkpt><trkpt lat="44.3788531" lon="11.0058428"><ele>698.0</ele><time>2026-04-04T11:43:54.378Z</time></trkpt><trkpt lat="44.3788901" lon="11.0057673"><ele>697.7142857142857</ele><time>2026-04-04T11:43:55.373Z</time></trkpt><trkpt lat="44.3789257" lon="11.0056856"><ele>697.4285714285714</ele><time>2026-04-04T11:43:56.375Z</time></trkpt><trkpt lat="44.3789817" lon="11.0056225"><ele>697.1428571428571</ele><time>2026-04-04T11:43:57.379Z</time></trkpt><trkpt lat="44.3790386" lon="11.0055583"><ele>696.8571428571429</ele><time>2026-04-04T11:43:58.384Z</time></trkpt><trkpt lat="44.3791016" lon="11.0055043"><ele>696.5714285714286</ele><time>2026-04-04T11:43:59.38Z</time></trkpt><trkpt lat="44.3791659" lon="11.005456"><ele>696.2857142857142</ele><time>2026-04-04T11:44:00.383Z</time></trkpt><trkpt lat="44.3792286" lon="11.005411"><ele>696.0</ele><time>2026-04-04T11:44:01.371Z</time></trkpt><trkpt lat="44.3792939" lon="11.0053636"><ele>696.0</ele><time>2026-04-04T11:44:02.381Z</time></trkpt><trkpt lat="44.3793619" lon="11.0053192"><ele>696.0</ele><time>2026-04-04T11:44:03.376Z</time></trkpt><trkpt lat="44.3794267" lon="11.005264"><ele>696.0</ele><time>2026-04-04T11:44:04.377Z</time></trkpt><trkpt lat="44.3794918" lon="11.005212"><ele>696.0</ele><time>2026-04-04T11:44:05.375Z</time></trkpt><trkpt lat="44.3795521" lon="11.0051517"><ele>696.0</ele><time>2026-04-04T11:44:06.378Z</time></trkpt><trkpt lat="44.379603" lon="11.0050722"><ele>696.0</ele><time>2026-04-04T11:44:07.378Z</time></trkpt><trkpt lat="44.3796455" lon="11.0049782"><ele>696.5</ele><time>2026-04-04T11:44:08.366Z</time></trkpt><trkpt lat="44.3796712" lon="11.0048725"><ele>697.0</ele><time>2026-04-04T11:44:09.379Z</time></trkpt><trkpt lat="44.3796963" lon="11.0047584"><ele>697.5</ele><time>2026-04-04T11:44:10.373Z</time></trkpt><trkpt lat="44.3797043" lon="11.0046368"><ele>698.0</ele><time>2026-04-04T11:44:11.374Z</time></trkpt><trkpt lat="44.3796885" lon="11.0045118"><ele>698.5</ele><time>2026-04-04T11:44:12.372Z</time></trkpt><trkpt lat="44.3796649" lon="11.0043845"><ele>699.0</ele><time>2026-04-04T11:44:13.372Z</time></trkpt><trkpt lat="44.3796443" lon="11.0042528"><ele>699.8000000000001</ele><time>2026-04-04T11:44:14.383Z</time></trkpt><trkpt lat="44.379623" lon="11.0041181"><ele>700.6</ele><time>2026-04-04T11:44:15.376Z</time></trkpt><trkpt lat="44.3796044" lon="11.0039774"><ele>701.4</ele><time>2026-04-04T11:44:16.373Z</time></trkpt><trkpt lat="44.3795866" lon="11.0038451"><ele>702.2</ele><time>2026-04-04T11:44:17.381Z</time></trkpt><trkpt lat="44.3795883" lon="11.0037227"><ele>703.0</ele><time>2026-04-04T11:44:18.373Z</time></trkpt><trkpt lat="44.3796453" lon="11.0036302"><ele>701.8333333333334</ele><time>2026-04-04T11:44:19.369Z</time></trkpt><trkpt lat="44.3797261" lon="11.0035823"><ele>700.6666666666667</ele><time>2026-04-04T11:44:20.371Z</time></trkpt><trkpt lat="44.3798113" lon="11.0035921"><ele>699.5</ele><time>2026-04-04T11:44:21.368Z</time></trkpt><trkpt lat="44.3798908" lon="11.0036463"><ele>698.3333333333334</ele><time>2026-04-04T11:44:22.373Z</time></trkpt><trkpt lat="44.3799633" lon="11.0037218"><ele>697.1666666666666</ele><time>2026-04-04T11:44:23.384Z</time></trkpt><trkpt lat="44.3800381" lon="11.0038008"><ele>696.0</ele><time>2026-04-04T11:44:24.374Z</time></trkpt><trkpt lat="44.3801138" lon="11.0038931"><ele>696.0</ele><time>2026-04-04T11:44:25.384Z</time></trkpt><trkpt lat="44.3801954" lon="11.0039873"><ele>696.0</ele><time>2026-04-04T11:44:26.368Z</time></trkpt><trkpt lat="44.3802786" lon="11.0040857"><ele>696.0</ele><time>2026-04-04T11:44:27.37Z</time></trkpt><trkpt lat="44.3803611" lon="11.0041845"><ele>696.0</ele><time>2026-04-04T11:44:28.383Z</time></trkpt><trkpt lat="44.3804489" lon="11.0042825"><ele>696.0</ele><time>2026-04-04T11:44:29.381Z</time></trkpt><trkpt lat="44.3805405" lon="11.004394"><ele>688.75</ele><time>2026-04-04T11:44:30.372Z</time></trkpt><trkpt lat="44.3806338" lon="11.0045026"><ele>681.5</ele><time>2026-04-04T11:44:31.385Z</time></trkpt><trkpt lat="44.3807303" lon="11.0046112"><ele>674.25</ele><time>2026-04-04T11:44:32.371Z</time></trkpt><trkpt lat="44.3808272" lon="11.0047215"><ele>667.0</ele><time>2026-04-04T11:44:33.379Z</time></trkpt><trkpt lat="44.3809252" lon="11.0048344"><ele>667.0</ele><time>2026-04-04T11:44:34.369Z</time></trkpt><trkpt lat="44.3810243" lon="11.0049477"><ele>667.0</ele><time>2026-04-04T11:44:35.384Z</time></trkpt><trkpt lat="44.3811244" lon="11.0050632"><ele>667.0</ele><time>2026-04-04T11:44:36.365Z</time></trkpt><trkpt lat="44.3812256" lon="11.0051824"><ele>667.0</ele><time>2026-04-04T11:44:37.37Z</time></trkpt><trkpt lat="44.3813276" lon="11.0052995"><ele>663.75</ele><time>2026-04-04T11:44:38.374Z</time></trkpt><trkpt lat="44.3814336" lon="11.0054223"><ele>660.5</ele><time>2026-04-04T11:44:39.379Z</time></trkpt><trkpt lat="44.3815401" lon="11.0055447"><ele>657.25</ele><time>2026-04-04T11:44:40.38Z</time></trkpt><trkpt lat="44.3816481" lon="11.0056699"><ele>654.0</ele><time>2026-04-04T11:44:41.368Z</time></trkpt><trkpt lat="44.3817557" lon="11.005795"><ele>655.0</ele><time>2026-04-04T11:44:42.377Z</time></trkpt><trkpt lat="44.3818627" lon="11.0059169"><ele>656.0</ele><time>2026-04-04T11:44:43.381Z</time></trkpt><trkpt lat="44.381968" lon="11.0060368"><ele>657.0</ele><time>2026-04-04T11:44:44.381Z</time></trkpt><trkpt lat="44.3820718" lon="11.0061521"><ele>658.0</ele><time>2026-04-04T11:44:45.368Z</time></trkpt><trkpt lat="44.3821717" lon="11.0062661"><ele>658.0</ele><time>2026-04-04T11:44:46.382Z</time></trkpt><trkpt lat="44.3822706" lon="11.0063785"><ele>658.0</ele><time>2026-04-04T11:44:47.374Z</time></trkpt><trkpt lat="44.3823666" lon="11.0064885"><ele>658.0</ele><time>2026-04-04T11:44:48.376Z</time></trkpt><trkpt lat="44.3824614" lon="11.0065968"><ele>658.0</ele><time>2026-04-04T11:44:49.378Z</time></trkpt><trkpt lat="44.3825529" lon="11.0067037"><ele>658.0</ele><time>2026-04-04T11:44:50.381Z</time></trkpt><trkpt lat="44.3826403" lon="11.0068074"><ele>658.0</ele><time>2026-04-04T11:44:51.382Z</time></trkpt><trkpt lat="44.3827266" lon="11.0069076"><ele>658.0</ele><time>2026-04-04T11:44:52.378Z</time></trkpt><trkpt lat="44.3828116" lon="11.0070042"><ele>658.0</ele><time>2026-04-04T11:44:53.379Z</time></trkpt><trkpt lat="44.3828949" lon="11.0071004"><ele>658.0</ele><time>2026-04-04T11:44:54.381Z</time></trkpt><trkpt lat="44.3829758" lon="11.0071924"><ele>657.2</ele><time>2026-04-04T11:44:55.373Z</time></trkpt><trkpt lat="44.3830544" lon="11.0072828"><ele>656.4</ele><time>2026-04-04T11:44:56.378Z</time></trkpt><trkpt lat="44.3831302" lon="11.0073705"><ele>655.6</ele><time>2026-04-04T11:44:57.372Z</time></trkpt><trkpt lat="44.3832039" lon="11.0074585"><ele>654.8000000000001</ele><time>2026-04-04T11:44:58.375Z</time></trkpt><trkpt lat="44.3832741" lon="11.007541"><ele>654.0</ele><time>2026-04-04T11:44:59.391Z</time></trkpt><trkpt lat="44.3833412" lon="11.0076204"><ele>654.0</ele><time>2026-04-04T11:45:00.373Z</time></trkpt><trkpt lat="44.3834113" lon="11.0076796"><ele>654.0</ele><time>2026-04-04T11:45:01.377Z</time></trkpt><trkpt lat="44.3834807" lon="11.0077405"><ele>654.0</ele><time>2026-04-04T11:45:02.375Z</time></trkpt><trkpt lat="44.3835529" lon="11.0077867"><ele>654.0</ele><time>2026-04-04T11:45:03.373Z</time></trkpt><trkpt lat="44.3836269" lon="11.0078224"><ele>654.0</ele><time>2026-04-04T11:45:04.373Z</time></trkpt><trkpt lat="44.3837028" lon="11.0078566"><ele>654.0</ele><time>2026-04-04T11:45:05.37Z</time></trkpt><trkpt lat="44.3837806" lon="11.0078917"><ele>654.3333333333334</ele><time>2026-04-04T11:45:06.372Z</time></trkpt><trkpt lat="44.3838581" lon="11.0079141"><ele>654.6666666666666</ele><time>2026-04-04T11:45:07.368Z</time></trkpt><trkpt lat="44.3839343" lon="11.0079353"><ele>655.0</ele><time>2026-04-04T11:45:08.371Z</time></trkpt><trkpt lat="44.384013" lon="11.0079598"><ele>655.3333333333333</ele><time>2026-04-04T11:45:09.382Z</time></trkpt><trkpt lat="44.3840879" lon="11.0079816"><ele>655.6666666666666</ele><time>2026-04-04T11:45:10.383Z</time></trkpt><trkpt lat="44.3841601" lon="11.0080038"><ele>656.0</ele><time>2026-04-04T11:45:11.375Z</time></trkpt><trkpt lat="44.3842336" lon="11.0080262"><ele>656.0</ele><time>2026-04-04T11:45:12.383Z</time></trkpt><trkpt lat="44.3843093" lon="11.0080445"><ele>656.0</ele><time>2026-04-04T11:45:13.376Z</time></trkpt><trkpt lat="44.3843862" lon="11.0080653"><ele>656.0</ele><time>2026-04-04T11:45:14.378Z</time></trkpt><trkpt lat="44.3844614" lon="11.0080865"><ele>656.0</ele><time>2026-04-04T11:45:15.384Z</time></trkpt><trkpt lat="44.3845391" lon="11.0081087"><ele>656.0</ele><time>2026-04-04T11:45:16.369Z</time></trkpt><trkpt lat="44.3846167" lon="11.008131"><ele>656.0</ele><time>2026-04-04T11:45:17.381Z</time></trkpt><trkpt lat="44.3846962" lon="11.0081539"><ele>655.3333333333333</ele><time>2026-04-04T11:45:18.373Z</time></trkpt><trkpt lat="44.3847744" lon="11.0081733"><ele>654.6666666666666</ele><time>2026-04-04T11:45:19.374Z</time></trkpt><trkpt lat="44.3848521" lon="11.0081903"><ele>654.0</ele><time>2026-04-04T11:45:20.381Z</time></trkpt><trkpt lat="44.3849333" lon="11.0082051"><ele>653.3333333333334</ele><time>2026-04-04T11:45:21.377Z</time></trkpt><trkpt lat="44.385013" lon="11.0082131"><ele>652.6666666666667</ele><time>2026-04-04T11:45:22.383Z</time></trkpt><trkpt lat="44.385093" lon="11.0082228"><ele>652.0</ele><time>2026-04-04T11:45:23.368Z</time></trkpt><trkpt lat="44.3851744" lon="11.0082336"><ele>652.0</ele><time>2026-04-04T11:45:24.374Z</time></trkpt><trkpt lat="44.3852569" lon="11.0082484"><ele>652.0</ele><time>2026-04-04T11:45:25.374Z</time></trkpt><trkpt lat="44.3853381" lon="11.0082657"><ele>652.0</ele><time>2026-04-04T11:45:26.376Z</time></trkpt><trkpt lat="44.3854178" lon="11.0082836"><ele>652.0</ele><time>2026-04-04T11:45:27.375Z</time></trkpt><trkpt lat="44.3854987" lon="11.0083072"><ele>652.0</ele><time>2026-04-04T11:45:28.368Z</time></trkpt><trkpt lat="44.385577" lon="11.0083489"><ele>652.0</ele><time>2026-04-04T11:45:29.379Z</time></trkpt><trkpt lat="44.3856502" lon="11.0083999"><ele>650.3333333333334</ele><time>2026-04-04T11:45:30.375Z</time></trkpt><trkpt lat="44.385725" lon="11.0084475"><ele>648.6666666666667</ele><time>2026-04-04T11:45:31.372Z</time></trkpt><trkpt lat="44.385798" lon="11.0084849"><ele>647.0</ele><time>2026-04-04T11:45:32.364Z</time></trkpt><trkpt lat="44.3858731" lon="11.0085217"><ele>645.3333333333334</ele><time>2026-04-04T11:45:33.37Z</time></trkpt><trkpt lat="44.3859497" lon="11.0085524"><ele>643.6666666666666</ele><time>2026-04-04T11:45:34.369Z</time></trkpt><trkpt lat="44.386027" lon="11.0085705"><ele>642.0</ele><time>2026-04-04T11:45:35.381Z</time></trkpt><trkpt lat="44.3861055" lon="11.0085852"><ele>642.0</ele><time>2026-04-04T11:45:36.381Z</time></trkpt><trkpt lat="44.3861848" lon="11.0086069"><ele>642.0</ele><time>2026-04-04T11:45:37.375Z</time></trkpt><trkpt lat="44.3862632" lon="11.0086251"><ele>642.0</ele><time>2026-04-04T11:45:38.374Z</time></trkpt><trkpt lat="44.386339" lon="11.0086273"><ele>642.0</ele><time>2026-04-04T11:45:39.37Z</time></trkpt><trkpt lat="44.3864158" lon="11.0086179"><ele>642.0</ele><time>2026-04-04T11:45:40.373Z</time></trkpt><trkpt lat="44.3864928" lon="11.0085956"><ele>642.0</ele><time>2026-04-04T11:45:41.38Z</time></trkpt><trkpt lat="44.3865668" lon="11.0085591"><ele>641.8333333333334</ele><time>2026-04-04T11:45:42.376Z</time></trkpt><trkpt lat="44.3866379" lon="11.0085097"><ele>641.6666666666666</ele><time>2026-04-04T11:45:43.376Z</time></trkpt><trkpt lat="44.386706" lon="11.0084466"><ele>641.5</ele><time>2026-04-04T11:45:44.382Z</time></trkpt><trkpt lat="44.3867725" lon="11.0083734"><ele>641.3333333333333</ele><time>2026-04-04T11:45:45.356Z</time></trkpt><trkpt lat="44.3868352" lon="11.0082881"><ele>641.1666666666666</ele><time>2026-04-04T11:45:46.372Z</time></trkpt><trkpt lat="44.3868937" lon="11.0081966"><ele>641.0</ele><time>2026-04-04T11:45:47.384Z</time></trkpt><trkpt lat="44.3869512" lon="11.0081046"><ele>641.0</ele><time>2026-04-04T11:45:48.372Z</time></trkpt><trkpt lat="44.3870008" lon="11.0080061"><ele>641.0</ele><time>2026-04-04T11:45:49.38Z</time></trkpt><trkpt lat="44.387051" lon="11.0079068"><ele>641.0</ele><time>2026-04-04T11:45:50.368Z</time></trkpt><trkpt lat="44.3870974" lon="11.0077996"><ele>641.0</ele><time>2026-04-04T11:45:51.379Z</time></trkpt><trkpt lat="44.3871402" lon="11.0076864"><ele>641.0</ele><time>2026-04-04T11:45:52.373Z</time></trkpt><trkpt lat="44.3871712" lon="11.0075664"><ele>641.0</ele><time>2026-04-04T11:45:53.376Z</time></trkpt><trkpt lat="44.3871904" lon="11.0074395"><ele>638.4</ele><time>2026-04-04T11:45:54.377Z</time></trkpt><trkpt lat="44.3872031" lon="11.0073087"><ele>635.8</ele><time>2026-04-04T11:45:55.368Z</time></trkpt><trkpt lat="44.3872154" lon="11.0071766"><ele>633.1999999999999</ele><time>2026-04-04T11:45:56.364Z</time></trkpt><trkpt lat="44.3872263" lon="11.0070458"><ele>630.5999999999999</ele><time>2026-04-04T11:45:57.372Z</time></trkpt><trkpt lat="44.3872342" lon="11.006912"><ele>628.0</ele><time>2026-04-04T11:45:58.375Z</time></trkpt><trkpt lat="44.3872431" lon="11.0067788"><ele>628.6</ele><time>2026-04-04T11:45:59.377Z</time></trkpt><trkpt lat="44.3872397" lon="11.0066445"><ele>629.1999999999999</ele><time>2026-04-04T11:46:00.37Z</time></trkpt><trkpt lat="44.3872305" lon="11.0065003"><ele>629.8</ele><time>2026-04-04T11:46:01.376Z</time></trkpt><trkpt lat="44.3872212" lon="11.0063601"><ele>630.4</ele><time>2026-04-04T11:46:02.374Z</time></trkpt><trkpt lat="44.3871993" lon="11.0062204"><ele>631.0</ele><time>2026-04-04T11:46:03.374Z</time></trkpt><trkpt lat="44.3871578" lon="11.0060835"><ele>631.0</ele><time>2026-04-04T11:46:04.378Z</time></trkpt><trkpt lat="44.3871128" lon="11.005947"><ele>631.0</ele><time>2026-04-04T11:46:05.371Z</time></trkpt><trkpt lat="44.3870374" lon="11.0058393"><ele>631.0</ele><time>2026-04-04T11:46:06.373Z</time></trkpt><trkpt lat="44.3869456" lon="11.0057482"><ele>631.0</ele><time>2026-04-04T11:46:07.377Z</time></trkpt><trkpt lat="44.3868401" lon="11.0056843"><ele>631.0</ele><time>2026-04-04T11:46:08.377Z</time></trkpt><trkpt lat="44.3867319" lon="11.0056396"><ele>630.25</ele><time>2026-04-04T11:46:09.368Z</time></trkpt><trkpt lat="44.3866216" lon="11.0055937"><ele>629.5</ele><time>2026-04-04T11:46:10.38Z</time></trkpt><trkpt lat="44.3865077" lon="11.0055411"><ele>628.75</ele><time>2026-04-04T11:46:11.372Z</time></trkpt><trkpt lat="44.3863966" lon="11.0054871"><ele>628.0</ele><time>2026-04-04T11:46:12.38Z</time></trkpt><trkpt lat="44.3862934" lon="11.0054367"><ele>628.0</ele><time>2026-04-04T11:46:13.375Z</time></trkpt><trkpt lat="44.3862137" lon="11.0053947"><ele>628.0</ele><time>2026-04-04T11:46:14.372Z</time></trkpt><trkpt lat="44.3861554" lon="11.0053364"><ele>628.0</ele><time>2026-04-04T11:46:15.368Z</time></trkpt><trkpt lat="44.3861337" lon="11.0052493"><ele>628.0</ele><time>2026-04-04T11:46:16.381Z</time></trkpt><trkpt lat="44.3861623" lon="11.0051461"><ele>628.0</ele><time>2026-04-04T11:46:17.377Z</time></trkpt><trkpt lat="44.3862266" lon="11.0050573"><ele>628.0</ele><time>2026-04-04T11:46:18.37Z</time></trkpt><trkpt lat="44.3863164" lon="11.0050261"><ele>626.3333333333334</ele><time>2026-04-04T11:46:19.38Z</time></trkpt><trkpt lat="44.3864002" lon="11.0050362"><ele>624.6666666666667</ele><time>2026-04-04T11:46:20.377Z</time></trkpt><trkpt lat="44.3864873" lon="11.0050438"><ele>623.0</ele><time>2026-04-04T11:46:21.374Z</time></trkpt><trkpt lat="44.3865747" lon="11.0050666"><ele>621.3333333333334</ele><time>2026-04-04T11:46:22.369Z</time></trkpt><trkpt lat="44.3866646" lon="11.0051047"><ele>619.6666666666666</ele><time>2026-04-04T11:46:23.377Z</time></trkpt><trkpt lat="44.3867542" lon="11.005143"><ele>618.0</ele><time>2026-04-04T11:46:24.374Z</time></trkpt><trkpt lat="44.3868461" lon="11.0051832"><ele>618.0</ele><time>2026-04-04T11:46:25.387Z</time></trkpt><trkpt lat="44.3869421" lon="11.0052188"><ele>618.0</ele><time>2026-04-04T11:46:26.378Z</time></trkpt><trkpt lat="44.3870397" lon="11.0052524"><ele>618.0</ele><time>2026-04-04T11:46:27.378Z</time></trkpt><trkpt lat="44.3871391" lon="11.0052808"><ele>618.0</ele><time>2026-04-04T11:46:28.371Z</time></trkpt><trkpt lat="44.3872383" lon="11.005316"><ele>618.0</ele><time>2026-04-04T11:46:29.38Z</time></trkpt><trkpt lat="44.3873363" lon="11.0053546"><ele>616.0</ele><time>2026-04-04T11:46:30.382Z</time></trkpt><trkpt lat="44.3874368" lon="11.0053932"><ele>614.0</ele><time>2026-04-04T11:46:31.372Z</time></trkpt><trkpt lat="44.387541" lon="11.0054481"><ele>612.0</ele><time>2026-04-04T11:46:32.38Z</time></trkpt><trkpt lat="44.387644" lon="11.0055069"><ele>610.0</ele><time>2026-04-04T11:46:33.374Z</time></trkpt><trkpt lat="44.3877489" lon="11.0055648"><ele>608.0</ele><time>2026-04-04T11:46:34.369Z</time></trkpt><trkpt lat="44.3878567" lon="11.0056201"><ele>608.0</ele><time>2026-04-04T11:46:35.355Z</time></trkpt><trkpt lat="44.3879664" lon="11.0056764"><ele>608.0</ele><time>2026-04-04T11:46:36.39Z</time></trkpt><trkpt lat="44.3880789" lon="11.0057269"><ele>608.0</ele><time>2026-04-04T11:46:37.377Z</time></trkpt><trkpt lat="44.3881922" lon="11.0057809"><ele>608.0</ele><time>2026-04-04T11:46:38.39Z</time></trkpt><trkpt lat="44.3883058" lon="11.005837"><ele>607.0</ele><time>2026-04-04T11:46:39.379Z</time></trkpt><trkpt lat="44.388412" lon="11.0059086"><ele>606.0</ele><time>2026-04-04T11:46:40.377Z</time></trkpt><trkpt lat="44.3885096" lon="11.0060092"><ele>605.0</ele><time>2026-04-04T11:46:41.376Z</time></trkpt><trkpt lat="44.388605" lon="11.0061097"><ele>604.0</ele><time>2026-04-04T11:46:42.372Z</time></trkpt><trkpt lat="44.3887004" lon="11.0062175"><ele>604.0</ele><time>2026-04-04T11:46:43.383Z</time></trkpt><trkpt lat="44.388802" lon="11.0063135"><ele>604.0</ele><time>2026-04-04T11:46:44.382Z</time></trkpt><trkpt lat="44.3889094" lon="11.0063905"><ele>604.0</ele><time>2026-04-04T11:46:45.377Z</time></trkpt><trkpt lat="44.3890255" lon="11.0064524"><ele>604.0</ele><time>2026-04-04T11:46:46.383Z</time></trkpt><trkpt lat="44.389147" lon="11.0064935"><ele>600.25</ele><time>2026-04-04T11:46:47.374Z</time></trkpt><trkpt lat="44.3892723" lon="11.0065153"><ele>596.5</ele><time>2026-04-04T11:46:48.381Z</time></trkpt><trkpt lat="44.3894003" lon="11.0065332"><ele>592.75</ele><time>2026-04-04T11:46:49.378Z</time></trkpt><trkpt lat="44.389529" lon="11.0065548"><ele>589.0</ele><time>2026-04-04T11:46:50.377Z</time></trkpt><trkpt lat="44.3896577" lon="11.0065777"><ele>587.25</ele><time>2026-04-04T11:46:51.38Z</time></trkpt><trkpt lat="44.3897883" lon="11.0066"><ele>585.5</ele><time>2026-04-04T11:46:52.382Z</time></trkpt><trkpt lat="44.3899188" lon="11.0066167"><ele>583.75</ele><time>2026-04-04T11:46:53.375Z</time></trkpt><trkpt lat="44.3900483" lon="11.0066338"><ele>582.0</ele><time>2026-04-04T11:46:54.381Z</time></trkpt><trkpt lat="44.3901767" lon="11.0066494"><ele>582.75</ele><time>2026-04-04T11:46:55.378Z</time></trkpt><trkpt lat="44.3903066" lon="11.0066687"><ele>583.5</ele><time>2026-04-04T11:46:56.388Z</time></trkpt><trkpt lat="44.3904309" lon="11.0067014"><ele>584.25</ele><time>2026-04-04T11:46:57.374Z</time></trkpt><trkpt lat="44.3905531" lon="11.0067366"><ele>585.0</ele><time>2026-04-04T11:46:58.37Z</time></trkpt><trkpt lat="44.3906694" lon="11.0067965"><ele>585.0</ele><time>2026-04-04T11:46:59.377Z</time></trkpt><trkpt lat="44.3907781" lon="11.0068672"><ele>585.0</ele><time>2026-04-04T11:47:00.365Z</time></trkpt><trkpt lat="44.3908828" lon="11.0069288"><ele>585.0</ele><time>2026-04-04T11:47:01.369Z</time></trkpt><trkpt lat="44.3909868" lon="11.0069811"><ele>585.0</ele><time>2026-04-04T11:47:02.383Z</time></trkpt><trkpt lat="44.3910926" lon="11.0070144"><ele>585.0</ele><time>2026-04-04T11:47:03.385Z</time></trkpt><trkpt lat="44.3911967" lon="11.0070213"><ele>585.0</ele><time>2026-04-04T11:47:04.37Z</time></trkpt><trkpt lat="44.3912984" lon="11.0070115"><ele>585.0</ele><time>2026-04-04T11:47:05.378Z</time></trkpt><trkpt lat="44.3913977" lon="11.0069904"><ele>585.0</ele><time>2026-04-04T11:47:06.379Z</time></trkpt><trkpt lat="44.3914937" lon="11.0069651"><ele>585.0</ele><time>2026-04-04T11:47:07.368Z</time></trkpt><trkpt lat="44.391587" lon="11.0069373"><ele>584.4</ele><time>2026-04-04T11:47:08.369Z</time></trkpt><trkpt lat="44.3916793" lon="11.0069078"><ele>583.8</ele><time>2026-04-04T11:47:09.377Z</time></trkpt><trkpt lat="44.3917688" lon="11.0068683"><ele>583.2</ele><time>2026-04-04T11:47:10.381Z</time></trkpt><trkpt lat="44.3918535" lon="11.0068113"><ele>582.6</ele><time>2026-04-04T11:47:11.356Z</time></trkpt><trkpt lat="44.3919325" lon="11.0067412"><ele>582.0</ele><time>2026-04-04T11:47:12.386Z</time></trkpt><trkpt lat="44.3920113" lon="11.0066706"><ele>581.8000000000001</ele><time>2026-04-04T11:47:13.389Z</time></trkpt><trkpt lat="44.3920831" lon="11.006591"><ele>581.6</ele><time>2026-04-04T11:47:14.384Z</time></trkpt><trkpt lat="44.3921551" lon="11.0065096"><ele>581.4000000000001</ele><time>2026-04-04T11:47:15.38Z</time></trkpt><trkpt lat="44.3922337" lon="11.0064305"><ele>581.2</ele><time>2026-04-04T11:47:16.379Z</time></trkpt><trkpt lat="44.3923096" lon="11.0063521"><ele>581.0</ele><time>2026-04-04T11:47:17.37Z</time></trkpt><trkpt lat="44.3923943" lon="11.0062939"><ele>581.0</ele><time>2026-04-04T11:47:18.381Z</time></trkpt><trkpt lat="44.3924814" lon="11.0062426"><ele>581.0</ele><time>2026-04-04T11:47:19.381Z</time></trkpt><trkpt lat="44.3925713" lon="11.0062065"><ele>581.0</ele><time>2026-04-04T11:47:20.374Z</time></trkpt><trkpt lat="44.392663" lon="11.00619"><ele>581.0</ele><time>2026-04-04T11:47:21.378Z</time></trkpt><trkpt lat="44.3927562" lon="11.006171"><ele>581.0</ele><time>2026-04-04T11:47:22.393Z</time></trkpt><trkpt lat="44.3928517" lon="11.0061724"><ele>581.0</ele><time>2026-04-04T11:47:23.381Z</time></trkpt><trkpt lat="44.3929428" lon="11.0061886"><ele>581.0</ele><time>2026-04-04T11:47:24.378Z</time></trkpt><trkpt lat="44.3930352" lon="11.0062033"><ele>581.0</ele><time>2026-04-04T11:47:25.376Z</time></trkpt><trkpt lat="44.3931283" lon="11.0062182"><ele>581.0</ele><time>2026-04-04T11:47:26.376Z</time></trkpt><trkpt lat="44.39322" lon="11.0062288"><ele>581.0</ele><time>2026-04-04T11:47:27.373Z</time></trkpt><trkpt lat="44.3933115" lon="11.0062191"><ele>581.6666666666666</ele><time>2026-04-04T11:47:28.379Z</time></trkpt><trkpt lat="44.3934" lon="11.0061927"><ele>582.3333333333333</ele><time>2026-04-04T11:47:29.382Z</time></trkpt><trkpt lat="44.3934838" lon="11.0061522"><ele>583.0</ele><time>2026-04-04T11:47:30.384Z</time></trkpt><trkpt lat="44.3935663" lon="11.0061134"><ele>583.6666666666666</ele><time>2026-04-04T11:47:31.379Z</time></trkpt><trkpt lat="44.3936505" lon="11.0060787"><ele>584.3333333333334</ele><time>2026-04-04T11:47:32.369Z</time></trkpt><trkpt lat="44.3937345" lon="11.0060553"><ele>585.0</ele><time>2026-04-04T11:47:33.375Z</time></trkpt><trkpt lat="44.3938195" lon="11.0060417"><ele>585.1666666666666</ele><time>2026-04-04T11:47:34.381Z</time></trkpt><trkpt lat="44.3939019" lon="11.0060302"><ele>585.3333333333334</ele><time>2026-04-04T11:47:35.372Z</time></trkpt><trkpt lat="44.3939801" lon="11.0060306"><ele>585.5</ele><time>2026-04-04T11:47:36.383Z</time></trkpt><trkpt lat="44.3940566" lon="11.0060557"><ele>585.6666666666667</ele><time>2026-04-04T11:47:37.377Z</time></trkpt><trkpt lat="44.3941315" lon="11.0060969"><ele>585.8333333333334</ele><time>2026-04-04T11:47:38.376Z</time></trkpt><trkpt lat="44.3942008" lon="11.0061531"><ele>586.0</ele><time>2026-04-04T11:47:39.381Z</time></trkpt><trkpt lat="44.3942665" lon="11.0062171"><ele>586.0</ele><time>2026-04-04T11:47:40.384Z</time></trkpt><trkpt lat="44.3943273" lon="11.0062902"><ele>586.0</ele><time>2026-04-04T11:47:41.377Z</time></trkpt><trkpt lat="44.3943852" lon="11.0063674"><ele>586.0</ele><time>2026-04-04T11:47:42.375Z</time></trkpt><trkpt lat="44.3944442" lon="11.0064315"><ele>586.0</ele><time>2026-04-04T11:47:43.373Z</time></trkpt><trkpt lat="44.394515" lon="11.0064715"><ele>586.0</ele><time>2026-04-04T11:47:44.366Z</time></trkpt><trkpt lat="44.3945914" lon="11.0064817"><ele>586.0</ele><time>2026-04-04T11:47:45.379Z</time></trkpt><trkpt lat="44.3946669" lon="11.0064606"><ele>586.6666666666667</ele><time>2026-04-04T11:47:46.383Z</time></trkpt><trkpt lat="44.3947404" lon="11.0064219"><ele>587.3333333333334</ele><time>2026-04-04T11:47:47.37Z</time></trkpt><trkpt lat="44.394812" lon="11.006372"><ele>588.0</ele><time>2026-04-04T11:47:48.376Z</time></trkpt><trkpt lat="44.3948825" lon="11.006322"><ele>588.6666666666666</ele><time>2026-04-04T11:47:49.37Z</time></trkpt><trkpt lat="44.3949506" lon="11.0062611"><ele>589.3333333333333</ele><time>2026-04-04T11:47:50.378Z</time></trkpt><trkpt lat="44.3950175" lon="11.006204"><ele>590.0</ele><time>2026-04-04T11:47:51.381Z</time></trkpt><trkpt lat="44.3950833" lon="11.0061495"><ele>590.0</ele><time>2026-04-04T11:47:52.368Z</time></trkpt><trkpt lat="44.3951519" lon="11.0061017"><ele>590.0</ele><time>2026-04-04T11:47:53.379Z</time></trkpt><trkpt lat="44.3952228" lon="11.0060624"><ele>590.0</ele><time>2026-04-04T11:47:54.366Z</time></trkpt><trkpt lat="44.3952973" lon="11.0060308"><ele>590.0</ele><time>2026-04-04T11:47:55.377Z</time></trkpt><trkpt lat="44.3953726" lon="11.0059987"><ele>590.0</ele><time>2026-04-04T11:47:56.374Z</time></trkpt><trkpt lat="44.395451" lon="11.005977"><ele>590.0</ele><time>2026-04-04T11:47:57.374Z</time></trkpt><trkpt lat="44.3955292" lon="11.0059753"><ele>590.3333333333333</ele><time>2026-04-04T11:47:58.389Z</time></trkpt><trkpt lat="44.3956064" lon="11.0059913"><ele>590.6666666666666</ele><time>2026-04-04T11:47:59.369Z</time></trkpt><trkpt lat="44.3956861" lon="11.0060157"><ele>591.0</ele><time>2026-04-04T11:48:00.382Z</time></trkpt><trkpt lat="44.3957657" lon="11.0060448"><ele>591.3333333333334</ele><time>2026-04-04T11:48:01.382Z</time></trkpt><trkpt lat="44.3958411" lon="11.0060618"><ele>591.6666666666667</ele><time>2026-04-04T11:48:02.386Z</time></trkpt><trkpt lat="44.3959159" lon="11.0060761"><ele>592.0</ele><time>2026-04-04T11:48:03.381Z</time></trkpt><trkpt lat="44.3959901" lon="11.0060723"><ele>592.0</ele><time>2026-04-04T11:48:04.382Z</time></trkpt><trkpt lat="44.3960639" lon="11.006057"><ele>592.0</ele><time>2026-04-04T11:48:05.381Z</time></trkpt><trkpt lat="44.3961399" lon="11.0060411"><ele>592.0</ele><time>2026-04-04T11:48:06.375Z</time></trkpt><trkpt lat="44.3962142" lon="11.0060182"><ele>592.0</ele><time>2026-04-04T11:48:07.385Z</time></trkpt><trkpt lat="44.3962902" lon="11.0060001"><ele>592.0</ele><time>2026-04-04T11:48:08.381Z</time></trkpt><trkpt lat="44.3963707" lon="11.0059898"><ele>592.0</ele><time>2026-04-04T11:48:09.373Z</time></trkpt><trkpt lat="44.3964496" lon="11.0059872"><ele>591.7142857142858</ele><time>2026-04-04T11:48:10.393Z</time></trkpt><trkpt lat="44.3965284" lon="11.0059884"><ele>591.4285714285714</ele><time>2026-04-04T11:48:11.378Z</time></trkpt><trkpt lat="44.3966043" lon="11.0059939"><ele>591.1428571428571</ele><time>2026-04-04T11:48:12.38Z</time></trkpt><trkpt lat="44.3966796" lon="11.0060007"><ele>590.8571428571429</ele><time>2026-04-04T11:48:13.368Z</time></trkpt><trkpt lat="44.3967529" lon="11.0060048"><ele>590.5714285714286</ele><time>2026-04-04T11:48:14.382Z</time></trkpt><trkpt lat="44.3968257" lon="11.0060098"><ele>590.2857142857143</ele><time>2026-04-04T11:48:15.378Z</time></trkpt><trkpt lat="44.3968985" lon="11.0060159"><ele>590.0</ele><time>2026-04-04T11:48:16.368Z</time></trkpt><trkpt lat="44.3969726" lon="11.0060232"><ele>590.0000000000001</ele><time>2026-04-04T11:48:17.371Z</time></trkpt><trkpt lat="44.3970457" lon="11.0060327"><ele>590.0</ele><time>2026-04-04T11:48:18.388Z</time></trkpt><trkpt lat="44.3971167" lon="11.0060449"><ele>590.0</ele><time>2026-04-04T11:48:19.376Z</time></trkpt><trkpt lat="44.3971881" lon="11.0060589"><ele>590.0</ele><time>2026-04-04T11:48:20.372Z</time></trkpt><trkpt lat="44.3972595" lon="11.0060746"><ele>590.0</ele><time>2026-04-04T11:48:21.38Z</time></trkpt><trkpt lat="44.3973299" lon="11.0060914"><ele>590.0000000000001</ele><time>2026-04-04T11:48:22.37Z</time></trkpt><trkpt lat="44.3974028" lon="11.0061145"><ele>590.0</ele><time>2026-04-04T11:48:23.368Z</time></trkpt><trkpt lat="44.3974762" lon="11.0061403"><ele>590.1428571428572</ele><time>2026-04-04T11:48:24.384Z</time></trkpt><trkpt lat="44.3975492" lon="11.0061694"><ele>590.2857142857143</ele><time>2026-04-04T11:48:25.382Z</time></trkpt><trkpt lat="44.3976193" lon="11.0061977"><ele>590.4285714285714</ele><time>2026-04-04T11:48:26.373Z</time></trkpt><trkpt lat="44.3976887" lon="11.0062381"><ele>590.5714285714287</ele><time>2026-04-04T11:48:27.369Z</time></trkpt><trkpt lat="44.3977555" lon="11.006278"><ele>590.7142857142858</ele><time>2026-04-04T11:48:28.364Z</time></trkpt><trkpt lat="44.397816" lon="11.0063412"><ele>590.8571428571429</ele><time>2026-04-04T11:48:29.368Z</time></trkpt><trkpt lat="44.3978732" lon="11.0064075"><ele>591.0</ele><time>2026-04-04T11:48:30.371Z</time></trkpt><trkpt lat="44.3979262" lon="11.0064858"><ele>591.0</ele><time>2026-04-04T11:48:31.376Z</time></trkpt><trkpt lat="44.397979" lon="11.0065644"><ele>591.0</ele><time>2026-04-04T11:48:32.372Z</time></trkpt><trkpt lat="44.39803" lon="11.0066457"><ele>591.0</ele><time>2026-04-04T11:48:33.373Z</time></trkpt><trkpt lat="44.3980798" lon="11.0067299"><ele>591.0</ele><time>2026-04-04T11:48:34.373Z</time></trkpt><trkpt lat="44.3981276" lon="11.0068155"><ele>591.0</ele><time>2026-04-04T11:48:35.381Z</time></trkpt><trkpt lat="44.398172" lon="11.0069073"><ele>591.0</ele><time>2026-04-04T11:48:36.381Z</time></trkpt><trkpt lat="44.3982161" lon="11.0070023"><ele>589.5</ele><time>2026-04-04T11:48:37.385Z</time></trkpt><trkpt lat="44.3982594" lon="11.007097"><ele>588.0</ele><time>2026-04-04T11:48:38.375Z</time></trkpt><trkpt lat="44.3983019" lon="11.0071894"><ele>586.5</ele><time>2026-04-04T11:48:39.375Z</time></trkpt><trkpt lat="44.3983439" lon="11.0072813"><ele>585.0</ele><time>2026-04-04T11:48:40.385Z</time></trkpt><trkpt lat="44.3983871" lon="11.0073778"><ele>583.5</ele><time>2026-04-04T11:48:41.378Z</time></trkpt><trkpt lat="44.3984327" lon="11.0074777"><ele>582.0</ele><time>2026-04-04T11:48:42.375Z</time></trkpt><trkpt lat="44.398483" lon="11.0075762"><ele>580.5</ele><time>2026-04-04T11:48:43.377Z</time></trkpt><trkpt lat="44.3985434" lon="11.0076648"><ele>579.0</ele><time>2026-04-04T11:48:44.379Z</time></trkpt><trkpt lat="44.3986203" lon="11.0077212"><ele>577.5</ele><time>2026-04-04T11:48:45.374Z</time></trkpt><trkpt lat="44.3987078" lon="11.0077378"><ele>576.0</ele><time>2026-04-04T11:48:46.376Z</time></trkpt><trkpt lat="44.3987996" lon="11.0077166"><ele>574.5</ele><time>2026-04-04T11:48:47.375Z</time></trkpt><trkpt lat="44.3988843" lon="11.0076611"><ele>573.0</ele><time>2026-04-04T11:48:48.375Z</time></trkpt><trkpt lat="44.3989649" lon="11.0075919"><ele>573.0</ele><time>2026-04-04T11:48:49.373Z</time></trkpt><trkpt lat="44.3990474" lon="11.0075207"><ele>573.0</ele><time>2026-04-04T11:48:50.364Z</time></trkpt><trkpt lat="44.3991305" lon="11.0074477"><ele>573.0</ele><time>2026-04-04T11:48:51.372Z</time></trkpt><trkpt lat="44.3992168" lon="11.0073752"><ele>573.0</ele><time>2026-04-04T11:48:52.379Z</time></trkpt><trkpt lat="44.3993073" lon="11.0073117"><ele>573.0</ele><time>2026-04-04T11:48:53.38Z</time></trkpt><trkpt lat="44.3994043" lon="11.0072739"><ele>574.0</ele><time>2026-04-04T11:48:54.374Z</time></trkpt><trkpt lat="44.3995071" lon="11.0072746"><ele>575.0</ele><time>2026-04-04T11:48:55.37Z</time></trkpt><trkpt lat="44.3996078" lon="11.0073027"><ele>576.0</ele><time>2026-04-04T11:48:56.373Z</time></trkpt><trkpt lat="44.3997083" lon="11.0073336"><ele>577.0</ele><time>2026-04-04T11:48:57.378Z</time></trkpt><trkpt lat="44.399796" lon="11.007408"><ele>578.0</ele><time>2026-04-04T11:48:58.378Z</time></trkpt><trkpt lat="44.3998778" lon="11.0074937"><ele>575.4</ele><time>2026-04-04T11:48:59.374Z</time></trkpt><trkpt lat="44.3999601" lon="11.0075818"><ele>572.8</ele><time>2026-04-04T11:49:00.385Z</time></trkpt><trkpt lat="44.4000449" lon="11.0076607"><ele>570.2</ele><time>2026-04-04T11:49:01.372Z</time></trkpt><trkpt lat="44.4001327" lon="11.0077386"><ele>567.6</ele><time>2026-04-04T11:49:02.378Z</time></trkpt><trkpt lat="44.4002323" lon="11.0077689"><ele>565.0</ele><time>2026-04-04T11:49:03.375Z</time></trkpt><trkpt lat="44.400335" lon="11.0077747"><ele>565.0</ele><time>2026-04-04T11:49:04.378Z</time></trkpt><trkpt lat="44.4004378" lon="11.0077547"><ele>565.0</ele><time>2026-04-04T11:49:05.379Z</time></trkpt><trkpt lat="44.4005402" lon="11.0077208"><ele>565.0</ele><time>2026-04-04T11:49:06.378Z</time></trkpt><trkpt lat="44.400642" lon="11.0076802"><ele>565.0</ele><time>2026-04-04T11:49:07.378Z</time></trkpt><trkpt lat="44.4007433" lon="11.0076401"><ele>565.0</ele><time>2026-04-04T11:49:08.368Z</time></trkpt><trkpt lat="44.4008473" lon="11.0076026"><ele>565.2</ele><time>2026-04-04T11:49:09.376Z</time></trkpt><trkpt lat="44.4009541" lon="11.0075717"><ele>565.4</ele><time>2026-04-04T11:49:10.374Z</time></trkpt><trkpt lat="44.401063" lon="11.0075473"><ele>565.6</ele><time>2026-04-04T11:49:11.386Z</time></trkpt><trkpt lat="44.4011741" lon="11.0075369"><ele>565.8</ele><time>2026-04-04T11:49:12.375Z</time></trkpt><trkpt lat="44.4012845" lon="11.0075285"><ele>566.0</ele><time>2026-04-04T11:49:13.387Z</time></trkpt><trkpt lat="44.4013956" lon="11.0075196"><ele>565.6</ele><time>2026-04-04T11:49:14.372Z</time></trkpt><trkpt lat="44.4015061" lon="11.007506"><ele>565.2</ele><time>2026-04-04T11:49:15.387Z</time></trkpt><trkpt lat="44.4016167" lon="11.0074939"><ele>564.8</ele><time>2026-04-04T11:49:16.373Z</time></trkpt><trkpt lat="44.4017275" lon="11.0074877"><ele>564.4</ele><time>2026-04-04T11:49:17.372Z</time></trkpt><trkpt lat="44.4018347" lon="11.0074838"><ele>564.0</ele><time>2026-04-04T11:49:18.376Z</time></trkpt><trkpt lat="44.4019345" lon="11.007554"><ele>564.0</ele><time>2026-04-04T11:49:19.369Z</time></trkpt><trkpt lat="44.4020149" lon="11.0076614"><ele>564.0</ele><time>2026-04-04T11:49:20.369Z</time></trkpt><trkpt lat="44.4020936" lon="11.0077711"><ele>564.0</ele><time>2026-04-04T11:49:21.377Z</time></trkpt><trkpt lat="44.4021546" lon="11.0079008"><ele>564.0</ele><time>2026-04-04T11:49:22.374Z</time></trkpt><trkpt lat="44.4022145" lon="11.0080317"><ele>564.0</ele><time>2026-04-04T11:49:23.376Z</time></trkpt><trkpt lat="44.4022789" lon="11.0081523"><ele>565.0</ele><time>2026-04-04T11:49:24.366Z</time></trkpt><trkpt lat="44.4023427" lon="11.0082686"><ele>566.0</ele><time>2026-04-04T11:49:25.369Z</time></trkpt><trkpt lat="44.4024323" lon="11.0083518"><ele>567.0</ele><time>2026-04-04T11:49:26.383Z</time></trkpt><trkpt lat="44.4025338" lon="11.0083997"><ele>568.0</ele><time>2026-04-04T11:49:27.376Z</time></trkpt><trkpt lat="44.4026369" lon="11.0084395"><ele>569.0</ele><time>2026-04-04T11:49:28.382Z</time></trkpt><trkpt lat="44.4027425" lon="11.0084137"><ele>566.6</ele><time>2026-04-04T11:49:29.379Z</time></trkpt><trkpt lat="44.4028474" lon="11.0083802"><ele>564.2</ele><time>2026-04-04T11:49:30.373Z</time></trkpt><trkpt lat="44.402952" lon="11.0083508"><ele>561.8000000000001</ele><time>2026-04-04T11:49:31.372Z</time></trkpt><trkpt lat="44.4030524" lon="11.0083359"><ele>559.4</ele><time>2026-04-04T11:49:32.378Z</time></trkpt><trkpt lat="44.4031495" lon="11.0083279"><ele>557.0</ele><time>2026-04-04T11:49:33.371Z</time></trkpt><trkpt lat="44.4032399" lon="11.0083516"><ele>557.0</ele><time>2026-04-04T11:49:34.376Z</time></trkpt><trkpt lat="44.4033311" lon="11.008389"><ele>557.0</ele><time>2026-04-04T11:49:35.379Z</time></trkpt><trkpt lat="44.4034228" lon="11.0084392"><ele>557.0</ele><time>2026-04-04T11:49:36.383Z</time></trkpt><trkpt lat="44.4035071" lon="11.008506"><ele>557.0</ele><time>2026-04-04T11:49:37.372Z</time></trkpt><trkpt lat="44.4035812" lon="11.0085904"><ele>557.0</ele><time>2026-04-04T11:49:38.367Z</time></trkpt><trkpt lat="44.4036469" lon="11.0086868"><ele>557.0</ele><time>2026-04-04T11:49:39.363Z</time></trkpt><trkpt lat="44.4037008" lon="11.0087952"><ele>557.0</ele><time>2026-04-04T11:49:40.371Z</time></trkpt><trkpt lat="44.4037505" lon="11.0089052"><ele>557.0</ele><time>2026-04-04T11:49:41.374Z</time></trkpt><trkpt lat="44.4038039" lon="11.0090105"><ele>557.0</ele><time>2026-04-04T11:49:42.367Z</time></trkpt><trkpt lat="44.4038573" lon="11.0091127"><ele>557.0</ele><time>2026-04-04T11:49:43.369Z</time></trkpt><trkpt lat="44.4039249" lon="11.0091966"><ele>556.2</ele><time>2026-04-04T11:49:44.379Z</time></trkpt><trkpt lat="44.4039981" lon="11.0092736"><ele>555.4000000000001</ele><time>2026-04-04T11:49:45.371Z</time></trkpt><trkpt lat="44.4040754" lon="11.0093471"><ele>554.5999999999999</ele><time>2026-04-04T11:49:46.38Z</time></trkpt><trkpt lat="44.404154" lon="11.0094147"><ele>553.8</ele><time>2026-04-04T11:49:47.38Z</time></trkpt><trkpt lat="44.4042336" lon="11.0094831"><ele>553.0</ele><time>2026-04-04T11:49:48.377Z</time></trkpt><trkpt lat="44.4043064" lon="11.0095661"><ele>553.0</ele><time>2026-04-04T11:49:49.369Z</time></trkpt><trkpt lat="44.4043645" lon="11.0096685"><ele>553.0</ele><time>2026-04-04T11:49:50.369Z</time></trkpt><trkpt lat="44.4044105" lon="11.0097843"><ele>553.0</ele><time>2026-04-04T11:49:51.377Z</time></trkpt><trkpt lat="44.4044552" lon="11.0099029"><ele>553.0</ele><time>2026-04-04T11:49:52.382Z</time></trkpt><trkpt lat="44.4044811" lon="11.0100349"><ele>553.0</ele><time>2026-04-04T11:49:53.381Z</time></trkpt><trkpt lat="44.4044996" lon="11.0101696"><ele>552.4</ele><time>2026-04-04T11:49:54.378Z</time></trkpt><trkpt lat="44.4045161" lon="11.0103014"><ele>551.8</ele><time>2026-04-04T11:49:55.371Z</time></trkpt><trkpt lat="44.4045349" lon="11.0104283"><ele>551.2</ele><time>2026-04-04T11:49:56.377Z</time></trkpt><trkpt lat="44.4045597" lon="11.010547"><ele>550.6</ele><time>2026-04-04T11:49:57.385Z</time></trkpt><trkpt lat="44.4046213" lon="11.0106407"><ele>550.0</ele><time>2026-04-04T11:49:58.376Z</time></trkpt><trkpt lat="44.4047004" lon="11.0106917"><ele>550.0</ele><time>2026-04-04T11:49:59.373Z</time></trkpt><trkpt lat="44.4047877" lon="11.0107095"><ele>550.0</ele><time>2026-04-04T11:50:00.37Z</time></trkpt><trkpt lat="44.4048771" lon="11.0107106"><ele>550.0</ele><time>2026-04-04T11:50:01.377Z</time></trkpt><trkpt lat="44.4049679" lon="11.0107092"><ele>550.0</ele><time>2026-04-04T11:50:02.376Z</time></trkpt><trkpt lat="44.4050594" lon="11.0107089"><ele>550.0</ele><time>2026-04-04T11:50:03.377Z</time></trkpt><trkpt lat="44.4051498" lon="11.0107086"><ele>550.0</ele><time>2026-04-04T11:50:04.387Z</time></trkpt><trkpt lat="44.4052417" lon="11.010711"><ele>550.0</ele><time>2026-04-04T11:50:05.377Z</time></trkpt><trkpt lat="44.4053332" lon="11.0107198"><ele>550.0</ele><time>2026-04-04T11:50:06.384Z</time></trkpt><trkpt lat="44.4054247" lon="11.0107451"><ele>550.0</ele><time>2026-04-04T11:50:07.389Z</time></trkpt><trkpt lat="44.4055136" lon="11.0107783"><ele>550.0</ele><time>2026-04-04T11:50:08.37Z</time></trkpt><trkpt lat="44.4056023" lon="11.0108107"><ele>550.6</ele><time>2026-04-04T11:50:09.385Z</time></trkpt><trkpt lat="44.4056895" lon="11.0108355"><ele>551.2</ele><time>2026-04-04T11:50:10.373Z</time></trkpt><trkpt lat="44.4057796" lon="11.0108595"><ele>551.8</ele><time>2026-04-04T11:50:11.379Z</time></trkpt><trkpt lat="44.4058736" lon="11.0108567"><ele>552.4</ele><time>2026-04-04T11:50:12.368Z</time></trkpt><trkpt lat="44.4059665" lon="11.0108403"><ele>553.0</ele><time>2026-04-04T11:50:13.374Z</time></trkpt><trkpt lat="44.4060594" lon="11.0108234"><ele>553.0</ele><time>2026-04-04T11:50:14.375Z</time></trkpt><trkpt lat="44.4061525" lon="11.0108051"><ele>553.0</ele><time>2026-04-04T11:50:15.379Z</time></trkpt><trkpt lat="44.4062453" lon="11.0107791"><ele>553.0</ele><time>2026-04-04T11:50:16.377Z</time></trkpt><trkpt lat="44.4063361" lon="11.0107447"><ele>553.0</ele><time>2026-04-04T11:50:17.374Z</time></trkpt><trkpt lat="44.4064235" lon="11.0107017"><ele>553.0</ele><time>2026-04-04T11:50:18.37Z</time></trkpt><trkpt lat="44.4065081" lon="11.0106511"><ele>552.4</ele><time>2026-04-04T11:50:19.379Z</time></trkpt><trkpt lat="44.4065893" lon="11.0105942"><ele>551.8</ele><time>2026-04-04T11:50:20.379Z</time></trkpt><trkpt lat="44.4066719" lon="11.0105373"><ele>551.2</ele><time>2026-04-04T11:50:21.369Z</time></trkpt><trkpt lat="44.4067571" lon="11.010496"><ele>550.6</ele><time>2026-04-04T11:50:22.377Z</time></trkpt><trkpt lat="44.4068455" lon="11.0104641"><ele>550.0</ele><time>2026-04-04T11:50:23.373Z</time></trkpt><trkpt lat="44.4069395" lon="11.0104374"><ele>550.0</ele><time>2026-04-04T11:50:24.376Z</time></trkpt><trkpt lat="44.4070351" lon="11.0104216"><ele>550.0</ele><time>2026-04-04T11:50:25.363Z</time></trkpt><trkpt lat="44.4071311" lon="11.0104002"><ele>550.0</ele><time>2026-04-04T11:50:26.375Z</time></trkpt><trkpt lat="44.407229" lon="11.0103985"><ele>550.0</ele><time>2026-04-04T11:50:27.385Z</time></trkpt><trkpt lat="44.407325" lon="11.0104019"><ele>550.0</ele><time>2026-04-04T11:50:28.378Z</time></trkpt><trkpt lat="44.4074223" lon="11.0104068"><ele>549.4</ele><time>2026-04-04T11:50:29.372Z</time></trkpt><trkpt lat="44.4075215" lon="11.0104117"><ele>548.8</ele><time>2026-04-04T11:50:30.375Z</time></trkpt><trkpt lat="44.4076198" lon="11.010429"><ele>548.2</ele><time>2026-04-04T11:50:31.372Z</time></trkpt><trkpt lat="44.4077164" lon="11.010446"><ele>547.6</ele><time>2026-04-04T11:50:32.361Z</time></trkpt><trkpt lat="44.4078104" lon="11.0104805"><ele>547.0</ele><time>2026-04-04T11:50:33.364Z</time></trkpt><trkpt lat="44.407903" lon="11.0105148"><ele>548.0</ele><time>2026-04-04T11:50:34.368Z</time></trkpt><trkpt lat="44.4079952" lon="11.0105494"><ele>549.0</ele><time>2026-04-04T11:50:35.374Z</time></trkpt><trkpt lat="44.4080885" lon="11.0105872"><ele>550.0</ele><time>2026-04-04T11:50:36.379Z</time></trkpt><trkpt lat="44.4081815" lon="11.0106252"><ele>551.0</ele><time>2026-04-04T11:50:37.379Z</time></trkpt><trkpt lat="44.4082737" lon="11.0106675"><ele>552.0</ele><time>2026-04-04T11:50:38.373Z</time></trkpt><trkpt lat="44.4083652" lon="11.0107122"><ele>552.0</ele><time>2026-04-04T11:50:39.383Z</time></trkpt><trkpt lat="44.4084557" lon="11.0107633"><ele>552.0</ele><time>2026-04-04T11:50:40.375Z</time></trkpt><trkpt lat="44.4085462" lon="11.0108203"><ele>552.0</ele><time>2026-04-04T11:50:41.379Z</time></trkpt><trkpt lat="44.408633" lon="11.0108825"><ele>552.0</ele><time>2026-04-04T11:50:42.381Z</time></trkpt><trkpt lat="44.4087173" lon="11.0109513"><ele>552.0</ele><time>2026-04-04T11:50:43.377Z</time></trkpt><trkpt lat="44.4087946" lon="11.0110345"><ele>548.0</ele><time>2026-04-04T11:50:44.378Z</time></trkpt><trkpt lat="44.4088652" lon="11.0111318"><ele>544.0</ele><time>2026-04-04T11:50:45.368Z</time></trkpt><trkpt lat="44.4089341" lon="11.0112273"><ele>540.0</ele><time>2026-04-04T11:50:46.374Z</time></trkpt><trkpt lat="44.4089904" lon="11.0113358"><ele>536.0</ele><time>2026-04-04T11:50:47.377Z</time></trkpt><trkpt lat="44.4090442" lon="11.0114492"><ele>532.0</ele><time>2026-04-04T11:50:48.374Z</time></trkpt><trkpt lat="44.4090987" lon="11.0115658"><ele>530.2</ele><time>2026-04-04T11:50:49.372Z</time></trkpt><trkpt lat="44.4091523" lon="11.0116857"><ele>528.4000000000001</ele><time>2026-04-04T11:50:50.379Z</time></trkpt><trkpt lat="44.4092096" lon="11.0118009"><ele>526.5999999999999</ele><time>2026-04-04T11:50:51.374Z</time></trkpt><trkpt lat="44.4092656" lon="11.011915"><ele>524.8</ele><time>2026-04-04T11:50:52.376Z</time></trkpt><trkpt lat="44.409321" lon="11.0120273"><ele>523.0</ele><time>2026-04-04T11:50:53.367Z</time></trkpt><trkpt lat="44.4093819" lon="11.0121348"><ele>523.0</ele><time>2026-04-04T11:50:54.368Z</time></trkpt><trkpt lat="44.4094461" lon="11.0122368"><ele>523.0</ele><time>2026-04-04T11:50:55.382Z</time></trkpt><trkpt lat="44.409516" lon="11.012332"><ele>523.0</ele><time>2026-04-04T11:50:56.38Z</time></trkpt><trkpt lat="44.4095842" lon="11.0124331"><ele>523.0</ele><time>2026-04-04T11:50:57.373Z</time></trkpt><trkpt lat="44.4096522" lon="11.0125346"><ele>523.0</ele><time>2026-04-04T11:50:58.377Z</time></trkpt><trkpt lat="44.4097195" lon="11.0126392"><ele>520.8</ele><time>2026-04-04T11:50:59.374Z</time></trkpt><trkpt lat="44.4097879" lon="11.012742"><ele>518.5999999999999</ele><time>2026-04-04T11:51:00.379Z</time></trkpt><trkpt lat="44.4098565" lon="11.0128438"><ele>516.4000000000001</ele><time>2026-04-04T11:51:01.37Z</time></trkpt><trkpt lat="44.4099256" lon="11.0129472"><ele>514.2</ele><time>2026-04-04T11:51:02.376Z</time></trkpt><trkpt lat="44.4099942" lon="11.0130502"><ele>512.0</ele><time>2026-04-04T11:51:03.377Z</time></trkpt><trkpt lat="44.4100649" lon="11.0131549"><ele>512.0</ele><time>2026-04-04T11:51:04.375Z</time></trkpt><trkpt lat="44.4101356" lon="11.0132558"><ele>512.0</ele><time>2026-04-04T11:51:05.38Z</time></trkpt><trkpt lat="44.4102086" lon="11.0133602"><ele>512.0</ele><time>2026-04-04T11:51:06.378Z</time></trkpt><trkpt lat="44.4102812" lon="11.0134645"><ele>512.0</ele><time>2026-04-04T11:51:07.375Z</time></trkpt><trkpt lat="44.4103549" lon="11.0135703"><ele>512.0</ele><time>2026-04-04T11:51:08.393Z</time></trkpt><trkpt lat="44.4104317" lon="11.0136828"><ele>510.8</ele><time>2026-04-04T11:51:09.369Z</time></trkpt><trkpt lat="44.4105089" lon="11.0137906"><ele>509.6</ele><time>2026-04-04T11:51:10.378Z</time></trkpt><trkpt lat="44.410593" lon="11.0138954"><ele>508.40000000000003</ele><time>2026-04-04T11:51:11.381Z</time></trkpt><trkpt lat="44.4106784" lon="11.0139985"><ele>507.20000000000005</ele><time>2026-04-04T11:51:12.382Z</time></trkpt><trkpt lat="44.4107687" lon="11.0140968"><ele>506.0</ele><time>2026-04-04T11:51:13.38Z</time></trkpt><trkpt lat="44.4108559" lon="11.0141945"><ele>506.0</ele><time>2026-04-04T11:51:14.382Z</time></trkpt><trkpt lat="44.4109329" lon="11.0143064"><ele>506.0</ele><time>2026-04-04T11:51:15.382Z</time></trkpt><trkpt lat="44.410991" lon="11.0144349"><ele>506.0</ele><time>2026-04-04T11:51:16.377Z</time></trkpt><trkpt lat="44.41104" lon="11.0145746"><ele>506.0</ele><time>2026-04-04T11:51:17.378Z</time></trkpt><trkpt lat="44.4110873" lon="11.0147193"><ele>506.0</ele><time>2026-04-04T11:51:18.374Z</time></trkpt><trkpt lat="44.4111143" lon="11.0148766"><ele>506.0</ele><time>2026-04-04T11:51:19.378Z</time></trkpt><trkpt lat="44.4111212" lon="11.0150366"><ele>506.0</ele><time>2026-04-04T11:51:20.366Z</time></trkpt><trkpt lat="44.4111015" lon="11.0151911"><ele>506.0</ele><time>2026-04-04T11:51:21.383Z</time></trkpt><trkpt lat="44.4110422" lon="11.0153241"><ele>506.0</ele><time>2026-04-04T11:51:22.38Z</time></trkpt><trkpt lat="44.4109551" lon="11.0154425"><ele>506.0</ele><time>2026-04-04T11:51:23.369Z</time></trkpt><trkpt lat="44.4108557" lon="11.0155506"><ele>506.0</ele><time>2026-04-04T11:51:24.368Z</time></trkpt><trkpt lat="44.4107514" lon="11.0156635"><ele>506.0</ele><time>2026-04-04T11:51:25.376Z</time></trkpt><trkpt lat="44.4106464" lon="11.0157779"><ele>506.0</ele><time>2026-04-04T11:51:26.372Z</time></trkpt><trkpt lat="44.4105404" lon="11.0158962"><ele>502.75</ele><time>2026-04-04T11:51:27.371Z</time></trkpt><trkpt lat="44.4104362" lon="11.0160184"><ele>499.5</ele><time>2026-04-04T11:51:28.373Z</time></trkpt><trkpt lat="44.410347" lon="11.0161568"><ele>496.25</ele><time>2026-04-04T11:51:29.378Z</time></trkpt><trkpt lat="44.4102703" lon="11.016308"><ele>493.0</ele><time>2026-04-04T11:51:30.38Z</time></trkpt><trkpt lat="44.4102173" lon="11.0164771"><ele>490.75</ele><time>2026-04-04T11:51:31.375Z</time></trkpt><trkpt lat="44.4101773" lon="11.016654"><ele>488.5</ele><time>2026-04-04T11:51:32.371Z</time></trkpt><trkpt lat="44.4101333" lon="11.0168346"><ele>486.25</ele><time>2026-04-04T11:51:33.372Z</time></trkpt><trkpt lat="44.4100926" lon="11.0170185"><ele>484.0</ele><time>2026-04-04T11:51:34.372Z</time></trkpt><trkpt lat="44.4100543" lon="11.0172024"><ele>484.0</ele><time>2026-04-04T11:51:35.379Z</time></trkpt><trkpt lat="44.4100126" lon="11.01739"><ele>484.0</ele><time>2026-04-04T11:51:36.373Z</time></trkpt><trkpt lat="44.4099686" lon="11.0175765"><ele>484.0</ele><time>2026-04-04T11:51:37.38Z</time></trkpt><trkpt lat="44.4099224" lon="11.0177621"><ele>484.0</ele><time>2026-04-04T11:51:38.38Z</time></trkpt><trkpt lat="44.4098629" lon="11.0179407"><ele>482.0</ele><time>2026-04-04T11:51:39.387Z</time></trkpt><trkpt lat="44.4097822" lon="11.0181038"><ele>480.0</ele><time>2026-04-04T11:51:40.374Z</time></trkpt><trkpt lat="44.4096824" lon="11.0182447"><ele>478.0</ele><time>2026-04-04T11:51:41.376Z</time></trkpt><trkpt lat="44.4095726" lon="11.0183742"><ele>476.0</ele><time>2026-04-04T11:51:42.379Z</time></trkpt><trkpt lat="44.4094628" lon="11.0185048"><ele>474.75</ele><time>2026-04-04T11:51:43.379Z</time></trkpt><trkpt lat="44.4093529" lon="11.0186398"><ele>473.5</ele><time>2026-04-04T11:51:44.375Z</time></trkpt><trkpt lat="44.4092543" lon="11.0187884"><ele>472.25</ele><time>2026-04-04T11:51:45.371Z</time></trkpt><trkpt lat="44.4091675" lon="11.0189472"><ele>471.0</ele><time>2026-04-04T11:51:46.374Z</time></trkpt><trkpt lat="44.4090841" lon="11.019103"><ele>470.75</ele><time>2026-04-04T11:51:47.366Z</time></trkpt><trkpt lat="44.4090061" lon="11.0192451"><ele>470.5</ele><time>2026-04-04T11:51:48.375Z</time></trkpt><trkpt lat="44.408917" lon="11.0193609"><ele>470.25</ele><time>2026-04-04T11:51:49.375Z</time></trkpt><trkpt lat="44.4088202" lon="11.0194488"><ele>470.0</ele><time>2026-04-04T11:51:50.369Z</time></trkpt><trkpt lat="44.4087185" lon="11.0195037"><ele>467.6</ele><time>2026-04-04T11:51:51.373Z</time></trkpt><trkpt lat="44.4086217" lon="11.0195448"><ele>465.2</ele><time>2026-04-04T11:51:52.367Z</time></trkpt><trkpt lat="44.4085294" lon="11.0195899"><ele>462.79999999999995</ele><time>2026-04-04T11:51:53.37Z</time></trkpt><trkpt lat="44.4084455" lon="11.0196457"><ele>460.4</ele><time>2026-04-04T11:51:54.369Z</time></trkpt><trkpt lat="44.4083799" lon="11.0197256"><ele>458.0</ele><time>2026-04-04T11:51:55.373Z</time></trkpt><trkpt lat="44.4083428" lon="11.0198224"><ele>458.0</ele><time>2026-04-04T11:51:56.38Z</time></trkpt><trkpt lat="44.4083313" lon="11.0199322"><ele>457.99999999999994</ele><time>2026-04-04T11:51:57.376Z</time></trkpt><trkpt lat="44.4083504" lon="11.0200427"><ele>457.99999999999994</ele><time>2026-04-04T11:51:58.379Z</time></trkpt><trkpt lat="44.4084172" lon="11.020144"><ele>458.0</ele><time>2026-04-04T11:51:59.373Z</time></trkpt><trkpt lat="44.4084917" lon="11.0202415"><ele>458.0</ele><time>2026-04-04T11:52:00.378Z</time></trkpt><trkpt lat="44.4085676" lon="11.0203393"><ele>457.59999999999997</ele><time>2026-04-04T11:52:01.375Z</time></trkpt><trkpt lat="44.4086396" lon="11.0204345"><ele>457.19999999999993</ele><time>2026-04-04T11:52:02.391Z</time></trkpt><trkpt lat="44.4087124" lon="11.020526"><ele>456.8</ele><time>2026-04-04T11:52:03.383Z</time></trkpt><trkpt lat="44.4087829" lon="11.0206251"><ele>456.4</ele><time>2026-04-04T11:52:04.386Z</time></trkpt><trkpt lat="44.4088517" lon="11.0207272"><ele>456.0</ele><time>2026-04-04T11:52:05.377Z</time></trkpt><trkpt lat="44.4089196" lon="11.0208281"><ele>456.0</ele><time>2026-04-04T11:52:06.375Z</time></trkpt><trkpt lat="44.408987" lon="11.0209252"><ele>456.0</ele><time>2026-04-04T11:52:07.375Z</time></trkpt><trkpt lat="44.4090553" lon="11.0210296"><ele>456.0</ele><time>2026-04-04T11:52:08.376Z</time></trkpt><trkpt lat="44.4091185" lon="11.0211493"><ele>456.0</ele><time>2026-04-04T11:52:09.371Z</time></trkpt><trkpt lat="44.4091607" lon="11.0212856"><ele>456.0</ele><time>2026-04-04T11:52:10.373Z</time></trkpt><trkpt lat="44.4091616" lon="11.0214348"><ele>456.0</ele><time>2026-04-04T11:52:11.38Z</time></trkpt><trkpt lat="44.4091558" lon="11.0215831"><ele>456.0</ele><time>2026-04-04T11:52:12.381Z</time></trkpt><trkpt lat="44.4091058" lon="11.0217168"><ele>456.0</ele><time>2026-04-04T11:52:13.359Z</time></trkpt><trkpt lat="44.4090545" lon="11.021851"><ele>456.0</ele><time>2026-04-04T11:52:14.374Z</time></trkpt><trkpt lat="44.4090102" lon="11.0219864"><ele>456.0</ele><time>2026-04-04T11:52:15.37Z</time></trkpt><trkpt lat="44.4089855" lon="11.0221294"><ele>453.4</ele><time>2026-04-04T11:52:16.37Z</time></trkpt><trkpt lat="44.4089977" lon="11.0222767"><ele>450.8</ele><time>2026-04-04T11:52:17.369Z</time></trkpt><trkpt lat="44.4090522" lon="11.0224109"><ele>448.19999999999993</ele><time>2026-04-04T11:52:18.375Z</time></trkpt><trkpt lat="44.4091238" lon="11.022531"><ele>445.59999999999997</ele><time>2026-04-04T11:52:19.373Z</time></trkpt><trkpt lat="44.4092075" lon="11.0226392"><ele>443.0</ele><time>2026-04-04T11:52:20.369Z</time></trkpt><trkpt lat="44.4093005" lon="11.0227368"><ele>441.5</ele><time>2026-04-04T11:52:21.378Z</time></trkpt><trkpt lat="44.4093994" lon="11.022827"><ele>440.0</ele><time>2026-04-04T11:52:22.379Z</time></trkpt><trkpt lat="44.4095016" lon="11.0229201"><ele>438.5</ele><time>2026-04-04T11:52:23.38Z</time></trkpt><trkpt lat="44.4096066" lon="11.0230035"><ele>437.0</ele><time>2026-04-04T11:52:24.375Z</time></trkpt><trkpt lat="44.409718" lon="11.0230748"><ele>436.75</ele><time>2026-04-04T11:52:25.378Z</time></trkpt><trkpt lat="44.4098347" lon="11.0231442"><ele>436.5</ele><time>2026-04-04T11:52:26.373Z</time></trkpt><trkpt lat="44.4099563" lon="11.023172"><ele>436.25</ele><time>2026-04-04T11:52:27.371Z</time></trkpt><trkpt lat="44.4100804" lon="11.0231849"><ele>436.0</ele><time>2026-04-04T11:52:28.382Z</time></trkpt><trkpt lat="44.4102004" lon="11.0232002"><ele>436.0</ele><time>2026-04-04T11:52:29.375Z</time></trkpt><trkpt lat="44.4103128" lon="11.0232348"><ele>436.0</ele><time>2026-04-04T11:52:30.375Z</time></trkpt><trkpt lat="44.4104225" lon="11.0232759"><ele>436.0</ele><time>2026-04-04T11:52:31.381Z</time></trkpt><trkpt lat="44.4105109" lon="11.0233838"><ele>436.0</ele><time>2026-04-04T11:52:32.372Z</time></trkpt><trkpt lat="44.4105717" lon="11.0235304"><ele>433.0</ele><time>2026-04-04T11:52:33.369Z</time></trkpt><trkpt lat="44.4106094" lon="11.023695"><ele>430.0</ele><time>2026-04-04T11:52:34.374Z</time></trkpt><trkpt lat="44.410656" lon="11.0238472"><ele>427.0</ele><time>2026-04-04T11:52:35.374Z</time></trkpt><trkpt lat="44.4107043" lon="11.0240022"><ele>424.0</ele><time>2026-04-04T11:52:36.373Z</time></trkpt><trkpt lat="44.4107659" lon="11.0241464"><ele>422.25</ele><time>2026-04-04T11:52:37.37Z</time></trkpt><trkpt lat="44.4108304" lon="11.0242875"><ele>420.5</ele><time>2026-04-04T11:52:38.376Z</time></trkpt><trkpt lat="44.4108972" lon="11.0244318"><ele>418.75</ele><time>2026-04-04T11:52:39.371Z</time></trkpt><trkpt lat="44.4109667" lon="11.0245734"><ele>417.0</ele><time>2026-04-04T11:52:40.384Z</time></trkpt><trkpt lat="44.4110382" lon="11.0247063"><ele>417.0</ele><time>2026-04-04T11:52:41.364Z</time></trkpt><trkpt lat="44.4111086" lon="11.0248315"><ele>417.0</ele><time>2026-04-04T11:52:42.368Z</time></trkpt><trkpt lat="44.4111859" lon="11.0249415"><ele>417.0</ele><time>2026-04-04T11:52:43.382Z</time></trkpt><trkpt lat="44.4112731" lon="11.0250222"><ele>417.0</ele><time>2026-04-04T11:52:44.372Z</time></trkpt><trkpt lat="44.4113581" lon="11.0251006"><ele>417.0</ele><time>2026-04-04T11:52:45.377Z</time></trkpt><trkpt lat="44.4114315" lon="11.0251774"><ele>415.0</ele><time>2026-04-04T11:52:46.376Z</time></trkpt><trkpt lat="44.4114696" lon="11.0252925"><ele>413.0</ele><time>2026-04-04T11:52:47.375Z</time></trkpt><trkpt lat="44.411473" lon="11.0254307"><ele>411.0</ele><time>2026-04-04T11:52:48.386Z</time></trkpt><trkpt lat="44.4114414" lon="11.0255647"><ele>409.0</ele><time>2026-04-04T11:52:49.382Z</time></trkpt><trkpt lat="44.4114072" lon="11.0256915"><ele>407.0</ele><time>2026-04-04T11:52:50.384Z</time></trkpt><trkpt lat="44.4113534" lon="11.0257971"><ele>407.20000000000005</ele><time>2026-04-04T11:52:51.377Z</time></trkpt><trkpt lat="44.4112688" lon="11.0258678"><ele>407.4</ele><time>2026-04-04T11:52:52.374Z</time></trkpt><trkpt lat="44.411187" lon="11.0259392"><ele>407.6</ele><time>2026-04-04T11:52:53.372Z</time></trkpt><trkpt lat="44.4111004" lon="11.0260089"><ele>407.79999999999995</ele><time>2026-04-04T11:52:54.375Z</time></trkpt><trkpt lat="44.4110109" lon="11.02608"><ele>408.0</ele><time>2026-04-04T11:52:55.376Z</time></trkpt><trkpt lat="44.4109224" lon="11.0261553"><ele>408.0</ele><time>2026-04-04T11:52:56.381Z</time></trkpt><trkpt lat="44.4108311" lon="11.0262341"><ele>408.0</ele><time>2026-04-04T11:52:57.378Z</time></trkpt><trkpt lat="44.4107402" lon="11.0263141"><ele>408.0</ele><time>2026-04-04T11:52:58.374Z</time></trkpt><trkpt lat="44.4106564" lon="11.0263961"><ele>408.0</ele><time>2026-04-04T11:52:59.373Z</time></trkpt><trkpt lat="44.410573" lon="11.026472"><ele>408.0</ele><time>2026-04-04T11:53:00.373Z</time></trkpt><trkpt lat="44.410497" lon="11.0265455"><ele>403.59999999999997</ele><time>2026-04-04T11:53:01.381Z</time></trkpt><trkpt lat="44.4104217" lon="11.0266201"><ele>399.2</ele><time>2026-04-04T11:53:02.38Z</time></trkpt><trkpt lat="44.4103559" lon="11.0267173"><ele>394.8</ele><time>2026-04-04T11:53:03.38Z</time></trkpt><trkpt lat="44.4103222" lon="11.0268363"><ele>390.4</ele><time>2026-04-04T11:53:04.376Z</time></trkpt><trkpt lat="44.4103421" lon="11.0269587"><ele>386.0</ele><time>2026-04-04T11:53:05.372Z</time></trkpt><trkpt lat="44.4103641" lon="11.0270754"><ele>386.0</ele><time>2026-04-04T11:53:06.38Z</time></trkpt><trkpt lat="44.4104251" lon="11.0271826"><ele>386.0</ele><time>2026-04-04T11:53:07.376Z</time></trkpt><trkpt lat="44.4105003" lon="11.0272754"><ele>386.0</ele><time>2026-04-04T11:53:08.38Z</time></trkpt><trkpt lat="44.4105851" lon="11.0273528"><ele>386.0</ele><time>2026-04-04T11:53:09.381Z</time></trkpt><trkpt lat="44.4106755" lon="11.0274044"><ele>386.0</ele><time>2026-04-04T11:53:10.372Z</time></trkpt><trkpt lat="44.4107699" lon="11.0274231"><ele>389.4</ele><time>2026-04-04T11:53:11.38Z</time></trkpt><trkpt lat="44.4108657" lon="11.0274318"><ele>392.8</ele><time>2026-04-04T11:53:12.38Z</time></trkpt><trkpt lat="44.4109633" lon="11.0274327"><ele>396.2</ele><time>2026-04-04T11:53:13.378Z</time></trkpt><trkpt lat="44.4110611" lon="11.0274183"><ele>399.59999999999997</ele><time>2026-04-04T11:53:14.378Z</time></trkpt><trkpt lat="44.4111552" lon="11.0273995"><ele>403.0</ele><time>2026-04-04T11:53:15.376Z</time></trkpt><trkpt lat="44.4112422" lon="11.0273843"><ele>403.00000000000006</ele><time>2026-04-04T11:53:16.385Z</time></trkpt><trkpt lat="44.4113187" lon="11.0273894"><ele>403.0</ele><time>2026-04-04T11:53:17.378Z</time></trkpt><trkpt lat="44.411379" lon="11.0274255"><ele>403.0</ele><time>2026-04-04T11:53:18.376Z</time></trkpt><trkpt lat="44.4114422" lon="11.0275749"><ele>403.0</ele><time>2026-04-04T11:53:20.379Z</time></trkpt><trkpt lat="44.4114353" lon="11.0276639"><ele>403.00000000000006</ele><time>2026-04-04T11:53:21.377Z</time></trkpt><trkpt lat="44.4114154" lon="11.0277518"><ele>403.0</ele><time>2026-04-04T11:53:22.379Z</time></trkpt><trkpt lat="44.411382" lon="11.0278373"><ele>402.50000000000006</ele><time>2026-04-04T11:53:23.377Z</time></trkpt><trkpt lat="44.4113487" lon="11.0279227"><ele>402.0</ele><time>2026-04-04T11:53:24.377Z</time></trkpt><trkpt lat="44.4113174" lon="11.028018"><ele>401.5</ele><time>2026-04-04T11:53:25.38Z</time></trkpt><trkpt lat="44.411285" lon="11.0281148"><ele>401.0</ele><time>2026-04-04T11:53:26.377Z</time></trkpt><trkpt lat="44.4112517" lon="11.0282181"><ele>400.50000000000006</ele><time>2026-04-04T11:53:27.373Z</time></trkpt><trkpt lat="44.4112259" lon="11.028324"><ele>400.0</ele><time>2026-04-04T11:53:28.379Z</time></trkpt><trkpt lat="44.4112316" lon="11.0284346"><ele>399.00000000000006</ele><time>2026-04-04T11:53:29.376Z</time></trkpt><trkpt lat="44.4112772" lon="11.0285349"><ele>398.0</ele><time>2026-04-04T11:53:30.38Z</time></trkpt><trkpt lat="44.4113339" lon="11.0286282"><ele>397.0</ele><time>2026-04-04T11:53:31.377Z</time></trkpt><trkpt lat="44.4113894" lon="11.028725"><ele>396.0</ele><time>2026-04-04T11:53:32.375Z</time></trkpt><trkpt lat="44.4114475" lon="11.0288207"><ele>395.00000000000006</ele><time>2026-04-04T11:53:33.381Z</time></trkpt><trkpt lat="44.4115095" lon="11.0289173"><ele>394.0</ele><time>2026-04-04T11:53:34.379Z</time></trkpt><trkpt lat="44.4115733" lon="11.0290155"><ele>392.79999999999995</ele><time>2026-04-04T11:53:35.381Z</time></trkpt><trkpt lat="44.4116376" lon="11.0291141"><ele>391.59999999999997</ele><time>2026-04-04T11:53:36.379Z</time></trkpt><trkpt lat="44.4117036" lon="11.0292139"><ele>390.4</ele><time>2026-04-04T11:53:37.374Z</time></trkpt><trkpt lat="44.4117687" lon="11.0293176"><ele>389.2</ele><time>2026-04-04T11:53:38.377Z</time></trkpt><trkpt lat="44.4118281" lon="11.0294181"><ele>388.0</ele><time>2026-04-04T11:53:39.372Z</time></trkpt><trkpt lat="44.4118811" lon="11.0295064"><ele>387.6666666666667</ele><time>2026-04-04T11:53:40.379Z</time></trkpt><trkpt lat="44.4119364" lon="11.0295616"><ele>387.33333333333337</ele><time>2026-04-04T11:53:41.382Z</time></trkpt><trkpt lat="44.4120566" lon="11.0296071"><ele>387.0</ele><time>2026-04-04T11:53:43.372Z</time></trkpt><trkpt lat="44.4121228" lon="11.0295738"><ele>386.66666666666663</ele><time>2026-04-04T11:53:44.378Z</time></trkpt><trkpt lat="44.412174" lon="11.029489"><ele>386.3333333333333</ele><time>2026-04-04T11:53:45.376Z</time></trkpt><trkpt lat="44.4122226" lon="11.0294017"><ele>386.0</ele><time>2026-04-04T11:53:46.381Z</time></trkpt><trkpt lat="44.412265" lon="11.0292909"><ele>384.66666666666663</ele><time>2026-04-04T11:53:47.376Z</time></trkpt><trkpt lat="44.4123101" lon="11.0291849"><ele>383.3333333333333</ele><time>2026-04-04T11:53:48.377Z</time></trkpt><trkpt lat="44.4123595" lon="11.0290788"><ele>382.0</ele><time>2026-04-04T11:53:49.38Z</time></trkpt><trkpt lat="44.4124108" lon="11.0289804"><ele>380.66666666666663</ele><time>2026-04-04T11:53:50.381Z</time></trkpt><trkpt lat="44.41247" lon="11.0289144"><ele>379.3333333333333</ele><time>2026-04-04T11:53:51.382Z</time></trkpt><trkpt lat="44.4125328" lon="11.0288912"><ele>378.0</ele><time>2026-04-04T11:53:52.377Z</time></trkpt><trkpt lat="44.4126486" lon="11.0289474"><ele>378.0</ele><time>2026-04-04T11:53:54.377Z</time></trkpt><trkpt lat="44.4126877" lon="11.0290276"><ele>378.0</ele><time>2026-04-04T11:53:55.374Z</time></trkpt><trkpt lat="44.4126984" lon="11.0291366"><ele>378.0</ele><time>2026-04-04T11:53:56.387Z</time></trkpt><trkpt lat="44.4127087" lon="11.0292481"><ele>378.0</ele><time>2026-04-04T11:53:57.373Z</time></trkpt><trkpt lat="44.4127211" lon="11.0293634"><ele>378.0</ele><time>2026-04-04T11:53:58.37Z</time></trkpt><trkpt lat="44.4127334" lon="11.0294839"><ele>378.0</ele><time>2026-04-04T11:53:59.385Z</time></trkpt><trkpt lat="44.4127459" lon="11.0296108"><ele>377.79999999999995</ele><time>2026-04-04T11:54:00.378Z</time></trkpt><trkpt lat="44.4127438" lon="11.0297406"><ele>377.6</ele><time>2026-04-04T11:54:01.376Z</time></trkpt><trkpt lat="44.4127394" lon="11.029873"><ele>377.4</ele><time>2026-04-04T11:54:02.389Z</time></trkpt><trkpt lat="44.4127139" lon="11.0300025"><ele>377.20000000000005</ele><time>2026-04-04T11:54:03.375Z</time></trkpt><trkpt lat="44.4126832" lon="11.0301247"><ele>377.0</ele><time>2026-04-04T11:54:04.378Z</time></trkpt><trkpt lat="44.4126538" lon="11.0302484"><ele>376.40000000000003</ele><time>2026-04-04T11:54:05.374Z</time></trkpt><trkpt lat="44.4126292" lon="11.0303739"><ele>375.8</ele><time>2026-04-04T11:54:06.377Z</time></trkpt><trkpt lat="44.4126198" lon="11.0305005"><ele>375.2</ele><time>2026-04-04T11:54:07.378Z</time></trkpt><trkpt lat="44.4126275" lon="11.0306314"><ele>374.6</ele><time>2026-04-04T11:54:08.375Z</time></trkpt><trkpt lat="44.4126512" lon="11.0307616"><ele>374.0</ele><time>2026-04-04T11:54:09.376Z</time></trkpt><trkpt lat="44.4126835" lon="11.030894"><ele>372.6</ele><time>2026-04-04T11:54:10.384Z</time></trkpt><trkpt lat="44.4127195" lon="11.0310291"><ele>371.2</ele><time>2026-04-04T11:54:11.375Z</time></trkpt><trkpt lat="44.4127553" lon="11.0311692"><ele>369.8</ele><time>2026-04-04T11:54:12.379Z</time></trkpt><trkpt lat="44.4127937" lon="11.0313137"><ele>368.40000000000003</ele><time>2026-04-04T11:54:13.376Z</time></trkpt><trkpt lat="44.4128379" lon="11.0314564"><ele>367.0</ele><time>2026-04-04T11:54:14.373Z</time></trkpt><trkpt lat="44.4128838" lon="11.0315977"><ele>363.75</ele><time>2026-04-04T11:54:15.388Z</time></trkpt><trkpt lat="44.4129335" lon="11.0317408"><ele>360.5</ele><time>2026-04-04T11:54:16.38Z</time></trkpt><trkpt lat="44.4129894" lon="11.0318824"><ele>357.25</ele><time>2026-04-04T11:54:17.374Z</time></trkpt><trkpt lat="44.4130464" lon="11.032026"><ele>354.0</ele><time>2026-04-04T11:54:18.372Z</time></trkpt><trkpt lat="44.4131075" lon="11.0321687"><ele>353.25</ele><time>2026-04-04T11:54:19.373Z</time></trkpt><trkpt lat="44.4131673" lon="11.0323116"><ele>352.5</ele><time>2026-04-04T11:54:20.378Z</time></trkpt><trkpt lat="44.4132296" lon="11.0324563"><ele>351.75</ele><time>2026-04-04T11:54:21.376Z</time></trkpt><trkpt lat="44.4132896" lon="11.0325956"><ele>351.0</ele><time>2026-04-04T11:54:22.373Z</time></trkpt><trkpt lat="44.4133562" lon="11.032718"><ele>350.75</ele><time>2026-04-04T11:54:23.381Z</time></trkpt><trkpt lat="44.4134378" lon="11.0328189"><ele>350.5</ele><time>2026-04-04T11:54:24.379Z</time></trkpt><trkpt lat="44.4135245" lon="11.0329183"><ele>350.25</ele><time>2026-04-04T11:54:25.38Z</time></trkpt><trkpt lat="44.4136343" lon="11.0329661"><ele>350.0</ele><time>2026-04-04T11:54:26.371Z</time></trkpt><trkpt lat="44.4137484" lon="11.0330124"><ele>346.5</ele><time>2026-04-04T11:54:27.377Z</time></trkpt><trkpt lat="44.4138677" lon="11.0330466"><ele>343.0</ele><time>2026-04-04T11:54:28.371Z</time></trkpt><trkpt lat="44.4139823" lon="11.0330944"><ele>339.5</ele><time>2026-04-04T11:54:29.374Z</time></trkpt><trkpt lat="44.4140934" lon="11.0331664"><ele>336.0</ele><time>2026-04-04T11:54:30.378Z</time></trkpt><trkpt lat="44.4141973" lon="11.0332618"><ele>336.75</ele><time>2026-04-04T11:54:31.382Z</time></trkpt><trkpt lat="44.4142923" lon="11.033376"><ele>337.5</ele><time>2026-04-04T11:54:32.375Z</time></trkpt><trkpt lat="44.4143837" lon="11.0334968"><ele>338.25</ele><time>2026-04-04T11:54:33.378Z</time></trkpt><trkpt lat="44.4144746" lon="11.0336189"><ele>339.0</ele><time>2026-04-04T11:54:34.395Z</time></trkpt><trkpt lat="44.4145659" lon="11.0337412"><ele>337.25</ele><time>2026-04-04T11:54:35.378Z</time></trkpt><trkpt lat="44.4146578" lon="11.0338646"><ele>335.5</ele><time>2026-04-04T11:54:36.376Z</time></trkpt><trkpt lat="44.4147479" lon="11.0339912"><ele>333.75</ele><time>2026-04-04T11:54:37.374Z</time></trkpt><trkpt lat="44.4148356" lon="11.0341162"><ele>332.0</ele><time>2026-04-04T11:54:38.386Z</time></trkpt><trkpt lat="44.4149254" lon="11.0342425"><ele>332.0</ele><time>2026-04-04T11:54:39.38Z</time></trkpt><trkpt lat="44.4150154" lon="11.0343696"><ele>332.0</ele><time>2026-04-04T11:54:40.366Z</time></trkpt><trkpt lat="44.4151053" lon="11.0344966"><ele>332.0</ele><time>2026-04-04T11:54:41.379Z</time></trkpt><trkpt lat="44.4151961" lon="11.0346223"><ele>332.0</ele><time>2026-04-04T11:54:42.371Z</time></trkpt><trkpt lat="44.4152862" lon="11.034748"><ele>332.0</ele><time>2026-04-04T11:54:43.375Z</time></trkpt><trkpt lat="44.4153767" lon="11.0348741"><ele>332.0</ele><time>2026-04-04T11:54:44.373Z</time></trkpt><trkpt lat="44.4154654" lon="11.0350024"><ele>332.0</ele><time>2026-04-04T11:54:45.382Z</time></trkpt><trkpt lat="44.4155505" lon="11.0351345"><ele>332.0</ele><time>2026-04-04T11:54:46.37Z</time></trkpt><trkpt lat="44.4156302" lon="11.0352732"><ele>329.5</ele><time>2026-04-04T11:54:47.375Z</time></trkpt><trkpt lat="44.4156994" lon="11.0354216"><ele>327.0</ele><time>2026-04-04T11:54:48.374Z</time></trkpt><trkpt lat="44.4157566" lon="11.0355746"><ele>324.5</ele><time>2026-04-04T11:54:49.378Z</time></trkpt><trkpt lat="44.415809" lon="11.0357287"><ele>322.0</ele><time>2026-04-04T11:54:50.38Z</time></trkpt><trkpt lat="44.4158615" lon="11.0358798"><ele>322.0</ele><time>2026-04-04T11:54:51.378Z</time></trkpt><trkpt lat="44.4159135" lon="11.0360284"><ele>322.0</ele><time>2026-04-04T11:54:52.375Z</time></trkpt><trkpt lat="44.4159661" lon="11.0361764"><ele>322.0</ele><time>2026-04-04T11:54:53.383Z</time></trkpt><trkpt lat="44.4160282" lon="11.036315"><ele>322.0</ele><time>2026-04-04T11:54:54.375Z</time></trkpt><trkpt lat="44.416099" lon="11.0364456"><ele>322.0</ele><time>2026-04-04T11:54:55.372Z</time></trkpt><trkpt lat="44.4161719" lon="11.0365737"><ele>322.0</ele><time>2026-04-04T11:54:56.384Z</time></trkpt><trkpt lat="44.4162505" lon="11.036692"><ele>322.0</ele><time>2026-04-04T11:54:57.373Z</time></trkpt><trkpt lat="44.4163279" lon="11.0367847"><ele>322.0</ele><time>2026-04-04T11:54:58.372Z</time></trkpt><trkpt lat="44.4163821" lon="11.0368768"><ele>322.0</ele><time>2026-04-04T11:54:59.375Z</time></trkpt><trkpt lat="44.4164078" lon="11.0369694"><ele>322.3333333333333</ele><time>2026-04-04T11:55:00.388Z</time></trkpt><trkpt lat="44.4163738" lon="11.0371062"><ele>322.66666666666663</ele><time>2026-04-04T11:55:02.38Z</time></trkpt><trkpt lat="44.4163161" lon="11.0371544"><ele>323.0</ele><time>2026-04-04T11:55:03.373Z</time></trkpt><trkpt lat="44.416239" lon="11.0371172"><ele>323.3333333333333</ele><time>2026-04-04T11:55:04.375Z</time></trkpt><trkpt lat="44.4161766" lon="11.0370425"><ele>323.6666666666667</ele><time>2026-04-04T11:55:05.381Z</time></trkpt><trkpt lat="44.4161269" lon="11.036949"><ele>324.0</ele><time>2026-04-04T11:55:06.381Z</time></trkpt><trkpt lat="44.4160765" lon="11.036856"><ele>323.6666666666667</ele><time>2026-04-04T11:55:07.381Z</time></trkpt><trkpt lat="44.416021" lon="11.0367649"><ele>323.3333333333333</ele><time>2026-04-04T11:55:08.379Z</time></trkpt><trkpt lat="44.4159656" lon="11.0366819"><ele>323.0</ele><time>2026-04-04T11:55:09.372Z</time></trkpt><trkpt lat="44.4159093" lon="11.0365968"><ele>322.66666666666663</ele><time>2026-04-04T11:55:10.375Z</time></trkpt><trkpt lat="44.4158513" lon="11.0365102"><ele>322.3333333333333</ele><time>2026-04-04T11:55:11.381Z</time></trkpt><trkpt lat="44.415795" lon="11.0364136"><ele>322.0</ele><time>2026-04-04T11:55:12.383Z</time></trkpt><trkpt lat="44.4157364" lon="11.0363174"><ele>322.0</ele><time>2026-04-04T11:55:13.374Z</time></trkpt><trkpt lat="44.4156746" lon="11.0362227"><ele>322.0</ele><time>2026-04-04T11:55:14.371Z</time></trkpt><trkpt lat="44.4156051" lon="11.0361356"><ele>322.0</ele><time>2026-04-04T11:55:15.381Z</time></trkpt><trkpt lat="44.4155251" lon="11.0360651"><ele>322.0</ele><time>2026-04-04T11:55:16.382Z</time></trkpt><trkpt lat="44.4154296" lon="11.0360263"><ele>322.0</ele><time>2026-04-04T11:55:17.376Z</time></trkpt><trkpt lat="44.4153232" lon="11.0360297"><ele>320.8</ele><time>2026-04-04T11:55:18.379Z</time></trkpt><trkpt lat="44.4152138" lon="11.0360604"><ele>319.6</ele><time>2026-04-04T11:55:19.371Z</time></trkpt><trkpt lat="44.4151059" lon="11.0361125"><ele>318.40000000000003</ele><time>2026-04-04T11:55:20.383Z</time></trkpt><trkpt lat="44.4150003" lon="11.0361645"><ele>317.20000000000005</ele><time>2026-04-04T11:55:21.387Z</time></trkpt><trkpt lat="44.4148931" lon="11.0362029"><ele>316.0</ele><time>2026-04-04T11:55:22.38Z</time></trkpt><trkpt lat="44.4147855" lon="11.0362334"><ele>316.0</ele><time>2026-04-04T11:55:23.371Z</time></trkpt><trkpt lat="44.4146774" lon="11.036218"><ele>316.0</ele><time>2026-04-04T11:55:24.376Z</time></trkpt><trkpt lat="44.4145658" lon="11.0361799"><ele>316.0</ele><time>2026-04-04T11:55:25.374Z</time></trkpt><trkpt lat="44.4144609" lon="11.0361249"><ele>316.0</ele><time>2026-04-04T11:55:26.376Z</time></trkpt><trkpt lat="44.4143535" lon="11.0360643"><ele>313.8</ele><time>2026-04-04T11:55:27.379Z</time></trkpt><trkpt lat="44.4142491" lon="11.036008"><ele>311.6</ele><time>2026-04-04T11:55:28.384Z</time></trkpt><trkpt lat="44.4141423" lon="11.0359667"><ele>309.4</ele><time>2026-04-04T11:55:29.396Z</time></trkpt><trkpt lat="44.4140367" lon="11.0359377"><ele>307.2</ele><time>2026-04-04T11:55:30.379Z</time></trkpt><trkpt lat="44.4139311" lon="11.0359155"><ele>305.0</ele><time>2026-04-04T11:55:31.383Z</time></trkpt><trkpt lat="44.4138259" lon="11.0358924"><ele>303.8</ele><time>2026-04-04T11:55:32.371Z</time></trkpt><trkpt lat="44.4137209" lon="11.0358693"><ele>302.6</ele><time>2026-04-04T11:55:33.375Z</time></trkpt><trkpt lat="44.4136123" lon="11.0358461"><ele>301.4</ele><time>2026-04-04T11:55:34.381Z</time></trkpt><trkpt lat="44.4135023" lon="11.0358246"><ele>300.2</ele><time>2026-04-04T11:55:35.382Z</time></trkpt><trkpt lat="44.4133913" lon="11.0358109"><ele>299.0</ele><time>2026-04-04T11:55:36.376Z</time></trkpt><trkpt lat="44.4132761" lon="11.0358258"><ele>299.0</ele><time>2026-04-04T11:55:37.382Z</time></trkpt><trkpt lat="44.4131635" lon="11.0358633"><ele>299.0</ele><time>2026-04-04T11:55:38.373Z</time></trkpt><trkpt lat="44.4130538" lon="11.0359081"><ele>299.0</ele><time>2026-04-04T11:55:39.374Z</time></trkpt><trkpt lat="44.4129447" lon="11.0359518"><ele>299.0</ele><time>2026-04-04T11:55:40.379Z</time></trkpt><trkpt lat="44.4128366" lon="11.0359987"><ele>298.0</ele><time>2026-04-04T11:55:41.383Z</time></trkpt><trkpt lat="44.4127281" lon="11.036042"><ele>297.0</ele><time>2026-04-04T11:55:42.383Z</time></trkpt><trkpt lat="44.4126164" lon="11.0360842"><ele>296.0</ele><time>2026-04-04T11:55:43.381Z</time></trkpt><trkpt lat="44.412504" lon="11.0361165"><ele>295.0</ele><time>2026-04-04T11:55:44.386Z</time></trkpt><trkpt lat="44.4123907" lon="11.0361494"><ele>295.0</ele><time>2026-04-04T11:55:45.377Z</time></trkpt><trkpt lat="44.4122762" lon="11.0361808"><ele>295.0</ele><time>2026-04-04T11:55:46.369Z</time></trkpt><trkpt lat="44.4121593" lon="11.0362103"><ele>295.0</ele><time>2026-04-04T11:55:47.381Z</time></trkpt><trkpt lat="44.4120407" lon="11.036235"><ele>295.0</ele><time>2026-04-04T11:55:48.384Z</time></trkpt><trkpt lat="44.4119209" lon="11.0362523"><ele>294.5</ele><time>2026-04-04T11:55:49.373Z</time></trkpt><trkpt lat="44.4118023" lon="11.0362729"><ele>294.0</ele><time>2026-04-04T11:55:50.386Z</time></trkpt><trkpt lat="44.4116817" lon="11.0362949"><ele>293.5</ele><time>2026-04-04T11:55:51.379Z</time></trkpt><trkpt lat="44.4115598" lon="11.0363062"><ele>293.0</ele><time>2026-04-04T11:55:52.39Z</time></trkpt><trkpt lat="44.4114351" lon="11.0362994"><ele>291.25</ele><time>2026-04-04T11:55:53.379Z</time></trkpt><trkpt lat="44.4113123" lon="11.0362813"><ele>289.5</ele><time>2026-04-04T11:55:54.382Z</time></trkpt><trkpt lat="44.4111917" lon="11.0362627"><ele>287.75</ele><time>2026-04-04T11:55:55.373Z</time></trkpt><trkpt lat="44.411076" lon="11.0362507"><ele>286.0</ele><time>2026-04-04T11:55:56.385Z</time></trkpt><trkpt lat="44.4109616" lon="11.0362423"><ele>286.0</ele><time>2026-04-04T11:55:57.399Z</time></trkpt><trkpt lat="44.4108498" lon="11.0362316"><ele>286.0</ele><time>2026-04-04T11:55:58.378Z</time></trkpt><trkpt lat="44.4107441" lon="11.0362127"><ele>286.0</ele><time>2026-04-04T11:55:59.377Z</time></trkpt><trkpt lat="44.4106456" lon="11.0361951"><ele>286.0</ele><time>2026-04-04T11:56:00.38Z</time></trkpt><trkpt lat="44.4105554" lon="11.0361623"><ele>286.0</ele><time>2026-04-04T11:56:01.373Z</time></trkpt><trkpt lat="44.410472" lon="11.0361296"><ele>285.0</ele><time>2026-04-04T11:56:02.375Z</time></trkpt><trkpt lat="44.4103879" lon="11.0360991"><ele>284.0</ele><time>2026-04-04T11:56:03.375Z</time></trkpt><trkpt lat="44.4103045" lon="11.036096"><ele>283.0</ele><time>2026-04-04T11:56:04.38Z</time></trkpt><trkpt lat="44.4102326" lon="11.03615"><ele>282.0</ele><time>2026-04-04T11:56:05.366Z</time></trkpt><trkpt lat="44.4101636" lon="11.0362108"><ele>281.0</ele><time>2026-04-04T11:56:06.379Z</time></trkpt><trkpt lat="44.4101464" lon="11.0363139"><ele>280.0</ele><time>2026-04-04T11:56:07.38Z</time></trkpt><trkpt lat="44.4101341" lon="11.0364151"><ele>280.0</ele><time>2026-04-04T11:56:08.371Z</time></trkpt><trkpt lat="44.4101778" lon="11.0365051"><ele>280.0</ele><time>2026-04-04T11:56:09.382Z</time></trkpt><trkpt lat="44.4102198" lon="11.0366007"><ele>280.0</ele><time>2026-04-04T11:56:10.391Z</time></trkpt><trkpt lat="44.4102747" lon="11.0366893"><ele>280.0</ele><time>2026-04-04T11:56:11.381Z</time></trkpt><trkpt lat="44.4103317" lon="11.0367816"><ele>280.0</ele><time>2026-04-04T11:56:12.379Z</time></trkpt><trkpt lat="44.4103906" lon="11.0368777"><ele>280.0</ele><time>2026-04-04T11:56:13.38Z</time></trkpt><trkpt lat="44.4104621" lon="11.0369732"><ele>279.2</ele><time>2026-04-04T11:56:14.381Z</time></trkpt><trkpt lat="44.4105372" lon="11.0370622"><ele>278.4</ele><time>2026-04-04T11:56:15.383Z</time></trkpt><trkpt lat="44.4106199" lon="11.0371413"><ele>277.6</ele><time>2026-04-04T11:56:16.376Z</time></trkpt><trkpt lat="44.410703" lon="11.0372155"><ele>276.8</ele><time>2026-04-04T11:56:17.381Z</time></trkpt><trkpt lat="44.4107872" lon="11.0372877"><ele>276.0</ele><time>2026-04-04T11:56:18.381Z</time></trkpt><trkpt lat="44.4108721" lon="11.0373652"><ele>276.0</ele><time>2026-04-04T11:56:19.388Z</time></trkpt><trkpt lat="44.4109577" lon="11.0374454"><ele>276.0</ele><time>2026-04-04T11:56:20.391Z</time></trkpt><trkpt lat="44.4110407" lon="11.0375351"><ele>276.0</ele><time>2026-04-04T11:56:21.381Z</time></trkpt><trkpt lat="44.4111015" lon="11.0376466"><ele>276.0</ele><time>2026-04-04T11:56:22.393Z</time></trkpt><trkpt lat="44.4111386" lon="11.0377758"><ele>276.0</ele><time>2026-04-04T11:56:23.382Z</time></trkpt><trkpt lat="44.4111599" lon="11.0379139"><ele>273.6</ele><time>2026-04-04T11:56:24.383Z</time></trkpt><trkpt lat="44.4111822" lon="11.0380596"><ele>271.20000000000005</ele><time>2026-04-04T11:56:25.386Z</time></trkpt><trkpt lat="44.4111839" lon="11.0382147"><ele>268.79999999999995</ele><time>2026-04-04T11:56:26.375Z</time></trkpt><trkpt lat="44.411171" lon="11.0383665"><ele>266.4</ele><time>2026-04-04T11:56:27.388Z</time></trkpt><trkpt lat="44.4111592" lon="11.0385181"><ele>264.0</ele><time>2026-04-04T11:56:28.373Z</time></trkpt><trkpt lat="44.4111429" lon="11.0386705"><ele>262.8</ele><time>2026-04-04T11:56:29.374Z</time></trkpt><trkpt lat="44.4111223" lon="11.0388199"><ele>261.59999999999997</ele><time>2026-04-04T11:56:30.378Z</time></trkpt><trkpt lat="44.4111109" lon="11.0389675"><ele>260.4</ele><time>2026-04-04T11:56:31.386Z</time></trkpt><trkpt lat="44.4111167" lon="11.0391182"><ele>259.2</ele><time>2026-04-04T11:56:32.389Z</time></trkpt><trkpt lat="44.4111453" lon="11.0392602"><ele>258.0</ele><time>2026-04-04T11:56:33.383Z</time></trkpt><trkpt lat="44.411177" lon="11.0394041"><ele>258.2</ele><time>2026-04-04T11:56:34.382Z</time></trkpt><trkpt lat="44.4112323" lon="11.039535"><ele>258.4</ele><time>2026-04-04T11:56:35.378Z</time></trkpt><trkpt lat="44.411308" lon="11.0396458"><ele>258.59999999999997</ele><time>2026-04-04T11:56:36.385Z</time></trkpt><trkpt lat="44.411382" lon="11.0397514"><ele>258.8</ele><time>2026-04-04T11:56:37.383Z</time></trkpt><trkpt lat="44.4114676" lon="11.039844"><ele>259.0</ele><time>2026-04-04T11:56:38.375Z</time></trkpt><trkpt lat="44.4115536" lon="11.0399407"><ele>257.4</ele><time>2026-04-04T11:56:39.397Z</time></trkpt><trkpt lat="44.411641" lon="11.0400314"><ele>255.79999999999998</ele><time>2026-04-04T11:56:40.367Z</time></trkpt><trkpt lat="44.4117319" lon="11.0401243"><ele>254.20000000000002</ele><time>2026-04-04T11:56:41.382Z</time></trkpt><trkpt lat="44.411822" lon="11.0402132"><ele>252.60000000000002</ele><time>2026-04-04T11:56:42.388Z</time></trkpt><trkpt lat="44.4119103" lon="11.0403009"><ele>251.0</ele><time>2026-04-04T11:56:43.389Z</time></trkpt><trkpt lat="44.4120003" lon="11.0403911"><ele>251.0</ele><time>2026-04-04T11:56:44.381Z</time></trkpt><trkpt lat="44.4120901" lon="11.0404803"><ele>251.00000000000003</ele><time>2026-04-04T11:56:45.369Z</time></trkpt><trkpt lat="44.4121772" lon="11.0405669"><ele>251.00000000000003</ele><time>2026-04-04T11:56:46.372Z</time></trkpt><trkpt lat="44.412265" lon="11.0406525"><ele>251.0</ele><time>2026-04-04T11:56:47.382Z</time></trkpt><trkpt lat="44.4123529" lon="11.0407374"><ele>251.0</ele><time>2026-04-04T11:56:48.369Z</time></trkpt><trkpt lat="44.4124404" lon="11.0408222"><ele>249.8</ele><time>2026-04-04T11:56:49.382Z</time></trkpt><trkpt lat="44.4125267" lon="11.0409089"><ele>248.60000000000002</ele><time>2026-04-04T11:56:50.368Z</time></trkpt><trkpt lat="44.4126134" lon="11.0409975"><ele>247.4</ele><time>2026-04-04T11:56:51.372Z</time></trkpt><trkpt lat="44.4126982" lon="11.0410872"><ele>246.2</ele><time>2026-04-04T11:56:52.382Z</time></trkpt><trkpt lat="44.4127826" lon="11.0411728"><ele>245.0</ele><time>2026-04-04T11:56:53.372Z</time></trkpt><trkpt lat="44.412866" lon="11.0412583"><ele>245.0</ele><time>2026-04-04T11:56:54.367Z</time></trkpt><trkpt lat="44.4129475" lon="11.0413399"><ele>245.0</ele><time>2026-04-04T11:56:55.358Z</time></trkpt><trkpt lat="44.413027" lon="11.0414211"><ele>245.0</ele><time>2026-04-04T11:56:56.375Z</time></trkpt><trkpt lat="44.4131055" lon="11.0415033"><ele>245.0</ele><time>2026-04-04T11:56:57.375Z</time></trkpt><trkpt lat="44.4131809" lon="11.0415853"><ele>245.0</ele><time>2026-04-04T11:56:58.382Z</time></trkpt><trkpt lat="44.4132536" lon="11.0416653"><ele>244.16666666666669</ele><time>2026-04-04T11:56:59.377Z</time></trkpt><trkpt lat="44.4133251" lon="11.0417439"><ele>243.33333333333334</ele><time>2026-04-04T11:57:00.373Z</time></trkpt><trkpt lat="44.4133948" lon="11.041819"><ele>242.5</ele><time>2026-04-04T11:57:01.374Z</time></trkpt><trkpt lat="44.4134627" lon="11.041893"><ele>241.66666666666669</ele><time>2026-04-04T11:57:02.38Z</time></trkpt><trkpt lat="44.4135292" lon="11.041964"><ele>240.83333333333334</ele><time>2026-04-04T11:57:03.378Z</time></trkpt><trkpt lat="44.4135971" lon="11.0420356"><ele>240.0</ele><time>2026-04-04T11:57:04.37Z</time></trkpt><trkpt lat="44.4136648" lon="11.0421075"><ele>240.0</ele><time>2026-04-04T11:57:05.373Z</time></trkpt><trkpt lat="44.4137324" lon="11.0421793"><ele>240.0</ele><time>2026-04-04T11:57:06.377Z</time></trkpt><trkpt lat="44.4137988" lon="11.0422509"><ele>240.0</ele><time>2026-04-04T11:57:07.377Z</time></trkpt><trkpt lat="44.4138646" lon="11.042323"><ele>240.0</ele><time>2026-04-04T11:57:08.366Z</time></trkpt><trkpt lat="44.4139335" lon="11.0424014"><ele>240.0</ele><time>2026-04-04T11:57:09.388Z</time></trkpt><trkpt lat="44.4139956" lon="11.0424829"><ele>240.0</ele><time>2026-04-04T11:57:10.377Z</time></trkpt><trkpt lat="44.4140533" lon="11.0425657"><ele>240.33333333333334</ele><time>2026-04-04T11:57:11.371Z</time></trkpt><trkpt lat="44.4141117" lon="11.0426512"><ele>240.66666666666669</ele><time>2026-04-04T11:57:12.363Z</time></trkpt><trkpt lat="44.4141693" lon="11.0427383"><ele>241.0</ele><time>2026-04-04T11:57:13.378Z</time></trkpt><trkpt lat="44.4142236" lon="11.0428292"><ele>241.33333333333334</ele><time>2026-04-04T11:57:14.379Z</time></trkpt><trkpt lat="44.4142788" lon="11.0429176"><ele>241.66666666666669</ele><time>2026-04-04T11:57:15.371Z</time></trkpt><trkpt lat="44.4143364" lon="11.0430086"><ele>242.0</ele><time>2026-04-04T11:57:16.386Z</time></trkpt><trkpt lat="44.4143948" lon="11.0430996"><ele>242.00000000000003</ele><time>2026-04-04T11:57:17.38Z</time></trkpt><trkpt lat="44.4144517" lon="11.04319"><ele>242.0</ele><time>2026-04-04T11:57:18.382Z</time></trkpt><trkpt lat="44.4145088" lon="11.0432831"><ele>242.0</ele><time>2026-04-04T11:57:19.369Z</time></trkpt><trkpt lat="44.4145669" lon="11.043376"><ele>242.0</ele><time>2026-04-04T11:57:20.373Z</time></trkpt><trkpt lat="44.4146258" lon="11.0434666"><ele>242.00000000000003</ele><time>2026-04-04T11:57:21.369Z</time></trkpt><trkpt lat="44.4146837" lon="11.0435575"><ele>242.0</ele><time>2026-04-04T11:57:22.369Z</time></trkpt><trkpt lat="44.4147419" lon="11.0436492"><ele>241.83333333333334</ele><time>2026-04-04T11:57:23.379Z</time></trkpt><trkpt lat="44.4148016" lon="11.0437384"><ele>241.66666666666669</ele><time>2026-04-04T11:57:24.375Z</time></trkpt><trkpt lat="44.4148627" lon="11.0438328"><ele>241.5</ele><time>2026-04-04T11:57:25.377Z</time></trkpt><trkpt lat="44.4149196" lon="11.0439242"><ele>241.33333333333331</ele><time>2026-04-04T11:57:26.384Z</time></trkpt><trkpt lat="44.4149772" lon="11.0440161"><ele>241.16666666666666</ele><time>2026-04-04T11:57:27.377Z</time></trkpt><trkpt lat="44.4150358" lon="11.0441121"><ele>241.0</ele><time>2026-04-04T11:57:28.381Z</time></trkpt><trkpt lat="44.4150933" lon="11.044207"><ele>239.99999999999997</ele><time>2026-04-04T11:57:29.383Z</time></trkpt><trkpt lat="44.4151496" lon="11.0443002"><ele>239.0</ele><time>2026-04-04T11:57:30.376Z</time></trkpt><trkpt lat="44.4152053" lon="11.0443905"><ele>238.0</ele><time>2026-04-04T11:57:31.376Z</time></trkpt><trkpt lat="44.4152624" lon="11.0444752"><ele>237.0</ele><time>2026-04-04T11:57:32.377Z</time></trkpt><trkpt lat="44.4153179" lon="11.0445597"><ele>235.99999999999997</ele><time>2026-04-04T11:57:33.376Z</time></trkpt><trkpt lat="44.4153731" lon="11.0446457"><ele>235.0</ele><time>2026-04-04T11:57:34.368Z</time></trkpt><trkpt lat="44.4154286" lon="11.0447294"><ele>234.99999999999997</ele><time>2026-04-04T11:57:35.373Z</time></trkpt><trkpt lat="44.4154835" lon="11.0448156"><ele>235.0</ele><time>2026-04-04T11:57:36.384Z</time></trkpt><trkpt lat="44.4155401" lon="11.0449065"><ele>235.0</ele><time>2026-04-04T11:57:37.38Z</time></trkpt><trkpt lat="44.4155942" lon="11.0449961"><ele>235.0</ele><time>2026-04-04T11:57:38.369Z</time></trkpt><trkpt lat="44.4156488" lon="11.0450838"><ele>234.99999999999997</ele><time>2026-04-04T11:57:39.381Z</time></trkpt><trkpt lat="44.4157051" lon="11.0451712"><ele>235.0</ele><time>2026-04-04T11:57:40.386Z</time></trkpt><trkpt lat="44.4157608" lon="11.0452583"><ele>234.83333333333331</ele><time>2026-04-04T11:57:41.375Z</time></trkpt><trkpt lat="44.4158173" lon="11.0453471"><ele>234.66666666666666</ele><time>2026-04-04T11:57:42.364Z</time></trkpt><trkpt lat="44.4158745" lon="11.0454367"><ele>234.5</ele><time>2026-04-04T11:57:43.374Z</time></trkpt><trkpt lat="44.4159324" lon="11.0455253"><ele>234.33333333333331</ele><time>2026-04-04T11:57:44.378Z</time></trkpt><trkpt lat="44.4159877" lon="11.0456111"><ele>234.16666666666666</ele><time>2026-04-04T11:57:45.375Z</time></trkpt><trkpt lat="44.4160411" lon="11.0456976"><ele>234.0</ele><time>2026-04-04T11:57:46.381Z</time></trkpt><trkpt lat="44.4160948" lon="11.0457836"><ele>234.0</ele><time>2026-04-04T11:57:47.386Z</time></trkpt><trkpt lat="44.4161496" lon="11.0458677"><ele>234.0</ele><time>2026-04-04T11:57:48.387Z</time></trkpt><trkpt lat="44.4162058" lon="11.0459556"><ele>234.0</ele><time>2026-04-04T11:57:49.373Z</time></trkpt><trkpt lat="44.4162608" lon="11.0460431"><ele>234.0</ele><time>2026-04-04T11:57:50.376Z</time></trkpt><trkpt lat="44.4163164" lon="11.0461274"><ele>234.0</ele><time>2026-04-04T11:57:51.372Z</time></trkpt><trkpt lat="44.4163714" lon="11.046213"><ele>234.0</ele><time>2026-04-04T11:57:52.369Z</time></trkpt><trkpt lat="44.4164262" lon="11.0462991"><ele>234.0</ele><time>2026-04-04T11:57:53.376Z</time></trkpt><trkpt lat="44.4164822" lon="11.046384"><ele>234.0</ele><time>2026-04-04T11:57:54.367Z</time></trkpt><trkpt lat="44.4165391" lon="11.046471"><ele>234.0</ele><time>2026-04-04T11:57:55.369Z</time></trkpt><trkpt lat="44.4165952" lon="11.0465603"><ele>234.0</ele><time>2026-04-04T11:57:56.369Z</time></trkpt><trkpt lat="44.4166508" lon="11.0466486"><ele>234.0</ele><time>2026-04-04T11:57:57.376Z</time></trkpt><trkpt lat="44.4167057" lon="11.0467369"><ele>234.0</ele><time>2026-04-04T11:57:58.372Z</time></trkpt><trkpt lat="44.4167564" lon="11.0468311"><ele>233.66666666666666</ele><time>2026-04-04T11:57:59.376Z</time></trkpt><trkpt lat="44.4168001" lon="11.0469327"><ele>233.33333333333331</ele><time>2026-04-04T11:58:00.37Z</time></trkpt><trkpt lat="44.4168378" lon="11.047039"><ele>233.0</ele><time>2026-04-04T11:58:01.379Z</time></trkpt><trkpt lat="44.416875" lon="11.0471479"><ele>232.66666666666666</ele><time>2026-04-04T11:58:02.373Z</time></trkpt><trkpt lat="44.4169044" lon="11.0472609"><ele>232.33333333333331</ele><time>2026-04-04T11:58:03.379Z</time></trkpt><trkpt lat="44.4169353" lon="11.0473745"><ele>232.0</ele><time>2026-04-04T11:58:04.366Z</time></trkpt><trkpt lat="44.4169658" lon="11.0474878"><ele>231.99999999999997</ele><time>2026-04-04T11:58:05.368Z</time></trkpt><trkpt lat="44.4169955" lon="11.0476002"><ele>232.0</ele><time>2026-04-04T11:58:06.373Z</time></trkpt><trkpt lat="44.4170271" lon="11.0477138"><ele>232.0</ele><time>2026-04-04T11:58:07.372Z</time></trkpt><trkpt lat="44.4170625" lon="11.0478225"><ele>232.0</ele><time>2026-04-04T11:58:08.371Z</time></trkpt><trkpt lat="44.4170946" lon="11.0479387"><ele>231.99999999999997</ele><time>2026-04-04T11:58:09.369Z</time></trkpt><trkpt lat="44.4171296" lon="11.0480498"><ele>232.0</ele><time>2026-04-04T11:58:10.375Z</time></trkpt><trkpt lat="44.4171663" lon="11.0481588"><ele>231.99999999999997</ele><time>2026-04-04T11:58:11.37Z</time></trkpt><trkpt lat="44.4172015" lon="11.0482649"><ele>232.0</ele><time>2026-04-04T11:58:12.371Z</time></trkpt><trkpt lat="44.4172361" lon="11.0483712"><ele>232.0</ele><time>2026-04-04T11:58:13.379Z</time></trkpt><trkpt lat="44.4172696" lon="11.0484761"><ele>232.0</ele><time>2026-04-04T11:58:14.374Z</time></trkpt><trkpt lat="44.4173026" lon="11.04858"><ele>231.99999999999997</ele><time>2026-04-04T11:58:15.37Z</time></trkpt><trkpt lat="44.4173332" lon="11.0486855"><ele>232.0</ele><time>2026-04-04T11:58:16.366Z</time></trkpt><trkpt lat="44.4173655" lon="11.0487894"><ele>231.66666666666666</ele><time>2026-04-04T11:58:17.373Z</time></trkpt><trkpt lat="44.4173995" lon="11.0488951"><ele>231.33333333333331</ele><time>2026-04-04T11:58:18.379Z</time></trkpt><trkpt lat="44.4174339" lon="11.0490006"><ele>231.0</ele><time>2026-04-04T11:58:19.394Z</time></trkpt><trkpt lat="44.4174695" lon="11.0491065"><ele>230.66666666666669</ele><time>2026-04-04T11:58:20.379Z</time></trkpt><trkpt lat="44.4175056" lon="11.0492139"><ele>230.33333333333334</ele><time>2026-04-04T11:58:21.378Z</time></trkpt><trkpt lat="44.4175436" lon="11.0493211"><ele>230.0</ele><time>2026-04-04T11:58:22.376Z</time></trkpt><trkpt lat="44.417579" lon="11.0494288"><ele>229.2</ele><time>2026-04-04T11:58:23.37Z</time></trkpt><trkpt lat="44.4176163" lon="11.0495414"><ele>228.4</ele><time>2026-04-04T11:58:24.365Z</time></trkpt><trkpt lat="44.417654" lon="11.0496553"><ele>227.60000000000002</ele><time>2026-04-04T11:58:25.374Z</time></trkpt><trkpt lat="44.4176931" lon="11.0497699"><ele>226.8</ele><time>2026-04-04T11:58:26.378Z</time></trkpt><trkpt lat="44.4177353" lon="11.0498855"><ele>226.0</ele><time>2026-04-04T11:58:27.384Z</time></trkpt><trkpt lat="44.4177759" lon="11.0499965"><ele>225.49999999999997</ele><time>2026-04-04T11:58:28.374Z</time></trkpt><trkpt lat="44.4178159" lon="11.0501074"><ele>225.0</ele><time>2026-04-04T11:58:29.376Z</time></trkpt><trkpt lat="44.4178566" lon="11.0502189"><ele>224.5</ele><time>2026-04-04T11:58:30.365Z</time></trkpt><trkpt lat="44.4178973" lon="11.0503287"><ele>224.0</ele><time>2026-04-04T11:58:31.374Z</time></trkpt><trkpt lat="44.4179358" lon="11.0504386"><ele>223.49999999999997</ele><time>2026-04-04T11:58:32.378Z</time></trkpt><trkpt lat="44.4179759" lon="11.0505472"><ele>223.0</ele><time>2026-04-04T11:58:33.373Z</time></trkpt><trkpt lat="44.4180159" lon="11.0506545"><ele>222.99999999999997</ele><time>2026-04-04T11:58:34.383Z</time></trkpt><trkpt lat="44.4180551" lon="11.0507618"><ele>223.0</ele><time>2026-04-04T11:58:35.382Z</time></trkpt><trkpt lat="44.4180922" lon="11.0508676"><ele>223.0</ele><time>2026-04-04T11:58:36.365Z</time></trkpt><trkpt lat="44.41813" lon="11.0509755"><ele>223.0</ele><time>2026-04-04T11:58:37.372Z</time></trkpt><trkpt lat="44.4181683" lon="11.0510812"><ele>222.99999999999997</ele><time>2026-04-04T11:58:38.37Z</time></trkpt><trkpt lat="44.4182053" lon="11.0511822"><ele>223.0</ele><time>2026-04-04T11:58:39.371Z</time></trkpt><trkpt lat="44.4182435" lon="11.0512837"><ele>223.16666666666666</ele><time>2026-04-04T11:58:40.378Z</time></trkpt><trkpt lat="44.4182808" lon="11.051387"><ele>223.33333333333331</ele><time>2026-04-04T11:58:41.374Z</time></trkpt><trkpt lat="44.4183194" lon="11.051492"><ele>223.5</ele><time>2026-04-04T11:58:42.373Z</time></trkpt><trkpt lat="44.4183571" lon="11.0515957"><ele>223.66666666666669</ele><time>2026-04-04T11:58:43.36Z</time></trkpt><trkpt lat="44.4183933" lon="11.0516982"><ele>223.83333333333334</ele><time>2026-04-04T11:58:44.376Z</time></trkpt><trkpt lat="44.41843" lon="11.0517958"><ele>224.0</ele><time>2026-04-04T11:58:45.369Z</time></trkpt><trkpt lat="44.4184696" lon="11.0518923"><ele>223.50000000000003</ele><time>2026-04-04T11:58:46.354Z</time></trkpt><trkpt lat="44.4185113" lon="11.0519896"><ele>223.0</ele><time>2026-04-04T11:58:47.383Z</time></trkpt><trkpt lat="44.4185543" lon="11.0520797"><ele>222.5</ele><time>2026-04-04T11:58:48.384Z</time></trkpt><trkpt lat="44.4185995" lon="11.0521664"><ele>222.0</ele><time>2026-04-04T11:58:49.372Z</time></trkpt><trkpt lat="44.4186515" lon="11.0522468"><ele>221.50000000000003</ele><time>2026-04-04T11:58:50.35Z</time></trkpt><trkpt lat="44.4187052" lon="11.052331"><ele>221.0</ele><time>2026-04-04T11:58:51.372Z</time></trkpt><trkpt lat="44.4187583" lon="11.0524106"><ele>220.50000000000003</ele><time>2026-04-04T11:58:52.368Z</time></trkpt><trkpt lat="44.4188132" lon="11.0524932"><ele>220.0</ele><time>2026-04-04T11:58:53.374Z</time></trkpt><trkpt lat="44.4188686" lon="11.0525799"><ele>219.5</ele><time>2026-04-04T11:58:54.373Z</time></trkpt><trkpt lat="44.418925" lon="11.0526712"><ele>219.0</ele><time>2026-04-04T11:58:55.367Z</time></trkpt><trkpt lat="44.4189803" lon="11.0527597"><ele>218.50000000000003</ele><time>2026-04-04T11:58:56.38Z</time></trkpt><trkpt lat="44.4190342" lon="11.0528481"><ele>218.0</ele><time>2026-04-04T11:58:57.375Z</time></trkpt><trkpt lat="44.4190881" lon="11.052937"><ele>218.00000000000003</ele><time>2026-04-04T11:58:58.375Z</time></trkpt><trkpt lat="44.4191447" lon="11.0530272"><ele>218.0</ele><time>2026-04-04T11:58:59.375Z</time></trkpt><trkpt lat="44.4192023" lon="11.0531181"><ele>218.0</ele><time>2026-04-04T11:59:00.364Z</time></trkpt><trkpt lat="44.4192609" lon="11.0532112"><ele>218.0</ele><time>2026-04-04T11:59:01.366Z</time></trkpt><trkpt lat="44.4193184" lon="11.0533065"><ele>218.00000000000003</ele><time>2026-04-04T11:59:02.384Z</time></trkpt><trkpt lat="44.4193761" lon="11.0534011"><ele>218.0</ele><time>2026-04-04T11:59:03.375Z</time></trkpt><trkpt lat="44.4194351" lon="11.0534927"><ele>217.83333333333334</ele><time>2026-04-04T11:59:04.368Z</time></trkpt><trkpt lat="44.419494" lon="11.0535843"><ele>217.66666666666669</ele><time>2026-04-04T11:59:05.372Z</time></trkpt><trkpt lat="44.419556" lon="11.0536692"><ele>217.5</ele><time>2026-04-04T11:59:06.37Z</time></trkpt><trkpt lat="44.4196221" lon="11.0537491"><ele>217.33333333333331</ele><time>2026-04-04T11:59:07.366Z</time></trkpt><trkpt lat="44.4196903" lon="11.0538265"><ele>217.16666666666666</ele><time>2026-04-04T11:59:08.37Z</time></trkpt><trkpt lat="44.4197612" lon="11.0538982"><ele>217.0</ele><time>2026-04-04T11:59:09.381Z</time></trkpt><trkpt lat="44.4198321" lon="11.053971"><ele>216.83333333333331</ele><time>2026-04-04T11:59:10.373Z</time></trkpt><trkpt lat="44.4199041" lon="11.054035"><ele>216.66666666666666</ele><time>2026-04-04T11:59:11.37Z</time></trkpt><trkpt lat="44.4199757" lon="11.0540991"><ele>216.5</ele><time>2026-04-04T11:59:12.372Z</time></trkpt><trkpt lat="44.420049" lon="11.0541665"><ele>216.33333333333331</ele><time>2026-04-04T11:59:13.38Z</time></trkpt><trkpt lat="44.4201193" lon="11.0542333"><ele>216.16666666666666</ele><time>2026-04-04T11:59:14.386Z</time></trkpt><trkpt lat="44.420189" lon="11.0543008"><ele>216.0</ele><time>2026-04-04T11:59:15.368Z</time></trkpt><trkpt lat="44.4202584" lon="11.0543688"><ele>216.0</ele><time>2026-04-04T11:59:16.37Z</time></trkpt><trkpt lat="44.4203243" lon="11.0544363"><ele>216.0</ele><time>2026-04-04T11:59:17.368Z</time></trkpt><trkpt lat="44.4203906" lon="11.0545007"><ele>216.0</ele><time>2026-04-04T11:59:18.376Z</time></trkpt><trkpt lat="44.4204564" lon="11.0545645"><ele>216.0</ele><time>2026-04-04T11:59:19.376Z</time></trkpt><trkpt lat="44.4205209" lon="11.0546262"><ele>216.0</ele><time>2026-04-04T11:59:20.376Z</time></trkpt><trkpt lat="44.4205855" lon="11.0546878"><ele>216.0</ele><time>2026-04-04T11:59:21.368Z</time></trkpt><trkpt lat="44.4206487" lon="11.0547483"><ele>215.83333333333334</ele><time>2026-04-04T11:59:22.368Z</time></trkpt><trkpt lat="44.4207122" lon="11.0548081"><ele>215.66666666666669</ele><time>2026-04-04T11:59:23.379Z</time></trkpt><trkpt lat="44.4207766" lon="11.0548684"><ele>215.5</ele><time>2026-04-04T11:59:24.373Z</time></trkpt><trkpt lat="44.420838" lon="11.0549291"><ele>215.33333333333334</ele><time>2026-04-04T11:59:25.377Z</time></trkpt><trkpt lat="44.420899" lon="11.0549914"><ele>215.16666666666669</ele><time>2026-04-04T11:59:26.377Z</time></trkpt><trkpt lat="44.4209598" lon="11.0550597"><ele>215.0</ele><time>2026-04-04T11:59:27.374Z</time></trkpt><trkpt lat="44.4210198" lon="11.0551297"><ele>215.00000000000003</ele><time>2026-04-04T11:59:28.382Z</time></trkpt><trkpt lat="44.4210717" lon="11.0552116"><ele>215.0</ele><time>2026-04-04T11:59:29.382Z</time></trkpt><trkpt lat="44.4211212" lon="11.0552974"><ele>215.0</ele><time>2026-04-04T11:59:30.369Z</time></trkpt><trkpt lat="44.4211678" lon="11.0553829"><ele>215.0</ele><time>2026-04-04T11:59:31.368Z</time></trkpt><trkpt lat="44.4212134" lon="11.0554733"><ele>215.00000000000003</ele><time>2026-04-04T11:59:32.37Z</time></trkpt><trkpt lat="44.4212569" lon="11.0555642"><ele>215.0</ele><time>2026-04-04T11:59:33.368Z</time></trkpt><trkpt lat="44.4212999" lon="11.0556567"><ele>215.33333333333334</ele><time>2026-04-04T11:59:34.372Z</time></trkpt><trkpt lat="44.421344" lon="11.0557508"><ele>215.66666666666669</ele><time>2026-04-04T11:59:35.375Z</time></trkpt><trkpt lat="44.4213854" lon="11.0558387"><ele>216.0</ele><time>2026-04-04T11:59:36.377Z</time></trkpt><trkpt lat="44.4214326" lon="11.0559303"><ele>216.33333333333331</ele><time>2026-04-04T11:59:37.378Z</time></trkpt><trkpt lat="44.4214834" lon="11.0560178"><ele>216.66666666666666</ele><time>2026-04-04T11:59:38.38Z</time></trkpt><trkpt lat="44.4215374" lon="11.0560959"><ele>217.0</ele><time>2026-04-04T11:59:39.374Z</time></trkpt><trkpt lat="44.4215921" lon="11.0561745"><ele>215.83333333333331</ele><time>2026-04-04T11:59:40.369Z</time></trkpt><trkpt lat="44.4216489" lon="11.0562441"><ele>214.66666666666666</ele><time>2026-04-04T11:59:41.371Z</time></trkpt><trkpt lat="44.4217064" lon="11.0563128"><ele>213.5</ele><time>2026-04-04T11:59:42.375Z</time></trkpt><trkpt lat="44.4217656" lon="11.0563802"><ele>212.33333333333331</ele><time>2026-04-04T11:59:43.372Z</time></trkpt><trkpt lat="44.4218267" lon="11.0564442"><ele>211.16666666666666</ele><time>2026-04-04T11:59:44.376Z</time></trkpt><trkpt lat="44.4218875" lon="11.0565106"><ele>210.0</ele><time>2026-04-04T11:59:45.367Z</time></trkpt><trkpt lat="44.4219469" lon="11.0565771"><ele>210.16666666666666</ele><time>2026-04-04T11:59:46.382Z</time></trkpt><trkpt lat="44.4220053" lon="11.0566466"><ele>210.33333333333331</ele><time>2026-04-04T11:59:47.373Z</time></trkpt><trkpt lat="44.4220654" lon="11.0567132"><ele>210.5</ele><time>2026-04-04T11:59:48.378Z</time></trkpt><trkpt lat="44.4221252" lon="11.0567809"><ele>210.66666666666666</ele><time>2026-04-04T11:59:49.374Z</time></trkpt><trkpt lat="44.4221854" lon="11.0568479"><ele>210.83333333333331</ele><time>2026-04-04T11:59:50.37Z</time></trkpt><trkpt lat="44.4222452" lon="11.056917"><ele>211.0</ele><time>2026-04-04T11:59:51.364Z</time></trkpt><trkpt lat="44.4223049" lon="11.0569863"><ele>210.99999999999997</ele><time>2026-04-04T11:59:52.369Z</time></trkpt><trkpt lat="44.4223657" lon="11.0570564"><ele>211.0</ele><time>2026-04-04T11:59:53.365Z</time></trkpt><trkpt lat="44.4224254" lon="11.0571234"><ele>211.0</ele><time>2026-04-04T11:59:54.378Z</time></trkpt><trkpt lat="44.4224857" lon="11.0571918"><ele>211.0</ele><time>2026-04-04T11:59:55.367Z</time></trkpt><trkpt lat="44.4225464" lon="11.0572587"><ele>210.99999999999997</ele><time>2026-04-04T11:59:56.362Z</time></trkpt><trkpt lat="44.4226068" lon="11.0573263"><ele>211.0</ele><time>2026-04-04T11:59:57.38Z</time></trkpt><trkpt lat="44.4226655" lon="11.0573928"><ele>210.85714285714286</ele><time>2026-04-04T11:59:58.374Z</time></trkpt><trkpt lat="44.4227243" lon="11.0574558"><ele>210.71428571428572</ele><time>2026-04-04T11:59:59.383Z</time></trkpt><trkpt lat="44.422782" lon="11.0575193"><ele>210.57142857142856</ele><time>2026-04-04T12:00:00.366Z</time></trkpt><trkpt lat="44.4228386" lon="11.0575859"><ele>210.42857142857144</ele><time>2026-04-04T12:00:01.379Z</time></trkpt><trkpt lat="44.4228947" lon="11.0576487"><ele>210.28571428571428</ele><time>2026-04-04T12:00:02.383Z</time></trkpt><trkpt lat="44.4229498" lon="11.0577118"><ele>210.14285714285714</ele><time>2026-04-04T12:00:03.386Z</time></trkpt><trkpt lat="44.423006" lon="11.0577745"><ele>210.0</ele><time>2026-04-04T12:00:04.39Z</time></trkpt><trkpt lat="44.4230633" lon="11.0578388"><ele>209.57142857142858</ele><time>2026-04-04T12:00:05.38Z</time></trkpt><trkpt lat="44.4231184" lon="11.0579004"><ele>209.14285714285714</ele><time>2026-04-04T12:00:06.396Z</time></trkpt><trkpt lat="44.4231716" lon="11.0579603"><ele>208.71428571428572</ele><time>2026-04-04T12:00:07.386Z</time></trkpt><trkpt lat="44.4232236" lon="11.0580206"><ele>208.28571428571428</ele><time>2026-04-04T12:00:08.367Z</time></trkpt><trkpt lat="44.4232766" lon="11.0580785"><ele>207.85714285714286</ele><time>2026-04-04T12:00:09.377Z</time></trkpt><trkpt lat="44.4233276" lon="11.0581378"><ele>207.42857142857144</ele><time>2026-04-04T12:00:10.376Z</time></trkpt><trkpt lat="44.4233794" lon="11.0581982"><ele>207.0</ele><time>2026-04-04T12:00:11.385Z</time></trkpt><trkpt lat="44.4234317" lon="11.0582588"><ele>207.00000000000003</ele><time>2026-04-04T12:00:12.384Z</time></trkpt><trkpt lat="44.4234844" lon="11.0583195"><ele>207.0</ele><time>2026-04-04T12:00:13.371Z</time></trkpt><trkpt lat="44.4235376" lon="11.0583797"><ele>207.0</ele><time>2026-04-04T12:00:14.379Z</time></trkpt><trkpt lat="44.4235903" lon="11.0584394"><ele>207.0</ele><time>2026-04-04T12:00:15.39Z</time></trkpt><trkpt lat="44.4236422" lon="11.0584992"><ele>207.0</ele><time>2026-04-04T12:00:16.389Z</time></trkpt><trkpt lat="44.4236932" lon="11.0585569"><ele>207.00000000000003</ele><time>2026-04-04T12:00:17.367Z</time></trkpt><trkpt lat="44.4237449" lon="11.0586169"><ele>207.0</ele><time>2026-04-04T12:00:18.382Z</time></trkpt><trkpt lat="44.4238436" lon="11.0587245"><ele>207.0</ele><time>2026-04-04T12:00:20.383Z</time></trkpt><trkpt lat="44.4239444" lon="11.0588047"><ele>207.0</ele><time>2026-04-04T12:00:22.384Z</time></trkpt><trkpt lat="44.4240188" lon="11.0588774"><ele>207.0</ele><time>2026-04-04T12:00:24.38Z</time></trkpt><trkpt lat="44.4240254" lon="11.0589996"><ele>207.0</ele><time>2026-04-04T12:00:26.375Z</time></trkpt><trkpt lat="44.4239801" lon="11.0591109"><ele>207.0</ele><time>2026-04-04T12:00:28.371Z</time></trkpt><trkpt lat="44.423925" lon="11.0592114"><ele>206.85714285714286</ele><time>2026-04-04T12:00:30.385Z</time></trkpt><trkpt lat="44.4238747" lon="11.0593033"><ele>206.71428571428572</ele><time>2026-04-04T12:00:32.373Z</time></trkpt><trkpt lat="44.4238256" lon="11.0593908"><ele>206.57142857142856</ele><time>2026-04-04T12:00:34.373Z</time></trkpt><trkpt lat="44.4237808" lon="11.0594705"><ele>206.42857142857144</ele><time>2026-04-04T12:00:36.372Z</time></trkpt><trkpt lat="44.4237345" lon="11.059542"><ele>206.28571428571428</ele><time>2026-04-04T12:00:39.369Z</time></trkpt><trkpt lat="44.4236711" lon="11.0595696"><ele>206.14285714285714</ele><time>2026-04-04T12:01:43.379Z</time></trkpt><trkpt lat="44.4237161" lon="11.0596342"><ele>206.0</ele><time>2026-04-04T12:03:23.374Z</time></trkpt><trkpt lat="44.4237185" lon="11.0598755"><ele>206.16666666666669</ele><time>2026-04-04T12:03:26.363Z</time></trkpt><trkpt lat="44.4237041" lon="11.059997"><ele>206.33333333333334</ele><time>2026-04-04T12:03:28.385Z</time></trkpt><trkpt lat="44.4236751" lon="11.0601064"><ele>206.5</ele><time>2026-04-04T12:03:30.381Z</time></trkpt><trkpt lat="44.4236231" lon="11.0601908"><ele>206.66666666666669</ele><time>2026-04-04T12:03:32.367Z</time></trkpt><trkpt lat="44.4235756" lon="11.0602621"><ele>206.83333333333334</ele><time>2026-04-04T12:03:34.38Z</time></trkpt><trkpt lat="44.4235263" lon="11.0603241"><ele>207.0</ele><time>2026-04-04T12:03:36.375Z</time></trkpt><trkpt lat="44.4234766" lon="11.0603825"><ele>207.00000000000003</ele><time>2026-04-04T12:03:38.38Z</time></trkpt><trkpt lat="44.4234144" lon="11.0604511"><ele>207.0</ele><time>2026-04-04T12:03:41.365Z</time></trkpt><trkpt lat="44.4233365" lon="11.0605084"><ele>207.0</ele><time>2026-04-04T12:03:45.378Z</time></trkpt><trkpt lat="44.4232753" lon="11.0605556"><ele>207.0</ele><time>2026-04-04T12:03:48.369Z</time></trkpt><trkpt lat="44.423216" lon="11.0605864"><ele>207.0</ele><time>2026-04-04T12:03:51.373Z</time></trkpt><trkpt lat="44.4231572" lon="11.0606339"><ele>207.00000000000003</ele><time>2026-04-04T12:03:55.373Z</time></trkpt><trkpt lat="44.4231112" lon="11.060707"><ele>207.0</ele><time>2026-04-04T12:03:59.38Z</time></trkpt><trkpt lat="44.4230739" lon="11.0608019"><ele>207.42857142857144</ele><time>2026-04-04T12:04:03.376Z</time></trkpt><trkpt lat="44.423054" lon="11.0609054"><ele>207.85714285714286</ele><time>2026-04-04T12:04:07.366Z</time></trkpt><trkpt lat="44.4230333" lon="11.0610162"><ele>208.28571428571428</ele><time>2026-04-04T12:04:11.373Z</time></trkpt><trkpt lat="44.423015" lon="11.061111"><ele>208.71428571428572</ele><time>2026-04-04T12:04:14.374Z</time></trkpt><trkpt lat="44.4229987" lon="11.0611969"><ele>209.14285714285714</ele><time>2026-04-04T12:04:17.38Z</time></trkpt><trkpt lat="44.4229802" lon="11.061284"><ele>209.57142857142858</ele><time>2026-04-04T12:04:20.37Z</time></trkpt><trkpt lat="44.4229689" lon="11.0613721"><ele>210.0</ele><time>2026-04-04T12:04:23.362Z</time></trkpt><trkpt lat="44.4229593" lon="11.0614651"><ele>212.14285714285714</ele><time>2026-04-04T12:04:26.37Z</time></trkpt><trkpt lat="44.4229394" lon="11.0615558"><ele>214.28571428571428</ele><time>2026-04-04T12:04:29.38Z</time></trkpt><trkpt lat="44.4229223" lon="11.0616465"><ele>216.42857142857144</ele><time>2026-04-04T12:04:32.371Z</time></trkpt><trkpt lat="44.4229088" lon="11.0617378"><ele>218.57142857142858</ele><time>2026-04-04T12:04:35.361Z</time></trkpt><trkpt lat="44.422885" lon="11.0618222"><ele>220.71428571428572</ele><time>2026-04-04T12:04:38.364Z</time></trkpt><trkpt lat="44.422861" lon="11.0619086"><ele>222.8571428571429</ele><time>2026-04-04T12:04:41.373Z</time></trkpt><trkpt lat="44.4228344" lon="11.0619925"><ele>225.00000000000003</ele><time>2026-04-04T12:04:44.373Z</time></trkpt><trkpt lat="44.4228018" lon="11.0620951"><ele>225.83333333333334</ele><time>2026-04-04T12:04:48.385Z</time></trkpt><trkpt lat="44.4227725" lon="11.0621806"><ele>226.66666666666669</ele><time>2026-04-04T12:04:51.363Z</time></trkpt><trkpt lat="44.4227488" lon="11.062282"><ele>227.5</ele><time>2026-04-04T12:04:55.365Z</time></trkpt><trkpt lat="44.4227283" lon="11.0623931"><ele>228.33333333333334</ele><time>2026-04-04T12:05:00.367Z</time></trkpt><trkpt lat="44.4226853" lon="11.0625016"><ele>229.16666666666669</ele><time>2026-04-04T12:05:04.372Z</time></trkpt><trkpt lat="44.4226289" lon="11.0625905"><ele>230.0</ele><time>2026-04-04T12:05:07.379Z</time></trkpt><trkpt lat="44.4225808" lon="11.0626774"><ele>230.4285714285714</ele><time>2026-04-04T12:05:10.37Z</time></trkpt><trkpt lat="44.4225373" lon="11.0627703"><ele>230.85714285714283</ele><time>2026-04-04T12:05:13.375Z</time></trkpt><trkpt lat="44.4225046" lon="11.0628526"><ele>231.28571428571428</ele><time>2026-04-04T12:05:16.378Z</time></trkpt><trkpt lat="44.4224732" lon="11.0629362"><ele>231.7142857142857</ele><time>2026-04-04T12:05:19.366Z</time></trkpt><trkpt lat="44.4224386" lon="11.0630178"><ele>232.1428571428571</ele><time>2026-04-04T12:05:22.378Z</time></trkpt><trkpt lat="44.4223949" lon="11.0630935"><ele>232.57142857142858</ele><time>2026-04-04T12:05:25.365Z</time></trkpt><trkpt lat="44.4223407" lon="11.0631739"><ele>233.0</ele><time>2026-04-04T12:05:28.372Z</time></trkpt><trkpt lat="44.4222698" lon="11.0632374"><ele>233.33333333333334</ele><time>2026-04-04T12:05:31.377Z</time></trkpt><trkpt lat="44.4221898" lon="11.0632809"><ele>233.66666666666669</ele><time>2026-04-04T12:05:34.372Z</time></trkpt><trkpt lat="44.4221089" lon="11.0633262"><ele>234.0</ele><time>2026-04-04T12:05:37.382Z</time></trkpt><trkpt lat="44.4220442" lon="11.063384"><ele>234.33333333333331</ele><time>2026-04-04T12:05:40.376Z</time></trkpt><trkpt lat="44.4220041" lon="11.0634626"><ele>234.66666666666666</ele><time>2026-04-04T12:05:43.363Z</time></trkpt><trkpt lat="44.4219748" lon="11.0635544"><ele>235.0</ele><time>2026-04-04T12:05:46.373Z</time></trkpt><trkpt lat="44.4219499" lon="11.0636597"><ele>235.0</ele><time>2026-04-04T12:05:50.374Z</time></trkpt><trkpt lat="44.4219686" lon="11.0637746"><ele>234.99999999999997</ele><time>2026-04-04T12:05:54.383Z</time></trkpt><trkpt lat="44.4220078" lon="11.0638565"><ele>235.0</ele><time>2026-04-04T12:05:57.369Z</time></trkpt><trkpt lat="44.4220637" lon="11.0639206"><ele>235.0</ele><time>2026-04-04T12:06:00.377Z</time></trkpt><trkpt lat="44.4221295" lon="11.063963"><ele>234.99999999999997</ele><time>2026-04-04T12:06:03.367Z</time></trkpt><trkpt lat="44.4222016" lon="11.0639944"><ele>235.0</ele><time>2026-04-04T12:06:06.381Z</time></trkpt><trkpt lat="44.4222751" lon="11.0640088"><ele>235.0</ele><time>2026-04-04T12:06:09.381Z</time></trkpt><trkpt lat="44.4223449" lon="11.0640211"><ele>235.0</ele><time>2026-04-04T12:06:12.367Z</time></trkpt><trkpt lat="44.4224207" lon="11.0640239"><ele>234.99999999999997</ele><time>2026-04-04T12:06:15.367Z</time></trkpt><trkpt lat="44.4224959" lon="11.0640285"><ele>235.0</ele><time>2026-04-04T12:06:18.385Z</time></trkpt><trkpt lat="44.4225696" lon="11.0640288"><ele>235.0</ele><time>2026-04-04T12:06:21.378Z</time></trkpt><trkpt lat="44.4226424" lon="11.064021"><ele>234.99999999999997</ele><time>2026-04-04T12:06:24.365Z</time></trkpt><trkpt lat="44.4227136" lon="11.0639884"><ele>235.0</ele><time>2026-04-04T12:06:27.382Z</time></trkpt><trkpt lat="44.4227755" lon="11.0639359"><ele>235.0</ele><time>2026-04-04T12:06:30.377Z</time></trkpt><trkpt lat="44.4228429" lon="11.0638849"><ele>234.99999999999997</ele><time>2026-04-04T12:06:35.372Z</time></trkpt><trkpt lat="44.4228817" lon="11.0637897"><ele>235.0</ele><time>2026-04-04T12:06:39.373Z</time></trkpt><trkpt lat="44.422908" lon="11.0636901"><ele>235.0</ele><time>2026-04-04T12:06:43.389Z</time></trkpt><trkpt lat="44.4229349" lon="11.0635798"><ele>235.0</ele><time>2026-04-04T12:06:46.371Z</time></trkpt><trkpt lat="44.422957" lon="11.063496"><ele>234.99999999999997</ele><time>2026-04-04T12:06:48.376Z</time></trkpt><trkpt lat="44.4229867" lon="11.0633898"><ele>235.0</ele><time>2026-04-04T12:06:51.377Z</time></trkpt><trkpt lat="44.4230199" lon="11.0632862"><ele>235.33333333333331</ele><time>2026-04-04T12:06:54.373Z</time></trkpt><trkpt lat="44.4230722" lon="11.0631897"><ele>235.66666666666666</ele><time>2026-04-04T12:06:57.38Z</time></trkpt><trkpt lat="44.4231221" lon="11.0630931"><ele>236.0</ele><time>2026-04-04T12:07:00.363Z</time></trkpt><trkpt lat="44.423176" lon="11.0630083"><ele>236.33333333333331</ele><time>2026-04-04T12:07:03.362Z</time></trkpt><trkpt lat="44.4232285" lon="11.0629281"><ele>236.66666666666666</ele><time>2026-04-04T12:07:06.373Z</time></trkpt><trkpt lat="44.4232888" lon="11.0628627"><ele>237.0</ele><time>2026-04-04T12:07:09.38Z</time></trkpt><trkpt lat="44.4233523" lon="11.0628015"><ele>236.99999999999997</ele><time>2026-04-04T12:07:12.373Z</time></trkpt><trkpt lat="44.4234122" lon="11.0627539"><ele>237.0</ele><time>2026-04-04T12:07:15.372Z</time></trkpt><trkpt lat="44.4234791" lon="11.0627249"><ele>236.99999999999997</ele><time>2026-04-04T12:07:18.381Z</time></trkpt><trkpt lat="44.4235495" lon="11.0626978"><ele>236.99999999999997</ele><time>2026-04-04T12:07:21.375Z</time></trkpt><trkpt lat="44.4236144" lon="11.0626815"><ele>237.0</ele><time>2026-04-04T12:07:24.374Z</time></trkpt><trkpt lat="44.423694" lon="11.0626992"><ele>236.99999999999997</ele><time>2026-04-04T12:07:27.381Z</time></trkpt><trkpt lat="44.423748" lon="11.0627746"><ele>236.99999999999997</ele><time>2026-04-04T12:07:30.379Z</time></trkpt><trkpt lat="44.4237378" lon="11.062869"><ele>236.99999999999997</ele><time>2026-04-04T12:07:33.375Z</time></trkpt><trkpt lat="44.4236725" lon="11.0629195"><ele>237.0</ele><time>2026-04-04T12:07:37.375Z</time></trkpt><trkpt lat="44.4235996" lon="11.0629521"><ele>236.99999999999997</ele><time>2026-04-04T12:07:41.376Z</time></trkpt><trkpt lat="44.4235164" lon="11.0629895"><ele>236.99999999999997</ele><time>2026-04-04T12:07:45.368Z</time></trkpt><trkpt lat="44.4234597" lon="11.0630316"><ele>237.0</ele><time>2026-04-04T12:07:48.386Z</time></trkpt><trkpt lat="44.4234114" lon="11.0630963"><ele>236.99999999999997</ele><time>2026-04-04T12:07:51.38Z</time></trkpt><trkpt lat="44.423365" lon="11.0631783"><ele>236.99999999999997</ele><time>2026-04-04T12:07:54.381Z</time></trkpt><trkpt lat="44.4233341" lon="11.0632722"><ele>238.99999999999997</ele><time>2026-04-04T12:07:57.369Z</time></trkpt><trkpt lat="44.4233251" lon="11.0633667"><ele>241.0</ele><time>2026-04-04T12:08:00.379Z</time></trkpt><trkpt lat="44.4233316" lon="11.0634633"><ele>242.99999999999997</ele><time>2026-04-04T12:08:03.372Z</time></trkpt><trkpt lat="44.4233547" lon="11.0635524"><ele>244.99999999999997</ele><time>2026-04-04T12:08:06.378Z</time></trkpt><trkpt lat="44.4233897" lon="11.0636415"><ele>247.0</ele><time>2026-04-04T12:08:09.374Z</time></trkpt><trkpt lat="44.4234285" lon="11.0637258"><ele>248.99999999999997</ele><time>2026-04-04T12:08:12.379Z</time></trkpt><trkpt lat="44.4234674" lon="11.0638121"><ele>250.99999999999997</ele><time>2026-04-04T12:08:15.378Z</time></trkpt><trkpt lat="44.4235045" lon="11.0639094"><ele>250.99999999999997</ele><time>2026-04-04T12:08:18.379Z</time></trkpt><trkpt lat="44.4235259" lon="11.0640121"><ele>251.0</ele><time>2026-04-04T12:08:21.378Z</time></trkpt><trkpt lat="44.4235471" lon="11.0641182"><ele>250.99999999999997</ele><time>2026-04-04T12:08:24.384Z</time></trkpt><trkpt lat="44.42356" lon="11.0642188"><ele>250.99999999999997</ele><time>2026-04-04T12:08:27.368Z</time></trkpt><trkpt lat="44.4235661" lon="11.0643118"><ele>251.0</ele><time>2026-04-04T12:08:30.378Z</time></trkpt><trkpt lat="44.4235639" lon="11.0644102"><ele>250.99999999999997</ele><time>2026-04-04T12:08:33.368Z</time></trkpt><trkpt lat="44.4235588" lon="11.0645157"><ele>250.99999999999997</ele><time>2026-04-04T12:08:36.367Z</time></trkpt><trkpt lat="44.4235537" lon="11.0646233"><ele>251.99999999999997</ele><time>2026-04-04T12:08:39.365Z</time></trkpt><trkpt lat="44.4235403" lon="11.0647317"><ele>253.0</ele><time>2026-04-04T12:08:42.359Z</time></trkpt><trkpt lat="44.4235169" lon="11.0648242"><ele>253.99999999999997</ele><time>2026-04-04T12:08:45.376Z</time></trkpt><trkpt lat="44.423479" lon="11.0649104"><ele>254.99999999999997</ele><time>2026-04-04T12:08:48.366Z</time></trkpt><trkpt lat="44.4234385" lon="11.064987"><ele>256.0</ele><time>2026-04-04T12:08:51.384Z</time></trkpt><trkpt lat="44.4233955" lon="11.0650719"><ele>256.99999999999994</ele><time>2026-04-04T12:08:54.368Z</time></trkpt><trkpt lat="44.4233421" lon="11.0651526"><ele>258.0</ele><time>2026-04-04T12:08:57.389Z</time></trkpt><trkpt lat="44.4232922" lon="11.0652279"><ele>257.85714285714283</ele><time>2026-04-04T12:09:00.372Z</time></trkpt><trkpt lat="44.4232302" lon="11.0652882"><ele>257.7142857142857</ele><time>2026-04-04T12:09:03.379Z</time></trkpt><trkpt lat="44.4231639" lon="11.0653343"><ele>257.57142857142856</ele><time>2026-04-04T12:09:06.376Z</time></trkpt><trkpt lat="44.4231029" lon="11.0653788"><ele>257.42857142857144</ele><time>2026-04-04T12:09:09.375Z</time></trkpt><trkpt lat="44.4230402" lon="11.0654283"><ele>257.2857142857143</ele><time>2026-04-04T12:09:12.366Z</time></trkpt><trkpt lat="44.4229828" lon="11.0654868"><ele>257.1428571428571</ele><time>2026-04-04T12:09:15.375Z</time></trkpt><trkpt lat="44.4229225" lon="11.0655562"><ele>257.0</ele><time>2026-04-04T12:09:18.377Z</time></trkpt><trkpt lat="44.4228637" lon="11.0656229"><ele>257.0</ele><time>2026-04-04T12:09:21.366Z</time></trkpt><trkpt lat="44.4228045" lon="11.065689"><ele>257.0</ele><time>2026-04-04T12:09:24.379Z</time></trkpt><trkpt lat="44.4227358" lon="11.0657489"><ele>257.0</ele><time>2026-04-04T12:09:27.368Z</time></trkpt><trkpt lat="44.4226582" lon="11.065801"><ele>257.0</ele><time>2026-04-04T12:09:30.384Z</time></trkpt><trkpt lat="44.4225943" lon="11.0658217"><ele>257.0</ele><time>2026-04-04T12:09:32.365Z</time></trkpt><trkpt lat="44.4225142" lon="11.0658263"><ele>257.0</ele><time>2026-04-04T12:09:35.371Z</time></trkpt><trkpt lat="44.4224393" lon="11.0658249"><ele>260.6666666666667</ele><time>2026-04-04T12:09:38.378Z</time></trkpt><trkpt lat="44.4223608" lon="11.0658227"><ele>264.33333333333337</ele><time>2026-04-04T12:09:41.372Z</time></trkpt><trkpt lat="44.4222864" lon="11.0658149"><ele>268.0</ele><time>2026-04-04T12:09:44.386Z</time></trkpt><trkpt lat="44.4221986" lon="11.0658149"><ele>271.6666666666667</ele><time>2026-04-04T12:09:47.373Z</time></trkpt><trkpt lat="44.4221217" lon="11.065817"><ele>275.3333333333333</ele><time>2026-04-04T12:09:50.372Z</time></trkpt><trkpt lat="44.4220428" lon="11.0658231"><ele>279.0</ele><time>2026-04-04T12:09:53.375Z</time></trkpt><trkpt lat="44.4219704" lon="11.0658243"><ele>280.1428571428571</ele><time>2026-04-04T12:09:56.37Z</time></trkpt><trkpt lat="44.4218966" lon="11.0658295"><ele>281.2857142857143</ele><time>2026-04-04T12:09:59.374Z</time></trkpt><trkpt lat="44.4218332" lon="11.0658416"><ele>282.42857142857144</ele><time>2026-04-04T12:10:02.364Z</time></trkpt><trkpt lat="44.4217585" lon="11.0658458"><ele>283.57142857142856</ele><time>2026-04-04T12:10:05.374Z</time></trkpt><trkpt lat="44.4216797" lon="11.0658449"><ele>284.7142857142857</ele><time>2026-04-04T12:10:08.379Z</time></trkpt><trkpt lat="44.4216103" lon="11.0658593"><ele>285.85714285714283</ele><time>2026-04-04T12:10:11.37Z</time></trkpt><trkpt lat="44.421527" lon="11.0658669"><ele>287.0</ele><time>2026-04-04T12:10:14.366Z</time></trkpt><trkpt lat="44.4214348" lon="11.0658633"><ele>287.0</ele><time>2026-04-04T12:10:17.352Z</time></trkpt><trkpt lat="44.4213588" lon="11.0658594"><ele>287.0</ele><time>2026-04-04T12:10:20.367Z</time></trkpt><trkpt lat="44.4212851" lon="11.0658494"><ele>287.0</ele><time>2026-04-04T12:10:23.378Z</time></trkpt><trkpt lat="44.42121" lon="11.0658137"><ele>287.0</ele><time>2026-04-04T12:10:26.368Z</time></trkpt><trkpt lat="44.4211342" lon="11.0657684"><ele>287.0</ele><time>2026-04-04T12:10:29.39Z</time></trkpt><trkpt lat="44.4210586" lon="11.06571"><ele>287.0</ele><time>2026-04-04T12:10:33.372Z</time></trkpt><trkpt lat="44.4209861" lon="11.0656727"><ele>287.0</ele><time>2026-04-04T12:10:36.376Z</time></trkpt><trkpt lat="44.4209081" lon="11.0656326"><ele>287.0</ele><time>2026-04-04T12:10:39.383Z</time></trkpt><trkpt lat="44.4208228" lon="11.0655977"><ele>287.0</ele><time>2026-04-04T12:10:42.375Z</time></trkpt><trkpt lat="44.4207369" lon="11.0655683"><ele>287.0</ele><time>2026-04-04T12:10:45.375Z</time></trkpt><trkpt lat="44.4206577" lon="11.0655625"><ele>287.0</ele><time>2026-04-04T12:10:48.374Z</time></trkpt><trkpt lat="44.4205839" lon="11.0655621"><ele>287.0</ele><time>2026-04-04T12:10:51.376Z</time></trkpt><trkpt lat="44.4205116" lon="11.0655647"><ele>289.14285714285717</ele><time>2026-04-04T12:10:54.369Z</time></trkpt><trkpt lat="44.4204429" lon="11.0655579"><ele>291.2857142857143</ele><time>2026-04-04T12:10:57.376Z</time></trkpt><trkpt lat="44.420378" lon="11.0655684"><ele>293.42857142857144</ele><time>2026-04-04T12:11:00.371Z</time></trkpt><trkpt lat="44.4203131" lon="11.0655939"><ele>295.57142857142856</ele><time>2026-04-04T12:11:03.378Z</time></trkpt><trkpt lat="44.4202476" lon="11.0656154"><ele>297.7142857142857</ele><time>2026-04-04T12:11:06.381Z</time></trkpt><trkpt lat="44.4201824" lon="11.0656769"><ele>299.8571428571429</ele><time>2026-04-04T12:11:10.376Z</time></trkpt><trkpt lat="44.420128" lon="11.0657416"><ele>302.0</ele><time>2026-04-04T12:11:13.374Z</time></trkpt><trkpt lat="44.4200731" lon="11.065801"><ele>302.00000000000006</ele><time>2026-04-04T12:11:16.392Z</time></trkpt><trkpt lat="44.4200268" lon="11.0658608"><ele>302.0</ele><time>2026-04-04T12:11:19.372Z</time></trkpt><trkpt lat="44.4199647" lon="11.065934"><ele>302.0</ele><time>2026-04-04T12:11:22.366Z</time></trkpt><trkpt lat="44.4199155" lon="11.0660089"><ele>302.0</ele><time>2026-04-04T12:11:25.385Z</time></trkpt><trkpt lat="44.4198638" lon="11.0660816"><ele>302.0</ele><time>2026-04-04T12:11:28.395Z</time></trkpt><trkpt lat="44.4198137" lon="11.0661434"><ele>302.00000000000006</ele><time>2026-04-04T12:11:31.37Z</time></trkpt><trkpt lat="44.4197607" lon="11.0662103"><ele>302.0</ele><time>2026-04-04T12:11:34.377Z</time></trkpt><trkpt lat="44.4197084" lon="11.066278"><ele>302.0</ele><time>2026-04-04T12:11:37.375Z</time></trkpt><trkpt lat="44.4196531" lon="11.0663501"><ele>302.0</ele><time>2026-04-04T12:11:40.392Z</time></trkpt><trkpt lat="44.4196064" lon="11.0664188"><ele>302.0</ele><time>2026-04-04T12:11:43.37Z</time></trkpt><trkpt lat="44.4195531" lon="11.0664879"><ele>302.0</ele><time>2026-04-04T12:11:46.375Z</time></trkpt><trkpt lat="44.4195034" lon="11.0665806"><ele>302.0</ele><time>2026-04-04T12:11:50.381Z</time></trkpt><trkpt lat="44.4194601" lon="11.0666779"><ele>302.0</ele><time>2026-04-04T12:11:54.4Z</time></trkpt><trkpt lat="44.4194191" lon="11.0667625"><ele>304.00000000000006</ele><time>2026-04-04T12:11:57.368Z</time></trkpt><trkpt lat="44.4193846" lon="11.0668456"><ele>306.0</ele><time>2026-04-04T12:12:00.379Z</time></trkpt><trkpt lat="44.4193507" lon="11.0669245"><ele>308.0</ele><time>2026-04-04T12:12:03.371Z</time></trkpt><trkpt lat="44.419319" lon="11.0670105"><ele>310.0</ele><time>2026-04-04T12:12:06.388Z</time></trkpt><trkpt lat="44.4192733" lon="11.0670754"><ele>312.0</ele><time>2026-04-04T12:12:09.373Z</time></trkpt><trkpt lat="44.41922" lon="11.0671371"><ele>314.00000000000006</ele><time>2026-04-04T12:12:12.378Z</time></trkpt><trkpt lat="44.419148" lon="11.0672008"><ele>316.0</ele><time>2026-04-04T12:12:16.368Z</time></trkpt><trkpt lat="44.4190894" lon="11.0672507"><ele>316.00000000000006</ele><time>2026-04-04T12:12:19.382Z</time></trkpt><trkpt lat="44.4190228" lon="11.0673077"><ele>316.0</ele><time>2026-04-04T12:12:23.367Z</time></trkpt><trkpt lat="44.4189663" lon="11.0673565"><ele>316.0</ele><time>2026-04-04T12:12:26.369Z</time></trkpt><trkpt lat="44.4189081" lon="11.0674048"><ele>316.0</ele><time>2026-04-04T12:12:29.379Z</time></trkpt><trkpt lat="44.4188421" lon="11.0674594"><ele>316.0</ele><time>2026-04-04T12:12:32.374Z</time></trkpt><trkpt lat="44.4187785" lon="11.0675079"><ele>316.00000000000006</ele><time>2026-04-04T12:12:35.375Z</time></trkpt><trkpt lat="44.4187175" lon="11.0675589"><ele>316.0</ele><time>2026-04-04T12:12:38.37Z</time></trkpt><trkpt lat="44.4186646" lon="11.0676162"><ele>318.28571428571433</ele><time>2026-04-04T12:12:41.371Z</time></trkpt><trkpt lat="44.4186088" lon="11.067673"><ele>320.57142857142856</ele><time>2026-04-04T12:12:44.366Z</time></trkpt><trkpt lat="44.4185586" lon="11.0677345"><ele>322.8571428571429</ele><time>2026-04-04T12:12:47.374Z</time></trkpt><trkpt lat="44.4185063" lon="11.0678214"><ele>325.14285714285717</ele><time>2026-04-04T12:12:51.378Z</time></trkpt><trkpt lat="44.418476" lon="11.0679034"><ele>327.42857142857144</ele><time>2026-04-04T12:12:54.358Z</time></trkpt><trkpt lat="44.4184539" lon="11.0679874"><ele>329.7142857142857</ele><time>2026-04-04T12:12:57.372Z</time></trkpt><trkpt lat="44.4184378" lon="11.068081"><ele>332.0</ele><time>2026-04-04T12:13:00.367Z</time></trkpt><trkpt lat="44.4184148" lon="11.0681709"><ele>332.0</ele><time>2026-04-04T12:13:03.367Z</time></trkpt><trkpt lat="44.4183976" lon="11.0682599"><ele>332.0</ele><time>2026-04-04T12:13:06.366Z</time></trkpt><trkpt lat="44.418374" lon="11.068352"><ele>332.0</ele><time>2026-04-04T12:13:09.373Z</time></trkpt><trkpt lat="44.4183505" lon="11.0684454"><ele>332.0</ele><time>2026-04-04T12:13:12.38Z</time></trkpt><trkpt lat="44.4183276" lon="11.0685433"><ele>332.0</ele><time>2026-04-04T12:13:15.364Z</time></trkpt><trkpt lat="44.4183085" lon="11.0686381"><ele>332.0</ele><time>2026-04-04T12:13:18.373Z</time></trkpt><trkpt lat="44.4182888" lon="11.0687313"><ele>332.0</ele><time>2026-04-04T12:13:21.368Z</time></trkpt><trkpt lat="44.4182772" lon="11.0688384"><ele>332.4285714285714</ele><time>2026-04-04T12:13:24.372Z</time></trkpt><trkpt lat="44.4182742" lon="11.0689482"><ele>332.8571428571429</ele><time>2026-04-04T12:13:27.365Z</time></trkpt><trkpt lat="44.4182911" lon="11.0690427"><ele>333.2857142857143</ele><time>2026-04-04T12:13:30.367Z</time></trkpt><trkpt lat="44.418325" lon="11.0691232"><ele>333.71428571428567</ele><time>2026-04-04T12:13:33.379Z</time></trkpt><trkpt lat="44.4183811" lon="11.0691852"><ele>334.1428571428571</ele><time>2026-04-04T12:13:36.374Z</time></trkpt><trkpt lat="44.4184441" lon="11.0692411"><ele>334.57142857142856</ele><time>2026-04-04T12:13:39.386Z</time></trkpt><trkpt lat="44.418508" lon="11.0692944"><ele>335.0</ele><time>2026-04-04T12:13:42.366Z</time></trkpt><trkpt lat="44.4185672" lon="11.0693491"><ele>334.99999999999994</ele><time>2026-04-04T12:13:45.382Z</time></trkpt><trkpt lat="44.4186192" lon="11.0694183"><ele>335.0</ele><time>2026-04-04T12:13:48.368Z</time></trkpt><trkpt lat="44.4186633" lon="11.0694946"><ele>335.0</ele><time>2026-04-04T12:13:51.373Z</time></trkpt><trkpt lat="44.4187021" lon="11.0695776"><ele>335.0</ele><time>2026-04-04T12:13:54.371Z</time></trkpt><trkpt lat="44.4187278" lon="11.0696734"><ele>335.0</ele><time>2026-04-04T12:13:57.376Z</time></trkpt><trkpt lat="44.4187399" lon="11.0697766"><ele>334.99999999999994</ele><time>2026-04-04T12:14:00.373Z</time></trkpt><trkpt lat="44.4187278" lon="11.0698808"><ele>335.0</ele><time>2026-04-04T12:14:03.382Z</time></trkpt><trkpt lat="44.4186919" lon="11.0699791"><ele>336.6666666666667</ele><time>2026-04-04T12:14:06.366Z</time></trkpt><trkpt lat="44.4186472" lon="11.0700697"><ele>338.33333333333337</ele><time>2026-04-04T12:14:09.385Z</time></trkpt><trkpt lat="44.4185974" lon="11.0701499"><ele>340.0</ele><time>2026-04-04T12:14:12.377Z</time></trkpt><trkpt lat="44.4185378" lon="11.0702337"><ele>341.6666666666667</ele><time>2026-04-04T12:14:15.372Z</time></trkpt><trkpt lat="44.4184779" lon="11.070311"><ele>343.3333333333333</ele><time>2026-04-04T12:14:18.367Z</time></trkpt><trkpt lat="44.418417" lon="11.0703823"><ele>345.0</ele><time>2026-04-04T12:14:21.377Z</time></trkpt><trkpt lat="44.4183595" lon="11.0704506"><ele>345.0</ele><time>2026-04-04T12:14:24.378Z</time></trkpt><trkpt lat="44.4182861" lon="11.0705266"><ele>345.0</ele><time>2026-04-04T12:14:27.372Z</time></trkpt><trkpt lat="44.4182244" lon="11.0705897"><ele>345.0</ele><time>2026-04-04T12:14:30.381Z</time></trkpt><trkpt lat="44.4181724" lon="11.0706547"><ele>345.0</ele><time>2026-04-04T12:14:33.38Z</time></trkpt><trkpt lat="44.4181271" lon="11.0707447"><ele>345.0</ele><time>2026-04-04T12:14:36.369Z</time></trkpt><trkpt lat="44.4180813" lon="11.0708552"><ele>345.0</ele><time>2026-04-04T12:14:39.385Z</time></trkpt><trkpt lat="44.4180621" lon="11.0709687"><ele>343.8333333333333</ele><time>2026-04-04T12:14:42.378Z</time></trkpt><trkpt lat="44.4180582" lon="11.0710658"><ele>342.6666666666667</ele><time>2026-04-04T12:14:45.38Z</time></trkpt><trkpt lat="44.4180586" lon="11.0711726"><ele>341.5</ele><time>2026-04-04T12:14:48.375Z</time></trkpt><trkpt lat="44.418057" lon="11.0712878"><ele>340.33333333333337</ele><time>2026-04-04T12:14:51.374Z</time></trkpt><trkpt lat="44.418061" lon="11.0714166"><ele>339.1666666666667</ele><time>2026-04-04T12:14:54.385Z</time></trkpt><trkpt lat="44.4180657" lon="11.0715458"><ele>338.0</ele><time>2026-04-04T12:14:57.379Z</time></trkpt><trkpt lat="44.4180753" lon="11.0716695"><ele>337.83333333333337</ele><time>2026-04-04T12:15:00.373Z</time></trkpt><trkpt lat="44.4180839" lon="11.0717863"><ele>337.6666666666667</ele><time>2026-04-04T12:15:03.372Z</time></trkpt><trkpt lat="44.4180878" lon="11.0719044"><ele>337.5</ele><time>2026-04-04T12:15:06.379Z</time></trkpt><trkpt lat="44.4180945" lon="11.072021"><ele>337.3333333333333</ele><time>2026-04-04T12:15:09.371Z</time></trkpt><trkpt lat="44.4181033" lon="11.0721398"><ele>337.16666666666663</ele><time>2026-04-04T12:15:12.376Z</time></trkpt><trkpt lat="44.4181168" lon="11.0722532"><ele>337.0</ele><time>2026-04-04T12:15:15.379Z</time></trkpt><trkpt lat="44.4181316" lon="11.0723621"><ele>337.8333333333333</ele><time>2026-04-04T12:15:18.376Z</time></trkpt><trkpt lat="44.418145" lon="11.072478"><ele>338.66666666666663</ele><time>2026-04-04T12:15:21.383Z</time></trkpt><trkpt lat="44.4181512" lon="11.072595"><ele>339.5</ele><time>2026-04-04T12:15:24.365Z</time></trkpt><trkpt lat="44.4181427" lon="11.0726857"><ele>340.3333333333333</ele><time>2026-04-04T12:15:26.376Z</time></trkpt><trkpt lat="44.4181026" lon="11.072813"><ele>341.1666666666667</ele><time>2026-04-04T12:15:29.379Z</time></trkpt><trkpt lat="44.4180433" lon="11.0728711"><ele>342.0</ele><time>2026-04-04T12:15:31.378Z</time></trkpt><trkpt lat="44.417974" lon="11.0729046"><ele>345.0</ele><time>2026-04-04T12:15:33.373Z</time></trkpt><trkpt lat="44.4179064" lon="11.0729059"><ele>348.0</ele><time>2026-04-04T12:15:35.387Z</time></trkpt><trkpt lat="44.4178284" lon="11.0728928"><ele>351.0</ele><time>2026-04-04T12:15:38.376Z</time></trkpt><trkpt lat="44.4177385" lon="11.0728789"><ele>354.0</ele><time>2026-04-04T12:15:41.38Z</time></trkpt><trkpt lat="44.4176533" lon="11.0728413"><ele>357.0</ele><time>2026-04-04T12:15:44.377Z</time></trkpt><trkpt lat="44.4175771" lon="11.0728114"><ele>360.0</ele><time>2026-04-04T12:15:47.381Z</time></trkpt><trkpt lat="44.4175002" lon="11.0727862"><ele>360.0</ele><time>2026-04-04T12:15:50.385Z</time></trkpt><trkpt lat="44.4174275" lon="11.0727717"><ele>360.0</ele><time>2026-04-04T12:15:53.382Z</time></trkpt><trkpt lat="44.4173554" lon="11.0727638"><ele>360.0</ele><time>2026-04-04T12:15:56.371Z</time></trkpt><trkpt lat="44.4172867" lon="11.0727538"><ele>360.0</ele><time>2026-04-04T12:15:59.381Z</time></trkpt><trkpt lat="44.4172227" lon="11.0727517"><ele>360.0</ele><time>2026-04-04T12:16:02.379Z</time></trkpt><trkpt lat="44.4171519" lon="11.0727392"><ele>360.0</ele><time>2026-04-04T12:16:05.376Z</time></trkpt><trkpt lat="44.4170889" lon="11.0727314"><ele>360.0</ele><time>2026-04-04T12:16:08.376Z</time></trkpt><trkpt lat="44.4170178" lon="11.0727202"><ele>360.2857142857143</ele><time>2026-04-04T12:16:11.389Z</time></trkpt><trkpt lat="44.4169478" lon="11.0727017"><ele>360.5714285714286</ele><time>2026-04-04T12:16:14.382Z</time></trkpt><trkpt lat="44.4168821" lon="11.0726708"><ele>360.8571428571429</ele><time>2026-04-04T12:16:17.369Z</time></trkpt><trkpt lat="44.4168245" lon="11.0726245"><ele>361.1428571428571</ele><time>2026-04-04T12:16:20.373Z</time></trkpt><trkpt lat="44.4167674" lon="11.0725774"><ele>361.42857142857144</ele><time>2026-04-04T12:16:23.385Z</time></trkpt><trkpt lat="44.4167" lon="11.0725222"><ele>361.7142857142857</ele><time>2026-04-04T12:16:27.384Z</time></trkpt><trkpt lat="44.4166324" lon="11.0724479"><ele>362.0</ele><time>2026-04-04T12:16:31.379Z</time></trkpt><trkpt lat="44.4165896" lon="11.0723684"><ele>365.7142857142857</ele><time>2026-04-04T12:16:34.372Z</time></trkpt><trkpt lat="44.4165453" lon="11.0722977"><ele>369.42857142857144</ele><time>2026-04-04T12:16:37.362Z</time></trkpt><trkpt lat="44.4164864" lon="11.0722262"><ele>373.1428571428571</ele><time>2026-04-04T12:16:40.358Z</time></trkpt><trkpt lat="44.4164212" lon="11.072175"><ele>376.8571428571429</ele><time>2026-04-04T12:16:43.374Z</time></trkpt><trkpt lat="44.4163508" lon="11.0721333"><ele>380.5714285714286</ele><time>2026-04-04T12:16:46.388Z</time></trkpt><trkpt lat="44.4162791" lon="11.0721106"><ele>384.2857142857143</ele><time>2026-04-04T12:16:49.37Z</time></trkpt><trkpt lat="44.4162115" lon="11.0721094"><ele>388.0</ele><time>2026-04-04T12:16:52.377Z</time></trkpt><trkpt lat="44.4161478" lon="11.07212"><ele>388.4285714285714</ele><time>2026-04-04T12:16:55.366Z</time></trkpt><trkpt lat="44.4160737" lon="11.0721391"><ele>388.8571428571429</ele><time>2026-04-04T12:16:59.366Z</time></trkpt><trkpt lat="44.4160119" lon="11.0721667"><ele>389.2857142857143</ele><time>2026-04-04T12:17:03.371Z</time></trkpt><trkpt lat="44.415949" lon="11.0721958"><ele>389.71428571428567</ele><time>2026-04-04T12:17:06.365Z</time></trkpt><trkpt lat="44.4158708" lon="11.0722226"><ele>390.1428571428571</ele><time>2026-04-04T12:17:10.376Z</time></trkpt><trkpt lat="44.415803" lon="11.0722322"><ele>390.57142857142856</ele><time>2026-04-04T12:17:13.373Z</time></trkpt><trkpt lat="44.4157356" lon="11.0722333"><ele>391.0</ele><time>2026-04-04T12:17:16.38Z</time></trkpt><trkpt lat="44.4156647" lon="11.0722249"><ele>390.99999999999994</ele><time>2026-04-04T12:17:19.375Z</time></trkpt><trkpt lat="44.4155938" lon="11.0722195"><ele>391.0</ele><time>2026-04-04T12:17:22.38Z</time></trkpt><trkpt lat="44.415521" lon="11.0722176"><ele>391.0</ele><time>2026-04-04T12:17:25.373Z</time></trkpt><trkpt lat="44.4154536" lon="11.0721998"><ele>391.0</ele><time>2026-04-04T12:17:28.374Z</time></trkpt><trkpt lat="44.4153882" lon="11.0722015"><ele>391.0</ele><time>2026-04-04T12:17:31.372Z</time></trkpt><trkpt lat="44.4153159" lon="11.0722086"><ele>390.99999999999994</ele><time>2026-04-04T12:17:34.386Z</time></trkpt><trkpt lat="44.4152368" lon="11.072226"><ele>391.0</ele><time>2026-04-04T12:17:38.38Z</time></trkpt><trkpt lat="44.4151616" lon="11.0722536"><ele>391.2857142857143</ele><time>2026-04-04T12:17:42.371Z</time></trkpt><trkpt lat="44.4151038" lon="11.07232"><ele>391.57142857142856</ele><time>2026-04-04T12:17:46.375Z</time></trkpt><trkpt lat="44.4150417" lon="11.07237"><ele>391.8571428571429</ele><time>2026-04-04T12:17:49.366Z</time></trkpt><trkpt lat="44.414983" lon="11.0724074"><ele>392.1428571428571</ele><time>2026-04-04T12:17:52.371Z</time></trkpt><trkpt lat="44.4149051" lon="11.0724222"><ele>392.42857142857144</ele><time>2026-04-04T12:17:55.37Z</time></trkpt><trkpt lat="44.4148404" lon="11.0723858"><ele>392.7142857142857</ele><time>2026-04-04T12:17:58.368Z</time></trkpt><trkpt lat="44.4147952" lon="11.0723126"><ele>393.0</ele><time>2026-04-04T12:18:01.378Z</time></trkpt><trkpt lat="44.4147992" lon="11.0722246"><ele>393.00000000000006</ele><time>2026-04-04T12:18:04.364Z</time></trkpt><trkpt lat="44.4148341" lon="11.0721391"><ele>393.0</ele><time>2026-04-04T12:18:07.368Z</time></trkpt><trkpt lat="44.4148785" lon="11.0720634"><ele>393.0</ele><time>2026-04-04T12:18:10.363Z</time></trkpt><trkpt lat="44.4149222" lon="11.071998"><ele>393.0</ele><time>2026-04-04T12:18:13.37Z</time></trkpt><trkpt lat="44.4149673" lon="11.0719361"><ele>393.0</ele><time>2026-04-04T12:18:16.377Z</time></trkpt><trkpt lat="44.4150133" lon="11.0718731"><ele>393.00000000000006</ele><time>2026-04-04T12:18:19.363Z</time></trkpt><trkpt lat="44.4150671" lon="11.0718087"><ele>393.0</ele><time>2026-04-04T12:18:23.369Z</time></trkpt><trkpt lat="44.4151274" lon="11.0717574"><ele>393.00000000000006</ele><time>2026-04-04T12:18:26.368Z</time></trkpt><trkpt lat="44.4151953" lon="11.0717128"><ele>393.0</ele><time>2026-04-04T12:18:29.375Z</time></trkpt><trkpt lat="44.4152629" lon="11.0716939"><ele>393.0</ele><time>2026-04-04T12:18:32.37Z</time></trkpt><trkpt lat="44.4153335" lon="11.0716816"><ele>393.0</ele><time>2026-04-04T12:18:35.372Z</time></trkpt><trkpt lat="44.4154053" lon="11.0716711"><ele>393.0</ele><time>2026-04-04T12:18:38.372Z</time></trkpt><trkpt lat="44.4154674" lon="11.07164"><ele>393.00000000000006</ele><time>2026-04-04T12:18:41.361Z</time></trkpt><trkpt lat="44.4155235" lon="11.071564"><ele>393.0</ele><time>2026-04-04T12:18:45.378Z</time></trkpt><trkpt lat="44.4155081" lon="11.0714641"><ele>396.00000000000006</ele><time>2026-04-04T12:18:49.382Z</time></trkpt><trkpt lat="44.4154507" lon="11.0714053"><ele>399.0</ele><time>2026-04-04T12:18:52.381Z</time></trkpt><trkpt lat="44.4153823" lon="11.071383"><ele>402.0</ele><time>2026-04-04T12:18:55.384Z</time></trkpt><trkpt lat="44.4153084" lon="11.0713804"><ele>405.0</ele><time>2026-04-04T12:18:58.388Z</time></trkpt><trkpt lat="44.4152428" lon="11.0713788"><ele>408.0</ele><time>2026-04-04T12:19:01.386Z</time></trkpt><trkpt lat="44.4151742" lon="11.0713777"><ele>411.00000000000006</ele><time>2026-04-04T12:19:04.374Z</time></trkpt><trkpt lat="44.415107" lon="11.0713715"><ele>414.0</ele><time>2026-04-04T12:19:07.378Z</time></trkpt><trkpt lat="44.4150329" lon="11.0713796"><ele>414.0</ele><time>2026-04-04T12:19:10.369Z</time></trkpt><trkpt lat="44.4149444" lon="11.0713933"><ele>414.0</ele><time>2026-04-04T12:19:13.384Z</time></trkpt><trkpt lat="44.4148698" lon="11.0714072"><ele>414.0</ele><time>2026-04-04T12:19:16.373Z</time></trkpt><trkpt lat="44.4147902" lon="11.0714269"><ele>414.0</ele><time>2026-04-04T12:19:19.379Z</time></trkpt><trkpt lat="44.41472" lon="11.071475"><ele>414.0</ele><time>2026-04-04T12:19:23.381Z</time></trkpt><trkpt lat="44.414659" lon="11.0715102"><ele>414.0</ele><time>2026-04-04T12:19:26.381Z</time></trkpt><trkpt lat="44.414591" lon="11.0715523"><ele>412.8333333333333</ele><time>2026-04-04T12:19:29.371Z</time></trkpt><trkpt lat="44.4145266" lon="11.0716043"><ele>411.66666666666663</ele><time>2026-04-04T12:19:32.366Z</time></trkpt><trkpt lat="44.4144549" lon="11.0716639"><ele>410.5</ele><time>2026-04-04T12:19:35.397Z</time></trkpt><trkpt lat="44.4143931" lon="11.0717316"><ele>409.3333333333333</ele><time>2026-04-04T12:19:38.37Z</time></trkpt><trkpt lat="44.4143453" lon="11.0718077"><ele>408.16666666666663</ele><time>2026-04-04T12:19:41.387Z</time></trkpt><trkpt lat="44.4142942" lon="11.0718878"><ele>407.0</ele><time>2026-04-04T12:19:44.379Z</time></trkpt><trkpt lat="44.4142515" lon="11.0719838"><ele>406.99999999999994</ele><time>2026-04-04T12:19:47.375Z</time></trkpt><trkpt lat="44.4142102" lon="11.0720788"><ele>407.0</ele><time>2026-04-04T12:19:50.377Z</time></trkpt><trkpt lat="44.4141793" lon="11.0721781"><ele>407.0</ele><time>2026-04-04T12:19:53.382Z</time></trkpt><trkpt lat="44.4141552" lon="11.0722774"><ele>407.0</ele><time>2026-04-04T12:19:56.371Z</time></trkpt><trkpt lat="44.4141343" lon="11.0723841"><ele>406.99999999999994</ele><time>2026-04-04T12:19:59.377Z</time></trkpt><trkpt lat="44.4141253" lon="11.07249"><ele>407.0</ele><time>2026-04-04T12:20:02.385Z</time></trkpt><trkpt lat="44.4141171" lon="11.072597"><ele>406.5714285714286</ele><time>2026-04-04T12:20:05.382Z</time></trkpt><trkpt lat="44.4140945" lon="11.0726976"><ele>406.14285714285717</ele><time>2026-04-04T12:20:08.364Z</time></trkpt><trkpt lat="44.4140652" lon="11.0727886"><ele>405.7142857142857</ele><time>2026-04-04T12:20:11.375Z</time></trkpt><trkpt lat="44.414046" lon="11.0728952"><ele>405.28571428571433</ele><time>2026-04-04T12:20:15.381Z</time></trkpt><trkpt lat="44.4141013" lon="11.0729557"><ele>404.85714285714283</ele><time>2026-04-04T12:20:19.381Z</time></trkpt><trkpt lat="44.4141583" lon="11.0729981"><ele>404.42857142857144</ele><time>2026-04-04T12:20:22.377Z</time></trkpt><trkpt lat="44.4142014" lon="11.0730747"><ele>404.0</ele><time>2026-04-04T12:20:26.392Z</time></trkpt><trkpt lat="44.4142492" lon="11.0731597"><ele>404.0</ele><time>2026-04-04T12:20:30.377Z</time></trkpt><trkpt lat="44.4142924" lon="11.0732411"><ele>404.0</ele><time>2026-04-04T12:20:33.375Z</time></trkpt><trkpt lat="44.414327" lon="11.0733227"><ele>404.0</ele><time>2026-04-04T12:20:36.381Z</time></trkpt><trkpt lat="44.414357" lon="11.0734025"><ele>404.0</ele><time>2026-04-04T12:20:39.39Z</time></trkpt><trkpt lat="44.4143686" lon="11.0734928"><ele>404.0</ele><time>2026-04-04T12:20:42.383Z</time></trkpt><trkpt lat="44.4143859" lon="11.0735923"><ele>404.0</ele><time>2026-04-04T12:20:46.376Z</time></trkpt><trkpt lat="44.4143989" lon="11.0737013"><ele>404.0</ele><time>2026-04-04T12:20:50.377Z</time></trkpt><trkpt lat="44.4144079" lon="11.0737961"><ele>404.85714285714283</ele><time>2026-04-04T12:20:53.38Z</time></trkpt><trkpt lat="44.4143863" lon="11.0738906"><ele>405.71428571428567</ele><time>2026-04-04T12:20:57.375Z</time></trkpt><trkpt lat="44.4143662" lon="11.0739993"><ele>406.57142857142856</ele><time>2026-04-04T12:21:00.372Z</time></trkpt><trkpt lat="44.4143465" lon="11.0740962"><ele>407.42857142857144</ele><time>2026-04-04T12:21:03.385Z</time></trkpt><trkpt lat="44.4143172" lon="11.0741848"><ele>408.2857142857143</ele><time>2026-04-04T12:21:06.377Z</time></trkpt><trkpt lat="44.4142791" lon="11.0742792"><ele>409.14285714285717</ele><time>2026-04-04T12:21:09.378Z</time></trkpt><trkpt lat="44.4142498" lon="11.074364"><ele>410.0</ele><time>2026-04-04T12:21:12.371Z</time></trkpt><trkpt lat="44.4142145" lon="11.0744417"><ele>411.2857142857143</ele><time>2026-04-04T12:21:15.373Z</time></trkpt><trkpt lat="44.4141946" lon="11.0745463"><ele>412.57142857142856</ele><time>2026-04-04T12:21:19.38Z</time></trkpt><trkpt lat="44.4141865" lon="11.0746452"><ele>413.85714285714283</ele><time>2026-04-04T12:21:23.374Z</time></trkpt><trkpt lat="44.4141829" lon="11.0747449"><ele>415.1428571428571</ele><time>2026-04-04T12:21:27.376Z</time></trkpt><trkpt lat="44.4141776" lon="11.0748346"><ele>416.42857142857144</ele><time>2026-04-04T12:21:30.38Z</time></trkpt><trkpt lat="44.4141863" lon="11.0749227"><ele>417.71428571428567</ele><time>2026-04-04T12:21:34.374Z</time></trkpt><trkpt lat="44.4141943" lon="11.0750178"><ele>419.0</ele><time>2026-04-04T12:21:39.376Z</time></trkpt><trkpt lat="44.4142222" lon="11.075115"><ele>419.16666666666663</ele><time>2026-04-04T12:21:44.381Z</time></trkpt><trkpt lat="44.4142602" lon="11.0752212"><ele>419.3333333333333</ele><time>2026-04-04T12:21:47.379Z</time></trkpt><trkpt lat="44.4142994" lon="11.0753228"><ele>419.5</ele><time>2026-04-04T12:21:50.365Z</time></trkpt><trkpt lat="44.4143335" lon="11.0754024"><ele>419.66666666666663</ele><time>2026-04-04T12:21:52.367Z</time></trkpt><trkpt lat="44.4143825" lon="11.0755045"><ele>419.8333333333333</ele><time>2026-04-04T12:21:55.38Z</time></trkpt><trkpt lat="44.4144353" lon="11.0755978"><ele>420.0</ele><time>2026-04-04T12:21:58.384Z</time></trkpt><trkpt lat="44.4144915" lon="11.0756716"><ele>420.0</ele><time>2026-04-04T12:22:01.372Z</time></trkpt><trkpt lat="44.4145693" lon="11.0757377"><ele>420.0</ele><time>2026-04-04T12:22:04.377Z</time></trkpt><trkpt lat="44.4146272" lon="11.0757854"><ele>420.0</ele><time>2026-04-04T12:22:06.37Z</time></trkpt><trkpt lat="44.4146826" lon="11.0758282"><ele>420.0</ele><time>2026-04-04T12:22:08.379Z</time></trkpt><trkpt lat="44.4147529" lon="11.0758871"><ele>420.0</ele><time>2026-04-04T12:22:11.374Z</time></trkpt><trkpt lat="44.414833" lon="11.0759435"><ele>420.0</ele><time>2026-04-04T12:22:14.376Z</time></trkpt><trkpt lat="44.414907" lon="11.0759691"><ele>420.0</ele><time>2026-04-04T12:22:17.372Z</time></trkpt><trkpt lat="44.4149354" lon="11.075882"><ele>420.0</ele><time>2026-04-04T12:22:28.365Z</time></trkpt><trkpt lat="44.4148838" lon="11.0757899"><ele>420.0</ele><time>2026-04-04T12:22:32.377Z</time></trkpt><trkpt lat="44.4148286" lon="11.0757309"><ele>420.0</ele><time>2026-04-04T12:22:35.382Z</time></trkpt><trkpt lat="44.4147731" lon="11.0756401"><ele>420.0</ele><time>2026-04-04T12:22:38.369Z</time></trkpt><trkpt lat="44.414727" lon="11.0755507"><ele>420.0</ele><time>2026-04-04T12:22:41.372Z</time></trkpt><trkpt lat="44.4146825" lon="11.0754753"><ele>420.0</ele><time>2026-04-04T12:22:44.386Z</time></trkpt><trkpt lat="44.4146408" lon="11.0753817"><ele>420.0</ele><time>2026-04-04T12:22:47.379Z</time></trkpt><trkpt lat="44.4145836" lon="11.075302"><ele>420.0</ele><time>2026-04-04T12:22:51.375Z</time></trkpt><trkpt lat="44.4145538" lon="11.0752058"><ele>420.0</ele><time>2026-04-04T12:22:55.382Z</time></trkpt><trkpt lat="44.4145198" lon="11.0751164"><ele>420.0</ele><time>2026-04-04T12:22:59.383Z</time></trkpt><trkpt lat="44.4144893" lon="11.074999"><ele>420.0</ele><time>2026-04-04T12:26:35.366Z</time></trkpt><trkpt lat="44.4145542" lon="11.0750386"><ele>420.0</ele><time>2026-04-04T12:26:39.398Z</time></trkpt><trkpt lat="44.4146124" lon="11.0751271"><ele>420.0</ele><time>2026-04-04T12:26:43.375Z</time></trkpt><trkpt lat="44.4146482" lon="11.0752252"><ele>420.0</ele><time>2026-04-04T12:26:46.386Z</time></trkpt><trkpt lat="44.4146794" lon="11.075314"><ele>420.0</ele><time>2026-04-04T12:26:49.381Z</time></trkpt><trkpt lat="44.4147234" lon="11.0753863"><ele>420.0</ele><time>2026-04-04T12:26:52.375Z</time></trkpt><trkpt lat="44.4147858" lon="11.0754626"><ele>420.0</ele><time>2026-04-04T12:26:56.379Z</time></trkpt><trkpt lat="44.4148297" lon="11.0755348"><ele>420.0</ele><time>2026-04-04T12:26:59.382Z</time></trkpt><trkpt lat="44.4148751" lon="11.0756074"><ele>420.0</ele><time>2026-04-04T12:27:02.366Z</time></trkpt><trkpt lat="44.4149098" lon="11.0756979"><ele>420.0</ele><time>2026-04-04T12:27:05.37Z</time></trkpt><trkpt lat="44.4149518" lon="11.0758055"><ele>420.0</ele><time>2026-04-04T12:27:08.372Z</time></trkpt><trkpt lat="44.4149742" lon="11.0759205"><ele>420.0</ele><time>2026-04-04T12:27:11.38Z</time></trkpt><trkpt lat="44.4149409" lon="11.0760099"><ele>420.0</ele><time>2026-04-04T12:27:14.378Z</time></trkpt><trkpt lat="44.4148715" lon="11.0759937"><ele>420.0</ele><time>2026-04-04T12:27:17.375Z</time></trkpt><trkpt lat="44.4148072" lon="11.0759635"><ele>420.0</ele><time>2026-04-04T12:27:20.375Z</time></trkpt><trkpt lat="44.4147453" lon="11.0759295"><ele>420.0</ele><time>2026-04-04T12:27:23.389Z</time></trkpt><trkpt lat="44.4146743" lon="11.0758964"><ele>420.0</ele><time>2026-04-04T12:27:26.384Z</time></trkpt><trkpt lat="44.4145886" lon="11.0758607"><ele>420.0</ele><time>2026-04-04T12:27:29.374Z</time></trkpt><trkpt lat="44.4145312" lon="11.0758242"><ele>420.0</ele><time>2026-04-04T12:27:31.378Z</time></trkpt><trkpt lat="44.414454" lon="11.075763"><ele>420.0</ele><time>2026-04-04T12:27:34.385Z</time></trkpt><trkpt lat="44.414387" lon="11.0756785"><ele>420.0</ele><time>2026-04-04T12:27:37.379Z</time></trkpt><trkpt lat="44.4143333" lon="11.0755852"><ele>420.0</ele><time>2026-04-04T12:27:40.374Z</time></trkpt><trkpt lat="44.4142891" lon="11.075498"><ele>420.0</ele><time>2026-04-04T12:27:43.375Z</time></trkpt><trkpt lat="44.4142451" lon="11.0754008"><ele>420.0</ele><time>2026-04-04T12:27:46.387Z</time></trkpt><trkpt lat="44.4142074" lon="11.0752941"><ele>420.0</ele><time>2026-04-04T12:27:49.382Z</time></trkpt><trkpt lat="44.4141765" lon="11.0752156"><ele>420.0</ele><time>2026-04-04T12:27:51.38Z</time></trkpt><trkpt lat="44.4141508" lon="11.0751324"><ele>420.0</ele><time>2026-04-04T12:27:53.386Z</time></trkpt><trkpt lat="44.4141214" lon="11.0750329"><ele>420.0</ele><time>2026-04-04T12:27:56.379Z</time></trkpt><trkpt lat="44.414122" lon="11.0749433"><ele>420.0</ele><time>2026-04-04T12:27:59.379Z</time></trkpt><trkpt lat="44.4141253" lon="11.0748445"><ele>420.0</ele><time>2026-04-04T12:28:01.38Z</time></trkpt><trkpt lat="44.414129" lon="11.0747565"><ele>420.0</ele><time>2026-04-04T12:28:03.381Z</time></trkpt><trkpt lat="44.4141465" lon="11.0746353"><ele>420.0</ele><time>2026-04-04T12:28:06.378Z</time></trkpt><trkpt lat="44.4141625" lon="11.0745454"><ele>419.8333333333333</ele><time>2026-04-04T12:28:08.38Z</time></trkpt><trkpt lat="44.4141816" lon="11.074461"><ele>419.66666666666663</ele><time>2026-04-04T12:28:10.378Z</time></trkpt><trkpt lat="44.4142168" lon="11.0743654"><ele>419.5</ele><time>2026-04-04T12:28:12.381Z</time></trkpt><trkpt lat="44.4142529" lon="11.074258"><ele>419.3333333333333</ele><time>2026-04-04T12:28:14.382Z</time></trkpt><trkpt lat="44.4142805" lon="11.0741335"><ele>419.16666666666663</ele><time>2026-04-04T12:28:16.379Z</time></trkpt><trkpt lat="44.4143108" lon="11.0740236"><ele>419.0</ele><time>2026-04-04T12:28:18.376Z</time></trkpt><trkpt lat="44.4143395" lon="11.0739128"><ele>417.49999999999994</ele><time>2026-04-04T12:28:20.374Z</time></trkpt><trkpt lat="44.4143575" lon="11.0737861"><ele>416.0</ele><time>2026-04-04T12:28:22.378Z</time></trkpt><trkpt lat="44.4143643" lon="11.0736742"><ele>414.5</ele><time>2026-04-04T12:28:24.369Z</time></trkpt><trkpt lat="44.4143566" lon="11.0735587"><ele>413.0</ele><time>2026-04-04T12:28:26.38Z</time></trkpt><trkpt lat="44.4143192" lon="11.073448"><ele>411.49999999999994</ele><time>2026-04-04T12:28:28.383Z</time></trkpt><trkpt lat="44.414268" lon="11.0733354"><ele>410.0</ele><time>2026-04-04T12:28:30.38Z</time></trkpt><trkpt lat="44.4142077" lon="11.0732175"><ele>409.66666666666663</ele><time>2026-04-04T12:28:32.369Z</time></trkpt><trkpt lat="44.4141386" lon="11.0731278"><ele>409.3333333333333</ele><time>2026-04-04T12:28:34.38Z</time></trkpt><trkpt lat="44.4140895" lon="11.0730587"><ele>409.0</ele><time>2026-04-04T12:28:36.388Z</time></trkpt><trkpt lat="44.4140255" lon="11.0729885"><ele>408.66666666666663</ele><time>2026-04-04T12:28:39.381Z</time></trkpt><trkpt lat="44.4139267" lon="11.0730063"><ele>408.3333333333333</ele><time>2026-04-04T12:28:42.379Z</time></trkpt><trkpt lat="44.4138597" lon="11.0730504"><ele>408.0</ele><time>2026-04-04T12:28:44.397Z</time></trkpt><trkpt lat="44.4137863" lon="11.0731165"><ele>408.0</ele><time>2026-04-04T12:28:46.379Z</time></trkpt><trkpt lat="44.4136751" lon="11.0731926"><ele>408.0</ele><time>2026-04-04T12:28:48.374Z</time></trkpt><trkpt lat="44.4136074" lon="11.0732329"><ele>408.0</ele><time>2026-04-04T12:28:49.385Z</time></trkpt><trkpt lat="44.4135444" lon="11.0732615"><ele>408.0</ele><time>2026-04-04T12:28:50.385Z</time></trkpt><trkpt lat="44.4134144" lon="11.0732714"><ele>408.0</ele><time>2026-04-04T12:28:52.378Z</time></trkpt><trkpt lat="44.4133362" lon="11.0732592"><ele>408.0</ele><time>2026-04-04T12:28:53.379Z</time></trkpt><trkpt lat="44.4132629" lon="11.0731956"><ele>408.0</ele><time>2026-04-04T12:28:54.366Z</time></trkpt><trkpt lat="44.4131987" lon="11.0731191"><ele>408.0</ele><time>2026-04-04T12:28:55.381Z</time></trkpt><trkpt lat="44.4131472" lon="11.073034"><ele>408.0</ele><time>2026-04-04T12:28:56.386Z</time></trkpt><trkpt lat="44.4130971" lon="11.0729491"><ele>408.0</ele><time>2026-04-04T12:28:57.372Z</time></trkpt><trkpt lat="44.4130533" lon="11.072866"><ele>408.0</ele><time>2026-04-04T12:28:58.385Z</time></trkpt><trkpt lat="44.413017" lon="11.0727807"><ele>406.0</ele><time>2026-04-04T12:28:59.38Z</time></trkpt><trkpt lat="44.4129768" lon="11.072698"><ele>404.0</ele><time>2026-04-04T12:29:00.368Z</time></trkpt><trkpt lat="44.4129325" lon="11.0726081"><ele>402.0</ele><time>2026-04-04T12:29:01.389Z</time></trkpt><trkpt lat="44.4128831" lon="11.0725117"><ele>400.0</ele><time>2026-04-04T12:29:02.376Z</time></trkpt><trkpt lat="44.4128312" lon="11.0724126"><ele>398.0</ele><time>2026-04-04T12:29:03.375Z</time></trkpt><trkpt lat="44.4127776" lon="11.0723137"><ele>396.0</ele><time>2026-04-04T12:29:04.38Z</time></trkpt><trkpt lat="44.4127179" lon="11.0722152"><ele>396.0</ele><time>2026-04-04T12:29:05.374Z</time></trkpt><trkpt lat="44.412643" lon="11.0721365"><ele>396.0</ele><time>2026-04-04T12:29:06.377Z</time></trkpt><trkpt lat="44.4125491" lon="11.0720758"><ele>396.0</ele><time>2026-04-04T12:29:07.378Z</time></trkpt><trkpt lat="44.4124484" lon="11.0720467"><ele>396.0</ele><time>2026-04-04T12:29:08.372Z</time></trkpt><trkpt lat="44.4123438" lon="11.0720306"><ele>396.0</ele><time>2026-04-04T12:29:09.375Z</time></trkpt><trkpt lat="44.4122525" lon="11.0720191"><ele>396.0</ele><time>2026-04-04T12:29:10.383Z</time></trkpt><trkpt lat="44.412168" lon="11.072011"><ele>396.0</ele><time>2026-04-04T12:29:11.377Z</time></trkpt><trkpt lat="44.4120819" lon="11.0719999"><ele>396.0</ele><time>2026-04-04T12:29:12.378Z</time></trkpt><trkpt lat="44.411993" lon="11.0719875"><ele>396.0</ele><time>2026-04-04T12:29:13.384Z</time></trkpt><trkpt lat="44.4118997" lon="11.0719745"><ele>396.0</ele><time>2026-04-04T12:29:14.384Z</time></trkpt><trkpt lat="44.4118034" lon="11.0719609"><ele>393.6</ele><time>2026-04-04T12:29:15.374Z</time></trkpt><trkpt lat="44.4117056" lon="11.0719453"><ele>391.20000000000005</ele><time>2026-04-04T12:29:16.385Z</time></trkpt><trkpt lat="44.4116082" lon="11.0719304"><ele>388.79999999999995</ele><time>2026-04-04T12:29:17.38Z</time></trkpt><trkpt lat="44.4115159" lon="11.0719182"><ele>386.4</ele><time>2026-04-04T12:29:18.376Z</time></trkpt><trkpt lat="44.4114211" lon="11.0719161"><ele>384.0</ele><time>2026-04-04T12:29:19.384Z</time></trkpt><trkpt lat="44.4113265" lon="11.0719146"><ele>381.6</ele><time>2026-04-04T12:29:20.385Z</time></trkpt><trkpt lat="44.4112325" lon="11.0719141"><ele>379.2</ele><time>2026-04-04T12:29:21.372Z</time></trkpt><trkpt lat="44.4111402" lon="11.0719247"><ele>376.8</ele><time>2026-04-04T12:29:22.375Z</time></trkpt><trkpt lat="44.4110477" lon="11.0719438"><ele>374.40000000000003</ele><time>2026-04-04T12:29:23.377Z</time></trkpt><trkpt lat="44.4109534" lon="11.0719717"><ele>372.0</ele><time>2026-04-04T12:29:24.378Z</time></trkpt><trkpt lat="44.4108606" lon="11.0720151"><ele>372.0</ele><time>2026-04-04T12:29:25.384Z</time></trkpt><trkpt lat="44.4107702" lon="11.0720737"><ele>372.0</ele><time>2026-04-04T12:29:26.382Z</time></trkpt><trkpt lat="44.4106841" lon="11.0721455"><ele>372.0</ele><time>2026-04-04T12:29:27.378Z</time></trkpt><trkpt lat="44.4106005" lon="11.0722257"><ele>372.0</ele><time>2026-04-04T12:29:28.379Z</time></trkpt><trkpt lat="44.4105202" lon="11.0723123"><ele>372.0</ele><time>2026-04-04T12:29:29.376Z</time></trkpt><trkpt lat="44.4104433" lon="11.0724017"><ele>370.6</ele><time>2026-04-04T12:29:30.379Z</time></trkpt><trkpt lat="44.4103692" lon="11.072492"><ele>369.20000000000005</ele><time>2026-04-04T12:29:31.375Z</time></trkpt><trkpt lat="44.4103003" lon="11.0725873"><ele>367.8</ele><time>2026-04-04T12:29:32.37Z</time></trkpt><trkpt lat="44.4102324" lon="11.0726794"><ele>366.4</ele><time>2026-04-04T12:29:33.38Z</time></trkpt><trkpt lat="44.4101622" lon="11.0727662"><ele>365.0</ele><time>2026-04-04T12:29:34.378Z</time></trkpt><trkpt lat="44.4100922" lon="11.0728502"><ele>365.0</ele><time>2026-04-04T12:29:35.381Z</time></trkpt><trkpt lat="44.4100225" lon="11.0729323"><ele>365.0</ele><time>2026-04-04T12:29:36.371Z</time></trkpt><trkpt lat="44.4099592" lon="11.0730073"><ele>365.0</ele><time>2026-04-04T12:29:37.377Z</time></trkpt><trkpt lat="44.409896" lon="11.0730655"><ele>365.0</ele><time>2026-04-04T12:29:38.371Z</time></trkpt><trkpt lat="44.4098071" lon="11.0731569"><ele>365.0</ele><time>2026-04-04T12:29:40.377Z</time></trkpt><trkpt lat="44.4097385" lon="11.073245"><ele>363.4</ele><time>2026-04-04T12:29:42.373Z</time></trkpt><trkpt lat="44.4096527" lon="11.0733359"><ele>361.8</ele><time>2026-04-04T12:29:44.371Z</time></trkpt><trkpt lat="44.4095409" lon="11.073433"><ele>360.20000000000005</ele><time>2026-04-04T12:29:46.38Z</time></trkpt><trkpt lat="44.4094737" lon="11.0734845"><ele>358.6</ele><time>2026-04-04T12:29:47.381Z</time></trkpt><trkpt lat="44.4093977" lon="11.0735353"><ele>357.0</ele><time>2026-04-04T12:29:48.377Z</time></trkpt><trkpt lat="44.4093151" lon="11.0735865"><ele>357.0</ele><time>2026-04-04T12:29:49.372Z</time></trkpt><trkpt lat="44.4092253" lon="11.0736381"><ele>357.0</ele><time>2026-04-04T12:29:50.381Z</time></trkpt><trkpt lat="44.4091295" lon="11.07369"><ele>357.0</ele><time>2026-04-04T12:29:51.378Z</time></trkpt><trkpt lat="44.4090286" lon="11.0737427"><ele>357.0</ele><time>2026-04-04T12:29:52.376Z</time></trkpt><trkpt lat="44.4089264" lon="11.0737948"><ele>357.0</ele><time>2026-04-04T12:29:53.377Z</time></trkpt><trkpt lat="44.4088261" lon="11.073846"><ele>353.8</ele><time>2026-04-04T12:29:54.38Z</time></trkpt><trkpt lat="44.4087358" lon="11.0738929"><ele>350.6</ele><time>2026-04-04T12:29:55.381Z</time></trkpt><trkpt lat="44.40865" lon="11.0739414"><ele>347.40000000000003</ele><time>2026-04-04T12:29:56.385Z</time></trkpt><trkpt lat="44.4085625" lon="11.0739863"><ele>344.20000000000005</ele><time>2026-04-04T12:29:57.379Z</time></trkpt><trkpt lat="44.4084751" lon="11.0740325"><ele>341.0</ele><time>2026-04-04T12:29:58.381Z</time></trkpt><trkpt lat="44.4083882" lon="11.0740787"><ele>341.20000000000005</ele><time>2026-04-04T12:29:59.373Z</time></trkpt><trkpt lat="44.408299" lon="11.0741206"><ele>341.40000000000003</ele><time>2026-04-04T12:30:00.37Z</time></trkpt><trkpt lat="44.4082122" lon="11.0741604"><ele>341.6</ele><time>2026-04-04T12:30:01.373Z</time></trkpt><trkpt lat="44.4081208" lon="11.0741878"><ele>341.8</ele><time>2026-04-04T12:30:02.377Z</time></trkpt><trkpt lat="44.4080315" lon="11.0742143"><ele>342.0</ele><time>2026-04-04T12:30:03.376Z</time></trkpt><trkpt lat="44.407948" lon="11.0742472"><ele>342.0</ele><time>2026-04-04T12:30:04.375Z</time></trkpt><trkpt lat="44.4078708" lon="11.0742885"><ele>342.0</ele><time>2026-04-04T12:30:05.382Z</time></trkpt><trkpt lat="44.4077985" lon="11.0743313"><ele>342.0</ele><time>2026-04-04T12:30:06.384Z</time></trkpt><trkpt lat="44.4077282" lon="11.0743696"><ele>342.0</ele><time>2026-04-04T12:30:07.377Z</time></trkpt><trkpt lat="44.4076506" lon="11.07441"><ele>342.0</ele><time>2026-04-04T12:30:08.376Z</time></trkpt><trkpt lat="44.4075648" lon="11.0744496"><ele>342.0</ele><time>2026-04-04T12:30:09.387Z</time></trkpt><trkpt lat="44.4074753" lon="11.0744847"><ele>342.0</ele><time>2026-04-04T12:30:10.381Z</time></trkpt><trkpt lat="44.407383" lon="11.074521"><ele>342.0</ele><time>2026-04-04T12:30:11.379Z</time></trkpt><trkpt lat="44.4072855" lon="11.074547"><ele>342.0</ele><time>2026-04-04T12:30:12.365Z</time></trkpt><trkpt lat="44.4071861" lon="11.0745732"><ele>342.0</ele><time>2026-04-04T12:30:13.389Z</time></trkpt><trkpt lat="44.4070914" lon="11.0745958"><ele>342.0</ele><time>2026-04-04T12:30:14.383Z</time></trkpt><trkpt lat="44.407" lon="11.0746081"><ele>341.3333333333333</ele><time>2026-04-04T12:30:15.378Z</time></trkpt><trkpt lat="44.406911" lon="11.0745982"><ele>340.6666666666667</ele><time>2026-04-04T12:30:16.376Z</time></trkpt><trkpt lat="44.4068274" lon="11.0745712"><ele>340.0</ele><time>2026-04-04T12:30:17.38Z</time></trkpt><trkpt lat="44.4067469" lon="11.0745474"><ele>339.33333333333337</ele><time>2026-04-04T12:30:18.401Z</time></trkpt><trkpt lat="44.406668" lon="11.0745378"><ele>338.6666666666667</ele><time>2026-04-04T12:30:19.375Z</time></trkpt><trkpt lat="44.4065925" lon="11.0745465"><ele>338.0</ele><time>2026-04-04T12:30:20.379Z</time></trkpt><trkpt lat="44.4065203" lon="11.0745667"><ele>338.0</ele><time>2026-04-04T12:30:21.384Z</time></trkpt><trkpt lat="44.4064504" lon="11.0745941"><ele>338.0</ele><time>2026-04-04T12:30:22.382Z</time></trkpt><trkpt lat="44.4063818" lon="11.074626"><ele>338.0</ele><time>2026-04-04T12:30:23.391Z</time></trkpt><trkpt lat="44.4063137" lon="11.0746574"><ele>338.0</ele><time>2026-04-04T12:30:24.384Z</time></trkpt><trkpt lat="44.4062429" lon="11.0746885"><ele>338.0</ele><time>2026-04-04T12:30:25.381Z</time></trkpt><trkpt lat="44.4061752" lon="11.0747172"><ele>338.0</ele><time>2026-04-04T12:30:26.386Z</time></trkpt><trkpt lat="44.4061041" lon="11.0747468"><ele>338.0</ele><time>2026-04-04T12:30:27.379Z</time></trkpt><trkpt lat="44.4060368" lon="11.0747659"><ele>337.6666666666667</ele><time>2026-04-04T12:30:28.373Z</time></trkpt><trkpt lat="44.4059688" lon="11.0747807"><ele>337.33333333333337</ele><time>2026-04-04T12:30:29.38Z</time></trkpt><trkpt lat="44.4059023" lon="11.0747966"><ele>337.0</ele><time>2026-04-04T12:30:30.377Z</time></trkpt><trkpt lat="44.4058389" lon="11.0748108"><ele>336.6666666666667</ele><time>2026-04-04T12:30:31.382Z</time></trkpt><trkpt lat="44.4057705" lon="11.0748181"><ele>336.3333333333333</ele><time>2026-04-04T12:30:32.378Z</time></trkpt><trkpt lat="44.4056486" lon="11.0748451"><ele>336.0</ele><time>2026-04-04T12:30:34.379Z</time></trkpt><trkpt lat="44.4055251" lon="11.0748856"><ele>336.1666666666667</ele><time>2026-04-04T12:30:36.376Z</time></trkpt><trkpt lat="44.4054646" lon="11.0749129"><ele>336.3333333333333</ele><time>2026-04-04T12:30:37.386Z</time></trkpt><trkpt lat="44.4053536" lon="11.0749657"><ele>336.5</ele><time>2026-04-04T12:30:39.378Z</time></trkpt><trkpt lat="44.4052435" lon="11.0750377"><ele>336.66666666666663</ele><time>2026-04-04T12:30:41.378Z</time></trkpt><trkpt lat="44.4051875" lon="11.0750865"><ele>336.8333333333333</ele><time>2026-04-04T12:30:42.387Z</time></trkpt><trkpt lat="44.4051325" lon="11.075151"><ele>337.0</ele><time>2026-04-04T12:30:43.379Z</time></trkpt><trkpt lat="44.4050738" lon="11.075221"><ele>337.0</ele><time>2026-04-04T12:30:44.384Z</time></trkpt><trkpt lat="44.4050111" lon="11.0752815"><ele>337.0</ele><time>2026-04-04T12:30:45.376Z</time></trkpt><trkpt lat="44.4049449" lon="11.075343"><ele>337.0</ele><time>2026-04-04T12:30:46.39Z</time></trkpt><trkpt lat="44.4048625" lon="11.0753756"><ele>337.0</ele><time>2026-04-04T12:30:47.37Z</time></trkpt><trkpt lat="44.4047705" lon="11.0753833"><ele>337.0</ele><time>2026-04-04T12:30:48.379Z</time></trkpt><trkpt lat="44.4046801" lon="11.0753767"><ele>337.0</ele><time>2026-04-04T12:30:49.376Z</time></trkpt><trkpt lat="44.4045958" lon="11.0753644"><ele>334.8333333333333</ele><time>2026-04-04T12:30:50.38Z</time></trkpt><trkpt lat="44.404519" lon="11.0753531"><ele>332.66666666666663</ele><time>2026-04-04T12:30:51.374Z</time></trkpt><trkpt lat="44.4044445" lon="11.0753378"><ele>330.5</ele><time>2026-04-04T12:30:52.376Z</time></trkpt><trkpt lat="44.4043686" lon="11.0753256"><ele>328.3333333333333</ele><time>2026-04-04T12:30:53.379Z</time></trkpt><trkpt lat="44.4042872" lon="11.0753225"><ele>326.1666666666667</ele><time>2026-04-04T12:30:54.382Z</time></trkpt><trkpt lat="44.4042063" lon="11.075315"><ele>324.0</ele><time>2026-04-04T12:30:55.375Z</time></trkpt><trkpt lat="44.4041291" lon="11.0753076"><ele>324.0</ele><time>2026-04-04T12:30:56.383Z</time></trkpt><trkpt lat="44.4040518" lon="11.0753022"><ele>324.0</ele><time>2026-04-04T12:30:57.378Z</time></trkpt><trkpt lat="44.4039757" lon="11.0753039"><ele>324.0</ele><time>2026-04-04T12:30:58.378Z</time></trkpt><trkpt lat="44.4039029" lon="11.0753141"><ele>324.0</ele><time>2026-04-04T12:30:59.381Z</time></trkpt><trkpt lat="44.4038318" lon="11.075332"><ele>324.0</ele><time>2026-04-04T12:31:00.376Z</time></trkpt><trkpt lat="44.403758" lon="11.0753517"><ele>324.0</ele><time>2026-04-04T12:31:01.379Z</time></trkpt><trkpt lat="44.4036802" lon="11.0753777"><ele>322.2</ele><time>2026-04-04T12:31:02.378Z</time></trkpt><trkpt lat="44.4035944" lon="11.0754004"><ele>320.4</ele><time>2026-04-04T12:31:03.377Z</time></trkpt><trkpt lat="44.4034998" lon="11.0754245"><ele>318.6</ele><time>2026-04-04T12:31:04.383Z</time></trkpt><trkpt lat="44.4033995" lon="11.0754326"><ele>316.8</ele><time>2026-04-04T12:31:05.38Z</time></trkpt><trkpt lat="44.4033038" lon="11.0754244"><ele>315.0</ele><time>2026-04-04T12:31:06.374Z</time></trkpt><trkpt lat="44.403207" lon="11.0754162"><ele>315.0</ele><time>2026-04-04T12:31:07.372Z</time></trkpt><trkpt lat="44.4031098" lon="11.0754068"><ele>315.0</ele><time>2026-04-04T12:31:08.379Z</time></trkpt><trkpt lat="44.4030074" lon="11.0754063"><ele>315.0</ele><time>2026-04-04T12:31:09.378Z</time></trkpt><trkpt lat="44.4029091" lon="11.0753934"><ele>315.0</ele><time>2026-04-04T12:31:10.375Z</time></trkpt><trkpt lat="44.4028027" lon="11.0753685"><ele>315.0</ele><time>2026-04-04T12:31:11.384Z</time></trkpt><trkpt lat="44.402699" lon="11.0753434"><ele>313.2</ele><time>2026-04-04T12:31:12.385Z</time></trkpt><trkpt lat="44.4025986" lon="11.0753171"><ele>311.4</ele><time>2026-04-04T12:31:13.393Z</time></trkpt><trkpt lat="44.4025004" lon="11.0752862"><ele>309.6</ele><time>2026-04-04T12:31:14.396Z</time></trkpt><trkpt lat="44.4024036" lon="11.0752561"><ele>307.8</ele><time>2026-04-04T12:31:15.384Z</time></trkpt><trkpt lat="44.4023083" lon="11.0752293"><ele>306.0</ele><time>2026-04-04T12:31:16.38Z</time></trkpt><trkpt lat="44.4022121" lon="11.0752139"><ele>304.1666666666667</ele><time>2026-04-04T12:31:17.375Z</time></trkpt><trkpt lat="44.4021239" lon="11.0752184"><ele>302.3333333333333</ele><time>2026-04-04T12:31:18.377Z</time></trkpt><trkpt lat="44.4020376" lon="11.0752368"><ele>300.5</ele><time>2026-04-04T12:31:19.37Z</time></trkpt><trkpt lat="44.4019505" lon="11.0752576"><ele>298.66666666666663</ele><time>2026-04-04T12:31:20.383Z</time></trkpt><trkpt lat="44.4018644" lon="11.075281"><ele>296.8333333333333</ele><time>2026-04-04T12:31:21.377Z</time></trkpt><trkpt lat="44.401782" lon="11.0753043"><ele>295.0</ele><time>2026-04-04T12:31:22.383Z</time></trkpt><trkpt lat="44.4017017" lon="11.0753255"><ele>295.0</ele><time>2026-04-04T12:31:23.374Z</time></trkpt><trkpt lat="44.4016251" lon="11.075344"><ele>295.0</ele><time>2026-04-04T12:31:24.357Z</time></trkpt><trkpt lat="44.4015517" lon="11.0753787"><ele>295.0</ele><time>2026-04-04T12:31:25.371Z</time></trkpt><trkpt lat="44.4015041" lon="11.0754398"><ele>295.0</ele><time>2026-04-04T12:31:26.387Z</time></trkpt><trkpt lat="44.4014782" lon="11.0755202"><ele>295.0</ele><time>2026-04-04T12:31:27.381Z</time></trkpt><trkpt lat="44.4015109" lon="11.0756853"><ele>295.0</ele><time>2026-04-04T12:31:29.389Z</time></trkpt><trkpt lat="44.4015641" lon="11.0757523"><ele>294.66666666666663</ele><time>2026-04-04T12:31:30.378Z</time></trkpt><trkpt lat="44.4016329" lon="11.0758096"><ele>294.3333333333333</ele><time>2026-04-04T12:31:31.375Z</time></trkpt><trkpt lat="44.401708" lon="11.0758634"><ele>294.0</ele><time>2026-04-04T12:31:32.38Z</time></trkpt><trkpt lat="44.4017849" lon="11.0759206"><ele>293.6666666666667</ele><time>2026-04-04T12:31:33.383Z</time></trkpt><trkpt lat="44.4018606" lon="11.0759876"><ele>293.33333333333337</ele><time>2026-04-04T12:31:34.378Z</time></trkpt><trkpt lat="44.4019343" lon="11.0760521"><ele>293.0</ele><time>2026-04-04T12:31:35.394Z</time></trkpt><trkpt lat="44.402004" lon="11.0761212"><ele>293.0</ele><time>2026-04-04T12:31:36.373Z</time></trkpt><trkpt lat="44.4020694" lon="11.0761933"><ele>293.0</ele><time>2026-04-04T12:31:37.364Z</time></trkpt><trkpt lat="44.4021236" lon="11.0762709"><ele>293.0</ele><time>2026-04-04T12:31:38.373Z</time></trkpt><trkpt lat="44.4021642" lon="11.0763597"><ele>293.0</ele><time>2026-04-04T12:31:39.387Z</time></trkpt><trkpt lat="44.4021821" lon="11.0764585"><ele>293.0</ele><time>2026-04-04T12:31:40.368Z</time></trkpt><trkpt lat="44.4021746" lon="11.0765605"><ele>293.0</ele><time>2026-04-04T12:31:41.376Z</time></trkpt><trkpt lat="44.4021641" lon="11.0766606"><ele>291.0</ele><time>2026-04-04T12:31:42.378Z</time></trkpt><trkpt lat="44.4021037" lon="11.0767355"><ele>289.0</ele><time>2026-04-04T12:31:43.371Z</time></trkpt><trkpt lat="44.4020277" lon="11.0767756"><ele>287.0</ele><time>2026-04-04T12:31:44.367Z</time></trkpt><trkpt lat="44.4019436" lon="11.0767849"><ele>285.0</ele><time>2026-04-04T12:31:45.382Z</time></trkpt><trkpt lat="44.4018579" lon="11.0767736"><ele>283.0</ele><time>2026-04-04T12:31:46.367Z</time></trkpt><trkpt lat="44.4017669" lon="11.0767624"><ele>281.0</ele><time>2026-04-04T12:31:47.369Z</time></trkpt><trkpt lat="44.4016725" lon="11.0767424"><ele>281.0</ele><time>2026-04-04T12:31:48.379Z</time></trkpt><trkpt lat="44.4015805" lon="11.076722"><ele>281.0</ele><time>2026-04-04T12:31:49.382Z</time></trkpt><trkpt lat="44.4014885" lon="11.0767031"><ele>281.0</ele><time>2026-04-04T12:31:50.376Z</time></trkpt><trkpt lat="44.401397" lon="11.0766832"><ele>281.0</ele><time>2026-04-04T12:31:51.377Z</time></trkpt><trkpt lat="44.4013074" lon="11.0766649"><ele>281.0</ele><time>2026-04-04T12:31:52.382Z</time></trkpt><trkpt lat="44.4012157" lon="11.0766524"><ele>280.6</ele><time>2026-04-04T12:31:53.38Z</time></trkpt><trkpt lat="44.4011238" lon="11.0766378"><ele>280.20000000000005</ele><time>2026-04-04T12:31:54.375Z</time></trkpt><trkpt lat="44.4010288" lon="11.0766178"><ele>279.79999999999995</ele><time>2026-04-04T12:31:55.385Z</time></trkpt><trkpt lat="44.400933" lon="11.0765928"><ele>279.4</ele><time>2026-04-04T12:31:56.376Z</time></trkpt><trkpt lat="44.4008393" lon="11.0765622"><ele>279.0</ele><time>2026-04-04T12:31:57.369Z</time></trkpt><trkpt lat="44.4007514" lon="11.0765226"><ele>279.0</ele><time>2026-04-04T12:31:58.371Z</time></trkpt><trkpt lat="44.400667" lon="11.076474"><ele>279.0</ele><time>2026-04-04T12:31:59.384Z</time></trkpt><trkpt lat="44.4005813" lon="11.0764235"><ele>279.0</ele><time>2026-04-04T12:32:00.371Z</time></trkpt><trkpt lat="44.4005012" lon="11.0763576"><ele>279.0</ele><time>2026-04-04T12:32:01.359Z</time></trkpt><trkpt lat="44.4004261" lon="11.076294"><ele>279.0</ele><time>2026-04-04T12:32:02.368Z</time></trkpt><trkpt lat="44.4003559" lon="11.0762333"><ele>279.0</ele><time>2026-04-04T12:32:03.367Z</time></trkpt><trkpt lat="44.4002905" lon="11.0761757"><ele>276.3333333333333</ele><time>2026-04-04T12:32:04.38Z</time></trkpt><trkpt lat="44.4002358" lon="11.0760944"><ele>273.6666666666667</ele><time>2026-04-04T12:32:05.374Z</time></trkpt><trkpt lat="44.400184" lon="11.0760111"><ele>271.0</ele><time>2026-04-04T12:32:06.375Z</time></trkpt><trkpt lat="44.4001577" lon="11.0759007"><ele>268.33333333333337</ele><time>2026-04-04T12:32:07.368Z</time></trkpt><trkpt lat="44.4001306" lon="11.0757867"><ele>265.6666666666667</ele><time>2026-04-04T12:32:08.373Z</time></trkpt><trkpt lat="44.4001033" lon="11.0756837"><ele>263.0</ele><time>2026-04-04T12:32:09.382Z</time></trkpt><trkpt lat="44.4000737" lon="11.0755934"><ele>263.0</ele><time>2026-04-04T12:32:10.378Z</time></trkpt><trkpt lat="44.4000292" lon="11.0755204"><ele>263.0</ele><time>2026-04-04T12:32:11.378Z</time></trkpt><trkpt lat="44.3999695" lon="11.0754783"><ele>263.0</ele><time>2026-04-04T12:32:12.378Z</time></trkpt><trkpt lat="44.3999115" lon="11.0754436"><ele>263.0</ele><time>2026-04-04T12:32:13.378Z</time></trkpt><trkpt lat="44.3998616" lon="11.0754984"><ele>263.0</ele><time>2026-04-04T12:32:14.377Z</time></trkpt><trkpt lat="44.3998361" lon="11.0755831"><ele>263.0</ele><time>2026-04-04T12:32:15.365Z</time></trkpt><trkpt lat="44.3998356" lon="11.075683"><ele>263.0</ele><time>2026-04-04T12:32:16.377Z</time></trkpt><trkpt lat="44.3998438" lon="11.0757876"><ele>262.83333333333337</ele><time>2026-04-04T12:32:17.373Z</time></trkpt><trkpt lat="44.399861" lon="11.0758983"><ele>262.6666666666667</ele><time>2026-04-04T12:32:18.375Z</time></trkpt><trkpt lat="44.399881" lon="11.0760121"><ele>262.5</ele><time>2026-04-04T12:32:19.376Z</time></trkpt><trkpt lat="44.3999033" lon="11.076128"><ele>262.3333333333333</ele><time>2026-04-04T12:32:20.372Z</time></trkpt><trkpt lat="44.3999241" lon="11.0762408"><ele>262.16666666666663</ele><time>2026-04-04T12:32:21.375Z</time></trkpt><trkpt lat="44.3999405" lon="11.0763507"><ele>262.0</ele><time>2026-04-04T12:32:22.378Z</time></trkpt><trkpt lat="44.3999434" lon="11.0764604"><ele>262.0</ele><time>2026-04-04T12:32:23.383Z</time></trkpt><trkpt lat="44.3999445" lon="11.0765668"><ele>262.0</ele><time>2026-04-04T12:32:24.378Z</time></trkpt><trkpt lat="44.3999062" lon="11.0766593"><ele>262.0</ele><time>2026-04-04T12:32:25.384Z</time></trkpt><trkpt lat="44.3998626" lon="11.0767473"><ele>262.0</ele><time>2026-04-04T12:32:26.375Z</time></trkpt><trkpt lat="44.3998137" lon="11.0768267"><ele>262.0</ele><time>2026-04-04T12:32:27.375Z</time></trkpt><trkpt lat="44.3997619" lon="11.0769003"><ele>262.0</ele><time>2026-04-04T12:32:28.386Z</time></trkpt><trkpt lat="44.3997123" lon="11.0769691"><ele>262.0</ele><time>2026-04-04T12:32:29.382Z</time></trkpt><trkpt lat="44.3996641" lon="11.0770369"><ele>260.16666666666663</ele><time>2026-04-04T12:32:30.379Z</time></trkpt><trkpt lat="44.3996169" lon="11.0770969"><ele>258.3333333333333</ele><time>2026-04-04T12:32:31.381Z</time></trkpt><trkpt lat="44.3995467" lon="11.0772179"><ele>256.5</ele><time>2026-04-04T12:32:33.37Z</time></trkpt><trkpt lat="44.3994973" lon="11.0773245"><ele>254.66666666666669</ele><time>2026-04-04T12:32:35.374Z</time></trkpt><trkpt lat="44.3994588" lon="11.0774126"><ele>252.83333333333334</ele><time>2026-04-04T12:32:37.376Z</time></trkpt><trkpt lat="44.399438" lon="11.0775037"><ele>251.0</ele><time>2026-04-04T12:32:39.374Z</time></trkpt><trkpt lat="44.3994749" lon="11.0776202"><ele>250.0</ele><time>2026-04-04T12:32:41.38Z</time></trkpt><trkpt lat="44.3995579" lon="11.0777134"><ele>249.0</ele><time>2026-04-04T12:32:43.371Z</time></trkpt><trkpt lat="44.3996401" lon="11.0778254"><ele>248.0</ele><time>2026-04-04T12:32:45.381Z</time></trkpt><trkpt lat="44.3997165" lon="11.0779541"><ele>247.0</ele><time>2026-04-04T12:32:47.377Z</time></trkpt><trkpt lat="44.3997984" lon="11.078091"><ele>247.0</ele><time>2026-04-04T12:32:49.378Z</time></trkpt><trkpt lat="44.3998421" lon="11.0781606"><ele>247.0</ele><time>2026-04-04T12:32:50.375Z</time></trkpt><trkpt lat="44.3998876" lon="11.0782311"><ele>247.0</ele><time>2026-04-04T12:32:51.388Z</time></trkpt><trkpt lat="44.3999339" lon="11.0783032"><ele>247.0</ele><time>2026-04-04T12:32:52.385Z</time></trkpt><trkpt lat="44.3999807" lon="11.0783745"><ele>247.0</ele><time>2026-04-04T12:32:53.374Z</time></trkpt><trkpt lat="44.4000289" lon="11.0784452"><ele>247.0</ele><time>2026-04-04T12:32:54.385Z</time></trkpt><trkpt lat="44.4000742" lon="11.0785168"><ele>247.0</ele><time>2026-04-04T12:32:55.369Z</time></trkpt><trkpt lat="44.4001202" lon="11.0785873"><ele>246.71428571428572</ele><time>2026-04-04T12:32:56.382Z</time></trkpt><trkpt lat="44.400166" lon="11.0786576"><ele>246.42857142857142</ele><time>2026-04-04T12:32:57.382Z</time></trkpt><trkpt lat="44.4002108" lon="11.0787293"><ele>246.14285714285714</ele><time>2026-04-04T12:32:58.365Z</time></trkpt><trkpt lat="44.4002557" lon="11.0788011"><ele>245.85714285714286</ele><time>2026-04-04T12:32:59.371Z</time></trkpt><trkpt lat="44.4002994" lon="11.0788738"><ele>245.57142857142856</ele><time>2026-04-04T12:33:00.388Z</time></trkpt><trkpt lat="44.400343" lon="11.0789458"><ele>245.28571428571428</ele><time>2026-04-04T12:33:01.372Z</time></trkpt><trkpt lat="44.4003855" lon="11.0790178"><ele>245.0</ele><time>2026-04-04T12:33:02.382Z</time></trkpt><trkpt lat="44.400428" lon="11.0790911"><ele>245.42857142857144</ele><time>2026-04-04T12:33:03.375Z</time></trkpt><trkpt lat="44.4004712" lon="11.079165"><ele>245.85714285714286</ele><time>2026-04-04T12:33:04.382Z</time></trkpt><trkpt lat="44.4005139" lon="11.0792377"><ele>246.28571428571428</ele><time>2026-04-04T12:33:05.38Z</time></trkpt><trkpt lat="44.4005588" lon="11.0793071"><ele>246.71428571428572</ele><time>2026-04-04T12:33:06.379Z</time></trkpt><trkpt lat="44.4006031" lon="11.0793737"><ele>247.14285714285717</ele><time>2026-04-04T12:33:07.371Z</time></trkpt><trkpt lat="44.4006487" lon="11.0794463"><ele>247.57142857142858</ele><time>2026-04-04T12:33:08.379Z</time></trkpt><trkpt lat="44.4006958" lon="11.0795178"><ele>248.0</ele><time>2026-04-04T12:33:09.374Z</time></trkpt><trkpt lat="44.4007446" lon="11.079591"><ele>248.00000000000003</ele><time>2026-04-04T12:33:10.392Z</time></trkpt><trkpt lat="44.400796" lon="11.0796646"><ele>248.0</ele><time>2026-04-04T12:33:11.373Z</time></trkpt><trkpt lat="44.4008491" lon="11.0797376"><ele>248.0</ele><time>2026-04-04T12:33:12.372Z</time></trkpt><trkpt lat="44.400905" lon="11.0798095"><ele>248.0</ele><time>2026-04-04T12:33:13.38Z</time></trkpt><trkpt lat="44.4009623" lon="11.0798805"><ele>248.00000000000003</ele><time>2026-04-04T12:33:14.377Z</time></trkpt><trkpt lat="44.401023" lon="11.0799488"><ele>248.0</ele><time>2026-04-04T12:33:15.383Z</time></trkpt><trkpt lat="44.401086" lon="11.0800128"><ele>247.00000000000003</ele><time>2026-04-04T12:33:16.373Z</time></trkpt><trkpt lat="44.4011498" lon="11.0800778"><ele>246.0</ele><time>2026-04-04T12:33:17.375Z</time></trkpt><trkpt lat="44.4012144" lon="11.080141"><ele>245.0</ele><time>2026-04-04T12:33:18.373Z</time></trkpt><trkpt lat="44.4012802" lon="11.0802051"><ele>244.0</ele><time>2026-04-04T12:33:19.371Z</time></trkpt><trkpt lat="44.4013465" lon="11.0802676"><ele>243.00000000000003</ele><time>2026-04-04T12:33:20.383Z</time></trkpt><trkpt lat="44.401414" lon="11.080332"><ele>242.0</ele><time>2026-04-04T12:33:21.376Z</time></trkpt><trkpt lat="44.4014831" lon="11.0803965"><ele>242.00000000000003</ele><time>2026-04-04T12:33:22.372Z</time></trkpt><trkpt lat="44.4015529" lon="11.0804631"><ele>242.0</ele><time>2026-04-04T12:33:23.373Z</time></trkpt><trkpt lat="44.4016225" lon="11.0805308"><ele>242.0</ele><time>2026-04-04T12:33:24.384Z</time></trkpt><trkpt lat="44.4016915" lon="11.0805972"><ele>242.0</ele><time>2026-04-04T12:33:25.376Z</time></trkpt><trkpt lat="44.4017602" lon="11.0806629"><ele>242.00000000000003</ele><time>2026-04-04T12:33:26.378Z</time></trkpt><trkpt lat="44.40183" lon="11.0807289"><ele>242.0</ele><time>2026-04-04T12:33:27.382Z</time></trkpt><trkpt lat="44.4019005" lon="11.0807951"><ele>242.33333333333334</ele><time>2026-04-04T12:33:28.387Z</time></trkpt><trkpt lat="44.4019703" lon="11.0808623"><ele>242.66666666666669</ele><time>2026-04-04T12:33:29.379Z</time></trkpt><trkpt lat="44.4020387" lon="11.0809282"><ele>243.0</ele><time>2026-04-04T12:33:30.379Z</time></trkpt><trkpt lat="44.4021082" lon="11.0809941"><ele>243.33333333333331</ele><time>2026-04-04T12:33:31.373Z</time></trkpt><trkpt lat="44.4021784" lon="11.0810594"><ele>243.66666666666666</ele><time>2026-04-04T12:33:32.383Z</time></trkpt><trkpt lat="44.4022487" lon="11.0811247"><ele>244.0</ele><time>2026-04-04T12:33:33.377Z</time></trkpt><trkpt lat="44.4023187" lon="11.0811902"><ele>243.99999999999997</ele><time>2026-04-04T12:33:34.37Z</time></trkpt><trkpt lat="44.4023891" lon="11.0812562"><ele>244.0</ele><time>2026-04-04T12:33:35.381Z</time></trkpt><trkpt lat="44.4024602" lon="11.0813228"><ele>244.0</ele><time>2026-04-04T12:33:36.383Z</time></trkpt><trkpt lat="44.4025304" lon="11.0813891"><ele>244.0</ele><time>2026-04-04T12:33:37.377Z</time></trkpt><trkpt lat="44.4025996" lon="11.0814563"><ele>243.99999999999997</ele><time>2026-04-04T12:33:38.382Z</time></trkpt><trkpt lat="44.4026687" lon="11.0815215"><ele>244.0</ele><time>2026-04-04T12:33:39.382Z</time></trkpt><trkpt lat="44.4027363" lon="11.0815851"><ele>242.99999999999997</ele><time>2026-04-04T12:33:40.382Z</time></trkpt><trkpt lat="44.4028026" lon="11.0816475"><ele>242.0</ele><time>2026-04-04T12:33:41.376Z</time></trkpt><trkpt lat="44.4028674" lon="11.0817069"><ele>241.0</ele><time>2026-04-04T12:33:42.38Z</time></trkpt><trkpt lat="44.402931" lon="11.0817664"><ele>240.0</ele><time>2026-04-04T12:33:43.383Z</time></trkpt><trkpt lat="44.4029938" lon="11.0818247"><ele>238.99999999999997</ele><time>2026-04-04T12:33:44.358Z</time></trkpt><trkpt lat="44.4030557" lon="11.0818839"><ele>238.0</ele><time>2026-04-04T12:33:45.385Z</time></trkpt><trkpt lat="44.4031177" lon="11.0819421"><ele>237.99999999999997</ele><time>2026-04-04T12:33:46.369Z</time></trkpt><trkpt lat="44.4031807" lon="11.0820011"><ele>238.0</ele><time>2026-04-04T12:33:47.376Z</time></trkpt><trkpt lat="44.4032429" lon="11.082059"><ele>238.0</ele><time>2026-04-04T12:33:48.375Z</time></trkpt><trkpt lat="44.4033054" lon="11.0821166"><ele>238.0</ele><time>2026-04-04T12:33:49.374Z</time></trkpt><trkpt lat="44.4033682" lon="11.0821759"><ele>237.99999999999997</ele><time>2026-04-04T12:33:50.385Z</time></trkpt><trkpt lat="44.4034313" lon="11.0822367"><ele>238.0</ele><time>2026-04-04T12:33:51.37Z</time></trkpt><trkpt lat="44.4034958" lon="11.0822971"><ele>237.99999999999997</ele><time>2026-04-04T12:33:52.373Z</time></trkpt><trkpt lat="44.4035603" lon="11.0823581"><ele>238.0</ele><time>2026-04-04T12:33:53.38Z</time></trkpt><trkpt lat="44.4036261" lon="11.0824178"><ele>238.0</ele><time>2026-04-04T12:33:54.372Z</time></trkpt><trkpt lat="44.4036917" lon="11.0824792"><ele>238.0</ele><time>2026-04-04T12:33:55.371Z</time></trkpt><trkpt lat="44.4037572" lon="11.0825403"><ele>237.99999999999997</ele><time>2026-04-04T12:33:56.388Z</time></trkpt><trkpt lat="44.4038229" lon="11.0826013"><ele>238.0</ele><time>2026-04-04T12:33:57.373Z</time></trkpt><trkpt lat="44.4038892" lon="11.0826654"><ele>237.49999999999997</ele><time>2026-04-04T12:33:58.381Z</time></trkpt><trkpt lat="44.4039561" lon="11.0827321"><ele>237.0</ele><time>2026-04-04T12:33:59.37Z</time></trkpt><trkpt lat="44.4040217" lon="11.0828007"><ele>236.5</ele><time>2026-04-04T12:34:00.37Z</time></trkpt><trkpt lat="44.4040848" lon="11.0828718"><ele>236.0</ele><time>2026-04-04T12:34:01.381Z</time></trkpt><trkpt lat="44.4041455" lon="11.0829466"><ele>235.49999999999997</ele><time>2026-04-04T12:34:02.388Z</time></trkpt><trkpt lat="44.4042038" lon="11.0830261"><ele>235.0</ele><time>2026-04-04T12:34:03.38Z</time></trkpt><trkpt lat="44.4042579" lon="11.0831093"><ele>234.99999999999997</ele><time>2026-04-04T12:34:04.39Z</time></trkpt><trkpt lat="44.4043106" lon="11.0831956"><ele>235.0</ele><time>2026-04-04T12:34:05.381Z</time></trkpt><trkpt lat="44.4043624" lon="11.0832817"><ele>235.0</ele><time>2026-04-04T12:34:06.377Z</time></trkpt><trkpt lat="44.4044137" lon="11.0833678"><ele>235.0</ele><time>2026-04-04T12:34:07.378Z</time></trkpt><trkpt lat="44.4044622" lon="11.0834525"><ele>234.99999999999997</ele><time>2026-04-04T12:34:08.385Z</time></trkpt><trkpt lat="44.4045105" lon="11.0835383"><ele>235.0</ele><time>2026-04-04T12:34:09.383Z</time></trkpt><trkpt lat="44.4045585" lon="11.0836224"><ele>234.99999999999997</ele><time>2026-04-04T12:34:10.371Z</time></trkpt><trkpt lat="44.4046069" lon="11.0837057"><ele>235.0</ele><time>2026-04-04T12:34:11.377Z</time></trkpt><trkpt lat="44.4046545" lon="11.0837897"><ele>235.0</ele><time>2026-04-04T12:34:12.374Z</time></trkpt><trkpt lat="44.4047013" lon="11.0838737"><ele>235.0</ele><time>2026-04-04T12:34:13.38Z</time></trkpt><trkpt lat="44.4047485" lon="11.0839573"><ele>234.99999999999997</ele><time>2026-04-04T12:34:14.377Z</time></trkpt><trkpt lat="44.4047964" lon="11.084041"><ele>235.0</ele><time>2026-04-04T12:34:15.398Z</time></trkpt><trkpt lat="44.4048444" lon="11.0841246"><ele>234.49999999999997</ele><time>2026-04-04T12:34:16.384Z</time></trkpt><trkpt lat="44.4048923" lon="11.0842094"><ele>234.0</ele><time>2026-04-04T12:34:17.377Z</time></trkpt><trkpt lat="44.4049404" lon="11.0842953"><ele>233.5</ele><time>2026-04-04T12:34:18.367Z</time></trkpt><trkpt lat="44.4049886" lon="11.0843824"><ele>233.0</ele><time>2026-04-04T12:34:19.378Z</time></trkpt><trkpt lat="44.405038" lon="11.0844702"><ele>232.49999999999997</ele><time>2026-04-04T12:34:20.387Z</time></trkpt><trkpt lat="44.4050882" lon="11.0845579"><ele>232.0</ele><time>2026-04-04T12:34:21.386Z</time></trkpt><trkpt lat="44.4051386" lon="11.0846458"><ele>231.99999999999997</ele><time>2026-04-04T12:34:22.376Z</time></trkpt><trkpt lat="44.4051879" lon="11.0847349"><ele>232.0</ele><time>2026-04-04T12:34:23.373Z</time></trkpt><trkpt lat="44.4052381" lon="11.084825"><ele>232.0</ele><time>2026-04-04T12:34:24.382Z</time></trkpt><trkpt lat="44.4052901" lon="11.0849157"><ele>232.0</ele><time>2026-04-04T12:34:25.376Z</time></trkpt><trkpt lat="44.4053434" lon="11.0850078"><ele>231.99999999999997</ele><time>2026-04-04T12:34:26.38Z</time></trkpt><trkpt lat="44.4053959" lon="11.0851017"><ele>232.0</ele><time>2026-04-04T12:34:27.383Z</time></trkpt><trkpt lat="44.4054491" lon="11.0851947"><ele>232.49999999999997</ele><time>2026-04-04T12:34:28.387Z</time></trkpt><trkpt lat="44.4055034" lon="11.08529"><ele>233.0</ele><time>2026-04-04T12:34:29.38Z</time></trkpt><trkpt lat="44.4055572" lon="11.0853839"><ele>233.5</ele><time>2026-04-04T12:34:30.382Z</time></trkpt><trkpt lat="44.4056104" lon="11.0854765"><ele>234.0</ele><time>2026-04-04T12:34:31.376Z</time></trkpt><trkpt lat="44.405664" lon="11.0855685"><ele>234.49999999999997</ele><time>2026-04-04T12:34:32.376Z</time></trkpt><trkpt lat="44.4057169" lon="11.085661"><ele>235.0</ele><time>2026-04-04T12:34:33.371Z</time></trkpt><trkpt lat="44.405768" lon="11.0857504"><ele>233.49999999999997</ele><time>2026-04-04T12:34:34.384Z</time></trkpt><trkpt lat="44.4058185" lon="11.0858412"><ele>232.0</ele><time>2026-04-04T12:34:35.378Z</time></trkpt><trkpt lat="44.4058672" lon="11.0859314"><ele>230.5</ele><time>2026-04-04T12:34:36.385Z</time></trkpt><trkpt lat="44.4059174" lon="11.0860199"><ele>229.0</ele><time>2026-04-04T12:34:37.382Z</time></trkpt><trkpt lat="44.4059684" lon="11.0861081"><ele>227.49999999999997</ele><time>2026-04-04T12:34:38.374Z</time></trkpt><trkpt lat="44.4060186" lon="11.0861987"><ele>226.0</ele><time>2026-04-04T12:34:39.387Z</time></trkpt><trkpt lat="44.4060698" lon="11.0862899"><ele>225.99999999999997</ele><time>2026-04-04T12:34:40.381Z</time></trkpt><trkpt lat="44.4061197" lon="11.0863788"><ele>226.0</ele><time>2026-04-04T12:34:41.377Z</time></trkpt><trkpt lat="44.4061718" lon="11.0864662"><ele>226.0</ele><time>2026-04-04T12:34:42.379Z</time></trkpt><trkpt lat="44.4062244" lon="11.0865524"><ele>226.0</ele><time>2026-04-04T12:34:43.38Z</time></trkpt><trkpt lat="44.406278" lon="11.0866374"><ele>225.99999999999997</ele><time>2026-04-04T12:34:44.373Z</time></trkpt><trkpt lat="44.4063326" lon="11.0867214"><ele>226.0</ele><time>2026-04-04T12:34:45.376Z</time></trkpt><trkpt lat="44.4063905" lon="11.0868044"><ele>226.99999999999997</ele><time>2026-04-04T12:34:46.372Z</time></trkpt><trkpt lat="44.4064497" lon="11.086888"><ele>228.0</ele><time>2026-04-04T12:34:47.383Z</time></trkpt><trkpt lat="44.4065089" lon="11.086974"><ele>229.0</ele><time>2026-04-04T12:34:48.371Z</time></trkpt><trkpt lat="44.4065685" lon="11.0870602"><ele>230.0</ele><time>2026-04-04T12:34:49.381Z</time></trkpt><trkpt lat="44.4066291" lon="11.0871462"><ele>230.99999999999997</ele><time>2026-04-04T12:34:50.379Z</time></trkpt><trkpt lat="44.4066899" lon="11.0872318"><ele>232.0</ele><time>2026-04-04T12:34:51.378Z</time></trkpt><trkpt lat="44.4067503" lon="11.0873185"><ele>231.99999999999997</ele><time>2026-04-04T12:34:52.377Z</time></trkpt><trkpt lat="44.4068108" lon="11.0874053"><ele>232.0</ele><time>2026-04-04T12:34:53.375Z</time></trkpt><trkpt lat="44.4068717" lon="11.0874923"><ele>232.0</ele><time>2026-04-04T12:34:54.379Z</time></trkpt><trkpt lat="44.4069322" lon="11.0875794"><ele>232.0</ele><time>2026-04-04T12:34:55.379Z</time></trkpt><trkpt lat="44.4069933" lon="11.0876659"><ele>231.99999999999997</ele><time>2026-04-04T12:34:56.377Z</time></trkpt><trkpt lat="44.4070544" lon="11.0877515"><ele>232.0</ele><time>2026-04-04T12:34:57.368Z</time></trkpt><trkpt lat="44.4071146" lon="11.0878377"><ele>231.83333333333331</ele><time>2026-04-04T12:34:58.381Z</time></trkpt><trkpt lat="44.4071748" lon="11.0879234"><ele>231.66666666666666</ele><time>2026-04-04T12:34:59.381Z</time></trkpt><trkpt lat="44.4072354" lon="11.0880089"><ele>231.5</ele><time>2026-04-04T12:35:00.379Z</time></trkpt><trkpt lat="44.407295" lon="11.0880949"><ele>231.33333333333331</ele><time>2026-04-04T12:35:01.381Z</time></trkpt><trkpt lat="44.4073554" lon="11.0881803"><ele>231.16666666666666</ele><time>2026-04-04T12:35:02.373Z</time></trkpt><trkpt lat="44.4074162" lon="11.0882659"><ele>231.0</ele><time>2026-04-04T12:35:03.373Z</time></trkpt><trkpt lat="44.4074763" lon="11.088351"><ele>229.66666666666666</ele><time>2026-04-04T12:35:04.377Z</time></trkpt><trkpt lat="44.407537" lon="11.0884343"><ele>228.33333333333331</ele><time>2026-04-04T12:35:05.378Z</time></trkpt><trkpt lat="44.4075982" lon="11.0885165"><ele>227.0</ele><time>2026-04-04T12:35:06.381Z</time></trkpt><trkpt lat="44.4076598" lon="11.0885975"><ele>225.66666666666666</ele><time>2026-04-04T12:35:07.369Z</time></trkpt><trkpt lat="44.4077221" lon="11.0886768"><ele>224.33333333333331</ele><time>2026-04-04T12:35:08.377Z</time></trkpt><trkpt lat="44.4077845" lon="11.0887534"><ele>223.0</ele><time>2026-04-04T12:35:09.375Z</time></trkpt><trkpt lat="44.4078489" lon="11.0888258"><ele>222.99999999999997</ele><time>2026-04-04T12:35:10.382Z</time></trkpt><trkpt lat="44.4079148" lon="11.0888951"><ele>223.0</ele><time>2026-04-04T12:35:11.384Z</time></trkpt><trkpt lat="44.4079814" lon="11.0889626"><ele>223.0</ele><time>2026-04-04T12:35:12.384Z</time></trkpt><trkpt lat="44.4080486" lon="11.0890282"><ele>223.0</ele><time>2026-04-04T12:35:13.381Z</time></trkpt><trkpt lat="44.4081162" lon="11.0890928"><ele>222.99999999999997</ele><time>2026-04-04T12:35:14.373Z</time></trkpt><trkpt lat="44.4081829" lon="11.0891585"><ele>223.0</ele><time>2026-04-04T12:35:15.367Z</time></trkpt><trkpt lat="44.4082495" lon="11.0892217"><ele>222.83333333333331</ele><time>2026-04-04T12:35:16.382Z</time></trkpt><trkpt lat="44.4083164" lon="11.0892843"><ele>222.66666666666666</ele><time>2026-04-04T12:35:17.382Z</time></trkpt><trkpt lat="44.4083824" lon="11.0893469"><ele>222.5</ele><time>2026-04-04T12:35:18.391Z</time></trkpt><trkpt lat="44.4084476" lon="11.0894096"><ele>222.33333333333331</ele><time>2026-04-04T12:35:19.379Z</time></trkpt><trkpt lat="44.4085131" lon="11.0894719"><ele>222.16666666666666</ele><time>2026-04-04T12:35:20.382Z</time></trkpt><trkpt lat="44.4085789" lon="11.0895324"><ele>222.0</ele><time>2026-04-04T12:35:21.387Z</time></trkpt><trkpt lat="44.408645" lon="11.089594"><ele>222.0</ele><time>2026-04-04T12:35:22.38Z</time></trkpt><trkpt lat="44.4087103" lon="11.089656"><ele>222.0</ele><time>2026-04-04T12:35:23.374Z</time></trkpt><trkpt lat="44.4087762" lon="11.0897187"><ele>222.0</ele><time>2026-04-04T12:35:24.381Z</time></trkpt><trkpt lat="44.4088417" lon="11.0897799"><ele>222.0</ele><time>2026-04-04T12:35:25.37Z</time></trkpt><trkpt lat="44.4089073" lon="11.0898405"><ele>222.0</ele><time>2026-04-04T12:35:26.37Z</time></trkpt><trkpt lat="44.408971" lon="11.0898997"><ele>222.0</ele><time>2026-04-04T12:35:27.387Z</time></trkpt><trkpt lat="44.409033" lon="11.0899585"><ele>221.42857142857142</ele><time>2026-04-04T12:35:28.378Z</time></trkpt><trkpt lat="44.4090944" lon="11.0900155"><ele>220.85714285714286</ele><time>2026-04-04T12:35:29.364Z</time></trkpt><trkpt lat="44.4091558" lon="11.0900709"><ele>220.28571428571428</ele><time>2026-04-04T12:35:30.384Z</time></trkpt><trkpt lat="44.4092151" lon="11.0901251"><ele>219.71428571428572</ele><time>2026-04-04T12:35:31.383Z</time></trkpt><trkpt lat="44.4092722" lon="11.0901765"><ele>219.14285714285717</ele><time>2026-04-04T12:35:32.381Z</time></trkpt><trkpt lat="44.4093281" lon="11.0902282"><ele>218.57142857142858</ele><time>2026-04-04T12:35:33.391Z</time></trkpt><trkpt lat="44.4093827" lon="11.0902786"><ele>218.0</ele><time>2026-04-04T12:35:34.373Z</time></trkpt><trkpt lat="44.4094367" lon="11.0903273"><ele>218.0</ele><time>2026-04-04T12:35:35.376Z</time></trkpt><trkpt lat="44.4094906" lon="11.0903764"><ele>218.0</ele><time>2026-04-04T12:35:36.382Z</time></trkpt><trkpt lat="44.4095431" lon="11.0904252"><ele>218.0</ele><time>2026-04-04T12:35:37.383Z</time></trkpt><trkpt lat="44.409645" lon="11.0905227"><ele>218.0</ele><time>2026-04-04T12:35:39.386Z</time></trkpt><trkpt lat="44.4097453" lon="11.0906237"><ele>218.0</ele><time>2026-04-04T12:35:41.379Z</time></trkpt><trkpt lat="44.4098407" lon="11.0907275"><ele>219.0</ele><time>2026-04-04T12:35:43.372Z</time></trkpt><trkpt lat="44.4099329" lon="11.090834"><ele>220.0</ele><time>2026-04-04T12:35:45.38Z</time></trkpt><trkpt lat="44.4100182" lon="11.0909344"><ele>221.0</ele><time>2026-04-04T12:35:47.387Z</time></trkpt><trkpt lat="44.4101003" lon="11.0910267"><ele>222.0</ele><time>2026-04-04T12:35:49.386Z</time></trkpt><trkpt lat="44.4101815" lon="11.0911175"><ele>223.0</ele><time>2026-04-04T12:35:51.375Z</time></trkpt><trkpt lat="44.4102616" lon="11.0912112"><ele>223.0</ele><time>2026-04-04T12:35:53.372Z</time></trkpt><trkpt lat="44.410341" lon="11.0913041"><ele>223.0</ele><time>2026-04-04T12:35:55.373Z</time></trkpt><trkpt lat="44.4104183" lon="11.0913914"><ele>223.0</ele><time>2026-04-04T12:35:57.387Z</time></trkpt><trkpt lat="44.4104917" lon="11.0914756"><ele>223.0</ele><time>2026-04-04T12:35:59.368Z</time></trkpt><trkpt lat="44.4105653" lon="11.0915594"><ele>223.0</ele><time>2026-04-04T12:36:01.376Z</time></trkpt><trkpt lat="44.4106385" lon="11.0916432"><ele>223.0</ele><time>2026-04-04T12:36:03.378Z</time></trkpt><trkpt lat="44.4107127" lon="11.0917303"><ele>223.0</ele><time>2026-04-04T12:36:05.372Z</time></trkpt><trkpt lat="44.4107869" lon="11.0918154"><ele>223.0</ele><time>2026-04-04T12:36:07.387Z</time></trkpt><trkpt lat="44.4108607" lon="11.0919022"><ele>223.0</ele><time>2026-04-04T12:36:09.38Z</time></trkpt><trkpt lat="44.410933" lon="11.0919874"><ele>223.0</ele><time>2026-04-04T12:36:11.4Z</time></trkpt><trkpt lat="44.4110053" lon="11.0920684"><ele>223.0</ele><time>2026-04-04T12:36:13.381Z</time></trkpt><trkpt lat="44.4110798" lon="11.092151"><ele>223.0</ele><time>2026-04-04T12:36:15.378Z</time></trkpt><trkpt lat="44.4111548" lon="11.0922333"><ele>223.0</ele><time>2026-04-04T12:36:17.379Z</time></trkpt><trkpt lat="44.4112282" lon="11.0923103"><ele>223.0</ele><time>2026-04-04T12:36:19.376Z</time></trkpt><trkpt lat="44.4112998" lon="11.0923854"><ele>223.0</ele><time>2026-04-04T12:36:21.378Z</time></trkpt><trkpt lat="44.4113703" lon="11.0924579"><ele>224.16666666666666</ele><time>2026-04-04T12:36:23.378Z</time></trkpt><trkpt lat="44.4114417" lon="11.0925306"><ele>225.33333333333331</ele><time>2026-04-04T12:36:25.384Z</time></trkpt><trkpt lat="44.4115098" lon="11.0926037"><ele>226.5</ele><time>2026-04-04T12:36:27.381Z</time></trkpt><trkpt lat="44.4115789" lon="11.0926748"><ele>227.66666666666669</ele><time>2026-04-04T12:36:29.38Z</time></trkpt><trkpt lat="44.411647" lon="11.0927431"><ele>228.83333333333334</ele><time>2026-04-04T12:36:31.393Z</time></trkpt><trkpt lat="44.4117156" lon="11.0928153"><ele>230.0</ele><time>2026-04-04T12:36:33.372Z</time></trkpt><trkpt lat="44.4117841" lon="11.0928841"><ele>230.00000000000003</ele><time>2026-04-04T12:36:35.38Z</time></trkpt><trkpt lat="44.4118515" lon="11.0929529"><ele>230.0</ele><time>2026-04-04T12:36:37.375Z</time></trkpt><trkpt lat="44.411918" lon="11.0930207"><ele>230.0</ele><time>2026-04-04T12:36:39.378Z</time></trkpt><trkpt lat="44.4119844" lon="11.0930888"><ele>230.0</ele><time>2026-04-04T12:36:41.387Z</time></trkpt><trkpt lat="44.4120511" lon="11.0931579"><ele>230.00000000000003</ele><time>2026-04-04T12:36:43.381Z</time></trkpt><trkpt lat="44.4121199" lon="11.0932259"><ele>230.0</ele><time>2026-04-04T12:36:45.376Z</time></trkpt><trkpt lat="44.4121852" lon="11.0932934"><ele>231.00000000000003</ele><time>2026-04-04T12:36:47.376Z</time></trkpt><trkpt lat="44.4122487" lon="11.0933619"><ele>232.0</ele><time>2026-04-04T12:36:49.376Z</time></trkpt><trkpt lat="44.4123124" lon="11.0934294"><ele>233.0</ele><time>2026-04-04T12:36:51.368Z</time></trkpt><trkpt lat="44.4123778" lon="11.0934952"><ele>234.0</ele><time>2026-04-04T12:36:53.394Z</time></trkpt><trkpt lat="44.412442" lon="11.0935634"><ele>235.00000000000003</ele><time>2026-04-04T12:36:55.381Z</time></trkpt><trkpt lat="44.4125083" lon="11.0936267"><ele>236.0</ele><time>2026-04-04T12:36:57.389Z</time></trkpt><trkpt lat="44.4125763" lon="11.0936819"><ele>236.00000000000003</ele><time>2026-04-04T12:36:59.38Z</time></trkpt><trkpt lat="44.4126464" lon="11.0937414"><ele>236.0</ele><time>2026-04-04T12:37:01.378Z</time></trkpt><trkpt lat="44.4127174" lon="11.0938023"><ele>236.0</ele><time>2026-04-04T12:37:03.376Z</time></trkpt><trkpt lat="44.4127828" lon="11.0938609"><ele>236.0</ele><time>2026-04-04T12:37:05.378Z</time></trkpt><trkpt lat="44.4128472" lon="11.0939187"><ele>236.00000000000003</ele><time>2026-04-04T12:37:07.378Z</time></trkpt><trkpt lat="44.4129147" lon="11.093987"><ele>236.0</ele><time>2026-04-04T12:37:09.385Z</time></trkpt><trkpt lat="44.4129854" lon="11.0940624"><ele>234.8</ele><time>2026-04-04T12:37:11.37Z</time></trkpt><trkpt lat="44.4130585" lon="11.0941462"><ele>233.60000000000002</ele><time>2026-04-04T12:37:13.367Z</time></trkpt><trkpt lat="44.413132" lon="11.0942346"><ele>232.4</ele><time>2026-04-04T12:37:15.374Z</time></trkpt><trkpt lat="44.413207" lon="11.0943252"><ele>231.2</ele><time>2026-04-04T12:37:17.373Z</time></trkpt><trkpt lat="44.4132804" lon="11.0944228"><ele>230.0</ele><time>2026-04-04T12:37:19.374Z</time></trkpt><trkpt lat="44.413356" lon="11.0945187"><ele>230.0</ele><time>2026-04-04T12:37:21.381Z</time></trkpt><trkpt lat="44.4134318" lon="11.0946169"><ele>230.0</ele><time>2026-04-04T12:37:23.382Z</time></trkpt><trkpt lat="44.4135125" lon="11.0947225"><ele>230.0</ele><time>2026-04-04T12:37:25.377Z</time></trkpt><trkpt lat="44.4135947" lon="11.0948245"><ele>230.0</ele><time>2026-04-04T12:37:27.383Z</time></trkpt><trkpt lat="44.4136754" lon="11.0949306"><ele>230.0</ele><time>2026-04-04T12:37:29.383Z</time></trkpt><trkpt lat="44.4137608" lon="11.0950354"><ele>230.25</ele><time>2026-04-04T12:37:31.368Z</time></trkpt><trkpt lat="44.4138439" lon="11.0951428"><ele>230.5</ele><time>2026-04-04T12:37:33.373Z</time></trkpt><trkpt lat="44.4139292" lon="11.0952517"><ele>230.75</ele><time>2026-04-04T12:37:35.383Z</time></trkpt><trkpt lat="44.414018" lon="11.0953609"><ele>231.0</ele><time>2026-04-04T12:37:37.38Z</time></trkpt><trkpt lat="44.4141074" lon="11.0954703"><ele>231.0</ele><time>2026-04-04T12:37:39.387Z</time></trkpt><trkpt lat="44.4142024" lon="11.0955754"><ele>231.0</ele><time>2026-04-04T12:37:41.373Z</time></trkpt><trkpt lat="44.4143015" lon="11.0956792"><ele>231.0</ele><time>2026-04-04T12:37:43.376Z</time></trkpt><trkpt lat="44.4143532" lon="11.0957326"><ele>231.0</ele><time>2026-04-04T12:37:44.381Z</time></trkpt><trkpt lat="44.4144061" lon="11.0957848"><ele>231.0</ele><time>2026-04-04T12:37:45.382Z</time></trkpt><trkpt lat="44.4144604" lon="11.095836"><ele>231.0</ele><time>2026-04-04T12:37:46.388Z</time></trkpt><trkpt lat="44.4145152" lon="11.0958898"><ele>230.85714285714286</ele><time>2026-04-04T12:37:47.386Z</time></trkpt><trkpt lat="44.4145716" lon="11.0959437"><ele>230.71428571428572</ele><time>2026-04-04T12:37:48.386Z</time></trkpt><trkpt lat="44.4146288" lon="11.0959976"><ele>230.57142857142856</ele><time>2026-04-04T12:37:49.388Z</time></trkpt><trkpt lat="44.4146875" lon="11.0960522"><ele>230.42857142857142</ele><time>2026-04-04T12:37:50.38Z</time></trkpt><trkpt lat="44.4147457" lon="11.0961108"><ele>230.28571428571428</ele><time>2026-04-04T12:37:51.391Z</time></trkpt><trkpt lat="44.414806" lon="11.09617"><ele>230.1428571428571</ele><time>2026-04-04T12:37:52.379Z</time></trkpt><trkpt lat="44.414867" lon="11.0962286"><ele>229.99999999999997</ele><time>2026-04-04T12:37:53.38Z</time></trkpt><trkpt lat="44.4149296" lon="11.0962885"><ele>230.00000000000003</ele><time>2026-04-04T12:37:54.391Z</time></trkpt><trkpt lat="44.4149937" lon="11.0963508"><ele>230.0</ele><time>2026-04-04T12:37:55.373Z</time></trkpt><trkpt lat="44.4150585" lon="11.0964128"><ele>230.0</ele><time>2026-04-04T12:37:56.381Z</time></trkpt><trkpt lat="44.4151227" lon="11.0964733"><ele>230.0</ele><time>2026-04-04T12:37:57.357Z</time></trkpt><trkpt lat="44.4151868" lon="11.0965366"><ele>230.00000000000003</ele><time>2026-04-04T12:37:58.378Z</time></trkpt><trkpt lat="44.4152515" lon="11.0965977"><ele>230.0</ele><time>2026-04-04T12:37:59.378Z</time></trkpt><trkpt lat="44.4153157" lon="11.09666"><ele>230.00000000000003</ele><time>2026-04-04T12:38:00.377Z</time></trkpt><trkpt lat="44.415379" lon="11.0967242"><ele>230.0</ele><time>2026-04-04T12:38:01.376Z</time></trkpt><trkpt lat="44.415442" lon="11.0967855"><ele>230.0</ele><time>2026-04-04T12:38:02.373Z</time></trkpt><trkpt lat="44.4155032" lon="11.0968478"><ele>230.0</ele><time>2026-04-04T12:38:03.369Z</time></trkpt><trkpt lat="44.415563" lon="11.0969105"><ele>230.00000000000003</ele><time>2026-04-04T12:38:04.377Z</time></trkpt><trkpt lat="44.4156243" lon="11.0969726"><ele>230.0</ele><time>2026-04-04T12:38:05.375Z</time></trkpt><trkpt lat="44.4156865" lon="11.0970354"><ele>230.00000000000003</ele><time>2026-04-04T12:38:06.374Z</time></trkpt><trkpt lat="44.4157498" lon="11.0970968"><ele>230.0</ele><time>2026-04-04T12:38:07.374Z</time></trkpt><trkpt lat="44.4158127" lon="11.0971602"><ele>230.0</ele><time>2026-04-04T12:38:08.375Z</time></trkpt><trkpt lat="44.4158769" lon="11.097224"><ele>230.0</ele><time>2026-04-04T12:38:09.374Z</time></trkpt><trkpt lat="44.4159407" lon="11.0972843"><ele>230.00000000000003</ele><time>2026-04-04T12:38:10.378Z</time></trkpt><trkpt lat="44.4160029" lon="11.0973461"><ele>230.0</ele><time>2026-04-04T12:38:11.377Z</time></trkpt><trkpt lat="44.4160633" lon="11.0974086"><ele>230.1428571428571</ele><time>2026-04-04T12:38:12.373Z</time></trkpt><trkpt lat="44.4161236" lon="11.0974637"><ele>230.28571428571428</ele><time>2026-04-04T12:38:13.377Z</time></trkpt><trkpt lat="44.4161832" lon="11.0975161"><ele>230.42857142857142</ele><time>2026-04-04T12:38:14.383Z</time></trkpt><trkpt lat="44.4162398" lon="11.0975685"><ele>230.57142857142856</ele><time>2026-04-04T12:38:15.381Z</time></trkpt><trkpt lat="44.4162932" lon="11.0976259"><ele>230.71428571428572</ele><time>2026-04-04T12:38:16.384Z</time></trkpt><trkpt lat="44.4163496" lon="11.097677"><ele>230.85714285714286</ele><time>2026-04-04T12:38:17.375Z</time></trkpt><trkpt lat="44.4164025" lon="11.097725"><ele>231.0</ele><time>2026-04-04T12:38:18.384Z</time></trkpt><trkpt lat="44.4164553" lon="11.0977758"><ele>231.0</ele><time>2026-04-04T12:38:19.387Z</time></trkpt><trkpt lat="44.4165065" lon="11.0978297"><ele>231.00000000000003</ele><time>2026-04-04T12:38:20.38Z</time></trkpt><trkpt lat="44.4166056" lon="11.0979173"><ele>231.00000000000003</ele><time>2026-04-04T12:38:22.378Z</time></trkpt><trkpt lat="44.4167068" lon="11.0979912"><ele>231.0</ele><time>2026-04-04T12:38:24.383Z</time></trkpt><trkpt lat="44.4168085" lon="11.0980522"><ele>231.0</ele><time>2026-04-04T12:38:26.395Z</time></trkpt><trkpt lat="44.4169129" lon="11.0980996"><ele>231.0</ele><time>2026-04-04T12:38:28.37Z</time></trkpt><trkpt lat="44.4170175" lon="11.0981359"><ele>231.00000000000003</ele><time>2026-04-04T12:38:30.385Z</time></trkpt><trkpt lat="44.4171222" lon="11.09816"><ele>231.00000000000003</ele><time>2026-04-04T12:38:32.375Z</time></trkpt><trkpt lat="44.4172271" lon="11.0981838"><ele>231.0</ele><time>2026-04-04T12:38:34.378Z</time></trkpt><trkpt lat="44.4173332" lon="11.0982152"><ele>231.0</ele><time>2026-04-04T12:38:36.398Z</time></trkpt><trkpt lat="44.41744" lon="11.0982651"><ele>230.0</ele><time>2026-04-04T12:38:38.381Z</time></trkpt><trkpt lat="44.4175449" lon="11.0983337"><ele>229.0</ele><time>2026-04-04T12:38:40.388Z</time></trkpt><trkpt lat="44.4176476" lon="11.0984139"><ele>228.0</ele><time>2026-04-04T12:38:42.379Z</time></trkpt><trkpt lat="44.417749" lon="11.0985017"><ele>227.0</ele><time>2026-04-04T12:38:44.37Z</time></trkpt><trkpt lat="44.4178494" lon="11.0985874"><ele>227.0</ele><time>2026-04-04T12:38:46.395Z</time></trkpt><trkpt lat="44.4179525" lon="11.0986705"><ele>227.0</ele><time>2026-04-04T12:38:48.382Z</time></trkpt><trkpt lat="44.4180603" lon="11.0987534"><ele>227.0</ele><time>2026-04-04T12:38:50.379Z</time></trkpt><trkpt lat="44.4181743" lon="11.0988319"><ele>227.0</ele><time>2026-04-04T12:38:52.374Z</time></trkpt><trkpt lat="44.4182338" lon="11.098872"><ele>227.0</ele><time>2026-04-04T12:38:53.388Z</time></trkpt><trkpt lat="44.4182946" lon="11.098914"><ele>227.42857142857144</ele><time>2026-04-04T12:38:54.377Z</time></trkpt><trkpt lat="44.4183569" lon="11.0989581"><ele>227.8571428571429</ele><time>2026-04-04T12:38:55.379Z</time></trkpt><trkpt lat="44.4184198" lon="11.0990047"><ele>228.28571428571428</ele><time>2026-04-04T12:38:56.377Z</time></trkpt><trkpt lat="44.4184827" lon="11.0990531"><ele>228.71428571428572</ele><time>2026-04-04T12:38:57.391Z</time></trkpt><trkpt lat="44.4185459" lon="11.0991045"><ele>229.14285714285714</ele><time>2026-04-04T12:38:58.376Z</time></trkpt><trkpt lat="44.4186087" lon="11.0991563"><ele>229.57142857142856</ele><time>2026-04-04T12:38:59.389Z</time></trkpt><trkpt lat="44.418671" lon="11.0992122"><ele>229.99999999999997</ele><time>2026-04-04T12:39:00.381Z</time></trkpt><trkpt lat="44.4187331" lon="11.0992711"><ele>229.83333333333334</ele><time>2026-04-04T12:39:01.378Z</time></trkpt><trkpt lat="44.4187952" lon="11.0993317"><ele>229.66666666666669</ele><time>2026-04-04T12:39:02.382Z</time></trkpt><trkpt lat="44.4188572" lon="11.0993937"><ele>229.5</ele><time>2026-04-04T12:39:03.375Z</time></trkpt><trkpt lat="44.4189208" lon="11.099457"><ele>229.33333333333331</ele><time>2026-04-04T12:39:04.373Z</time></trkpt><trkpt lat="44.418985" lon="11.0995198"><ele>229.16666666666666</ele><time>2026-04-04T12:39:05.377Z</time></trkpt><trkpt lat="44.41905" lon="11.0995842"><ele>229.0</ele><time>2026-04-04T12:39:06.378Z</time></trkpt><trkpt lat="44.4191159" lon="11.0996489"><ele>228.99999999999997</ele><time>2026-04-04T12:39:07.386Z</time></trkpt><trkpt lat="44.4191822" lon="11.0997146"><ele>229.0</ele><time>2026-04-04T12:39:08.376Z</time></trkpt><trkpt lat="44.4192507" lon="11.0997787"><ele>229.0</ele><time>2026-04-04T12:39:09.379Z</time></trkpt><trkpt lat="44.4193205" lon="11.0998408"><ele>229.0</ele><time>2026-04-04T12:39:10.384Z</time></trkpt><trkpt lat="44.4193918" lon="11.0999026"><ele>228.99999999999997</ele><time>2026-04-04T12:39:11.388Z</time></trkpt><trkpt lat="44.4194634" lon="11.0999602"><ele>229.0</ele><time>2026-04-04T12:39:12.381Z</time></trkpt><trkpt lat="44.4195342" lon="11.1000182"><ele>228.33333333333331</ele><time>2026-04-04T12:39:13.379Z</time></trkpt><trkpt lat="44.4196062" lon="11.1000707"><ele>227.66666666666666</ele><time>2026-04-04T12:39:14.384Z</time></trkpt><trkpt lat="44.4196772" lon="11.1001244"><ele>227.0</ele><time>2026-04-04T12:39:15.376Z</time></trkpt><trkpt lat="44.4197472" lon="11.1001802"><ele>226.33333333333331</ele><time>2026-04-04T12:39:16.381Z</time></trkpt><trkpt lat="44.419816" lon="11.1002368"><ele>225.66666666666666</ele><time>2026-04-04T12:39:17.37Z</time></trkpt><trkpt lat="44.4198851" lon="11.1002926"><ele>225.0</ele><time>2026-04-04T12:39:18.385Z</time></trkpt><trkpt lat="44.4199527" lon="11.1003494"><ele>225.00000000000003</ele><time>2026-04-04T12:39:19.374Z</time></trkpt><trkpt lat="44.4200184" lon="11.1004075"><ele>225.0</ele><time>2026-04-04T12:39:20.389Z</time></trkpt><trkpt lat="44.4200805" lon="11.1004691"><ele>225.00000000000003</ele><time>2026-04-04T12:39:21.375Z</time></trkpt><trkpt lat="44.420139" lon="11.1005362"><ele>225.00000000000003</ele><time>2026-04-04T12:39:22.382Z</time></trkpt><trkpt lat="44.4201944" lon="11.100606"><ele>225.0</ele><time>2026-04-04T12:39:23.373Z</time></trkpt><trkpt lat="44.4202475" lon="11.1006748"><ele>225.00000000000003</ele><time>2026-04-04T12:39:24.377Z</time></trkpt><trkpt lat="44.4202982" lon="11.1007482"><ele>225.00000000000003</ele><time>2026-04-04T12:39:25.377Z</time></trkpt><trkpt lat="44.4203482" lon="11.1008211"><ele>224.8571428571429</ele><time>2026-04-04T12:39:26.375Z</time></trkpt><trkpt lat="44.4203925" lon="11.100902"><ele>224.71428571428572</ele><time>2026-04-04T12:39:27.371Z</time></trkpt><trkpt lat="44.4204342" lon="11.1009837"><ele>224.57142857142858</ele><time>2026-04-04T12:39:28.387Z</time></trkpt><trkpt lat="44.4204733" lon="11.1010676"><ele>224.42857142857144</ele><time>2026-04-04T12:39:29.371Z</time></trkpt><trkpt lat="44.4205085" lon="11.1011536"><ele>224.28571428571428</ele><time>2026-04-04T12:39:30.378Z</time></trkpt><trkpt lat="44.4205374" lon="11.1012408"><ele>224.14285714285714</ele><time>2026-04-04T12:39:31.372Z</time></trkpt><trkpt lat="44.4205627" lon="11.1013265"><ele>224.0</ele><time>2026-04-04T12:39:32.375Z</time></trkpt><trkpt lat="44.420585" lon="11.1014126"><ele>224.0</ele><time>2026-04-04T12:39:33.374Z</time></trkpt><trkpt lat="44.4206016" lon="11.1014992"><ele>223.99999999999997</ele><time>2026-04-04T12:39:34.381Z</time></trkpt><trkpt lat="44.4206344" lon="11.1016654"><ele>223.99999999999997</ele><time>2026-04-04T12:39:36.384Z</time></trkpt><trkpt lat="44.4206698" lon="11.1018232"><ele>224.0</ele><time>2026-04-04T12:39:38.376Z</time></trkpt><trkpt lat="44.4207097" lon="11.101973"><ele>224.0</ele><time>2026-04-04T12:39:40.378Z</time></trkpt><trkpt lat="44.4207616" lon="11.1021148"><ele>223.5</ele><time>2026-04-04T12:39:42.376Z</time></trkpt><trkpt lat="44.4208236" lon="11.1022515"><ele>223.0</ele><time>2026-04-04T12:39:44.382Z</time></trkpt><trkpt lat="44.4208984" lon="11.1023814"><ele>222.5</ele><time>2026-04-04T12:39:46.381Z</time></trkpt><trkpt lat="44.420983" lon="11.1025035"><ele>222.0</ele><time>2026-04-04T12:39:48.379Z</time></trkpt><trkpt lat="44.4210771" lon="11.1026209"><ele>222.0</ele><time>2026-04-04T12:39:50.371Z</time></trkpt><trkpt lat="44.4211261" lon="11.102678"><ele>222.0</ele><time>2026-04-04T12:39:51.376Z</time></trkpt><trkpt lat="44.4212238" lon="11.1027811"><ele>222.0</ele><time>2026-04-04T12:39:53.373Z</time></trkpt><trkpt lat="44.4213197" lon="11.1028745"><ele>222.0</ele><time>2026-04-04T12:39:55.373Z</time></trkpt><trkpt lat="44.421424" lon="11.1029601"><ele>222.0</ele><time>2026-04-04T12:39:57.38Z</time></trkpt><trkpt lat="44.4215357" lon="11.1030417"><ele>222.0</ele><time>2026-04-04T12:39:59.393Z</time></trkpt><trkpt lat="44.4215951" lon="11.1030806"><ele>222.0</ele><time>2026-04-04T12:40:00.367Z</time></trkpt><trkpt lat="44.4216563" lon="11.1031189"><ele>222.0</ele><time>2026-04-04T12:40:01.382Z</time></trkpt><trkpt lat="44.4217199" lon="11.1031573"><ele>222.0</ele><time>2026-04-04T12:40:02.37Z</time></trkpt><trkpt lat="44.4217847" lon="11.1031966"><ele>222.0</ele><time>2026-04-04T12:40:03.37Z</time></trkpt><trkpt lat="44.4218505" lon="11.1032382"><ele>222.0</ele><time>2026-04-04T12:40:04.367Z</time></trkpt><trkpt lat="44.4219166" lon="11.103282"><ele>222.0</ele><time>2026-04-04T12:40:05.38Z</time></trkpt><trkpt lat="44.4219817" lon="11.1033284"><ele>221.66666666666666</ele><time>2026-04-04T12:40:06.376Z</time></trkpt><trkpt lat="44.4220456" lon="11.1033783"><ele>221.33333333333331</ele><time>2026-04-04T12:40:07.382Z</time></trkpt><trkpt lat="44.4221095" lon="11.1034303"><ele>221.0</ele><time>2026-04-04T12:40:08.381Z</time></trkpt><trkpt lat="44.4221731" lon="11.1034876"><ele>220.66666666666666</ele><time>2026-04-04T12:40:09.386Z</time></trkpt><trkpt lat="44.4222368" lon="11.1035459"><ele>220.33333333333331</ele><time>2026-04-04T12:40:10.379Z</time></trkpt><trkpt lat="44.4222999" lon="11.1036065"><ele>220.0</ele><time>2026-04-04T12:40:11.377Z</time></trkpt><trkpt lat="44.4223637" lon="11.1036732"><ele>219.83333333333331</ele><time>2026-04-04T12:40:12.384Z</time></trkpt><trkpt lat="44.4224273" lon="11.1037391"><ele>219.66666666666666</ele><time>2026-04-04T12:40:13.379Z</time></trkpt><trkpt lat="44.4224898" lon="11.1038079"><ele>219.5</ele><time>2026-04-04T12:40:14.38Z</time></trkpt><trkpt lat="44.4225516" lon="11.103879"><ele>219.33333333333331</ele><time>2026-04-04T12:40:15.376Z</time></trkpt><trkpt lat="44.422613" lon="11.1039511"><ele>219.16666666666666</ele><time>2026-04-04T12:40:16.381Z</time></trkpt><trkpt lat="44.4226752" lon="11.1040209"><ele>219.0</ele><time>2026-04-04T12:40:17.374Z</time></trkpt><trkpt lat="44.4227384" lon="11.1040903"><ele>218.66666666666666</ele><time>2026-04-04T12:40:18.375Z</time></trkpt><trkpt lat="44.4228006" lon="11.1041618"><ele>218.33333333333331</ele><time>2026-04-04T12:40:19.381Z</time></trkpt><trkpt lat="44.4228615" lon="11.1042367"><ele>218.0</ele><time>2026-04-04T12:40:20.38Z</time></trkpt><trkpt lat="44.4229214" lon="11.1043119"><ele>217.66666666666666</ele><time>2026-04-04T12:40:21.366Z</time></trkpt><trkpt lat="44.4229813" lon="11.1043867"><ele>217.33333333333331</ele><time>2026-04-04T12:40:22.379Z</time></trkpt><trkpt lat="44.4230415" lon="11.1044607"><ele>217.0</ele><time>2026-04-04T12:40:23.375Z</time></trkpt><trkpt lat="44.4231016" lon="11.1045325"><ele>216.99999999999997</ele><time>2026-04-04T12:40:24.376Z</time></trkpt><trkpt lat="44.4231611" lon="11.1046084"><ele>217.0</ele><time>2026-04-04T12:40:25.385Z</time></trkpt><trkpt lat="44.4232208" lon="11.1046859"><ele>217.0</ele><time>2026-04-04T12:40:26.376Z</time></trkpt><trkpt lat="44.4232818" lon="11.1047677"><ele>217.0</ele><time>2026-04-04T12:40:27.378Z</time></trkpt><trkpt lat="44.4233435" lon="11.1048513"><ele>216.99999999999997</ele><time>2026-04-04T12:40:28.377Z</time></trkpt><trkpt lat="44.4234044" lon="11.1049352"><ele>217.0</ele><time>2026-04-04T12:40:29.374Z</time></trkpt><trkpt lat="44.4234664" lon="11.1050189"><ele>215.99999999999997</ele><time>2026-04-04T12:40:30.384Z</time></trkpt><trkpt lat="44.4235299" lon="11.1050993"><ele>215.0</ele><time>2026-04-04T12:40:31.378Z</time></trkpt><trkpt lat="44.4235962" lon="11.1051749"><ele>214.0</ele><time>2026-04-04T12:40:32.379Z</time></trkpt><trkpt lat="44.4236643" lon="11.1052437"><ele>213.0</ele><time>2026-04-04T12:40:33.379Z</time></trkpt><trkpt lat="44.4237383" lon="11.105306"><ele>211.99999999999997</ele><time>2026-04-04T12:40:34.381Z</time></trkpt><trkpt lat="44.4238162" lon="11.1053644"><ele>211.0</ele><time>2026-04-04T12:40:35.374Z</time></trkpt><trkpt lat="44.423896" lon="11.1054184"><ele>211.0</ele><time>2026-04-04T12:40:36.38Z</time></trkpt><trkpt lat="44.4239773" lon="11.1054708"><ele>211.0</ele><time>2026-04-04T12:40:37.376Z</time></trkpt><trkpt lat="44.4240604" lon="11.1055201"><ele>211.0</ele><time>2026-04-04T12:40:38.373Z</time></trkpt><trkpt lat="44.424144" lon="11.1055696"><ele>211.0</ele><time>2026-04-04T12:40:39.377Z</time></trkpt><trkpt lat="44.424227" lon="11.10562"><ele>211.0</ele><time>2026-04-04T12:40:40.381Z</time></trkpt><trkpt lat="44.4243089" lon="11.105674"><ele>211.0</ele><time>2026-04-04T12:40:41.384Z</time></trkpt><trkpt lat="44.4243889" lon="11.105733"><ele>211.0</ele><time>2026-04-04T12:40:42.381Z</time></trkpt><trkpt lat="44.4244652" lon="11.1058025"><ele>211.0</ele><time>2026-04-04T12:40:43.383Z</time></trkpt><trkpt lat="44.4245395" lon="11.1058757"><ele>211.0</ele><time>2026-04-04T12:40:44.389Z</time></trkpt><trkpt lat="44.4246122" lon="11.1059496"><ele>211.0</ele><time>2026-04-04T12:40:45.384Z</time></trkpt><trkpt lat="44.4246826" lon="11.1060269"><ele>209.66666666666666</ele><time>2026-04-04T12:40:46.384Z</time></trkpt><trkpt lat="44.424752" lon="11.1061055"><ele>208.33333333333331</ele><time>2026-04-04T12:40:47.377Z</time></trkpt><trkpt lat="44.4248206" lon="11.106184"><ele>207.0</ele><time>2026-04-04T12:40:48.368Z</time></trkpt><trkpt lat="44.42489" lon="11.1062624"><ele>205.66666666666669</ele><time>2026-04-04T12:40:49.39Z</time></trkpt><trkpt lat="44.4249592" lon="11.1063411"><ele>204.33333333333334</ele><time>2026-04-04T12:40:50.378Z</time></trkpt><trkpt lat="44.4250285" lon="11.1064196"><ele>203.0</ele><time>2026-04-04T12:40:51.377Z</time></trkpt><trkpt lat="44.4250976" lon="11.1064982"><ele>203.00000000000003</ele><time>2026-04-04T12:40:52.38Z</time></trkpt><trkpt lat="44.4251668" lon="11.1065755"><ele>203.0</ele><time>2026-04-04T12:40:53.378Z</time></trkpt><trkpt lat="44.4252365" lon="11.1066517"><ele>203.0</ele><time>2026-04-04T12:40:54.374Z</time></trkpt><trkpt lat="44.425307" lon="11.1067236"><ele>203.0</ele><time>2026-04-04T12:40:55.382Z</time></trkpt><trkpt lat="44.4253775" lon="11.1067911"><ele>203.00000000000003</ele><time>2026-04-04T12:40:56.371Z</time></trkpt><trkpt lat="44.4254481" lon="11.1068519"><ele>203.0</ele><time>2026-04-04T12:40:57.378Z</time></trkpt><trkpt lat="44.4255195" lon="11.1069042"><ele>202.85714285714286</ele><time>2026-04-04T12:40:58.368Z</time></trkpt><trkpt lat="44.4255908" lon="11.1069505"><ele>202.71428571428572</ele><time>2026-04-04T12:40:59.373Z</time></trkpt><trkpt lat="44.4256618" lon="11.1069924"><ele>202.57142857142856</ele><time>2026-04-04T12:41:00.375Z</time></trkpt><trkpt lat="44.4257306" lon="11.1070311"><ele>202.42857142857144</ele><time>2026-04-04T12:41:01.387Z</time></trkpt><trkpt lat="44.4257981" lon="11.1070674"><ele>202.28571428571428</ele><time>2026-04-04T12:41:02.376Z</time></trkpt><trkpt lat="44.4258626" lon="11.1070975"><ele>202.14285714285714</ele><time>2026-04-04T12:41:03.379Z</time></trkpt><trkpt lat="44.4259255" lon="11.1071279"><ele>202.0</ele><time>2026-04-04T12:41:04.382Z</time></trkpt><trkpt lat="44.4259866" lon="11.1071585"><ele>202.0</ele><time>2026-04-04T12:41:05.381Z</time></trkpt><trkpt lat="44.4260999" lon="11.1072093"><ele>202.0</ele><time>2026-04-04T12:41:07.37Z</time></trkpt><trkpt lat="44.4262058" lon="11.1072558"><ele>202.0</ele><time>2026-04-04T12:41:09.377Z</time></trkpt><trkpt lat="44.4263052" lon="11.1072923"><ele>202.0</ele><time>2026-04-04T12:41:11.378Z</time></trkpt><trkpt lat="44.4263942" lon="11.1073209"><ele>202.0</ele><time>2026-04-04T12:41:13.381Z</time></trkpt><trkpt lat="44.4264822" lon="11.1073467"><ele>202.16666666666666</ele><time>2026-04-04T12:41:15.376Z</time></trkpt><trkpt lat="44.4265677" lon="11.1073771"><ele>202.33333333333331</ele><time>2026-04-04T12:41:17.372Z</time></trkpt><trkpt lat="44.4266517" lon="11.107418"><ele>202.5</ele><time>2026-04-04T12:41:19.382Z</time></trkpt><trkpt lat="44.4267317" lon="11.1074683"><ele>202.66666666666669</ele><time>2026-04-04T12:41:21.377Z</time></trkpt><trkpt lat="44.42681" lon="11.1075225"><ele>202.83333333333334</ele><time>2026-04-04T12:41:23.365Z</time></trkpt><trkpt lat="44.4268824" lon="11.1075768"><ele>203.0</ele><time>2026-04-04T12:41:25.375Z</time></trkpt><trkpt lat="44.4269536" lon="11.1076336"><ele>203.00000000000003</ele><time>2026-04-04T12:41:27.371Z</time></trkpt><trkpt lat="44.4270212" lon="11.1076905"><ele>203.0</ele><time>2026-04-04T12:41:29.379Z</time></trkpt><trkpt lat="44.4270897" lon="11.107744"><ele>203.0</ele><time>2026-04-04T12:41:31.373Z</time></trkpt><trkpt lat="44.4271596" lon="11.1077964"><ele>203.0</ele><time>2026-04-04T12:41:33.375Z</time></trkpt><trkpt lat="44.4272298" lon="11.1078401"><ele>203.00000000000003</ele><time>2026-04-04T12:41:35.379Z</time></trkpt><trkpt lat="44.427301" lon="11.1078848"><ele>203.0</ele><time>2026-04-04T12:41:37.383Z</time></trkpt><trkpt lat="44.4273743" lon="11.1079302"><ele>204.83333333333334</ele><time>2026-04-04T12:41:39.381Z</time></trkpt><trkpt lat="44.4274492" lon="11.107968"><ele>206.66666666666669</ele><time>2026-04-04T12:41:41.374Z</time></trkpt><trkpt lat="44.4275252" lon="11.1080038"><ele>208.5</ele><time>2026-04-04T12:41:43.379Z</time></trkpt><trkpt lat="44.4276021" lon="11.1080385"><ele>210.33333333333331</ele><time>2026-04-04T12:41:45.383Z</time></trkpt><trkpt lat="44.4276796" lon="11.1080693"><ele>212.16666666666666</ele><time>2026-04-04T12:41:47.37Z</time></trkpt><trkpt lat="44.4277551" lon="11.1081"><ele>214.0</ele><time>2026-04-04T12:41:49.371Z</time></trkpt><trkpt lat="44.4278286" lon="11.1081276"><ele>214.00000000000003</ele><time>2026-04-04T12:41:51.371Z</time></trkpt><trkpt lat="44.4279004" lon="11.1081567"><ele>214.0</ele><time>2026-04-04T12:41:53.388Z</time></trkpt><trkpt lat="44.4279736" lon="11.1081808"><ele>214.0</ele><time>2026-04-04T12:41:55.367Z</time></trkpt><trkpt lat="44.4280468" lon="11.108204"><ele>214.0</ele><time>2026-04-04T12:41:57.382Z</time></trkpt><trkpt lat="44.4281195" lon="11.1082271"><ele>214.0</ele><time>2026-04-04T12:41:59.389Z</time></trkpt><trkpt lat="44.4281908" lon="11.1082485"><ele>214.00000000000003</ele><time>2026-04-04T12:42:01.371Z</time></trkpt><trkpt lat="44.4282649" lon="11.1082707"><ele>214.0</ele><time>2026-04-04T12:42:03.383Z</time></trkpt><trkpt lat="44.4283404" lon="11.1082938"><ele>213.99999999999997</ele><time>2026-04-04T12:42:05.372Z</time></trkpt><trkpt lat="44.4284143" lon="11.1083198"><ele>214.0</ele><time>2026-04-04T12:42:07.37Z</time></trkpt><trkpt lat="44.4284896" lon="11.1083498"><ele>214.0</ele><time>2026-04-04T12:42:09.379Z</time></trkpt><trkpt lat="44.428566" lon="11.1083848"><ele>214.0</ele><time>2026-04-04T12:42:11.386Z</time></trkpt><trkpt lat="44.428642" lon="11.1084173"><ele>213.99999999999997</ele><time>2026-04-04T12:42:13.38Z</time></trkpt><trkpt lat="44.4287189" lon="11.1084563"><ele>214.0</ele><time>2026-04-04T12:42:15.375Z</time></trkpt><trkpt lat="44.4287967" lon="11.108496"><ele>215.83333333333331</ele><time>2026-04-04T12:42:17.382Z</time></trkpt><trkpt lat="44.4288743" lon="11.1085341"><ele>217.66666666666666</ele><time>2026-04-04T12:42:19.378Z</time></trkpt><trkpt lat="44.4289497" lon="11.1085763"><ele>219.5</ele><time>2026-04-04T12:42:21.379Z</time></trkpt><trkpt lat="44.4290259" lon="11.1086206"><ele>221.33333333333331</ele><time>2026-04-04T12:42:23.377Z</time></trkpt><trkpt lat="44.4291013" lon="11.108666"><ele>223.16666666666666</ele><time>2026-04-04T12:42:25.382Z</time></trkpt><trkpt lat="44.4291793" lon="11.1087091"><ele>225.0</ele><time>2026-04-04T12:42:27.377Z</time></trkpt><trkpt lat="44.4292552" lon="11.1087492"><ele>225.0</ele><time>2026-04-04T12:42:29.375Z</time></trkpt><trkpt lat="44.4293332" lon="11.1087873"><ele>225.0</ele><time>2026-04-04T12:42:31.391Z</time></trkpt><trkpt lat="44.4294152" lon="11.1088308"><ele>225.0</ele><time>2026-04-04T12:42:33.378Z</time></trkpt><trkpt lat="44.4295001" lon="11.1088703"><ele>225.0</ele><time>2026-04-04T12:42:35.375Z</time></trkpt><trkpt lat="44.4295864" lon="11.1089099"><ele>225.0</ele><time>2026-04-04T12:42:37.384Z</time></trkpt><trkpt lat="44.4296715" lon="11.10895"><ele>225.0</ele><time>2026-04-04T12:42:39.384Z</time></trkpt><trkpt lat="44.4297577" lon="11.1089905"><ele>223.2</ele><time>2026-04-04T12:42:41.38Z</time></trkpt><trkpt lat="44.4298439" lon="11.1090287"><ele>221.4</ele><time>2026-04-04T12:42:43.374Z</time></trkpt><trkpt lat="44.4299326" lon="11.1090588"><ele>219.60000000000002</ele><time>2026-04-04T12:42:45.382Z</time></trkpt><trkpt lat="44.4300234" lon="11.109085"><ele>217.8</ele><time>2026-04-04T12:42:47.391Z</time></trkpt><trkpt lat="44.4301134" lon="11.1090988"><ele>216.0</ele><time>2026-04-04T12:42:49.379Z</time></trkpt><trkpt lat="44.4302072" lon="11.1091026"><ele>216.0</ele><time>2026-04-04T12:42:51.384Z</time></trkpt><trkpt lat="44.4303016" lon="11.1091015"><ele>216.00000000000003</ele><time>2026-04-04T12:42:53.377Z</time></trkpt><trkpt lat="44.430398" lon="11.1090916"><ele>216.00000000000003</ele><time>2026-04-04T12:42:55.383Z</time></trkpt><trkpt lat="44.4304945" lon="11.1090819"><ele>216.0</ele><time>2026-04-04T12:42:57.37Z</time></trkpt><trkpt lat="44.4305905" lon="11.1090698"><ele>216.0</ele><time>2026-04-04T12:42:59.372Z</time></trkpt><trkpt lat="44.4306881" lon="11.109063"><ele>222.0</ele><time>2026-04-04T12:43:01.386Z</time></trkpt><trkpt lat="44.4307862" lon="11.1090591"><ele>228.00000000000003</ele><time>2026-04-04T12:43:03.377Z</time></trkpt><trkpt lat="44.4308819" lon="11.1090548"><ele>234.00000000000003</ele><time>2026-04-04T12:43:05.376Z</time></trkpt><trkpt lat="44.4309804" lon="11.1090557"><ele>240.0</ele><time>2026-04-04T12:43:07.373Z</time></trkpt><trkpt lat="44.4310777" lon="11.1090577"><ele>246.0</ele><time>2026-04-04T12:43:09.371Z</time></trkpt><trkpt lat="44.4311769" lon="11.1090627"><ele>246.0</ele><time>2026-04-04T12:43:11.376Z</time></trkpt><trkpt lat="44.4312762" lon="11.1090698"><ele>246.00000000000003</ele><time>2026-04-04T12:43:13.378Z</time></trkpt><trkpt lat="44.4313756" lon="11.1090793"><ele>246.00000000000003</ele><time>2026-04-04T12:43:15.389Z</time></trkpt><trkpt lat="44.431475" lon="11.1090899"><ele>246.0</ele><time>2026-04-04T12:43:17.388Z</time></trkpt><trkpt lat="44.4315706" lon="11.1091068"><ele>246.0</ele><time>2026-04-04T12:43:19.366Z</time></trkpt><trkpt lat="44.4316658" lon="11.1091272"><ele>240.60000000000002</ele><time>2026-04-04T12:43:21.38Z</time></trkpt><trkpt lat="44.4317616" lon="11.109154"><ele>235.20000000000002</ele><time>2026-04-04T12:43:23.384Z</time></trkpt><trkpt lat="44.4318567" lon="11.1091863"><ele>229.79999999999998</ele><time>2026-04-04T12:43:25.374Z</time></trkpt><trkpt lat="44.4319505" lon="11.1092184"><ele>224.39999999999998</ele><time>2026-04-04T12:43:27.382Z</time></trkpt><trkpt lat="44.4320394" lon="11.1092475"><ele>219.0</ele><time>2026-04-04T12:43:29.379Z</time></trkpt><trkpt lat="44.4321243" lon="11.1092771"><ele>221.16666666666666</ele><time>2026-04-04T12:43:31.389Z</time></trkpt><trkpt lat="44.432207" lon="11.1093176"><ele>223.33333333333331</ele><time>2026-04-04T12:43:33.387Z</time></trkpt><trkpt lat="44.4322919" lon="11.1093625"><ele>225.5</ele><time>2026-04-04T12:43:35.381Z</time></trkpt><trkpt lat="44.4323723" lon="11.1094092"><ele>227.66666666666666</ele><time>2026-04-04T12:43:37.38Z</time></trkpt><trkpt lat="44.4324512" lon="11.1094602"><ele>229.83333333333331</ele><time>2026-04-04T12:43:39.382Z</time></trkpt><trkpt lat="44.4325335" lon="11.1095119"><ele>232.0</ele><time>2026-04-04T12:43:41.381Z</time></trkpt><trkpt lat="44.432616" lon="11.1095616"><ele>231.99999999999997</ele><time>2026-04-04T12:43:43.376Z</time></trkpt><trkpt lat="44.4326965" lon="11.109604"><ele>232.0</ele><time>2026-04-04T12:43:45.365Z</time></trkpt><trkpt lat="44.4327752" lon="11.1096434"><ele>232.0</ele><time>2026-04-04T12:43:47.374Z</time></trkpt><trkpt lat="44.4328525" lon="11.1096771"><ele>232.0</ele><time>2026-04-04T12:43:49.373Z</time></trkpt><trkpt lat="44.4329274" lon="11.1097038"><ele>231.99999999999997</ele><time>2026-04-04T12:43:51.372Z</time></trkpt><trkpt lat="44.4329997" lon="11.1097319"><ele>232.0</ele><time>2026-04-04T12:43:53.373Z</time></trkpt><trkpt lat="44.4330735" lon="11.1097629"><ele>230.66666666666666</ele><time>2026-04-04T12:43:55.377Z</time></trkpt><trkpt lat="44.4331498" lon="11.1097973"><ele>229.33333333333331</ele><time>2026-04-04T12:43:57.356Z</time></trkpt><trkpt lat="44.4332253" lon="11.109834"><ele>228.0</ele><time>2026-04-04T12:43:59.368Z</time></trkpt><trkpt lat="44.4333006" lon="11.1098705"><ele>226.66666666666669</ele><time>2026-04-04T12:44:01.376Z</time></trkpt><trkpt lat="44.4333772" lon="11.1099085"><ele>225.33333333333334</ele><time>2026-04-04T12:44:03.373Z</time></trkpt><trkpt lat="44.4334527" lon="11.1099463"><ele>224.0</ele><time>2026-04-04T12:44:05.371Z</time></trkpt><trkpt lat="44.4335279" lon="11.1099801"><ele>224.00000000000003</ele><time>2026-04-04T12:44:07.356Z</time></trkpt><trkpt lat="44.4336038" lon="11.1100082"><ele>224.0</ele><time>2026-04-04T12:44:09.377Z</time></trkpt><trkpt lat="44.4336862" lon="11.1100197"><ele>224.0</ele><time>2026-04-04T12:44:11.36Z</time></trkpt><trkpt lat="44.4337732" lon="11.1100182"><ele>224.0</ele><time>2026-04-04T12:44:13.382Z</time></trkpt><trkpt lat="44.4338647" lon="11.1099982"><ele>224.00000000000003</ele><time>2026-04-04T12:44:15.357Z</time></trkpt><trkpt lat="44.4339595" lon="11.1099613"><ele>224.0</ele><time>2026-04-04T12:44:17.378Z</time></trkpt><trkpt lat="44.4340552" lon="11.1099093"><ele>225.79999999999998</ele><time>2026-04-04T12:44:19.366Z</time></trkpt><trkpt lat="44.4341529" lon="11.1098517"><ele>227.59999999999997</ele><time>2026-04-04T12:44:21.377Z</time></trkpt><trkpt lat="44.434252" lon="11.1097945"><ele>229.4</ele><time>2026-04-04T12:44:23.378Z</time></trkpt><trkpt lat="44.4343465" lon="11.109734"><ele>231.2</ele><time>2026-04-04T12:44:25.376Z</time></trkpt><trkpt lat="44.4344434" lon="11.1096636"><ele>233.0</ele><time>2026-04-04T12:44:27.379Z</time></trkpt><trkpt lat="44.4345419" lon="11.1095897"><ele>232.2</ele><time>2026-04-04T12:44:29.377Z</time></trkpt><trkpt lat="44.4346388" lon="11.1095173"><ele>231.4</ele><time>2026-04-04T12:44:31.381Z</time></trkpt><trkpt lat="44.4347373" lon="11.1094447"><ele>230.59999999999997</ele><time>2026-04-04T12:44:33.38Z</time></trkpt><trkpt lat="44.4348373" lon="11.109369"><ele>229.79999999999998</ele><time>2026-04-04T12:44:35.362Z</time></trkpt><trkpt lat="44.4349348" lon="11.1092936"><ele>229.0</ele><time>2026-04-04T12:44:37.386Z</time></trkpt><trkpt lat="44.4350293" lon="11.1092221"><ele>228.99999999999997</ele><time>2026-04-04T12:44:39.363Z</time></trkpt><trkpt lat="44.4351141" lon="11.1091543"><ele>229.0</ele><time>2026-04-04T12:44:41.377Z</time></trkpt><trkpt lat="44.4351867" lon="11.1090923"><ele>229.0</ele><time>2026-04-04T12:44:43.384Z</time></trkpt><trkpt lat="44.4352463" lon="11.1090485"><ele>229.0</ele><time>2026-04-04T12:44:45.39Z</time></trkpt><trkpt lat="44.4353242" lon="11.109061"><ele>228.99999999999997</ele><time>2026-04-04T12:44:49.383Z</time></trkpt><trkpt lat="44.4353997" lon="11.1090551"><ele>229.0</ele><time>2026-04-04T12:44:53.381Z</time></trkpt><trkpt lat="44.4354531" lon="11.1090036"><ele>229.0</ele><time>2026-04-04T12:44:57.367Z</time></trkpt><trkpt lat="44.4353825" lon="11.1090102"><ele>229.0</ele><time>2026-04-04T12:45:03.371Z</time></trkpt><trkpt lat="44.4353072" lon="11.1090671"><ele>229.0</ele><time>2026-04-04T12:45:06.381Z</time></trkpt><trkpt lat="44.4352738" lon="11.1091534"><ele>229.0</ele><time>2026-04-04T12:45:11.38Z</time></trkpt><trkpt lat="44.435317" lon="11.1090786"><ele>229.0</ele><time>2026-04-04T12:46:48.391Z</time></trkpt><trkpt lat="44.4353624" lon="11.1090151"><ele>229.0</ele><time>2026-04-04T12:46:51.374Z</time></trkpt><trkpt lat="44.4354222" lon="11.1089338"><ele>229.0</ele><time>2026-04-04T12:46:54.387Z</time></trkpt><trkpt lat="44.4354881" lon="11.1088673"><ele>229.66666666666666</ele><time>2026-04-04T12:46:58.372Z</time></trkpt><trkpt lat="44.4355521" lon="11.1088408"><ele>230.33333333333331</ele><time>2026-04-04T12:47:02.374Z</time></trkpt><trkpt lat="44.4355958" lon="11.1089084"><ele>231.0</ele><time>2026-04-04T12:47:06.384Z</time></trkpt><trkpt lat="44.4356149" lon="11.1090152"><ele>231.66666666666669</ele><time>2026-04-04T12:47:09.384Z</time></trkpt><trkpt lat="44.4355998" lon="11.1091377"><ele>232.33333333333334</ele><time>2026-04-04T12:47:11.371Z</time></trkpt><trkpt lat="44.4355622" lon="11.109277"><ele>233.0</ele><time>2026-04-04T12:47:13.381Z</time></trkpt><trkpt lat="44.4354984" lon="11.1094222"><ele>232.33333333333334</ele><time>2026-04-04T12:47:15.375Z</time></trkpt><trkpt lat="44.4354559" lon="11.1094968"><ele>231.66666666666669</ele><time>2026-04-04T12:47:16.382Z</time></trkpt><trkpt lat="44.435408" lon="11.109574"><ele>231.0</ele><time>2026-04-04T12:47:17.38Z</time></trkpt><trkpt lat="44.4353578" lon="11.1096563"><ele>230.33333333333331</ele><time>2026-04-04T12:47:18.381Z</time></trkpt><trkpt lat="44.4353066" lon="11.1097463"><ele>229.66666666666666</ele><time>2026-04-04T12:47:19.387Z</time></trkpt><trkpt lat="44.4352538" lon="11.109843"><ele>229.0</ele><time>2026-04-04T12:47:20.379Z</time></trkpt><trkpt lat="44.4351994" lon="11.1099425"><ele>227.79999999999998</ele><time>2026-04-04T12:47:21.378Z</time></trkpt><trkpt lat="44.4351696" lon="11.1100618"><ele>226.59999999999997</ele><time>2026-04-04T12:47:22.387Z</time></trkpt><trkpt lat="44.4351589" lon="11.1101896"><ele>225.4</ele><time>2026-04-04T12:47:23.379Z</time></trkpt><trkpt lat="44.4351746" lon="11.1103183"><ele>224.2</ele><time>2026-04-04T12:47:24.379Z</time></trkpt><trkpt lat="44.4352149" lon="11.1104399"><ele>223.0</ele><time>2026-04-04T12:47:25.382Z</time></trkpt><trkpt lat="44.4352742" lon="11.110544"><ele>223.0</ele><time>2026-04-04T12:47:26.372Z</time></trkpt><trkpt lat="44.435355" lon="11.1106235"><ele>223.0</ele><time>2026-04-04T12:47:27.373Z</time></trkpt><trkpt lat="44.435452" lon="11.1106676"><ele>223.0</ele><time>2026-04-04T12:47:28.375Z</time></trkpt><trkpt lat="44.4355565" lon="11.1106854"><ele>223.0</ele><time>2026-04-04T12:47:29.374Z</time></trkpt><trkpt lat="44.4356633" lon="11.1106947"><ele>223.0</ele><time>2026-04-04T12:47:30.388Z</time></trkpt><trkpt lat="44.4357721" lon="11.110704"><ele>221.2</ele><time>2026-04-04T12:47:31.375Z</time></trkpt><trkpt lat="44.4358831" lon="11.1107152"><ele>219.4</ele><time>2026-04-04T12:47:32.377Z</time></trkpt><trkpt lat="44.4359932" lon="11.110733"><ele>217.59999999999997</ele><time>2026-04-04T12:47:33.379Z</time></trkpt><trkpt lat="44.4360952" lon="11.110766"><ele>215.79999999999998</ele><time>2026-04-04T12:47:34.391Z</time></trkpt><trkpt lat="44.4361843" lon="11.1108229"><ele>214.0</ele><time>2026-04-04T12:47:35.382Z</time></trkpt><trkpt lat="44.4362606" lon="11.1109006"><ele>212.0</ele><time>2026-04-04T12:47:36.381Z</time></trkpt><trkpt lat="44.4363216" lon="11.111002"><ele>209.99999999999997</ele><time>2026-04-04T12:47:37.386Z</time></trkpt><trkpt lat="44.4363652" lon="11.1111238"><ele>208.0</ele><time>2026-04-04T12:47:38.379Z</time></trkpt><trkpt lat="44.4363961" lon="11.1112549"><ele>206.0</ele><time>2026-04-04T12:47:39.377Z</time></trkpt><trkpt lat="44.436423" lon="11.1113896"><ele>204.0</ele><time>2026-04-04T12:47:40.397Z</time></trkpt><trkpt lat="44.4364445" lon="11.1115234"><ele>204.2</ele><time>2026-04-04T12:47:41.373Z</time></trkpt><trkpt lat="44.4364493" lon="11.1116571"><ele>204.39999999999998</ele><time>2026-04-04T12:47:42.381Z</time></trkpt><trkpt lat="44.4364343" lon="11.1117912"><ele>204.6</ele><time>2026-04-04T12:47:43.381Z</time></trkpt><trkpt lat="44.4364009" lon="11.1119167"><ele>204.8</ele><time>2026-04-04T12:47:44.375Z</time></trkpt><trkpt lat="44.4363536" lon="11.112031"><ele>205.0</ele><time>2026-04-04T12:47:45.379Z</time></trkpt><trkpt lat="44.4362875" lon="11.1121274"><ele>205.0</ele><time>2026-04-04T12:47:46.383Z</time></trkpt><trkpt lat="44.4362055" lon="11.1122077"><ele>205.0</ele><time>2026-04-04T12:47:47.372Z</time></trkpt><trkpt lat="44.4361173" lon="11.1122753"><ele>205.0</ele><time>2026-04-04T12:47:48.375Z</time></trkpt><trkpt lat="44.4360289" lon="11.1123418"><ele>205.0</ele><time>2026-04-04T12:47:49.384Z</time></trkpt><trkpt lat="44.4359366" lon="11.1124105"><ele>205.0</ele><time>2026-04-04T12:47:50.377Z</time></trkpt><trkpt lat="44.4358417" lon="11.1124795"><ele>203.6</ele><time>2026-04-04T12:47:51.37Z</time></trkpt><trkpt lat="44.4357429" lon="11.1125402"><ele>202.2</ele><time>2026-04-04T12:47:52.376Z</time></trkpt><trkpt lat="44.4356456" lon="11.1125999"><ele>200.8</ele><time>2026-04-04T12:47:53.385Z</time></trkpt><trkpt lat="44.4355656" lon="11.1126826"><ele>199.4</ele><time>2026-04-04T12:47:54.37Z</time></trkpt><trkpt lat="44.435505" lon="11.1127869"><ele>198.0</ele><time>2026-04-04T12:47:55.377Z</time></trkpt><trkpt lat="44.4354652" lon="11.1129105"><ele>198.0</ele><time>2026-04-04T12:47:56.37Z</time></trkpt><trkpt lat="44.435445" lon="11.1130443"><ele>198.0</ele><time>2026-04-04T12:47:57.379Z</time></trkpt><trkpt lat="44.435446" lon="11.1131793"><ele>198.0</ele><time>2026-04-04T12:47:58.382Z</time></trkpt><trkpt lat="44.4354659" lon="11.1133078"><ele>198.0</ele><time>2026-04-04T12:47:59.38Z</time></trkpt><trkpt lat="44.4355068" lon="11.1134259"><ele>198.0</ele><time>2026-04-04T12:48:00.378Z</time></trkpt><trkpt lat="44.4355655" lon="11.1135254"><ele>195.60000000000002</ele><time>2026-04-04T12:48:01.389Z</time></trkpt><trkpt lat="44.4356403" lon="11.113607"><ele>193.20000000000002</ele><time>2026-04-04T12:48:02.379Z</time></trkpt><trkpt lat="44.4357284" lon="11.1136665"><ele>190.8</ele><time>2026-04-04T12:48:03.382Z</time></trkpt><trkpt lat="44.435827" lon="11.1137027"><ele>188.4</ele><time>2026-04-04T12:48:04.379Z</time></trkpt><trkpt lat="44.4359301" lon="11.1137191"><ele>186.0</ele><time>2026-04-04T12:48:05.377Z</time></trkpt><trkpt lat="44.4360359" lon="11.1137266"><ele>186.0</ele><time>2026-04-04T12:48:06.391Z</time></trkpt><trkpt lat="44.4361435" lon="11.113732"><ele>186.0</ele><time>2026-04-04T12:48:07.376Z</time></trkpt><trkpt lat="44.4362532" lon="11.1137369"><ele>186.0</ele><time>2026-04-04T12:48:08.376Z</time></trkpt><trkpt lat="44.4363645" lon="11.1137433"><ele>186.0</ele><time>2026-04-04T12:48:09.378Z</time></trkpt><trkpt lat="44.436478" lon="11.1137524"><ele>186.0</ele><time>2026-04-04T12:48:10.38Z</time></trkpt><trkpt lat="44.4365934" lon="11.1137606"><ele>184.75</ele><time>2026-04-04T12:48:11.377Z</time></trkpt><trkpt lat="44.4367101" lon="11.1137689"><ele>183.5</ele><time>2026-04-04T12:48:12.386Z</time></trkpt><trkpt lat="44.4368283" lon="11.1137723"><ele>182.25</ele><time>2026-04-04T12:48:13.396Z</time></trkpt><trkpt lat="44.4369445" lon="11.1137606"><ele>181.0</ele><time>2026-04-04T12:48:14.385Z</time></trkpt><trkpt lat="44.4370578" lon="11.1137244"><ele>179.20000000000002</ele><time>2026-04-04T12:48:15.373Z</time></trkpt><trkpt lat="44.4371663" lon="11.1136674"><ele>177.4</ele><time>2026-04-04T12:48:16.377Z</time></trkpt><trkpt lat="44.4372655" lon="11.1136013"><ele>175.6</ele><time>2026-04-04T12:48:17.381Z</time></trkpt><trkpt lat="44.4373521" lon="11.1135529"><ele>173.8</ele><time>2026-04-04T12:48:18.377Z</time></trkpt><trkpt lat="44.4374286" lon="11.1135324"><ele>172.0</ele><time>2026-04-04T12:48:19.38Z</time></trkpt><trkpt lat="44.4374973" lon="11.1135324"><ele>172.00000000000003</ele><time>2026-04-04T12:48:20.386Z</time></trkpt><trkpt lat="44.4375627" lon="11.1135328"><ele>172.0</ele><time>2026-04-04T12:48:21.38Z</time></trkpt><trkpt lat="44.4376174" lon="11.1135953"><ele>172.0</ele><time>2026-04-04T12:48:22.386Z</time></trkpt><trkpt lat="44.4376606" lon="11.1136768"><ele>172.0</ele><time>2026-04-04T12:48:23.377Z</time></trkpt><trkpt lat="44.4377001" lon="11.113761"><ele>172.0</ele><time>2026-04-04T12:48:24.377Z</time></trkpt><trkpt lat="44.4377121" lon="11.1138679"><ele>172.00000000000003</ele><time>2026-04-04T12:48:25.381Z</time></trkpt><trkpt lat="44.4377198" lon="11.1139775"><ele>172.0</ele><time>2026-04-04T12:48:26.375Z</time></trkpt><trkpt lat="44.4377272" lon="11.1140899"><ele>171.16666666666669</ele><time>2026-04-04T12:48:27.382Z</time></trkpt><trkpt lat="44.4377329" lon="11.1142031"><ele>170.33333333333334</ele><time>2026-04-04T12:48:28.379Z</time></trkpt><trkpt lat="44.4377404" lon="11.114316"><ele>169.5</ele><time>2026-04-04T12:48:29.384Z</time></trkpt><trkpt lat="44.4377501" lon="11.1144288"><ele>168.66666666666666</ele><time>2026-04-04T12:48:30.386Z</time></trkpt><trkpt lat="44.4377623" lon="11.1145418"><ele>167.83333333333331</ele><time>2026-04-04T12:48:31.384Z</time></trkpt><trkpt lat="44.4377767" lon="11.1146514"><ele>167.0</ele><time>2026-04-04T12:48:32.382Z</time></trkpt><trkpt lat="44.4377935" lon="11.1147589"><ele>167.0</ele><time>2026-04-04T12:48:33.368Z</time></trkpt><trkpt lat="44.4378115" lon="11.1148657"><ele>167.0</ele><time>2026-04-04T12:48:34.372Z</time></trkpt><trkpt lat="44.43783" lon="11.1149722"><ele>167.0</ele><time>2026-04-04T12:48:35.376Z</time></trkpt><trkpt lat="44.4378476" lon="11.115075"><ele>167.0</ele><time>2026-04-04T12:48:36.381Z</time></trkpt><trkpt lat="44.4378665" lon="11.1151742"><ele>167.0</ele><time>2026-04-04T12:48:37.382Z</time></trkpt><trkpt lat="44.4378841" lon="11.1152699"><ele>167.0</ele><time>2026-04-04T12:48:38.378Z</time></trkpt><trkpt lat="44.4379" lon="11.1153632"><ele>167.0</ele><time>2026-04-04T12:48:39.383Z</time></trkpt><trkpt lat="44.4379136" lon="11.1154567"><ele>166.85714285714286</ele><time>2026-04-04T12:48:40.382Z</time></trkpt><trkpt lat="44.4379267" lon="11.1155504"><ele>166.71428571428572</ele><time>2026-04-04T12:48:41.382Z</time></trkpt><trkpt lat="44.4379369" lon="11.1156446"><ele>166.57142857142856</ele><time>2026-04-04T12:48:42.379Z</time></trkpt><trkpt lat="44.4379468" lon="11.1157389"><ele>166.42857142857144</ele><time>2026-04-04T12:48:43.384Z</time></trkpt><trkpt lat="44.4379578" lon="11.1158319"><ele>166.2857142857143</ele><time>2026-04-04T12:48:44.384Z</time></trkpt><trkpt lat="44.4379664" lon="11.115925"><ele>166.14285714285714</ele><time>2026-04-04T12:48:45.393Z</time></trkpt><trkpt lat="44.4379714" lon="11.1160182"><ele>166.0</ele><time>2026-04-04T12:48:46.381Z</time></trkpt><trkpt lat="44.4379721" lon="11.1161094"><ele>166.0</ele><time>2026-04-04T12:48:47.379Z</time></trkpt><trkpt lat="44.4379672" lon="11.1161993"><ele>166.0</ele><time>2026-04-04T12:48:48.383Z</time></trkpt><trkpt lat="44.43796" lon="11.1162881"><ele>166.0</ele><time>2026-04-04T12:48:49.379Z</time></trkpt><trkpt lat="44.4379547" lon="11.1163762"><ele>166.0</ele><time>2026-04-04T12:48:50.376Z</time></trkpt><trkpt lat="44.4379468" lon="11.1165519"><ele>166.0</ele><time>2026-04-04T12:48:52.382Z</time></trkpt><trkpt lat="44.4379456" lon="11.1166411"><ele>166.0</ele><time>2026-04-04T12:48:53.382Z</time></trkpt><trkpt lat="44.4379699" lon="11.1168006"><ele>166.0</ele><time>2026-04-04T12:48:55.381Z</time></trkpt><trkpt lat="44.4380417" lon="11.116889"><ele>166.0</ele><time>2026-04-04T12:48:57.372Z</time></trkpt><trkpt lat="44.438121" lon="11.1169339"><ele>166.0</ele><time>2026-04-04T12:48:59.377Z</time></trkpt><trkpt lat="44.4381993" lon="11.1169702"><ele>166.0</ele><time>2026-04-04T12:49:01.381Z</time></trkpt><trkpt lat="44.4382796" lon="11.1170022"><ele>166.0</ele><time>2026-04-04T12:49:03.384Z</time></trkpt><trkpt lat="44.4383624" lon="11.117035"><ele>166.0</ele><time>2026-04-04T12:49:05.384Z</time></trkpt><trkpt lat="44.4384547" lon="11.1170565"><ele>166.0</ele><time>2026-04-04T12:49:07.376Z</time></trkpt><trkpt lat="44.4385498" lon="11.1170824"><ele>166.0</ele><time>2026-04-04T12:49:09.389Z</time></trkpt><trkpt lat="44.4386462" lon="11.1171104"><ele>166.0</ele><time>2026-04-04T12:49:11.379Z</time></trkpt><trkpt lat="44.438745" lon="11.1171381"><ele>166.0</ele><time>2026-04-04T12:49:13.378Z</time></trkpt><trkpt lat="44.4388442" lon="11.1171643"><ele>166.0</ele><time>2026-04-04T12:49:15.378Z</time></trkpt><trkpt lat="44.4389491" lon="11.1171983"><ele>165.4</ele><time>2026-04-04T12:49:17.376Z</time></trkpt><trkpt lat="44.4390593" lon="11.1172383"><ele>164.8</ele><time>2026-04-04T12:49:19.375Z</time></trkpt><trkpt lat="44.4391739" lon="11.1172737"><ele>164.20000000000002</ele><time>2026-04-04T12:49:21.377Z</time></trkpt><trkpt lat="44.4392933" lon="11.1173134"><ele>163.60000000000002</ele><time>2026-04-04T12:49:23.372Z</time></trkpt><trkpt lat="44.4393551" lon="11.1173354"><ele>163.0</ele><time>2026-04-04T12:49:24.372Z</time></trkpt><trkpt lat="44.4394169" lon="11.1173574"><ele>163.0</ele><time>2026-04-04T12:49:25.383Z</time></trkpt><trkpt lat="44.4394784" lon="11.1173785"><ele>163.0</ele><time>2026-04-04T12:49:26.377Z</time></trkpt><trkpt lat="44.4395424" lon="11.1174002"><ele>163.0</ele><time>2026-04-04T12:49:27.379Z</time></trkpt><trkpt lat="44.4396063" lon="11.1174246"><ele>163.0</ele><time>2026-04-04T12:49:28.379Z</time></trkpt><trkpt lat="44.4396696" lon="11.1174497"><ele>163.0</ele><time>2026-04-04T12:49:29.38Z</time></trkpt><trkpt lat="44.4397344" lon="11.1174745"><ele>163.0</ele><time>2026-04-04T12:49:30.377Z</time></trkpt><trkpt lat="44.4398" lon="11.1175029"><ele>163.0</ele><time>2026-04-04T12:49:31.378Z</time></trkpt><trkpt lat="44.439865" lon="11.1175313"><ele>163.42857142857144</ele><time>2026-04-04T12:49:32.382Z</time></trkpt><trkpt lat="44.4399299" lon="11.1175612"><ele>163.85714285714283</ele><time>2026-04-04T12:49:33.377Z</time></trkpt><trkpt lat="44.4399951" lon="11.1175914"><ele>164.28571428571428</ele><time>2026-04-04T12:49:34.39Z</time></trkpt><trkpt lat="44.4400609" lon="11.1176241"><ele>164.71428571428572</ele><time>2026-04-04T12:49:35.373Z</time></trkpt><trkpt lat="44.4401271" lon="11.1176597"><ele>165.14285714285717</ele><time>2026-04-04T12:49:36.371Z</time></trkpt><trkpt lat="44.4401936" lon="11.1176962"><ele>165.57142857142856</ele><time>2026-04-04T12:49:37.378Z</time></trkpt><trkpt lat="44.440261" lon="11.1177319"><ele>166.0</ele><time>2026-04-04T12:49:38.376Z</time></trkpt><trkpt lat="44.4403289" lon="11.1177674"><ele>166.0</ele><time>2026-04-04T12:49:39.377Z</time></trkpt><trkpt lat="44.4403978" lon="11.117803"><ele>166.0</ele><time>2026-04-04T12:49:40.377Z</time></trkpt><trkpt lat="44.4404688" lon="11.1178357"><ele>166.0</ele><time>2026-04-04T12:49:41.382Z</time></trkpt><trkpt lat="44.4405406" lon="11.1178622"><ele>166.0</ele><time>2026-04-04T12:49:42.379Z</time></trkpt><trkpt lat="44.4406131" lon="11.1178829"><ele>166.0</ele><time>2026-04-04T12:49:43.39Z</time></trkpt><trkpt lat="44.4406851" lon="11.1178974"><ele>166.0</ele><time>2026-04-04T12:49:44.368Z</time></trkpt><trkpt lat="44.4407577" lon="11.117907"><ele>166.0</ele><time>2026-04-04T12:49:45.38Z</time></trkpt><trkpt lat="44.4408298" lon="11.1179124"><ele>165.28571428571428</ele><time>2026-04-04T12:49:46.381Z</time></trkpt><trkpt lat="44.440902" lon="11.1179185"><ele>164.57142857142858</ele><time>2026-04-04T12:49:47.374Z</time></trkpt><trkpt lat="44.4409736" lon="11.1179248"><ele>163.85714285714286</ele><time>2026-04-04T12:49:48.366Z</time></trkpt><trkpt lat="44.441045" lon="11.1179275"><ele>163.14285714285714</ele><time>2026-04-04T12:49:49.382Z</time></trkpt><trkpt lat="44.4411157" lon="11.1179318"><ele>162.42857142857144</ele><time>2026-04-04T12:49:50.379Z</time></trkpt><trkpt lat="44.4411862" lon="11.117936"><ele>161.71428571428572</ele><time>2026-04-04T12:49:51.389Z</time></trkpt><trkpt lat="44.4412556" lon="11.1179406"><ele>161.0</ele><time>2026-04-04T12:49:52.374Z</time></trkpt><trkpt lat="44.441325" lon="11.1179437"><ele>161.0</ele><time>2026-04-04T12:49:53.38Z</time></trkpt><trkpt lat="44.4413945" lon="11.1179488"><ele>161.0</ele><time>2026-04-04T12:49:54.375Z</time></trkpt><trkpt lat="44.4414635" lon="11.1179534"><ele>161.0</ele><time>2026-04-04T12:49:55.387Z</time></trkpt><trkpt lat="44.4415333" lon="11.1179586"><ele>161.0</ele><time>2026-04-04T12:49:56.378Z</time></trkpt><trkpt lat="44.4416035" lon="11.1179635"><ele>161.0</ele><time>2026-04-04T12:49:57.38Z</time></trkpt><trkpt lat="44.441674" lon="11.117967"><ele>161.0</ele><time>2026-04-04T12:49:58.387Z</time></trkpt><trkpt lat="44.4417446" lon="11.1179718"><ele>161.0</ele><time>2026-04-04T12:49:59.38Z</time></trkpt><trkpt lat="44.4418158" lon="11.1179759"><ele>161.0</ele><time>2026-04-04T12:50:00.398Z</time></trkpt><trkpt lat="44.4418865" lon="11.117981"><ele>161.0</ele><time>2026-04-04T12:50:01.376Z</time></trkpt><trkpt lat="44.4419585" lon="11.117985"><ele>161.0</ele><time>2026-04-04T12:50:02.381Z</time></trkpt><trkpt lat="44.4420301" lon="11.1179888"><ele>161.0</ele><time>2026-04-04T12:50:03.379Z</time></trkpt><trkpt lat="44.4421022" lon="11.1179923"><ele>161.0</ele><time>2026-04-04T12:50:04.372Z</time></trkpt><trkpt lat="44.4421737" lon="11.117995"><ele>161.0</ele><time>2026-04-04T12:50:05.376Z</time></trkpt><trkpt lat="44.4422452" lon="11.1179992"><ele>161.0</ele><time>2026-04-04T12:50:06.384Z</time></trkpt><trkpt lat="44.4423159" lon="11.1180034"><ele>160.71428571428572</ele><time>2026-04-04T12:50:07.382Z</time></trkpt><trkpt lat="44.4423872" lon="11.1180071"><ele>160.42857142857144</ele><time>2026-04-04T12:50:08.373Z</time></trkpt><trkpt lat="44.4424585" lon="11.1180097"><ele>160.14285714285714</ele><time>2026-04-04T12:50:09.373Z</time></trkpt><trkpt lat="44.4425297" lon="11.1180138"><ele>159.85714285714286</ele><time>2026-04-04T12:50:10.377Z</time></trkpt><trkpt lat="44.4426007" lon="11.1180181"><ele>159.57142857142858</ele><time>2026-04-04T12:50:11.369Z</time></trkpt><trkpt lat="44.4426719" lon="11.1180213"><ele>159.28571428571428</ele><time>2026-04-04T12:50:12.383Z</time></trkpt><trkpt lat="44.4427425" lon="11.1180237"><ele>159.0</ele><time>2026-04-04T12:50:13.376Z</time></trkpt><trkpt lat="44.4428128" lon="11.1180281"><ele>159.0</ele><time>2026-04-04T12:50:14.371Z</time></trkpt><trkpt lat="44.4428824" lon="11.1180311"><ele>159.0</ele><time>2026-04-04T12:50:15.377Z</time></trkpt><trkpt lat="44.4429516" lon="11.1180339"><ele>159.0</ele><time>2026-04-04T12:50:16.389Z</time></trkpt><trkpt lat="44.4430209" lon="11.1180376"><ele>159.0</ele><time>2026-04-04T12:50:17.378Z</time></trkpt><trkpt lat="44.4430899" lon="11.1180412"><ele>159.0</ele><time>2026-04-04T12:50:18.381Z</time></trkpt><trkpt lat="44.4431593" lon="11.1180433"><ele>159.0</ele><time>2026-04-04T12:50:19.38Z</time></trkpt><trkpt lat="44.4432284" lon="11.1180478"><ele>159.0</ele><time>2026-04-04T12:50:20.387Z</time></trkpt><trkpt lat="44.4432973" lon="11.1180532"><ele>159.0</ele><time>2026-04-04T12:50:21.378Z</time></trkpt><trkpt lat="44.4433662" lon="11.1180574"><ele>159.0</ele><time>2026-04-04T12:50:22.378Z</time></trkpt><trkpt lat="44.4434348" lon="11.1180593"><ele>159.0</ele><time>2026-04-04T12:50:23.383Z</time></trkpt><trkpt lat="44.4435051" lon="11.1180599"><ele>159.0</ele><time>2026-04-04T12:50:24.376Z</time></trkpt><trkpt lat="44.4435729" lon="11.1180638"><ele>159.0</ele><time>2026-04-04T12:50:25.375Z</time></trkpt><trkpt lat="44.443641" lon="11.1180669"><ele>159.0</ele><time>2026-04-04T12:50:26.382Z</time></trkpt><trkpt lat="44.4437089" lon="11.1180712"><ele>159.0</ele><time>2026-04-04T12:50:27.378Z</time></trkpt><trkpt lat="44.4437764" lon="11.1180785"><ele>158.7142857142857</ele><time>2026-04-04T12:50:28.391Z</time></trkpt><trkpt lat="44.4438439" lon="11.118084"><ele>158.42857142857144</ele><time>2026-04-04T12:50:29.374Z</time></trkpt><trkpt lat="44.443911" lon="11.1180886"><ele>158.14285714285714</ele><time>2026-04-04T12:50:30.38Z</time></trkpt><trkpt lat="44.4439777" lon="11.1180945"><ele>157.85714285714283</ele><time>2026-04-04T12:50:31.398Z</time></trkpt><trkpt lat="44.4440442" lon="11.1181006"><ele>157.57142857142856</ele><time>2026-04-04T12:50:32.367Z</time></trkpt><trkpt lat="44.4441098" lon="11.1181076"><ele>157.28571428571428</ele><time>2026-04-04T12:50:33.379Z</time></trkpt><trkpt lat="44.444175" lon="11.1181142"><ele>157.0</ele><time>2026-04-04T12:50:34.389Z</time></trkpt><trkpt lat="44.4442387" lon="11.1181234"><ele>157.0</ele><time>2026-04-04T12:50:35.372Z</time></trkpt><trkpt lat="44.4443014" lon="11.1181357"><ele>157.0</ele><time>2026-04-04T12:50:36.378Z</time></trkpt><trkpt lat="44.4443644" lon="11.1181487"><ele>157.0</ele><time>2026-04-04T12:50:37.374Z</time></trkpt><trkpt lat="44.4444821" lon="11.1181809"><ele>157.0</ele><time>2026-04-04T12:50:39.376Z</time></trkpt><trkpt lat="44.4445939" lon="11.1182332"><ele>157.0</ele><time>2026-04-04T12:50:41.377Z</time></trkpt><trkpt lat="44.4447075" lon="11.1183015"><ele>157.8</ele><time>2026-04-04T12:50:43.384Z</time></trkpt><trkpt lat="44.4448095" lon="11.1183773"><ele>158.6</ele><time>2026-04-04T12:50:45.379Z</time></trkpt><trkpt lat="44.4449174" lon="11.1184566"><ele>159.4</ele><time>2026-04-04T12:50:47.388Z</time></trkpt><trkpt lat="44.4450289" lon="11.1185415"><ele>160.20000000000002</ele><time>2026-04-04T12:50:49.382Z</time></trkpt><trkpt lat="44.4450871" lon="11.1185823"><ele>161.0</ele><time>2026-04-04T12:50:50.374Z</time></trkpt><trkpt lat="44.4451446" lon="11.1186249"><ele>161.0</ele><time>2026-04-04T12:50:51.376Z</time></trkpt><trkpt lat="44.4452018" lon="11.1186688"><ele>161.0</ele><time>2026-04-04T12:50:52.377Z</time></trkpt><trkpt lat="44.4452595" lon="11.1187111"><ele>161.0</ele><time>2026-04-04T12:50:53.377Z</time></trkpt><trkpt lat="44.4453181" lon="11.1187483"><ele>161.0</ele><time>2026-04-04T12:50:54.375Z</time></trkpt><trkpt lat="44.4453757" lon="11.1187842"><ele>161.0</ele><time>2026-04-04T12:50:55.376Z</time></trkpt><trkpt lat="44.4454903" lon="11.1188529"><ele>161.0</ele><time>2026-04-04T12:50:57.372Z</time></trkpt><trkpt lat="44.4456012" lon="11.1189228"><ele>160.33333333333331</ele><time>2026-04-04T12:50:59.373Z</time></trkpt><trkpt lat="44.4457125" lon="11.1189894"><ele>159.66666666666666</ele><time>2026-04-04T12:51:01.385Z</time></trkpt><trkpt lat="44.4458252" lon="11.1190709"><ele>159.0</ele><time>2026-04-04T12:51:03.375Z</time></trkpt><trkpt lat="44.445881" lon="11.1191206"><ele>158.33333333333334</ele><time>2026-04-04T12:51:04.368Z</time></trkpt><trkpt lat="44.4459364" lon="11.1191729"><ele>157.66666666666669</ele><time>2026-04-04T12:51:05.377Z</time></trkpt><trkpt lat="44.4459919" lon="11.1192277"><ele>157.0</ele><time>2026-04-04T12:51:06.387Z</time></trkpt><trkpt lat="44.4460471" lon="11.1192816"><ele>156.99999999999997</ele><time>2026-04-04T12:51:07.378Z</time></trkpt><trkpt lat="44.4461018" lon="11.1193381"><ele>157.0</ele><time>2026-04-04T12:51:08.38Z</time></trkpt><trkpt lat="44.4461564" lon="11.1193919"><ele>157.0</ele><time>2026-04-04T12:51:09.372Z</time></trkpt><trkpt lat="44.4462109" lon="11.1194452"><ele>157.0</ele><time>2026-04-04T12:51:10.387Z</time></trkpt><trkpt lat="44.4462637" lon="11.1194997"><ele>157.0</ele><time>2026-04-04T12:51:11.381Z</time></trkpt><trkpt lat="44.4463153" lon="11.1195546"><ele>156.99999999999997</ele><time>2026-04-04T12:51:12.383Z</time></trkpt><trkpt lat="44.4463657" lon="11.1196114"><ele>157.0</ele><time>2026-04-04T12:51:13.374Z</time></trkpt><trkpt lat="44.4464157" lon="11.1196655"><ele>157.0</ele><time>2026-04-04T12:51:14.387Z</time></trkpt><trkpt lat="44.4464651" lon="11.1197208"><ele>157.0</ele><time>2026-04-04T12:51:15.383Z</time></trkpt><trkpt lat="44.4465649" lon="11.1198267"><ele>157.0</ele><time>2026-04-04T12:51:17.379Z</time></trkpt><trkpt lat="44.4466667" lon="11.119928"><ele>157.0</ele><time>2026-04-04T12:51:19.369Z</time></trkpt><trkpt lat="44.4467698" lon="11.1200252"><ele>157.0</ele><time>2026-04-04T12:51:21.36Z</time></trkpt><trkpt lat="44.4468795" lon="11.1201055"><ele>157.16666666666669</ele><time>2026-04-04T12:51:23.381Z</time></trkpt><trkpt lat="44.447" lon="11.1201619"><ele>157.33333333333334</ele><time>2026-04-04T12:51:25.366Z</time></trkpt><trkpt lat="44.4470676" lon="11.1201742"><ele>157.5</ele><time>2026-04-04T12:51:26.396Z</time></trkpt><trkpt lat="44.4471369" lon="11.1201841"><ele>157.66666666666666</ele><time>2026-04-04T12:51:27.386Z</time></trkpt><trkpt lat="44.4472064" lon="11.1201922"><ele>157.83333333333331</ele><time>2026-04-04T12:51:28.378Z</time></trkpt><trkpt lat="44.4472782" lon="11.120199"><ele>158.0</ele><time>2026-04-04T12:51:29.37Z</time></trkpt><trkpt lat="44.4473513" lon="11.1201976"><ele>158.0</ele><time>2026-04-04T12:51:30.374Z</time></trkpt><trkpt lat="44.4474267" lon="11.1201923"><ele>158.0</ele><time>2026-04-04T12:51:31.377Z</time></trkpt><trkpt lat="44.4475041" lon="11.1201893"><ele>158.0</ele><time>2026-04-04T12:51:32.383Z</time></trkpt><trkpt lat="44.4475821" lon="11.1201863"><ele>158.0</ele><time>2026-04-04T12:51:33.391Z</time></trkpt><trkpt lat="44.4476606" lon="11.1201802"><ele>158.0</ele><time>2026-04-04T12:51:34.39Z</time></trkpt><trkpt lat="44.4477398" lon="11.1201724"><ele>158.0</ele><time>2026-04-04T12:51:35.378Z</time></trkpt><trkpt lat="44.4478187" lon="11.1201661"><ele>158.0</ele><time>2026-04-04T12:51:36.392Z</time></trkpt><trkpt lat="44.4478973" lon="11.1201586"><ele>158.0</ele><time>2026-04-04T12:51:37.368Z</time></trkpt><trkpt lat="44.4479755" lon="11.1201464"><ele>158.0</ele><time>2026-04-04T12:51:38.377Z</time></trkpt><trkpt lat="44.4480537" lon="11.1201331"><ele>158.0</ele><time>2026-04-04T12:51:39.379Z</time></trkpt><trkpt lat="44.4481317" lon="11.1201159"><ele>158.0</ele><time>2026-04-04T12:51:40.39Z</time></trkpt><trkpt lat="44.4482101" lon="11.1200923"><ele>158.0</ele><time>2026-04-04T12:51:41.37Z</time></trkpt><trkpt lat="44.448288" lon="11.1200681"><ele>157.66666666666666</ele><time>2026-04-04T12:51:42.37Z</time></trkpt><trkpt lat="44.4483666" lon="11.1200303"><ele>157.33333333333331</ele><time>2026-04-04T12:51:43.379Z</time></trkpt><trkpt lat="44.4484464" lon="11.1199939"><ele>157.0</ele><time>2026-04-04T12:51:44.38Z</time></trkpt><trkpt lat="44.4485295" lon="11.1199521"><ele>156.66666666666666</ele><time>2026-04-04T12:51:45.38Z</time></trkpt><trkpt lat="44.4486116" lon="11.1199138"><ele>156.33333333333334</ele><time>2026-04-04T12:51:46.386Z</time></trkpt><trkpt lat="44.4486952" lon="11.1198744"><ele>156.0</ele><time>2026-04-04T12:51:47.381Z</time></trkpt><trkpt lat="44.4487825" lon="11.1198363"><ele>155.0</ele><time>2026-04-04T12:51:48.374Z</time></trkpt><trkpt lat="44.4488708" lon="11.1197976"><ele>154.0</ele><time>2026-04-04T12:51:49.372Z</time></trkpt><trkpt lat="44.4489596" lon="11.1197593"><ele>153.0</ele><time>2026-04-04T12:51:50.364Z</time></trkpt><trkpt lat="44.4490476" lon="11.1197238"><ele>152.0</ele><time>2026-04-04T12:51:51.377Z</time></trkpt><trkpt lat="44.4491363" lon="11.1196927"><ele>151.0</ele><time>2026-04-04T12:51:52.383Z</time></trkpt><trkpt lat="44.4492238" lon="11.1196658"><ele>151.0</ele><time>2026-04-04T12:51:53.366Z</time></trkpt><trkpt lat="44.4493115" lon="11.1196433"><ele>151.0</ele><time>2026-04-04T12:51:54.386Z</time></trkpt><trkpt lat="44.4493981" lon="11.1196304"><ele>151.0</ele><time>2026-04-04T12:51:55.384Z</time></trkpt><trkpt lat="44.4494838" lon="11.119624"><ele>151.0</ele><time>2026-04-04T12:51:56.376Z</time></trkpt><trkpt lat="44.4495663" lon="11.1196177"><ele>151.0</ele><time>2026-04-04T12:51:57.384Z</time></trkpt><trkpt lat="44.4496459" lon="11.1196147"><ele>151.0</ele><time>2026-04-04T12:51:58.387Z</time></trkpt><trkpt lat="44.4497221" lon="11.1196179"><ele>150.71428571428572</ele><time>2026-04-04T12:51:59.382Z</time></trkpt><trkpt lat="44.4497948" lon="11.119621"><ele>150.42857142857144</ele><time>2026-04-04T12:52:00.373Z</time></trkpt><trkpt lat="44.4498651" lon="11.1196219"><ele>150.14285714285714</ele><time>2026-04-04T12:52:01.373Z</time></trkpt><trkpt lat="44.4499342" lon="11.1196206"><ele>149.85714285714286</ele><time>2026-04-04T12:52:02.382Z</time></trkpt><trkpt lat="44.4500031" lon="11.1196186"><ele>149.57142857142856</ele><time>2026-04-04T12:52:03.382Z</time></trkpt><trkpt lat="44.4500715" lon="11.1196171"><ele>149.28571428571428</ele><time>2026-04-04T12:52:04.382Z</time></trkpt><trkpt lat="44.4501394" lon="11.1196172"><ele>149.0</ele><time>2026-04-04T12:52:05.374Z</time></trkpt><trkpt lat="44.4502074" lon="11.1196193"><ele>149.0</ele><time>2026-04-04T12:52:06.384Z</time></trkpt><trkpt lat="44.4502751" lon="11.1196196"><ele>149.0</ele><time>2026-04-04T12:52:07.378Z</time></trkpt><trkpt lat="44.450343" lon="11.1196195"><ele>149.0</ele><time>2026-04-04T12:52:08.377Z</time></trkpt><trkpt lat="44.4504113" lon="11.1196197"><ele>149.0</ele><time>2026-04-04T12:52:09.377Z</time></trkpt><trkpt lat="44.4504788" lon="11.119619"><ele>149.0</ele><time>2026-04-04T12:52:10.378Z</time></trkpt><trkpt lat="44.4505457" lon="11.1196174"><ele>149.0</ele><time>2026-04-04T12:52:11.382Z</time></trkpt><trkpt lat="44.4506122" lon="11.1196159"><ele>149.0</ele><time>2026-04-04T12:52:12.374Z</time></trkpt><trkpt lat="44.4506781" lon="11.1196141"><ele>149.14285714285714</ele><time>2026-04-04T12:52:13.381Z</time></trkpt><trkpt lat="44.4507435" lon="11.1196135"><ele>149.28571428571428</ele><time>2026-04-04T12:52:14.379Z</time></trkpt><trkpt lat="44.4508087" lon="11.1196136"><ele>149.42857142857142</ele><time>2026-04-04T12:52:15.369Z</time></trkpt><trkpt lat="44.4508744" lon="11.119613"><ele>149.57142857142856</ele><time>2026-04-04T12:52:16.387Z</time></trkpt><trkpt lat="44.4509404" lon="11.1196136"><ele>149.71428571428572</ele><time>2026-04-04T12:52:17.385Z</time></trkpt><trkpt lat="44.4510073" lon="11.1196146"><ele>149.85714285714283</ele><time>2026-04-04T12:52:18.385Z</time></trkpt><trkpt lat="44.4510747" lon="11.1196139"><ele>150.0</ele><time>2026-04-04T12:52:19.381Z</time></trkpt><trkpt lat="44.4511418" lon="11.1196119"><ele>149.99999999999997</ele><time>2026-04-04T12:52:20.387Z</time></trkpt><trkpt lat="44.4512099" lon="11.1196109"><ele>150.0</ele><time>2026-04-04T12:52:21.379Z</time></trkpt><trkpt lat="44.4512777" lon="11.1196096"><ele>150.0</ele><time>2026-04-04T12:52:22.385Z</time></trkpt><trkpt lat="44.4513454" lon="11.1196075"><ele>150.0</ele><time>2026-04-04T12:52:23.372Z</time></trkpt><trkpt lat="44.4514148" lon="11.1196072"><ele>150.0</ele><time>2026-04-04T12:52:24.374Z</time></trkpt><trkpt lat="44.451482" lon="11.1196061"><ele>149.99999999999997</ele><time>2026-04-04T12:52:25.378Z</time></trkpt><trkpt lat="44.4515486" lon="11.119606"><ele>150.0</ele><time>2026-04-04T12:52:26.381Z</time></trkpt><trkpt lat="44.4516157" lon="11.1196041"><ele>149.85714285714283</ele><time>2026-04-04T12:52:27.374Z</time></trkpt><trkpt lat="44.4516825" lon="11.1196024"><ele>149.71428571428572</ele><time>2026-04-04T12:52:28.377Z</time></trkpt><trkpt lat="44.4517494" lon="11.1196032"><ele>149.57142857142856</ele><time>2026-04-04T12:52:29.387Z</time></trkpt><trkpt lat="44.451816" lon="11.1196032"><ele>149.42857142857142</ele><time>2026-04-04T12:52:30.371Z</time></trkpt><trkpt lat="44.4518827" lon="11.1196022"><ele>149.28571428571428</ele><time>2026-04-04T12:52:31.371Z</time></trkpt><trkpt lat="44.4519497" lon="11.119601"><ele>149.14285714285714</ele><time>2026-04-04T12:52:32.394Z</time></trkpt><trkpt lat="44.4520165" lon="11.1195997"><ele>149.0</ele><time>2026-04-04T12:52:33.368Z</time></trkpt><trkpt lat="44.4520828" lon="11.1195971"><ele>148.85714285714286</ele><time>2026-04-04T12:52:34.378Z</time></trkpt><trkpt lat="44.4521486" lon="11.1195953"><ele>148.7142857142857</ele><time>2026-04-04T12:52:35.38Z</time></trkpt><trkpt lat="44.452214" lon="11.1195942"><ele>148.57142857142856</ele><time>2026-04-04T12:52:36.374Z</time></trkpt><trkpt lat="44.4522778" lon="11.1195935"><ele>148.42857142857142</ele><time>2026-04-04T12:52:37.385Z</time></trkpt><trkpt lat="44.4523413" lon="11.1195931"><ele>148.28571428571428</ele><time>2026-04-04T12:52:38.378Z</time></trkpt><trkpt lat="44.4524065" lon="11.1195917"><ele>148.14285714285714</ele><time>2026-04-04T12:52:39.375Z</time></trkpt><trkpt lat="44.4524746" lon="11.1195912"><ele>148.0</ele><time>2026-04-04T12:52:40.376Z</time></trkpt><trkpt lat="44.4525437" lon="11.1195906"><ele>148.0</ele><time>2026-04-04T12:52:41.377Z</time></trkpt><trkpt lat="44.4526139" lon="11.1195891"><ele>148.0</ele><time>2026-04-04T12:52:42.382Z</time></trkpt><trkpt lat="44.4526849" lon="11.1195865"><ele>148.0</ele><time>2026-04-04T12:52:43.382Z</time></trkpt><trkpt lat="44.4527571" lon="11.119584"><ele>148.0</ele><time>2026-04-04T12:52:44.39Z</time></trkpt><trkpt lat="44.4528296" lon="11.1195835"><ele>148.0</ele><time>2026-04-04T12:52:45.38Z</time></trkpt><trkpt lat="44.4529023" lon="11.1195829"><ele>148.0</ele><time>2026-04-04T12:52:46.383Z</time></trkpt><trkpt lat="44.452975" lon="11.1195831"><ele>148.0</ele><time>2026-04-04T12:52:47.376Z</time></trkpt><trkpt lat="44.453048" lon="11.1195821"><ele>147.71428571428572</ele><time>2026-04-04T12:52:48.374Z</time></trkpt><trkpt lat="44.4531205" lon="11.1195805"><ele>147.42857142857142</ele><time>2026-04-04T12:52:49.379Z</time></trkpt><trkpt lat="44.4531934" lon="11.119579"><ele>147.14285714285714</ele><time>2026-04-04T12:52:50.369Z</time></trkpt><trkpt lat="44.4532661" lon="11.1195769"><ele>146.85714285714286</ele><time>2026-04-04T12:52:51.379Z</time></trkpt><trkpt lat="44.453338" lon="11.1195745"><ele>146.57142857142858</ele><time>2026-04-04T12:52:52.388Z</time></trkpt><trkpt lat="44.45341" lon="11.1195718"><ele>146.28571428571428</ele><time>2026-04-04T12:52:53.38Z</time></trkpt><trkpt lat="44.4534812" lon="11.1195705"><ele>146.0</ele><time>2026-04-04T12:52:54.381Z</time></trkpt><trkpt lat="44.4535523" lon="11.1195676"><ele>146.0</ele><time>2026-04-04T12:52:55.384Z</time></trkpt><trkpt lat="44.4536232" lon="11.1195657"><ele>146.0</ele><time>2026-04-04T12:52:56.38Z</time></trkpt><trkpt lat="44.4536948" lon="11.1195644"><ele>146.0</ele><time>2026-04-04T12:52:57.377Z</time></trkpt><trkpt lat="44.4537665" lon="11.1195631"><ele>146.0</ele><time>2026-04-04T12:52:58.385Z</time></trkpt><trkpt lat="44.4538387" lon="11.1195619"><ele>146.0</ele><time>2026-04-04T12:52:59.382Z</time></trkpt><trkpt lat="44.4539109" lon="11.1195598"><ele>146.0</ele><time>2026-04-04T12:53:00.376Z</time></trkpt><trkpt lat="44.4539838" lon="11.1195564"><ele>146.0</ele><time>2026-04-04T12:53:01.383Z</time></trkpt><trkpt lat="44.4540569" lon="11.1195557"><ele>145.85714285714286</ele><time>2026-04-04T12:53:02.383Z</time></trkpt><trkpt lat="44.45413" lon="11.1195543"><ele>145.71428571428572</ele><time>2026-04-04T12:53:03.366Z</time></trkpt><trkpt lat="44.4542025" lon="11.1195523"><ele>145.57142857142858</ele><time>2026-04-04T12:53:04.372Z</time></trkpt><trkpt lat="44.4542752" lon="11.1195497"><ele>145.42857142857144</ele><time>2026-04-04T12:53:05.378Z</time></trkpt><trkpt lat="44.454348" lon="11.1195482"><ele>145.2857142857143</ele><time>2026-04-04T12:53:06.382Z</time></trkpt><trkpt lat="44.4544205" lon="11.1195477"><ele>145.14285714285714</ele><time>2026-04-04T12:53:07.378Z</time></trkpt><trkpt lat="44.4544924" lon="11.1195476"><ele>145.0</ele><time>2026-04-04T12:53:08.38Z</time></trkpt><trkpt lat="44.4545638" lon="11.1195453"><ele>145.14285714285714</ele><time>2026-04-04T12:53:09.379Z</time></trkpt><trkpt lat="44.4546342" lon="11.1195429"><ele>145.2857142857143</ele><time>2026-04-04T12:53:10.379Z</time></trkpt><trkpt lat="44.4547034" lon="11.1195426"><ele>145.42857142857144</ele><time>2026-04-04T12:53:11.387Z</time></trkpt><trkpt lat="44.4547715" lon="11.1195434"><ele>145.57142857142858</ele><time>2026-04-04T12:53:12.407Z</time></trkpt><trkpt lat="44.4548396" lon="11.1195427"><ele>145.71428571428572</ele><time>2026-04-04T12:53:13.38Z</time></trkpt><trkpt lat="44.454907" lon="11.1195426"><ele>145.85714285714286</ele><time>2026-04-04T12:53:14.384Z</time></trkpt><trkpt lat="44.4549748" lon="11.1195411"><ele>146.0</ele><time>2026-04-04T12:53:15.383Z</time></trkpt><trkpt lat="44.4550423" lon="11.1195387"><ele>146.0</ele><time>2026-04-04T12:53:16.379Z</time></trkpt><trkpt lat="44.4551099" lon="11.1195381"><ele>146.0</ele><time>2026-04-04T12:53:17.382Z</time></trkpt><trkpt lat="44.4551778" lon="11.1195378"><ele>146.0</ele><time>2026-04-04T12:53:18.387Z</time></trkpt><trkpt lat="44.4552461" lon="11.1195384"><ele>146.0</ele><time>2026-04-04T12:53:19.373Z</time></trkpt><trkpt lat="44.4553139" lon="11.1195383"><ele>146.0</ele><time>2026-04-04T12:53:20.378Z</time></trkpt><trkpt lat="44.4553819" lon="11.1195363"><ele>146.0</ele><time>2026-04-04T12:53:21.377Z</time></trkpt><trkpt lat="44.4554493" lon="11.1195364"><ele>146.0</ele><time>2026-04-04T12:53:22.381Z</time></trkpt><trkpt lat="44.4555167" lon="11.1195359"><ele>146.0</ele><time>2026-04-04T12:53:23.372Z</time></trkpt><trkpt lat="44.4555826" lon="11.1195355"><ele>146.0</ele><time>2026-04-04T12:53:24.378Z</time></trkpt><trkpt lat="44.4556489" lon="11.1195338"><ele>146.0</ele><time>2026-04-04T12:53:25.381Z</time></trkpt><trkpt lat="44.4557158" lon="11.1195277"><ele>146.0</ele><time>2026-04-04T12:53:26.377Z</time></trkpt><trkpt lat="44.4557814" lon="11.1195103"><ele>146.0</ele><time>2026-04-04T12:53:27.372Z</time></trkpt><trkpt lat="44.4558442" lon="11.1194819"><ele>146.0</ele><time>2026-04-04T12:53:28.383Z</time></trkpt><trkpt lat="44.4559035" lon="11.1194424"><ele>146.0</ele><time>2026-04-04T12:53:29.376Z</time></trkpt><trkpt lat="44.4559607" lon="11.1193969"><ele>146.0</ele><time>2026-04-04T12:53:30.389Z</time></trkpt><trkpt lat="44.456016" lon="11.1193494"><ele>146.0</ele><time>2026-04-04T12:53:31.376Z</time></trkpt><trkpt lat="44.4561085" lon="11.1192627"><ele>146.0</ele><time>2026-04-04T12:53:33.369Z</time></trkpt><trkpt lat="44.4561877" lon="11.1191627"><ele>146.0</ele><time>2026-04-04T12:53:35.39Z</time></trkpt><trkpt lat="44.4562593" lon="11.1190427"><ele>146.0</ele><time>2026-04-04T12:53:37.376Z</time></trkpt><trkpt lat="44.4563356" lon="11.118913"><ele>145.66666666666666</ele><time>2026-04-04T12:53:39.388Z</time></trkpt><trkpt lat="44.456437" lon="11.1188142"><ele>145.33333333333331</ele><time>2026-04-04T12:53:41.386Z</time></trkpt><trkpt lat="44.4565415" lon="11.1187155"><ele>145.0</ele><time>2026-04-04T12:53:43.379Z</time></trkpt><trkpt lat="44.4565938" lon="11.1186651"><ele>144.66666666666666</ele><time>2026-04-04T12:53:44.377Z</time></trkpt><trkpt lat="44.4566471" lon="11.1186139"><ele>144.33333333333334</ele><time>2026-04-04T12:53:45.375Z</time></trkpt><trkpt lat="44.456701" lon="11.118563"><ele>144.0</ele><time>2026-04-04T12:53:46.372Z</time></trkpt><trkpt lat="44.4567547" lon="11.1185096"><ele>144.00000000000003</ele><time>2026-04-04T12:53:47.388Z</time></trkpt><trkpt lat="44.4568102" lon="11.1184549"><ele>144.0</ele><time>2026-04-04T12:53:48.387Z</time></trkpt><trkpt lat="44.4568668" lon="11.1183988"><ele>144.0</ele><time>2026-04-04T12:53:49.38Z</time></trkpt><trkpt lat="44.4569248" lon="11.1183423"><ele>144.0</ele><time>2026-04-04T12:53:50.37Z</time></trkpt><trkpt lat="44.4569844" lon="11.1182844"><ele>144.0</ele><time>2026-04-04T12:53:51.389Z</time></trkpt><trkpt lat="44.4570441" lon="11.1182241"><ele>144.00000000000003</ele><time>2026-04-04T12:53:52.38Z</time></trkpt><trkpt lat="44.457106" lon="11.118165"><ele>144.0</ele><time>2026-04-04T12:53:53.377Z</time></trkpt><trkpt lat="44.4571698" lon="11.1181067"><ele>143.5</ele><time>2026-04-04T12:53:54.39Z</time></trkpt><trkpt lat="44.4572353" lon="11.1180493"><ele>143.0</ele><time>2026-04-04T12:53:55.38Z</time></trkpt><trkpt lat="44.4573039" lon="11.1179967"><ele>142.5</ele><time>2026-04-04T12:53:56.381Z</time></trkpt><trkpt lat="44.4573761" lon="11.1179507"><ele>142.0</ele><time>2026-04-04T12:53:57.382Z</time></trkpt><trkpt lat="44.4574514" lon="11.1179143"><ele>141.5</ele><time>2026-04-04T12:53:58.382Z</time></trkpt><trkpt lat="44.4575282" lon="11.1178869"><ele>141.0</ele><time>2026-04-04T12:53:59.368Z</time></trkpt><trkpt lat="44.457605" lon="11.1178708"><ele>141.0</ele><time>2026-04-04T12:54:00.389Z</time></trkpt><trkpt lat="44.4576804" lon="11.1178672"><ele>141.0</ele><time>2026-04-04T12:54:01.383Z</time></trkpt><trkpt lat="44.4577535" lon="11.1178802"><ele>141.0</ele><time>2026-04-04T12:54:02.394Z</time></trkpt><trkpt lat="44.4578232" lon="11.1179067"><ele>141.0</ele><time>2026-04-04T12:54:03.374Z</time></trkpt><trkpt lat="44.4578885" lon="11.1179449"><ele>141.0</ele><time>2026-04-04T12:54:04.378Z</time></trkpt><trkpt lat="44.4579507" lon="11.117991"><ele>141.0</ele><time>2026-04-04T12:54:05.377Z</time></trkpt><trkpt lat="44.4580101" lon="11.1180426"><ele>141.0</ele><time>2026-04-04T12:54:06.379Z</time></trkpt><trkpt lat="44.4580651" lon="11.118101"><ele>141.14285714285714</ele><time>2026-04-04T12:54:07.383Z</time></trkpt><trkpt lat="44.4581178" lon="11.1181646"><ele>141.28571428571428</ele><time>2026-04-04T12:54:08.38Z</time></trkpt><trkpt lat="44.4581688" lon="11.1182289"><ele>141.42857142857142</ele><time>2026-04-04T12:54:09.379Z</time></trkpt><trkpt lat="44.4582227" lon="11.1182892"><ele>141.57142857142856</ele><time>2026-04-04T12:54:10.381Z</time></trkpt><trkpt lat="44.4582811" lon="11.1183423"><ele>141.7142857142857</ele><time>2026-04-04T12:54:11.376Z</time></trkpt><trkpt lat="44.4583439" lon="11.1183869"><ele>141.85714285714286</ele><time>2026-04-04T12:54:12.375Z</time></trkpt><trkpt lat="44.45841" lon="11.1184249"><ele>142.0</ele><time>2026-04-04T12:54:13.378Z</time></trkpt><trkpt lat="44.458478" lon="11.1184614"><ele>142.0</ele><time>2026-04-04T12:54:14.391Z</time></trkpt><trkpt lat="44.4585464" lon="11.1184974"><ele>142.0</ele><time>2026-04-04T12:54:15.372Z</time></trkpt><trkpt lat="44.4586157" lon="11.1185327"><ele>142.0</ele><time>2026-04-04T12:54:16.373Z</time></trkpt><trkpt lat="44.4586838" lon="11.1185685"><ele>142.0</ele><time>2026-04-04T12:54:17.382Z</time></trkpt><trkpt lat="44.4587528" lon="11.1186018"><ele>142.0</ele><time>2026-04-04T12:54:18.376Z</time></trkpt><trkpt lat="44.4588208" lon="11.1186371"><ele>142.0</ele><time>2026-04-04T12:54:19.385Z</time></trkpt><trkpt lat="44.4588888" lon="11.1186734"><ele>142.0</ele><time>2026-04-04T12:54:20.378Z</time></trkpt><trkpt lat="44.4589565" lon="11.11871"><ele>141.14285714285714</ele><time>2026-04-04T12:54:21.384Z</time></trkpt><trkpt lat="44.4590246" lon="11.1187455"><ele>140.28571428571428</ele><time>2026-04-04T12:54:22.377Z</time></trkpt><trkpt lat="44.4590922" lon="11.1187801"><ele>139.42857142857142</ele><time>2026-04-04T12:54:23.378Z</time></trkpt><trkpt lat="44.4591609" lon="11.1188155"><ele>138.57142857142856</ele><time>2026-04-04T12:54:24.37Z</time></trkpt><trkpt lat="44.4592285" lon="11.1188494"><ele>137.71428571428572</ele><time>2026-04-04T12:54:25.371Z</time></trkpt><trkpt lat="44.4592957" lon="11.1188871"><ele>136.85714285714283</ele><time>2026-04-04T12:54:26.389Z</time></trkpt><trkpt lat="44.4593608" lon="11.1189262"><ele>136.0</ele><time>2026-04-04T12:54:27.387Z</time></trkpt><trkpt lat="44.4594284" lon="11.1189616"><ele>135.99999999999997</ele><time>2026-04-04T12:54:28.379Z</time></trkpt><trkpt lat="44.4594953" lon="11.118996"><ele>136.0</ele><time>2026-04-04T12:54:29.376Z</time></trkpt><trkpt lat="44.459562" lon="11.1190319"><ele>136.0</ele><time>2026-04-04T12:54:30.386Z</time></trkpt><trkpt lat="44.459628" lon="11.1190663"><ele>136.0</ele><time>2026-04-04T12:54:31.376Z</time></trkpt><trkpt lat="44.4596933" lon="11.1190986"><ele>136.0</ele><time>2026-04-04T12:54:32.388Z</time></trkpt><trkpt lat="44.4597576" lon="11.1191303"><ele>135.99999999999997</ele><time>2026-04-04T12:54:33.372Z</time></trkpt><trkpt lat="44.4598218" lon="11.1191626"><ele>136.0</ele><time>2026-04-04T12:54:34.384Z</time></trkpt><trkpt lat="44.4598856" lon="11.119196"><ele>135.99999999999997</ele><time>2026-04-04T12:54:35.384Z</time></trkpt><trkpt lat="44.459948" lon="11.1192297"><ele>136.0</ele><time>2026-04-04T12:54:36.372Z</time></trkpt><trkpt lat="44.4600108" lon="11.1192624"><ele>136.0</ele><time>2026-04-04T12:54:37.384Z</time></trkpt><trkpt lat="44.4600731" lon="11.1192953"><ele>136.0</ele><time>2026-04-04T12:54:38.387Z</time></trkpt><trkpt lat="44.4601347" lon="11.1193284"><ele>136.0</ele><time>2026-04-04T12:54:39.379Z</time></trkpt><trkpt lat="44.4601964" lon="11.1193594"><ele>135.99999999999997</ele><time>2026-04-04T12:54:40.391Z</time></trkpt><trkpt lat="44.4602581" lon="11.1193911"><ele>136.0</ele><time>2026-04-04T12:54:41.379Z</time></trkpt><trkpt lat="44.4603196" lon="11.1194237"><ele>135.99999999999997</ele><time>2026-04-04T12:54:42.376Z</time></trkpt><trkpt lat="44.4603814" lon="11.1194564"><ele>136.0</ele><time>2026-04-04T12:54:43.381Z</time></trkpt><trkpt lat="44.4604437" lon="11.1194887"><ele>136.0</ele><time>2026-04-04T12:54:44.383Z</time></trkpt><trkpt lat="44.4605056" lon="11.1195206"><ele>136.0</ele><time>2026-04-04T12:54:45.382Z</time></trkpt><trkpt lat="44.4605678" lon="11.119554"><ele>136.0</ele><time>2026-04-04T12:54:46.385Z</time></trkpt><trkpt lat="44.46063" lon="11.1195872"><ele>135.99999999999997</ele><time>2026-04-04T12:54:47.381Z</time></trkpt><trkpt lat="44.4606913" lon="11.1196212"><ele>136.0</ele><time>2026-04-04T12:54:48.389Z</time></trkpt><trkpt lat="44.4607518" lon="11.1196581"><ele>135.85714285714283</ele><time>2026-04-04T12:54:49.386Z</time></trkpt><trkpt lat="44.4608116" lon="11.119699"><ele>135.71428571428572</ele><time>2026-04-04T12:54:50.38Z</time></trkpt><trkpt lat="44.4608686" lon="11.1197459"><ele>135.57142857142856</ele><time>2026-04-04T12:54:51.376Z</time></trkpt><trkpt lat="44.4609233" lon="11.1197977"><ele>135.42857142857142</ele><time>2026-04-04T12:54:52.381Z</time></trkpt><trkpt lat="44.4609737" lon="11.1198564"><ele>135.28571428571428</ele><time>2026-04-04T12:54:53.38Z</time></trkpt><trkpt lat="44.4610211" lon="11.1199184"><ele>135.14285714285714</ele><time>2026-04-04T12:54:54.372Z</time></trkpt><trkpt lat="44.4610663" lon="11.1199811"><ele>135.0</ele><time>2026-04-04T12:54:55.386Z</time></trkpt><trkpt lat="44.4611096" lon="11.1200478"><ele>135.0</ele><time>2026-04-04T12:54:56.389Z</time></trkpt><trkpt lat="44.461153" lon="11.1201164"><ele>135.0</ele><time>2026-04-04T12:54:57.379Z</time></trkpt><trkpt lat="44.461199" lon="11.1201805"><ele>135.0</ele><time>2026-04-04T12:54:58.368Z</time></trkpt><trkpt lat="44.4612449" lon="11.1202438"><ele>135.0</ele><time>2026-04-04T12:54:59.377Z</time></trkpt><trkpt lat="44.4612902" lon="11.1203079"><ele>135.0</ele><time>2026-04-04T12:55:00.376Z</time></trkpt><trkpt lat="44.4613351" lon="11.1203714"><ele>135.0</ele><time>2026-04-04T12:55:01.371Z</time></trkpt><trkpt lat="44.4613795" lon="11.1204352"><ele>135.0</ele><time>2026-04-04T12:55:02.385Z</time></trkpt><trkpt lat="44.4614237" lon="11.1204983"><ele>135.0</ele><time>2026-04-04T12:55:03.371Z</time></trkpt><trkpt lat="44.4614684" lon="11.1205607"><ele>135.0</ele><time>2026-04-04T12:55:04.368Z</time></trkpt><trkpt lat="44.4615578" lon="11.120681"><ele>135.0</ele><time>2026-04-04T12:55:06.376Z</time></trkpt><trkpt lat="44.4616453" lon="11.120801"><ele>135.0</ele><time>2026-04-04T12:55:08.396Z</time></trkpt><trkpt lat="44.4617323" lon="11.1209182"><ele>135.0</ele><time>2026-04-04T12:55:10.379Z</time></trkpt><trkpt lat="44.4618257" lon="11.1210239"><ele>135.0</ele><time>2026-04-04T12:55:12.372Z</time></trkpt><trkpt lat="44.461929" lon="11.1211154"><ele>135.0</ele><time>2026-04-04T12:55:14.379Z</time></trkpt><trkpt lat="44.4620378" lon="11.1211929"><ele>135.0</ele><time>2026-04-04T12:55:16.381Z</time></trkpt><trkpt lat="44.4621509" lon="11.1212603"><ele>135.0</ele><time>2026-04-04T12:55:18.374Z</time></trkpt><trkpt lat="44.4622666" lon="11.1213244"><ele>135.0</ele><time>2026-04-04T12:55:20.375Z</time></trkpt><trkpt lat="44.4623813" lon="11.1213858"><ele>135.0</ele><time>2026-04-04T12:55:22.383Z</time></trkpt><trkpt lat="44.4624985" lon="11.1214297"><ele>135.0</ele><time>2026-04-04T12:55:24.373Z</time></trkpt><trkpt lat="44.4626191" lon="11.1214542"><ele>135.0</ele><time>2026-04-04T12:55:26.374Z</time></trkpt><trkpt lat="44.4626837" lon="11.1214545"><ele>135.0</ele><time>2026-04-04T12:55:27.378Z</time></trkpt><trkpt lat="44.4627518" lon="11.1214379"><ele>135.0</ele><time>2026-04-04T12:55:28.38Z</time></trkpt><trkpt lat="44.4628216" lon="11.1214192"><ele>135.0</ele><time>2026-04-04T12:55:29.381Z</time></trkpt><trkpt lat="44.4628917" lon="11.1213941"><ele>135.0</ele><time>2026-04-04T12:55:30.383Z</time></trkpt><trkpt lat="44.4629629" lon="11.1213643"><ele>135.0</ele><time>2026-04-04T12:55:31.378Z</time></trkpt><trkpt lat="44.4630323" lon="11.1213326"><ele>135.0</ele><time>2026-04-04T12:55:32.384Z</time></trkpt><trkpt lat="44.4630998" lon="11.1212984"><ele>135.0</ele><time>2026-04-04T12:55:33.369Z</time></trkpt><trkpt lat="44.4631687" lon="11.1212691"><ele>135.0</ele><time>2026-04-04T12:55:34.371Z</time></trkpt><trkpt lat="44.4632367" lon="11.121239"><ele>135.0</ele><time>2026-04-04T12:55:35.384Z</time></trkpt><trkpt lat="44.4633043" lon="11.1212107"><ele>135.0</ele><time>2026-04-04T12:55:36.377Z</time></trkpt><trkpt lat="44.463372" lon="11.121183"><ele>135.0</ele><time>2026-04-04T12:55:37.382Z</time></trkpt><trkpt lat="44.4634417" lon="11.1211574"><ele>135.0</ele><time>2026-04-04T12:55:38.374Z</time></trkpt><trkpt lat="44.4635137" lon="11.1211378"><ele>135.0</ele><time>2026-04-04T12:55:39.389Z</time></trkpt><trkpt lat="44.4635889" lon="11.1211288"><ele>135.0</ele><time>2026-04-04T12:55:40.375Z</time></trkpt><trkpt lat="44.4636644" lon="11.121128"><ele>135.0</ele><time>2026-04-04T12:55:41.392Z</time></trkpt><trkpt lat="44.4637385" lon="11.1211417"><ele>134.42857142857142</ele><time>2026-04-04T12:55:42.377Z</time></trkpt><trkpt lat="44.4638116" lon="11.1211621"><ele>133.85714285714283</ele><time>2026-04-04T12:55:43.386Z</time></trkpt><trkpt lat="44.4638833" lon="11.1211853"><ele>133.28571428571428</ele><time>2026-04-04T12:55:44.369Z</time></trkpt><trkpt lat="44.4639543" lon="11.1212089"><ele>132.71428571428572</ele><time>2026-04-04T12:55:45.385Z</time></trkpt><trkpt lat="44.4640247" lon="11.1212298"><ele>132.14285714285717</ele><time>2026-04-04T12:55:46.385Z</time></trkpt><trkpt lat="44.4640942" lon="11.1212508"><ele>131.57142857142858</ele><time>2026-04-04T12:55:47.368Z</time></trkpt><trkpt lat="44.464163" lon="11.1212712"><ele>131.0</ele><time>2026-04-04T12:55:48.379Z</time></trkpt><trkpt lat="44.4642312" lon="11.1212917"><ele>131.0</ele><time>2026-04-04T12:55:49.387Z</time></trkpt><trkpt lat="44.4642995" lon="11.1213104"><ele>131.0</ele><time>2026-04-04T12:55:50.383Z</time></trkpt><trkpt lat="44.464367" lon="11.1213301"><ele>131.0</ele><time>2026-04-04T12:55:51.382Z</time></trkpt><trkpt lat="44.4644349" lon="11.1213485"><ele>131.0</ele><time>2026-04-04T12:55:52.384Z</time></trkpt><trkpt lat="44.464502" lon="11.1213674"><ele>131.0</ele><time>2026-04-04T12:55:53.381Z</time></trkpt><trkpt lat="44.4645687" lon="11.1213873"><ele>131.0</ele><time>2026-04-04T12:55:54.38Z</time></trkpt><trkpt lat="44.4646357" lon="11.1214076"><ele>131.0</ele><time>2026-04-04T12:55:55.377Z</time></trkpt><trkpt lat="44.4647025" lon="11.121428"><ele>131.0</ele><time>2026-04-04T12:55:56.375Z</time></trkpt><trkpt lat="44.4647695" lon="11.1214476"><ele>131.0</ele><time>2026-04-04T12:55:57.374Z</time></trkpt><trkpt lat="44.464837" lon="11.1214671"><ele>131.0</ele><time>2026-04-04T12:55:58.385Z</time></trkpt><trkpt lat="44.4649036" lon="11.1214869"><ele>131.0</ele><time>2026-04-04T12:55:59.368Z</time></trkpt><trkpt lat="44.464971" lon="11.1215056"><ele>131.0</ele><time>2026-04-04T12:56:00.373Z</time></trkpt><trkpt lat="44.4650372" lon="11.1215254"><ele>131.0</ele><time>2026-04-04T12:56:01.377Z</time></trkpt><trkpt lat="44.4651035" lon="11.121546"><ele>131.0</ele><time>2026-04-04T12:56:02.384Z</time></trkpt><trkpt lat="44.4651696" lon="11.1215652"><ele>131.71428571428572</ele><time>2026-04-04T12:56:03.377Z</time></trkpt><trkpt lat="44.4652348" lon="11.1215838"><ele>132.42857142857144</ele><time>2026-04-04T12:56:04.385Z</time></trkpt><trkpt lat="44.4653003" lon="11.1216034"><ele>133.14285714285714</ele><time>2026-04-04T12:56:05.374Z</time></trkpt><trkpt lat="44.4653656" lon="11.1216225"><ele>133.85714285714286</ele><time>2026-04-04T12:56:06.375Z</time></trkpt><trkpt lat="44.4654304" lon="11.1216421"><ele>134.57142857142856</ele><time>2026-04-04T12:56:07.37Z</time></trkpt><trkpt lat="44.4654955" lon="11.1216608"><ele>135.28571428571428</ele><time>2026-04-04T12:56:08.386Z</time></trkpt><trkpt lat="44.4655606" lon="11.1216783"><ele>136.0</ele><time>2026-04-04T12:56:09.371Z</time></trkpt><trkpt lat="44.4656261" lon="11.1216922"><ele>136.28571428571428</ele><time>2026-04-04T12:56:10.38Z</time></trkpt><trkpt lat="44.4656925" lon="11.1217043"><ele>136.57142857142856</ele><time>2026-04-04T12:56:11.377Z</time></trkpt><trkpt lat="44.4657585" lon="11.1217164"><ele>136.85714285714286</ele><time>2026-04-04T12:56:12.376Z</time></trkpt><trkpt lat="44.465825" lon="11.1217229"><ele>137.14285714285714</ele><time>2026-04-04T12:56:13.385Z</time></trkpt><trkpt lat="44.4658925" lon="11.1217213"><ele>137.42857142857144</ele><time>2026-04-04T12:56:14.378Z</time></trkpt><trkpt lat="44.4659603" lon="11.121717"><ele>137.71428571428572</ele><time>2026-04-04T12:56:15.382Z</time></trkpt><trkpt lat="44.4660278" lon="11.121712"><ele>138.0</ele><time>2026-04-04T12:56:16.383Z</time></trkpt><trkpt lat="44.4660952" lon="11.1217057"><ele>138.0</ele><time>2026-04-04T12:56:17.382Z</time></trkpt><trkpt lat="44.4661625" lon="11.1216962"><ele>138.0</ele><time>2026-04-04T12:56:18.385Z</time></trkpt><trkpt lat="44.4662303" lon="11.1216851"><ele>138.0</ele><time>2026-04-04T12:56:19.379Z</time></trkpt><trkpt lat="44.4662965" lon="11.1216688"><ele>138.0</ele><time>2026-04-04T12:56:20.372Z</time></trkpt><trkpt lat="44.466363" lon="11.1216531"><ele>138.0</ele><time>2026-04-04T12:56:21.37Z</time></trkpt><trkpt lat="44.4664298" lon="11.1216408"><ele>138.0</ele><time>2026-04-04T12:56:22.374Z</time></trkpt><trkpt lat="44.4664962" lon="11.1216281"><ele>138.0</ele><time>2026-04-04T12:56:23.376Z</time></trkpt><trkpt lat="44.4665624" lon="11.1216151"><ele>138.0</ele><time>2026-04-04T12:56:24.375Z</time></trkpt><trkpt lat="44.4666271" lon="11.1215959"><ele>138.0</ele><time>2026-04-04T12:56:25.378Z</time></trkpt><trkpt lat="44.4666939" lon="11.1215814"><ele>138.0</ele><time>2026-04-04T12:56:26.385Z</time></trkpt><trkpt lat="44.4667611" lon="11.1215673"><ele>138.0</ele><time>2026-04-04T12:56:27.379Z</time></trkpt><trkpt lat="44.4668281" lon="11.1215548"><ele>138.0</ele><time>2026-04-04T12:56:28.383Z</time></trkpt><trkpt lat="44.466895" lon="11.121542"><ele>138.0</ele><time>2026-04-04T12:56:29.371Z</time></trkpt><trkpt lat="44.4669618" lon="11.1215299"><ele>138.0</ele><time>2026-04-04T12:56:30.379Z</time></trkpt><trkpt lat="44.467027" lon="11.121508"><ele>137.14285714285714</ele><time>2026-04-04T12:56:31.369Z</time></trkpt><trkpt lat="44.467088" lon="11.1214656"><ele>136.2857142857143</ele><time>2026-04-04T12:56:32.376Z</time></trkpt><trkpt lat="44.4671413" lon="11.1214044"><ele>135.42857142857144</ele><time>2026-04-04T12:56:33.373Z</time></trkpt><trkpt lat="44.4671832" lon="11.1213255"><ele>134.57142857142858</ele><time>2026-04-04T12:56:34.377Z</time></trkpt><trkpt lat="44.4672138" lon="11.1212332"><ele>133.71428571428572</ele><time>2026-04-04T12:56:35.373Z</time></trkpt><trkpt lat="44.4672378" lon="11.1211339"><ele>132.85714285714286</ele><time>2026-04-04T12:56:36.38Z</time></trkpt><trkpt lat="44.4672573" lon="11.1210307"><ele>132.0</ele><time>2026-04-04T12:56:37.382Z</time></trkpt><trkpt lat="44.4672719" lon="11.1209239"><ele>132.0</ele><time>2026-04-04T12:56:38.377Z</time></trkpt><trkpt lat="44.4672887" lon="11.1208171"><ele>132.0</ele><time>2026-04-04T12:56:39.373Z</time></trkpt><trkpt lat="44.4673054" lon="11.120709"><ele>132.0</ele><time>2026-04-04T12:56:40.386Z</time></trkpt><trkpt lat="44.4673214" lon="11.1205996"><ele>132.0</ele><time>2026-04-04T12:56:41.384Z</time></trkpt><trkpt lat="44.4673378" lon="11.1204899"><ele>132.0</ele><time>2026-04-04T12:56:42.373Z</time></trkpt><trkpt lat="44.4673544" lon="11.120379"><ele>132.0</ele><time>2026-04-04T12:56:43.379Z</time></trkpt><trkpt lat="44.46737" lon="11.1202684"><ele>131.66666666666666</ele><time>2026-04-04T12:56:44.387Z</time></trkpt><trkpt lat="44.4673859" lon="11.1201595"><ele>131.33333333333334</ele><time>2026-04-04T12:56:45.374Z</time></trkpt><trkpt lat="44.4674031" lon="11.1200532"><ele>131.0</ele><time>2026-04-04T12:56:46.379Z</time></trkpt><trkpt lat="44.467421" lon="11.1199467"><ele>130.66666666666669</ele><time>2026-04-04T12:56:47.379Z</time></trkpt><trkpt lat="44.4674373" lon="11.1198412"><ele>130.33333333333334</ele><time>2026-04-04T12:56:48.377Z</time></trkpt><trkpt lat="44.4674526" lon="11.1197374"><ele>130.0</ele><time>2026-04-04T12:56:49.386Z</time></trkpt><trkpt lat="44.4674691" lon="11.1196357"><ele>129.71428571428572</ele><time>2026-04-04T12:56:50.381Z</time></trkpt><trkpt lat="44.4674857" lon="11.1195347"><ele>129.42857142857144</ele><time>2026-04-04T12:56:51.368Z</time></trkpt><trkpt lat="44.4675023" lon="11.1194353"><ele>129.14285714285714</ele><time>2026-04-04T12:56:52.379Z</time></trkpt><trkpt lat="44.4675184" lon="11.1193368"><ele>128.85714285714286</ele><time>2026-04-04T12:56:53.378Z</time></trkpt><trkpt lat="44.4675337" lon="11.119238"><ele>128.57142857142856</ele><time>2026-04-04T12:56:54.374Z</time></trkpt><trkpt lat="44.4675496" lon="11.1191382"><ele>128.28571428571428</ele><time>2026-04-04T12:56:55.384Z</time></trkpt><trkpt lat="44.4675648" lon="11.1190377"><ele>128.0</ele><time>2026-04-04T12:56:56.367Z</time></trkpt><trkpt lat="44.467579" lon="11.1189388"><ele>127.57142857142857</ele><time>2026-04-04T12:56:57.377Z</time></trkpt><trkpt lat="44.4675978" lon="11.1188425"><ele>127.14285714285714</ele><time>2026-04-04T12:56:58.387Z</time></trkpt><trkpt lat="44.4676269" lon="11.1187525"><ele>126.71428571428571</ele><time>2026-04-04T12:56:59.38Z</time></trkpt><trkpt lat="44.4676642" lon="11.1186691"><ele>126.28571428571428</ele><time>2026-04-04T12:57:00.379Z</time></trkpt><trkpt lat="44.4677122" lon="11.1185967"><ele>125.85714285714286</ele><time>2026-04-04T12:57:01.377Z</time></trkpt><trkpt lat="44.4677717" lon="11.1185427"><ele>125.42857142857142</ele><time>2026-04-04T12:57:02.382Z</time></trkpt><trkpt lat="44.467838" lon="11.1185094"><ele>125.0</ele><time>2026-04-04T12:57:03.385Z</time></trkpt><trkpt lat="44.4679072" lon="11.1184877"><ele>125.28571428571428</ele><time>2026-04-04T12:57:04.374Z</time></trkpt><trkpt lat="44.4679775" lon="11.1184722"><ele>125.57142857142858</ele><time>2026-04-04T12:57:05.376Z</time></trkpt><trkpt lat="44.4680485" lon="11.1184571"><ele>125.85714285714286</ele><time>2026-04-04T12:57:06.368Z</time></trkpt><trkpt lat="44.4681195" lon="11.1184421"><ele>126.14285714285714</ele><time>2026-04-04T12:57:07.38Z</time></trkpt><trkpt lat="44.4681903" lon="11.1184293"><ele>126.42857142857142</ele><time>2026-04-04T12:57:08.381Z</time></trkpt><trkpt lat="44.4682604" lon="11.1184153"><ele>126.71428571428572</ele><time>2026-04-04T12:57:09.382Z</time></trkpt><trkpt lat="44.4683306" lon="11.1184016"><ele>127.0</ele><time>2026-04-04T12:57:10.387Z</time></trkpt><trkpt lat="44.4684004" lon="11.1183888"><ele>127.0</ele><time>2026-04-04T12:57:11.381Z</time></trkpt><trkpt lat="44.4684699" lon="11.1183737"><ele>127.0</ele><time>2026-04-04T12:57:12.38Z</time></trkpt><trkpt lat="44.4685382" lon="11.1183564"><ele>127.0</ele><time>2026-04-04T12:57:13.37Z</time></trkpt><trkpt lat="44.4686057" lon="11.1183361"><ele>127.0</ele><time>2026-04-04T12:57:14.376Z</time></trkpt><trkpt lat="44.4686719" lon="11.1183129"><ele>127.0</ele><time>2026-04-04T12:57:15.369Z</time></trkpt><trkpt lat="44.4687379" lon="11.1182886"><ele>127.0</ele><time>2026-04-04T12:57:16.383Z</time></trkpt><trkpt lat="44.4688035" lon="11.1182597"><ele>127.0</ele><time>2026-04-04T12:57:17.38Z</time></trkpt><trkpt lat="44.4688688" lon="11.1182288"><ele>126.71428571428572</ele><time>2026-04-04T12:57:18.376Z</time></trkpt><trkpt lat="44.4689347" lon="11.1182001"><ele>126.42857142857142</ele><time>2026-04-04T12:57:19.379Z</time></trkpt><trkpt lat="44.469001" lon="11.1181702"><ele>126.14285714285714</ele><time>2026-04-04T12:57:20.375Z</time></trkpt><trkpt lat="44.4690668" lon="11.1181371"><ele>125.85714285714286</ele><time>2026-04-04T12:57:21.37Z</time></trkpt><trkpt lat="44.4691325" lon="11.1181033"><ele>125.57142857142858</ele><time>2026-04-04T12:57:22.371Z</time></trkpt><trkpt lat="44.4691981" lon="11.1180691"><ele>125.28571428571428</ele><time>2026-04-04T12:57:23.375Z</time></trkpt><trkpt lat="44.4692652" lon="11.1180345"><ele>125.0</ele><time>2026-04-04T12:57:24.386Z</time></trkpt><trkpt lat="44.469331" lon="11.1179999"><ele>125.0</ele><time>2026-04-04T12:57:25.375Z</time></trkpt><trkpt lat="44.469397" lon="11.1179624"><ele>125.0</ele><time>2026-04-04T12:57:26.379Z</time></trkpt><trkpt lat="44.4694632" lon="11.1179233"><ele>125.0</ele><time>2026-04-04T12:57:27.38Z</time></trkpt><trkpt lat="44.4695277" lon="11.1178831"><ele>125.0</ele><time>2026-04-04T12:57:28.385Z</time></trkpt><trkpt lat="44.4695907" lon="11.1178407"><ele>125.0</ele><time>2026-04-04T12:57:29.386Z</time></trkpt><trkpt lat="44.4696507" lon="11.1177956"><ele>125.0</ele><time>2026-04-04T12:57:30.376Z</time></trkpt><trkpt lat="44.4697095" lon="11.1177479"><ele>125.0</ele><time>2026-04-04T12:57:31.377Z</time></trkpt><trkpt lat="44.4697669" lon="11.1176992"><ele>125.0</ele><time>2026-04-04T12:57:32.376Z</time></trkpt><trkpt lat="44.4698228" lon="11.1176521"><ele>125.0</ele><time>2026-04-04T12:57:33.375Z</time></trkpt><trkpt lat="44.4698788" lon="11.1176073"><ele>125.0</ele><time>2026-04-04T12:57:34.376Z</time></trkpt><trkpt lat="44.4699335" lon="11.1175627"><ele>125.0</ele><time>2026-04-04T12:57:35.379Z</time></trkpt><trkpt lat="44.4699882" lon="11.1175172"><ele>125.0</ele><time>2026-04-04T12:57:36.384Z</time></trkpt><trkpt lat="44.4700421" lon="11.1174712"><ele>125.0</ele><time>2026-04-04T12:57:37.389Z</time></trkpt><trkpt lat="44.4700968" lon="11.1174253"><ele>125.0</ele><time>2026-04-04T12:57:38.378Z</time></trkpt><trkpt lat="44.4701523" lon="11.1173781"><ele>125.0</ele><time>2026-04-04T12:57:39.369Z</time></trkpt><trkpt lat="44.4702079" lon="11.1173302"><ele>125.14285714285714</ele><time>2026-04-04T12:57:40.375Z</time></trkpt><trkpt lat="44.4702642" lon="11.1172806"><ele>125.28571428571429</ele><time>2026-04-04T12:57:41.378Z</time></trkpt><trkpt lat="44.4703201" lon="11.1172284"><ele>125.42857142857143</ele><time>2026-04-04T12:57:42.379Z</time></trkpt><trkpt lat="44.4703773" lon="11.117179"><ele>125.57142857142857</ele><time>2026-04-04T12:57:43.378Z</time></trkpt><trkpt lat="44.4704359" lon="11.1171314"><ele>125.71428571428572</ele><time>2026-04-04T12:57:44.374Z</time></trkpt><trkpt lat="44.4704948" lon="11.1170842"><ele>125.85714285714286</ele><time>2026-04-04T12:57:45.374Z</time></trkpt><trkpt lat="44.4705524" lon="11.1170361"><ele>126.0</ele><time>2026-04-04T12:57:46.386Z</time></trkpt><trkpt lat="44.4706099" lon="11.1169882"><ele>126.0</ele><time>2026-04-04T12:57:47.381Z</time></trkpt><trkpt lat="44.470668" lon="11.1169433"><ele>126.0</ele><time>2026-04-04T12:57:48.37Z</time></trkpt><trkpt lat="44.4707278" lon="11.1169028"><ele>126.0</ele><time>2026-04-04T12:57:49.377Z</time></trkpt><trkpt lat="44.4707899" lon="11.1168725"><ele>126.0</ele><time>2026-04-04T12:57:50.384Z</time></trkpt><trkpt lat="44.470855" lon="11.1168605"><ele>126.0</ele><time>2026-04-04T12:57:51.377Z</time></trkpt><trkpt lat="44.4709202" lon="11.1168715"><ele>126.0</ele><time>2026-04-04T12:57:52.378Z</time></trkpt><trkpt lat="44.4709796" lon="11.1169111"><ele>126.0</ele><time>2026-04-04T12:57:53.371Z</time></trkpt><trkpt lat="44.4710316" lon="11.1169688"><ele>126.0</ele><time>2026-04-04T12:57:54.373Z</time></trkpt><trkpt lat="44.4710754" lon="11.1170361"><ele>126.0</ele><time>2026-04-04T12:57:55.37Z</time></trkpt><trkpt lat="44.4711166" lon="11.1171054"><ele>126.0</ele><time>2026-04-04T12:57:56.388Z</time></trkpt><trkpt lat="44.4711574" lon="11.1171755"><ele>126.0</ele><time>2026-04-04T12:57:57.381Z</time></trkpt><trkpt lat="44.4711976" lon="11.1172457"><ele>126.0</ele><time>2026-04-04T12:57:58.378Z</time></trkpt><trkpt lat="44.4712374" lon="11.1173157"><ele>126.0</ele><time>2026-04-04T12:57:59.377Z</time></trkpt><trkpt lat="44.4712754" lon="11.1173866"><ele>126.0</ele><time>2026-04-04T12:58:00.377Z</time></trkpt><trkpt lat="44.4713521" lon="11.1175254"><ele>125.5</ele><time>2026-04-04T12:58:02.378Z</time></trkpt><trkpt lat="44.4714356" lon="11.1176536"><ele>125.0</ele><time>2026-04-04T12:58:04.395Z</time></trkpt><trkpt lat="44.4715304" lon="11.1177572"><ele>124.5</ele><time>2026-04-04T12:58:06.373Z</time></trkpt><trkpt lat="44.4716305" lon="11.1178459"><ele>124.0</ele><time>2026-04-04T12:58:08.374Z</time></trkpt><trkpt lat="44.471733" lon="11.1179204"><ele>124.0</ele><time>2026-04-04T12:58:10.378Z</time></trkpt><trkpt lat="44.4718359" lon="11.1179698"><ele>124.0</ele><time>2026-04-04T12:58:12.375Z</time></trkpt><trkpt lat="44.4719369" lon="11.1179968"><ele>124.0</ele><time>2026-04-04T12:58:14.359Z</time></trkpt><trkpt lat="44.4720299" lon="11.1180115"><ele>124.0</ele><time>2026-04-04T12:58:16.372Z</time></trkpt><trkpt lat="44.4721173" lon="11.1180027"><ele>124.0</ele><time>2026-04-04T12:58:18.384Z</time></trkpt><trkpt lat="44.472201" lon="11.1179831"><ele>125.2</ele><time>2026-04-04T12:58:20.374Z</time></trkpt><trkpt lat="44.4722812" lon="11.1179487"><ele>126.4</ele><time>2026-04-04T12:58:22.373Z</time></trkpt><trkpt lat="44.4723602" lon="11.1178923"><ele>127.6</ele><time>2026-04-04T12:58:24.374Z</time></trkpt><trkpt lat="44.4724388" lon="11.1178256"><ele>128.8</ele><time>2026-04-04T12:58:26.374Z</time></trkpt><trkpt lat="44.4725191" lon="11.1177581"><ele>130.0</ele><time>2026-04-04T12:58:28.372Z</time></trkpt><trkpt lat="44.4725986" lon="11.1176923"><ele>130.0</ele><time>2026-04-04T12:58:30.376Z</time></trkpt><trkpt lat="44.4726803" lon="11.1176259"><ele>130.0</ele><time>2026-04-04T12:58:32.379Z</time></trkpt><trkpt lat="44.4727636" lon="11.1175623"><ele>130.0</ele><time>2026-04-04T12:58:34.382Z</time></trkpt><trkpt lat="44.4728453" lon="11.1174955"><ele>130.0</ele><time>2026-04-04T12:58:36.379Z</time></trkpt><trkpt lat="44.4729276" lon="11.1174275"><ele>130.0</ele><time>2026-04-04T12:58:38.381Z</time></trkpt><trkpt lat="44.4730096" lon="11.1173495"><ele>130.0</ele><time>2026-04-04T12:58:40.38Z</time></trkpt><trkpt lat="44.4730956" lon="11.1172627"><ele>130.0</ele><time>2026-04-04T12:58:42.385Z</time></trkpt><trkpt lat="44.4731883" lon="11.1171725"><ele>130.0</ele><time>2026-04-04T12:58:44.374Z</time></trkpt><trkpt lat="44.4732768" lon="11.1170736"><ele>130.0</ele><time>2026-04-04T12:58:46.376Z</time></trkpt><trkpt lat="44.4733614" lon="11.1169677"><ele>130.0</ele><time>2026-04-04T12:58:48.375Z</time></trkpt><trkpt lat="44.4734456" lon="11.1168583"><ele>130.0</ele><time>2026-04-04T12:58:50.374Z</time></trkpt><trkpt lat="44.4735281" lon="11.1167441"><ele>130.0</ele><time>2026-04-04T12:58:52.385Z</time></trkpt><trkpt lat="44.4736144" lon="11.1166348"><ele>130.0</ele><time>2026-04-04T12:58:54.374Z</time></trkpt><trkpt lat="44.4737037" lon="11.1165248"><ele>130.0</ele><time>2026-04-04T12:58:56.377Z</time></trkpt><trkpt lat="44.4737927" lon="11.1164098"><ele>129.75</ele><time>2026-04-04T12:58:58.376Z</time></trkpt><trkpt lat="44.473883" lon="11.116294"><ele>129.5</ele><time>2026-04-04T12:59:00.378Z</time></trkpt><trkpt lat="44.473972" lon="11.1161812"><ele>129.25</ele><time>2026-04-04T12:59:02.371Z</time></trkpt><trkpt lat="44.4740631" lon="11.1160651"><ele>129.0</ele><time>2026-04-04T12:59:04.372Z</time></trkpt><trkpt lat="44.4741564" lon="11.115948"><ele>129.0</ele><time>2026-04-04T12:59:06.385Z</time></trkpt><trkpt lat="44.4742447" lon="11.1158346"><ele>129.0</ele><time>2026-04-04T12:59:08.38Z</time></trkpt><trkpt lat="44.4743315" lon="11.1157191"><ele>129.0</ele><time>2026-04-04T12:59:10.396Z</time></trkpt><trkpt lat="44.4744116" lon="11.1155895"><ele>129.0</ele><time>2026-04-04T12:59:12.368Z</time></trkpt><trkpt lat="44.4744614" lon="11.1154302"><ele>128.33333333333334</ele><time>2026-04-04T12:59:14.368Z</time></trkpt><trkpt lat="44.4744662" lon="11.1152546"><ele>127.66666666666666</ele><time>2026-04-04T12:59:16.383Z</time></trkpt><trkpt lat="44.4744494" lon="11.1151681"><ele>127.0</ele><time>2026-04-04T12:59:17.382Z</time></trkpt><trkpt lat="44.4744213" lon="11.1150851"><ele>126.33333333333333</ele><time>2026-04-04T12:59:18.377Z</time></trkpt><trkpt lat="44.4743915" lon="11.1150052"><ele>125.66666666666666</ele><time>2026-04-04T12:59:19.383Z</time></trkpt><trkpt lat="44.4743632" lon="11.1149209"><ele>125.0</ele><time>2026-04-04T12:59:20.376Z</time></trkpt><trkpt lat="44.4743356" lon="11.1148334"><ele>124.85714285714286</ele><time>2026-04-04T12:59:21.375Z</time></trkpt><trkpt lat="44.4743068" lon="11.1147446"><ele>124.71428571428572</ele><time>2026-04-04T12:59:22.373Z</time></trkpt><trkpt lat="44.4742781" lon="11.1146537"><ele>124.57142857142858</ele><time>2026-04-04T12:59:23.381Z</time></trkpt><trkpt lat="44.4742478" lon="11.1145611"><ele>124.42857142857143</ele><time>2026-04-04T12:59:24.387Z</time></trkpt><trkpt lat="44.4742168" lon="11.1144677"><ele>124.2857142857143</ele><time>2026-04-04T12:59:25.377Z</time></trkpt><trkpt lat="44.4741864" lon="11.1143725"><ele>124.14285714285715</ele><time>2026-04-04T12:59:26.376Z</time></trkpt><trkpt lat="44.4741552" lon="11.1142771"><ele>124.0</ele><time>2026-04-04T12:59:27.38Z</time></trkpt><trkpt lat="44.474122" lon="11.1141827"><ele>124.00000000000001</ele><time>2026-04-04T12:59:28.381Z</time></trkpt><trkpt lat="44.474084" lon="11.1140907"><ele>124.0</ele><time>2026-04-04T12:59:29.379Z</time></trkpt><trkpt lat="44.4740462" lon="11.1139975"><ele>124.0</ele><time>2026-04-04T12:59:30.36Z</time></trkpt><trkpt lat="44.4740082" lon="11.1139032"><ele>124.0</ele><time>2026-04-04T12:59:31.381Z</time></trkpt><trkpt lat="44.4739711" lon="11.113808"><ele>124.00000000000001</ele><time>2026-04-04T12:59:32.381Z</time></trkpt><trkpt lat="44.4739308" lon="11.1137154"><ele>124.0</ele><time>2026-04-04T12:59:33.377Z</time></trkpt><trkpt lat="44.4738887" lon="11.1136241"><ele>123.33333333333334</ele><time>2026-04-04T12:59:34.38Z</time></trkpt><trkpt lat="44.4738487" lon="11.1135321"><ele>122.66666666666667</ele><time>2026-04-04T12:59:35.389Z</time></trkpt><trkpt lat="44.4738095" lon="11.11344"><ele>122.0</ele><time>2026-04-04T12:59:36.384Z</time></trkpt><trkpt lat="44.4737685" lon="11.1133501"><ele>121.33333333333334</ele><time>2026-04-04T12:59:37.367Z</time></trkpt><trkpt lat="44.4737283" lon="11.11326"><ele>120.66666666666667</ele><time>2026-04-04T12:59:38.381Z</time></trkpt><trkpt lat="44.4736884" lon="11.1131708"><ele>120.0</ele><time>2026-04-04T12:59:39.383Z</time></trkpt><trkpt lat="44.4736491" lon="11.1130816"><ele>119.57142857142858</ele><time>2026-04-04T12:59:40.382Z</time></trkpt><trkpt lat="44.47361" lon="11.1129921"><ele>119.14285714285714</ele><time>2026-04-04T12:59:41.375Z</time></trkpt><trkpt lat="44.4735731" lon="11.1129007"><ele>118.71428571428572</ele><time>2026-04-04T12:59:42.375Z</time></trkpt><trkpt lat="44.4735413" lon="11.1128061"><ele>118.28571428571429</ele><time>2026-04-04T12:59:43.371Z</time></trkpt><trkpt lat="44.4735143" lon="11.1127084"><ele>117.85714285714286</ele><time>2026-04-04T12:59:44.369Z</time></trkpt><trkpt lat="44.4734922" lon="11.1126085"><ele>117.42857142857143</ele><time>2026-04-04T12:59:45.382Z</time></trkpt><trkpt lat="44.4734778" lon="11.1125045"><ele>117.0</ele><time>2026-04-04T12:59:46.367Z</time></trkpt><trkpt lat="44.4734712" lon="11.1123972"><ele>117.0</ele><time>2026-04-04T12:59:47.375Z</time></trkpt><trkpt lat="44.4734682" lon="11.1122887"><ele>117.0</ele><time>2026-04-04T12:59:48.371Z</time></trkpt><trkpt lat="44.4734658" lon="11.1121788"><ele>117.0</ele><time>2026-04-04T12:59:49.366Z</time></trkpt><trkpt lat="44.473466" lon="11.1120684"><ele>117.0</ele><time>2026-04-04T12:59:50.371Z</time></trkpt><trkpt lat="44.4734653" lon="11.1119585"><ele>117.0</ele><time>2026-04-04T12:59:51.386Z</time></trkpt><trkpt lat="44.4734637" lon="11.1118485"><ele>117.0</ele><time>2026-04-04T12:59:52.372Z</time></trkpt><trkpt lat="44.4734633" lon="11.1117439"><ele>117.0</ele><time>2026-04-04T12:59:53.379Z</time></trkpt><trkpt lat="44.4734637" lon="11.1116389"><ele>117.00000000000001</ele><time>2026-04-04T12:59:54.394Z</time></trkpt><trkpt lat="44.4734642" lon="11.1115358"><ele>117.0</ele><time>2026-04-04T12:59:55.384Z</time></trkpt><trkpt lat="44.4734661" lon="11.1114323"><ele>117.0</ele><time>2026-04-04T12:59:56.374Z</time></trkpt><trkpt lat="44.4734732" lon="11.1113365"><ele>117.00000000000001</ele><time>2026-04-04T12:59:57.381Z</time></trkpt><trkpt lat="44.4734973" lon="11.1112458"><ele>117.0</ele><time>2026-04-04T12:59:58.388Z</time></trkpt><trkpt lat="44.4735311" lon="11.1111608"><ele>117.0</ele><time>2026-04-04T12:59:59.376Z</time></trkpt><trkpt lat="44.4735724" lon="11.1110816"><ele>116.85714285714286</ele><time>2026-04-04T13:00:00.376Z</time></trkpt><trkpt lat="44.4736125" lon="11.1110029"><ele>116.71428571428572</ele><time>2026-04-04T13:00:01.379Z</time></trkpt><trkpt lat="44.473651" lon="11.1109247"><ele>116.57142857142858</ele><time>2026-04-04T13:00:02.383Z</time></trkpt><trkpt lat="44.4736887" lon="11.1108475"><ele>116.42857142857144</ele><time>2026-04-04T13:00:03.37Z</time></trkpt><trkpt lat="44.4737278" lon="11.1107745"><ele>116.28571428571429</ele><time>2026-04-04T13:00:04.377Z</time></trkpt><trkpt lat="44.4737702" lon="11.1107075"><ele>116.14285714285717</ele><time>2026-04-04T13:00:05.38Z</time></trkpt><trkpt lat="44.4738149" lon="11.1106391"><ele>116.00000000000001</ele><time>2026-04-04T13:00:06.391Z</time></trkpt><trkpt lat="44.4738618" lon="11.1105738"><ele>116.00000000000001</ele><time>2026-04-04T13:00:07.378Z</time></trkpt><trkpt lat="44.4739105" lon="11.1105136"><ele>116.0</ele><time>2026-04-04T13:00:08.374Z</time></trkpt><trkpt lat="44.4739624" lon="11.1104568"><ele>116.00000000000001</ele><time>2026-04-04T13:00:09.38Z</time></trkpt><trkpt lat="44.474016" lon="11.1104022"><ele>116.00000000000001</ele><time>2026-04-04T13:00:10.382Z</time></trkpt><trkpt lat="44.4740679" lon="11.1103453"><ele>116.0</ele><time>2026-04-04T13:00:11.377Z</time></trkpt><trkpt lat="44.4741216" lon="11.1102908"><ele>116.00000000000001</ele><time>2026-04-04T13:00:12.382Z</time></trkpt><trkpt lat="44.4741754" lon="11.1102377"><ele>116.00000000000001</ele><time>2026-04-04T13:00:13.368Z</time></trkpt><trkpt lat="44.4742288" lon="11.1101868"><ele>116.0</ele><time>2026-04-04T13:00:14.376Z</time></trkpt><trkpt lat="44.4742823" lon="11.1101383"><ele>116.0</ele><time>2026-04-04T13:00:15.378Z</time></trkpt><trkpt lat="44.4743873" lon="11.1100437"><ele>116.0</ele><time>2026-04-04T13:00:17.381Z</time></trkpt><trkpt lat="44.4744939" lon="11.1099557"><ele>116.0</ele><time>2026-04-04T13:00:19.395Z</time></trkpt><trkpt lat="44.4746005" lon="11.1098658"><ele>116.0</ele><time>2026-04-04T13:00:21.374Z</time></trkpt><trkpt lat="44.4747078" lon="11.1097735"><ele>115.99999999999999</ele><time>2026-04-04T13:00:23.376Z</time></trkpt><trkpt lat="44.4747617" lon="11.1097269"><ele>116.0</ele><time>2026-04-04T13:00:24.383Z</time></trkpt><trkpt lat="44.4748152" lon="11.1096799"><ele>116.0</ele><time>2026-04-04T13:00:25.38Z</time></trkpt><trkpt lat="44.4749214" lon="11.1095862"><ele>116.0</ele><time>2026-04-04T13:00:27.39Z</time></trkpt><trkpt lat="44.4749757" lon="11.1095395"><ele>115.99999999999999</ele><time>2026-04-04T13:00:28.376Z</time></trkpt><trkpt lat="44.4750827" lon="11.1094486"><ele>116.0</ele><time>2026-04-04T13:00:30.385Z</time></trkpt><trkpt lat="44.4751847" lon="11.109352"><ele>115.99999999999999</ele><time>2026-04-04T13:00:32.388Z</time></trkpt><trkpt lat="44.4752398" lon="11.1093035"><ele>116.0</ele><time>2026-04-04T13:00:33.375Z</time></trkpt><trkpt lat="44.4753448" lon="11.1092109"><ele>116.0</ele><time>2026-04-04T13:00:35.38Z</time></trkpt><trkpt lat="44.4754458" lon="11.1091206"><ele>116.0</ele><time>2026-04-04T13:00:37.379Z</time></trkpt><trkpt lat="44.4755007" lon="11.1090723"><ele>115.99999999999999</ele><time>2026-04-04T13:00:38.376Z</time></trkpt><trkpt lat="44.4755566" lon="11.1090206"><ele>116.0</ele><time>2026-04-04T13:00:39.37Z</time></trkpt><trkpt lat="44.4756102" lon="11.108974"><ele>115.85714285714288</ele><time>2026-04-04T13:00:40.378Z</time></trkpt><trkpt lat="44.4756664" lon="11.1089254"><ele>115.71428571428572</ele><time>2026-04-04T13:00:41.375Z</time></trkpt><trkpt lat="44.4757216" lon="11.108876"><ele>115.57142857142857</ele><time>2026-04-04T13:00:42.392Z</time></trkpt><trkpt lat="44.4757761" lon="11.1088272"><ele>115.42857142857143</ele><time>2026-04-04T13:00:43.375Z</time></trkpt><trkpt lat="44.4758311" lon="11.1087833"><ele>115.28571428571428</ele><time>2026-04-04T13:00:44.382Z</time></trkpt><trkpt lat="44.4758861" lon="11.1087364"><ele>115.14285714285712</ele><time>2026-04-04T13:00:45.396Z</time></trkpt><trkpt lat="44.4759901" lon="11.1086425"><ele>114.99999999999999</ele><time>2026-04-04T13:00:47.378Z</time></trkpt><trkpt lat="44.4760964" lon="11.1085467"><ele>115.00000000000001</ele><time>2026-04-04T13:00:49.387Z</time></trkpt><trkpt lat="44.4761502" lon="11.1084994"><ele>115.0</ele><time>2026-04-04T13:00:50.378Z</time></trkpt><trkpt lat="44.4762034" lon="11.1084496"><ele>115.0</ele><time>2026-04-04T13:00:51.381Z</time></trkpt><trkpt lat="44.4762572" lon="11.1084014"><ele>115.0</ele><time>2026-04-04T13:00:52.369Z</time></trkpt><trkpt lat="44.4763127" lon="11.1083552"><ele>115.00000000000001</ele><time>2026-04-04T13:00:53.374Z</time></trkpt><trkpt lat="44.4764187" lon="11.1082614"><ele>115.0</ele><time>2026-04-04T13:00:55.381Z</time></trkpt><trkpt lat="44.4765221" lon="11.1081636"><ele>115.5</ele><time>2026-04-04T13:00:57.375Z</time></trkpt><trkpt lat="44.47662" lon="11.1080633"><ele>116.0</ele><time>2026-04-04T13:00:59.378Z</time></trkpt><trkpt lat="44.476719" lon="11.1079671"><ele>116.5</ele><time>2026-04-04T13:01:01.374Z</time></trkpt><trkpt lat="44.4768216" lon="11.1078774"><ele>117.0</ele><time>2026-04-04T13:01:03.381Z</time></trkpt><trkpt lat="44.4769238" lon="11.1077931"><ele>117.0</ele><time>2026-04-04T13:01:05.373Z</time></trkpt><trkpt lat="44.4770297" lon="11.1077175"><ele>116.99999999999999</ele><time>2026-04-04T13:01:07.377Z</time></trkpt><trkpt lat="44.4771373" lon="11.1076352"><ele>116.99999999999999</ele><time>2026-04-04T13:01:09.388Z</time></trkpt><trkpt lat="44.4771906" lon="11.1075867"><ele>117.0</ele><time>2026-04-04T13:01:10.379Z</time></trkpt><trkpt lat="44.4772958" lon="11.1074943"><ele>117.0</ele><time>2026-04-04T13:01:12.378Z</time></trkpt><trkpt lat="44.4774015" lon="11.1074036"><ele>116.66666666666667</ele><time>2026-04-04T13:01:14.382Z</time></trkpt><trkpt lat="44.4775044" lon="11.107312"><ele>116.33333333333334</ele><time>2026-04-04T13:01:16.371Z</time></trkpt><trkpt lat="44.4776097" lon="11.1072141"><ele>116.0</ele><time>2026-04-04T13:01:18.379Z</time></trkpt><trkpt lat="44.4776626" lon="11.1071643"><ele>115.66666666666667</ele><time>2026-04-04T13:01:19.384Z</time></trkpt><trkpt lat="44.4777151" lon="11.1071137"><ele>115.33333333333334</ele><time>2026-04-04T13:01:20.387Z</time></trkpt><trkpt lat="44.4777671" lon="11.1070624"><ele>115.0</ele><time>2026-04-04T13:01:21.392Z</time></trkpt><trkpt lat="44.4778191" lon="11.1070106"><ele>115.00000000000001</ele><time>2026-04-04T13:01:22.377Z</time></trkpt><trkpt lat="44.4778711" lon="11.1069603"><ele>115.0</ele><time>2026-04-04T13:01:23.375Z</time></trkpt><trkpt lat="44.4779233" lon="11.1069101"><ele>115.0</ele><time>2026-04-04T13:01:24.377Z</time></trkpt><trkpt lat="44.4779751" lon="11.106858"><ele>115.0</ele><time>2026-04-04T13:01:25.38Z</time></trkpt><trkpt lat="44.4780753" lon="11.1067577"><ele>115.00000000000001</ele><time>2026-04-04T13:01:27.374Z</time></trkpt><trkpt lat="44.4781742" lon="11.1066574"><ele>115.0</ele><time>2026-04-04T13:01:29.38Z</time></trkpt><trkpt lat="44.4782713" lon="11.1065529"><ele>114.5</ele><time>2026-04-04T13:01:31.383Z</time></trkpt><trkpt lat="44.478368" lon="11.1064488"><ele>114.0</ele><time>2026-04-04T13:01:33.371Z</time></trkpt><trkpt lat="44.4784656" lon="11.1063452"><ele>113.5</ele><time>2026-04-04T13:01:35.374Z</time></trkpt><trkpt lat="44.4785638" lon="11.1062376"><ele>113.0</ele><time>2026-04-04T13:01:37.379Z</time></trkpt><trkpt lat="44.478665" lon="11.1061341"><ele>112.99999999999999</ele><time>2026-04-04T13:01:39.39Z</time></trkpt><trkpt lat="44.4787667" lon="11.1060291"><ele>113.0</ele><time>2026-04-04T13:01:41.379Z</time></trkpt><trkpt lat="44.478818" lon="11.1059771"><ele>113.0</ele><time>2026-04-04T13:01:42.38Z</time></trkpt><trkpt lat="44.4788697" lon="11.1059263"><ele>113.0</ele><time>2026-04-04T13:01:43.38Z</time></trkpt><trkpt lat="44.4789215" lon="11.1058758"><ele>112.99999999999999</ele><time>2026-04-04T13:01:44.381Z</time></trkpt><trkpt lat="44.4790241" lon="11.105774"><ele>113.0</ele><time>2026-04-04T13:01:46.368Z</time></trkpt><trkpt lat="44.479129" lon="11.1056768"><ele>113.0</ele><time>2026-04-04T13:01:48.379Z</time></trkpt><trkpt lat="44.4792354" lon="11.1055828"><ele>113.00000000000001</ele><time>2026-04-04T13:01:50.388Z</time></trkpt><trkpt lat="44.4792883" lon="11.1055348"><ele>113.00000000000001</ele><time>2026-04-04T13:01:51.386Z</time></trkpt><trkpt lat="44.4793421" lon="11.1054886"><ele>113.0</ele><time>2026-04-04T13:01:52.378Z</time></trkpt><trkpt lat="44.4794471" lon="11.1053961"><ele>113.0</ele><time>2026-04-04T13:01:54.376Z</time></trkpt><trkpt lat="44.4795492" lon="11.1053009"><ele>114.0</ele><time>2026-04-04T13:01:56.379Z</time></trkpt><trkpt lat="44.4796562" lon="11.105212"><ele>115.0</ele><time>2026-04-04T13:01:58.388Z</time></trkpt><trkpt lat="44.4797617" lon="11.1051188"><ele>116.0</ele><time>2026-04-04T13:02:00.385Z</time></trkpt><trkpt lat="44.479869" lon="11.1050292"><ele>117.0</ele><time>2026-04-04T13:02:02.386Z</time></trkpt><trkpt lat="44.4799742" lon="11.1049322"><ele>116.5</ele><time>2026-04-04T13:02:04.38Z</time></trkpt><trkpt lat="44.4800265" lon="11.1048826"><ele>116.0</ele><time>2026-04-04T13:02:05.377Z</time></trkpt><trkpt lat="44.4800789" lon="11.1048336"><ele>115.5</ele><time>2026-04-04T13:02:06.382Z</time></trkpt><trkpt lat="44.4801819" lon="11.104738"><ele>115.0</ele><time>2026-04-04T13:02:08.372Z</time></trkpt><trkpt lat="44.4802786" lon="11.1046327"><ele>114.5</ele><time>2026-04-04T13:02:10.378Z</time></trkpt><trkpt lat="44.4803274" lon="11.104576"><ele>114.0</ele><time>2026-04-04T13:02:11.378Z</time></trkpt><trkpt lat="44.4803764" lon="11.1045198"><ele>114.0</ele><time>2026-04-04T13:02:12.384Z</time></trkpt><trkpt lat="44.4804258" lon="11.1044632"><ele>113.99999999999999</ele><time>2026-04-04T13:02:13.384Z</time></trkpt><trkpt lat="44.4804759" lon="11.1044068"><ele>114.0</ele><time>2026-04-04T13:02:14.377Z</time></trkpt><trkpt lat="44.4805258" lon="11.104349"><ele>114.0</ele><time>2026-04-04T13:02:15.382Z</time></trkpt><trkpt lat="44.4805745" lon="11.1042899"><ele>113.99999999999999</ele><time>2026-04-04T13:02:16.379Z</time></trkpt><trkpt lat="44.4806252" lon="11.1042324"><ele>114.0</ele><time>2026-04-04T13:02:17.383Z</time></trkpt><trkpt lat="44.4806751" lon="11.1041728"><ele>114.0</ele><time>2026-04-04T13:02:18.375Z</time></trkpt><trkpt lat="44.4807233" lon="11.1041116"><ele>113.85714285714285</ele><time>2026-04-04T13:02:19.375Z</time></trkpt><trkpt lat="44.4807729" lon="11.1040501"><ele>113.7142857142857</ele><time>2026-04-04T13:02:20.387Z</time></trkpt><trkpt lat="44.4808213" lon="11.1039847"><ele>113.57142857142857</ele><time>2026-04-04T13:02:21.377Z</time></trkpt><trkpt lat="44.4808686" lon="11.1039206"><ele>113.42857142857142</ele><time>2026-04-04T13:02:22.375Z</time></trkpt><trkpt lat="44.4809145" lon="11.1038532"><ele>113.28571428571428</ele><time>2026-04-04T13:02:23.374Z</time></trkpt><trkpt lat="44.4809593" lon="11.1037869"><ele>113.14285714285714</ele><time>2026-04-04T13:02:24.371Z</time></trkpt><trkpt lat="44.4810036" lon="11.1037183"><ele>113.0</ele><time>2026-04-04T13:02:25.377Z</time></trkpt><trkpt lat="44.4810478" lon="11.1036492"><ele>113.0</ele><time>2026-04-04T13:02:26.369Z</time></trkpt><trkpt lat="44.4810916" lon="11.1035801"><ele>113.0</ele><time>2026-04-04T13:02:27.376Z</time></trkpt><trkpt lat="44.4811382" lon="11.1035114"><ele>113.0</ele><time>2026-04-04T13:02:28.38Z</time></trkpt><trkpt lat="44.4811898" lon="11.1034486"><ele>113.0</ele><time>2026-04-04T13:02:29.376Z</time></trkpt><trkpt lat="44.4812503" lon="11.1034059"><ele>113.0</ele><time>2026-04-04T13:02:30.378Z</time></trkpt><trkpt lat="44.4813162" lon="11.1033937"><ele>113.0</ele><time>2026-04-04T13:02:31.383Z</time></trkpt><trkpt lat="44.4813831" lon="11.1034054"><ele>113.0</ele><time>2026-04-04T13:02:32.388Z</time></trkpt><trkpt lat="44.4814472" lon="11.103431"><ele>112.57142857142857</ele><time>2026-04-04T13:02:33.383Z</time></trkpt><trkpt lat="44.4815119" lon="11.1034609"><ele>112.14285714285714</ele><time>2026-04-04T13:02:34.377Z</time></trkpt><trkpt lat="44.4815772" lon="11.1034961"><ele>111.71428571428571</ele><time>2026-04-04T13:02:35.372Z</time></trkpt><trkpt lat="44.4816445" lon="11.1035301"><ele>111.28571428571428</ele><time>2026-04-04T13:02:36.383Z</time></trkpt><trkpt lat="44.4817132" lon="11.1035632"><ele>110.85714285714286</ele><time>2026-04-04T13:02:37.383Z</time></trkpt><trkpt lat="44.4817828" lon="11.1035956"><ele>110.42857142857142</ele><time>2026-04-04T13:02:38.382Z</time></trkpt><trkpt lat="44.4818531" lon="11.1036284"><ele>110.0</ele><time>2026-04-04T13:02:39.387Z</time></trkpt><trkpt lat="44.481925" lon="11.1036613"><ele>109.99999999999999</ele><time>2026-04-04T13:02:40.377Z</time></trkpt><trkpt lat="44.4819982" lon="11.1036939"><ele>110.0</ele><time>2026-04-04T13:02:41.38Z</time></trkpt><trkpt lat="44.4820714" lon="11.1037251"><ele>110.0</ele><time>2026-04-04T13:02:42.378Z</time></trkpt><trkpt lat="44.4821447" lon="11.1037565"><ele>110.0</ele><time>2026-04-04T13:02:43.384Z</time></trkpt><trkpt lat="44.4822191" lon="11.103787"><ele>109.99999999999999</ele><time>2026-04-04T13:02:44.386Z</time></trkpt><trkpt lat="44.4822941" lon="11.1038191"><ele>110.0</ele><time>2026-04-04T13:02:45.386Z</time></trkpt><trkpt lat="44.4823704" lon="11.10385"><ele>109.66666666666666</ele><time>2026-04-04T13:02:46.369Z</time></trkpt><trkpt lat="44.4824478" lon="11.1038794"><ele>109.33333333333333</ele><time>2026-04-04T13:02:47.379Z</time></trkpt><trkpt lat="44.4825257" lon="11.103909"><ele>109.0</ele><time>2026-04-04T13:02:48.381Z</time></trkpt><trkpt lat="44.4826051" lon="11.1039352"><ele>108.66666666666666</ele><time>2026-04-04T13:02:49.381Z</time></trkpt><trkpt lat="44.4826861" lon="11.1039561"><ele>108.33333333333333</ele><time>2026-04-04T13:02:50.386Z</time></trkpt><trkpt lat="44.4827687" lon="11.1039703"><ele>108.0</ele><time>2026-04-04T13:02:51.389Z</time></trkpt><trkpt lat="44.4828525" lon="11.1039796"><ele>107.5</ele><time>2026-04-04T13:02:52.398Z</time></trkpt><trkpt lat="44.482937" lon="11.1039865"><ele>107.0</ele><time>2026-04-04T13:02:53.378Z</time></trkpt><trkpt lat="44.4830212" lon="11.1039887"><ele>106.5</ele><time>2026-04-04T13:02:54.372Z</time></trkpt><trkpt lat="44.4831053" lon="11.1039874"><ele>106.0</ele><time>2026-04-04T13:02:55.378Z</time></trkpt><trkpt lat="44.4831888" lon="11.1039865"><ele>105.5</ele><time>2026-04-04T13:02:56.377Z</time></trkpt><trkpt lat="44.4832719" lon="11.1039845"><ele>105.0</ele><time>2026-04-04T13:02:57.382Z</time></trkpt><trkpt lat="44.4833549" lon="11.1039806"><ele>105.0</ele><time>2026-04-04T13:02:58.37Z</time></trkpt><trkpt lat="44.4834363" lon="11.103975"><ele>105.0</ele><time>2026-04-04T13:02:59.372Z</time></trkpt><trkpt lat="44.483516" lon="11.1039719"><ele>105.0</ele><time>2026-04-04T13:03:00.377Z</time></trkpt><trkpt lat="44.4835937" lon="11.1039676"><ele>105.0</ele><time>2026-04-04T13:03:01.371Z</time></trkpt><trkpt lat="44.4836701" lon="11.1039636"><ele>105.0</ele><time>2026-04-04T13:03:02.386Z</time></trkpt><trkpt lat="44.4837451" lon="11.1039604"><ele>105.0</ele><time>2026-04-04T13:03:03.38Z</time></trkpt><trkpt lat="44.4838188" lon="11.1039567"><ele>104.85714285714286</ele><time>2026-04-04T13:03:04.376Z</time></trkpt><trkpt lat="44.4838912" lon="11.103953"><ele>104.71428571428572</ele><time>2026-04-04T13:03:05.384Z</time></trkpt><trkpt lat="44.4839627" lon="11.1039482"><ele>104.57142857142857</ele><time>2026-04-04T13:03:06.369Z</time></trkpt><trkpt lat="44.4840348" lon="11.1039441"><ele>104.42857142857143</ele><time>2026-04-04T13:03:07.377Z</time></trkpt><trkpt lat="44.484107" lon="11.1039381"><ele>104.28571428571429</ele><time>2026-04-04T13:03:08.379Z</time></trkpt><trkpt lat="44.4841798" lon="11.1039327"><ele>104.14285714285714</ele><time>2026-04-04T13:03:09.385Z</time></trkpt><trkpt lat="44.4842531" lon="11.103929"><ele>104.0</ele><time>2026-04-04T13:03:10.381Z</time></trkpt><trkpt lat="44.4843266" lon="11.1039281"><ele>104.0</ele><time>2026-04-04T13:03:11.38Z</time></trkpt><trkpt lat="44.4844005" lon="11.103926"><ele>104.0</ele><time>2026-04-04T13:03:12.369Z</time></trkpt><trkpt lat="44.4844735" lon="11.1039222"><ele>104.0</ele><time>2026-04-04T13:03:13.38Z</time></trkpt><trkpt lat="44.484546" lon="11.1039168"><ele>104.0</ele><time>2026-04-04T13:03:14.385Z</time></trkpt><trkpt lat="44.4846181" lon="11.1039109"><ele>104.0</ele><time>2026-04-04T13:03:15.378Z</time></trkpt><trkpt lat="44.4846902" lon="11.1039059"><ele>104.0</ele><time>2026-04-04T13:03:16.382Z</time></trkpt><trkpt lat="44.4847626" lon="11.1039036"><ele>104.0</ele><time>2026-04-04T13:03:17.379Z</time></trkpt><trkpt lat="44.4848343" lon="11.1039014"><ele>104.14285714285714</ele><time>2026-04-04T13:03:18.377Z</time></trkpt><trkpt lat="44.4849063" lon="11.1038988"><ele>104.28571428571429</ele><time>2026-04-04T13:03:19.388Z</time></trkpt><trkpt lat="44.4849782" lon="11.1038967"><ele>104.42857142857143</ele><time>2026-04-04T13:03:20.383Z</time></trkpt><trkpt lat="44.4850493" lon="11.1038953"><ele>104.57142857142857</ele><time>2026-04-04T13:03:21.387Z</time></trkpt><trkpt lat="44.4851199" lon="11.1038903"><ele>104.71428571428572</ele><time>2026-04-04T13:03:22.373Z</time></trkpt><trkpt lat="44.4851901" lon="11.1038846"><ele>104.85714285714286</ele><time>2026-04-04T13:03:23.378Z</time></trkpt><trkpt lat="44.48526" lon="11.1038781"><ele>105.0</ele><time>2026-04-04T13:03:24.384Z</time></trkpt><trkpt lat="44.4853274" lon="11.1038738"><ele>105.0</ele><time>2026-04-04T13:03:25.385Z</time></trkpt><trkpt lat="44.4853947" lon="11.1038704"><ele>105.0</ele><time>2026-04-04T13:03:26.382Z</time></trkpt><trkpt lat="44.4854614" lon="11.1038677"><ele>105.0</ele><time>2026-04-04T13:03:27.382Z</time></trkpt><trkpt lat="44.4855279" lon="11.1038639"><ele>105.0</ele><time>2026-04-04T13:03:28.379Z</time></trkpt><trkpt lat="44.4855938" lon="11.1038589"><ele>105.0</ele><time>2026-04-04T13:03:29.38Z</time></trkpt><trkpt lat="44.4856578" lon="11.1038538"><ele>105.0</ele><time>2026-04-04T13:03:30.38Z</time></trkpt><trkpt lat="44.485781" lon="11.1038484"><ele>104.8</ele><time>2026-04-04T13:03:32.38Z</time></trkpt><trkpt lat="44.4859035" lon="11.1038441"><ele>104.6</ele><time>2026-04-04T13:03:34.368Z</time></trkpt><trkpt lat="44.4860272" lon="11.1038424"><ele>104.4</ele><time>2026-04-04T13:03:36.375Z</time></trkpt><trkpt lat="44.4861522" lon="11.1038284"><ele>104.2</ele><time>2026-04-04T13:03:38.385Z</time></trkpt><trkpt lat="44.4862116" lon="11.1037977"><ele>104.0</ele><time>2026-04-04T13:03:39.385Z</time></trkpt><trkpt lat="44.4862655" lon="11.103746"><ele>103.66666666666666</ele><time>2026-04-04T13:03:40.379Z</time></trkpt><trkpt lat="44.4863104" lon="11.1036748"><ele>103.33333333333333</ele><time>2026-04-04T13:03:41.375Z</time></trkpt><trkpt lat="44.4863484" lon="11.1035899"><ele>103.0</ele><time>2026-04-04T13:03:42.373Z</time></trkpt><trkpt lat="44.4863825" lon="11.1034957"><ele>102.66666666666666</ele><time>2026-04-04T13:03:43.381Z</time></trkpt><trkpt lat="44.4864136" lon="11.1033957"><ele>102.33333333333333</ele><time>2026-04-04T13:03:44.379Z</time></trkpt><trkpt lat="44.4864439" lon="11.1032915"><ele>102.0</ele><time>2026-04-04T13:03:45.388Z</time></trkpt><trkpt lat="44.4864755" lon="11.103186"><ele>101.83333333333333</ele><time>2026-04-04T13:03:46.376Z</time></trkpt><trkpt lat="44.4865065" lon="11.103081"><ele>101.66666666666666</ele><time>2026-04-04T13:03:47.382Z</time></trkpt><trkpt lat="44.4865382" lon="11.1029777"><ele>101.5</ele><time>2026-04-04T13:03:48.372Z</time></trkpt><trkpt lat="44.486569" lon="11.1028752"><ele>101.33333333333333</ele><time>2026-04-04T13:03:49.383Z</time></trkpt><trkpt lat="44.4865987" lon="11.1027738"><ele>101.16666666666666</ele><time>2026-04-04T13:03:50.367Z</time></trkpt><trkpt lat="44.4866286" lon="11.1026732"><ele>101.0</ele><time>2026-04-04T13:03:51.38Z</time></trkpt><trkpt lat="44.4866598" lon="11.1025749"><ele>101.0</ele><time>2026-04-04T13:03:52.364Z</time></trkpt><trkpt lat="44.4866908" lon="11.1024779"><ele>101.0</ele><time>2026-04-04T13:03:53.376Z</time></trkpt><trkpt lat="44.4867207" lon="11.1023822"><ele>101.0</ele><time>2026-04-04T13:03:54.379Z</time></trkpt><trkpt lat="44.4867498" lon="11.1022871"><ele>101.0</ele><time>2026-04-04T13:03:55.383Z</time></trkpt><trkpt lat="44.4867763" lon="11.1021932"><ele>101.0</ele><time>2026-04-04T13:03:56.387Z</time></trkpt><trkpt lat="44.4868039" lon="11.1021024"><ele>101.0</ele><time>2026-04-04T13:03:57.376Z</time></trkpt><trkpt lat="44.4868295" lon="11.1020121"><ele>101.0</ele><time>2026-04-04T13:03:58.375Z</time></trkpt><trkpt lat="44.4868579" lon="11.1019246"><ele>100.99999999999999</ele><time>2026-04-04T13:03:59.375Z</time></trkpt><trkpt lat="44.4868873" lon="11.1018393"><ele>101.0</ele><time>2026-04-04T13:04:00.377Z</time></trkpt><trkpt lat="44.4869169" lon="11.1017561"><ele>101.0</ele><time>2026-04-04T13:04:01.376Z</time></trkpt><trkpt lat="44.4869445" lon="11.1016729"><ele>101.0</ele><time>2026-04-04T13:04:02.385Z</time></trkpt><trkpt lat="44.4869965" lon="11.1015181"><ele>100.99999999999999</ele><time>2026-04-04T13:04:04.372Z</time></trkpt><trkpt lat="44.4870293" lon="11.1014395"><ele>101.0</ele><time>2026-04-04T13:04:05.379Z</time></trkpt><trkpt lat="44.4870659" lon="11.1013652"><ele>100.57142857142857</ele><time>2026-04-04T13:04:06.378Z</time></trkpt><trkpt lat="44.4871018" lon="11.1012906"><ele>100.14285714285714</ele><time>2026-04-04T13:04:07.377Z</time></trkpt><trkpt lat="44.487153" lon="11.1012309"><ele>99.71428571428572</ele><time>2026-04-04T13:04:08.377Z</time></trkpt><trkpt lat="44.4872115" lon="11.101188"><ele>99.28571428571428</ele><time>2026-04-04T13:04:09.374Z</time></trkpt><trkpt lat="44.4872768" lon="11.1011639"><ele>98.85714285714286</ele><time>2026-04-04T13:04:10.375Z</time></trkpt><trkpt lat="44.4873449" lon="11.1011607"><ele>98.42857142857143</ele><time>2026-04-04T13:04:11.379Z</time></trkpt><trkpt lat="44.4874119" lon="11.1011677"><ele>98.0</ele><time>2026-04-04T13:04:12.383Z</time></trkpt><trkpt lat="44.4874787" lon="11.1011765"><ele>98.0</ele><time>2026-04-04T13:04:13.379Z</time></trkpt><trkpt lat="44.4875458" lon="11.1011899"><ele>98.0</ele><time>2026-04-04T13:04:14.383Z</time></trkpt><trkpt lat="44.4876129" lon="11.1012073"><ele>98.0</ele><time>2026-04-04T13:04:15.368Z</time></trkpt><trkpt lat="44.4876804" lon="11.1012256"><ele>98.0</ele><time>2026-04-04T13:04:16.377Z</time></trkpt><trkpt lat="44.4877472" lon="11.101244"><ele>98.0</ele><time>2026-04-04T13:04:17.382Z</time></trkpt><trkpt lat="44.4878143" lon="11.101263"><ele>98.0</ele><time>2026-04-04T13:04:18.382Z</time></trkpt><trkpt lat="44.4878825" lon="11.1012817"><ele>98.0</ele><time>2026-04-04T13:04:19.383Z</time></trkpt><trkpt lat="44.4879514" lon="11.1013031"><ele>97.71428571428571</ele><time>2026-04-04T13:04:20.386Z</time></trkpt><trkpt lat="44.4880213" lon="11.1013256"><ele>97.42857142857143</ele><time>2026-04-04T13:04:21.368Z</time></trkpt><trkpt lat="44.4880915" lon="11.1013491"><ele>97.14285714285714</ele><time>2026-04-04T13:04:22.375Z</time></trkpt><trkpt lat="44.4881622" lon="11.1013742"><ele>96.85714285714286</ele><time>2026-04-04T13:04:23.374Z</time></trkpt><trkpt lat="44.4882347" lon="11.1013996"><ele>96.57142857142857</ele><time>2026-04-04T13:04:24.376Z</time></trkpt><trkpt lat="44.4883067" lon="11.1014292"><ele>96.28571428571428</ele><time>2026-04-04T13:04:25.376Z</time></trkpt><trkpt lat="44.4883776" lon="11.1014594"><ele>96.0</ele><time>2026-04-04T13:04:26.382Z</time></trkpt><trkpt lat="44.488448" lon="11.101494"><ele>95.99999999999999</ele><time>2026-04-04T13:04:27.379Z</time></trkpt><trkpt lat="44.488519" lon="11.1015281"><ele>96.0</ele><time>2026-04-04T13:04:28.393Z</time></trkpt><trkpt lat="44.4885883" lon="11.101564"><ele>96.0</ele><time>2026-04-04T13:04:29.382Z</time></trkpt><trkpt lat="44.4886568" lon="11.1016041"><ele>96.0</ele><time>2026-04-04T13:04:30.388Z</time></trkpt><trkpt lat="44.4887242" lon="11.1016448"><ele>96.0</ele><time>2026-04-04T13:04:31.383Z</time></trkpt><trkpt lat="44.4887907" lon="11.1016878"><ele>95.99999999999999</ele><time>2026-04-04T13:04:32.372Z</time></trkpt><trkpt lat="44.4888567" lon="11.1017316"><ele>96.0</ele><time>2026-04-04T13:04:33.383Z</time></trkpt><trkpt lat="44.4889229" lon="11.1017771"><ele>96.14285714285714</ele><time>2026-04-04T13:04:34.378Z</time></trkpt><trkpt lat="44.4889884" lon="11.1018249"><ele>96.28571428571428</ele><time>2026-04-04T13:04:35.382Z</time></trkpt><trkpt lat="44.4890521" lon="11.1018754"><ele>96.42857142857142</ele><time>2026-04-04T13:04:36.371Z</time></trkpt><trkpt lat="44.4891157" lon="11.1019281"><ele>96.57142857142857</ele><time>2026-04-04T13:04:37.385Z</time></trkpt><trkpt lat="44.489179" lon="11.1019799"><ele>96.71428571428572</ele><time>2026-04-04T13:04:38.384Z</time></trkpt><trkpt lat="44.4892422" lon="11.1020328"><ele>96.85714285714285</ele><time>2026-04-04T13:04:39.369Z</time></trkpt><trkpt lat="44.4893037" lon="11.1020863"><ele>97.0</ele><time>2026-04-04T13:04:40.38Z</time></trkpt><trkpt lat="44.4893649" lon="11.1021393"><ele>97.0</ele><time>2026-04-04T13:04:41.374Z</time></trkpt><trkpt lat="44.4894256" lon="11.1021943"><ele>97.0</ele><time>2026-04-04T13:04:42.383Z</time></trkpt><trkpt lat="44.4894865" lon="11.1022483"><ele>97.0</ele><time>2026-04-04T13:04:43.374Z</time></trkpt><trkpt lat="44.4895478" lon="11.1022999"><ele>97.0</ele><time>2026-04-04T13:04:44.381Z</time></trkpt><trkpt lat="44.4896086" lon="11.1023493"><ele>97.0</ele><time>2026-04-04T13:04:45.384Z</time></trkpt><trkpt lat="44.4896704" lon="11.1023957"><ele>97.0</ele><time>2026-04-04T13:04:46.382Z</time></trkpt><trkpt lat="44.4897328" lon="11.1024395"><ele>97.0</ele><time>2026-04-04T13:04:47.379Z</time></trkpt><trkpt lat="44.4897955" lon="11.1024823"><ele>97.0</ele><time>2026-04-04T13:04:48.38Z</time></trkpt><trkpt lat="44.4898587" lon="11.1025231"><ele>97.0</ele><time>2026-04-04T13:04:49.385Z</time></trkpt><trkpt lat="44.4899219" lon="11.1025639"><ele>97.0</ele><time>2026-04-04T13:04:50.377Z</time></trkpt><trkpt lat="44.4899861" lon="11.1026044"><ele>97.0</ele><time>2026-04-04T13:04:51.374Z</time></trkpt><trkpt lat="44.4900509" lon="11.1026457"><ele>97.0</ele><time>2026-04-04T13:04:52.377Z</time></trkpt><trkpt lat="44.4901156" lon="11.1026854"><ele>97.0</ele><time>2026-04-04T13:04:53.387Z</time></trkpt><trkpt lat="44.49018" lon="11.1027265"><ele>97.0</ele><time>2026-04-04T13:04:54.379Z</time></trkpt><trkpt lat="44.4902441" lon="11.1027657"><ele>97.0</ele><time>2026-04-04T13:04:55.387Z</time></trkpt><trkpt lat="44.4903089" lon="11.1028061"><ele>97.0</ele><time>2026-04-04T13:04:56.376Z</time></trkpt><trkpt lat="44.4903736" lon="11.1028476"><ele>97.0</ele><time>2026-04-04T13:04:57.377Z</time></trkpt><trkpt lat="44.4904386" lon="11.1028885"><ele>97.0</ele><time>2026-04-04T13:04:58.384Z</time></trkpt><trkpt lat="44.4905037" lon="11.1029288"><ele>97.0</ele><time>2026-04-04T13:04:59.386Z</time></trkpt><trkpt lat="44.4905693" lon="11.1029691"><ele>97.0</ele><time>2026-04-04T13:05:00.365Z</time></trkpt><trkpt lat="44.4906346" lon="11.1030101"><ele>97.0</ele><time>2026-04-04T13:05:01.386Z</time></trkpt><trkpt lat="44.4907" lon="11.1030513"><ele>97.0</ele><time>2026-04-04T13:05:02.381Z</time></trkpt><trkpt lat="44.490765" lon="11.1030929"><ele>97.0</ele><time>2026-04-04T13:05:03.368Z</time></trkpt><trkpt lat="44.4908313" lon="11.1031336"><ele>97.0</ele><time>2026-04-04T13:05:04.371Z</time></trkpt><trkpt lat="44.4908972" lon="11.1031742"><ele>97.0</ele><time>2026-04-04T13:05:05.382Z</time></trkpt><trkpt lat="44.4909626" lon="11.1032155"><ele>97.0</ele><time>2026-04-04T13:05:06.382Z</time></trkpt><trkpt lat="44.4910264" lon="11.1032545"><ele>97.0</ele><time>2026-04-04T13:05:07.376Z</time></trkpt><trkpt lat="44.4910894" lon="11.1032937"><ele>97.0</ele><time>2026-04-04T13:05:08.377Z</time></trkpt><trkpt lat="44.4911495" lon="11.1033332"><ele>97.0</ele><time>2026-04-04T13:05:09.376Z</time></trkpt><trkpt lat="44.4912078" lon="11.1033705"><ele>97.0</ele><time>2026-04-04T13:05:10.383Z</time></trkpt><trkpt lat="44.4912655" lon="11.103407"><ele>97.0</ele><time>2026-04-04T13:05:11.381Z</time></trkpt><trkpt lat="44.4913771" lon="11.10348"><ele>97.0</ele><time>2026-04-04T13:05:13.385Z</time></trkpt><trkpt lat="44.491436" lon="11.1035167"><ele>97.0</ele><time>2026-04-04T13:05:14.373Z</time></trkpt><trkpt lat="44.491494" lon="11.1035578"><ele>97.0</ele><time>2026-04-04T13:05:15.373Z</time></trkpt><trkpt lat="44.4915516" lon="11.1035978"><ele>97.0</ele><time>2026-04-04T13:05:16.375Z</time></trkpt><trkpt lat="44.4916097" lon="11.1036386"><ele>96.57142857142857</ele><time>2026-04-04T13:05:17.373Z</time></trkpt><trkpt lat="44.4916677" lon="11.1036806"><ele>96.14285714285715</ele><time>2026-04-04T13:05:18.364Z</time></trkpt><trkpt lat="44.4917254" lon="11.1037218"><ele>95.71428571428572</ele><time>2026-04-04T13:05:19.374Z</time></trkpt><trkpt lat="44.4917826" lon="11.1037631"><ele>95.28571428571428</ele><time>2026-04-04T13:05:20.36Z</time></trkpt><trkpt lat="44.4918389" lon="11.103805"><ele>94.85714285714286</ele><time>2026-04-04T13:05:21.37Z</time></trkpt><trkpt lat="44.4918956" lon="11.103847"><ele>94.42857142857143</ele><time>2026-04-04T13:05:22.367Z</time></trkpt><trkpt lat="44.4919529" lon="11.1038898"><ele>94.0</ele><time>2026-04-04T13:05:23.376Z</time></trkpt><trkpt lat="44.4920122" lon="11.1039345"><ele>94.0</ele><time>2026-04-04T13:05:24.36Z</time></trkpt><trkpt lat="44.4920694" lon="11.1039788"><ele>94.0</ele><time>2026-04-04T13:05:25.373Z</time></trkpt><trkpt lat="44.4921256" lon="11.1040221"><ele>94.0</ele><time>2026-04-04T13:05:26.374Z</time></trkpt><trkpt lat="44.4921854" lon="11.1040692"><ele>94.0</ele><time>2026-04-04T13:05:27.376Z</time></trkpt><trkpt lat="44.4922443" lon="11.1041159"><ele>94.0</ele><time>2026-04-04T13:05:28.355Z</time></trkpt><trkpt lat="44.4923013" lon="11.1041614"><ele>94.0</ele><time>2026-04-04T13:05:29.382Z</time></trkpt><trkpt lat="44.4923584" lon="11.104207"><ele>94.0</ele><time>2026-04-04T13:05:30.374Z</time></trkpt><trkpt lat="44.4924159" lon="11.1042526"><ele>94.0</ele><time>2026-04-04T13:05:31.363Z</time></trkpt><trkpt lat="44.492472" lon="11.1043022"><ele>94.0</ele><time>2026-04-04T13:05:32.379Z</time></trkpt><trkpt lat="44.4925278" lon="11.1043524"><ele>94.0</ele><time>2026-04-04T13:05:33.376Z</time></trkpt><trkpt lat="44.492584" lon="11.1044029"><ele>94.0</ele><time>2026-04-04T13:05:34.373Z</time></trkpt><trkpt lat="44.4926401" lon="11.1044538"><ele>94.0</ele><time>2026-04-04T13:05:35.382Z</time></trkpt><trkpt lat="44.4926954" lon="11.1045038"><ele>94.0</ele><time>2026-04-04T13:05:36.39Z</time></trkpt><trkpt lat="44.492749" lon="11.104554"><ele>94.0</ele><time>2026-04-04T13:05:37.381Z</time></trkpt><trkpt lat="44.4928026" lon="11.1046053"><ele>94.0</ele><time>2026-04-04T13:05:38.381Z</time></trkpt><trkpt lat="44.4928571" lon="11.104654"><ele>94.0</ele><time>2026-04-04T13:05:39.383Z</time></trkpt><trkpt lat="44.4929601" lon="11.1047498"><ele>94.0</ele><time>2026-04-04T13:05:41.38Z</time></trkpt><trkpt lat="44.4930566" lon="11.1048437"><ele>94.0</ele><time>2026-04-04T13:05:43.379Z</time></trkpt><trkpt lat="44.493158" lon="11.1049408"><ele>94.0</ele><time>2026-04-04T13:05:45.386Z</time></trkpt><trkpt lat="44.4932098" lon="11.1049911"><ele>94.28571428571428</ele><time>2026-04-04T13:05:46.384Z</time></trkpt><trkpt lat="44.493262" lon="11.1050413"><ele>94.57142857142857</ele><time>2026-04-04T13:05:47.389Z</time></trkpt><trkpt lat="44.4933146" lon="11.1050925"><ele>94.85714285714286</ele><time>2026-04-04T13:05:48.373Z</time></trkpt><trkpt lat="44.4933677" lon="11.1051451"><ele>95.14285714285714</ele><time>2026-04-04T13:05:49.369Z</time></trkpt><trkpt lat="44.4934206" lon="11.1051997"><ele>95.42857142857143</ele><time>2026-04-04T13:05:50.387Z</time></trkpt><trkpt lat="44.4934735" lon="11.1052554"><ele>95.71428571428571</ele><time>2026-04-04T13:05:51.385Z</time></trkpt><trkpt lat="44.493525" lon="11.1053126"><ele>96.0</ele><time>2026-04-04T13:05:52.382Z</time></trkpt><trkpt lat="44.4935765" lon="11.1053723"><ele>95.99999999999999</ele><time>2026-04-04T13:05:53.381Z</time></trkpt><trkpt lat="44.4936272" lon="11.1054325"><ele>96.0</ele><time>2026-04-04T13:05:54.384Z</time></trkpt><trkpt lat="44.4936789" lon="11.1054938"><ele>96.0</ele><time>2026-04-04T13:05:55.385Z</time></trkpt><trkpt lat="44.4937288" lon="11.1055552"><ele>96.0</ele><time>2026-04-04T13:05:56.379Z</time></trkpt><trkpt lat="44.4937803" lon="11.1056152"><ele>96.0</ele><time>2026-04-04T13:05:57.369Z</time></trkpt><trkpt lat="44.4938335" lon="11.1056743"><ele>95.99999999999999</ele><time>2026-04-04T13:05:58.38Z</time></trkpt><trkpt lat="44.493889" lon="11.1057305"><ele>96.0</ele><time>2026-04-04T13:05:59.387Z</time></trkpt><trkpt lat="44.4939464" lon="11.1057826"><ele>95.85714285714285</ele><time>2026-04-04T13:06:00.39Z</time></trkpt><trkpt lat="44.4940042" lon="11.1058329"><ele>95.71428571428571</ele><time>2026-04-04T13:06:01.39Z</time></trkpt><trkpt lat="44.4940642" lon="11.1058769"><ele>95.57142857142857</ele><time>2026-04-04T13:06:02.392Z</time></trkpt><trkpt lat="44.4941266" lon="11.105914"><ele>95.42857142857142</ele><time>2026-04-04T13:06:03.39Z</time></trkpt><trkpt lat="44.494189" lon="11.1059459"><ele>95.28571428571429</ele><time>2026-04-04T13:06:04.39Z</time></trkpt><trkpt lat="44.4942518" lon="11.1059723"><ele>95.14285714285714</ele><time>2026-04-04T13:06:05.379Z</time></trkpt><trkpt lat="44.4943144" lon="11.1059943"><ele>95.0</ele><time>2026-04-04T13:06:06.384Z</time></trkpt><trkpt lat="44.4943771" lon="11.1060112"><ele>95.0</ele><time>2026-04-04T13:06:07.374Z</time></trkpt><trkpt lat="44.4944404" lon="11.1060233"><ele>95.0</ele><time>2026-04-04T13:06:08.382Z</time></trkpt><trkpt lat="44.4945033" lon="11.1060331"><ele>95.0</ele><time>2026-04-04T13:06:09.383Z</time></trkpt><trkpt lat="44.4945664" lon="11.1060418"><ele>95.0</ele><time>2026-04-04T13:06:10.383Z</time></trkpt><trkpt lat="44.4946294" lon="11.1060496"><ele>95.0</ele><time>2026-04-04T13:06:11.38Z</time></trkpt><trkpt lat="44.4946926" lon="11.1060574"><ele>95.0</ele><time>2026-04-04T13:06:12.382Z</time></trkpt><trkpt lat="44.494756" lon="11.1060632"><ele>95.0</ele><time>2026-04-04T13:06:13.387Z</time></trkpt><trkpt lat="44.4948189" lon="11.10607"><ele>95.0</ele><time>2026-04-04T13:06:14.38Z</time></trkpt><trkpt lat="44.4949434" lon="11.1060874"><ele>94.71428571428572</ele><time>2026-04-04T13:06:16.395Z</time></trkpt><trkpt lat="44.4950688" lon="11.1061056"><ele>94.42857142857143</ele><time>2026-04-04T13:06:18.387Z</time></trkpt><trkpt lat="44.4951322" lon="11.1061155"><ele>94.14285714285714</ele><time>2026-04-04T13:06:19.39Z</time></trkpt><trkpt lat="44.4951958" lon="11.1061252"><ele>93.85714285714286</ele><time>2026-04-04T13:06:20.389Z</time></trkpt><trkpt lat="44.4952598" lon="11.1061363"><ele>93.57142857142857</ele><time>2026-04-04T13:06:21.382Z</time></trkpt><trkpt lat="44.4953242" lon="11.1061491"><ele>93.28571428571429</ele><time>2026-04-04T13:06:22.391Z</time></trkpt><trkpt lat="44.4953887" lon="11.1061647"><ele>93.0</ele><time>2026-04-04T13:06:23.396Z</time></trkpt><trkpt lat="44.4954538" lon="11.1061803"><ele>92.28571428571429</ele><time>2026-04-04T13:06:24.381Z</time></trkpt><trkpt lat="44.49552" lon="11.1061996"><ele>91.57142857142857</ele><time>2026-04-04T13:06:25.393Z</time></trkpt><trkpt lat="44.4955864" lon="11.106221"><ele>90.85714285714286</ele><time>2026-04-04T13:06:26.372Z</time></trkpt><trkpt lat="44.4956522" lon="11.1062457"><ele>90.14285714285714</ele><time>2026-04-04T13:06:27.372Z</time></trkpt><trkpt lat="44.495717" lon="11.1062718"><ele>89.42857142857143</ele><time>2026-04-04T13:06:28.379Z</time></trkpt><trkpt lat="44.4957806" lon="11.1062997"><ele>88.71428571428572</ele><time>2026-04-04T13:06:29.383Z</time></trkpt><trkpt lat="44.495845" lon="11.1063309"><ele>88.0</ele><time>2026-04-04T13:06:30.381Z</time></trkpt><trkpt lat="44.4959083" lon="11.1063632"><ele>88.0</ele><time>2026-04-04T13:06:31.374Z</time></trkpt><trkpt lat="44.4959724" lon="11.1063961"><ele>88.0</ele><time>2026-04-04T13:06:32.406Z</time></trkpt><trkpt lat="44.4960347" lon="11.10643"><ele>88.0</ele><time>2026-04-04T13:06:33.388Z</time></trkpt><trkpt lat="44.4960959" lon="11.1064656"><ele>88.0</ele><time>2026-04-04T13:06:34.398Z</time></trkpt><trkpt lat="44.4961562" lon="11.1065"><ele>88.0</ele><time>2026-04-04T13:06:35.369Z</time></trkpt><trkpt lat="44.4962171" lon="11.1065318"><ele>88.0</ele><time>2026-04-04T13:06:36.383Z</time></trkpt><trkpt lat="44.4962774" lon="11.1065618"><ele>88.0</ele><time>2026-04-04T13:06:37.393Z</time></trkpt><trkpt lat="44.496338" lon="11.10659"><ele>88.28571428571429</ele><time>2026-04-04T13:06:38.385Z</time></trkpt><trkpt lat="44.4964" lon="11.1066144"><ele>88.57142857142857</ele><time>2026-04-04T13:06:39.378Z</time></trkpt><trkpt lat="44.4964632" lon="11.1066379"><ele>88.85714285714286</ele><time>2026-04-04T13:06:40.403Z</time></trkpt><trkpt lat="44.4965269" lon="11.1066582"><ele>89.14285714285714</ele><time>2026-04-04T13:06:41.38Z</time></trkpt><trkpt lat="44.4965913" lon="11.1066736"><ele>89.42857142857143</ele><time>2026-04-04T13:06:42.379Z</time></trkpt><trkpt lat="44.4966554" lon="11.1066862"><ele>89.71428571428571</ele><time>2026-04-04T13:06:43.376Z</time></trkpt><trkpt lat="44.49672" lon="11.1066967"><ele>90.0</ele><time>2026-04-04T13:06:44.388Z</time></trkpt><trkpt lat="44.4967844" lon="11.1067066"><ele>90.0</ele><time>2026-04-04T13:06:45.376Z</time></trkpt><trkpt lat="44.4968487" lon="11.1067135"><ele>90.0</ele><time>2026-04-04T13:06:46.396Z</time></trkpt><trkpt lat="44.4969123" lon="11.1067209"><ele>90.0</ele><time>2026-04-04T13:06:47.394Z</time></trkpt><trkpt lat="44.4969758" lon="11.1067295"><ele>90.0</ele><time>2026-04-04T13:06:48.378Z</time></trkpt><trkpt lat="44.4970399" lon="11.106738"><ele>90.0</ele><time>2026-04-04T13:06:49.381Z</time></trkpt><trkpt lat="44.4971035" lon="11.1067489"><ele>90.0</ele><time>2026-04-04T13:06:50.387Z</time></trkpt><trkpt lat="44.497167" lon="11.1067583"><ele>90.0</ele><time>2026-04-04T13:06:51.384Z</time></trkpt><trkpt lat="44.4972911" lon="11.1067774"><ele>89.75</ele><time>2026-04-04T13:06:53.383Z</time></trkpt><trkpt lat="44.497415" lon="11.1067974"><ele>89.5</ele><time>2026-04-04T13:06:55.38Z</time></trkpt><trkpt lat="44.4975392" lon="11.1068143"><ele>89.25</ele><time>2026-04-04T13:06:57.383Z</time></trkpt><trkpt lat="44.497664" lon="11.1068306"><ele>89.0</ele><time>2026-04-04T13:06:59.382Z</time></trkpt><trkpt lat="44.4977891" lon="11.1068462"><ele>88.99999999999999</ele><time>2026-04-04T13:07:01.385Z</time></trkpt><trkpt lat="44.4979142" lon="11.106861"><ele>89.0</ele><time>2026-04-04T13:07:03.377Z</time></trkpt><trkpt lat="44.4979773" lon="11.1068688"><ele>89.0</ele><time>2026-04-04T13:07:04.38Z</time></trkpt><trkpt lat="44.4980408" lon="11.1068766"><ele>89.0</ele><time>2026-04-04T13:07:05.38Z</time></trkpt><trkpt lat="44.4981055" lon="11.106885"><ele>89.0</ele><time>2026-04-04T13:07:06.384Z</time></trkpt><trkpt lat="44.4981705" lon="11.1068936"><ele>88.99999999999999</ele><time>2026-04-04T13:07:07.381Z</time></trkpt><trkpt lat="44.498236" lon="11.106904"><ele>89.0</ele><time>2026-04-04T13:07:08.38Z</time></trkpt><trkpt lat="44.4983024" lon="11.1069144"><ele>89.14285714285714</ele><time>2026-04-04T13:07:09.39Z</time></trkpt><trkpt lat="44.4983696" lon="11.1069241"><ele>89.28571428571428</ele><time>2026-04-04T13:07:10.383Z</time></trkpt><trkpt lat="44.4984373" lon="11.1069355"><ele>89.42857142857142</ele><time>2026-04-04T13:07:11.377Z</time></trkpt><trkpt lat="44.4985051" lon="11.1069491"><ele>89.57142857142857</ele><time>2026-04-04T13:07:12.374Z</time></trkpt><trkpt lat="44.4985735" lon="11.1069618"><ele>89.71428571428572</ele><time>2026-04-04T13:07:13.368Z</time></trkpt><trkpt lat="44.4986432" lon="11.1069726"><ele>89.85714285714285</ele><time>2026-04-04T13:07:14.387Z</time></trkpt><trkpt lat="44.4987131" lon="11.1069854"><ele>90.0</ele><time>2026-04-04T13:07:15.379Z</time></trkpt><trkpt lat="44.4987834" lon="11.1070004"><ele>89.71428571428571</ele><time>2026-04-04T13:07:16.381Z</time></trkpt><trkpt lat="44.4988538" lon="11.1070181"><ele>89.42857142857143</ele><time>2026-04-04T13:07:17.368Z</time></trkpt><trkpt lat="44.4989246" lon="11.1070375"><ele>89.14285714285714</ele><time>2026-04-04T13:07:18.38Z</time></trkpt><trkpt lat="44.4989951" lon="11.1070603"><ele>88.85714285714286</ele><time>2026-04-04T13:07:19.373Z</time></trkpt><trkpt lat="44.4990646" lon="11.1070875"><ele>88.57142857142857</ele><time>2026-04-04T13:07:20.391Z</time></trkpt><trkpt lat="44.4991331" lon="11.1071167"><ele>88.28571428571429</ele><time>2026-04-04T13:07:21.381Z</time></trkpt><trkpt lat="44.4992003" lon="11.1071503"><ele>88.0</ele><time>2026-04-04T13:07:22.381Z</time></trkpt><trkpt lat="44.4992657" lon="11.1071853"><ele>88.0</ele><time>2026-04-04T13:07:23.386Z</time></trkpt><trkpt lat="44.4993317" lon="11.1072196"><ele>88.0</ele><time>2026-04-04T13:07:24.383Z</time></trkpt><trkpt lat="44.499395" lon="11.1072547"><ele>88.0</ele><time>2026-04-04T13:07:25.37Z</time></trkpt><trkpt lat="44.4994577" lon="11.1072908"><ele>88.0</ele><time>2026-04-04T13:07:26.384Z</time></trkpt><trkpt lat="44.4995196" lon="11.1073277"><ele>88.0</ele><time>2026-04-04T13:07:27.389Z</time></trkpt><trkpt lat="44.499582" lon="11.1073673"><ele>88.0</ele><time>2026-04-04T13:07:28.385Z</time></trkpt><trkpt lat="44.4996432" lon="11.1074085"><ele>88.0</ele><time>2026-04-04T13:07:29.385Z</time></trkpt><trkpt lat="44.499704" lon="11.1074507"><ele>88.14285714285714</ele><time>2026-04-04T13:07:30.384Z</time></trkpt><trkpt lat="44.4997636" lon="11.1074937"><ele>88.28571428571428</ele><time>2026-04-04T13:07:31.386Z</time></trkpt><trkpt lat="44.4998231" lon="11.1075382"><ele>88.42857142857142</ele><time>2026-04-04T13:07:32.385Z</time></trkpt><trkpt lat="44.4998809" lon="11.1075819"><ele>88.57142857142857</ele><time>2026-04-04T13:07:33.387Z</time></trkpt><trkpt lat="44.4999408" lon="11.1076262"><ele>88.71428571428571</ele><time>2026-04-04T13:07:34.387Z</time></trkpt><trkpt lat="44.5000009" lon="11.1076693"><ele>88.85714285714285</ele><time>2026-04-04T13:07:35.392Z</time></trkpt><trkpt lat="44.5000607" lon="11.1077135"><ele>89.0</ele><time>2026-04-04T13:07:36.374Z</time></trkpt><trkpt lat="44.500121" lon="11.1077579"><ele>88.99999999999999</ele><time>2026-04-04T13:07:37.39Z</time></trkpt><trkpt lat="44.500181" lon="11.1078022"><ele>89.0</ele><time>2026-04-04T13:07:38.385Z</time></trkpt><trkpt lat="44.5002408" lon="11.1078467"><ele>89.0</ele><time>2026-04-04T13:07:39.392Z</time></trkpt><trkpt lat="44.5003" lon="11.1078905"><ele>89.0</ele><time>2026-04-04T13:07:40.385Z</time></trkpt><trkpt lat="44.5003577" lon="11.107935"><ele>89.0</ele><time>2026-04-04T13:07:41.381Z</time></trkpt><trkpt lat="44.5004155" lon="11.1079791"><ele>88.99999999999999</ele><time>2026-04-04T13:07:42.39Z</time></trkpt><trkpt lat="44.5004737" lon="11.1080222"><ele>89.0</ele><time>2026-04-04T13:07:43.391Z</time></trkpt><trkpt lat="44.5005301" lon="11.1080673"><ele>88.99999999999999</ele><time>2026-04-04T13:07:44.371Z</time></trkpt><trkpt lat="44.5005874" lon="11.1081113"><ele>89.0</ele><time>2026-04-04T13:07:45.38Z</time></trkpt><trkpt lat="44.5006457" lon="11.1081539"><ele>89.0</ele><time>2026-04-04T13:07:46.383Z</time></trkpt><trkpt lat="44.5007039" lon="11.1081959"><ele>89.0</ele><time>2026-04-04T13:07:47.378Z</time></trkpt><trkpt lat="44.5007613" lon="11.1082393"><ele>89.0</ele><time>2026-04-04T13:07:48.383Z</time></trkpt><trkpt lat="44.5008195" lon="11.1082825"><ele>88.99999999999999</ele><time>2026-04-04T13:07:49.384Z</time></trkpt><trkpt lat="44.5008776" lon="11.1083245"><ele>89.0</ele><time>2026-04-04T13:07:50.386Z</time></trkpt><trkpt lat="44.5009356" lon="11.1083671"><ele>88.99999999999999</ele><time>2026-04-04T13:07:51.378Z</time></trkpt><trkpt lat="44.5009936" lon="11.1084108"><ele>89.0</ele><time>2026-04-04T13:07:52.385Z</time></trkpt><trkpt lat="44.5010514" lon="11.1084533"><ele>89.0</ele><time>2026-04-04T13:07:53.376Z</time></trkpt><trkpt lat="44.5011098" lon="11.1084953"><ele>89.0</ele><time>2026-04-04T13:07:54.387Z</time></trkpt><trkpt lat="44.5011682" lon="11.108535"><ele>89.0</ele><time>2026-04-04T13:07:55.39Z</time></trkpt><trkpt lat="44.5012272" lon="11.1085721"><ele>88.99999999999999</ele><time>2026-04-04T13:07:56.389Z</time></trkpt><trkpt lat="44.5012851" lon="11.1086083"><ele>89.0</ele><time>2026-04-04T13:07:57.381Z</time></trkpt><trkpt lat="44.5013445" lon="11.1086403"><ele>89.14285714285714</ele><time>2026-04-04T13:07:58.389Z</time></trkpt><trkpt lat="44.5014042" lon="11.1086698"><ele>89.28571428571428</ele><time>2026-04-04T13:07:59.382Z</time></trkpt><trkpt lat="44.5015252" lon="11.1087172"><ele>89.42857142857142</ele><time>2026-04-04T13:08:01.384Z</time></trkpt><trkpt lat="44.5015872" lon="11.108735"><ele>89.57142857142857</ele><time>2026-04-04T13:08:02.373Z</time></trkpt><trkpt lat="44.5016496" lon="11.1087491"><ele>89.71428571428572</ele><time>2026-04-04T13:08:03.388Z</time></trkpt><trkpt lat="44.5017131" lon="11.1087573"><ele>89.85714285714285</ele><time>2026-04-04T13:08:04.385Z</time></trkpt><trkpt lat="44.5017774" lon="11.1087635"><ele>90.0</ele><time>2026-04-04T13:08:05.376Z</time></trkpt><trkpt lat="44.5018413" lon="11.1087678"><ele>90.0</ele><time>2026-04-04T13:08:06.375Z</time></trkpt><trkpt lat="44.5019058" lon="11.1087725"><ele>90.0</ele><time>2026-04-04T13:08:07.382Z</time></trkpt><trkpt lat="44.5019698" lon="11.1087773"><ele>90.0</ele><time>2026-04-04T13:08:08.371Z</time></trkpt><trkpt lat="44.5020343" lon="11.108782"><ele>90.0</ele><time>2026-04-04T13:08:09.381Z</time></trkpt><trkpt lat="44.5020985" lon="11.1087856"><ele>90.0</ele><time>2026-04-04T13:08:10.382Z</time></trkpt><trkpt lat="44.5021621" lon="11.1087899"><ele>90.0</ele><time>2026-04-04T13:08:11.392Z</time></trkpt><trkpt lat="44.5022253" lon="11.1087937"><ele>90.0</ele><time>2026-04-04T13:08:12.376Z</time></trkpt><trkpt lat="44.5023503" lon="11.1087986"><ele>89.5</ele><time>2026-04-04T13:08:14.384Z</time></trkpt><trkpt lat="44.5024725" lon="11.1088054"><ele>89.0</ele><time>2026-04-04T13:08:16.376Z</time></trkpt><trkpt lat="44.5025955" lon="11.1088132"><ele>88.5</ele><time>2026-04-04T13:08:18.391Z</time></trkpt><trkpt lat="44.5027189" lon="11.1088184"><ele>88.0</ele><time>2026-04-04T13:08:20.375Z</time></trkpt><trkpt lat="44.5028405" lon="11.1088235"><ele>88.0</ele><time>2026-04-04T13:08:22.385Z</time></trkpt><trkpt lat="44.5029564" lon="11.1088268"><ele>88.0</ele><time>2026-04-04T13:08:24.384Z</time></trkpt><trkpt lat="44.5030706" lon="11.1088367"><ele>88.0</ele><time>2026-04-04T13:08:26.383Z</time></trkpt><trkpt lat="44.5031866" lon="11.1088424"><ele>88.0</ele><time>2026-04-04T13:08:28.381Z</time></trkpt><trkpt lat="44.5033001" lon="11.1088464"><ele>88.0</ele><time>2026-04-04T13:08:30.385Z</time></trkpt><trkpt lat="44.503412" lon="11.1088559"><ele>88.0</ele><time>2026-04-04T13:08:32.374Z</time></trkpt><trkpt lat="44.5035224" lon="11.1088666"><ele>88.0</ele><time>2026-04-04T13:08:34.38Z</time></trkpt><trkpt lat="44.5036312" lon="11.1088783"><ele>88.0</ele><time>2026-04-04T13:08:36.383Z</time></trkpt><trkpt lat="44.5037392" lon="11.108884"><ele>88.0</ele><time>2026-04-04T13:08:38.377Z</time></trkpt><trkpt lat="44.5038488" lon="11.1088874"><ele>88.0</ele><time>2026-04-04T13:08:40.396Z</time></trkpt><trkpt lat="44.5039665" lon="11.1088866"><ele>88.0</ele><time>2026-04-04T13:08:42.38Z</time></trkpt><trkpt lat="44.504081" lon="11.1088755"><ele>88.0</ele><time>2026-04-04T13:08:44.375Z</time></trkpt><trkpt lat="44.5041905" lon="11.108852"><ele>88.0</ele><time>2026-04-04T13:08:46.387Z</time></trkpt><trkpt lat="44.5042976" lon="11.10881"><ele>88.0</ele><time>2026-04-04T13:08:48.379Z</time></trkpt><trkpt lat="44.5044031" lon="11.1087597"><ele>88.0</ele><time>2026-04-04T13:08:50.379Z</time></trkpt><trkpt lat="44.5045066" lon="11.1086939"><ele>88.0</ele><time>2026-04-04T13:08:52.378Z</time></trkpt><trkpt lat="44.5046097" lon="11.1086184"><ele>88.0</ele><time>2026-04-04T13:08:54.388Z</time></trkpt><trkpt lat="44.5047109" lon="11.1085305"><ele>87.57142857142857</ele><time>2026-04-04T13:08:56.378Z</time></trkpt><trkpt lat="44.5048094" lon="11.1084269"><ele>87.14285714285714</ele><time>2026-04-04T13:08:58.386Z</time></trkpt><trkpt lat="44.5048579" lon="11.1083696"><ele>86.71428571428572</ele><time>2026-04-04T13:08:59.37Z</time></trkpt><trkpt lat="44.5049046" lon="11.108308"><ele>86.28571428571428</ele><time>2026-04-04T13:09:00.394Z</time></trkpt><trkpt lat="44.5049497" lon="11.1082432"><ele>85.85714285714285</ele><time>2026-04-04T13:09:01.372Z</time></trkpt><trkpt lat="44.5049938" lon="11.1081742"><ele>85.42857142857143</ele><time>2026-04-04T13:09:02.39Z</time></trkpt><trkpt lat="44.5050372" lon="11.1081022"><ele>85.0</ele><time>2026-04-04T13:09:03.384Z</time></trkpt><trkpt lat="44.5050799" lon="11.1080274"><ele>84.71428571428572</ele><time>2026-04-04T13:09:04.386Z</time></trkpt><trkpt lat="44.5051205" lon="11.1079474"><ele>84.42857142857142</ele><time>2026-04-04T13:09:05.377Z</time></trkpt><trkpt lat="44.5051625" lon="11.1078655"><ele>84.14285714285714</ele><time>2026-04-04T13:09:06.377Z</time></trkpt><trkpt lat="44.5052075" lon="11.1077823"><ele>83.85714285714286</ele><time>2026-04-04T13:09:07.381Z</time></trkpt><trkpt lat="44.5052512" lon="11.1076959"><ele>83.57142857142858</ele><time>2026-04-04T13:09:08.368Z</time></trkpt><trkpt lat="44.5052936" lon="11.1076048"><ele>83.28571428571428</ele><time>2026-04-04T13:09:09.387Z</time></trkpt><trkpt lat="44.5053382" lon="11.1075134"><ele>83.0</ele><time>2026-04-04T13:09:10.377Z</time></trkpt><trkpt lat="44.5053849" lon="11.1074222"><ele>81.66666666666667</ele><time>2026-04-04T13:09:11.379Z</time></trkpt><trkpt lat="44.5054313" lon="11.1073286"><ele>80.33333333333334</ele><time>2026-04-04T13:09:12.38Z</time></trkpt><trkpt lat="44.5054773" lon="11.1072325"><ele>79.0</ele><time>2026-04-04T13:09:13.367Z</time></trkpt><trkpt lat="44.5055238" lon="11.1071352"><ele>77.66666666666667</ele><time>2026-04-04T13:09:14.377Z</time></trkpt><trkpt lat="44.5055732" lon="11.1070385"><ele>76.33333333333333</ele><time>2026-04-04T13:09:15.378Z</time></trkpt><trkpt lat="44.5056226" lon="11.1069407"><ele>75.0</ele><time>2026-04-04T13:09:16.386Z</time></trkpt><trkpt lat="44.505672" lon="11.1068422"><ele>75.0</ele><time>2026-04-04T13:09:17.392Z</time></trkpt><trkpt lat="44.5057215" lon="11.1067429"><ele>75.0</ele><time>2026-04-04T13:09:18.388Z</time></trkpt><trkpt lat="44.5057709" lon="11.106643"><ele>75.0</ele><time>2026-04-04T13:09:19.398Z</time></trkpt><trkpt lat="44.50582" lon="11.1065419"><ele>75.0</ele><time>2026-04-04T13:09:20.385Z</time></trkpt><trkpt lat="44.5058696" lon="11.1064403"><ele>75.0</ele><time>2026-04-04T13:09:21.381Z</time></trkpt><trkpt lat="44.5059204" lon="11.1063406"><ele>75.0</ele><time>2026-04-04T13:09:22.376Z</time></trkpt><trkpt lat="44.5059727" lon="11.1062417"><ele>75.0</ele><time>2026-04-04T13:09:23.367Z</time></trkpt><trkpt lat="44.5060249" lon="11.1061445"><ele>75.0</ele><time>2026-04-04T13:09:24.389Z</time></trkpt><trkpt lat="44.5060832" lon="11.1060503"><ele>75.0</ele><time>2026-04-04T13:09:25.377Z</time></trkpt><trkpt lat="44.506147" lon="11.1059638"><ele>75.0</ele><time>2026-04-04T13:09:26.378Z</time></trkpt><trkpt lat="44.5062152" lon="11.1058815"><ele>75.0</ele><time>2026-04-04T13:09:27.387Z</time></trkpt><trkpt lat="44.5062859" lon="11.1058045"><ele>75.0</ele><time>2026-04-04T13:09:28.381Z</time></trkpt><trkpt lat="44.5063599" lon="11.1057334"><ele>75.33333333333333</ele><time>2026-04-04T13:09:29.4Z</time></trkpt><trkpt lat="44.5064361" lon="11.1056678"><ele>75.66666666666667</ele><time>2026-04-04T13:09:30.384Z</time></trkpt><trkpt lat="44.5065118" lon="11.1056056"><ele>76.0</ele><time>2026-04-04T13:09:31.378Z</time></trkpt><trkpt lat="44.5065901" lon="11.1055518"><ele>76.33333333333334</ele><time>2026-04-04T13:09:32.387Z</time></trkpt><trkpt lat="44.5066731" lon="11.1055199"><ele>76.66666666666667</ele><time>2026-04-04T13:09:33.393Z</time></trkpt><trkpt lat="44.5067588" lon="11.1055214"><ele>77.0</ele><time>2026-04-04T13:09:34.379Z</time></trkpt><trkpt lat="44.5068395" lon="11.1055567"><ele>77.0</ele><time>2026-04-04T13:09:35.384Z</time></trkpt><trkpt lat="44.5069115" lon="11.105613"><ele>77.0</ele><time>2026-04-04T13:09:36.385Z</time></trkpt><trkpt lat="44.5069807" lon="11.1056715"><ele>77.0</ele><time>2026-04-04T13:09:37.375Z</time></trkpt><trkpt lat="44.5070543" lon="11.1057155"><ele>77.0</ele><time>2026-04-04T13:09:38.364Z</time></trkpt><trkpt lat="44.5071298" lon="11.1057481"><ele>77.0</ele><time>2026-04-04T13:09:39.374Z</time></trkpt><trkpt lat="44.5072046" lon="11.1057747"><ele>77.0</ele><time>2026-04-04T13:09:40.395Z</time></trkpt><trkpt lat="44.5072765" lon="11.1058083"><ele>76.5</ele><time>2026-04-04T13:09:41.378Z</time></trkpt><trkpt lat="44.5073429" lon="11.1058601"><ele>76.0</ele><time>2026-04-04T13:09:42.385Z</time></trkpt><trkpt lat="44.507398" lon="11.1059345"><ele>75.5</ele><time>2026-04-04T13:09:43.385Z</time></trkpt><trkpt lat="44.5074385" lon="11.1060244"><ele>75.0</ele><time>2026-04-04T13:09:44.372Z</time></trkpt><trkpt lat="44.5074746" lon="11.1061164"><ele>74.5</ele><time>2026-04-04T13:09:45.377Z</time></trkpt><trkpt lat="44.5075097" lon="11.1062068"><ele>74.0</ele><time>2026-04-04T13:09:46.374Z</time></trkpt><trkpt lat="44.5075449" lon="11.106297"><ele>74.0</ele><time>2026-04-04T13:09:47.376Z</time></trkpt><trkpt lat="44.5075797" lon="11.1063871"><ele>74.0</ele><time>2026-04-04T13:09:48.381Z</time></trkpt><trkpt lat="44.5076146" lon="11.1064773"><ele>74.0</ele><time>2026-04-04T13:09:49.368Z</time></trkpt><trkpt lat="44.5076497" lon="11.1065684"><ele>74.0</ele><time>2026-04-04T13:09:50.368Z</time></trkpt><trkpt lat="44.5076845" lon="11.1066587"><ele>74.0</ele><time>2026-04-04T13:09:51.375Z</time></trkpt><trkpt lat="44.5077202" lon="11.1067486"><ele>74.0</ele><time>2026-04-04T13:09:52.373Z</time></trkpt><trkpt lat="44.5077553" lon="11.1068376"><ele>74.0</ele><time>2026-04-04T13:09:53.383Z</time></trkpt><trkpt lat="44.5077902" lon="11.1069267"><ele>73.85714285714286</ele><time>2026-04-04T13:09:54.377Z</time></trkpt><trkpt lat="44.5078249" lon="11.107015"><ele>73.71428571428571</ele><time>2026-04-04T13:09:55.368Z</time></trkpt><trkpt lat="44.5078595" lon="11.1071024"><ele>73.57142857142857</ele><time>2026-04-04T13:09:56.385Z</time></trkpt><trkpt lat="44.507894" lon="11.107189"><ele>73.42857142857143</ele><time>2026-04-04T13:09:57.391Z</time></trkpt><trkpt lat="44.5079285" lon="11.1072742"><ele>73.28571428571429</ele><time>2026-04-04T13:09:58.384Z</time></trkpt><trkpt lat="44.5079618" lon="11.1073601"><ele>73.14285714285714</ele><time>2026-04-04T13:09:59.387Z</time></trkpt><trkpt lat="44.5079937" lon="11.1074454"><ele>73.0</ele><time>2026-04-04T13:10:00.382Z</time></trkpt><trkpt lat="44.5080263" lon="11.1075305"><ele>73.28571428571428</ele><time>2026-04-04T13:10:01.38Z</time></trkpt><trkpt lat="44.5080594" lon="11.1076151"><ele>73.57142857142857</ele><time>2026-04-04T13:10:02.387Z</time></trkpt><trkpt lat="44.5080928" lon="11.1076993"><ele>73.85714285714286</ele><time>2026-04-04T13:10:03.375Z</time></trkpt><trkpt lat="44.5081251" lon="11.1077846"><ele>74.14285714285714</ele><time>2026-04-04T13:10:04.366Z</time></trkpt><trkpt lat="44.5081581" lon="11.1078699"><ele>74.42857142857143</ele><time>2026-04-04T13:10:05.385Z</time></trkpt><trkpt lat="44.5081923" lon="11.1079553"><ele>74.71428571428571</ele><time>2026-04-04T13:10:06.381Z</time></trkpt><trkpt lat="44.508226" lon="11.1080405"><ele>75.0</ele><time>2026-04-04T13:10:07.372Z</time></trkpt><trkpt lat="44.5082594" lon="11.1081261"><ele>74.99999999999999</ele><time>2026-04-04T13:10:08.387Z</time></trkpt><trkpt lat="44.5082935" lon="11.1082123"><ele>75.0</ele><time>2026-04-04T13:10:09.386Z</time></trkpt><trkpt lat="44.5083278" lon="11.1082994"><ele>75.0</ele><time>2026-04-04T13:10:10.381Z</time></trkpt><trkpt lat="44.5083621" lon="11.1083868"><ele>75.0</ele><time>2026-04-04T13:10:11.374Z</time></trkpt><trkpt lat="44.5083969" lon="11.1084733"><ele>75.0</ele><time>2026-04-04T13:10:12.383Z</time></trkpt><trkpt lat="44.5084323" lon="11.1085605"><ele>74.99999999999999</ele><time>2026-04-04T13:10:13.383Z</time></trkpt><trkpt lat="44.508468" lon="11.1086483"><ele>75.0</ele><time>2026-04-04T13:10:14.381Z</time></trkpt><trkpt lat="44.5085038" lon="11.1087367"><ele>74.85714285714285</ele><time>2026-04-04T13:10:15.383Z</time></trkpt><trkpt lat="44.5085405" lon="11.1088255"><ele>74.71428571428571</ele><time>2026-04-04T13:10:16.392Z</time></trkpt><trkpt lat="44.50858" lon="11.1089128"><ele>74.57142857142857</ele><time>2026-04-04T13:10:17.364Z</time></trkpt><trkpt lat="44.5086227" lon="11.1089979"><ele>74.42857142857142</ele><time>2026-04-04T13:10:18.387Z</time></trkpt><trkpt lat="44.5086657" lon="11.1090811"><ele>74.28571428571428</ele><time>2026-04-04T13:10:19.39Z</time></trkpt><trkpt lat="44.5087105" lon="11.109163"><ele>74.14285714285714</ele><time>2026-04-04T13:10:20.384Z</time></trkpt><trkpt lat="44.5087569" lon="11.1092425"><ele>74.0</ele><time>2026-04-04T13:10:21.394Z</time></trkpt><trkpt lat="44.5088053" lon="11.1093193"><ele>74.0</ele><time>2026-04-04T13:10:22.382Z</time></trkpt><trkpt lat="44.5088572" lon="11.1093926"><ele>74.0</ele><time>2026-04-04T13:10:23.379Z</time></trkpt><trkpt lat="44.5089092" lon="11.1094647"><ele>74.0</ele><time>2026-04-04T13:10:24.388Z</time></trkpt><trkpt lat="44.5089686" lon="11.1095304"><ele>74.0</ele><time>2026-04-04T13:10:25.373Z</time></trkpt><trkpt lat="44.5090288" lon="11.1095874"><ele>74.0</ele><time>2026-04-04T13:10:26.381Z</time></trkpt><trkpt lat="44.5090919" lon="11.1096398"><ele>74.0</ele><time>2026-04-04T13:10:27.397Z</time></trkpt><trkpt lat="44.5091558" lon="11.1096923"><ele>74.0</ele><time>2026-04-04T13:10:28.382Z</time></trkpt><trkpt lat="44.5092182" lon="11.1097493"><ele>74.0</ele><time>2026-04-04T13:10:29.371Z</time></trkpt><trkpt lat="44.5092815" lon="11.1098056"><ele>74.0</ele><time>2026-04-04T13:10:30.388Z</time></trkpt><trkpt lat="44.5093469" lon="11.1098594"><ele>74.0</ele><time>2026-04-04T13:10:31.39Z</time></trkpt><trkpt lat="44.5094116" lon="11.1099162"><ele>74.0</ele><time>2026-04-04T13:10:32.374Z</time></trkpt><trkpt lat="44.509476" lon="11.1099746"><ele>74.0</ele><time>2026-04-04T13:10:33.389Z</time></trkpt><trkpt lat="44.5095397" lon="11.1100314"><ele>74.0</ele><time>2026-04-04T13:10:34.384Z</time></trkpt><trkpt lat="44.5096017" lon="11.1100879"><ele>73.57142857142857</ele><time>2026-04-04T13:10:35.369Z</time></trkpt><trkpt lat="44.5096647" lon="11.1101392"><ele>73.14285714285714</ele><time>2026-04-04T13:10:36.38Z</time></trkpt><trkpt lat="44.5097271" lon="11.110193"><ele>72.71428571428571</ele><time>2026-04-04T13:10:37.387Z</time></trkpt><trkpt lat="44.509789" lon="11.1102414"><ele>72.28571428571428</ele><time>2026-04-04T13:10:38.376Z</time></trkpt><trkpt lat="44.5098505" lon="11.1102919"><ele>71.85714285714285</ele><time>2026-04-04T13:10:39.395Z</time></trkpt><trkpt lat="44.5099106" lon="11.1103427"><ele>71.42857142857143</ele><time>2026-04-04T13:10:40.376Z</time></trkpt><trkpt lat="44.5099687" lon="11.1103957"><ele>71.0</ele><time>2026-04-04T13:10:41.377Z</time></trkpt><trkpt lat="44.5100219" lon="11.1104564"><ele>71.0</ele><time>2026-04-04T13:10:42.388Z</time></trkpt><trkpt lat="44.510067" lon="11.1105279"><ele>71.0</ele><time>2026-04-04T13:10:43.375Z</time></trkpt><trkpt lat="44.5101054" lon="11.1106077"><ele>71.0</ele><time>2026-04-04T13:10:44.389Z</time></trkpt><trkpt lat="44.5101346" lon="11.1106945"><ele>71.0</ele><time>2026-04-04T13:10:45.375Z</time></trkpt><trkpt lat="44.5101526" lon="11.1107865"><ele>71.0</ele><time>2026-04-04T13:10:46.372Z</time></trkpt><trkpt lat="44.5101628" lon="11.1108822"><ele>71.0</ele><time>2026-04-04T13:10:47.381Z</time></trkpt><trkpt lat="44.5101674" lon="11.1109785"><ele>71.0</ele><time>2026-04-04T13:10:48.381Z</time></trkpt><trkpt lat="44.5101671" lon="11.1110735"><ele>71.0</ele><time>2026-04-04T13:10:49.386Z</time></trkpt><trkpt lat="44.510165" lon="11.111168"><ele>71.0</ele><time>2026-04-04T13:10:50.397Z</time></trkpt><trkpt lat="44.5101619" lon="11.1112614"><ele>71.0</ele><time>2026-04-04T13:10:51.373Z</time></trkpt><trkpt lat="44.5101584" lon="11.1113547"><ele>71.0</ele><time>2026-04-04T13:10:52.384Z</time></trkpt><trkpt lat="44.5101553" lon="11.1114482"><ele>71.0</ele><time>2026-04-04T13:10:53.37Z</time></trkpt><trkpt lat="44.5101526" lon="11.1115422"><ele>71.0</ele><time>2026-04-04T13:10:54.393Z</time></trkpt><trkpt lat="44.5101483" lon="11.1116355"><ele>71.0</ele><time>2026-04-04T13:10:55.379Z</time></trkpt><trkpt lat="44.510144" lon="11.1117285"><ele>70.85714285714286</ele><time>2026-04-04T13:10:56.388Z</time></trkpt><trkpt lat="44.5101407" lon="11.1118214"><ele>70.71428571428571</ele><time>2026-04-04T13:10:57.379Z</time></trkpt><trkpt lat="44.5101371" lon="11.1119144"><ele>70.57142857142857</ele><time>2026-04-04T13:10:58.368Z</time></trkpt><trkpt lat="44.5101333" lon="11.1120059"><ele>70.42857142857143</ele><time>2026-04-04T13:10:59.38Z</time></trkpt><trkpt lat="44.5101299" lon="11.1120979"><ele>70.28571428571428</ele><time>2026-04-04T13:11:00.38Z</time></trkpt><trkpt lat="44.5101255" lon="11.1121901"><ele>70.14285714285714</ele><time>2026-04-04T13:11:01.386Z</time></trkpt><trkpt lat="44.5101212" lon="11.1122823"><ele>70.0</ele><time>2026-04-04T13:11:02.355Z</time></trkpt><trkpt lat="44.5101176" lon="11.112375"><ele>70.0</ele><time>2026-04-04T13:11:03.382Z</time></trkpt><trkpt lat="44.5101133" lon="11.1124675"><ele>70.0</ele><time>2026-04-04T13:11:04.388Z</time></trkpt><trkpt lat="44.5101097" lon="11.1125604"><ele>70.0</ele><time>2026-04-04T13:11:05.379Z</time></trkpt><trkpt lat="44.5101068" lon="11.112653"><ele>70.0</ele><time>2026-04-04T13:11:06.388Z</time></trkpt><trkpt lat="44.5101039" lon="11.1127448"><ele>70.0</ele><time>2026-04-04T13:11:07.366Z</time></trkpt><trkpt lat="44.5100997" lon="11.1128362"><ele>70.0</ele><time>2026-04-04T13:11:08.389Z</time></trkpt><trkpt lat="44.5100954" lon="11.1129265"><ele>70.0</ele><time>2026-04-04T13:11:09.397Z</time></trkpt><trkpt lat="44.5100919" lon="11.1130166"><ele>70.0</ele><time>2026-04-04T13:11:10.384Z</time></trkpt><trkpt lat="44.5100888" lon="11.1131067"><ele>70.0</ele><time>2026-04-04T13:11:11.386Z</time></trkpt><trkpt lat="44.5100854" lon="11.1131969"><ele>70.0</ele><time>2026-04-04T13:11:12.385Z</time></trkpt><trkpt lat="44.5100817" lon="11.1132875"><ele>70.0</ele><time>2026-04-04T13:11:13.381Z</time></trkpt><trkpt lat="44.5100776" lon="11.1133781"><ele>70.0</ele><time>2026-04-04T13:11:14.383Z</time></trkpt><trkpt lat="44.5100742" lon="11.113469"><ele>70.0</ele><time>2026-04-04T13:11:15.381Z</time></trkpt><trkpt lat="44.5100708" lon="11.1135604"><ele>70.0</ele><time>2026-04-04T13:11:16.376Z</time></trkpt><trkpt lat="44.5100675" lon="11.1136522"><ele>69.85714285714286</ele><time>2026-04-04T13:11:17.373Z</time></trkpt><trkpt lat="44.5100635" lon="11.1137449"><ele>69.71428571428572</ele><time>2026-04-04T13:11:18.384Z</time></trkpt><trkpt lat="44.5100598" lon="11.1138378"><ele>69.57142857142857</ele><time>2026-04-04T13:11:19.385Z</time></trkpt><trkpt lat="44.5100553" lon="11.1139322"><ele>69.42857142857143</ele><time>2026-04-04T13:11:20.375Z</time></trkpt><trkpt lat="44.5100513" lon="11.1140271"><ele>69.28571428571429</ele><time>2026-04-04T13:11:21.376Z</time></trkpt><trkpt lat="44.5100478" lon="11.1141226"><ele>69.14285714285714</ele><time>2026-04-04T13:11:22.384Z</time></trkpt><trkpt lat="44.5100436" lon="11.1142175"><ele>69.0</ele><time>2026-04-04T13:11:23.39Z</time></trkpt><trkpt lat="44.5100398" lon="11.1143116"><ele>69.0</ele><time>2026-04-04T13:11:24.391Z</time></trkpt><trkpt lat="44.5100363" lon="11.1144046"><ele>69.0</ele><time>2026-04-04T13:11:25.381Z</time></trkpt><trkpt lat="44.5100333" lon="11.1144977"><ele>69.0</ele><time>2026-04-04T13:11:26.374Z</time></trkpt><trkpt lat="44.5100308" lon="11.11459"><ele>69.0</ele><time>2026-04-04T13:11:27.396Z</time></trkpt><trkpt lat="44.5100293" lon="11.1146821"><ele>69.0</ele><time>2026-04-04T13:11:28.396Z</time></trkpt><trkpt lat="44.5100259" lon="11.1147767"><ele>69.0</ele><time>2026-04-04T13:11:29.369Z</time></trkpt><trkpt lat="44.5100225" lon="11.1148709"><ele>69.0</ele><time>2026-04-04T13:11:30.389Z</time></trkpt><trkpt lat="44.5100194" lon="11.1149648"><ele>69.0</ele><time>2026-04-04T13:11:31.391Z</time></trkpt><trkpt lat="44.5100166" lon="11.1150605"><ele>69.0</ele><time>2026-04-04T13:11:32.386Z</time></trkpt><trkpt lat="44.5100147" lon="11.1151567"><ele>69.0</ele><time>2026-04-04T13:11:33.381Z</time></trkpt><trkpt lat="44.5100137" lon="11.1152538"><ele>69.0</ele><time>2026-04-04T13:11:34.384Z</time></trkpt><trkpt lat="44.5100122" lon="11.1153496"><ele>69.0</ele><time>2026-04-04T13:11:35.383Z</time></trkpt><trkpt lat="44.5100113" lon="11.1154445"><ele>69.0</ele><time>2026-04-04T13:11:36.386Z</time></trkpt><trkpt lat="44.5100116" lon="11.1155389"><ele>69.0</ele><time>2026-04-04T13:11:37.378Z</time></trkpt><trkpt lat="44.510013" lon="11.1156328"><ele>69.0</ele><time>2026-04-04T13:11:38.381Z</time></trkpt><trkpt lat="44.510015" lon="11.1157257"><ele>69.0</ele><time>2026-04-04T13:11:39.39Z</time></trkpt><trkpt lat="44.5100192" lon="11.1158177"><ele>69.0</ele><time>2026-04-04T13:11:40.383Z</time></trkpt><trkpt lat="44.5100249" lon="11.1159102"><ele>69.0</ele><time>2026-04-04T13:11:41.375Z</time></trkpt><trkpt lat="44.510033" lon="11.1160035"><ele>69.0</ele><time>2026-04-04T13:11:42.38Z</time></trkpt><trkpt lat="44.5100424" lon="11.1160967"><ele>69.0</ele><time>2026-04-04T13:11:43.388Z</time></trkpt><trkpt lat="44.510053" lon="11.1161906"><ele>69.0</ele><time>2026-04-04T13:11:44.381Z</time></trkpt><trkpt lat="44.5100656" lon="11.1162839"><ele>69.28571428571429</ele><time>2026-04-04T13:11:45.388Z</time></trkpt><trkpt lat="44.5100795" lon="11.1163773"><ele>69.57142857142858</ele><time>2026-04-04T13:11:46.379Z</time></trkpt><trkpt lat="44.5100944" lon="11.1164705"><ele>69.85714285714286</ele><time>2026-04-04T13:11:47.386Z</time></trkpt><trkpt lat="44.5101118" lon="11.1165646"><ele>70.14285714285714</ele><time>2026-04-04T13:11:48.391Z</time></trkpt><trkpt lat="44.5101313" lon="11.1166594"><ele>70.42857142857142</ele><time>2026-04-04T13:11:49.372Z</time></trkpt><trkpt lat="44.5101511" lon="11.1167544"><ele>70.71428571428571</ele><time>2026-04-04T13:11:50.381Z</time></trkpt><trkpt lat="44.5101721" lon="11.1168497"><ele>71.0</ele><time>2026-04-04T13:11:51.389Z</time></trkpt><trkpt lat="44.5101945" lon="11.1169449"><ele>71.14285714285714</ele><time>2026-04-04T13:11:52.372Z</time></trkpt><trkpt lat="44.5102176" lon="11.1170404"><ele>71.28571428571428</ele><time>2026-04-04T13:11:53.384Z</time></trkpt><trkpt lat="44.510242" lon="11.1171356"><ele>71.42857142857143</ele><time>2026-04-04T13:11:54.386Z</time></trkpt><trkpt lat="44.5102663" lon="11.1172321"><ele>71.57142857142857</ele><time>2026-04-04T13:11:55.38Z</time></trkpt><trkpt lat="44.5102911" lon="11.1173284"><ele>71.71428571428572</ele><time>2026-04-04T13:11:56.373Z</time></trkpt><trkpt lat="44.5103162" lon="11.1174225"><ele>71.85714285714286</ele><time>2026-04-04T13:11:57.386Z</time></trkpt><trkpt lat="44.5103413" lon="11.1175154"><ele>72.0</ele><time>2026-04-04T13:11:58.381Z</time></trkpt><trkpt lat="44.5103665" lon="11.1176062"><ele>72.5</ele><time>2026-04-04T13:11:59.388Z</time></trkpt><trkpt lat="44.5103895" lon="11.1176959"><ele>73.0</ele><time>2026-04-04T13:12:00.376Z</time></trkpt><trkpt lat="44.5104124" lon="11.1177835"><ele>73.5</ele><time>2026-04-04T13:12:01.373Z</time></trkpt><trkpt lat="44.5104353" lon="11.1178697"><ele>74.0</ele><time>2026-04-04T13:12:02.371Z</time></trkpt><trkpt lat="44.5104563" lon="11.1179542"><ele>74.5</ele><time>2026-04-04T13:12:03.38Z</time></trkpt><trkpt lat="44.5104963" lon="11.1181197"><ele>75.0</ele><time>2026-04-04T13:12:05.39Z</time></trkpt><trkpt lat="44.5105155" lon="11.1182043"><ele>73.99999999999999</ele><time>2026-04-04T13:12:06.382Z</time></trkpt><trkpt lat="44.5105319" lon="11.1182904"><ele>73.0</ele><time>2026-04-04T13:12:07.384Z</time></trkpt><trkpt lat="44.5105454" lon="11.1183791"><ele>72.0</ele><time>2026-04-04T13:12:08.376Z</time></trkpt><trkpt lat="44.5105575" lon="11.1184697"><ele>71.0</ele><time>2026-04-04T13:12:09.381Z</time></trkpt><trkpt lat="44.510568" lon="11.1185599"><ele>70.0</ele><time>2026-04-04T13:12:10.386Z</time></trkpt><trkpt lat="44.5105768" lon="11.1186498"><ele>68.99999999999999</ele><time>2026-04-04T13:12:11.382Z</time></trkpt><trkpt lat="44.5105853" lon="11.118739"><ele>68.0</ele><time>2026-04-04T13:12:12.393Z</time></trkpt><trkpt lat="44.5105935" lon="11.1188278"><ele>68.0</ele><time>2026-04-04T13:12:13.38Z</time></trkpt><trkpt lat="44.5106017" lon="11.1189169"><ele>68.0</ele><time>2026-04-04T13:12:14.375Z</time></trkpt><trkpt lat="44.5106096" lon="11.1190045"><ele>68.0</ele><time>2026-04-04T13:12:15.383Z</time></trkpt><trkpt lat="44.5106253" lon="11.119179"><ele>68.0</ele><time>2026-04-04T13:12:17.375Z</time></trkpt><trkpt lat="44.510639" lon="11.1193526"><ele>68.0</ele><time>2026-04-04T13:12:19.381Z</time></trkpt><trkpt lat="44.5106547" lon="11.1195262"><ele>68.0</ele><time>2026-04-04T13:12:21.383Z</time></trkpt><trkpt lat="44.51067" lon="11.1197002"><ele>68.0</ele><time>2026-04-04T13:12:23.399Z</time></trkpt><trkpt lat="44.5106847" lon="11.119874"><ele>68.0</ele><time>2026-04-04T13:12:25.375Z</time></trkpt><trkpt lat="44.5106947" lon="11.1199629"><ele>68.0</ele><time>2026-04-04T13:12:26.378Z</time></trkpt><trkpt lat="44.5107054" lon="11.1200512"><ele>68.0</ele><time>2026-04-04T13:12:27.39Z</time></trkpt><trkpt lat="44.5107131" lon="11.1201402"><ele>68.0</ele><time>2026-04-04T13:12:28.388Z</time></trkpt><trkpt lat="44.5107218" lon="11.1202301"><ele>67.85714285714285</ele><time>2026-04-04T13:12:29.381Z</time></trkpt><trkpt lat="44.5107347" lon="11.12032"><ele>67.71428571428571</ele><time>2026-04-04T13:12:30.397Z</time></trkpt><trkpt lat="44.5107491" lon="11.1204114"><ele>67.57142857142857</ele><time>2026-04-04T13:12:31.384Z</time></trkpt><trkpt lat="44.5107627" lon="11.1205037"><ele>67.42857142857142</ele><time>2026-04-04T13:12:32.373Z</time></trkpt><trkpt lat="44.5107782" lon="11.1205988"><ele>67.28571428571428</ele><time>2026-04-04T13:12:33.384Z</time></trkpt><trkpt lat="44.5107963" lon="11.1206943"><ele>67.14285714285714</ele><time>2026-04-04T13:12:34.379Z</time></trkpt><trkpt lat="44.5108157" lon="11.1207913"><ele>67.0</ele><time>2026-04-04T13:12:35.383Z</time></trkpt><trkpt lat="44.5108377" lon="11.1208876"><ele>66.71428571428572</ele><time>2026-04-04T13:12:36.381Z</time></trkpt><trkpt lat="44.5108606" lon="11.1209846"><ele>66.42857142857143</ele><time>2026-04-04T13:12:37.378Z</time></trkpt><trkpt lat="44.5108843" lon="11.1210813"><ele>66.14285714285714</ele><time>2026-04-04T13:12:38.373Z</time></trkpt><trkpt lat="44.5109114" lon="11.1211767"><ele>65.85714285714286</ele><time>2026-04-04T13:12:39.387Z</time></trkpt><trkpt lat="44.5109389" lon="11.1212718"><ele>65.57142857142857</ele><time>2026-04-04T13:12:40.38Z</time></trkpt><trkpt lat="44.5109623" lon="11.1213692"><ele>65.28571428571429</ele><time>2026-04-04T13:12:41.394Z</time></trkpt><trkpt lat="44.5109894" lon="11.1214634"><ele>65.0</ele><time>2026-04-04T13:12:42.384Z</time></trkpt><trkpt lat="44.5110202" lon="11.1215568"><ele>65.14285714285715</ele><time>2026-04-04T13:12:43.377Z</time></trkpt><trkpt lat="44.5110511" lon="11.1216484"><ele>65.28571428571429</ele><time>2026-04-04T13:12:44.365Z</time></trkpt><trkpt lat="44.5110823" lon="11.12174"><ele>65.42857142857143</ele><time>2026-04-04T13:12:45.384Z</time></trkpt><trkpt lat="44.5111152" lon="11.1218305"><ele>65.57142857142858</ele><time>2026-04-04T13:12:46.381Z</time></trkpt><trkpt lat="44.5111495" lon="11.1219187"><ele>65.71428571428572</ele><time>2026-04-04T13:12:47.381Z</time></trkpt><trkpt lat="44.5111838" lon="11.1220074"><ele>65.85714285714286</ele><time>2026-04-04T13:12:48.384Z</time></trkpt><trkpt lat="44.5112192" lon="11.1220958"><ele>66.0</ele><time>2026-04-04T13:12:49.386Z</time></trkpt><trkpt lat="44.5112566" lon="11.122181"><ele>65.71428571428571</ele><time>2026-04-04T13:12:50.377Z</time></trkpt><trkpt lat="44.5112947" lon="11.1222655"><ele>65.42857142857143</ele><time>2026-04-04T13:12:51.389Z</time></trkpt><trkpt lat="44.5113327" lon="11.122349"><ele>65.14285714285714</ele><time>2026-04-04T13:12:52.386Z</time></trkpt><trkpt lat="44.5113707" lon="11.1224313"><ele>64.85714285714286</ele><time>2026-04-04T13:12:53.379Z</time></trkpt><trkpt lat="44.5114071" lon="11.1225146"><ele>64.57142857142857</ele><time>2026-04-04T13:12:54.382Z</time></trkpt><trkpt lat="44.5114458" lon="11.1225949"><ele>64.28571428571428</ele><time>2026-04-04T13:12:55.387Z</time></trkpt><trkpt lat="44.5114854" lon="11.1226739"><ele>64.0</ele><time>2026-04-04T13:12:56.374Z</time></trkpt><trkpt lat="44.5115248" lon="11.1227531"><ele>64.0</ele><time>2026-04-04T13:12:57.387Z</time></trkpt><trkpt lat="44.5115636" lon="11.1228322"><ele>63.99999999999999</ele><time>2026-04-04T13:12:58.377Z</time></trkpt><trkpt lat="44.5116048" lon="11.1229093"><ele>64.0</ele><time>2026-04-04T13:12:59.389Z</time></trkpt><trkpt lat="44.5116465" lon="11.1229852"><ele>64.0</ele><time>2026-04-04T13:13:00.377Z</time></trkpt><trkpt lat="44.5116898" lon="11.1230605"><ele>63.99999999999999</ele><time>2026-04-04T13:13:01.372Z</time></trkpt><trkpt lat="44.511733" lon="11.1231348"><ele>64.0</ele><time>2026-04-04T13:13:02.378Z</time></trkpt><trkpt lat="44.5117756" lon="11.1232099"><ele>64.0</ele><time>2026-04-04T13:13:03.385Z</time></trkpt><trkpt lat="44.5118175" lon="11.1232852"><ele>63.99999999999999</ele><time>2026-04-04T13:13:04.389Z</time></trkpt><trkpt lat="44.5118588" lon="11.1233594"><ele>64.0</ele><time>2026-04-04T13:13:05.381Z</time></trkpt><trkpt lat="44.5119006" lon="11.1234304"><ele>64.0</ele><time>2026-04-04T13:13:06.376Z</time></trkpt><trkpt lat="44.5119404" lon="11.1235"><ele>64.0</ele><time>2026-04-04T13:13:07.38Z</time></trkpt><trkpt lat="44.5120202" lon="11.1236332"><ele>63.99999999999999</ele><time>2026-04-04T13:13:09.381Z</time></trkpt><trkpt lat="44.5120999" lon="11.1237686"><ele>64.0</ele><time>2026-04-04T13:13:11.39Z</time></trkpt><trkpt lat="44.5121795" lon="11.1239034"><ele>64.0</ele><time>2026-04-04T13:13:13.378Z</time></trkpt><trkpt lat="44.5122198" lon="11.1239722"><ele>63.99999999999999</ele><time>2026-04-04T13:13:14.379Z</time></trkpt><trkpt lat="44.5122601" lon="11.1240415"><ele>64.0</ele><time>2026-04-04T13:13:15.383Z</time></trkpt><trkpt lat="44.5123017" lon="11.1241112"><ele>64.0</ele><time>2026-04-04T13:13:16.379Z</time></trkpt><trkpt lat="44.5123439" lon="11.1241801"><ele>63.99999999999999</ele><time>2026-04-04T13:13:17.379Z</time></trkpt><trkpt lat="44.5123868" lon="11.1242485"><ele>64.0</ele><time>2026-04-04T13:13:18.38Z</time></trkpt><trkpt lat="44.5124245" lon="11.124324"><ele>64.0</ele><time>2026-04-04T13:13:19.374Z</time></trkpt><trkpt lat="44.5124579" lon="11.1244034"><ele>64.0</ele><time>2026-04-04T13:13:20.385Z</time></trkpt><trkpt lat="44.512491" lon="11.1244843"><ele>63.99999999999999</ele><time>2026-04-04T13:13:21.376Z</time></trkpt><trkpt lat="44.5125243" lon="11.1245653"><ele>64.0</ele><time>2026-04-04T13:13:22.375Z</time></trkpt><trkpt lat="44.5125554" lon="11.1246477"><ele>64.0</ele><time>2026-04-04T13:13:23.37Z</time></trkpt><trkpt lat="44.5125867" lon="11.1247301"><ele>63.99999999999999</ele><time>2026-04-04T13:13:24.393Z</time></trkpt><trkpt lat="44.5126147" lon="11.1248151"><ele>64.0</ele><time>2026-04-04T13:13:25.392Z</time></trkpt><trkpt lat="44.5126402" lon="11.1249015"><ele>64.0</ele><time>2026-04-04T13:13:26.377Z</time></trkpt><trkpt lat="44.5126642" lon="11.1249878"><ele>64.28571428571428</ele><time>2026-04-04T13:13:27.377Z</time></trkpt><trkpt lat="44.512687" lon="11.1250751"><ele>64.57142857142857</ele><time>2026-04-04T13:13:28.376Z</time></trkpt><trkpt lat="44.5127084" lon="11.1251641"><ele>64.85714285714286</ele><time>2026-04-04T13:13:29.377Z</time></trkpt><trkpt lat="44.5127272" lon="11.1252528"><ele>65.14285714285714</ele><time>2026-04-04T13:13:30.383Z</time></trkpt><trkpt lat="44.5127432" lon="11.1253408"><ele>65.42857142857143</ele><time>2026-04-04T13:13:31.386Z</time></trkpt><trkpt lat="44.5127581" lon="11.12543"><ele>65.71428571428571</ele><time>2026-04-04T13:13:32.379Z</time></trkpt><trkpt lat="44.5127716" lon="11.1255202"><ele>66.0</ele><time>2026-04-04T13:13:33.383Z</time></trkpt><trkpt lat="44.5127837" lon="11.1256119"><ele>66.0</ele><time>2026-04-04T13:13:34.367Z</time></trkpt><trkpt lat="44.5127946" lon="11.1257028"><ele>66.0</ele><time>2026-04-04T13:13:35.384Z</time></trkpt><trkpt lat="44.512802" lon="11.1257948"><ele>66.0</ele><time>2026-04-04T13:13:36.376Z</time></trkpt><trkpt lat="44.512807" lon="11.1258863"><ele>66.0</ele><time>2026-04-04T13:13:37.374Z</time></trkpt><trkpt lat="44.5128094" lon="11.1259793"><ele>66.0</ele><time>2026-04-04T13:13:38.39Z</time></trkpt><trkpt lat="44.5128103" lon="11.1260711"><ele>66.0</ele><time>2026-04-04T13:13:39.38Z</time></trkpt><trkpt lat="44.5128095" lon="11.1261636"><ele>66.0</ele><time>2026-04-04T13:13:40.385Z</time></trkpt><trkpt lat="44.5128059" lon="11.126256"><ele>66.0</ele><time>2026-04-04T13:13:41.375Z</time></trkpt><trkpt lat="44.5128007" lon="11.1263482"><ele>66.0</ele><time>2026-04-04T13:13:42.384Z</time></trkpt><trkpt lat="44.5127946" lon="11.1264384"><ele>66.0</ele><time>2026-04-04T13:13:43.376Z</time></trkpt><trkpt lat="44.5127798" lon="11.1266107"><ele>66.0</ele><time>2026-04-04T13:13:45.379Z</time></trkpt><trkpt lat="44.5127551" lon="11.1267726"><ele>66.0</ele><time>2026-04-04T13:13:47.376Z</time></trkpt><trkpt lat="44.5127304" lon="11.1269253"><ele>65.83333333333333</ele><time>2026-04-04T13:13:49.374Z</time></trkpt><trkpt lat="44.512705" lon="11.127068"><ele>65.66666666666667</ele><time>2026-04-04T13:13:51.388Z</time></trkpt><trkpt lat="44.5126778" lon="11.1271921"><ele>65.5</ele><time>2026-04-04T13:13:53.395Z</time></trkpt><trkpt lat="44.5126518" lon="11.1273079"><ele>65.33333333333334</ele><time>2026-04-04T13:13:55.374Z</time></trkpt><trkpt lat="44.5126299" lon="11.1274104"><ele>65.16666666666667</ele><time>2026-04-04T13:13:57.397Z</time></trkpt><trkpt lat="44.5126103" lon="11.1275038"><ele>65.0</ele><time>2026-04-04T13:13:59.379Z</time></trkpt><trkpt lat="44.5125914" lon="11.1276046"><ele>65.0</ele><time>2026-04-04T13:14:01.389Z</time></trkpt><trkpt lat="44.5125697" lon="11.1277151"><ele>65.0</ele><time>2026-04-04T13:14:03.385Z</time></trkpt><trkpt lat="44.5125495" lon="11.1278369"><ele>65.0</ele><time>2026-04-04T13:14:05.385Z</time></trkpt><trkpt lat="44.5125237" lon="11.1279657"><ele>65.0</ele><time>2026-04-04T13:14:07.384Z</time></trkpt><trkpt lat="44.5124977" lon="11.1280998"><ele>65.0</ele><time>2026-04-04T13:14:09.386Z</time></trkpt><trkpt lat="44.5124693" lon="11.1282394"><ele>65.0</ele><time>2026-04-04T13:14:11.383Z</time></trkpt><trkpt lat="44.512441" lon="11.1283821"><ele>65.0</ele><time>2026-04-04T13:14:13.372Z</time></trkpt><trkpt lat="44.5124108" lon="11.1285272"><ele>65.0</ele><time>2026-04-04T13:14:15.383Z</time></trkpt><trkpt lat="44.5123808" lon="11.1286743"><ele>65.0</ele><time>2026-04-04T13:14:17.381Z</time></trkpt><trkpt lat="44.5123489" lon="11.1288217"><ele>65.0</ele><time>2026-04-04T13:14:19.384Z</time></trkpt><trkpt lat="44.5123214" lon="11.1289673"><ele>65.2</ele><time>2026-04-04T13:14:21.385Z</time></trkpt><trkpt lat="44.5122936" lon="11.1291151"><ele>65.4</ele><time>2026-04-04T13:14:23.385Z</time></trkpt><trkpt lat="44.5122675" lon="11.1292645"><ele>65.6</ele><time>2026-04-04T13:14:25.379Z</time></trkpt><trkpt lat="44.5122383" lon="11.1294149"><ele>65.8</ele><time>2026-04-04T13:14:27.386Z</time></trkpt><trkpt lat="44.5122107" lon="11.1295658"><ele>66.0</ele><time>2026-04-04T13:14:29.378Z</time></trkpt><trkpt lat="44.5121815" lon="11.1297189"><ele>66.0</ele><time>2026-04-04T13:14:31.379Z</time></trkpt><trkpt lat="44.51215" lon="11.1298711"><ele>66.0</ele><time>2026-04-04T13:14:33.381Z</time></trkpt><trkpt lat="44.5121194" lon="11.1300236"><ele>66.0</ele><time>2026-04-04T13:14:35.382Z</time></trkpt><trkpt lat="44.5120913" lon="11.1301755"><ele>66.0</ele><time>2026-04-04T13:14:37.385Z</time></trkpt><trkpt lat="44.5120599" lon="11.130324"><ele>66.0</ele><time>2026-04-04T13:14:39.391Z</time></trkpt><trkpt lat="44.5120294" lon="11.1304699"><ele>65.8</ele><time>2026-04-04T13:14:41.392Z</time></trkpt><trkpt lat="44.5119993" lon="11.1306168"><ele>65.6</ele><time>2026-04-04T13:14:43.39Z</time></trkpt><trkpt lat="44.5119702" lon="11.1307625"><ele>65.4</ele><time>2026-04-04T13:14:45.384Z</time></trkpt><trkpt lat="44.5119388" lon="11.1309097"><ele>65.2</ele><time>2026-04-04T13:14:47.387Z</time></trkpt><trkpt lat="44.5119103" lon="11.1310573"><ele>65.0</ele><time>2026-04-04T13:14:49.391Z</time></trkpt><trkpt lat="44.511881" lon="11.1312038"><ele>65.2</ele><time>2026-04-04T13:14:51.387Z</time></trkpt><trkpt lat="44.511851" lon="11.1313492"><ele>65.4</ele><time>2026-04-04T13:14:53.375Z</time></trkpt><trkpt lat="44.5118209" lon="11.131495"><ele>65.6</ele><time>2026-04-04T13:14:55.393Z</time></trkpt><trkpt lat="44.5117914" lon="11.131641"><ele>65.8</ele><time>2026-04-04T13:14:57.385Z</time></trkpt><trkpt lat="44.5117624" lon="11.1317867"><ele>66.0</ele><time>2026-04-04T13:14:59.38Z</time></trkpt><trkpt lat="44.5117312" lon="11.1319326"><ele>66.0</ele><time>2026-04-04T13:15:01.393Z</time></trkpt><trkpt lat="44.5117006" lon="11.1320809"><ele>66.0</ele><time>2026-04-04T13:15:03.397Z</time></trkpt><trkpt lat="44.5116703" lon="11.1322292"><ele>66.0</ele><time>2026-04-04T13:15:05.381Z</time></trkpt><trkpt lat="44.5116399" lon="11.1323782"><ele>66.0</ele><time>2026-04-04T13:15:07.381Z</time></trkpt><trkpt lat="44.5116084" lon="11.1325266"><ele>66.0</ele><time>2026-04-04T13:15:09.382Z</time></trkpt><trkpt lat="44.5115796" lon="11.132674"><ele>65.75</ele><time>2026-04-04T13:15:11.374Z</time></trkpt><trkpt lat="44.5115516" lon="11.1328217"><ele>65.5</ele><time>2026-04-04T13:15:13.381Z</time></trkpt><trkpt lat="44.5115217" lon="11.1329706"><ele>65.25</ele><time>2026-04-04T13:15:15.385Z</time></trkpt><trkpt lat="44.5114899" lon="11.1331257"><ele>65.0</ele><time>2026-04-04T13:15:17.385Z</time></trkpt><trkpt lat="44.5114559" lon="11.1332874"><ele>64.71428571428572</ele><time>2026-04-04T13:15:19.373Z</time></trkpt><trkpt lat="44.5114226" lon="11.1334557"><ele>64.42857142857143</ele><time>2026-04-04T13:15:21.383Z</time></trkpt><trkpt lat="44.5114051" lon="11.1335413"><ele>64.14285714285714</ele><time>2026-04-04T13:15:22.377Z</time></trkpt><trkpt lat="44.5113868" lon="11.1336274"><ele>63.85714285714286</ele><time>2026-04-04T13:15:23.37Z</time></trkpt><trkpt lat="44.511369" lon="11.1337131"><ele>63.57142857142857</ele><time>2026-04-04T13:15:24.382Z</time></trkpt><trkpt lat="44.5113515" lon="11.1337992"><ele>63.285714285714285</ele><time>2026-04-04T13:15:25.393Z</time></trkpt><trkpt lat="44.5113348" lon="11.1338868"><ele>63.0</ele><time>2026-04-04T13:15:26.391Z</time></trkpt><trkpt lat="44.5113167" lon="11.1339741"><ele>63.0</ele><time>2026-04-04T13:15:27.382Z</time></trkpt><trkpt lat="44.5112989" lon="11.1340615"><ele>63.0</ele><time>2026-04-04T13:15:28.379Z</time></trkpt><trkpt lat="44.5112816" lon="11.1341478"><ele>63.0</ele><time>2026-04-04T13:15:29.38Z</time></trkpt><trkpt lat="44.5112638" lon="11.1342369"><ele>63.0</ele><time>2026-04-04T13:15:30.37Z</time></trkpt><trkpt lat="44.5112456" lon="11.1343252"><ele>63.0</ele><time>2026-04-04T13:15:31.374Z</time></trkpt><trkpt lat="44.5112284" lon="11.1344141"><ele>63.0</ele><time>2026-04-04T13:15:32.387Z</time></trkpt><trkpt lat="44.5112099" lon="11.1345035"><ele>63.0</ele><time>2026-04-04T13:15:33.393Z</time></trkpt><trkpt lat="44.5111907" lon="11.1345939"><ele>63.285714285714285</ele><time>2026-04-04T13:15:34.387Z</time></trkpt><trkpt lat="44.5111701" lon="11.1346826"><ele>63.57142857142857</ele><time>2026-04-04T13:15:35.388Z</time></trkpt><trkpt lat="44.5111454" lon="11.13477"><ele>63.85714285714286</ele><time>2026-04-04T13:15:36.374Z</time></trkpt><trkpt lat="44.5111203" lon="11.134858"><ele>64.14285714285714</ele><time>2026-04-04T13:15:37.373Z</time></trkpt><trkpt lat="44.5110946" lon="11.1349466"><ele>64.42857142857143</ele><time>2026-04-04T13:15:38.371Z</time></trkpt><trkpt lat="44.5110683" lon="11.1350339"><ele>64.71428571428572</ele><time>2026-04-04T13:15:39.388Z</time></trkpt><trkpt lat="44.5110423" lon="11.1351217"><ele>65.0</ele><time>2026-04-04T13:15:40.381Z</time></trkpt><trkpt lat="44.5110159" lon="11.1352086"><ele>65.00000000000001</ele><time>2026-04-04T13:15:41.382Z</time></trkpt><trkpt lat="44.5109895" lon="11.1352961"><ele>65.0</ele><time>2026-04-04T13:15:42.377Z</time></trkpt><trkpt lat="44.5109643" lon="11.1353833"><ele>65.0</ele><time>2026-04-04T13:15:43.389Z</time></trkpt><trkpt lat="44.5109397" lon="11.1354711"><ele>65.0</ele><time>2026-04-04T13:15:44.385Z</time></trkpt><trkpt lat="44.5109175" lon="11.1355597"><ele>65.0</ele><time>2026-04-04T13:15:45.374Z</time></trkpt><trkpt lat="44.5108967" lon="11.1356496"><ele>65.00000000000001</ele><time>2026-04-04T13:15:46.401Z</time></trkpt><trkpt lat="44.5108784" lon="11.1357381"><ele>65.0</ele><time>2026-04-04T13:15:47.38Z</time></trkpt><trkpt lat="44.5108615" lon="11.1358275"><ele>65.0</ele><time>2026-04-04T13:15:48.373Z</time></trkpt><trkpt lat="44.5108462" lon="11.1359156"><ele>65.0</ele><time>2026-04-04T13:15:49.388Z</time></trkpt><trkpt lat="44.5108334" lon="11.1360043"><ele>65.0</ele><time>2026-04-04T13:15:50.377Z</time></trkpt><trkpt lat="44.5108269" lon="11.1360938"><ele>65.0</ele><time>2026-04-04T13:15:51.381Z</time></trkpt><trkpt lat="44.5108263" lon="11.1361822"><ele>65.0</ele><time>2026-04-04T13:15:52.374Z</time></trkpt><trkpt lat="44.5108279" lon="11.1362707"><ele>65.0</ele><time>2026-04-04T13:15:53.381Z</time></trkpt><trkpt lat="44.5108291" lon="11.1363596"><ele>65.0</ele><time>2026-04-04T13:15:54.382Z</time></trkpt><trkpt lat="44.5108307" lon="11.1364481"><ele>65.0</ele><time>2026-04-04T13:15:55.386Z</time></trkpt><trkpt lat="44.5108287" lon="11.1365364"><ele>64.83333333333334</ele><time>2026-04-04T13:15:56.379Z</time></trkpt><trkpt lat="44.510815" lon="11.1367109"><ele>64.66666666666667</ele><time>2026-04-04T13:15:58.389Z</time></trkpt><trkpt lat="44.5108058" lon="11.1367991"><ele>64.5</ele><time>2026-04-04T13:15:59.376Z</time></trkpt><trkpt lat="44.5107978" lon="11.1368885"><ele>64.33333333333333</ele><time>2026-04-04T13:16:00.373Z</time></trkpt><trkpt lat="44.5107896" lon="11.1369761"><ele>64.16666666666666</ele><time>2026-04-04T13:16:01.389Z</time></trkpt><trkpt lat="44.5107734" lon="11.1371526"><ele>64.0</ele><time>2026-04-04T13:16:03.38Z</time></trkpt><trkpt lat="44.5107664" lon="11.1372409"><ele>64.0</ele><time>2026-04-04T13:16:04.378Z</time></trkpt><trkpt lat="44.5107615" lon="11.1373292"><ele>63.99999999999999</ele><time>2026-04-04T13:16:05.381Z</time></trkpt><trkpt lat="44.5107572" lon="11.137419"><ele>64.0</ele><time>2026-04-04T13:16:06.38Z</time></trkpt><trkpt lat="44.5107529" lon="11.1375094"><ele>64.0</ele><time>2026-04-04T13:16:07.387Z</time></trkpt><trkpt lat="44.5107481" lon="11.1376004"><ele>63.99999999999999</ele><time>2026-04-04T13:16:08.38Z</time></trkpt><trkpt lat="44.5107427" lon="11.1376918"><ele>64.0</ele><time>2026-04-04T13:16:09.382Z</time></trkpt><trkpt lat="44.510737" lon="11.1377823"><ele>64.0</ele><time>2026-04-04T13:16:10.382Z</time></trkpt><trkpt lat="44.510733" lon="11.1378726"><ele>64.0</ele><time>2026-04-04T13:16:11.382Z</time></trkpt><trkpt lat="44.5107287" lon="11.1379631"><ele>63.99999999999999</ele><time>2026-04-04T13:16:12.377Z</time></trkpt><trkpt lat="44.510724" lon="11.1380528"><ele>64.0</ele><time>2026-04-04T13:16:13.386Z</time></trkpt><trkpt lat="44.5107187" lon="11.1381415"><ele>64.0</ele><time>2026-04-04T13:16:14.388Z</time></trkpt><trkpt lat="44.5107131" lon="11.1382295"><ele>63.99999999999999</ele><time>2026-04-04T13:16:15.381Z</time></trkpt><trkpt lat="44.5107022" lon="11.1384053"><ele>64.0</ele><time>2026-04-04T13:16:17.374Z</time></trkpt><trkpt lat="44.5106966" lon="11.1384933"><ele>64.0</ele><time>2026-04-04T13:16:18.386Z</time></trkpt><trkpt lat="44.5106868" lon="11.1386688"><ele>64.0</ele><time>2026-04-04T13:16:20.389Z</time></trkpt><trkpt lat="44.510677" lon="11.1388436"><ele>64.0</ele><time>2026-04-04T13:16:22.381Z</time></trkpt><trkpt lat="44.5106664" lon="11.1390175"><ele>64.0</ele><time>2026-04-04T13:16:24.377Z</time></trkpt><trkpt lat="44.5106553" lon="11.1391906"><ele>64.0</ele><time>2026-04-04T13:16:26.387Z</time></trkpt><trkpt lat="44.5106453" lon="11.1393654"><ele>64.0</ele><time>2026-04-04T13:16:28.382Z</time></trkpt><trkpt lat="44.5106376" lon="11.1395414"><ele>64.0</ele><time>2026-04-04T13:16:30.384Z</time></trkpt><trkpt lat="44.5106298" lon="11.139716"><ele>64.0</ele><time>2026-04-04T13:16:32.389Z</time></trkpt><trkpt lat="44.5106208" lon="11.1398898"><ele>64.0</ele><time>2026-04-04T13:16:34.383Z</time></trkpt><trkpt lat="44.5106144" lon="11.140064"><ele>64.0</ele><time>2026-04-04T13:16:36.384Z</time></trkpt><trkpt lat="44.5106028" lon="11.1402373"><ele>64.0</ele><time>2026-04-04T13:16:38.391Z</time></trkpt><trkpt lat="44.5105926" lon="11.1404124"><ele>64.0</ele><time>2026-04-04T13:16:40.385Z</time></trkpt><trkpt lat="44.5105828" lon="11.1405874"><ele>64.0</ele><time>2026-04-04T13:16:42.378Z</time></trkpt><trkpt lat="44.5105716" lon="11.140762"><ele>64.0</ele><time>2026-04-04T13:16:44.379Z</time></trkpt><trkpt lat="44.5105603" lon="11.1409372"><ele>64.0</ele><time>2026-04-04T13:16:46.379Z</time></trkpt><trkpt lat="44.5105487" lon="11.1411106"><ele>64.0</ele><time>2026-04-04T13:16:48.37Z</time></trkpt><trkpt lat="44.5105352" lon="11.1412834"><ele>64.0</ele><time>2026-04-04T13:16:50.382Z</time></trkpt><trkpt lat="44.510522" lon="11.1414565"><ele>63.75</ele><time>2026-04-04T13:16:52.389Z</time></trkpt><trkpt lat="44.5105082" lon="11.1416287"><ele>63.5</ele><time>2026-04-04T13:16:54.381Z</time></trkpt><trkpt lat="44.5104945" lon="11.1418004"><ele>63.25</ele><time>2026-04-04T13:16:56.379Z</time></trkpt><trkpt lat="44.5104812" lon="11.1419681"><ele>63.0</ele><time>2026-04-04T13:16:58.381Z</time></trkpt><trkpt lat="44.510468" lon="11.1421322"><ele>63.0</ele><time>2026-04-04T13:17:00.376Z</time></trkpt><trkpt lat="44.5104548" lon="11.142294"><ele>63.0</ele><time>2026-04-04T13:17:02.377Z</time></trkpt><trkpt lat="44.5104402" lon="11.142456"><ele>63.0</ele><time>2026-04-04T13:17:04.375Z</time></trkpt><trkpt lat="44.5104294" lon="11.1426147"><ele>63.0</ele><time>2026-04-04T13:17:06.371Z</time></trkpt><trkpt lat="44.5104172" lon="11.1427679"><ele>63.0</ele><time>2026-04-04T13:17:08.378Z</time></trkpt><trkpt lat="44.5104067" lon="11.1429194"><ele>63.0</ele><time>2026-04-04T13:17:10.396Z</time></trkpt><trkpt lat="44.5103949" lon="11.1430703"><ele>63.0</ele><time>2026-04-04T13:17:12.365Z</time></trkpt><trkpt lat="44.5103836" lon="11.1432219"><ele>63.0</ele><time>2026-04-04T13:17:14.384Z</time></trkpt><trkpt lat="44.5103674" lon="11.1433723"><ele>63.0</ele><time>2026-04-04T13:17:16.375Z</time></trkpt><trkpt lat="44.5103542" lon="11.1435247"><ele>63.0</ele><time>2026-04-04T13:17:18.374Z</time></trkpt><trkpt lat="44.5103449" lon="11.1436794"><ele>63.0</ele><time>2026-04-04T13:17:20.38Z</time></trkpt><trkpt lat="44.5103384" lon="11.1438364"><ele>63.0</ele><time>2026-04-04T13:17:22.374Z</time></trkpt><trkpt lat="44.5103387" lon="11.143989"><ele>63.0</ele><time>2026-04-04T13:17:24.389Z</time></trkpt><trkpt lat="44.5103327" lon="11.1441338"><ele>63.0</ele><time>2026-04-04T13:17:26.367Z</time></trkpt><trkpt lat="44.5103288" lon="11.1442696"><ele>63.0</ele><time>2026-04-04T13:17:28.386Z</time></trkpt><trkpt lat="44.5103307" lon="11.1444035"><ele>63.0</ele><time>2026-04-04T13:17:30.391Z</time></trkpt><trkpt lat="44.510334" lon="11.1445331"><ele>63.0</ele><time>2026-04-04T13:17:32.369Z</time></trkpt><trkpt lat="44.5103401" lon="11.1446533"><ele>63.0</ele><time>2026-04-04T13:17:34.377Z</time></trkpt><trkpt lat="44.5103432" lon="11.144786"><ele>63.0</ele><time>2026-04-04T13:17:36.382Z</time></trkpt><trkpt lat="44.510349" lon="11.1449276"><ele>62.8</ele><time>2026-04-04T13:17:38.379Z</time></trkpt><trkpt lat="44.5103581" lon="11.1450721"><ele>62.599999999999994</ele><time>2026-04-04T13:17:40.376Z</time></trkpt><trkpt lat="44.5103671" lon="11.145221"><ele>62.400000000000006</ele><time>2026-04-04T13:17:42.37Z</time></trkpt><trkpt lat="44.5103755" lon="11.1453699"><ele>62.2</ele><time>2026-04-04T13:17:44.383Z</time></trkpt><trkpt lat="44.5103841" lon="11.1455214"><ele>62.0</ele><time>2026-04-04T13:17:46.382Z</time></trkpt><trkpt lat="44.5103926" lon="11.1456727"><ele>62.0</ele><time>2026-04-04T13:17:48.39Z</time></trkpt><trkpt lat="44.5104007" lon="11.145827"><ele>62.0</ele><time>2026-04-04T13:17:50.378Z</time></trkpt><trkpt lat="44.5104099" lon="11.1459851"><ele>62.0</ele><time>2026-04-04T13:17:52.376Z</time></trkpt><trkpt lat="44.5104174" lon="11.1461434"><ele>62.0</ele><time>2026-04-04T13:17:54.376Z</time></trkpt><trkpt lat="44.5104255" lon="11.1463007"><ele>62.0</ele><time>2026-04-04T13:17:56.384Z</time></trkpt><trkpt lat="44.510435" lon="11.1464592"><ele>62.75</ele><time>2026-04-04T13:17:58.379Z</time></trkpt><trkpt lat="44.5104445" lon="11.1466167"><ele>63.5</ele><time>2026-04-04T13:18:00.379Z</time></trkpt><trkpt lat="44.5104519" lon="11.1467743"><ele>64.25</ele><time>2026-04-04T13:18:02.371Z</time></trkpt><trkpt lat="44.5104612" lon="11.1469332"><ele>65.0</ele><time>2026-04-04T13:18:04.388Z</time></trkpt><trkpt lat="44.5104712" lon="11.1470922"><ele>65.0</ele><time>2026-04-04T13:18:06.364Z</time></trkpt><trkpt lat="44.5104816" lon="11.1472526"><ele>65.0</ele><time>2026-04-04T13:18:08.371Z</time></trkpt><trkpt lat="44.5104913" lon="11.1474155"><ele>65.0</ele><time>2026-04-04T13:18:10.381Z</time></trkpt><trkpt lat="44.5105011" lon="11.1475789"><ele>65.0</ele><time>2026-04-04T13:18:12.381Z</time></trkpt><trkpt lat="44.5105108" lon="11.1477419"><ele>64.5</ele><time>2026-04-04T13:18:14.384Z</time></trkpt><trkpt lat="44.5105204" lon="11.1479054"><ele>64.0</ele><time>2026-04-04T13:18:16.381Z</time></trkpt><trkpt lat="44.5105288" lon="11.1480693"><ele>63.5</ele><time>2026-04-04T13:18:18.384Z</time></trkpt><trkpt lat="44.5105378" lon="11.1482344"><ele>63.0</ele><time>2026-04-04T13:18:20.39Z</time></trkpt><trkpt lat="44.5105474" lon="11.1483986"><ele>63.0</ele><time>2026-04-04T13:18:22.382Z</time></trkpt><trkpt lat="44.5105572" lon="11.1485602"><ele>63.0</ele><time>2026-04-04T13:18:24.382Z</time></trkpt><trkpt lat="44.5105652" lon="11.1487228"><ele>63.0</ele><time>2026-04-04T13:18:26.384Z</time></trkpt><trkpt lat="44.5105654" lon="11.1488844"><ele>63.0</ele><time>2026-04-04T13:18:28.382Z</time></trkpt><trkpt lat="44.5105779" lon="11.1490434"><ele>63.25</ele><time>2026-04-04T13:18:30.396Z</time></trkpt><trkpt lat="44.5105935" lon="11.1491994"><ele>63.5</ele><time>2026-04-04T13:18:32.372Z</time></trkpt><trkpt lat="44.5106133" lon="11.1493548"><ele>63.75</ele><time>2026-04-04T13:18:34.374Z</time></trkpt><trkpt lat="44.5106329" lon="11.149516"><ele>64.0</ele><time>2026-04-04T13:18:36.376Z</time></trkpt><trkpt lat="44.5106553" lon="11.1496812"><ele>64.0</ele><time>2026-04-04T13:18:38.379Z</time></trkpt><trkpt lat="44.5106764" lon="11.1498479"><ele>64.0</ele><time>2026-04-04T13:18:40.381Z</time></trkpt><trkpt lat="44.5106968" lon="11.1500161"><ele>64.0</ele><time>2026-04-04T13:18:42.379Z</time></trkpt><trkpt lat="44.5107186" lon="11.1501831"><ele>64.0</ele><time>2026-04-04T13:18:44.383Z</time></trkpt><trkpt lat="44.5107392" lon="11.1503497"><ele>64.25</ele><time>2026-04-04T13:18:46.388Z</time></trkpt><trkpt lat="44.5107545" lon="11.1505154"><ele>64.5</ele><time>2026-04-04T13:18:48.381Z</time></trkpt><trkpt lat="44.5107675" lon="11.1506787"><ele>64.75</ele><time>2026-04-04T13:18:50.381Z</time></trkpt><trkpt lat="44.5107674" lon="11.1508417"><ele>65.0</ele><time>2026-04-04T13:18:52.379Z</time></trkpt><trkpt lat="44.5107663" lon="11.1510071"><ele>64.5</ele><time>2026-04-04T13:18:54.371Z</time></trkpt><trkpt lat="44.5107592" lon="11.1511734"><ele>64.0</ele><time>2026-04-04T13:18:56.381Z</time></trkpt><trkpt lat="44.5107475" lon="11.1513409"><ele>63.5</ele><time>2026-04-04T13:18:58.376Z</time></trkpt><trkpt lat="44.5107302" lon="11.1515099"><ele>63.0</ele><time>2026-04-04T13:19:00.365Z</time></trkpt><trkpt lat="44.5107071" lon="11.1516796"><ele>62.75</ele><time>2026-04-04T13:19:02.383Z</time></trkpt><trkpt lat="44.5106792" lon="11.1518469"><ele>62.5</ele><time>2026-04-04T13:19:04.358Z</time></trkpt><trkpt lat="44.5106473" lon="11.1520114"><ele>62.25</ele><time>2026-04-04T13:19:06.383Z</time></trkpt><trkpt lat="44.5106096" lon="11.1521723"><ele>62.0</ele><time>2026-04-04T13:19:08.381Z</time></trkpt><trkpt lat="44.5105652" lon="11.1523309"><ele>62.5</ele><time>2026-04-04T13:19:10.384Z</time></trkpt><trkpt lat="44.5105156" lon="11.1524887"><ele>63.0</ele><time>2026-04-04T13:19:12.379Z</time></trkpt><trkpt lat="44.510464" lon="11.1526449"><ele>63.5</ele><time>2026-04-04T13:19:14.381Z</time></trkpt><trkpt lat="44.5104109" lon="11.152798"><ele>64.0</ele><time>2026-04-04T13:19:16.377Z</time></trkpt><trkpt lat="44.5103562" lon="11.1529494"><ele>64.75</ele><time>2026-04-04T13:19:18.38Z</time></trkpt><trkpt lat="44.5103054" lon="11.1531007"><ele>65.5</ele><time>2026-04-04T13:19:20.38Z</time></trkpt><trkpt lat="44.5102615" lon="11.1532546"><ele>66.25</ele><time>2026-04-04T13:19:22.38Z</time></trkpt><trkpt lat="44.5102206" lon="11.1534087"><ele>67.0</ele><time>2026-04-04T13:19:24.387Z</time></trkpt><trkpt lat="44.5101854" lon="11.1535614"><ele>67.0</ele><time>2026-04-04T13:19:26.377Z</time></trkpt><trkpt lat="44.5101581" lon="11.1537215"><ele>67.0</ele><time>2026-04-04T13:19:28.383Z</time></trkpt><trkpt lat="44.5101336" lon="11.153886"><ele>67.0</ele><time>2026-04-04T13:19:30.377Z</time></trkpt><trkpt lat="44.5101128" lon="11.1540566"><ele>67.0</ele><time>2026-04-04T13:19:32.393Z</time></trkpt><trkpt lat="44.510099" lon="11.1542268"><ele>66.5</ele><time>2026-04-04T13:19:34.374Z</time></trkpt><trkpt lat="44.510094" lon="11.1543968"><ele>66.0</ele><time>2026-04-04T13:19:36.383Z</time></trkpt><trkpt lat="44.5100919" lon="11.1545692"><ele>65.5</ele><time>2026-04-04T13:19:38.388Z</time></trkpt><trkpt lat="44.5100925" lon="11.1547415"><ele>65.0</ele><time>2026-04-04T13:19:40.375Z</time></trkpt><trkpt lat="44.5100965" lon="11.1549109"><ele>64.5</ele><time>2026-04-04T13:19:42.369Z</time></trkpt><trkpt lat="44.5101044" lon="11.1550797"><ele>64.0</ele><time>2026-04-04T13:19:44.388Z</time></trkpt><trkpt lat="44.510115" lon="11.1552455"><ele>63.5</ele><time>2026-04-04T13:19:46.364Z</time></trkpt><trkpt lat="44.510126" lon="11.1554112"><ele>63.0</ele><time>2026-04-04T13:19:48.362Z</time></trkpt><trkpt lat="44.5101371" lon="11.1555783"><ele>63.0</ele><time>2026-04-04T13:19:50.385Z</time></trkpt><trkpt lat="44.5101491" lon="11.1557481"><ele>63.0</ele><time>2026-04-04T13:19:52.373Z</time></trkpt><trkpt lat="44.5101621" lon="11.1559189"><ele>63.0</ele><time>2026-04-04T13:19:54.387Z</time></trkpt><trkpt lat="44.5101762" lon="11.1560908"><ele>63.0</ele><time>2026-04-04T13:19:56.386Z</time></trkpt><trkpt lat="44.5101908" lon="11.1562631"><ele>63.0</ele><time>2026-04-04T13:19:58.399Z</time></trkpt><trkpt lat="44.5102047" lon="11.1564368"><ele>63.0</ele><time>2026-04-04T13:20:00.378Z</time></trkpt><trkpt lat="44.5102187" lon="11.1566115"><ele>63.0</ele><time>2026-04-04T13:20:02.384Z</time></trkpt><trkpt lat="44.5102346" lon="11.1567866"><ele>63.0</ele><time>2026-04-04T13:20:04.385Z</time></trkpt><trkpt lat="44.5102431" lon="11.1568747"><ele>63.0</ele><time>2026-04-04T13:20:05.377Z</time></trkpt><trkpt lat="44.5102528" lon="11.1569634"><ele>63.14285714285714</ele><time>2026-04-04T13:20:06.388Z</time></trkpt><trkpt lat="44.5102626" lon="11.1570528"><ele>63.285714285714285</ele><time>2026-04-04T13:20:07.387Z</time></trkpt><trkpt lat="44.5102727" lon="11.1571424"><ele>63.42857142857143</ele><time>2026-04-04T13:20:08.39Z</time></trkpt><trkpt lat="44.510283" lon="11.1572321"><ele>63.57142857142857</ele><time>2026-04-04T13:20:09.384Z</time></trkpt><trkpt lat="44.5102929" lon="11.157323"><ele>63.71428571428571</ele><time>2026-04-04T13:20:10.373Z</time></trkpt><trkpt lat="44.510303" lon="11.1574135"><ele>63.857142857142854</ele><time>2026-04-04T13:20:11.38Z</time></trkpt><trkpt lat="44.510314" lon="11.1575043"><ele>64.0</ele><time>2026-04-04T13:20:12.371Z</time></trkpt><trkpt lat="44.5103246" lon="11.1575939"><ele>64.0</ele><time>2026-04-04T13:20:13.39Z</time></trkpt><trkpt lat="44.5103335" lon="11.1576851"><ele>63.99999999999999</ele><time>2026-04-04T13:20:14.372Z</time></trkpt><trkpt lat="44.5103424" lon="11.1577767"><ele>64.0</ele><time>2026-04-04T13:20:15.381Z</time></trkpt><trkpt lat="44.5103519" lon="11.1578691"><ele>64.0</ele><time>2026-04-04T13:20:16.383Z</time></trkpt><trkpt lat="44.510361" lon="11.1579612"><ele>63.99999999999999</ele><time>2026-04-04T13:20:17.389Z</time></trkpt><trkpt lat="44.5103713" lon="11.1580521"><ele>64.0</ele><time>2026-04-04T13:20:18.375Z</time></trkpt><trkpt lat="44.5103827" lon="11.1581435"><ele>64.0</ele><time>2026-04-04T13:20:19.393Z</time></trkpt><trkpt lat="44.5103919" lon="11.1582352"><ele>64.0</ele><time>2026-04-04T13:20:20.383Z</time></trkpt><trkpt lat="44.5103985" lon="11.1583279"><ele>63.99999999999999</ele><time>2026-04-04T13:20:21.387Z</time></trkpt><trkpt lat="44.5104023" lon="11.1584217"><ele>64.0</ele><time>2026-04-04T13:20:22.381Z</time></trkpt><trkpt lat="44.5104057" lon="11.1585156"><ele>64.0</ele><time>2026-04-04T13:20:23.379Z</time></trkpt><trkpt lat="44.5104087" lon="11.1586081"><ele>63.99999999999999</ele><time>2026-04-04T13:20:24.392Z</time></trkpt><trkpt lat="44.5104099" lon="11.1587026"><ele>64.0</ele><time>2026-04-04T13:20:25.381Z</time></trkpt><trkpt lat="44.5104083" lon="11.1587966"><ele>64.0</ele><time>2026-04-04T13:20:26.374Z</time></trkpt><trkpt lat="44.5104063" lon="11.1588918"><ele>64.0</ele><time>2026-04-04T13:20:27.378Z</time></trkpt><trkpt lat="44.5104037" lon="11.1589859"><ele>63.99999999999999</ele><time>2026-04-04T13:20:28.369Z</time></trkpt><trkpt lat="44.5104002" lon="11.1590799"><ele>64.0</ele><time>2026-04-04T13:20:29.377Z</time></trkpt><trkpt lat="44.5103965" lon="11.1591739"><ele>64.0</ele><time>2026-04-04T13:20:30.379Z</time></trkpt><trkpt lat="44.5103936" lon="11.1592683"><ele>63.99999999999999</ele><time>2026-04-04T13:20:31.382Z</time></trkpt><trkpt lat="44.5103899" lon="11.1593627"><ele>64.0</ele><time>2026-04-04T13:20:32.383Z</time></trkpt><trkpt lat="44.5103846" lon="11.1594589"><ele>64.0</ele><time>2026-04-04T13:20:33.377Z</time></trkpt><trkpt lat="44.5103809" lon="11.1595556"><ele>64.0</ele><time>2026-04-04T13:20:34.371Z</time></trkpt><trkpt lat="44.5103784" lon="11.1596519"><ele>63.99999999999999</ele><time>2026-04-04T13:20:35.37Z</time></trkpt><trkpt lat="44.5103749" lon="11.1597476"><ele>64.0</ele><time>2026-04-04T13:20:36.384Z</time></trkpt><trkpt lat="44.5103714" lon="11.1598438"><ele>64.0</ele><time>2026-04-04T13:20:37.381Z</time></trkpt><trkpt lat="44.5103687" lon="11.1599399"><ele>63.99999999999999</ele><time>2026-04-04T13:20:38.38Z</time></trkpt><trkpt lat="44.5103643" lon="11.1600371"><ele>64.0</ele><time>2026-04-04T13:20:39.379Z</time></trkpt><trkpt lat="44.5103605" lon="11.1601341"><ele>64.0</ele><time>2026-04-04T13:20:40.385Z</time></trkpt><trkpt lat="44.5103573" lon="11.160231"><ele>63.71428571428571</ele><time>2026-04-04T13:20:41.379Z</time></trkpt><trkpt lat="44.510354" lon="11.160329"><ele>63.42857142857142</ele><time>2026-04-04T13:20:42.373Z</time></trkpt><trkpt lat="44.510352" lon="11.1604268"><ele>63.14285714285714</ele><time>2026-04-04T13:20:43.375Z</time></trkpt><trkpt lat="44.5103491" lon="11.1605231"><ele>62.85714285714286</ele><time>2026-04-04T13:20:44.386Z</time></trkpt><trkpt lat="44.510347" lon="11.1606181"><ele>62.57142857142858</ele><time>2026-04-04T13:20:45.382Z</time></trkpt><trkpt lat="44.5103443" lon="11.160713"><ele>62.28571428571429</ele><time>2026-04-04T13:20:46.374Z</time></trkpt><trkpt lat="44.5103403" lon="11.1608069"><ele>62.0</ele><time>2026-04-04T13:20:47.384Z</time></trkpt><trkpt lat="44.5103363" lon="11.1609012"><ele>61.85714285714286</ele><time>2026-04-04T13:20:48.376Z</time></trkpt><trkpt lat="44.5103317" lon="11.1609967"><ele>61.71428571428572</ele><time>2026-04-04T13:20:49.384Z</time></trkpt><trkpt lat="44.510326" lon="11.1610916"><ele>61.57142857142857</ele><time>2026-04-04T13:20:50.381Z</time></trkpt><trkpt lat="44.5103198" lon="11.1611877"><ele>61.42857142857143</ele><time>2026-04-04T13:20:51.377Z</time></trkpt><trkpt lat="44.5103142" lon="11.1612831"><ele>61.285714285714285</ele><time>2026-04-04T13:20:52.376Z</time></trkpt><trkpt lat="44.5103074" lon="11.1613768"><ele>61.14285714285714</ele><time>2026-04-04T13:20:53.383Z</time></trkpt><trkpt lat="44.5102996" lon="11.16147"><ele>60.99999999999999</ele><time>2026-04-04T13:20:54.377Z</time></trkpt><trkpt lat="44.5102917" lon="11.1615625"><ele>61.0</ele><time>2026-04-04T13:20:55.384Z</time></trkpt><trkpt lat="44.5102825" lon="11.1616533"><ele>61.0</ele><time>2026-04-04T13:20:56.382Z</time></trkpt><trkpt lat="44.510272" lon="11.1617431"><ele>61.0</ele><time>2026-04-04T13:20:57.376Z</time></trkpt><trkpt lat="44.5102602" lon="11.1618313"><ele>61.0</ele><time>2026-04-04T13:20:58.383Z</time></trkpt><trkpt lat="44.5102462" lon="11.1619187"><ele>61.0</ele><time>2026-04-04T13:20:59.379Z</time></trkpt><trkpt lat="44.510231" lon="11.1620045"><ele>61.0</ele><time>2026-04-04T13:21:00.376Z</time></trkpt><trkpt lat="44.510214" lon="11.1620908"><ele>61.0</ele><time>2026-04-04T13:21:01.381Z</time></trkpt><trkpt lat="44.5101951" lon="11.162176"><ele>61.0</ele><time>2026-04-04T13:21:02.375Z</time></trkpt><trkpt lat="44.510174" lon="11.1622614"><ele>60.99999999999999</ele><time>2026-04-04T13:21:03.378Z</time></trkpt><trkpt lat="44.510153" lon="11.1623456"><ele>61.0</ele><time>2026-04-04T13:21:04.376Z</time></trkpt><trkpt lat="44.5101306" lon="11.16243"><ele>60.99999999999999</ele><time>2026-04-04T13:21:05.39Z</time></trkpt><trkpt lat="44.510106" lon="11.162514"><ele>60.99999999999999</ele><time>2026-04-04T13:21:06.383Z</time></trkpt><trkpt lat="44.5100801" lon="11.1625988"><ele>61.0</ele><time>2026-04-04T13:21:07.378Z</time></trkpt><trkpt lat="44.5100527" lon="11.162683"><ele>60.99999999999999</ele><time>2026-04-04T13:21:08.383Z</time></trkpt><trkpt lat="44.5100251" lon="11.1627675"><ele>60.99999999999999</ele><time>2026-04-04T13:21:09.379Z</time></trkpt><trkpt lat="44.5099966" lon="11.162852"><ele>60.99999999999999</ele><time>2026-04-04T13:21:10.377Z</time></trkpt><trkpt lat="44.5099674" lon="11.1629355"><ele>61.0</ele><time>2026-04-04T13:21:11.384Z</time></trkpt><trkpt lat="44.5099387" lon="11.1630201"><ele>60.99999999999999</ele><time>2026-04-04T13:21:12.395Z</time></trkpt><trkpt lat="44.5099111" lon="11.1631051"><ele>60.99999999999999</ele><time>2026-04-04T13:21:13.375Z</time></trkpt><trkpt lat="44.509883" lon="11.1631896"><ele>61.0</ele><time>2026-04-04T13:21:14.38Z</time></trkpt><trkpt lat="44.5098544" lon="11.1632745"><ele>60.99999999999999</ele><time>2026-04-04T13:21:15.373Z</time></trkpt><trkpt lat="44.5098264" lon="11.1633596"><ele>60.99999999999999</ele><time>2026-04-04T13:21:16.391Z</time></trkpt><trkpt lat="44.5098001" lon="11.1634464"><ele>60.99999999999999</ele><time>2026-04-04T13:21:17.389Z</time></trkpt><trkpt lat="44.5097738" lon="11.1635331"><ele>61.0</ele><time>2026-04-04T13:21:18.385Z</time></trkpt><trkpt lat="44.5097478" lon="11.1636207"><ele>60.99999999999999</ele><time>2026-04-04T13:21:19.389Z</time></trkpt><trkpt lat="44.5097232" lon="11.1637094"><ele>60.99999999999999</ele><time>2026-04-04T13:21:20.387Z</time></trkpt><trkpt lat="44.5097014" lon="11.1637988"><ele>61.0</ele><time>2026-04-04T13:21:21.383Z</time></trkpt><trkpt lat="44.5096795" lon="11.1638889"><ele>60.99999999999999</ele><time>2026-04-04T13:21:22.381Z</time></trkpt><trkpt lat="44.5096585" lon="11.1639795"><ele>60.99999999999999</ele><time>2026-04-04T13:21:23.377Z</time></trkpt><trkpt lat="44.5096377" lon="11.164069"><ele>60.85714285714285</ele><time>2026-04-04T13:21:24.366Z</time></trkpt><trkpt lat="44.509617" lon="11.1641624"><ele>60.71428571428571</ele><time>2026-04-04T13:21:25.375Z</time></trkpt><trkpt lat="44.5095989" lon="11.1642557"><ele>60.57142857142857</ele><time>2026-04-04T13:21:26.373Z</time></trkpt><trkpt lat="44.5095812" lon="11.1643509"><ele>60.42857142857142</ele><time>2026-04-04T13:21:27.378Z</time></trkpt><trkpt lat="44.5095642" lon="11.1644453"><ele>60.28571428571428</ele><time>2026-04-04T13:21:28.383Z</time></trkpt><trkpt lat="44.5095477" lon="11.1645401"><ele>60.142857142857146</ele><time>2026-04-04T13:21:29.389Z</time></trkpt><trkpt lat="44.5095317" lon="11.1646354"><ele>60.0</ele><time>2026-04-04T13:21:30.381Z</time></trkpt><trkpt lat="44.5095158" lon="11.16473"><ele>60.28571428571429</ele><time>2026-04-04T13:21:31.379Z</time></trkpt><trkpt lat="44.5095007" lon="11.1648256"><ele>60.57142857142857</ele><time>2026-04-04T13:21:32.373Z</time></trkpt><trkpt lat="44.5094873" lon="11.1649218"><ele>60.85714285714286</ele><time>2026-04-04T13:21:33.365Z</time></trkpt><trkpt lat="44.5094719" lon="11.1650163"><ele>61.142857142857146</ele><time>2026-04-04T13:21:34.375Z</time></trkpt><trkpt lat="44.5094562" lon="11.1651097"><ele>61.42857142857143</ele><time>2026-04-04T13:21:35.374Z</time></trkpt><trkpt lat="44.5094421" lon="11.1652043"><ele>61.714285714285715</ele><time>2026-04-04T13:21:36.386Z</time></trkpt><trkpt lat="44.5094269" lon="11.1652982"><ele>62.0</ele><time>2026-04-04T13:21:37.391Z</time></trkpt><trkpt lat="44.5094108" lon="11.1653905"><ele>62.0</ele><time>2026-04-04T13:21:38.394Z</time></trkpt><trkpt lat="44.5093942" lon="11.1654824"><ele>62.00000000000001</ele><time>2026-04-04T13:21:39.39Z</time></trkpt><trkpt lat="44.5093777" lon="11.1655745"><ele>62.0</ele><time>2026-04-04T13:21:40.385Z</time></trkpt><trkpt lat="44.5093608" lon="11.1656662"><ele>62.0</ele><time>2026-04-04T13:21:41.39Z</time></trkpt><trkpt lat="44.5093432" lon="11.1657578"><ele>62.00000000000001</ele><time>2026-04-04T13:21:42.384Z</time></trkpt><trkpt lat="44.509325" lon="11.1658507"><ele>62.0</ele><time>2026-04-04T13:21:43.377Z</time></trkpt><trkpt lat="44.509307" lon="11.1659425"><ele>62.0</ele><time>2026-04-04T13:21:44.375Z</time></trkpt><trkpt lat="44.5092891" lon="11.1660338"><ele>61.85714285714286</ele><time>2026-04-04T13:21:45.374Z</time></trkpt><trkpt lat="44.5092703" lon="11.1661258"><ele>61.71428571428572</ele><time>2026-04-04T13:21:46.38Z</time></trkpt><trkpt lat="44.5092499" lon="11.1662176"><ele>61.57142857142857</ele><time>2026-04-04T13:21:47.385Z</time></trkpt><trkpt lat="44.5092289" lon="11.1663108"><ele>61.42857142857143</ele><time>2026-04-04T13:21:48.386Z</time></trkpt><trkpt lat="44.5092123" lon="11.1664049"><ele>61.285714285714285</ele><time>2026-04-04T13:21:49.378Z</time></trkpt><trkpt lat="44.5091968" lon="11.1664972"><ele>61.14285714285714</ele><time>2026-04-04T13:21:50.384Z</time></trkpt><trkpt lat="44.5091824" lon="11.1665905"><ele>60.99999999999999</ele><time>2026-04-04T13:21:51.388Z</time></trkpt><trkpt lat="44.5091671" lon="11.1666838"><ele>60.83333333333333</ele><time>2026-04-04T13:21:52.384Z</time></trkpt><trkpt lat="44.5091523" lon="11.1667755"><ele>60.666666666666664</ele><time>2026-04-04T13:21:53.388Z</time></trkpt><trkpt lat="44.5091381" lon="11.1668664"><ele>60.5</ele><time>2026-04-04T13:21:54.371Z</time></trkpt><trkpt lat="44.5091234" lon="11.1669558"><ele>60.33333333333333</ele><time>2026-04-04T13:21:55.375Z</time></trkpt><trkpt lat="44.5090932" lon="11.1671247"><ele>60.166666666666664</ele><time>2026-04-04T13:21:57.379Z</time></trkpt><trkpt lat="44.5090584" lon="11.1672873"><ele>60.0</ele><time>2026-04-04T13:21:59.371Z</time></trkpt><trkpt lat="44.5090279" lon="11.1674473"><ele>59.25</ele><time>2026-04-04T13:22:01.38Z</time></trkpt><trkpt lat="44.5089982" lon="11.1676101"><ele>58.5</ele><time>2026-04-04T13:22:03.378Z</time></trkpt><trkpt lat="44.5089668" lon="11.1677724"><ele>57.75</ele><time>2026-04-04T13:22:05.377Z</time></trkpt><trkpt lat="44.508933" lon="11.1679319"><ele>57.0</ele><time>2026-04-04T13:22:07.386Z</time></trkpt><trkpt lat="44.5089027" lon="11.1680912"><ele>57.25</ele><time>2026-04-04T13:22:09.38Z</time></trkpt><trkpt lat="44.50887" lon="11.1682507"><ele>57.5</ele><time>2026-04-04T13:22:11.376Z</time></trkpt><trkpt lat="44.5088369" lon="11.1684116"><ele>57.75</ele><time>2026-04-04T13:22:13.376Z</time></trkpt><trkpt lat="44.5088047" lon="11.1685725"><ele>58.0</ele><time>2026-04-04T13:22:15.396Z</time></trkpt><trkpt lat="44.508772" lon="11.1687359"><ele>58.2</ele><time>2026-04-04T13:22:17.375Z</time></trkpt><trkpt lat="44.5087384" lon="11.1689018"><ele>58.4</ele><time>2026-04-04T13:22:19.378Z</time></trkpt><trkpt lat="44.5087054" lon="11.169071"><ele>58.60000000000001</ele><time>2026-04-04T13:22:21.384Z</time></trkpt><trkpt lat="44.5086875" lon="11.1691559"><ele>58.800000000000004</ele><time>2026-04-04T13:22:22.384Z</time></trkpt><trkpt lat="44.5086684" lon="11.1692411"><ele>59.0</ele><time>2026-04-04T13:22:23.384Z</time></trkpt><trkpt lat="44.5086302" lon="11.1694082"><ele>59.0</ele><time>2026-04-04T13:22:25.384Z</time></trkpt><trkpt lat="44.5085864" lon="11.169573"><ele>59.0</ele><time>2026-04-04T13:22:27.382Z</time></trkpt><trkpt lat="44.5085621" lon="11.1696567"><ele>59.0</ele><time>2026-04-04T13:22:28.368Z</time></trkpt><trkpt lat="44.5085358" lon="11.1697396"><ele>59.0</ele><time>2026-04-04T13:22:29.378Z</time></trkpt><trkpt lat="44.5085088" lon="11.1698215"><ele>59.0</ele><time>2026-04-04T13:22:30.371Z</time></trkpt><trkpt lat="44.5084798" lon="11.1699028"><ele>59.0</ele><time>2026-04-04T13:22:31.387Z</time></trkpt><trkpt lat="44.5084479" lon="11.1699826"><ele>59.0</ele><time>2026-04-04T13:22:32.38Z</time></trkpt><trkpt lat="44.5084148" lon="11.1700611"><ele>59.0</ele><time>2026-04-04T13:22:33.38Z</time></trkpt><trkpt lat="44.5083815" lon="11.1701397"><ele>59.0</ele><time>2026-04-04T13:22:34.385Z</time></trkpt><trkpt lat="44.5083458" lon="11.1702179"><ele>59.0</ele><time>2026-04-04T13:22:35.379Z</time></trkpt><trkpt lat="44.5083089" lon="11.1702937"><ele>59.0</ele><time>2026-04-04T13:22:36.388Z</time></trkpt><trkpt lat="44.5082706" lon="11.170369"><ele>59.0</ele><time>2026-04-04T13:22:37.371Z</time></trkpt><trkpt lat="44.5082331" lon="11.1704454"><ele>59.0</ele><time>2026-04-04T13:22:38.381Z</time></trkpt><trkpt lat="44.5081949" lon="11.1705195"><ele>59.0</ele><time>2026-04-04T13:22:39.388Z</time></trkpt><trkpt lat="44.5081551" lon="11.1705927"><ele>59.0</ele><time>2026-04-04T13:22:40.376Z</time></trkpt><trkpt lat="44.5081152" lon="11.1706655"><ele>59.0</ele><time>2026-04-04T13:22:41.38Z</time></trkpt><trkpt lat="44.5080742" lon="11.1707389"><ele>59.0</ele><time>2026-04-04T13:22:42.374Z</time></trkpt><trkpt lat="44.5080322" lon="11.1708112"><ele>59.0</ele><time>2026-04-04T13:22:43.388Z</time></trkpt><trkpt lat="44.5079913" lon="11.1708848"><ele>59.0</ele><time>2026-04-04T13:22:44.378Z</time></trkpt><trkpt lat="44.5079504" lon="11.1709596"><ele>59.0</ele><time>2026-04-04T13:22:45.384Z</time></trkpt><trkpt lat="44.5079085" lon="11.1710335"><ele>59.0</ele><time>2026-04-04T13:22:46.388Z</time></trkpt><trkpt lat="44.5078663" lon="11.1711083"><ele>59.285714285714285</ele><time>2026-04-04T13:22:47.382Z</time></trkpt><trkpt lat="44.5078234" lon="11.171184"><ele>59.57142857142857</ele><time>2026-04-04T13:22:48.377Z</time></trkpt><trkpt lat="44.5077804" lon="11.1712598"><ele>59.857142857142854</ele><time>2026-04-04T13:22:49.381Z</time></trkpt><trkpt lat="44.5077369" lon="11.1713355"><ele>60.14285714285714</ele><time>2026-04-04T13:22:50.38Z</time></trkpt><trkpt lat="44.507694" lon="11.1714126"><ele>60.42857142857143</ele><time>2026-04-04T13:22:51.388Z</time></trkpt><trkpt lat="44.5076505" lon="11.1714891"><ele>60.71428571428571</ele><time>2026-04-04T13:22:52.381Z</time></trkpt><trkpt lat="44.5076074" lon="11.1715663"><ele>60.99999999999999</ele><time>2026-04-04T13:22:53.384Z</time></trkpt><trkpt lat="44.5075638" lon="11.1716442"><ele>60.428571428571416</ele><time>2026-04-04T13:22:54.382Z</time></trkpt><trkpt lat="44.50752" lon="11.171722"><ele>59.857142857142854</ele><time>2026-04-04T13:22:55.382Z</time></trkpt><trkpt lat="44.5074763" lon="11.1717995"><ele>59.28571428571428</ele><time>2026-04-04T13:22:56.381Z</time></trkpt><trkpt lat="44.5074338" lon="11.1718777"><ele>58.71428571428571</ele><time>2026-04-04T13:22:57.382Z</time></trkpt><trkpt lat="44.5073898" lon="11.1719574"><ele>58.14285714285714</ele><time>2026-04-04T13:22:58.378Z</time></trkpt><trkpt lat="44.5073463" lon="11.1720351"><ele>57.57142857142857</ele><time>2026-04-04T13:22:59.373Z</time></trkpt><trkpt lat="44.5073024" lon="11.1721137"><ele>57.0</ele><time>2026-04-04T13:23:00.375Z</time></trkpt><trkpt lat="44.5072586" lon="11.172193"><ele>57.0</ele><time>2026-04-04T13:23:01.381Z</time></trkpt><trkpt lat="44.5072139" lon="11.1722696"><ele>56.99999999999999</ele><time>2026-04-04T13:23:02.376Z</time></trkpt><trkpt lat="44.5071716" lon="11.1723469"><ele>57.0</ele><time>2026-04-04T13:23:03.389Z</time></trkpt><trkpt lat="44.5071284" lon="11.1724239"><ele>57.0</ele><time>2026-04-04T13:23:04.381Z</time></trkpt><trkpt lat="44.5070853" lon="11.1724977"><ele>56.99999999999999</ele><time>2026-04-04T13:23:05.382Z</time></trkpt><trkpt lat="44.507043" lon="11.1725703"><ele>57.0</ele><time>2026-04-04T13:23:06.39Z</time></trkpt><trkpt lat="44.5070023" lon="11.172642"><ele>57.0</ele><time>2026-04-04T13:23:07.381Z</time></trkpt><trkpt lat="44.5069637" lon="11.172713"><ele>57.0</ele><time>2026-04-04T13:23:08.375Z</time></trkpt><trkpt lat="44.5068893" lon="11.1728499"><ele>57.0</ele><time>2026-04-04T13:23:10.394Z</time></trkpt><trkpt lat="44.5068147" lon="11.1729826"><ele>57.0</ele><time>2026-04-04T13:23:12.382Z</time></trkpt><trkpt lat="44.5067742" lon="11.1730587"><ele>57.0</ele><time>2026-04-04T13:23:13.377Z</time></trkpt><trkpt lat="44.5066972" lon="11.1731957"><ele>57.0</ele><time>2026-04-04T13:23:15.389Z</time></trkpt><trkpt lat="44.5066598" lon="11.1732746"><ele>57.0</ele><time>2026-04-04T13:23:16.372Z</time></trkpt><trkpt lat="44.5066248" lon="11.1733511"><ele>56.99999999999999</ele><time>2026-04-04T13:23:17.384Z</time></trkpt><trkpt lat="44.5065913" lon="11.1734292"><ele>57.0</ele><time>2026-04-04T13:23:18.383Z</time></trkpt><trkpt lat="44.5065592" lon="11.1735061"><ele>57.0</ele><time>2026-04-04T13:23:19.381Z</time></trkpt><trkpt lat="44.5065095" lon="11.1736688"><ele>56.99999999999999</ele><time>2026-04-04T13:23:21.373Z</time></trkpt><trkpt lat="44.5064871" lon="11.1737527"><ele>57.0</ele><time>2026-04-04T13:23:22.383Z</time></trkpt><trkpt lat="44.5064684" lon="11.1738396"><ele>57.0</ele><time>2026-04-04T13:23:23.386Z</time></trkpt><trkpt lat="44.5064504" lon="11.1739271"><ele>57.0</ele><time>2026-04-04T13:23:24.389Z</time></trkpt><trkpt lat="44.5064349" lon="11.1740173"><ele>56.99999999999999</ele><time>2026-04-04T13:23:25.388Z</time></trkpt><trkpt lat="44.5064228" lon="11.1741072"><ele>57.0</ele><time>2026-04-04T13:23:26.386Z</time></trkpt><trkpt lat="44.5064123" lon="11.1741977"><ele>57.0</ele><time>2026-04-04T13:23:27.383Z</time></trkpt><trkpt lat="44.5064009" lon="11.1742886"><ele>56.99999999999999</ele><time>2026-04-04T13:23:28.378Z</time></trkpt><trkpt lat="44.5063887" lon="11.1743807"><ele>57.0</ele><time>2026-04-04T13:23:29.374Z</time></trkpt><trkpt lat="44.5063772" lon="11.1744728"><ele>57.0</ele><time>2026-04-04T13:23:30.376Z</time></trkpt><trkpt lat="44.5063677" lon="11.1745646"><ele>56.71428571428571</ele><time>2026-04-04T13:23:31.387Z</time></trkpt><trkpt lat="44.5063558" lon="11.1746574"><ele>56.42857142857142</ele><time>2026-04-04T13:23:32.385Z</time></trkpt><trkpt lat="44.5063442" lon="11.1747506"><ele>56.14285714285714</ele><time>2026-04-04T13:23:33.381Z</time></trkpt><trkpt lat="44.5063324" lon="11.1748438"><ele>55.857142857142854</ele><time>2026-04-04T13:23:34.38Z</time></trkpt><trkpt lat="44.5063201" lon="11.1749351"><ele>55.57142857142857</ele><time>2026-04-04T13:23:35.373Z</time></trkpt><trkpt lat="44.5063092" lon="11.1750268"><ele>55.28571428571428</ele><time>2026-04-04T13:23:36.379Z</time></trkpt><trkpt lat="44.5062984" lon="11.1751172"><ele>55.0</ele><time>2026-04-04T13:23:37.383Z</time></trkpt><trkpt lat="44.5062877" lon="11.1752076"><ele>54.857142857142854</ele><time>2026-04-04T13:23:38.37Z</time></trkpt><trkpt lat="44.5062766" lon="11.1752975"><ele>54.714285714285715</ele><time>2026-04-04T13:23:39.393Z</time></trkpt><trkpt lat="44.5062664" lon="11.1753872"><ele>54.57142857142857</ele><time>2026-04-04T13:23:40.39Z</time></trkpt><trkpt lat="44.5062569" lon="11.1754754"><ele>54.42857142857143</ele><time>2026-04-04T13:23:41.38Z</time></trkpt><trkpt lat="44.5062474" lon="11.1755636"><ele>54.285714285714285</ele><time>2026-04-04T13:23:42.383Z</time></trkpt><trkpt lat="44.5062363" lon="11.175652"><ele>54.14285714285714</ele><time>2026-04-04T13:23:43.378Z</time></trkpt><trkpt lat="44.5062163" lon="11.1758223"><ele>54.0</ele><time>2026-04-04T13:23:45.38Z</time></trkpt><trkpt lat="44.5061994" lon="11.175983"><ele>54.0</ele><time>2026-04-04T13:23:47.382Z</time></trkpt><trkpt lat="44.5061823" lon="11.176136"><ele>54.00000000000001</ele><time>2026-04-04T13:23:49.37Z</time></trkpt><trkpt lat="44.5061628" lon="11.1762846"><ele>54.00000000000001</ele><time>2026-04-04T13:23:51.369Z</time></trkpt><trkpt lat="44.5061437" lon="11.176431"><ele>54.0</ele><time>2026-04-04T13:23:53.394Z</time></trkpt><trkpt lat="44.5061234" lon="11.1765714"><ele>54.0</ele><time>2026-04-04T13:23:55.392Z</time></trkpt><trkpt lat="44.5061044" lon="11.1767091"><ele>54.0</ele><time>2026-04-04T13:23:57.386Z</time></trkpt><trkpt lat="44.5060856" lon="11.1768373"><ele>54.0</ele><time>2026-04-04T13:23:59.369Z</time></trkpt><trkpt lat="44.5060681" lon="11.1769294"><ele>54.0</ele><time>2026-04-04T13:24:01.372Z</time></trkpt><trkpt lat="44.506023" lon="11.1770174"><ele>54.0</ele><time>2026-04-04T13:24:12.379Z</time></trkpt><trkpt lat="44.5059647" lon="11.1769663"><ele>54.0</ele><time>2026-04-04T13:25:04.386Z</time></trkpt><trkpt lat="44.5058791" lon="11.1768801"><ele>54.0</ele><time>2026-04-04T13:25:23.379Z</time></trkpt><trkpt lat="44.5059294" lon="11.1769333"><ele>54.0</ele><time>2026-04-04T13:31:52.375Z</time></trkpt><trkpt lat="44.5059831" lon="11.1769804"><ele>54.0</ele><time>2026-04-04T13:32:32.388Z</time></trkpt><trkpt lat="44.5060222" lon="11.1770506"><ele>54.0</ele><time>2026-04-04T13:33:03.371Z</time></trkpt><trkpt lat="44.5060179" lon="11.1771435"><ele>54.0</ele><time>2026-04-04T13:33:06.38Z</time></trkpt><trkpt lat="44.5060035" lon="11.1772331"><ele>54.0</ele><time>2026-04-04T13:33:08.381Z</time></trkpt><trkpt lat="44.5059857" lon="11.1773632"><ele>54.0</ele><time>2026-04-04T13:33:10.38Z</time></trkpt><trkpt lat="44.5059735" lon="11.1774688"><ele>54.0</ele><time>2026-04-04T13:33:12.379Z</time></trkpt><trkpt lat="44.5059597" lon="11.1775864"><ele>54.0</ele><time>2026-04-04T13:33:14.393Z</time></trkpt><trkpt lat="44.5059443" lon="11.1777111"><ele>54.0</ele><time>2026-04-04T13:33:16.382Z</time></trkpt><trkpt lat="44.5059305" lon="11.1778362"><ele>54.0</ele><time>2026-04-04T13:33:18.381Z</time></trkpt><trkpt lat="44.5059162" lon="11.1779598"><ele>54.0</ele><time>2026-04-04T13:33:20.375Z</time></trkpt><trkpt lat="44.5058996" lon="11.1780828"><ele>54.0</ele><time>2026-04-04T13:33:22.384Z</time></trkpt><trkpt lat="44.5058842" lon="11.1782027"><ele>54.0</ele><time>2026-04-04T13:33:24.385Z</time></trkpt><trkpt lat="44.5058645" lon="11.1783255"><ele>53.400000000000006</ele><time>2026-04-04T13:33:26.373Z</time></trkpt><trkpt lat="44.505844" lon="11.1784552"><ele>52.800000000000004</ele><time>2026-04-04T13:33:28.399Z</time></trkpt><trkpt lat="44.5058185" lon="11.178587"><ele>52.2</ele><time>2026-04-04T13:33:30.39Z</time></trkpt><trkpt lat="44.5057894" lon="11.1787176"><ele>51.599999999999994</ele><time>2026-04-04T13:33:32.389Z</time></trkpt><trkpt lat="44.5057597" lon="11.1788497"><ele>51.0</ele><time>2026-04-04T13:33:34.379Z</time></trkpt><trkpt lat="44.5057287" lon="11.1789784"><ele>51.4</ele><time>2026-04-04T13:33:36.379Z</time></trkpt><trkpt lat="44.5056936" lon="11.1791064"><ele>51.8</ele><time>2026-04-04T13:33:38.388Z</time></trkpt><trkpt lat="44.5056556" lon="11.179234"><ele>52.199999999999996</ele><time>2026-04-04T13:33:40.388Z</time></trkpt><trkpt lat="44.5056157" lon="11.1793621"><ele>52.599999999999994</ele><time>2026-04-04T13:33:42.378Z</time></trkpt><trkpt lat="44.5055735" lon="11.1794848"><ele>53.0</ele><time>2026-04-04T13:33:44.386Z</time></trkpt><trkpt lat="44.5055298" lon="11.1796057"><ele>53.0</ele><time>2026-04-04T13:33:46.378Z</time></trkpt><trkpt lat="44.5054828" lon="11.1797252"><ele>53.0</ele><time>2026-04-04T13:33:48.386Z</time></trkpt><trkpt lat="44.5054328" lon="11.1798437"><ele>53.0</ele><time>2026-04-04T13:33:50.382Z</time></trkpt><trkpt lat="44.5053808" lon="11.1799615"><ele>53.0</ele><time>2026-04-04T13:33:52.375Z</time></trkpt><trkpt lat="44.5053258" lon="11.1800801"><ele>53.0</ele><time>2026-04-04T13:33:54.384Z</time></trkpt><trkpt lat="44.5052726" lon="11.1801979"><ele>53.0</ele><time>2026-04-04T13:33:56.372Z</time></trkpt><trkpt lat="44.5052207" lon="11.1803123"><ele>53.0</ele><time>2026-04-04T13:33:58.389Z</time></trkpt><trkpt lat="44.5051705" lon="11.1804297"><ele>53.0</ele><time>2026-04-04T13:34:00.398Z</time></trkpt><trkpt lat="44.5051197" lon="11.1805462"><ele>53.0</ele><time>2026-04-04T13:34:02.393Z</time></trkpt><trkpt lat="44.5050683" lon="11.1806632"><ele>53.0</ele><time>2026-04-04T13:34:04.371Z</time></trkpt><trkpt lat="44.505016" lon="11.1807823"><ele>53.2</ele><time>2026-04-04T13:34:06.373Z</time></trkpt><trkpt lat="44.5049626" lon="11.1808974"><ele>53.4</ele><time>2026-04-04T13:34:08.378Z</time></trkpt><trkpt lat="44.5049094" lon="11.1810143"><ele>53.60000000000001</ele><time>2026-04-04T13:34:10.385Z</time></trkpt><trkpt lat="44.5048589" lon="11.1811335"><ele>53.800000000000004</ele><time>2026-04-04T13:34:12.383Z</time></trkpt><trkpt lat="44.5048077" lon="11.1812578"><ele>54.0</ele><time>2026-04-04T13:34:14.393Z</time></trkpt><trkpt lat="44.504758" lon="11.1813817"><ele>54.0</ele><time>2026-04-04T13:34:16.378Z</time></trkpt><trkpt lat="44.5047074" lon="11.1815063"><ele>54.00000000000001</ele><time>2026-04-04T13:34:18.385Z</time></trkpt><trkpt lat="44.5046622" lon="11.1816299"><ele>54.00000000000001</ele><time>2026-04-04T13:34:20.38Z</time></trkpt><trkpt lat="44.5046147" lon="11.1817551"><ele>54.0</ele><time>2026-04-04T13:34:22.382Z</time></trkpt><trkpt lat="44.5045679" lon="11.1818849"><ele>54.0</ele><time>2026-04-04T13:34:24.388Z</time></trkpt><trkpt lat="44.5045218" lon="11.1820183"><ele>54.0</ele><time>2026-04-04T13:34:26.382Z</time></trkpt><trkpt lat="44.5044729" lon="11.1821522"><ele>54.00000000000001</ele><time>2026-04-04T13:34:28.384Z</time></trkpt><trkpt lat="44.5044252" lon="11.1822858"><ele>54.00000000000001</ele><time>2026-04-04T13:34:30.383Z</time></trkpt><trkpt lat="44.5043788" lon="11.1824179"><ele>54.0</ele><time>2026-04-04T13:34:32.381Z</time></trkpt><trkpt lat="44.5043329" lon="11.1825511"><ele>54.0</ele><time>2026-04-04T13:34:34.379Z</time></trkpt><trkpt lat="44.5042847" lon="11.1826845"><ele>54.2</ele><time>2026-04-04T13:34:36.376Z</time></trkpt><trkpt lat="44.5042371" lon="11.1828168"><ele>54.400000000000006</ele><time>2026-04-04T13:34:38.374Z</time></trkpt><trkpt lat="44.5041886" lon="11.1829474"><ele>54.6</ele><time>2026-04-04T13:34:40.393Z</time></trkpt><trkpt lat="44.5041409" lon="11.1830782"><ele>54.8</ele><time>2026-04-04T13:34:42.387Z</time></trkpt><trkpt lat="44.5040906" lon="11.1832092"><ele>55.0</ele><time>2026-04-04T13:34:44.384Z</time></trkpt><trkpt lat="44.5040373" lon="11.183339"><ele>55.0</ele><time>2026-04-04T13:34:46.386Z</time></trkpt><trkpt lat="44.5039838" lon="11.1834695"><ele>55.0</ele><time>2026-04-04T13:34:48.38Z</time></trkpt><trkpt lat="44.5039295" lon="11.1835971"><ele>55.0</ele><time>2026-04-04T13:34:50.378Z</time></trkpt><trkpt lat="44.5038744" lon="11.183723"><ele>55.0</ele><time>2026-04-04T13:34:52.379Z</time></trkpt><trkpt lat="44.5038178" lon="11.1838462"><ele>55.0</ele><time>2026-04-04T13:34:54.385Z</time></trkpt><trkpt lat="44.5037611" lon="11.1839686"><ele>55.4</ele><time>2026-04-04T13:34:56.392Z</time></trkpt><trkpt lat="44.5037037" lon="11.184092"><ele>55.8</ele><time>2026-04-04T13:34:58.381Z</time></trkpt><trkpt lat="44.5036458" lon="11.1842158"><ele>56.2</ele><time>2026-04-04T13:35:00.384Z</time></trkpt><trkpt lat="44.503587" lon="11.1843401"><ele>56.6</ele><time>2026-04-04T13:35:02.383Z</time></trkpt><trkpt lat="44.5035283" lon="11.1844626"><ele>57.0</ele><time>2026-04-04T13:35:04.382Z</time></trkpt><trkpt lat="44.5034711" lon="11.1845869"><ele>57.0</ele><time>2026-04-04T13:35:06.383Z</time></trkpt><trkpt lat="44.5034113" lon="11.184709"><ele>57.0</ele><time>2026-04-04T13:35:08.37Z</time></trkpt><trkpt lat="44.5033533" lon="11.1848331"><ele>57.0</ele><time>2026-04-04T13:35:10.38Z</time></trkpt><trkpt lat="44.5032957" lon="11.1849554"><ele>57.0</ele><time>2026-04-04T13:35:12.382Z</time></trkpt><trkpt lat="44.50324" lon="11.1850782"><ele>57.0</ele><time>2026-04-04T13:35:14.378Z</time></trkpt><trkpt lat="44.5031834" lon="11.1852005"><ele>57.2</ele><time>2026-04-04T13:35:16.368Z</time></trkpt><trkpt lat="44.5031251" lon="11.1853234"><ele>57.400000000000006</ele><time>2026-04-04T13:35:18.387Z</time></trkpt><trkpt lat="44.5030671" lon="11.1854456"><ele>57.599999999999994</ele><time>2026-04-04T13:35:20.382Z</time></trkpt><trkpt lat="44.5030094" lon="11.1855684"><ele>57.8</ele><time>2026-04-04T13:35:22.388Z</time></trkpt><trkpt lat="44.5029507" lon="11.1856905"><ele>58.0</ele><time>2026-04-04T13:35:24.373Z</time></trkpt><trkpt lat="44.5028933" lon="11.1858143"><ele>58.4</ele><time>2026-04-04T13:35:26.369Z</time></trkpt><trkpt lat="44.5028341" lon="11.1859399"><ele>58.8</ele><time>2026-04-04T13:35:28.383Z</time></trkpt><trkpt lat="44.5027754" lon="11.1860721"><ele>59.2</ele><time>2026-04-04T13:35:30.385Z</time></trkpt><trkpt lat="44.5027159" lon="11.1862054"><ele>59.6</ele><time>2026-04-04T13:35:32.389Z</time></trkpt><trkpt lat="44.5026613" lon="11.1863414"><ele>60.0</ele><time>2026-04-04T13:35:34.381Z</time></trkpt><trkpt lat="44.5026083" lon="11.1864784"><ele>60.6</ele><time>2026-04-04T13:35:36.39Z</time></trkpt><trkpt lat="44.5025611" lon="11.1866157"><ele>61.2</ele><time>2026-04-04T13:35:38.379Z</time></trkpt><trkpt lat="44.5025133" lon="11.1867516"><ele>61.8</ele><time>2026-04-04T13:35:40.382Z</time></trkpt><trkpt lat="44.5024647" lon="11.1868851"><ele>62.4</ele><time>2026-04-04T13:35:42.371Z</time></trkpt><trkpt lat="44.5024196" lon="11.1870186"><ele>63.0</ele><time>2026-04-04T13:35:44.388Z</time></trkpt><trkpt lat="44.5023753" lon="11.1871507"><ele>63.0</ele><time>2026-04-04T13:35:46.38Z</time></trkpt><trkpt lat="44.502331" lon="11.1872828"><ele>63.0</ele><time>2026-04-04T13:35:48.391Z</time></trkpt><trkpt lat="44.5022869" lon="11.1874132"><ele>63.0</ele><time>2026-04-04T13:35:50.383Z</time></trkpt><trkpt lat="44.5022433" lon="11.1875468"><ele>63.0</ele><time>2026-04-04T13:35:52.393Z</time></trkpt><trkpt lat="44.5022021" lon="11.1876779"><ele>63.0</ele><time>2026-04-04T13:35:54.38Z</time></trkpt><trkpt lat="44.5021609" lon="11.1878062"><ele>62.8</ele><time>2026-04-04T13:35:56.385Z</time></trkpt><trkpt lat="44.5021205" lon="11.1879314"><ele>62.599999999999994</ele><time>2026-04-04T13:35:58.378Z</time></trkpt><trkpt lat="44.5020823" lon="11.1880564"><ele>62.400000000000006</ele><time>2026-04-04T13:36:00.383Z</time></trkpt><trkpt lat="44.5020465" lon="11.188179"><ele>62.2</ele><time>2026-04-04T13:36:02.386Z</time></trkpt><trkpt lat="44.50201" lon="11.1882949"><ele>62.0</ele><time>2026-04-04T13:36:04.389Z</time></trkpt><trkpt lat="44.5019756" lon="11.1884066"><ele>61.8</ele><time>2026-04-04T13:36:06.38Z</time></trkpt><trkpt lat="44.5019431" lon="11.188517"><ele>61.6</ele><time>2026-04-04T13:36:08.384Z</time></trkpt><trkpt lat="44.5019087" lon="11.1886299"><ele>61.39999999999999</ele><time>2026-04-04T13:36:10.377Z</time></trkpt><trkpt lat="44.5018731" lon="11.1887478"><ele>61.199999999999996</ele><time>2026-04-04T13:36:12.38Z</time></trkpt><trkpt lat="44.5018356" lon="11.1888685"><ele>61.0</ele><time>2026-04-04T13:36:14.381Z</time></trkpt><trkpt lat="44.5018003" lon="11.1889949"><ele>61.199999999999996</ele><time>2026-04-04T13:36:16.39Z</time></trkpt><trkpt lat="44.5017613" lon="11.1891215"><ele>61.39999999999999</ele><time>2026-04-04T13:36:18.379Z</time></trkpt><trkpt lat="44.5017238" lon="11.1892486"><ele>61.6</ele><time>2026-04-04T13:36:20.383Z</time></trkpt><trkpt lat="44.5016858" lon="11.1893748"><ele>61.8</ele><time>2026-04-04T13:36:22.379Z</time></trkpt><trkpt lat="44.5016475" lon="11.189502"><ele>62.0</ele><time>2026-04-04T13:36:24.393Z</time></trkpt><trkpt lat="44.5016093" lon="11.1896294"><ele>62.0</ele><time>2026-04-04T13:36:26.382Z</time></trkpt><trkpt lat="44.5015695" lon="11.1897566"><ele>62.0</ele><time>2026-04-04T13:36:28.384Z</time></trkpt><trkpt lat="44.5015341" lon="11.1898858"><ele>62.0</ele><time>2026-04-04T13:36:30.37Z</time></trkpt><trkpt lat="44.5014966" lon="11.1900109"><ele>62.0</ele><time>2026-04-04T13:36:32.383Z</time></trkpt><trkpt lat="44.5014582" lon="11.1901342"><ele>62.0</ele><time>2026-04-04T13:36:34.39Z</time></trkpt><trkpt lat="44.5014226" lon="11.1902593"><ele>62.400000000000006</ele><time>2026-04-04T13:36:36.384Z</time></trkpt><trkpt lat="44.5013841" lon="11.1903847"><ele>62.800000000000004</ele><time>2026-04-04T13:36:38.386Z</time></trkpt><trkpt lat="44.5013446" lon="11.1905093"><ele>63.2</ele><time>2026-04-04T13:36:40.38Z</time></trkpt><trkpt lat="44.5013071" lon="11.1906303"><ele>63.6</ele><time>2026-04-04T13:36:42.376Z</time></trkpt><trkpt lat="44.5012716" lon="11.1907504"><ele>64.0</ele><time>2026-04-04T13:36:44.368Z</time></trkpt><trkpt lat="44.5012395" lon="11.1908675"><ele>64.33333333333333</ele><time>2026-04-04T13:36:46.402Z</time></trkpt><trkpt lat="44.5012076" lon="11.1909746"><ele>64.66666666666666</ele><time>2026-04-04T13:36:48.379Z</time></trkpt><trkpt lat="44.5011787" lon="11.1910736"><ele>65.0</ele><time>2026-04-04T13:36:50.385Z</time></trkpt><trkpt lat="44.5011508" lon="11.1911684"><ele>65.33333333333333</ele><time>2026-04-04T13:36:52.379Z</time></trkpt><trkpt lat="44.5011225" lon="11.1912617"><ele>65.66666666666667</ele><time>2026-04-04T13:36:54.389Z</time></trkpt><trkpt lat="44.5010901" lon="11.1913631"><ele>66.0</ele><time>2026-04-04T13:36:56.381Z</time></trkpt><trkpt lat="44.501058" lon="11.1914711"><ele>66.0</ele><time>2026-04-04T13:36:58.376Z</time></trkpt><trkpt lat="44.501025" lon="11.1915805"><ele>66.0</ele><time>2026-04-04T13:37:00.386Z</time></trkpt><trkpt lat="44.5009895" lon="11.1916954"><ele>66.0</ele><time>2026-04-04T13:37:02.381Z</time></trkpt><trkpt lat="44.5009513" lon="11.1918163"><ele>66.0</ele><time>2026-04-04T13:37:04.371Z</time></trkpt><trkpt lat="44.5009116" lon="11.1919422"><ele>66.0</ele><time>2026-04-04T13:37:06.385Z</time></trkpt><trkpt lat="44.5008687" lon="11.1920693"><ele>66.0</ele><time>2026-04-04T13:37:08.394Z</time></trkpt><trkpt lat="44.5008261" lon="11.1921976"><ele>66.0</ele><time>2026-04-04T13:37:10.379Z</time></trkpt><trkpt lat="44.5007839" lon="11.1923297"><ele>66.0</ele><time>2026-04-04T13:37:12.381Z</time></trkpt><trkpt lat="44.5007415" lon="11.1924628"><ele>66.0</ele><time>2026-04-04T13:37:14.387Z</time></trkpt><trkpt lat="44.5007005" lon="11.1925973"><ele>66.0</ele><time>2026-04-04T13:37:16.382Z</time></trkpt><trkpt lat="44.50066" lon="11.1927303"><ele>66.0</ele><time>2026-04-04T13:37:18.396Z</time></trkpt><trkpt lat="44.5006217" lon="11.1928651"><ele>66.0</ele><time>2026-04-04T13:37:20.38Z</time></trkpt><trkpt lat="44.5005798" lon="11.1929996"><ele>66.0</ele><time>2026-04-04T13:37:22.384Z</time></trkpt><trkpt lat="44.5005393" lon="11.1931376"><ele>66.0</ele><time>2026-04-04T13:37:24.387Z</time></trkpt><trkpt lat="44.500494" lon="11.1932746"><ele>66.0</ele><time>2026-04-04T13:37:26.382Z</time></trkpt><trkpt lat="44.5004485" lon="11.193412"><ele>66.0</ele><time>2026-04-04T13:37:28.383Z</time></trkpt><trkpt lat="44.5004046" lon="11.1935484"><ele>66.0</ele><time>2026-04-04T13:37:30.379Z</time></trkpt><trkpt lat="44.50036" lon="11.1936865"><ele>66.0</ele><time>2026-04-04T13:37:32.378Z</time></trkpt><trkpt lat="44.500319" lon="11.1938284"><ele>66.0</ele><time>2026-04-04T13:37:34.388Z</time></trkpt><trkpt lat="44.5002773" lon="11.193976"><ele>66.0</ele><time>2026-04-04T13:37:36.38Z</time></trkpt><trkpt lat="44.5002248" lon="11.1941193"><ele>65.5</ele><time>2026-04-04T13:37:38.371Z</time></trkpt><trkpt lat="44.5001736" lon="11.1942631"><ele>65.0</ele><time>2026-04-04T13:37:40.398Z</time></trkpt><trkpt lat="44.5001264" lon="11.1944064"><ele>64.5</ele><time>2026-04-04T13:37:42.38Z</time></trkpt><trkpt lat="44.5000776" lon="11.194547"><ele>64.0</ele><time>2026-04-04T13:37:44.386Z</time></trkpt><trkpt lat="44.5000324" lon="11.1946898"><ele>64.0</ele><time>2026-04-04T13:37:46.383Z</time></trkpt><trkpt lat="44.4999899" lon="11.1948327"><ele>64.0</ele><time>2026-04-04T13:37:48.382Z</time></trkpt><trkpt lat="44.4999509" lon="11.194975"><ele>64.0</ele><time>2026-04-04T13:37:50.381Z</time></trkpt><trkpt lat="44.4999096" lon="11.1951116"><ele>64.0</ele><time>2026-04-04T13:37:52.382Z</time></trkpt><trkpt lat="44.4998536" lon="11.1952429"><ele>64.0</ele><time>2026-04-04T13:37:54.378Z</time></trkpt><trkpt lat="44.4997964" lon="11.195372"><ele>64.25</ele><time>2026-04-04T13:37:56.372Z</time></trkpt><trkpt lat="44.4997475" lon="11.1955123"><ele>64.5</ele><time>2026-04-04T13:37:58.387Z</time></trkpt><trkpt lat="44.4996847" lon="11.1956432"><ele>64.75</ele><time>2026-04-04T13:38:00.379Z</time></trkpt><trkpt lat="44.4996181" lon="11.1957694"><ele>65.0</ele><time>2026-04-04T13:38:02.382Z</time></trkpt><trkpt lat="44.4995593" lon="11.1959065"><ele>65.0</ele><time>2026-04-04T13:38:04.391Z</time></trkpt><trkpt lat="44.4995046" lon="11.1960467"><ele>65.0</ele><time>2026-04-04T13:38:06.381Z</time></trkpt><trkpt lat="44.4994518" lon="11.1961879"><ele>65.0</ele><time>2026-04-04T13:38:08.392Z</time></trkpt><trkpt lat="44.4993963" lon="11.1963224"><ele>65.0</ele><time>2026-04-04T13:38:10.38Z</time></trkpt><trkpt lat="44.4993431" lon="11.1964554"><ele>65.0</ele><time>2026-04-04T13:38:12.377Z</time></trkpt><trkpt lat="44.4992894" lon="11.1965859"><ele>64.2</ele><time>2026-04-04T13:38:14.391Z</time></trkpt><trkpt lat="44.4992362" lon="11.1967148"><ele>63.4</ele><time>2026-04-04T13:38:16.39Z</time></trkpt><trkpt lat="44.499182" lon="11.1968438"><ele>62.599999999999994</ele><time>2026-04-04T13:38:18.37Z</time></trkpt><trkpt lat="44.4991234" lon="11.1969703"><ele>61.8</ele><time>2026-04-04T13:38:20.383Z</time></trkpt><trkpt lat="44.4990659" lon="11.1970988"><ele>61.0</ele><time>2026-04-04T13:38:22.373Z</time></trkpt><trkpt lat="44.4990074" lon="11.1972264"><ele>61.0</ele><time>2026-04-04T13:38:24.391Z</time></trkpt><trkpt lat="44.4989469" lon="11.1973524"><ele>60.99999999999999</ele><time>2026-04-04T13:38:26.383Z</time></trkpt><trkpt lat="44.4988862" lon="11.1974775"><ele>60.99999999999999</ele><time>2026-04-04T13:38:28.389Z</time></trkpt><trkpt lat="44.4988247" lon="11.1976019"><ele>61.0</ele><time>2026-04-04T13:38:30.383Z</time></trkpt><trkpt lat="44.4987612" lon="11.1977248"><ele>61.0</ele><time>2026-04-04T13:38:32.381Z</time></trkpt><trkpt lat="44.4986987" lon="11.1978463"><ele>61.0</ele><time>2026-04-04T13:38:34.4Z</time></trkpt><trkpt lat="44.4986394" lon="11.1979704"><ele>60.99999999999999</ele><time>2026-04-04T13:38:36.379Z</time></trkpt><trkpt lat="44.4985799" lon="11.198095"><ele>60.99999999999999</ele><time>2026-04-04T13:38:38.382Z</time></trkpt><trkpt lat="44.4985223" lon="11.198221"><ele>61.0</ele><time>2026-04-04T13:38:40.377Z</time></trkpt><trkpt lat="44.4984652" lon="11.1983482"><ele>61.0</ele><time>2026-04-04T13:38:42.385Z</time></trkpt><trkpt lat="44.4984111" lon="11.1984775"><ele>61.599999999999994</ele><time>2026-04-04T13:38:44.39Z</time></trkpt><trkpt lat="44.4983619" lon="11.1986081"><ele>62.199999999999996</ele><time>2026-04-04T13:38:46.375Z</time></trkpt><trkpt lat="44.4983143" lon="11.1987413"><ele>62.800000000000004</ele><time>2026-04-04T13:38:48.384Z</time></trkpt><trkpt lat="44.4982692" lon="11.1988772"><ele>63.400000000000006</ele><time>2026-04-04T13:38:50.384Z</time></trkpt><trkpt lat="44.4982271" lon="11.1990171"><ele>64.0</ele><time>2026-04-04T13:38:52.384Z</time></trkpt><trkpt lat="44.4981861" lon="11.19916"><ele>64.0</ele><time>2026-04-04T13:38:54.374Z</time></trkpt><trkpt lat="44.4981509" lon="11.1993066"><ele>64.0</ele><time>2026-04-04T13:38:56.387Z</time></trkpt><trkpt lat="44.4981131" lon="11.1994506"><ele>64.0</ele><time>2026-04-04T13:38:58.381Z</time></trkpt><trkpt lat="44.4980683" lon="11.1995903"><ele>64.0</ele><time>2026-04-04T13:39:00.386Z</time></trkpt><trkpt lat="44.4980126" lon="11.1997238"><ele>64.0</ele><time>2026-04-04T13:39:02.382Z</time></trkpt><trkpt lat="44.4979344" lon="11.199833"><ele>64.2</ele><time>2026-04-04T13:39:04.384Z</time></trkpt><trkpt lat="44.4978537" lon="11.1999357"><ele>64.4</ele><time>2026-04-04T13:39:06.385Z</time></trkpt><trkpt lat="44.4977841" lon="11.200049"><ele>64.6</ele><time>2026-04-04T13:39:08.379Z</time></trkpt><trkpt lat="44.4977209" lon="11.2001707"><ele>64.8</ele><time>2026-04-04T13:39:10.38Z</time></trkpt><trkpt lat="44.4976643" lon="11.2002995"><ele>65.0</ele><time>2026-04-04T13:39:12.39Z</time></trkpt><trkpt lat="44.4976104" lon="11.2004303"><ele>65.0</ele><time>2026-04-04T13:39:14.385Z</time></trkpt><trkpt lat="44.4975559" lon="11.2005608"><ele>65.0</ele><time>2026-04-04T13:39:16.387Z</time></trkpt><trkpt lat="44.4974999" lon="11.2006894"><ele>65.0</ele><time>2026-04-04T13:39:18.388Z</time></trkpt><trkpt lat="44.4974432" lon="11.2008164"><ele>65.0</ele><time>2026-04-04T13:39:20.384Z</time></trkpt><trkpt lat="44.4973837" lon="11.2009423"><ele>65.0</ele><time>2026-04-04T13:39:22.396Z</time></trkpt><trkpt lat="44.4973206" lon="11.201067"><ele>64.8</ele><time>2026-04-04T13:39:24.388Z</time></trkpt><trkpt lat="44.4972575" lon="11.2011916"><ele>64.6</ele><time>2026-04-04T13:39:26.382Z</time></trkpt><trkpt lat="44.4971912" lon="11.201315"><ele>64.4</ele><time>2026-04-04T13:39:28.392Z</time></trkpt><trkpt lat="44.4971242" lon="11.2014364"><ele>64.2</ele><time>2026-04-04T13:39:30.38Z</time></trkpt><trkpt lat="44.4970549" lon="11.2015561"><ele>64.0</ele><time>2026-04-04T13:39:32.38Z</time></trkpt><trkpt lat="44.4969855" lon="11.2016725"><ele>64.0</ele><time>2026-04-04T13:39:34.378Z</time></trkpt><trkpt lat="44.4969161" lon="11.2017875"><ele>64.0</ele><time>2026-04-04T13:39:36.391Z</time></trkpt><trkpt lat="44.4968451" lon="11.2019006"><ele>64.0</ele><time>2026-04-04T13:39:38.385Z</time></trkpt><trkpt lat="44.4967745" lon="11.2020158"><ele>64.0</ele><time>2026-04-04T13:39:40.388Z</time></trkpt><trkpt lat="44.4967018" lon="11.2021307"><ele>64.0</ele><time>2026-04-04T13:39:42.391Z</time></trkpt><trkpt lat="44.4966285" lon="11.2022458"><ele>64.2</ele><time>2026-04-04T13:39:44.388Z</time></trkpt><trkpt lat="44.496554" lon="11.2023608"><ele>64.4</ele><time>2026-04-04T13:39:46.383Z</time></trkpt><trkpt lat="44.4964793" lon="11.2024731"><ele>64.6</ele><time>2026-04-04T13:39:48.4Z</time></trkpt><trkpt lat="44.4964084" lon="11.2025886"><ele>64.8</ele><time>2026-04-04T13:39:50.387Z</time></trkpt><trkpt lat="44.4963358" lon="11.2027047"><ele>65.0</ele><time>2026-04-04T13:39:52.394Z</time></trkpt><trkpt lat="44.4962652" lon="11.2028214"><ele>65.4</ele><time>2026-04-04T13:39:54.381Z</time></trkpt><trkpt lat="44.4961958" lon="11.202938"><ele>65.8</ele><time>2026-04-04T13:39:56.382Z</time></trkpt><trkpt lat="44.4961271" lon="11.2030541"><ele>66.2</ele><time>2026-04-04T13:39:58.392Z</time></trkpt><trkpt lat="44.4960592" lon="11.203169"><ele>66.6</ele><time>2026-04-04T13:40:00.382Z</time></trkpt><trkpt lat="44.4959963" lon="11.2032882"><ele>67.0</ele><time>2026-04-04T13:40:02.395Z</time></trkpt><trkpt lat="44.4959358" lon="11.2034079"><ele>67.0</ele><time>2026-04-04T13:40:04.387Z</time></trkpt><trkpt lat="44.4958794" lon="11.2035321"><ele>67.0</ele><time>2026-04-04T13:40:06.381Z</time></trkpt><trkpt lat="44.4958258" lon="11.203657"><ele>67.0</ele><time>2026-04-04T13:40:08.388Z</time></trkpt><trkpt lat="44.4957745" lon="11.2037858"><ele>67.0</ele><time>2026-04-04T13:40:10.391Z</time></trkpt><trkpt lat="44.4957248" lon="11.2039163"><ele>67.0</ele><time>2026-04-04T13:40:12.386Z</time></trkpt><trkpt lat="44.4956753" lon="11.2040441"><ele>67.0</ele><time>2026-04-04T13:40:14.395Z</time></trkpt><trkpt lat="44.4956273" lon="11.2041699"><ele>67.0</ele><time>2026-04-04T13:40:16.389Z</time></trkpt><trkpt lat="44.4955806" lon="11.2042968"><ele>67.0</ele><time>2026-04-04T13:40:18.384Z</time></trkpt><trkpt lat="44.4955352" lon="11.2044242"><ele>67.0</ele><time>2026-04-04T13:40:20.383Z</time></trkpt><trkpt lat="44.4954898" lon="11.2045515"><ele>67.0</ele><time>2026-04-04T13:40:22.389Z</time></trkpt><trkpt lat="44.4954431" lon="11.2046755"><ele>67.2</ele><time>2026-04-04T13:40:24.384Z</time></trkpt><trkpt lat="44.4953982" lon="11.2048015"><ele>67.4</ele><time>2026-04-04T13:40:26.36Z</time></trkpt><trkpt lat="44.4953538" lon="11.2049281"><ele>67.6</ele><time>2026-04-04T13:40:28.386Z</time></trkpt><trkpt lat="44.4953079" lon="11.2050547"><ele>67.8</ele><time>2026-04-04T13:40:30.381Z</time></trkpt><trkpt lat="44.4952636" lon="11.2051824"><ele>68.0</ele><time>2026-04-04T13:40:32.396Z</time></trkpt><trkpt lat="44.495222" lon="11.2053106"><ele>67.6</ele><time>2026-04-04T13:40:34.382Z</time></trkpt><trkpt lat="44.4951802" lon="11.2054363"><ele>67.19999999999999</ele><time>2026-04-04T13:40:36.398Z</time></trkpt><trkpt lat="44.4951405" lon="11.2055633"><ele>66.8</ele><time>2026-04-04T13:40:38.396Z</time></trkpt><trkpt lat="44.4951026" lon="11.2056933"><ele>66.39999999999999</ele><time>2026-04-04T13:40:40.392Z</time></trkpt><trkpt lat="44.495065" lon="11.2058238"><ele>66.0</ele><time>2026-04-04T13:40:42.382Z</time></trkpt><trkpt lat="44.4950283" lon="11.205953"><ele>66.0</ele><time>2026-04-04T13:40:44.379Z</time></trkpt><trkpt lat="44.4949919" lon="11.206081"><ele>66.0</ele><time>2026-04-04T13:40:46.376Z</time></trkpt><trkpt lat="44.4949568" lon="11.2062087"><ele>66.0</ele><time>2026-04-04T13:40:48.382Z</time></trkpt><trkpt lat="44.4949217" lon="11.206334"><ele>66.0</ele><time>2026-04-04T13:40:50.386Z</time></trkpt><trkpt lat="44.4948883" lon="11.2064532"><ele>66.0</ele><time>2026-04-04T13:40:52.396Z</time></trkpt><trkpt lat="44.4948546" lon="11.2065547"><ele>66.2</ele><time>2026-04-04T13:40:54.39Z</time></trkpt><trkpt lat="44.4947814" lon="11.2066352"><ele>66.39999999999999</ele><time>2026-04-04T13:40:57.387Z</time></trkpt><trkpt lat="44.494692" lon="11.2066709"><ele>66.6</ele><time>2026-04-04T13:40:59.379Z</time></trkpt><trkpt lat="44.4945926" lon="11.2067331"><ele>66.8</ele><time>2026-04-04T13:41:01.387Z</time></trkpt><trkpt lat="44.4945484" lon="11.2068602"><ele>67.0</ele><time>2026-04-04T13:41:03.377Z</time></trkpt><trkpt lat="44.4945704" lon="11.2069989"><ele>67.0</ele><time>2026-04-04T13:41:05.376Z</time></trkpt><trkpt lat="44.4945876" lon="11.2071419"><ele>67.0</ele><time>2026-04-04T13:41:07.384Z</time></trkpt><trkpt lat="44.4945935" lon="11.2072853"><ele>67.0</ele><time>2026-04-04T13:41:09.385Z</time></trkpt><trkpt lat="44.4945895" lon="11.2074154"><ele>67.0</ele><time>2026-04-04T13:41:11.393Z</time></trkpt><trkpt lat="44.494581" lon="11.2075363"><ele>67.0</ele><time>2026-04-04T13:41:13.387Z</time></trkpt><trkpt lat="44.4945647" lon="11.2076633"><ele>67.8</ele><time>2026-04-04T13:41:15.389Z</time></trkpt><trkpt lat="44.4945393" lon="11.2077946"><ele>68.6</ele><time>2026-04-04T13:41:17.384Z</time></trkpt><trkpt lat="44.4945082" lon="11.2079255"><ele>69.39999999999999</ele><time>2026-04-04T13:41:19.386Z</time></trkpt><trkpt lat="44.4944747" lon="11.2080573"><ele>70.2</ele><time>2026-04-04T13:41:21.378Z</time></trkpt><trkpt lat="44.4944423" lon="11.2081901"><ele>71.0</ele><time>2026-04-04T13:41:23.4Z</time></trkpt><trkpt lat="44.4944111" lon="11.2083193"><ele>71.2</ele><time>2026-04-04T13:41:25.4Z</time></trkpt><trkpt lat="44.4943783" lon="11.208454"><ele>71.39999999999999</ele><time>2026-04-04T13:41:27.386Z</time></trkpt><trkpt lat="44.4943452" lon="11.2085922"><ele>71.6</ele><time>2026-04-04T13:41:29.384Z</time></trkpt><trkpt lat="44.4943094" lon="11.2087239"><ele>71.8</ele><time>2026-04-04T13:41:31.388Z</time></trkpt><trkpt lat="44.4942745" lon="11.2088576"><ele>72.0</ele><time>2026-04-04T13:41:33.382Z</time></trkpt><trkpt lat="44.4942396" lon="11.2089928"><ele>72.0</ele><time>2026-04-04T13:41:35.388Z</time></trkpt><trkpt lat="44.4942062" lon="11.2091235"><ele>72.0</ele><time>2026-04-04T13:41:37.381Z</time></trkpt><trkpt lat="44.4941726" lon="11.2092568"><ele>72.0</ele><time>2026-04-04T13:41:39.38Z</time></trkpt><trkpt lat="44.494138" lon="11.2093889"><ele>72.0</ele><time>2026-04-04T13:41:41.381Z</time></trkpt><trkpt lat="44.4941035" lon="11.2095203"><ele>72.0</ele><time>2026-04-04T13:41:43.376Z</time></trkpt><trkpt lat="44.4940694" lon="11.209655"><ele>72.0</ele><time>2026-04-04T13:41:45.375Z</time></trkpt><trkpt lat="44.4940354" lon="11.2097909"><ele>72.0</ele><time>2026-04-04T13:41:47.377Z</time></trkpt><trkpt lat="44.4939887" lon="11.2099237"><ele>72.0</ele><time>2026-04-04T13:41:49.389Z</time></trkpt><trkpt lat="44.4939493" lon="11.210061"><ele>72.0</ele><time>2026-04-04T13:41:51.389Z</time></trkpt><trkpt lat="44.4939075" lon="11.2101957"><ele>72.0</ele><time>2026-04-04T13:41:53.383Z</time></trkpt><trkpt lat="44.4938648" lon="11.2103305"><ele>72.2</ele><time>2026-04-04T13:41:55.389Z</time></trkpt><trkpt lat="44.4938212" lon="11.2104655"><ele>72.4</ele><time>2026-04-04T13:41:57.388Z</time></trkpt><trkpt lat="44.4937762" lon="11.2105976"><ele>72.6</ele><time>2026-04-04T13:41:59.38Z</time></trkpt><trkpt lat="44.4937319" lon="11.2107302"><ele>72.8</ele><time>2026-04-04T13:42:01.387Z</time></trkpt><trkpt lat="44.4936893" lon="11.2108638"><ele>73.0</ele><time>2026-04-04T13:42:03.391Z</time></trkpt><trkpt lat="44.4936458" lon="11.2109982"><ele>73.0</ele><time>2026-04-04T13:42:05.386Z</time></trkpt><trkpt lat="44.4936016" lon="11.2111315"><ele>73.0</ele><time>2026-04-04T13:42:07.385Z</time></trkpt><trkpt lat="44.4935562" lon="11.2112632"><ele>73.0</ele><time>2026-04-04T13:42:09.388Z</time></trkpt><trkpt lat="44.4935124" lon="11.2113968"><ele>73.0</ele><time>2026-04-04T13:42:11.379Z</time></trkpt><trkpt lat="44.4934691" lon="11.2115329"><ele>73.0</ele><time>2026-04-04T13:42:13.375Z</time></trkpt><trkpt lat="44.4934224" lon="11.2116717"><ele>73.0</ele><time>2026-04-04T13:42:15.382Z</time></trkpt><trkpt lat="44.4933718" lon="11.2118015"><ele>73.0</ele><time>2026-04-04T13:42:17.386Z</time></trkpt><trkpt lat="44.4933284" lon="11.2119259"><ele>73.0</ele><time>2026-04-04T13:42:19.389Z</time></trkpt><trkpt lat="44.4932852" lon="11.2120383"><ele>73.0</ele><time>2026-04-04T13:42:21.381Z</time></trkpt><trkpt lat="44.493236" lon="11.2121401"><ele>73.0</ele><time>2026-04-04T13:42:23.385Z</time></trkpt><trkpt lat="44.4931921" lon="11.2122447"><ele>72.8</ele><time>2026-04-04T13:42:25.392Z</time></trkpt><trkpt lat="44.493168" lon="11.2123708"><ele>72.6</ele><time>2026-04-04T13:42:27.385Z</time></trkpt><trkpt lat="44.4931346" lon="11.2124977"><ele>72.4</ele><time>2026-04-04T13:42:29.385Z</time></trkpt><trkpt lat="44.4930925" lon="11.2126251"><ele>72.2</ele><time>2026-04-04T13:42:31.388Z</time></trkpt><trkpt lat="44.4930503" lon="11.2127526"><ele>72.0</ele><time>2026-04-04T13:42:33.377Z</time></trkpt><trkpt lat="44.4930094" lon="11.2128811"><ele>72.0</ele><time>2026-04-04T13:42:35.391Z</time></trkpt><trkpt lat="44.4929682" lon="11.2130105"><ele>72.0</ele><time>2026-04-04T13:42:37.384Z</time></trkpt><trkpt lat="44.4929274" lon="11.2131416"><ele>72.0</ele><time>2026-04-04T13:42:39.384Z</time></trkpt><trkpt lat="44.4928903" lon="11.2132721"><ele>72.0</ele><time>2026-04-04T13:42:41.383Z</time></trkpt><trkpt lat="44.4928516" lon="11.2134034"><ele>72.0</ele><time>2026-04-04T13:42:43.372Z</time></trkpt><trkpt lat="44.4928147" lon="11.2135355"><ele>72.0</ele><time>2026-04-04T13:42:45.384Z</time></trkpt><trkpt lat="44.4927783" lon="11.2136684"><ele>72.0</ele><time>2026-04-04T13:42:47.383Z</time></trkpt><trkpt lat="44.4927431" lon="11.213801"><ele>72.0</ele><time>2026-04-04T13:42:49.384Z</time></trkpt><trkpt lat="44.4927074" lon="11.2139329"><ele>72.0</ele><time>2026-04-04T13:42:51.382Z</time></trkpt><trkpt lat="44.4926749" lon="11.2140673"><ele>72.0</ele><time>2026-04-04T13:42:53.39Z</time></trkpt><trkpt lat="44.4926438" lon="11.2142037"><ele>72.0</ele><time>2026-04-04T13:42:55.385Z</time></trkpt><trkpt lat="44.4926117" lon="11.2143424"><ele>72.0</ele><time>2026-04-04T13:42:57.389Z</time></trkpt><trkpt lat="44.4925812" lon="11.2144821"><ele>72.0</ele><time>2026-04-04T13:42:59.373Z</time></trkpt><trkpt lat="44.4925516" lon="11.2146194"><ele>72.0</ele><time>2026-04-04T13:43:01.379Z</time></trkpt><trkpt lat="44.4925284" lon="11.2147599"><ele>72.0</ele><time>2026-04-04T13:43:03.387Z</time></trkpt><trkpt lat="44.4925095" lon="11.2149007"><ele>72.0</ele><time>2026-04-04T13:43:05.389Z</time></trkpt><trkpt lat="44.4924938" lon="11.2150439"><ele>72.0</ele><time>2026-04-04T13:43:07.378Z</time></trkpt><trkpt lat="44.4924828" lon="11.2151906"><ele>72.0</ele><time>2026-04-04T13:43:09.397Z</time></trkpt><trkpt lat="44.4924707" lon="11.2153345"><ele>72.0</ele><time>2026-04-04T13:43:11.387Z</time></trkpt><trkpt lat="44.4924583" lon="11.2154769"><ele>72.0</ele><time>2026-04-04T13:43:13.38Z</time></trkpt><trkpt lat="44.4924441" lon="11.2156202"><ele>72.0</ele><time>2026-04-04T13:43:15.381Z</time></trkpt><trkpt lat="44.4924251" lon="11.2157612"><ele>72.0</ele><time>2026-04-04T13:43:17.385Z</time></trkpt><trkpt lat="44.4924013" lon="11.2159019"><ele>72.0</ele><time>2026-04-04T13:43:19.375Z</time></trkpt><trkpt lat="44.4923658" lon="11.2160395"><ele>72.0</ele><time>2026-04-04T13:43:21.381Z</time></trkpt><trkpt lat="44.492323" lon="11.2161761"><ele>72.0</ele><time>2026-04-04T13:43:23.395Z</time></trkpt><trkpt lat="44.4922772" lon="11.2163111"><ele>72.0</ele><time>2026-04-04T13:43:25.38Z</time></trkpt><trkpt lat="44.4922289" lon="11.2164338"><ele>72.0</ele><time>2026-04-04T13:43:27.384Z</time></trkpt><trkpt lat="44.4921761" lon="11.2165517"><ele>72.0</ele><time>2026-04-04T13:43:29.386Z</time></trkpt><trkpt lat="44.4921218" lon="11.2166651"><ele>72.0</ele><time>2026-04-04T13:43:31.382Z</time></trkpt><trkpt lat="44.492063" lon="11.2167752"><ele>72.0</ele><time>2026-04-04T13:43:33.377Z</time></trkpt><trkpt lat="44.4920069" lon="11.2168905"><ele>72.8</ele><time>2026-04-04T13:43:35.395Z</time></trkpt><trkpt lat="44.4919556" lon="11.2170077"><ele>73.6</ele><time>2026-04-04T13:43:37.394Z</time></trkpt><trkpt lat="44.4919023" lon="11.2171201"><ele>74.39999999999999</ele><time>2026-04-04T13:43:39.388Z</time></trkpt><trkpt lat="44.4918512" lon="11.2172326"><ele>75.2</ele><time>2026-04-04T13:43:41.378Z</time></trkpt><trkpt lat="44.4917967" lon="11.2173402"><ele>76.0</ele><time>2026-04-04T13:43:43.377Z</time></trkpt><trkpt lat="44.4917442" lon="11.2174513"><ele>76.0</ele><time>2026-04-04T13:43:45.393Z</time></trkpt><trkpt lat="44.4916936" lon="11.2175635"><ele>76.0</ele><time>2026-04-04T13:43:47.384Z</time></trkpt><trkpt lat="44.491641" lon="11.2176729"><ele>76.0</ele><time>2026-04-04T13:43:49.38Z</time></trkpt><trkpt lat="44.4915848" lon="11.2177841"><ele>76.0</ele><time>2026-04-04T13:43:51.388Z</time></trkpt><trkpt lat="44.491533" lon="11.2178855"><ele>76.0</ele><time>2026-04-04T13:43:53.381Z</time></trkpt><trkpt lat="44.4914772" lon="11.217992"><ele>76.0</ele><time>2026-04-04T13:43:55.394Z</time></trkpt><trkpt lat="44.4914218" lon="11.2181015"><ele>76.0</ele><time>2026-04-04T13:43:57.385Z</time></trkpt><trkpt lat="44.4913683" lon="11.2182094"><ele>76.0</ele><time>2026-04-04T13:43:59.384Z</time></trkpt><trkpt lat="44.4913119" lon="11.2183236"><ele>76.0</ele><time>2026-04-04T13:44:01.391Z</time></trkpt><trkpt lat="44.4912628" lon="11.2184269"><ele>76.0</ele><time>2026-04-04T13:44:03.388Z</time></trkpt><trkpt lat="44.4912182" lon="11.2185279"><ele>76.39999999999999</ele><time>2026-04-04T13:44:05.382Z</time></trkpt><trkpt lat="44.4911758" lon="11.2186378"><ele>76.8</ele><time>2026-04-04T13:44:07.391Z</time></trkpt><trkpt lat="44.4911378" lon="11.2187617"><ele>77.19999999999999</ele><time>2026-04-04T13:44:09.379Z</time></trkpt><trkpt lat="44.4911042" lon="11.2188906"><ele>77.6</ele><time>2026-04-04T13:44:11.381Z</time></trkpt><trkpt lat="44.4910712" lon="11.2190263"><ele>78.0</ele><time>2026-04-04T13:44:13.376Z</time></trkpt><trkpt lat="44.4910327" lon="11.2191632"><ele>78.2</ele><time>2026-04-04T13:44:15.372Z</time></trkpt><trkpt lat="44.4910028" lon="11.2193074"><ele>78.4</ele><time>2026-04-04T13:44:17.381Z</time></trkpt><trkpt lat="44.4909669" lon="11.2194494"><ele>78.60000000000001</ele><time>2026-04-04T13:44:19.38Z</time></trkpt><trkpt lat="44.4909322" lon="11.2195942"><ele>78.8</ele><time>2026-04-04T13:44:21.39Z</time></trkpt><trkpt lat="44.490898" lon="11.2197428"><ele>79.0</ele><time>2026-04-04T13:44:23.39Z</time></trkpt><trkpt lat="44.4908819" lon="11.2198906"><ele>79.0</ele><time>2026-04-04T13:44:25.384Z</time></trkpt><trkpt lat="44.490867" lon="11.2200398"><ele>79.0</ele><time>2026-04-04T13:44:27.386Z</time></trkpt><trkpt lat="44.4908582" lon="11.2201402"><ele>79.0</ele><time>2026-04-04T13:44:29.397Z</time></trkpt><trkpt lat="44.4908577" lon="11.2202576"><ele>79.0</ele><time>2026-04-04T13:44:32.377Z</time></trkpt><trkpt lat="44.4908403" lon="11.2203972"><ele>79.0</ele><time>2026-04-04T13:44:35.405Z</time></trkpt><trkpt lat="44.4908305" lon="11.2205197"><ele>79.0</ele><time>2026-04-04T13:44:37.367Z</time></trkpt><trkpt lat="44.4908025" lon="11.2206451"><ele>79.0</ele><time>2026-04-04T13:44:39.38Z</time></trkpt><trkpt lat="44.4907777" lon="11.2207852"><ele>79.0</ele><time>2026-04-04T13:44:41.376Z</time></trkpt><trkpt lat="44.4907589" lon="11.2209327"><ele>79.0</ele><time>2026-04-04T13:44:43.388Z</time></trkpt><trkpt lat="44.490741" lon="11.2210758"><ele>79.0</ele><time>2026-04-04T13:44:45.372Z</time></trkpt><trkpt lat="44.4907227" lon="11.2212276"><ele>78.60000000000001</ele><time>2026-04-04T13:44:47.383Z</time></trkpt><trkpt lat="44.4906926" lon="11.2213794"><ele>78.2</ele><time>2026-04-04T13:44:49.376Z</time></trkpt><trkpt lat="44.4906557" lon="11.2215438"><ele>77.80000000000001</ele><time>2026-04-04T13:44:51.381Z</time></trkpt><trkpt lat="44.4906187" lon="11.2217127"><ele>77.4</ele><time>2026-04-04T13:44:53.379Z</time></trkpt><trkpt lat="44.4905965" lon="11.2217962"><ele>77.0</ele><time>2026-04-04T13:44:54.378Z</time></trkpt><trkpt lat="44.4905704" lon="11.2218797"><ele>77.0</ele><time>2026-04-04T13:44:55.382Z</time></trkpt><trkpt lat="44.49054" lon="11.2219602"><ele>77.0</ele><time>2026-04-04T13:44:56.381Z</time></trkpt><trkpt lat="44.4905053" lon="11.2220344"><ele>77.0</ele><time>2026-04-04T13:44:57.39Z</time></trkpt><trkpt lat="44.4904306" lon="11.2221672"><ele>77.0</ele><time>2026-04-04T13:44:59.387Z</time></trkpt><trkpt lat="44.4903608" lon="11.2222922"><ele>77.0</ele><time>2026-04-04T13:45:01.384Z</time></trkpt><trkpt lat="44.4902894" lon="11.222416"><ele>77.2</ele><time>2026-04-04T13:45:03.381Z</time></trkpt><trkpt lat="44.490219" lon="11.2225393"><ele>77.4</ele><time>2026-04-04T13:45:05.378Z</time></trkpt><trkpt lat="44.4901456" lon="11.222659"><ele>77.6</ele><time>2026-04-04T13:45:07.384Z</time></trkpt><trkpt lat="44.490075" lon="11.2227791"><ele>77.8</ele><time>2026-04-04T13:45:09.393Z</time></trkpt><trkpt lat="44.4900046" lon="11.222899"><ele>78.0</ele><time>2026-04-04T13:45:11.397Z</time></trkpt><trkpt lat="44.4899373" lon="11.2230192"><ele>78.0</ele><time>2026-04-04T13:45:13.371Z</time></trkpt><trkpt lat="44.4898708" lon="11.223139"><ele>78.0</ele><time>2026-04-04T13:45:15.383Z</time></trkpt><trkpt lat="44.4898017" lon="11.2232567"><ele>78.0</ele><time>2026-04-04T13:45:17.373Z</time></trkpt><trkpt lat="44.4897359" lon="11.2233791"><ele>78.0</ele><time>2026-04-04T13:45:19.378Z</time></trkpt><trkpt lat="44.4896676" lon="11.2234969"><ele>78.0</ele><time>2026-04-04T13:45:21.383Z</time></trkpt><trkpt lat="44.4895967" lon="11.2236168"><ele>78.2</ele><time>2026-04-04T13:45:23.384Z</time></trkpt><trkpt lat="44.4895271" lon="11.2237368"><ele>78.4</ele><time>2026-04-04T13:45:25.386Z</time></trkpt><trkpt lat="44.4894582" lon="11.2238529"><ele>78.60000000000001</ele><time>2026-04-04T13:45:27.381Z</time></trkpt><trkpt lat="44.4893921" lon="11.2239774"><ele>78.8</ele><time>2026-04-04T13:45:29.374Z</time></trkpt><trkpt lat="44.4893239" lon="11.2240947"><ele>79.0</ele><time>2026-04-04T13:45:31.382Z</time></trkpt><trkpt lat="44.4892571" lon="11.2242041"><ele>79.0</ele><time>2026-04-04T13:45:33.383Z</time></trkpt><trkpt lat="44.4891925" lon="11.22432"><ele>79.0</ele><time>2026-04-04T13:45:35.377Z</time></trkpt><trkpt lat="44.4891228" lon="11.2244354"><ele>79.0</ele><time>2026-04-04T13:45:37.381Z</time></trkpt><trkpt lat="44.4890555" lon="11.2245531"><ele>79.0</ele><time>2026-04-04T13:45:39.382Z</time></trkpt><trkpt lat="44.488987" lon="11.2246651"><ele>79.0</ele><time>2026-04-04T13:45:41.376Z</time></trkpt><trkpt lat="44.4889203" lon="11.2247809"><ele>79.0</ele><time>2026-04-04T13:45:43.382Z</time></trkpt><trkpt lat="44.4888536" lon="11.2249004"><ele>79.0</ele><time>2026-04-04T13:45:45.389Z</time></trkpt><trkpt lat="44.488786" lon="11.2250163"><ele>79.0</ele><time>2026-04-04T13:45:47.38Z</time></trkpt><trkpt lat="44.4887178" lon="11.2251345"><ele>79.0</ele><time>2026-04-04T13:45:49.387Z</time></trkpt><trkpt lat="44.4886486" lon="11.2252492"><ele>79.0</ele><time>2026-04-04T13:45:51.387Z</time></trkpt><trkpt lat="44.4885814" lon="11.2253623"><ele>79.0</ele><time>2026-04-04T13:45:53.389Z</time></trkpt><trkpt lat="44.4885137" lon="11.225477"><ele>79.0</ele><time>2026-04-04T13:45:55.387Z</time></trkpt><trkpt lat="44.4884464" lon="11.2255947"><ele>79.0</ele><time>2026-04-04T13:45:57.393Z</time></trkpt><trkpt lat="44.488377" lon="11.2257116"><ele>79.0</ele><time>2026-04-04T13:45:59.374Z</time></trkpt><trkpt lat="44.4883067" lon="11.2258276"><ele>79.0</ele><time>2026-04-04T13:46:01.391Z</time></trkpt><trkpt lat="44.4882364" lon="11.2259455"><ele>79.0</ele><time>2026-04-04T13:46:03.374Z</time></trkpt><trkpt lat="44.488165" lon="11.2260627"><ele>79.0</ele><time>2026-04-04T13:46:05.395Z</time></trkpt><trkpt lat="44.4880966" lon="11.2261843"><ele>79.0</ele><time>2026-04-04T13:46:07.377Z</time></trkpt><trkpt lat="44.4880249" lon="11.2263036"><ele>79.0</ele><time>2026-04-04T13:46:09.38Z</time></trkpt><trkpt lat="44.4879524" lon="11.2264183"><ele>79.0</ele><time>2026-04-04T13:46:11.383Z</time></trkpt><trkpt lat="44.4878738" lon="11.2265152"><ele>79.2</ele><time>2026-04-04T13:46:13.389Z</time></trkpt><trkpt lat="44.4877866" lon="11.2265772"><ele>79.4</ele><time>2026-04-04T13:46:15.378Z</time></trkpt><trkpt lat="44.4876909" lon="11.2266073"><ele>79.6</ele><time>2026-04-04T13:46:17.386Z</time></trkpt><trkpt lat="44.4875931" lon="11.226625"><ele>79.8</ele><time>2026-04-04T13:46:19.373Z</time></trkpt><trkpt lat="44.4874957" lon="11.2265926"><ele>80.0</ele><time>2026-04-04T13:46:21.376Z</time></trkpt><trkpt lat="44.4874015" lon="11.2265345"><ele>80.2</ele><time>2026-04-04T13:46:23.381Z</time></trkpt><trkpt lat="44.4873092" lon="11.2264756"><ele>80.4</ele><time>2026-04-04T13:46:25.383Z</time></trkpt><trkpt lat="44.4872133" lon="11.226409"><ele>80.6</ele><time>2026-04-04T13:46:27.391Z</time></trkpt><trkpt lat="44.4871184" lon="11.2263447"><ele>80.8</ele><time>2026-04-04T13:46:29.388Z</time></trkpt><trkpt lat="44.4870223" lon="11.2262791"><ele>81.0</ele><time>2026-04-04T13:46:31.397Z</time></trkpt><trkpt lat="44.4869264" lon="11.2262168"><ele>81.0</ele><time>2026-04-04T13:46:33.382Z</time></trkpt><trkpt lat="44.486828" lon="11.2261494"><ele>81.0</ele><time>2026-04-04T13:46:35.377Z</time></trkpt><trkpt lat="44.4867284" lon="11.2260831"><ele>81.0</ele><time>2026-04-04T13:46:37.383Z</time></trkpt><trkpt lat="44.4866284" lon="11.2260176"><ele>81.0</ele><time>2026-04-04T13:46:39.394Z</time></trkpt><trkpt lat="44.48653" lon="11.2259526"><ele>81.0</ele><time>2026-04-04T13:46:41.404Z</time></trkpt><trkpt lat="44.4864343" lon="11.2258918"><ele>81.0</ele><time>2026-04-04T13:46:43.381Z</time></trkpt><trkpt lat="44.4863398" lon="11.2258291"><ele>81.0</ele><time>2026-04-04T13:46:45.388Z</time></trkpt><trkpt lat="44.4862445" lon="11.2257697"><ele>81.0</ele><time>2026-04-04T13:46:47.392Z</time></trkpt><trkpt lat="44.486147" lon="11.2257089"><ele>81.0</ele><time>2026-04-04T13:46:49.38Z</time></trkpt><trkpt lat="44.486051" lon="11.2256505"><ele>81.0</ele><time>2026-04-04T13:46:51.383Z</time></trkpt><trkpt lat="44.4859617" lon="11.2256009"><ele>80.6</ele><time>2026-04-04T13:46:53.383Z</time></trkpt><trkpt lat="44.4858648" lon="11.2255531"><ele>80.19999999999999</ele><time>2026-04-04T13:46:55.38Z</time></trkpt><trkpt lat="44.4857527" lon="11.2255204"><ele>79.80000000000001</ele><time>2026-04-04T13:46:57.383Z</time></trkpt><trkpt lat="44.485652" lon="11.2254767"><ele>79.4</ele><time>2026-04-04T13:46:59.381Z</time></trkpt><trkpt lat="44.4855497" lon="11.2254368"><ele>79.0</ele><time>2026-04-04T13:47:01.389Z</time></trkpt><trkpt lat="44.4854418" lon="11.225393"><ele>79.2</ele><time>2026-04-04T13:47:03.381Z</time></trkpt><trkpt lat="44.4853294" lon="11.2253332"><ele>79.4</ele><time>2026-04-04T13:47:05.385Z</time></trkpt><trkpt lat="44.4852132" lon="11.2252842"><ele>79.6</ele><time>2026-04-04T13:47:07.379Z</time></trkpt><trkpt lat="44.4851093" lon="11.2252434"><ele>79.8</ele><time>2026-04-04T13:47:09.388Z</time></trkpt><trkpt lat="44.4850146" lon="11.2252261"><ele>80.0</ele><time>2026-04-04T13:47:11.384Z</time></trkpt><trkpt lat="44.4849293" lon="11.2251962"><ele>80.0</ele><time>2026-04-04T13:47:13.378Z</time></trkpt><trkpt lat="44.4848516" lon="11.2251653"><ele>80.0</ele><time>2026-04-04T13:47:15.383Z</time></trkpt><trkpt lat="44.4847694" lon="11.2251268"><ele>80.0</ele><time>2026-04-04T13:47:17.388Z</time></trkpt><trkpt lat="44.4846956" lon="11.2250997"><ele>80.0</ele><time>2026-04-04T13:47:19.378Z</time></trkpt><trkpt lat="44.4846328" lon="11.2250827"><ele>80.0</ele><time>2026-04-04T13:47:21.381Z</time></trkpt><trkpt lat="44.4845697" lon="11.2251273"><ele>80.0</ele><time>2026-04-04T13:47:23.383Z</time></trkpt><trkpt lat="44.48457" lon="11.2252215"><ele>80.0</ele><time>2026-04-04T13:47:26.387Z</time></trkpt><trkpt lat="44.4845793" lon="11.2253096"><ele>80.0</ele><time>2026-04-04T13:47:29.382Z</time></trkpt><trkpt lat="44.4846509" lon="11.2253679"><ele>80.0</ele><time>2026-04-04T13:47:33.378Z</time></trkpt><trkpt lat="44.4847384" lon="11.2254108"><ele>80.0</ele><time>2026-04-04T13:47:36.379Z</time></trkpt><trkpt lat="44.4848271" lon="11.2254444"><ele>80.0</ele><time>2026-04-04T13:47:39.379Z</time></trkpt><trkpt lat="44.4848907" lon="11.2254656"><ele>80.0</ele><time>2026-04-04T13:47:41.378Z</time></trkpt><trkpt lat="44.4849549" lon="11.2254822"><ele>80.0</ele><time>2026-04-04T13:47:43.39Z</time></trkpt><trkpt lat="44.4850451" lon="11.2255165"><ele>80.0</ele><time>2026-04-04T13:47:45.373Z</time></trkpt><trkpt lat="44.4851318" lon="11.2255449"><ele>80.0</ele><time>2026-04-04T13:47:47.396Z</time></trkpt><trkpt lat="44.4852206" lon="11.2255764"><ele>80.0</ele><time>2026-04-04T13:47:49.369Z</time></trkpt><trkpt lat="44.4853062" lon="11.2256065"><ele>80.0</ele><time>2026-04-04T13:47:51.395Z</time></trkpt><trkpt lat="44.4853927" lon="11.2256342"><ele>80.0</ele><time>2026-04-04T13:47:53.378Z</time></trkpt><trkpt lat="44.4854749" lon="11.2256178"><ele>80.0</ele><time>2026-04-04T13:47:55.395Z</time></trkpt><trkpt lat="44.4855239" lon="11.225544"><ele>80.0</ele><time>2026-04-04T13:47:57.378Z</time></trkpt><trkpt lat="44.4854811" lon="11.2254728"><ele>80.0</ele><time>2026-04-04T13:47:59.376Z</time></trkpt><trkpt lat="44.4854093" lon="11.2254907"><ele>80.0</ele><time>2026-04-04T13:48:02.394Z</time></trkpt><trkpt lat="44.4853446" lon="11.2255025"><ele>80.0</ele><time>2026-04-04T13:48:04.385Z</time></trkpt><trkpt lat="44.4852802" lon="11.2255012"><ele>80.0</ele><time>2026-04-04T13:48:06.375Z</time></trkpt><trkpt lat="44.4851999" lon="11.2254823"><ele>80.0</ele><time>2026-04-04T13:48:08.373Z</time></trkpt><trkpt lat="44.4851222" lon="11.2254591"><ele>80.0</ele><time>2026-04-04T13:48:10.376Z</time></trkpt><trkpt lat="44.48504" lon="11.2254299"><ele>80.0</ele><time>2026-04-04T13:48:12.382Z</time></trkpt><trkpt lat="44.4849574" lon="11.2254014"><ele>80.0</ele><time>2026-04-04T13:48:14.382Z</time></trkpt><trkpt lat="44.4848633" lon="11.2253758"><ele>80.0</ele><time>2026-04-04T13:48:16.375Z</time></trkpt><trkpt lat="44.4847747" lon="11.2253466"><ele>80.0</ele><time>2026-04-04T13:48:18.384Z</time></trkpt><trkpt lat="44.4846915" lon="11.2253296"><ele>80.0</ele><time>2026-04-04T13:48:20.377Z</time></trkpt><trkpt lat="44.4846261" lon="11.22533"><ele>80.0</ele><time>2026-04-04T13:48:22.373Z</time></trkpt><trkpt lat="44.4845786" lon="11.2253995"><ele>80.0</ele><time>2026-04-04T13:48:25.378Z</time></trkpt><trkpt lat="44.4846578" lon="11.2254407"><ele>80.0</ele><time>2026-04-04T13:48:29.377Z</time></trkpt><trkpt lat="44.4847409" lon="11.2254526"><ele>80.0</ele><time>2026-04-04T13:48:32.373Z</time></trkpt><trkpt lat="44.4848063" lon="11.2254651"><ele>80.0</ele><time>2026-04-04T13:48:34.37Z</time></trkpt><trkpt lat="44.4848864" lon="11.2254883"><ele>80.0</ele><time>2026-04-04T13:48:36.385Z</time></trkpt><trkpt lat="44.484965" lon="11.2255062"><ele>80.0</ele><time>2026-04-04T13:48:38.375Z</time></trkpt><trkpt lat="44.4850461" lon="11.2255322"><ele>80.0</ele><time>2026-04-04T13:48:40.367Z</time></trkpt><trkpt lat="44.485127" lon="11.2255539"><ele>80.0</ele><time>2026-04-04T13:48:42.384Z</time></trkpt><trkpt lat="44.4852043" lon="11.2255796"><ele>80.0</ele><time>2026-04-04T13:48:44.38Z</time></trkpt><trkpt lat="44.4852717" lon="11.2255977"><ele>80.0</ele><time>2026-04-04T13:48:46.37Z</time></trkpt><trkpt lat="44.4853334" lon="11.2256176"><ele>80.0</ele><time>2026-04-04T13:48:48.389Z</time></trkpt><trkpt lat="44.4853983" lon="11.2256354"><ele>80.0</ele><time>2026-04-04T13:48:50.38Z</time></trkpt><trkpt lat="44.4854806" lon="11.2256129"><ele>80.0</ele><time>2026-04-04T13:48:53.378Z</time></trkpt><trkpt lat="44.485498" lon="11.2255184"><ele>80.0</ele><time>2026-04-04T13:48:56.381Z</time></trkpt><trkpt lat="44.4854597" lon="11.2254358"><ele>80.0</ele><time>2026-04-04T13:48:59.38Z</time></trkpt><trkpt lat="44.4853829" lon="11.2254442"><ele>80.0</ele><time>2026-04-04T13:49:03.376Z</time></trkpt><trkpt lat="44.4853029" lon="11.2254407"><ele>80.0</ele><time>2026-04-04T13:49:06.378Z</time></trkpt><trkpt lat="44.485217" lon="11.2254276"><ele>80.0</ele><time>2026-04-04T13:49:09.375Z</time></trkpt><trkpt lat="44.4851394" lon="11.2254266"><ele>80.0</ele><time>2026-04-04T13:49:12.377Z</time></trkpt><trkpt lat="44.4850712" lon="11.2253931"><ele>80.0</ele><time>2026-04-04T13:49:16.367Z</time></trkpt><trkpt lat="44.4850458" lon="11.2253067"><ele>80.0</ele><time>2026-04-04T13:57:05.399Z</time></trkpt></trkseg></trk></gpx>